<?xml version="1.0" encoding="UTF-8" standalone="no" ?>
<gpx xmlns="http://www.topografix.com/GPX/1/1" xmlns:xsi="http://www.w3.org/2001/XMLSchema-instance" xsi:schemaLocation="http://www.topografix.com/GPX/1/1 http://www.topografix.com/GPX/1/1/gpx.xsd" version="1.1" creator="VisuGPX - https://www.visugpx.com">
  <metadata>
    <name>Bonne sortie au soleil</name>
    <desc><![CDATA[Bonne sortie sur notre itinéraire classique. Parcours presque sec d\'un bout à l\'autre]]></desc>
  </metadata>
  <trk>
    <name><![CDATA[Rue Antoine Coysevox]]></name>
    <desc><![CDATA[]]></desc>
    <trkseg>
      <trkpt lat="47.51792" lon="6.77441">
        <ele>388</ele>
        <time>2015-03-08T08:20:11.000Z</time>
      </trkpt>
      <trkpt lat="47.5179" lon="6.77445">
        <ele>388</ele>
        <time>2015-03-08T08:20:20.000Z</time>
      </trkpt>
      <trkpt lat="47.5179" lon="6.77447">
        <ele>388</ele>
        <time>2015-03-08T08:20:21.000Z</time>
      </trkpt>
      <trkpt lat="47.5179" lon="6.77451">
        <ele>388</ele>
        <time>2015-03-08T08:20:32.000Z</time>
      </trkpt>
      <trkpt lat="47.51791" lon="6.77455">
        <ele>388</ele>
        <time>2015-03-08T08:20:33.000Z</time>
      </trkpt>
      <trkpt lat="47.5179" lon="6.77461">
        <ele>388</ele>
        <time>2015-03-08T08:20:38.000Z</time>
      </trkpt>
      <trkpt lat="47.5179" lon="6.77462">
        <ele>388</ele>
        <time>2015-03-08T08:20:39.000Z</time>
      </trkpt>
      <trkpt lat="47.51789" lon="6.77464">
        <ele>388</ele>
        <time>2015-03-08T08:21:25.000Z</time>
      </trkpt>
      <trkpt lat="47.51796" lon="6.77485">
        <ele>388</ele>
        <time>2015-03-08T08:21:26.000Z</time>
      </trkpt>
      <trkpt lat="47.51798" lon="6.77483">
        <ele>388</ele>
        <time>2015-03-08T08:21:32.000Z</time>
      </trkpt>
      <trkpt lat="47.518" lon="6.77482">
        <ele>388</ele>
        <time>2015-03-08T08:21:33.000Z</time>
      </trkpt>
      <trkpt lat="47.51803" lon="6.7748">
        <ele>388</ele>
        <time>2015-03-08T08:21:34.000Z</time>
      </trkpt>
      <trkpt lat="47.51805" lon="6.77482">
        <ele>388</ele>
        <time>2015-03-08T08:21:35.000Z</time>
      </trkpt>
      <trkpt lat="47.51805" lon="6.77487">
        <ele>388</ele>
        <time>2015-03-08T08:21:37.000Z</time>
      </trkpt>
      <trkpt lat="47.51801" lon="6.77488">
        <ele>388</ele>
        <time>2015-03-08T08:21:38.000Z</time>
      </trkpt>
      <trkpt lat="47.518" lon="6.7749">
        <ele>388</ele>
        <time>2015-03-08T08:21:39.000Z</time>
      </trkpt>
      <trkpt lat="47.51797" lon="6.77491">
        <ele>388</ele>
        <time>2015-03-08T08:21:40.000Z</time>
      </trkpt>
      <trkpt lat="47.51793" lon="6.77491">
        <ele>388</ele>
        <time>2015-03-08T08:21:41.000Z</time>
      </trkpt>
      <trkpt lat="47.51789" lon="6.77491">
        <ele>388</ele>
        <time>2015-03-08T08:21:42.000Z</time>
      </trkpt>
      <trkpt lat="47.51785" lon="6.7749">
        <ele>388</ele>
        <time>2015-03-08T08:21:43.000Z</time>
      </trkpt>
      <trkpt lat="47.51781" lon="6.77489">
        <ele>388</ele>
        <time>2015-03-08T08:21:44.000Z</time>
      </trkpt>
      <trkpt lat="47.51777" lon="6.77489">
        <ele>388</ele>
        <time>2015-03-08T08:21:45.000Z</time>
      </trkpt>
      <trkpt lat="47.51773" lon="6.77488">
        <ele>388</ele>
        <time>2015-03-08T08:21:46.000Z</time>
      </trkpt>
      <trkpt lat="47.51769" lon="6.77487">
        <ele>389</ele>
        <time>2015-03-08T08:21:47.000Z</time>
      </trkpt>
      <trkpt lat="47.51764" lon="6.77485">
        <ele>389</ele>
        <time>2015-03-08T08:21:48.000Z</time>
      </trkpt>
      <trkpt lat="47.51758" lon="6.77484">
        <ele>389</ele>
        <time>2015-03-08T08:21:49.000Z</time>
      </trkpt>
      <trkpt lat="47.51753" lon="6.77482">
        <ele>389</ele>
        <time>2015-03-08T08:21:50.000Z</time>
      </trkpt>
      <trkpt lat="47.51748" lon="6.77482">
        <ele>389</ele>
        <time>2015-03-08T08:21:51.000Z</time>
      </trkpt>
      <trkpt lat="47.51744" lon="6.77482">
        <ele>389</ele>
        <time>2015-03-08T08:21:52.000Z</time>
      </trkpt>
      <trkpt lat="47.5174" lon="6.7748">
        <ele>389</ele>
        <time>2015-03-08T08:21:53.000Z</time>
      </trkpt>
      <trkpt lat="47.51735" lon="6.77482">
        <ele>389</ele>
        <time>2015-03-08T08:21:54.000Z</time>
      </trkpt>
      <trkpt lat="47.51732" lon="6.77486">
        <ele>389</ele>
        <time>2015-03-08T08:21:55.000Z</time>
      </trkpt>
      <trkpt lat="47.51729" lon="6.77491">
        <ele>389</ele>
        <time>2015-03-08T08:21:56.000Z</time>
      </trkpt>
      <trkpt lat="47.51727" lon="6.77497">
        <ele>389</ele>
        <time>2015-03-08T08:21:57.000Z</time>
      </trkpt>
      <trkpt lat="47.51725" lon="6.77504">
        <ele>390</ele>
        <time>2015-03-08T08:21:58.000Z</time>
      </trkpt>
      <trkpt lat="47.51725" lon="6.77513">
        <ele>390</ele>
        <time>2015-03-08T08:21:59.000Z</time>
      </trkpt>
      <trkpt lat="47.51723" lon="6.77521">
        <ele>390</ele>
        <time>2015-03-08T08:22:00.000Z</time>
      </trkpt>
      <trkpt lat="47.51723" lon="6.7753">
        <ele>390</ele>
        <time>2015-03-08T08:22:01.000Z</time>
      </trkpt>
      <trkpt lat="47.51722" lon="6.77538">
        <ele>390</ele>
        <time>2015-03-08T08:22:02.000Z</time>
      </trkpt>
      <trkpt lat="47.51723" lon="6.77544">
        <ele>390</ele>
        <time>2015-03-08T08:22:03.000Z</time>
      </trkpt>
      <trkpt lat="47.51721" lon="6.7755">
        <ele>390</ele>
        <time>2015-03-08T08:22:04.000Z</time>
      </trkpt>
      <trkpt lat="47.51716" lon="6.77552">
        <ele>390</ele>
        <time>2015-03-08T08:22:05.000Z</time>
      </trkpt>
      <trkpt lat="47.5171" lon="6.7755">
        <ele>390</ele>
        <time>2015-03-08T08:22:06.000Z</time>
      </trkpt>
      <trkpt lat="47.51705" lon="6.77547">
        <ele>390</ele>
        <time>2015-03-08T08:22:07.000Z</time>
      </trkpt>
      <trkpt lat="47.517" lon="6.77541">
        <ele>390</ele>
        <time>2015-03-08T08:22:08.000Z</time>
      </trkpt>
      <trkpt lat="47.51694" lon="6.77535">
        <ele>390</ele>
        <time>2015-03-08T08:22:09.000Z</time>
      </trkpt>
      <trkpt lat="47.51688" lon="6.77529">
        <ele>390</ele>
        <time>2015-03-08T08:22:10.000Z</time>
      </trkpt>
      <trkpt lat="47.51683" lon="6.77524">
        <ele>390</ele>
        <time>2015-03-08T08:22:11.000Z</time>
      </trkpt>
      <trkpt lat="47.51678" lon="6.77517">
        <ele>389</ele>
        <time>2015-03-08T08:22:12.000Z</time>
      </trkpt>
      <trkpt lat="47.51672" lon="6.7751">
        <ele>389</ele>
        <time>2015-03-08T08:22:13.000Z</time>
      </trkpt>
      <trkpt lat="47.51667" lon="6.77504">
        <ele>389</ele>
        <time>2015-03-08T08:22:14.000Z</time>
      </trkpt>
      <trkpt lat="47.51661" lon="6.77496">
        <ele>388</ele>
        <time>2015-03-08T08:22:15.000Z</time>
      </trkpt>
      <trkpt lat="47.51655" lon="6.7749">
        <ele>387</ele>
        <time>2015-03-08T08:22:16.000Z</time>
      </trkpt>
      <trkpt lat="47.5165" lon="6.77482">
        <ele>387</ele>
        <time>2015-03-08T08:22:17.000Z</time>
      </trkpt>
      <trkpt lat="47.51644" lon="6.77475">
        <ele>386</ele>
        <time>2015-03-08T08:22:18.000Z</time>
      </trkpt>
      <trkpt lat="47.51637" lon="6.77467">
        <ele>386</ele>
        <time>2015-03-08T08:22:19.000Z</time>
      </trkpt>
      <trkpt lat="47.51631" lon="6.77459">
        <ele>386</ele>
        <time>2015-03-08T08:22:20.000Z</time>
      </trkpt>
      <trkpt lat="47.51625" lon="6.77451">
        <ele>386</ele>
        <time>2015-03-08T08:22:21.000Z</time>
      </trkpt>
      <trkpt lat="47.51618" lon="6.77444">
        <ele>385</ele>
        <time>2015-03-08T08:22:22.000Z</time>
      </trkpt>
      <trkpt lat="47.51612" lon="6.77437">
        <ele>385</ele>
        <time>2015-03-08T08:22:23.000Z</time>
      </trkpt>
      <trkpt lat="47.51605" lon="6.77429">
        <ele>385</ele>
        <time>2015-03-08T08:22:24.000Z</time>
      </trkpt>
      <trkpt lat="47.51598" lon="6.77422">
        <ele>384</ele>
        <time>2015-03-08T08:22:25.000Z</time>
      </trkpt>
      <trkpt lat="47.51591" lon="6.77413">
        <ele>383</ele>
        <time>2015-03-08T08:22:26.000Z</time>
      </trkpt>
      <trkpt lat="47.51584" lon="6.77405">
        <ele>383</ele>
        <time>2015-03-08T08:22:27.000Z</time>
      </trkpt>
      <trkpt lat="47.51578" lon="6.77397">
        <ele>382</ele>
        <time>2015-03-08T08:22:28.000Z</time>
      </trkpt>
      <trkpt lat="47.51571" lon="6.77388">
        <ele>381</ele>
        <time>2015-03-08T08:22:29.000Z</time>
      </trkpt>
      <trkpt lat="47.51564" lon="6.7738">
        <ele>381</ele>
        <time>2015-03-08T08:22:30.000Z</time>
      </trkpt>
      <trkpt lat="47.51557" lon="6.77372">
        <ele>381</ele>
        <time>2015-03-08T08:22:31.000Z</time>
      </trkpt>
      <trkpt lat="47.5155" lon="6.77363">
        <ele>381</ele>
        <time>2015-03-08T08:22:32.000Z</time>
      </trkpt>
      <trkpt lat="47.51543" lon="6.77355">
        <ele>380</ele>
        <time>2015-03-08T08:22:33.000Z</time>
      </trkpt>
      <trkpt lat="47.51535" lon="6.77347">
        <ele>380</ele>
        <time>2015-03-08T08:22:34.000Z</time>
      </trkpt>
      <trkpt lat="47.51528" lon="6.77338">
        <ele>380</ele>
        <time>2015-03-08T08:22:35.000Z</time>
      </trkpt>
      <trkpt lat="47.5152" lon="6.77329">
        <ele>378</ele>
        <time>2015-03-08T08:22:36.000Z</time>
      </trkpt>
      <trkpt lat="47.51512" lon="6.77319">
        <ele>378</ele>
        <time>2015-03-08T08:22:37.000Z</time>
      </trkpt>
      <trkpt lat="47.51504" lon="6.77309">
        <ele>378</ele>
        <time>2015-03-08T08:22:38.000Z</time>
      </trkpt>
      <trkpt lat="47.51498" lon="6.77298">
        <ele>377</ele>
        <time>2015-03-08T08:22:39.000Z</time>
      </trkpt>
      <trkpt lat="47.51493" lon="6.77285">
        <ele>377</ele>
        <time>2015-03-08T08:22:40.000Z</time>
      </trkpt>
      <trkpt lat="47.51491" lon="6.77271">
        <ele>377</ele>
        <time>2015-03-08T08:22:41.000Z</time>
      </trkpt>
      <trkpt lat="47.51489" lon="6.77257">
        <ele>376</ele>
        <time>2015-03-08T08:22:42.000Z</time>
      </trkpt>
      <trkpt lat="47.51489" lon="6.77244">
        <ele>376</ele>
        <time>2015-03-08T08:22:43.000Z</time>
      </trkpt>
      <trkpt lat="47.51489" lon="6.77231">
        <ele>375</ele>
        <time>2015-03-08T08:22:44.000Z</time>
      </trkpt>
      <trkpt lat="47.51488" lon="6.7722">
        <ele>375</ele>
        <time>2015-03-08T08:22:45.000Z</time>
      </trkpt>
      <trkpt lat="47.51488" lon="6.77211">
        <ele>375</ele>
        <time>2015-03-08T08:22:46.000Z</time>
      </trkpt>
      <trkpt lat="47.51487" lon="6.77203">
        <ele>375</ele>
        <time>2015-03-08T08:22:47.000Z</time>
      </trkpt>
      <trkpt lat="47.51484" lon="6.77197">
        <ele>375</ele>
        <time>2015-03-08T08:22:48.000Z</time>
      </trkpt>
      <trkpt lat="47.51479" lon="6.77193">
        <ele>375</ele>
        <time>2015-03-08T08:22:49.000Z</time>
      </trkpt>
      <trkpt lat="47.51472" lon="6.77196">
        <ele>375</ele>
        <time>2015-03-08T08:22:50.000Z</time>
      </trkpt>
      <trkpt lat="47.51465" lon="6.77199">
        <ele>375</ele>
        <time>2015-03-08T08:22:51.000Z</time>
      </trkpt>
      <trkpt lat="47.51458" lon="6.77202">
        <ele>375</ele>
        <time>2015-03-08T08:22:52.000Z</time>
      </trkpt>
      <trkpt lat="47.5145" lon="6.77206">
        <ele>375</ele>
        <time>2015-03-08T08:22:53.000Z</time>
      </trkpt>
      <trkpt lat="47.51442" lon="6.77209">
        <ele>375</ele>
        <time>2015-03-08T08:22:54.000Z</time>
      </trkpt>
      <trkpt lat="47.51434" lon="6.77212">
        <ele>375</ele>
        <time>2015-03-08T08:22:55.000Z</time>
      </trkpt>
      <trkpt lat="47.51427" lon="6.77215">
        <ele>375</ele>
        <time>2015-03-08T08:22:56.000Z</time>
      </trkpt>
      <trkpt lat="47.5142" lon="6.77218">
        <ele>375</ele>
        <time>2015-03-08T08:22:57.000Z</time>
      </trkpt>
      <trkpt lat="47.51413" lon="6.77221">
        <ele>376</ele>
        <time>2015-03-08T08:22:58.000Z</time>
      </trkpt>
      <trkpt lat="47.51407" lon="6.77225">
        <ele>376</ele>
        <time>2015-03-08T08:22:59.000Z</time>
      </trkpt>
      <trkpt lat="47.51401" lon="6.77228">
        <ele>376</ele>
        <time>2015-03-08T08:23:00.000Z</time>
      </trkpt>
      <trkpt lat="47.51395" lon="6.77231">
        <ele>376</ele>
        <time>2015-03-08T08:23:01.000Z</time>
      </trkpt>
      <trkpt lat="47.5139" lon="6.77234">
        <ele>376</ele>
        <time>2015-03-08T08:23:02.000Z</time>
      </trkpt>
      <trkpt lat="47.51385" lon="6.77237">
        <ele>376</ele>
        <time>2015-03-08T08:23:03.000Z</time>
      </trkpt>
      <trkpt lat="47.5138" lon="6.7724">
        <ele>376</ele>
        <time>2015-03-08T08:23:04.000Z</time>
      </trkpt>
      <trkpt lat="47.51376" lon="6.77243">
        <ele>376</ele>
        <time>2015-03-08T08:23:05.000Z</time>
      </trkpt>
      <trkpt lat="47.51372" lon="6.77246">
        <ele>376</ele>
        <time>2015-03-08T08:23:06.000Z</time>
      </trkpt>
      <trkpt lat="47.51368" lon="6.7725">
        <ele>376</ele>
        <time>2015-03-08T08:23:07.000Z</time>
      </trkpt>
      <trkpt lat="47.51365" lon="6.77254">
        <ele>378</ele>
        <time>2015-03-08T08:23:08.000Z</time>
      </trkpt>
      <trkpt lat="47.51361" lon="6.77257">
        <ele>378</ele>
        <time>2015-03-08T08:23:09.000Z</time>
      </trkpt>
      <trkpt lat="47.51357" lon="6.7726">
        <ele>378</ele>
        <time>2015-03-08T08:23:10.000Z</time>
      </trkpt>
      <trkpt lat="47.51353" lon="6.77263">
        <ele>378</ele>
        <time>2015-03-08T08:23:11.000Z</time>
      </trkpt>
      <trkpt lat="47.5135" lon="6.77266">
        <ele>378</ele>
        <time>2015-03-08T08:23:12.000Z</time>
      </trkpt>
      <trkpt lat="47.51347" lon="6.77269">
        <ele>378</ele>
        <time>2015-03-08T08:23:13.000Z</time>
      </trkpt>
      <trkpt lat="47.51345" lon="6.77272">
        <ele>378</ele>
        <time>2015-03-08T08:23:14.000Z</time>
      </trkpt>
      <trkpt lat="47.51342" lon="6.77275">
        <ele>378</ele>
        <time>2015-03-08T08:23:15.000Z</time>
      </trkpt>
      <trkpt lat="47.51338" lon="6.77277">
        <ele>378</ele>
        <time>2015-03-08T08:23:16.000Z</time>
      </trkpt>
      <trkpt lat="47.51335" lon="6.77279">
        <ele>378</ele>
        <time>2015-03-08T08:23:17.000Z</time>
      </trkpt>
      <trkpt lat="47.51332" lon="6.7728">
        <ele>377</ele>
        <time>2015-03-08T08:23:18.000Z</time>
      </trkpt>
      <trkpt lat="47.51329" lon="6.77281">
        <ele>377</ele>
        <time>2015-03-08T08:23:19.000Z</time>
      </trkpt>
      <trkpt lat="47.51326" lon="6.77282">
        <ele>377</ele>
        <time>2015-03-08T08:23:20.000Z</time>
      </trkpt>
      <trkpt lat="47.51322" lon="6.77281">
        <ele>377</ele>
        <time>2015-03-08T08:23:21.000Z</time>
      </trkpt>
      <trkpt lat="47.51318" lon="6.7728">
        <ele>377</ele>
        <time>2015-03-08T08:23:22.000Z</time>
      </trkpt>
      <trkpt lat="47.51315" lon="6.77279">
        <ele>377</ele>
        <time>2015-03-08T08:23:23.000Z</time>
      </trkpt>
      <trkpt lat="47.51311" lon="6.77278">
        <ele>377</ele>
        <time>2015-03-08T08:23:24.000Z</time>
      </trkpt>
      <trkpt lat="47.51307" lon="6.77277">
        <ele>377</ele>
        <time>2015-03-08T08:23:25.000Z</time>
      </trkpt>
      <trkpt lat="47.51304" lon="6.77275">
        <ele>377</ele>
        <time>2015-03-08T08:23:26.000Z</time>
      </trkpt>
      <trkpt lat="47.513" lon="6.77273">
        <ele>377</ele>
        <time>2015-03-08T08:23:27.000Z</time>
      </trkpt>
      <trkpt lat="47.51296" lon="6.77271">
        <ele>377</ele>
        <time>2015-03-08T08:23:28.000Z</time>
      </trkpt>
      <trkpt lat="47.51293" lon="6.77269">
        <ele>377</ele>
        <time>2015-03-08T08:23:29.000Z</time>
      </trkpt>
      <trkpt lat="47.51289" lon="6.77267">
        <ele>377</ele>
        <time>2015-03-08T08:23:30.000Z</time>
      </trkpt>
      <trkpt lat="47.51285" lon="6.77265">
        <ele>377</ele>
        <time>2015-03-08T08:23:31.000Z</time>
      </trkpt>
      <trkpt lat="47.51281" lon="6.77262">
        <ele>377</ele>
        <time>2015-03-08T08:23:32.000Z</time>
      </trkpt>
      <trkpt lat="47.51277" lon="6.7726">
        <ele>377</ele>
        <time>2015-03-08T08:23:33.000Z</time>
      </trkpt>
      <trkpt lat="47.51273" lon="6.77258">
        <ele>377</ele>
        <time>2015-03-08T08:23:34.000Z</time>
      </trkpt>
      <trkpt lat="47.51268" lon="6.77254">
        <ele>378</ele>
        <time>2015-03-08T08:23:35.000Z</time>
      </trkpt>
      <trkpt lat="47.51264" lon="6.77251">
        <ele>378</ele>
        <time>2015-03-08T08:23:36.000Z</time>
      </trkpt>
      <trkpt lat="47.5126" lon="6.77245">
        <ele>378</ele>
        <time>2015-03-08T08:23:37.000Z</time>
      </trkpt>
      <trkpt lat="47.51257" lon="6.7724">
        <ele>378</ele>
        <time>2015-03-08T08:23:38.000Z</time>
      </trkpt>
      <trkpt lat="47.51253" lon="6.77235">
        <ele>378</ele>
        <time>2015-03-08T08:23:39.000Z</time>
      </trkpt>
      <trkpt lat="47.51249" lon="6.77229">
        <ele>377</ele>
        <time>2015-03-08T08:23:40.000Z</time>
      </trkpt>
      <trkpt lat="47.51246" lon="6.77223">
        <ele>376</ele>
        <time>2015-03-08T08:23:41.000Z</time>
      </trkpt>
      <trkpt lat="47.51242" lon="6.77216">
        <ele>376</ele>
        <time>2015-03-08T08:23:42.000Z</time>
      </trkpt>
      <trkpt lat="47.51239" lon="6.77209">
        <ele>376</ele>
        <time>2015-03-08T08:23:43.000Z</time>
      </trkpt>
      <trkpt lat="47.51235" lon="6.77201">
        <ele>376</ele>
        <time>2015-03-08T08:23:44.000Z</time>
      </trkpt>
      <trkpt lat="47.51231" lon="6.77194">
        <ele>376</ele>
        <time>2015-03-08T08:23:45.000Z</time>
      </trkpt>
      <trkpt lat="47.51228" lon="6.77186">
        <ele>376</ele>
        <time>2015-03-08T08:23:46.000Z</time>
      </trkpt>
      <trkpt lat="47.51224" lon="6.77178">
        <ele>376</ele>
        <time>2015-03-08T08:23:47.000Z</time>
      </trkpt>
      <trkpt lat="47.5122" lon="6.77171">
        <ele>376</ele>
        <time>2015-03-08T08:23:48.000Z</time>
      </trkpt>
      <trkpt lat="47.51216" lon="6.77162">
        <ele>378</ele>
        <time>2015-03-08T08:23:49.000Z</time>
      </trkpt>
      <trkpt lat="47.51213" lon="6.77155">
        <ele>378</ele>
        <time>2015-03-08T08:23:50.000Z</time>
      </trkpt>
      <trkpt lat="47.51208" lon="6.77146">
        <ele>378</ele>
        <time>2015-03-08T08:23:51.000Z</time>
      </trkpt>
      <trkpt lat="47.51204" lon="6.77137">
        <ele>378</ele>
        <time>2015-03-08T08:23:52.000Z</time>
      </trkpt>
      <trkpt lat="47.51199" lon="6.77129">
        <ele>378</ele>
        <time>2015-03-08T08:23:53.000Z</time>
      </trkpt>
      <trkpt lat="47.51195" lon="6.7712">
        <ele>378</ele>
        <time>2015-03-08T08:23:54.000Z</time>
      </trkpt>
      <trkpt lat="47.51191" lon="6.77111">
        <ele>378</ele>
        <time>2015-03-08T08:23:55.000Z</time>
      </trkpt>
      <trkpt lat="47.51187" lon="6.77101">
        <ele>378</ele>
        <time>2015-03-08T08:23:56.000Z</time>
      </trkpt>
      <trkpt lat="47.51182" lon="6.77092">
        <ele>378</ele>
        <time>2015-03-08T08:23:57.000Z</time>
      </trkpt>
      <trkpt lat="47.51177" lon="6.77083">
        <ele>377</ele>
        <time>2015-03-08T08:23:58.000Z</time>
      </trkpt>
      <trkpt lat="47.51172" lon="6.77074">
        <ele>377</ele>
        <time>2015-03-08T08:23:59.000Z</time>
      </trkpt>
      <trkpt lat="47.51166" lon="6.77066">
        <ele>377</ele>
        <time>2015-03-08T08:24:00.000Z</time>
      </trkpt>
      <trkpt lat="47.51159" lon="6.77059">
        <ele>376</ele>
        <time>2015-03-08T08:24:01.000Z</time>
      </trkpt>
      <trkpt lat="47.51152" lon="6.77053">
        <ele>376</ele>
        <time>2015-03-08T08:24:02.000Z</time>
      </trkpt>
      <trkpt lat="47.51145" lon="6.77047">
        <ele>376</ele>
        <time>2015-03-08T08:24:03.000Z</time>
      </trkpt>
      <trkpt lat="47.51138" lon="6.77041">
        <ele>375</ele>
        <time>2015-03-08T08:24:04.000Z</time>
      </trkpt>
      <trkpt lat="47.51132" lon="6.77036">
        <ele>375</ele>
        <time>2015-03-08T08:24:05.000Z</time>
      </trkpt>
      <trkpt lat="47.51126" lon="6.77029">
        <ele>375</ele>
        <time>2015-03-08T08:24:06.000Z</time>
      </trkpt>
      <trkpt lat="47.51119" lon="6.77023">
        <ele>375</ele>
        <time>2015-03-08T08:24:07.000Z</time>
      </trkpt>
      <trkpt lat="47.51112" lon="6.77017">
        <ele>375</ele>
        <time>2015-03-08T08:24:08.000Z</time>
      </trkpt>
      <trkpt lat="47.51106" lon="6.77012">
        <ele>375</ele>
        <time>2015-03-08T08:24:09.000Z</time>
      </trkpt>
      <trkpt lat="47.511" lon="6.77007">
        <ele>375</ele>
        <time>2015-03-08T08:24:10.000Z</time>
      </trkpt>
      <trkpt lat="47.51093" lon="6.77002">
        <ele>375</ele>
        <time>2015-03-08T08:24:11.000Z</time>
      </trkpt>
      <trkpt lat="47.51087" lon="6.76997">
        <ele>375</ele>
        <time>2015-03-08T08:24:12.000Z</time>
      </trkpt>
      <trkpt lat="47.5108" lon="6.76992">
        <ele>375</ele>
        <time>2015-03-08T08:24:13.000Z</time>
      </trkpt>
      <trkpt lat="47.51074" lon="6.76987">
        <ele>375</ele>
        <time>2015-03-08T08:24:14.000Z</time>
      </trkpt>
      <trkpt lat="47.51068" lon="6.76982">
        <ele>375</ele>
        <time>2015-03-08T08:24:15.000Z</time>
      </trkpt>
      <trkpt lat="47.51062" lon="6.76977">
        <ele>375</ele>
        <time>2015-03-08T08:24:16.000Z</time>
      </trkpt>
      <trkpt lat="47.51055" lon="6.76973">
        <ele>375</ele>
        <time>2015-03-08T08:24:17.000Z</time>
      </trkpt>
      <trkpt lat="47.51049" lon="6.76968">
        <ele>375</ele>
        <time>2015-03-08T08:24:18.000Z</time>
      </trkpt>
      <trkpt lat="47.51044" lon="6.76963">
        <ele>375</ele>
        <time>2015-03-08T08:24:19.000Z</time>
      </trkpt>
      <trkpt lat="47.51039" lon="6.76958">
        <ele>375</ele>
        <time>2015-03-08T08:24:20.000Z</time>
      </trkpt>
      <trkpt lat="47.51033" lon="6.76953">
        <ele>375</ele>
        <time>2015-03-08T08:24:21.000Z</time>
      </trkpt>
      <trkpt lat="47.51029" lon="6.76949">
        <ele>375</ele>
        <time>2015-03-08T08:24:22.000Z</time>
      </trkpt>
      <trkpt lat="47.51023" lon="6.76945">
        <ele>375</ele>
        <time>2015-03-08T08:24:23.000Z</time>
      </trkpt>
      <trkpt lat="47.51019" lon="6.76941">
        <ele>375</ele>
        <time>2015-03-08T08:24:24.000Z</time>
      </trkpt>
      <trkpt lat="47.51015" lon="6.76937">
        <ele>375</ele>
        <time>2015-03-08T08:24:25.000Z</time>
      </trkpt>
      <trkpt lat="47.5101" lon="6.76933">
        <ele>375</ele>
        <time>2015-03-08T08:24:26.000Z</time>
      </trkpt>
      <trkpt lat="47.51005" lon="6.76931">
        <ele>375</ele>
        <time>2015-03-08T08:24:27.000Z</time>
      </trkpt>
      <trkpt lat="47.51" lon="6.76927">
        <ele>375</ele>
        <time>2015-03-08T08:24:28.000Z</time>
      </trkpt>
      <trkpt lat="47.50995" lon="6.7692">
        <ele>375</ele>
        <time>2015-03-08T08:24:29.000Z</time>
      </trkpt>
      <trkpt lat="47.50991" lon="6.76913">
        <ele>376</ele>
        <time>2015-03-08T08:24:30.000Z</time>
      </trkpt>
      <trkpt lat="47.50987" lon="6.76908">
        <ele>377</ele>
        <time>2015-03-08T08:24:31.000Z</time>
      </trkpt>
      <trkpt lat="47.50983" lon="6.76904">
        <ele>377</ele>
        <time>2015-03-08T08:24:32.000Z</time>
      </trkpt>
      <trkpt lat="47.50978" lon="6.76902">
        <ele>377</ele>
        <time>2015-03-08T08:24:33.000Z</time>
      </trkpt>
      <trkpt lat="47.50973" lon="6.76902">
        <ele>377</ele>
        <time>2015-03-08T08:24:34.000Z</time>
      </trkpt>
      <trkpt lat="47.50968" lon="6.76899">
        <ele>377</ele>
        <time>2015-03-08T08:24:35.000Z</time>
      </trkpt>
      <trkpt lat="47.50964" lon="6.76893">
        <ele>377</ele>
        <time>2015-03-08T08:24:36.000Z</time>
      </trkpt>
      <trkpt lat="47.5096" lon="6.76889">
        <ele>377</ele>
        <time>2015-03-08T08:24:37.000Z</time>
      </trkpt>
      <trkpt lat="47.50956" lon="6.76885">
        <ele>377</ele>
        <time>2015-03-08T08:24:38.000Z</time>
      </trkpt>
      <trkpt lat="47.50951" lon="6.7688">
        <ele>378</ele>
        <time>2015-03-08T08:24:39.000Z</time>
      </trkpt>
      <trkpt lat="47.50947" lon="6.76877">
        <ele>378</ele>
        <time>2015-03-08T08:24:40.000Z</time>
      </trkpt>
      <trkpt lat="47.50942" lon="6.76873">
        <ele>378</ele>
        <time>2015-03-08T08:24:41.000Z</time>
      </trkpt>
      <trkpt lat="47.50938" lon="6.76869">
        <ele>378</ele>
        <time>2015-03-08T08:24:42.000Z</time>
      </trkpt>
      <trkpt lat="47.50934" lon="6.76863">
        <ele>378</ele>
        <time>2015-03-08T08:24:43.000Z</time>
      </trkpt>
      <trkpt lat="47.50931" lon="6.76858">
        <ele>378</ele>
        <time>2015-03-08T08:24:44.000Z</time>
      </trkpt>
      <trkpt lat="47.50928" lon="6.76852">
        <ele>379</ele>
        <time>2015-03-08T08:24:45.000Z</time>
      </trkpt>
      <trkpt lat="47.50925" lon="6.76846">
        <ele>379</ele>
        <time>2015-03-08T08:24:46.000Z</time>
      </trkpt>
      <trkpt lat="47.50922" lon="6.7684">
        <ele>379</ele>
        <time>2015-03-08T08:24:47.000Z</time>
      </trkpt>
      <trkpt lat="47.50919" lon="6.76834">
        <ele>380</ele>
        <time>2015-03-08T08:24:48.000Z</time>
      </trkpt>
      <trkpt lat="47.50916" lon="6.76829">
        <ele>380</ele>
        <time>2015-03-08T08:24:49.000Z</time>
      </trkpt>
      <trkpt lat="47.50913" lon="6.76823">
        <ele>381</ele>
        <time>2015-03-08T08:24:50.000Z</time>
      </trkpt>
      <trkpt lat="47.50911" lon="6.76817">
        <ele>381</ele>
        <time>2015-03-08T08:24:51.000Z</time>
      </trkpt>
      <trkpt lat="47.50908" lon="6.76812">
        <ele>381</ele>
        <time>2015-03-08T08:24:52.000Z</time>
      </trkpt>
      <trkpt lat="47.50905" lon="6.76807">
        <ele>381</ele>
        <time>2015-03-08T08:24:53.000Z</time>
      </trkpt>
      <trkpt lat="47.50902" lon="6.76799">
        <ele>381</ele>
        <time>2015-03-08T08:24:54.000Z</time>
      </trkpt>
      <trkpt lat="47.50901" lon="6.76793">
        <ele>381</ele>
        <time>2015-03-08T08:24:55.000Z</time>
      </trkpt>
      <trkpt lat="47.50899" lon="6.76787">
        <ele>381</ele>
        <time>2015-03-08T08:24:56.000Z</time>
      </trkpt>
      <trkpt lat="47.50896" lon="6.76781">
        <ele>381</ele>
        <time>2015-03-08T08:24:57.000Z</time>
      </trkpt>
      <trkpt lat="47.50893" lon="6.76774">
        <ele>381</ele>
        <time>2015-03-08T08:24:58.000Z</time>
      </trkpt>
      <trkpt lat="47.50891" lon="6.76768">
        <ele>381</ele>
        <time>2015-03-08T08:24:59.000Z</time>
      </trkpt>
      <trkpt lat="47.50889" lon="6.76762">
        <ele>381</ele>
        <time>2015-03-08T08:25:00.000Z</time>
      </trkpt>
      <trkpt lat="47.50887" lon="6.76756">
        <ele>381</ele>
        <time>2015-03-08T08:25:01.000Z</time>
      </trkpt>
      <trkpt lat="47.50885" lon="6.76751">
        <ele>381</ele>
        <time>2015-03-08T08:25:02.000Z</time>
      </trkpt>
      <trkpt lat="47.50882" lon="6.76744">
        <ele>382</ele>
        <time>2015-03-08T08:25:03.000Z</time>
      </trkpt>
      <trkpt lat="47.5088" lon="6.76739">
        <ele>383</ele>
        <time>2015-03-08T08:25:04.000Z</time>
      </trkpt>
      <trkpt lat="47.50878" lon="6.76734">
        <ele>383</ele>
        <time>2015-03-08T08:25:05.000Z</time>
      </trkpt>
      <trkpt lat="47.50877" lon="6.76728">
        <ele>383</ele>
        <time>2015-03-08T08:25:06.000Z</time>
      </trkpt>
      <trkpt lat="47.50875" lon="6.76722">
        <ele>383</ele>
        <time>2015-03-08T08:25:07.000Z</time>
      </trkpt>
      <trkpt lat="47.50873" lon="6.76717">
        <ele>383</ele>
        <time>2015-03-08T08:25:08.000Z</time>
      </trkpt>
      <trkpt lat="47.50871" lon="6.76712">
        <ele>383</ele>
        <time>2015-03-08T08:25:09.000Z</time>
      </trkpt>
      <trkpt lat="47.50869" lon="6.76706">
        <ele>384</ele>
        <time>2015-03-08T08:25:10.000Z</time>
      </trkpt>
      <trkpt lat="47.50867" lon="6.76699">
        <ele>384</ele>
        <time>2015-03-08T08:25:11.000Z</time>
      </trkpt>
      <trkpt lat="47.50866" lon="6.76694">
        <ele>384</ele>
        <time>2015-03-08T08:25:12.000Z</time>
      </trkpt>
      <trkpt lat="47.50864" lon="6.76689">
        <ele>384</ele>
        <time>2015-03-08T08:25:13.000Z</time>
      </trkpt>
      <trkpt lat="47.50861" lon="6.76684">
        <ele>385</ele>
        <time>2015-03-08T08:25:14.000Z</time>
      </trkpt>
      <trkpt lat="47.50859" lon="6.76679">
        <ele>385</ele>
        <time>2015-03-08T08:25:15.000Z</time>
      </trkpt>
      <trkpt lat="47.50856" lon="6.76675">
        <ele>385</ele>
        <time>2015-03-08T08:25:16.000Z</time>
      </trkpt>
      <trkpt lat="47.50854" lon="6.7667">
        <ele>386</ele>
        <time>2015-03-08T08:25:17.000Z</time>
      </trkpt>
      <trkpt lat="47.50853" lon="6.76665">
        <ele>387</ele>
        <time>2015-03-08T08:25:18.000Z</time>
      </trkpt>
      <trkpt lat="47.50851" lon="6.7666">
        <ele>387</ele>
        <time>2015-03-08T08:25:19.000Z</time>
      </trkpt>
      <trkpt lat="47.50848" lon="6.76655">
        <ele>387</ele>
        <time>2015-03-08T08:25:20.000Z</time>
      </trkpt>
      <trkpt lat="47.50846" lon="6.76651">
        <ele>387</ele>
        <time>2015-03-08T08:25:21.000Z</time>
      </trkpt>
      <trkpt lat="47.50845" lon="6.76646">
        <ele>387</ele>
        <time>2015-03-08T08:25:22.000Z</time>
      </trkpt>
      <trkpt lat="47.50843" lon="6.76642">
        <ele>387</ele>
        <time>2015-03-08T08:25:23.000Z</time>
      </trkpt>
      <trkpt lat="47.50841" lon="6.76638">
        <ele>387</ele>
        <time>2015-03-08T08:25:24.000Z</time>
      </trkpt>
      <trkpt lat="47.50839" lon="6.76634">
        <ele>387</ele>
        <time>2015-03-08T08:25:25.000Z</time>
      </trkpt>
      <trkpt lat="47.50838" lon="6.7663">
        <ele>387</ele>
        <time>2015-03-08T08:25:26.000Z</time>
      </trkpt>
      <trkpt lat="47.50836" lon="6.76626">
        <ele>387</ele>
        <time>2015-03-08T08:25:27.000Z</time>
      </trkpt>
      <trkpt lat="47.50834" lon="6.76622">
        <ele>387</ele>
        <time>2015-03-08T08:25:28.000Z</time>
      </trkpt>
      <trkpt lat="47.50832" lon="6.76618">
        <ele>390</ele>
        <time>2015-03-08T08:25:29.000Z</time>
      </trkpt>
      <trkpt lat="47.50831" lon="6.76614">
        <ele>390</ele>
        <time>2015-03-08T08:25:30.000Z</time>
      </trkpt>
      <trkpt lat="47.50829" lon="6.7661">
        <ele>390</ele>
        <time>2015-03-08T08:25:31.000Z</time>
      </trkpt>
      <trkpt lat="47.50828" lon="6.76606">
        <ele>390</ele>
        <time>2015-03-08T08:25:32.000Z</time>
      </trkpt>
      <trkpt lat="47.50826" lon="6.76602">
        <ele>390</ele>
        <time>2015-03-08T08:25:33.000Z</time>
      </trkpt>
      <trkpt lat="47.50825" lon="6.76598">
        <ele>390</ele>
        <time>2015-03-08T08:25:34.000Z</time>
      </trkpt>
      <trkpt lat="47.50824" lon="6.76594">
        <ele>390</ele>
        <time>2015-03-08T08:25:35.000Z</time>
      </trkpt>
      <trkpt lat="47.50823" lon="6.7659">
        <ele>390</ele>
        <time>2015-03-08T08:25:36.000Z</time>
      </trkpt>
      <trkpt lat="47.5082" lon="6.76588">
        <ele>390</ele>
        <time>2015-03-08T08:25:38.000Z</time>
      </trkpt>
      <trkpt lat="47.50818" lon="6.76589">
        <ele>390</ele>
        <time>2015-03-08T08:25:39.000Z</time>
      </trkpt>
      <trkpt lat="47.50815" lon="6.76591">
        <ele>390</ele>
        <time>2015-03-08T08:25:40.000Z</time>
      </trkpt>
      <trkpt lat="47.50813" lon="6.76592">
        <ele>390</ele>
        <time>2015-03-08T08:25:41.000Z</time>
      </trkpt>
      <trkpt lat="47.5081" lon="6.76592">
        <ele>390</ele>
        <time>2015-03-08T08:25:42.000Z</time>
      </trkpt>
      <trkpt lat="47.50808" lon="6.7659">
        <ele>390</ele>
        <time>2015-03-08T08:25:43.000Z</time>
      </trkpt>
      <trkpt lat="47.50807" lon="6.76586">
        <ele>390</ele>
        <time>2015-03-08T08:25:44.000Z</time>
      </trkpt>
      <trkpt lat="47.50806" lon="6.76583">
        <ele>391</ele>
        <time>2015-03-08T08:25:45.000Z</time>
      </trkpt>
      <trkpt lat="47.50802" lon="6.76582">
        <ele>391</ele>
        <time>2015-03-08T08:25:47.000Z</time>
      </trkpt>
      <trkpt lat="47.50799" lon="6.76583">
        <ele>391</ele>
        <time>2015-03-08T08:25:48.000Z</time>
      </trkpt>
      <trkpt lat="47.50796" lon="6.76585">
        <ele>391</ele>
        <time>2015-03-08T08:25:49.000Z</time>
      </trkpt>
      <trkpt lat="47.50793" lon="6.76586">
        <ele>391</ele>
        <time>2015-03-08T08:25:50.000Z</time>
      </trkpt>
      <trkpt lat="47.50791" lon="6.76587">
        <ele>391</ele>
        <time>2015-03-08T08:25:51.000Z</time>
      </trkpt>
      <trkpt lat="47.50788" lon="6.76588">
        <ele>391</ele>
        <time>2015-03-08T08:25:52.000Z</time>
      </trkpt>
      <trkpt lat="47.50785" lon="6.76588">
        <ele>391</ele>
        <time>2015-03-08T08:25:53.000Z</time>
      </trkpt>
      <trkpt lat="47.50782" lon="6.76589">
        <ele>391</ele>
        <time>2015-03-08T08:25:54.000Z</time>
      </trkpt>
      <trkpt lat="47.50779" lon="6.7659">
        <ele>392</ele>
        <time>2015-03-08T08:25:55.000Z</time>
      </trkpt>
      <trkpt lat="47.50776" lon="6.76591">
        <ele>392</ele>
        <time>2015-03-08T08:25:56.000Z</time>
      </trkpt>
      <trkpt lat="47.50773" lon="6.76592">
        <ele>392</ele>
        <time>2015-03-08T08:25:57.000Z</time>
      </trkpt>
      <trkpt lat="47.5077" lon="6.76593">
        <ele>392</ele>
        <time>2015-03-08T08:25:58.000Z</time>
      </trkpt>
      <trkpt lat="47.50766" lon="6.76593">
        <ele>392</ele>
        <time>2015-03-08T08:25:59.000Z</time>
      </trkpt>
      <trkpt lat="47.50762" lon="6.76594">
        <ele>392</ele>
        <time>2015-03-08T08:26:00.000Z</time>
      </trkpt>
      <trkpt lat="47.50758" lon="6.76594">
        <ele>393</ele>
        <time>2015-03-08T08:26:01.000Z</time>
      </trkpt>
      <trkpt lat="47.50754" lon="6.76594">
        <ele>393</ele>
        <time>2015-03-08T08:26:02.000Z</time>
      </trkpt>
      <trkpt lat="47.50751" lon="6.76595">
        <ele>393</ele>
        <time>2015-03-08T08:26:03.000Z</time>
      </trkpt>
      <trkpt lat="47.50748" lon="6.76595">
        <ele>394</ele>
        <time>2015-03-08T08:26:04.000Z</time>
      </trkpt>
      <trkpt lat="47.50745" lon="6.76595">
        <ele>394</ele>
        <time>2015-03-08T08:26:05.000Z</time>
      </trkpt>
      <trkpt lat="47.50741" lon="6.76595">
        <ele>394</ele>
        <time>2015-03-08T08:26:06.000Z</time>
      </trkpt>
      <trkpt lat="47.50738" lon="6.76595">
        <ele>394</ele>
        <time>2015-03-08T08:26:07.000Z</time>
      </trkpt>
      <trkpt lat="47.50734" lon="6.76594">
        <ele>394</ele>
        <time>2015-03-08T08:26:08.000Z</time>
      </trkpt>
      <trkpt lat="47.5073" lon="6.76594">
        <ele>394</ele>
        <time>2015-03-08T08:26:09.000Z</time>
      </trkpt>
      <trkpt lat="47.50726" lon="6.76593">
        <ele>394</ele>
        <time>2015-03-08T08:26:10.000Z</time>
      </trkpt>
      <trkpt lat="47.50723" lon="6.76592">
        <ele>394</ele>
        <time>2015-03-08T08:26:11.000Z</time>
      </trkpt>
      <trkpt lat="47.50719" lon="6.76592">
        <ele>394</ele>
        <time>2015-03-08T08:26:12.000Z</time>
      </trkpt>
      <trkpt lat="47.50716" lon="6.76591">
        <ele>394</ele>
        <time>2015-03-08T08:26:13.000Z</time>
      </trkpt>
      <trkpt lat="47.50712" lon="6.7659">
        <ele>395</ele>
        <time>2015-03-08T08:26:14.000Z</time>
      </trkpt>
      <trkpt lat="47.50708" lon="6.76589">
        <ele>395</ele>
        <time>2015-03-08T08:26:15.000Z</time>
      </trkpt>
      <trkpt lat="47.50705" lon="6.76589">
        <ele>395</ele>
        <time>2015-03-08T08:26:16.000Z</time>
      </trkpt>
      <trkpt lat="47.50701" lon="6.76588">
        <ele>395</ele>
        <time>2015-03-08T08:26:17.000Z</time>
      </trkpt>
      <trkpt lat="47.50698" lon="6.76588">
        <ele>395</ele>
        <time>2015-03-08T08:26:18.000Z</time>
      </trkpt>
      <trkpt lat="47.50695" lon="6.76588">
        <ele>395</ele>
        <time>2015-03-08T08:26:19.000Z</time>
      </trkpt>
      <trkpt lat="47.50692" lon="6.76589">
        <ele>395</ele>
        <time>2015-03-08T08:26:20.000Z</time>
      </trkpt>
      <trkpt lat="47.50688" lon="6.76589">
        <ele>395</ele>
        <time>2015-03-08T08:26:21.000Z</time>
      </trkpt>
      <trkpt lat="47.50685" lon="6.76589">
        <ele>396</ele>
        <time>2015-03-08T08:26:22.000Z</time>
      </trkpt>
      <trkpt lat="47.50682" lon="6.7659">
        <ele>396</ele>
        <time>2015-03-08T08:26:23.000Z</time>
      </trkpt>
      <trkpt lat="47.50679" lon="6.7659">
        <ele>396</ele>
        <time>2015-03-08T08:26:24.000Z</time>
      </trkpt>
      <trkpt lat="47.50675" lon="6.76591">
        <ele>396</ele>
        <time>2015-03-08T08:26:25.000Z</time>
      </trkpt>
      <trkpt lat="47.50672" lon="6.76592">
        <ele>396</ele>
        <time>2015-03-08T08:26:26.000Z</time>
      </trkpt>
      <trkpt lat="47.50669" lon="6.76592">
        <ele>396</ele>
        <time>2015-03-08T08:26:27.000Z</time>
      </trkpt>
      <trkpt lat="47.50666" lon="6.76593">
        <ele>397</ele>
        <time>2015-03-08T08:26:28.000Z</time>
      </trkpt>
      <trkpt lat="47.50663" lon="6.76594">
        <ele>397</ele>
        <time>2015-03-08T08:26:29.000Z</time>
      </trkpt>
      <trkpt lat="47.5066" lon="6.76595">
        <ele>397</ele>
        <time>2015-03-08T08:26:30.000Z</time>
      </trkpt>
      <trkpt lat="47.50657" lon="6.76596">
        <ele>397</ele>
        <time>2015-03-08T08:26:31.000Z</time>
      </trkpt>
      <trkpt lat="47.50654" lon="6.76597">
        <ele>397</ele>
        <time>2015-03-08T08:26:32.000Z</time>
      </trkpt>
      <trkpt lat="47.50651" lon="6.76598">
        <ele>397</ele>
        <time>2015-03-08T08:26:33.000Z</time>
      </trkpt>
      <trkpt lat="47.50648" lon="6.76599">
        <ele>397</ele>
        <time>2015-03-08T08:26:34.000Z</time>
      </trkpt>
      <trkpt lat="47.50645" lon="6.76599">
        <ele>397</ele>
        <time>2015-03-08T08:26:35.000Z</time>
      </trkpt>
      <trkpt lat="47.50642" lon="6.76599">
        <ele>397</ele>
        <time>2015-03-08T08:26:36.000Z</time>
      </trkpt>
      <trkpt lat="47.5064" lon="6.766">
        <ele>397</ele>
        <time>2015-03-08T08:26:37.000Z</time>
      </trkpt>
      <trkpt lat="47.50637" lon="6.76602">
        <ele>397</ele>
        <time>2015-03-08T08:26:38.000Z</time>
      </trkpt>
      <trkpt lat="47.50635" lon="6.76604">
        <ele>397</ele>
        <time>2015-03-08T08:26:39.000Z</time>
      </trkpt>
      <trkpt lat="47.50632" lon="6.76606">
        <ele>397</ele>
        <time>2015-03-08T08:26:40.000Z</time>
      </trkpt>
      <trkpt lat="47.5063" lon="6.76608">
        <ele>397</ele>
        <time>2015-03-08T08:26:41.000Z</time>
      </trkpt>
      <trkpt lat="47.50628" lon="6.76609">
        <ele>397</ele>
        <time>2015-03-08T08:26:42.000Z</time>
      </trkpt>
      <trkpt lat="47.50625" lon="6.76611">
        <ele>397</ele>
        <time>2015-03-08T08:26:43.000Z</time>
      </trkpt>
      <trkpt lat="47.50623" lon="6.76613">
        <ele>397</ele>
        <time>2015-03-08T08:26:44.000Z</time>
      </trkpt>
      <trkpt lat="47.5062" lon="6.76615">
        <ele>397</ele>
        <time>2015-03-08T08:26:45.000Z</time>
      </trkpt>
      <trkpt lat="47.50617" lon="6.76616">
        <ele>397</ele>
        <time>2015-03-08T08:26:46.000Z</time>
      </trkpt>
      <trkpt lat="47.50614" lon="6.76618">
        <ele>397</ele>
        <time>2015-03-08T08:26:47.000Z</time>
      </trkpt>
      <trkpt lat="47.5061" lon="6.76619">
        <ele>398</ele>
        <time>2015-03-08T08:26:48.000Z</time>
      </trkpt>
      <trkpt lat="47.50607" lon="6.7662">
        <ele>398</ele>
        <time>2015-03-08T08:26:49.000Z</time>
      </trkpt>
      <trkpt lat="47.50603" lon="6.76622">
        <ele>398</ele>
        <time>2015-03-08T08:26:50.000Z</time>
      </trkpt>
      <trkpt lat="47.506" lon="6.76623">
        <ele>398</ele>
        <time>2015-03-08T08:26:51.000Z</time>
      </trkpt>
      <trkpt lat="47.50597" lon="6.76624">
        <ele>398</ele>
        <time>2015-03-08T08:26:52.000Z</time>
      </trkpt>
      <trkpt lat="47.50593" lon="6.76626">
        <ele>398</ele>
        <time>2015-03-08T08:26:53.000Z</time>
      </trkpt>
      <trkpt lat="47.5059" lon="6.76627">
        <ele>398</ele>
        <time>2015-03-08T08:26:54.000Z</time>
      </trkpt>
      <trkpt lat="47.50587" lon="6.76628">
        <ele>398</ele>
        <time>2015-03-08T08:26:55.000Z</time>
      </trkpt>
      <trkpt lat="47.50583" lon="6.76629">
        <ele>399</ele>
        <time>2015-03-08T08:26:56.000Z</time>
      </trkpt>
      <trkpt lat="47.5058" lon="6.76631">
        <ele>399</ele>
        <time>2015-03-08T08:26:57.000Z</time>
      </trkpt>
      <trkpt lat="47.50577" lon="6.76633">
        <ele>399</ele>
        <time>2015-03-08T08:26:58.000Z</time>
      </trkpt>
      <trkpt lat="47.50573" lon="6.76634">
        <ele>399</ele>
        <time>2015-03-08T08:26:59.000Z</time>
      </trkpt>
      <trkpt lat="47.5057" lon="6.76635">
        <ele>399</ele>
        <time>2015-03-08T08:27:00.000Z</time>
      </trkpt>
      <trkpt lat="47.50567" lon="6.76636">
        <ele>399</ele>
        <time>2015-03-08T08:27:01.000Z</time>
      </trkpt>
      <trkpt lat="47.50565" lon="6.76637">
        <ele>399</ele>
        <time>2015-03-08T08:27:02.000Z</time>
      </trkpt>
      <trkpt lat="47.50562" lon="6.76637">
        <ele>399</ele>
        <time>2015-03-08T08:27:03.000Z</time>
      </trkpt>
      <trkpt lat="47.50559" lon="6.76637">
        <ele>399</ele>
        <time>2015-03-08T08:27:04.000Z</time>
      </trkpt>
      <trkpt lat="47.50555" lon="6.76638">
        <ele>399</ele>
        <time>2015-03-08T08:27:05.000Z</time>
      </trkpt>
      <trkpt lat="47.50552" lon="6.76639">
        <ele>399</ele>
        <time>2015-03-08T08:27:06.000Z</time>
      </trkpt>
      <trkpt lat="47.50549" lon="6.76639">
        <ele>399</ele>
        <time>2015-03-08T08:27:07.000Z</time>
      </trkpt>
      <trkpt lat="47.50546" lon="6.7664">
        <ele>399</ele>
        <time>2015-03-08T08:27:08.000Z</time>
      </trkpt>
      <trkpt lat="47.50542" lon="6.7664">
        <ele>399</ele>
        <time>2015-03-08T08:27:09.000Z</time>
      </trkpt>
      <trkpt lat="47.50539" lon="6.76641">
        <ele>399</ele>
        <time>2015-03-08T08:27:10.000Z</time>
      </trkpt>
      <trkpt lat="47.50535" lon="6.76642">
        <ele>399</ele>
        <time>2015-03-08T08:27:11.000Z</time>
      </trkpt>
      <trkpt lat="47.50531" lon="6.76643">
        <ele>399</ele>
        <time>2015-03-08T08:27:12.000Z</time>
      </trkpt>
      <trkpt lat="47.50527" lon="6.76645">
        <ele>399</ele>
        <time>2015-03-08T08:27:13.000Z</time>
      </trkpt>
      <trkpt lat="47.50523" lon="6.76646">
        <ele>399</ele>
        <time>2015-03-08T08:27:14.000Z</time>
      </trkpt>
      <trkpt lat="47.50519" lon="6.76647">
        <ele>399</ele>
        <time>2015-03-08T08:27:15.000Z</time>
      </trkpt>
      <trkpt lat="47.50515" lon="6.76648">
        <ele>399</ele>
        <time>2015-03-08T08:27:16.000Z</time>
      </trkpt>
      <trkpt lat="47.50511" lon="6.76649">
        <ele>399</ele>
        <time>2015-03-08T08:27:17.000Z</time>
      </trkpt>
      <trkpt lat="47.50506" lon="6.7665">
        <ele>399</ele>
        <time>2015-03-08T08:27:18.000Z</time>
      </trkpt>
      <trkpt lat="47.50502" lon="6.76651">
        <ele>399</ele>
        <time>2015-03-08T08:27:19.000Z</time>
      </trkpt>
      <trkpt lat="47.50497" lon="6.76653">
        <ele>399</ele>
        <time>2015-03-08T08:27:20.000Z</time>
      </trkpt>
      <trkpt lat="47.50493" lon="6.76654">
        <ele>399</ele>
        <time>2015-03-08T08:27:21.000Z</time>
      </trkpt>
      <trkpt lat="47.50489" lon="6.76657">
        <ele>399</ele>
        <time>2015-03-08T08:27:22.000Z</time>
      </trkpt>
      <trkpt lat="47.50485" lon="6.76658">
        <ele>399</ele>
        <time>2015-03-08T08:27:23.000Z</time>
      </trkpt>
      <trkpt lat="47.5048" lon="6.76661">
        <ele>399</ele>
        <time>2015-03-08T08:27:24.000Z</time>
      </trkpt>
      <trkpt lat="47.50476" lon="6.76663">
        <ele>398</ele>
        <time>2015-03-08T08:27:25.000Z</time>
      </trkpt>
      <trkpt lat="47.50471" lon="6.76664">
        <ele>398</ele>
        <time>2015-03-08T08:27:26.000Z</time>
      </trkpt>
      <trkpt lat="47.50466" lon="6.76666">
        <ele>398</ele>
        <time>2015-03-08T08:27:27.000Z</time>
      </trkpt>
      <trkpt lat="47.50461" lon="6.76668">
        <ele>397</ele>
        <time>2015-03-08T08:27:28.000Z</time>
      </trkpt>
      <trkpt lat="47.50457" lon="6.7667">
        <ele>397</ele>
        <time>2015-03-08T08:27:29.000Z</time>
      </trkpt>
      <trkpt lat="47.50452" lon="6.76673">
        <ele>397</ele>
        <time>2015-03-08T08:27:30.000Z</time>
      </trkpt>
      <trkpt lat="47.50447" lon="6.76675">
        <ele>397</ele>
        <time>2015-03-08T08:27:31.000Z</time>
      </trkpt>
      <trkpt lat="47.50442" lon="6.76677">
        <ele>397</ele>
        <time>2015-03-08T08:27:32.000Z</time>
      </trkpt>
      <trkpt lat="47.50438" lon="6.76681">
        <ele>397</ele>
        <time>2015-03-08T08:27:33.000Z</time>
      </trkpt>
      <trkpt lat="47.50433" lon="6.76682">
        <ele>397</ele>
        <time>2015-03-08T08:27:34.000Z</time>
      </trkpt>
      <trkpt lat="47.50429" lon="6.76683">
        <ele>397</ele>
        <time>2015-03-08T08:27:35.000Z</time>
      </trkpt>
      <trkpt lat="47.50424" lon="6.76685">
        <ele>397</ele>
        <time>2015-03-08T08:27:36.000Z</time>
      </trkpt>
      <trkpt lat="47.5042" lon="6.76686">
        <ele>397</ele>
        <time>2015-03-08T08:27:37.000Z</time>
      </trkpt>
      <trkpt lat="47.50415" lon="6.76687">
        <ele>397</ele>
        <time>2015-03-08T08:27:38.000Z</time>
      </trkpt>
      <trkpt lat="47.50411" lon="6.76688">
        <ele>397</ele>
        <time>2015-03-08T08:27:39.000Z</time>
      </trkpt>
      <trkpt lat="47.50407" lon="6.76691">
        <ele>397</ele>
        <time>2015-03-08T08:27:40.000Z</time>
      </trkpt>
      <trkpt lat="47.50403" lon="6.76692">
        <ele>397</ele>
        <time>2015-03-08T08:27:41.000Z</time>
      </trkpt>
      <trkpt lat="47.50399" lon="6.76694">
        <ele>397</ele>
        <time>2015-03-08T08:27:42.000Z</time>
      </trkpt>
      <trkpt lat="47.50395" lon="6.76698">
        <ele>397</ele>
        <time>2015-03-08T08:27:43.000Z</time>
      </trkpt>
      <trkpt lat="47.50392" lon="6.767">
        <ele>397</ele>
        <time>2015-03-08T08:27:44.000Z</time>
      </trkpt>
      <trkpt lat="47.50388" lon="6.76703">
        <ele>397</ele>
        <time>2015-03-08T08:27:45.000Z</time>
      </trkpt>
      <trkpt lat="47.50384" lon="6.76705">
        <ele>397</ele>
        <time>2015-03-08T08:27:46.000Z</time>
      </trkpt>
      <trkpt lat="47.50379" lon="6.76707">
        <ele>397</ele>
        <time>2015-03-08T08:27:47.000Z</time>
      </trkpt>
      <trkpt lat="47.50375" lon="6.76709">
        <ele>398</ele>
        <time>2015-03-08T08:27:48.000Z</time>
      </trkpt>
      <trkpt lat="47.50371" lon="6.7671">
        <ele>398</ele>
        <time>2015-03-08T08:27:49.000Z</time>
      </trkpt>
      <trkpt lat="47.50366" lon="6.76711">
        <ele>398</ele>
        <time>2015-03-08T08:27:50.000Z</time>
      </trkpt>
      <trkpt lat="47.50362" lon="6.76713">
        <ele>398</ele>
        <time>2015-03-08T08:27:51.000Z</time>
      </trkpt>
      <trkpt lat="47.50358" lon="6.76714">
        <ele>398</ele>
        <time>2015-03-08T08:27:52.000Z</time>
      </trkpt>
      <trkpt lat="47.50353" lon="6.76716">
        <ele>398</ele>
        <time>2015-03-08T08:27:53.000Z</time>
      </trkpt>
      <trkpt lat="47.50349" lon="6.76718">
        <ele>398</ele>
        <time>2015-03-08T08:27:54.000Z</time>
      </trkpt>
      <trkpt lat="47.50345" lon="6.76719">
        <ele>398</ele>
        <time>2015-03-08T08:27:55.000Z</time>
      </trkpt>
      <trkpt lat="47.50341" lon="6.76721">
        <ele>398</ele>
        <time>2015-03-08T08:27:56.000Z</time>
      </trkpt>
      <trkpt lat="47.50337" lon="6.76722">
        <ele>398</ele>
        <time>2015-03-08T08:27:57.000Z</time>
      </trkpt>
      <trkpt lat="47.50333" lon="6.76724">
        <ele>398</ele>
        <time>2015-03-08T08:27:58.000Z</time>
      </trkpt>
      <trkpt lat="47.50329" lon="6.76725">
        <ele>398</ele>
        <time>2015-03-08T08:27:59.000Z</time>
      </trkpt>
      <trkpt lat="47.50325" lon="6.76726">
        <ele>398</ele>
        <time>2015-03-08T08:28:00.000Z</time>
      </trkpt>
      <trkpt lat="47.50321" lon="6.76729">
        <ele>398</ele>
        <time>2015-03-08T08:28:01.000Z</time>
      </trkpt>
      <trkpt lat="47.50317" lon="6.76731">
        <ele>398</ele>
        <time>2015-03-08T08:28:02.000Z</time>
      </trkpt>
      <trkpt lat="47.50313" lon="6.76733">
        <ele>398</ele>
        <time>2015-03-08T08:28:03.000Z</time>
      </trkpt>
      <trkpt lat="47.50309" lon="6.76735">
        <ele>398</ele>
        <time>2015-03-08T08:28:04.000Z</time>
      </trkpt>
      <trkpt lat="47.50305" lon="6.76737">
        <ele>398</ele>
        <time>2015-03-08T08:28:05.000Z</time>
      </trkpt>
      <trkpt lat="47.503" lon="6.76737">
        <ele>399</ele>
        <time>2015-03-08T08:28:06.000Z</time>
      </trkpt>
      <trkpt lat="47.50296" lon="6.76737">
        <ele>399</ele>
        <time>2015-03-08T08:28:07.000Z</time>
      </trkpt>
      <trkpt lat="47.50292" lon="6.76738">
        <ele>399</ele>
        <time>2015-03-08T08:28:08.000Z</time>
      </trkpt>
      <trkpt lat="47.50289" lon="6.76739">
        <ele>399</ele>
        <time>2015-03-08T08:28:09.000Z</time>
      </trkpt>
      <trkpt lat="47.50285" lon="6.7674">
        <ele>399</ele>
        <time>2015-03-08T08:28:10.000Z</time>
      </trkpt>
      <trkpt lat="47.50281" lon="6.76741">
        <ele>399</ele>
        <time>2015-03-08T08:28:11.000Z</time>
      </trkpt>
      <trkpt lat="47.50277" lon="6.76742">
        <ele>399</ele>
        <time>2015-03-08T08:28:12.000Z</time>
      </trkpt>
      <trkpt lat="47.50274" lon="6.76743">
        <ele>399</ele>
        <time>2015-03-08T08:28:13.000Z</time>
      </trkpt>
      <trkpt lat="47.5027" lon="6.76744">
        <ele>399</ele>
        <time>2015-03-08T08:28:14.000Z</time>
      </trkpt>
      <trkpt lat="47.50267" lon="6.76745">
        <ele>399</ele>
        <time>2015-03-08T08:28:15.000Z</time>
      </trkpt>
      <trkpt lat="47.50263" lon="6.76747">
        <ele>399</ele>
        <time>2015-03-08T08:28:16.000Z</time>
      </trkpt>
      <trkpt lat="47.50259" lon="6.76748">
        <ele>400</ele>
        <time>2015-03-08T08:28:17.000Z</time>
      </trkpt>
      <trkpt lat="47.50256" lon="6.76749">
        <ele>400</ele>
        <time>2015-03-08T08:28:18.000Z</time>
      </trkpt>
      <trkpt lat="47.50252" lon="6.76749">
        <ele>400</ele>
        <time>2015-03-08T08:28:19.000Z</time>
      </trkpt>
      <trkpt lat="47.50249" lon="6.76749">
        <ele>400</ele>
        <time>2015-03-08T08:28:20.000Z</time>
      </trkpt>
      <trkpt lat="47.50246" lon="6.76747">
        <ele>400</ele>
        <time>2015-03-08T08:28:21.000Z</time>
      </trkpt>
      <trkpt lat="47.50243" lon="6.76744">
        <ele>401</ele>
        <time>2015-03-08T08:28:22.000Z</time>
      </trkpt>
      <trkpt lat="47.50241" lon="6.76741">
        <ele>401</ele>
        <time>2015-03-08T08:28:23.000Z</time>
      </trkpt>
      <trkpt lat="47.50239" lon="6.76737">
        <ele>401</ele>
        <time>2015-03-08T08:28:24.000Z</time>
      </trkpt>
      <trkpt lat="47.50238" lon="6.76733">
        <ele>401</ele>
        <time>2015-03-08T08:28:25.000Z</time>
      </trkpt>
      <trkpt lat="47.50236" lon="6.76728">
        <ele>401</ele>
        <time>2015-03-08T08:28:26.000Z</time>
      </trkpt>
      <trkpt lat="47.50235" lon="6.76724">
        <ele>401</ele>
        <time>2015-03-08T08:28:27.000Z</time>
      </trkpt>
      <trkpt lat="47.50234" lon="6.76719">
        <ele>402</ele>
        <time>2015-03-08T08:28:28.000Z</time>
      </trkpt>
      <trkpt lat="47.50232" lon="6.76714">
        <ele>402</ele>
        <time>2015-03-08T08:28:29.000Z</time>
      </trkpt>
      <trkpt lat="47.5023" lon="6.7671">
        <ele>402</ele>
        <time>2015-03-08T08:28:30.000Z</time>
      </trkpt>
      <trkpt lat="47.50229" lon="6.76706">
        <ele>402</ele>
        <time>2015-03-08T08:28:31.000Z</time>
      </trkpt>
      <trkpt lat="47.50227" lon="6.76702">
        <ele>402</ele>
        <time>2015-03-08T08:28:32.000Z</time>
      </trkpt>
      <trkpt lat="47.50226" lon="6.76698">
        <ele>402</ele>
        <time>2015-03-08T08:28:33.000Z</time>
      </trkpt>
      <trkpt lat="47.50225" lon="6.76693">
        <ele>402</ele>
        <time>2015-03-08T08:28:34.000Z</time>
      </trkpt>
      <trkpt lat="47.50223" lon="6.76688">
        <ele>401</ele>
        <time>2015-03-08T08:28:35.000Z</time>
      </trkpt>
      <trkpt lat="47.50222" lon="6.76683">
        <ele>401</ele>
        <time>2015-03-08T08:28:36.000Z</time>
      </trkpt>
      <trkpt lat="47.5022" lon="6.76678">
        <ele>401</ele>
        <time>2015-03-08T08:28:37.000Z</time>
      </trkpt>
      <trkpt lat="47.50219" lon="6.76673">
        <ele>402</ele>
        <time>2015-03-08T08:28:38.000Z</time>
      </trkpt>
      <trkpt lat="47.50217" lon="6.76668">
        <ele>402</ele>
        <time>2015-03-08T08:28:39.000Z</time>
      </trkpt>
      <trkpt lat="47.50215" lon="6.76663">
        <ele>401</ele>
        <time>2015-03-08T08:28:40.000Z</time>
      </trkpt>
      <trkpt lat="47.50214" lon="6.76657">
        <ele>402</ele>
        <time>2015-03-08T08:28:41.000Z</time>
      </trkpt>
      <trkpt lat="47.50212" lon="6.76652">
        <ele>402</ele>
        <time>2015-03-08T08:28:42.000Z</time>
      </trkpt>
      <trkpt lat="47.50211" lon="6.76646">
        <ele>402</ele>
        <time>2015-03-08T08:28:43.000Z</time>
      </trkpt>
      <trkpt lat="47.50209" lon="6.7664">
        <ele>402</ele>
        <time>2015-03-08T08:28:44.000Z</time>
      </trkpt>
      <trkpt lat="47.50208" lon="6.76635">
        <ele>402</ele>
        <time>2015-03-08T08:28:45.000Z</time>
      </trkpt>
      <trkpt lat="47.50206" lon="6.76629">
        <ele>402</ele>
        <time>2015-03-08T08:28:46.000Z</time>
      </trkpt>
      <trkpt lat="47.50204" lon="6.76624">
        <ele>402</ele>
        <time>2015-03-08T08:28:47.000Z</time>
      </trkpt>
      <trkpt lat="47.50203" lon="6.76619">
        <ele>402</ele>
        <time>2015-03-08T08:28:48.000Z</time>
      </trkpt>
      <trkpt lat="47.50201" lon="6.76613">
        <ele>402</ele>
        <time>2015-03-08T08:28:49.000Z</time>
      </trkpt>
      <trkpt lat="47.50199" lon="6.76607">
        <ele>403</ele>
        <time>2015-03-08T08:28:50.000Z</time>
      </trkpt>
      <trkpt lat="47.50197" lon="6.76602">
        <ele>403</ele>
        <time>2015-03-08T08:28:51.000Z</time>
      </trkpt>
      <trkpt lat="47.50197" lon="6.76597">
        <ele>403</ele>
        <time>2015-03-08T08:28:52.000Z</time>
      </trkpt>
      <trkpt lat="47.50198" lon="6.76593">
        <ele>403</ele>
        <time>2015-03-08T08:28:53.000Z</time>
      </trkpt>
      <trkpt lat="47.50199" lon="6.76589">
        <ele>403</ele>
        <time>2015-03-08T08:28:54.000Z</time>
      </trkpt>
      <trkpt lat="47.502" lon="6.76585">
        <ele>403</ele>
        <time>2015-03-08T08:28:55.000Z</time>
      </trkpt>
      <trkpt lat="47.502" lon="6.76582">
        <ele>402</ele>
        <time>2015-03-08T08:28:56.000Z</time>
      </trkpt>
      <trkpt lat="47.50199" lon="6.76579">
        <ele>402</ele>
        <time>2015-03-08T08:28:57.000Z</time>
      </trkpt>
      <trkpt lat="47.50199" lon="6.76575">
        <ele>402</ele>
        <time>2015-03-08T08:28:58.000Z</time>
      </trkpt>
      <trkpt lat="47.502" lon="6.76571">
        <ele>402</ele>
        <time>2015-03-08T08:28:59.000Z</time>
      </trkpt>
      <trkpt lat="47.50202" lon="6.76568">
        <ele>402</ele>
        <time>2015-03-08T08:29:00.000Z</time>
      </trkpt>
      <trkpt lat="47.50205" lon="6.76564">
        <ele>401</ele>
        <time>2015-03-08T08:29:01.000Z</time>
      </trkpt>
      <trkpt lat="47.50208" lon="6.76562">
        <ele>401</ele>
        <time>2015-03-08T08:29:02.000Z</time>
      </trkpt>
      <trkpt lat="47.50212" lon="6.7656">
        <ele>401</ele>
        <time>2015-03-08T08:29:03.000Z</time>
      </trkpt>
      <trkpt lat="47.50216" lon="6.7656">
        <ele>401</ele>
        <time>2015-03-08T08:29:04.000Z</time>
      </trkpt>
      <trkpt lat="47.5022" lon="6.76559">
        <ele>400</ele>
        <time>2015-03-08T08:29:05.000Z</time>
      </trkpt>
      <trkpt lat="47.50223" lon="6.76556">
        <ele>400</ele>
        <time>2015-03-08T08:29:06.000Z</time>
      </trkpt>
      <trkpt lat="47.50225" lon="6.76552">
        <ele>400</ele>
        <time>2015-03-08T08:29:07.000Z</time>
      </trkpt>
      <trkpt lat="47.50226" lon="6.76546">
        <ele>400</ele>
        <time>2015-03-08T08:29:08.000Z</time>
      </trkpt>
      <trkpt lat="47.50226" lon="6.76539">
        <ele>400</ele>
        <time>2015-03-08T08:29:09.000Z</time>
      </trkpt>
      <trkpt lat="47.50222" lon="6.76524">
        <ele>399</ele>
        <time>2015-03-08T08:29:10.000Z</time>
      </trkpt>
      <trkpt lat="47.50219" lon="6.76516">
        <ele>399</ele>
        <time>2015-03-08T08:29:11.000Z</time>
      </trkpt>
      <trkpt lat="47.50217" lon="6.76507">
        <ele>399</ele>
        <time>2015-03-08T08:29:12.000Z</time>
      </trkpt>
      <trkpt lat="47.50212" lon="6.76497">
        <ele>396</ele>
        <time>2015-03-08T08:29:13.000Z</time>
      </trkpt>
      <trkpt lat="47.50207" lon="6.76487">
        <ele>397</ele>
        <time>2015-03-08T08:29:14.000Z</time>
      </trkpt>
      <trkpt lat="47.50203" lon="6.76476">
        <ele>397</ele>
        <time>2015-03-08T08:29:15.000Z</time>
      </trkpt>
      <trkpt lat="47.502" lon="6.76464">
        <ele>396</ele>
        <time>2015-03-08T08:29:16.000Z</time>
      </trkpt>
      <trkpt lat="47.50195" lon="6.76453">
        <ele>396</ele>
        <time>2015-03-08T08:29:17.000Z</time>
      </trkpt>
      <trkpt lat="47.50192" lon="6.76441">
        <ele>396</ele>
        <time>2015-03-08T08:29:18.000Z</time>
      </trkpt>
      <trkpt lat="47.50189" lon="6.7643">
        <ele>396</ele>
        <time>2015-03-08T08:29:19.000Z</time>
      </trkpt>
      <trkpt lat="47.50186" lon="6.76417">
        <ele>397</ele>
        <time>2015-03-08T08:29:20.000Z</time>
      </trkpt>
      <trkpt lat="47.50184" lon="6.76405">
        <ele>393</ele>
        <time>2015-03-08T08:29:21.000Z</time>
      </trkpt>
      <trkpt lat="47.50181" lon="6.76394">
        <ele>392</ele>
        <time>2015-03-08T08:29:22.000Z</time>
      </trkpt>
      <trkpt lat="47.50177" lon="6.76384">
        <ele>392</ele>
        <time>2015-03-08T08:29:23.000Z</time>
      </trkpt>
      <trkpt lat="47.50173" lon="6.76373">
        <ele>391</ele>
        <time>2015-03-08T08:29:24.000Z</time>
      </trkpt>
      <trkpt lat="47.50171" lon="6.76362">
        <ele>391</ele>
        <time>2015-03-08T08:29:25.000Z</time>
      </trkpt>
      <trkpt lat="47.50168" lon="6.76353">
        <ele>390</ele>
        <time>2015-03-08T08:29:26.000Z</time>
      </trkpt>
      <trkpt lat="47.50165" lon="6.76342">
        <ele>394</ele>
        <time>2015-03-08T08:29:27.000Z</time>
      </trkpt>
      <trkpt lat="47.50163" lon="6.76332">
        <ele>392</ele>
        <time>2015-03-08T08:29:28.000Z</time>
      </trkpt>
      <trkpt lat="47.50159" lon="6.76321">
        <ele>394</ele>
        <time>2015-03-08T08:29:29.000Z</time>
      </trkpt>
      <trkpt lat="47.50156" lon="6.7631">
        <ele>395</ele>
        <time>2015-03-08T08:29:30.000Z</time>
      </trkpt>
      <trkpt lat="47.50154" lon="6.76299">
        <ele>395</ele>
        <time>2015-03-08T08:29:31.000Z</time>
      </trkpt>
      <trkpt lat="47.50151" lon="6.76289">
        <ele>395</ele>
        <time>2015-03-08T08:29:32.000Z</time>
      </trkpt>
      <trkpt lat="47.50149" lon="6.76278">
        <ele>394</ele>
        <time>2015-03-08T08:29:33.000Z</time>
      </trkpt>
      <trkpt lat="47.50147" lon="6.76269">
        <ele>394</ele>
        <time>2015-03-08T08:29:34.000Z</time>
      </trkpt>
      <trkpt lat="47.50143" lon="6.76258">
        <ele>393</ele>
        <time>2015-03-08T08:29:35.000Z</time>
      </trkpt>
      <trkpt lat="47.50143" lon="6.76248">
        <ele>389</ele>
        <time>2015-03-08T08:29:36.000Z</time>
      </trkpt>
      <trkpt lat="47.50141" lon="6.76235">
        <ele>390</ele>
        <time>2015-03-08T08:29:37.000Z</time>
      </trkpt>
      <trkpt lat="47.50139" lon="6.76225">
        <ele>390</ele>
        <time>2015-03-08T08:29:38.000Z</time>
      </trkpt>
      <trkpt lat="47.50135" lon="6.76212">
        <ele>390</ele>
        <time>2015-03-08T08:29:39.000Z</time>
      </trkpt>
      <trkpt lat="47.5014" lon="6.76197">
        <ele>388</ele>
        <time>2015-03-08T08:29:40.000Z</time>
      </trkpt>
      <trkpt lat="47.50139" lon="6.76185">
        <ele>387</ele>
        <time>2015-03-08T08:29:41.000Z</time>
      </trkpt>
      <trkpt lat="47.50136" lon="6.76173">
        <ele>387</ele>
        <time>2015-03-08T08:29:42.000Z</time>
      </trkpt>
      <trkpt lat="47.50132" lon="6.76163">
        <ele>384</ele>
        <time>2015-03-08T08:29:43.000Z</time>
      </trkpt>
      <trkpt lat="47.50128" lon="6.7615">
        <ele>384</ele>
        <time>2015-03-08T08:29:44.000Z</time>
      </trkpt>
      <trkpt lat="47.50125" lon="6.76139">
        <ele>384</ele>
        <time>2015-03-08T08:29:45.000Z</time>
      </trkpt>
      <trkpt lat="47.50123" lon="6.76128">
        <ele>384</ele>
        <time>2015-03-08T08:29:46.000Z</time>
      </trkpt>
      <trkpt lat="47.5012" lon="6.76118">
        <ele>384</ele>
        <time>2015-03-08T08:29:47.000Z</time>
      </trkpt>
      <trkpt lat="47.50118" lon="6.76103">
        <ele>384</ele>
        <time>2015-03-08T08:29:48.000Z</time>
      </trkpt>
      <trkpt lat="47.50114" lon="6.76088">
        <ele>385</ele>
        <time>2015-03-08T08:29:49.000Z</time>
      </trkpt>
      <trkpt lat="47.50111" lon="6.76075">
        <ele>381</ele>
        <time>2015-03-08T08:29:50.000Z</time>
      </trkpt>
      <trkpt lat="47.50108" lon="6.76062">
        <ele>381</ele>
        <time>2015-03-08T08:29:51.000Z</time>
      </trkpt>
      <trkpt lat="47.50108" lon="6.76051">
        <ele>380</ele>
        <time>2015-03-08T08:29:52.000Z</time>
      </trkpt>
      <trkpt lat="47.50106" lon="6.7604">
        <ele>380</ele>
        <time>2015-03-08T08:29:53.000Z</time>
      </trkpt>
      <trkpt lat="47.50104" lon="6.7603">
        <ele>379</ele>
        <time>2015-03-08T08:29:54.000Z</time>
      </trkpt>
      <trkpt lat="47.50102" lon="6.76019">
        <ele>379</ele>
        <time>2015-03-08T08:29:55.000Z</time>
      </trkpt>
      <trkpt lat="47.50099" lon="6.76009">
        <ele>379</ele>
        <time>2015-03-08T08:29:56.000Z</time>
      </trkpt>
      <trkpt lat="47.50095" lon="6.75996">
        <ele>377</ele>
        <time>2015-03-08T08:29:57.000Z</time>
      </trkpt>
      <trkpt lat="47.50089" lon="6.75986">
        <ele>376</ele>
        <time>2015-03-08T08:29:58.000Z</time>
      </trkpt>
      <trkpt lat="47.50083" lon="6.75973">
        <ele>379</ele>
        <time>2015-03-08T08:29:59.000Z</time>
      </trkpt>
      <trkpt lat="47.50074" lon="6.75965">
        <ele>379</ele>
        <time>2015-03-08T08:30:00.000Z</time>
      </trkpt>
      <trkpt lat="47.50069" lon="6.75957">
        <ele>378</ele>
        <time>2015-03-08T08:30:01.000Z</time>
      </trkpt>
      <trkpt lat="47.50064" lon="6.75947">
        <ele>378</ele>
        <time>2015-03-08T08:30:02.000Z</time>
      </trkpt>
      <trkpt lat="47.5006" lon="6.75938">
        <ele>377</ele>
        <time>2015-03-08T08:30:03.000Z</time>
      </trkpt>
      <trkpt lat="47.50055" lon="6.75929">
        <ele>377</ele>
        <time>2015-03-08T08:30:04.000Z</time>
      </trkpt>
      <trkpt lat="47.5005" lon="6.75921">
        <ele>377</ele>
        <time>2015-03-08T08:30:05.000Z</time>
      </trkpt>
      <trkpt lat="47.50047" lon="6.75915">
        <ele>376</ele>
        <time>2015-03-08T08:30:06.000Z</time>
      </trkpt>
      <trkpt lat="47.50042" lon="6.75907">
        <ele>376</ele>
        <time>2015-03-08T08:30:07.000Z</time>
      </trkpt>
      <trkpt lat="47.50035" lon="6.75898">
        <ele>376</ele>
        <time>2015-03-08T08:30:08.000Z</time>
      </trkpt>
      <trkpt lat="47.5003" lon="6.7589">
        <ele>376</ele>
        <time>2015-03-08T08:30:09.000Z</time>
      </trkpt>
      <trkpt lat="47.50025" lon="6.75881">
        <ele>376</ele>
        <time>2015-03-08T08:30:10.000Z</time>
      </trkpt>
      <trkpt lat="47.50019" lon="6.75873">
        <ele>377</ele>
        <time>2015-03-08T08:30:11.000Z</time>
      </trkpt>
      <trkpt lat="47.50014" lon="6.75864">
        <ele>377</ele>
        <time>2015-03-08T08:30:12.000Z</time>
      </trkpt>
      <trkpt lat="47.50008" lon="6.75852">
        <ele>377</ele>
        <time>2015-03-08T08:30:13.000Z</time>
      </trkpt>
      <trkpt lat="47.50003" lon="6.75843">
        <ele>378</ele>
        <time>2015-03-08T08:30:14.000Z</time>
      </trkpt>
      <trkpt lat="47.49997" lon="6.75833">
        <ele>378</ele>
        <time>2015-03-08T08:30:15.000Z</time>
      </trkpt>
      <trkpt lat="47.49992" lon="6.75825">
        <ele>377</ele>
        <time>2015-03-08T08:30:16.000Z</time>
      </trkpt>
      <trkpt lat="47.49987" lon="6.75815">
        <ele>376</ele>
        <time>2015-03-08T08:30:17.000Z</time>
      </trkpt>
      <trkpt lat="47.49982" lon="6.75805">
        <ele>375</ele>
        <time>2015-03-08T08:30:18.000Z</time>
      </trkpt>
      <trkpt lat="47.49978" lon="6.75795">
        <ele>375</ele>
        <time>2015-03-08T08:30:19.000Z</time>
      </trkpt>
      <trkpt lat="47.49973" lon="6.75785">
        <ele>374</ele>
        <time>2015-03-08T08:30:20.000Z</time>
      </trkpt>
      <trkpt lat="47.49967" lon="6.75778">
        <ele>374</ele>
        <time>2015-03-08T08:30:21.000Z</time>
      </trkpt>
      <trkpt lat="47.4996" lon="6.75772">
        <ele>374</ele>
        <time>2015-03-08T08:30:22.000Z</time>
      </trkpt>
      <trkpt lat="47.49956" lon="6.75767">
        <ele>373</ele>
        <time>2015-03-08T08:30:23.000Z</time>
      </trkpt>
      <trkpt lat="47.49954" lon="6.75764">
        <ele>373</ele>
        <time>2015-03-08T08:30:24.000Z</time>
      </trkpt>
      <trkpt lat="47.49951" lon="6.7576">
        <ele>373</ele>
        <time>2015-03-08T08:30:25.000Z</time>
      </trkpt>
      <trkpt lat="47.49946" lon="6.75752">
        <ele>373</ele>
        <time>2015-03-08T08:30:26.000Z</time>
      </trkpt>
      <trkpt lat="47.49942" lon="6.75749">
        <ele>370</ele>
        <time>2015-03-08T08:30:27.000Z</time>
      </trkpt>
      <trkpt lat="47.49938" lon="6.75745">
        <ele>370</ele>
        <time>2015-03-08T08:30:28.000Z</time>
      </trkpt>
      <trkpt lat="47.49934" lon="6.7574">
        <ele>370</ele>
        <time>2015-03-08T08:30:29.000Z</time>
      </trkpt>
      <trkpt lat="47.49932" lon="6.75734">
        <ele>370</ele>
        <time>2015-03-08T08:30:30.000Z</time>
      </trkpt>
      <trkpt lat="47.49928" lon="6.7573">
        <ele>370</ele>
        <time>2015-03-08T08:30:31.000Z</time>
      </trkpt>
      <trkpt lat="47.49923" lon="6.75727">
        <ele>370</ele>
        <time>2015-03-08T08:30:32.000Z</time>
      </trkpt>
      <trkpt lat="47.49918" lon="6.75725">
        <ele>370</ele>
        <time>2015-03-08T08:30:33.000Z</time>
      </trkpt>
      <trkpt lat="47.49912" lon="6.75724">
        <ele>365</ele>
        <time>2015-03-08T08:30:34.000Z</time>
      </trkpt>
      <trkpt lat="47.49908" lon="6.75725">
        <ele>365</ele>
        <time>2015-03-08T08:30:35.000Z</time>
      </trkpt>
      <trkpt lat="47.49903" lon="6.75725">
        <ele>365</ele>
        <time>2015-03-08T08:30:36.000Z</time>
      </trkpt>
      <trkpt lat="47.49897" lon="6.75726">
        <ele>364</ele>
        <time>2015-03-08T08:30:37.000Z</time>
      </trkpt>
      <trkpt lat="47.4989" lon="6.75726">
        <ele>364</ele>
        <time>2015-03-08T08:30:38.000Z</time>
      </trkpt>
      <trkpt lat="47.49882" lon="6.75727">
        <ele>363</ele>
        <time>2015-03-08T08:30:39.000Z</time>
      </trkpt>
      <trkpt lat="47.49873" lon="6.75726">
        <ele>363</ele>
        <time>2015-03-08T08:30:40.000Z</time>
      </trkpt>
      <trkpt lat="47.49864" lon="6.75727">
        <ele>362</ele>
        <time>2015-03-08T08:30:41.000Z</time>
      </trkpt>
      <trkpt lat="47.49857" lon="6.75724">
        <ele>362</ele>
        <time>2015-03-08T08:30:42.000Z</time>
      </trkpt>
      <trkpt lat="47.49849" lon="6.75724">
        <ele>361</ele>
        <time>2015-03-08T08:30:43.000Z</time>
      </trkpt>
      <trkpt lat="47.49841" lon="6.75725">
        <ele>361</ele>
        <time>2015-03-08T08:30:44.000Z</time>
      </trkpt>
      <trkpt lat="47.49833" lon="6.75728">
        <ele>354</ele>
        <time>2015-03-08T08:30:45.000Z</time>
      </trkpt>
      <trkpt lat="47.49825" lon="6.7573">
        <ele>354</ele>
        <time>2015-03-08T08:30:46.000Z</time>
      </trkpt>
      <trkpt lat="47.49815" lon="6.75731">
        <ele>354</ele>
        <time>2015-03-08T08:30:47.000Z</time>
      </trkpt>
      <trkpt lat="47.49805" lon="6.75736">
        <ele>353</ele>
        <time>2015-03-08T08:30:48.000Z</time>
      </trkpt>
      <trkpt lat="47.49795" lon="6.7574">
        <ele>352</ele>
        <time>2015-03-08T08:30:49.000Z</time>
      </trkpt>
      <trkpt lat="47.49785" lon="6.75743">
        <ele>352</ele>
        <time>2015-03-08T08:30:50.000Z</time>
      </trkpt>
      <trkpt lat="47.49777" lon="6.75746">
        <ele>351</ele>
        <time>2015-03-08T08:30:51.000Z</time>
      </trkpt>
      <trkpt lat="47.49766" lon="6.75748">
        <ele>351</ele>
        <time>2015-03-08T08:30:52.000Z</time>
      </trkpt>
      <trkpt lat="47.49754" lon="6.75753">
        <ele>353</ele>
        <time>2015-03-08T08:30:53.000Z</time>
      </trkpt>
      <trkpt lat="47.49743" lon="6.75757">
        <ele>352</ele>
        <time>2015-03-08T08:30:54.000Z</time>
      </trkpt>
      <trkpt lat="47.49736" lon="6.75759">
        <ele>353</ele>
        <time>2015-03-08T08:30:55.000Z</time>
      </trkpt>
      <trkpt lat="47.49725" lon="6.75762">
        <ele>353</ele>
        <time>2015-03-08T08:30:56.000Z</time>
      </trkpt>
      <trkpt lat="47.49718" lon="6.75765">
        <ele>353</ele>
        <time>2015-03-08T08:30:57.000Z</time>
      </trkpt>
      <trkpt lat="47.4971" lon="6.7577">
        <ele>353</ele>
        <time>2015-03-08T08:30:58.000Z</time>
      </trkpt>
      <trkpt lat="47.49703" lon="6.75772">
        <ele>353</ele>
        <time>2015-03-08T08:30:59.000Z</time>
      </trkpt>
      <trkpt lat="47.49697" lon="6.75775">
        <ele>353</ele>
        <time>2015-03-08T08:31:00.000Z</time>
      </trkpt>
      <trkpt lat="47.49691" lon="6.75776">
        <ele>352</ele>
        <time>2015-03-08T08:31:01.000Z</time>
      </trkpt>
      <trkpt lat="47.49683" lon="6.7578">
        <ele>352</ele>
        <time>2015-03-08T08:31:02.000Z</time>
      </trkpt>
      <trkpt lat="47.49676" lon="6.75778">
        <ele>352</ele>
        <time>2015-03-08T08:31:03.000Z</time>
      </trkpt>
      <trkpt lat="47.4967" lon="6.75778">
        <ele>351</ele>
        <time>2015-03-08T08:31:04.000Z</time>
      </trkpt>
      <trkpt lat="47.49664" lon="6.75779">
        <ele>347</ele>
        <time>2015-03-08T08:31:05.000Z</time>
      </trkpt>
      <trkpt lat="47.49658" lon="6.7578">
        <ele>347</ele>
        <time>2015-03-08T08:31:06.000Z</time>
      </trkpt>
      <trkpt lat="47.49653" lon="6.75779">
        <ele>346</ele>
        <time>2015-03-08T08:31:07.000Z</time>
      </trkpt>
      <trkpt lat="47.49646" lon="6.75778">
        <ele>346</ele>
        <time>2015-03-08T08:31:08.000Z</time>
      </trkpt>
      <trkpt lat="47.49641" lon="6.75776">
        <ele>346</ele>
        <time>2015-03-08T08:31:09.000Z</time>
      </trkpt>
      <trkpt lat="47.49635" lon="6.75774">
        <ele>345</ele>
        <time>2015-03-08T08:31:10.000Z</time>
      </trkpt>
      <trkpt lat="47.49629" lon="6.75775">
        <ele>345</ele>
        <time>2015-03-08T08:31:11.000Z</time>
      </trkpt>
      <trkpt lat="47.49622" lon="6.75776">
        <ele>345</ele>
        <time>2015-03-08T08:31:12.000Z</time>
      </trkpt>
      <trkpt lat="47.49614" lon="6.75777">
        <ele>344</ele>
        <time>2015-03-08T08:31:13.000Z</time>
      </trkpt>
      <trkpt lat="47.49608" lon="6.75777">
        <ele>344</ele>
        <time>2015-03-08T08:31:14.000Z</time>
      </trkpt>
      <trkpt lat="47.49601" lon="6.75776">
        <ele>343</ele>
        <time>2015-03-08T08:31:15.000Z</time>
      </trkpt>
      <trkpt lat="47.49596" lon="6.75777">
        <ele>343</ele>
        <time>2015-03-08T08:31:16.000Z</time>
      </trkpt>
      <trkpt lat="47.49589" lon="6.75775">
        <ele>342</ele>
        <time>2015-03-08T08:31:17.000Z</time>
      </trkpt>
      <trkpt lat="47.49582" lon="6.75774">
        <ele>336</ele>
        <time>2015-03-08T08:31:18.000Z</time>
      </trkpt>
      <trkpt lat="47.49577" lon="6.7577">
        <ele>336</ele>
        <time>2015-03-08T08:31:19.000Z</time>
      </trkpt>
      <trkpt lat="47.49572" lon="6.75766">
        <ele>335</ele>
        <time>2015-03-08T08:31:20.000Z</time>
      </trkpt>
      <trkpt lat="47.49569" lon="6.75763">
        <ele>335</ele>
        <time>2015-03-08T08:31:21.000Z</time>
      </trkpt>
      <trkpt lat="47.49563" lon="6.75757">
        <ele>335</ele>
        <time>2015-03-08T08:31:22.000Z</time>
      </trkpt>
      <trkpt lat="47.49558" lon="6.75758">
        <ele>335</ele>
        <time>2015-03-08T08:31:23.000Z</time>
      </trkpt>
      <trkpt lat="47.49559" lon="6.75755">
        <ele>335</ele>
        <time>2015-03-08T08:31:24.000Z</time>
      </trkpt>
      <trkpt lat="47.49562" lon="6.75752">
        <ele>335</ele>
        <time>2015-03-08T08:31:25.000Z</time>
      </trkpt>
      <trkpt lat="47.49566" lon="6.75751">
        <ele>335</ele>
        <time>2015-03-08T08:31:26.000Z</time>
      </trkpt>
      <trkpt lat="47.4957" lon="6.75748">
        <ele>330</ele>
        <time>2015-03-08T08:31:27.000Z</time>
      </trkpt>
      <trkpt lat="47.49575" lon="6.75745">
        <ele>331</ele>
        <time>2015-03-08T08:31:28.000Z</time>
      </trkpt>
      <trkpt lat="47.49579" lon="6.75741">
        <ele>331</ele>
        <time>2015-03-08T08:31:29.000Z</time>
      </trkpt>
      <trkpt lat="47.49584" lon="6.75737">
        <ele>333</ele>
        <time>2015-03-08T08:31:30.000Z</time>
      </trkpt>
      <trkpt lat="47.49588" lon="6.75732">
        <ele>332</ele>
        <time>2015-03-08T08:31:31.000Z</time>
      </trkpt>
      <trkpt lat="47.49593" lon="6.75727">
        <ele>332</ele>
        <time>2015-03-08T08:31:32.000Z</time>
      </trkpt>
      <trkpt lat="47.49596" lon="6.7572">
        <ele>331</ele>
        <time>2015-03-08T08:31:33.000Z</time>
      </trkpt>
      <trkpt lat="47.49599" lon="6.75714">
        <ele>331</ele>
        <time>2015-03-08T08:31:34.000Z</time>
      </trkpt>
      <trkpt lat="47.49602" lon="6.75706">
        <ele>330</ele>
        <time>2015-03-08T08:31:35.000Z</time>
      </trkpt>
      <trkpt lat="47.49602" lon="6.75699">
        <ele>329</ele>
        <time>2015-03-08T08:31:36.000Z</time>
      </trkpt>
      <trkpt lat="47.496" lon="6.75692">
        <ele>328</ele>
        <time>2015-03-08T08:31:37.000Z</time>
      </trkpt>
      <trkpt lat="47.49596" lon="6.75686">
        <ele>327</ele>
        <time>2015-03-08T08:31:38.000Z</time>
      </trkpt>
      <trkpt lat="47.49591" lon="6.7568">
        <ele>326</ele>
        <time>2015-03-08T08:31:39.000Z</time>
      </trkpt>
      <trkpt lat="47.49588" lon="6.75674">
        <ele>324</ele>
        <time>2015-03-08T08:31:40.000Z</time>
      </trkpt>
      <trkpt lat="47.49583" lon="6.75669">
        <ele>321</ele>
        <time>2015-03-08T08:31:41.000Z</time>
      </trkpt>
      <trkpt lat="47.49577" lon="6.75668">
        <ele>322</ele>
        <time>2015-03-08T08:31:42.000Z</time>
      </trkpt>
      <trkpt lat="47.49573" lon="6.75674">
        <ele>323</ele>
        <time>2015-03-08T08:31:43.000Z</time>
      </trkpt>
      <trkpt lat="47.49569" lon="6.7568">
        <ele>323</ele>
        <time>2015-03-08T08:31:44.000Z</time>
      </trkpt>
      <trkpt lat="47.49565" lon="6.75686">
        <ele>324</ele>
        <time>2015-03-08T08:31:45.000Z</time>
      </trkpt>
      <trkpt lat="47.49561" lon="6.75693">
        <ele>324</ele>
        <time>2015-03-08T08:31:46.000Z</time>
      </trkpt>
      <trkpt lat="47.49557" lon="6.75699">
        <ele>325</ele>
        <time>2015-03-08T08:31:47.000Z</time>
      </trkpt>
      <trkpt lat="47.49552" lon="6.75705">
        <ele>325</ele>
        <time>2015-03-08T08:31:48.000Z</time>
      </trkpt>
      <trkpt lat="47.49547" lon="6.75711">
        <ele>325</ele>
        <time>2015-03-08T08:31:49.000Z</time>
      </trkpt>
      <trkpt lat="47.49541" lon="6.75717">
        <ele>325</ele>
        <time>2015-03-08T08:31:50.000Z</time>
      </trkpt>
      <trkpt lat="47.49536" lon="6.75723">
        <ele>325</ele>
        <time>2015-03-08T08:31:51.000Z</time>
      </trkpt>
      <trkpt lat="47.49531" lon="6.75727">
        <ele>325</ele>
        <time>2015-03-08T08:31:52.000Z</time>
      </trkpt>
      <trkpt lat="47.49525" lon="6.7573">
        <ele>325</ele>
        <time>2015-03-08T08:31:53.000Z</time>
      </trkpt>
      <trkpt lat="47.49519" lon="6.75734">
        <ele>325</ele>
        <time>2015-03-08T08:31:54.000Z</time>
      </trkpt>
      <trkpt lat="47.49513" lon="6.75737">
        <ele>325</ele>
        <time>2015-03-08T08:31:55.000Z</time>
      </trkpt>
      <trkpt lat="47.49506" lon="6.75738">
        <ele>325</ele>
        <time>2015-03-08T08:31:56.000Z</time>
      </trkpt>
      <trkpt lat="47.495" lon="6.7574">
        <ele>324</ele>
        <time>2015-03-08T08:31:57.000Z</time>
      </trkpt>
      <trkpt lat="47.49494" lon="6.75742">
        <ele>323</ele>
        <time>2015-03-08T08:31:58.000Z</time>
      </trkpt>
      <trkpt lat="47.49488" lon="6.75741">
        <ele>323</ele>
        <time>2015-03-08T08:31:59.000Z</time>
      </trkpt>
      <trkpt lat="47.49484" lon="6.75734">
        <ele>322</ele>
        <time>2015-03-08T08:32:00.000Z</time>
      </trkpt>
      <trkpt lat="47.49481" lon="6.75727">
        <ele>322</ele>
        <time>2015-03-08T08:32:01.000Z</time>
      </trkpt>
      <trkpt lat="47.49479" lon="6.75719">
        <ele>322</ele>
        <time>2015-03-08T08:32:02.000Z</time>
      </trkpt>
      <trkpt lat="47.49476" lon="6.75712">
        <ele>321</ele>
        <time>2015-03-08T08:32:03.000Z</time>
      </trkpt>
      <trkpt lat="47.49474" lon="6.75707">
        <ele>321</ele>
        <time>2015-03-08T08:32:04.000Z</time>
      </trkpt>
      <trkpt lat="47.49471" lon="6.75702">
        <ele>321</ele>
        <time>2015-03-08T08:32:05.000Z</time>
      </trkpt>
      <trkpt lat="47.49469" lon="6.75697">
        <ele>321</ele>
        <time>2015-03-08T08:32:06.000Z</time>
      </trkpt>
      <trkpt lat="47.49464" lon="6.75697">
        <ele>321</ele>
        <time>2015-03-08T08:32:07.000Z</time>
      </trkpt>
      <trkpt lat="47.4946" lon="6.75699">
        <ele>321</ele>
        <time>2015-03-08T08:32:08.000Z</time>
      </trkpt>
      <trkpt lat="47.49456" lon="6.75702">
        <ele>321</ele>
        <time>2015-03-08T08:32:09.000Z</time>
      </trkpt>
      <trkpt lat="47.49451" lon="6.75703">
        <ele>321</ele>
        <time>2015-03-08T08:32:10.000Z</time>
      </trkpt>
      <trkpt lat="47.49447" lon="6.75699">
        <ele>321</ele>
        <time>2015-03-08T08:32:11.000Z</time>
      </trkpt>
      <trkpt lat="47.49445" lon="6.75693">
        <ele>321</ele>
        <time>2015-03-08T08:32:12.000Z</time>
      </trkpt>
      <trkpt lat="47.49443" lon="6.75686">
        <ele>320</ele>
        <time>2015-03-08T08:32:13.000Z</time>
      </trkpt>
      <trkpt lat="47.49441" lon="6.75679">
        <ele>320</ele>
        <time>2015-03-08T08:32:14.000Z</time>
      </trkpt>
      <trkpt lat="47.4944" lon="6.75674">
        <ele>320</ele>
        <time>2015-03-08T08:32:15.000Z</time>
      </trkpt>
      <trkpt lat="47.49436" lon="6.75672">
        <ele>320</ele>
        <time>2015-03-08T08:32:16.000Z</time>
      </trkpt>
      <trkpt lat="47.49433" lon="6.75673">
        <ele>320</ele>
        <time>2015-03-08T08:32:17.000Z</time>
      </trkpt>
      <trkpt lat="47.49428" lon="6.75677">
        <ele>320</ele>
        <time>2015-03-08T08:32:18.000Z</time>
      </trkpt>
      <trkpt lat="47.49423" lon="6.75681">
        <ele>320</ele>
        <time>2015-03-08T08:32:19.000Z</time>
      </trkpt>
      <trkpt lat="47.49418" lon="6.75683">
        <ele>320</ele>
        <time>2015-03-08T08:32:20.000Z</time>
      </trkpt>
      <trkpt lat="47.49414" lon="6.75686">
        <ele>319</ele>
        <time>2015-03-08T08:32:21.000Z</time>
      </trkpt>
      <trkpt lat="47.49409" lon="6.75689">
        <ele>319</ele>
        <time>2015-03-08T08:32:22.000Z</time>
      </trkpt>
      <trkpt lat="47.49404" lon="6.75692">
        <ele>319</ele>
        <time>2015-03-08T08:32:23.000Z</time>
      </trkpt>
      <trkpt lat="47.49399" lon="6.75696">
        <ele>319</ele>
        <time>2015-03-08T08:32:24.000Z</time>
      </trkpt>
      <trkpt lat="47.49393" lon="6.75699">
        <ele>319</ele>
        <time>2015-03-08T08:32:25.000Z</time>
      </trkpt>
      <trkpt lat="47.49387" lon="6.75703">
        <ele>319</ele>
        <time>2015-03-08T08:32:26.000Z</time>
      </trkpt>
      <trkpt lat="47.49383" lon="6.75707">
        <ele>319</ele>
        <time>2015-03-08T08:32:27.000Z</time>
      </trkpt>
      <trkpt lat="47.49378" lon="6.7571">
        <ele>319</ele>
        <time>2015-03-08T08:32:28.000Z</time>
      </trkpt>
      <trkpt lat="47.49373" lon="6.75714">
        <ele>319</ele>
        <time>2015-03-08T08:32:29.000Z</time>
      </trkpt>
      <trkpt lat="47.4937" lon="6.75716">
        <ele>319</ele>
        <time>2015-03-08T08:32:30.000Z</time>
      </trkpt>
      <trkpt lat="47.49368" lon="6.75719">
        <ele>319</ele>
        <time>2015-03-08T08:32:31.000Z</time>
      </trkpt>
      <trkpt lat="47.49365" lon="6.75721">
        <ele>319</ele>
        <time>2015-03-08T08:32:32.000Z</time>
      </trkpt>
      <trkpt lat="47.49362" lon="6.75723">
        <ele>319</ele>
        <time>2015-03-08T08:32:33.000Z</time>
      </trkpt>
      <trkpt lat="47.49359" lon="6.75725">
        <ele>319</ele>
        <time>2015-03-08T08:32:34.000Z</time>
      </trkpt>
      <trkpt lat="47.49354" lon="6.75727">
        <ele>319</ele>
        <time>2015-03-08T08:32:35.000Z</time>
      </trkpt>
      <trkpt lat="47.49351" lon="6.75728">
        <ele>319</ele>
        <time>2015-03-08T08:32:36.000Z</time>
      </trkpt>
      <trkpt lat="47.49348" lon="6.7573">
        <ele>318</ele>
        <time>2015-03-08T08:32:37.000Z</time>
      </trkpt>
      <trkpt lat="47.49344" lon="6.75732">
        <ele>318</ele>
        <time>2015-03-08T08:32:38.000Z</time>
      </trkpt>
      <trkpt lat="47.4934" lon="6.75733">
        <ele>318</ele>
        <time>2015-03-08T08:32:39.000Z</time>
      </trkpt>
      <trkpt lat="47.49333" lon="6.75738">
        <ele>318</ele>
        <time>2015-03-08T08:32:40.000Z</time>
      </trkpt>
      <trkpt lat="47.49328" lon="6.75742">
        <ele>318</ele>
        <time>2015-03-08T08:32:41.000Z</time>
      </trkpt>
      <trkpt lat="47.49323" lon="6.75747">
        <ele>318</ele>
        <time>2015-03-08T08:32:42.000Z</time>
      </trkpt>
      <trkpt lat="47.49319" lon="6.75752">
        <ele>318</ele>
        <time>2015-03-08T08:32:43.000Z</time>
      </trkpt>
      <trkpt lat="47.49313" lon="6.75759">
        <ele>318</ele>
        <time>2015-03-08T08:32:44.000Z</time>
      </trkpt>
      <trkpt lat="47.4931" lon="6.75766">
        <ele>318</ele>
        <time>2015-03-08T08:32:45.000Z</time>
      </trkpt>
      <trkpt lat="47.49305" lon="6.75773">
        <ele>318</ele>
        <time>2015-03-08T08:32:46.000Z</time>
      </trkpt>
      <trkpt lat="47.493" lon="6.7578">
        <ele>318</ele>
        <time>2015-03-08T08:32:47.000Z</time>
      </trkpt>
      <trkpt lat="47.49295" lon="6.75786">
        <ele>318</ele>
        <time>2015-03-08T08:32:48.000Z</time>
      </trkpt>
      <trkpt lat="47.4929" lon="6.75792">
        <ele>318</ele>
        <time>2015-03-08T08:32:49.000Z</time>
      </trkpt>
      <trkpt lat="47.49284" lon="6.75799">
        <ele>318</ele>
        <time>2015-03-08T08:32:50.000Z</time>
      </trkpt>
      <trkpt lat="47.49278" lon="6.75807">
        <ele>317</ele>
        <time>2015-03-08T08:32:51.000Z</time>
      </trkpt>
      <trkpt lat="47.49274" lon="6.75814">
        <ele>317</ele>
        <time>2015-03-08T08:32:52.000Z</time>
      </trkpt>
      <trkpt lat="47.49269" lon="6.7582">
        <ele>316</ele>
        <time>2015-03-08T08:32:53.000Z</time>
      </trkpt>
      <trkpt lat="47.49264" lon="6.75826">
        <ele>316</ele>
        <time>2015-03-08T08:32:54.000Z</time>
      </trkpt>
      <trkpt lat="47.49259" lon="6.75832">
        <ele>315</ele>
        <time>2015-03-08T08:32:55.000Z</time>
      </trkpt>
      <trkpt lat="47.49256" lon="6.7584">
        <ele>315</ele>
        <time>2015-03-08T08:32:56.000Z</time>
      </trkpt>
      <trkpt lat="47.49253" lon="6.75847">
        <ele>316</ele>
        <time>2015-03-08T08:32:57.000Z</time>
      </trkpt>
      <trkpt lat="47.4925" lon="6.75853">
        <ele>316</ele>
        <time>2015-03-08T08:32:58.000Z</time>
      </trkpt>
      <trkpt lat="47.49246" lon="6.75861">
        <ele>317</ele>
        <time>2015-03-08T08:32:59.000Z</time>
      </trkpt>
      <trkpt lat="47.49243" lon="6.75868">
        <ele>318</ele>
        <time>2015-03-08T08:33:00.000Z</time>
      </trkpt>
      <trkpt lat="47.4924" lon="6.75876">
        <ele>318</ele>
        <time>2015-03-08T08:33:01.000Z</time>
      </trkpt>
      <trkpt lat="47.49235" lon="6.75882">
        <ele>318</ele>
        <time>2015-03-08T08:33:02.000Z</time>
      </trkpt>
      <trkpt lat="47.49232" lon="6.75888">
        <ele>318</ele>
        <time>2015-03-08T08:33:03.000Z</time>
      </trkpt>
      <trkpt lat="47.49229" lon="6.75894">
        <ele>318</ele>
        <time>2015-03-08T08:33:04.000Z</time>
      </trkpt>
      <trkpt lat="47.49226" lon="6.75901">
        <ele>318</ele>
        <time>2015-03-08T08:33:05.000Z</time>
      </trkpt>
      <trkpt lat="47.49223" lon="6.7591">
        <ele>318</ele>
        <time>2015-03-08T08:33:06.000Z</time>
      </trkpt>
      <trkpt lat="47.49219" lon="6.75917">
        <ele>319</ele>
        <time>2015-03-08T08:33:07.000Z</time>
      </trkpt>
      <trkpt lat="47.49213" lon="6.75921">
        <ele>320</ele>
        <time>2015-03-08T08:33:08.000Z</time>
      </trkpt>
      <trkpt lat="47.49209" lon="6.75928">
        <ele>320</ele>
        <time>2015-03-08T08:33:09.000Z</time>
      </trkpt>
      <trkpt lat="47.49207" lon="6.75934">
        <ele>320</ele>
        <time>2015-03-08T08:33:10.000Z</time>
      </trkpt>
      <trkpt lat="47.49204" lon="6.7594">
        <ele>320</ele>
        <time>2015-03-08T08:33:11.000Z</time>
      </trkpt>
      <trkpt lat="47.492" lon="6.75944">
        <ele>320</ele>
        <time>2015-03-08T08:33:12.000Z</time>
      </trkpt>
      <trkpt lat="47.49197" lon="6.75951">
        <ele>320</ele>
        <time>2015-03-08T08:33:13.000Z</time>
      </trkpt>
      <trkpt lat="47.49197" lon="6.75959">
        <ele>320</ele>
        <time>2015-03-08T08:33:14.000Z</time>
      </trkpt>
      <trkpt lat="47.49196" lon="6.75967">
        <ele>320</ele>
        <time>2015-03-08T08:33:15.000Z</time>
      </trkpt>
      <trkpt lat="47.49194" lon="6.75975">
        <ele>320</ele>
        <time>2015-03-08T08:33:16.000Z</time>
      </trkpt>
      <trkpt lat="47.49191" lon="6.75983">
        <ele>320</ele>
        <time>2015-03-08T08:33:17.000Z</time>
      </trkpt>
      <trkpt lat="47.49189" lon="6.7599">
        <ele>320</ele>
        <time>2015-03-08T08:33:18.000Z</time>
      </trkpt>
      <trkpt lat="47.49187" lon="6.75997">
        <ele>320</ele>
        <time>2015-03-08T08:33:19.000Z</time>
      </trkpt>
      <trkpt lat="47.49184" lon="6.76005">
        <ele>320</ele>
        <time>2015-03-08T08:33:20.000Z</time>
      </trkpt>
      <trkpt lat="47.4918" lon="6.76012">
        <ele>320</ele>
        <time>2015-03-08T08:33:21.000Z</time>
      </trkpt>
      <trkpt lat="47.49177" lon="6.7602">
        <ele>320</ele>
        <time>2015-03-08T08:33:22.000Z</time>
      </trkpt>
      <trkpt lat="47.49174" lon="6.76027">
        <ele>320</ele>
        <time>2015-03-08T08:33:23.000Z</time>
      </trkpt>
      <trkpt lat="47.49172" lon="6.76035">
        <ele>320</ele>
        <time>2015-03-08T08:33:24.000Z</time>
      </trkpt>
      <trkpt lat="47.49169" lon="6.76044">
        <ele>320</ele>
        <time>2015-03-08T08:33:25.000Z</time>
      </trkpt>
      <trkpt lat="47.49167" lon="6.76052">
        <ele>320</ele>
        <time>2015-03-08T08:33:26.000Z</time>
      </trkpt>
      <trkpt lat="47.49164" lon="6.7606">
        <ele>321</ele>
        <time>2015-03-08T08:33:27.000Z</time>
      </trkpt>
      <trkpt lat="47.49161" lon="6.76068">
        <ele>321</ele>
        <time>2015-03-08T08:33:28.000Z</time>
      </trkpt>
      <trkpt lat="47.49158" lon="6.76077">
        <ele>320</ele>
        <time>2015-03-08T08:33:29.000Z</time>
      </trkpt>
      <trkpt lat="47.49155" lon="6.76085">
        <ele>320</ele>
        <time>2015-03-08T08:33:30.000Z</time>
      </trkpt>
      <trkpt lat="47.49153" lon="6.76093">
        <ele>320</ele>
        <time>2015-03-08T08:33:31.000Z</time>
      </trkpt>
      <trkpt lat="47.49151" lon="6.76102">
        <ele>321</ele>
        <time>2015-03-08T08:33:32.000Z</time>
      </trkpt>
      <trkpt lat="47.49149" lon="6.76111">
        <ele>321</ele>
        <time>2015-03-08T08:33:33.000Z</time>
      </trkpt>
      <trkpt lat="47.49148" lon="6.76121">
        <ele>321</ele>
        <time>2015-03-08T08:33:34.000Z</time>
      </trkpt>
      <trkpt lat="47.49147" lon="6.7613">
        <ele>321</ele>
        <time>2015-03-08T08:33:35.000Z</time>
      </trkpt>
      <trkpt lat="47.49146" lon="6.76138">
        <ele>321</ele>
        <time>2015-03-08T08:33:36.000Z</time>
      </trkpt>
      <trkpt lat="47.49145" lon="6.76146">
        <ele>321</ele>
        <time>2015-03-08T08:33:37.000Z</time>
      </trkpt>
      <trkpt lat="47.49144" lon="6.76155">
        <ele>321</ele>
        <time>2015-03-08T08:33:38.000Z</time>
      </trkpt>
      <trkpt lat="47.49142" lon="6.76162">
        <ele>321</ele>
        <time>2015-03-08T08:33:39.000Z</time>
      </trkpt>
      <trkpt lat="47.49141" lon="6.7617">
        <ele>320</ele>
        <time>2015-03-08T08:33:40.000Z</time>
      </trkpt>
      <trkpt lat="47.49135" lon="6.76178">
        <ele>321</ele>
        <time>2015-03-08T08:33:41.000Z</time>
      </trkpt>
      <trkpt lat="47.49131" lon="6.76185">
        <ele>321</ele>
        <time>2015-03-08T08:33:42.000Z</time>
      </trkpt>
      <trkpt lat="47.49132" lon="6.76195">
        <ele>321</ele>
        <time>2015-03-08T08:33:43.000Z</time>
      </trkpt>
      <trkpt lat="47.49132" lon="6.76204">
        <ele>321</ele>
        <time>2015-03-08T08:33:44.000Z</time>
      </trkpt>
      <trkpt lat="47.49133" lon="6.76213">
        <ele>321</ele>
        <time>2015-03-08T08:33:45.000Z</time>
      </trkpt>
      <trkpt lat="47.49133" lon="6.76222">
        <ele>320</ele>
        <time>2015-03-08T08:33:46.000Z</time>
      </trkpt>
      <trkpt lat="47.49134" lon="6.76231">
        <ele>320</ele>
        <time>2015-03-08T08:33:47.000Z</time>
      </trkpt>
      <trkpt lat="47.49134" lon="6.7624">
        <ele>320</ele>
        <time>2015-03-08T08:33:48.000Z</time>
      </trkpt>
      <trkpt lat="47.49135" lon="6.76249">
        <ele>320</ele>
        <time>2015-03-08T08:33:49.000Z</time>
      </trkpt>
      <trkpt lat="47.49134" lon="6.76258">
        <ele>319</ele>
        <time>2015-03-08T08:33:50.000Z</time>
      </trkpt>
      <trkpt lat="47.49134" lon="6.76268">
        <ele>319</ele>
        <time>2015-03-08T08:33:51.000Z</time>
      </trkpt>
      <trkpt lat="47.49132" lon="6.76274">
        <ele>319</ele>
        <time>2015-03-08T08:33:52.000Z</time>
      </trkpt>
      <trkpt lat="47.49129" lon="6.7628">
        <ele>319</ele>
        <time>2015-03-08T08:33:53.000Z</time>
      </trkpt>
      <trkpt lat="47.49126" lon="6.76287">
        <ele>320</ele>
        <time>2015-03-08T08:33:54.000Z</time>
      </trkpt>
      <trkpt lat="47.49123" lon="6.76295">
        <ele>320</ele>
        <time>2015-03-08T08:33:55.000Z</time>
      </trkpt>
      <trkpt lat="47.49123" lon="6.76302">
        <ele>319</ele>
        <time>2015-03-08T08:33:56.000Z</time>
      </trkpt>
      <trkpt lat="47.49125" lon="6.76313">
        <ele>319</ele>
        <time>2015-03-08T08:33:57.000Z</time>
      </trkpt>
      <trkpt lat="47.49126" lon="6.76324">
        <ele>319</ele>
        <time>2015-03-08T08:33:58.000Z</time>
      </trkpt>
      <trkpt lat="47.49125" lon="6.76334">
        <ele>318</ele>
        <time>2015-03-08T08:33:59.000Z</time>
      </trkpt>
      <trkpt lat="47.49124" lon="6.76344">
        <ele>318</ele>
        <time>2015-03-08T08:34:00.000Z</time>
      </trkpt>
      <trkpt lat="47.49121" lon="6.76354">
        <ele>318</ele>
        <time>2015-03-08T08:34:01.000Z</time>
      </trkpt>
      <trkpt lat="47.49119" lon="6.76362">
        <ele>318</ele>
        <time>2015-03-08T08:34:02.000Z</time>
      </trkpt>
      <trkpt lat="47.49121" lon="6.76372">
        <ele>318</ele>
        <time>2015-03-08T08:34:03.000Z</time>
      </trkpt>
      <trkpt lat="47.49121" lon="6.76383">
        <ele>318</ele>
        <time>2015-03-08T08:34:04.000Z</time>
      </trkpt>
      <trkpt lat="47.49123" lon="6.76393">
        <ele>318</ele>
        <time>2015-03-08T08:34:05.000Z</time>
      </trkpt>
      <trkpt lat="47.49122" lon="6.76403">
        <ele>318</ele>
        <time>2015-03-08T08:34:06.000Z</time>
      </trkpt>
      <trkpt lat="47.49123" lon="6.76413">
        <ele>318</ele>
        <time>2015-03-08T08:34:07.000Z</time>
      </trkpt>
      <trkpt lat="47.49124" lon="6.76423">
        <ele>317</ele>
        <time>2015-03-08T08:34:08.000Z</time>
      </trkpt>
      <trkpt lat="47.49124" lon="6.76432">
        <ele>317</ele>
        <time>2015-03-08T08:34:09.000Z</time>
      </trkpt>
      <trkpt lat="47.49127" lon="6.76444">
        <ele>317</ele>
        <time>2015-03-08T08:34:10.000Z</time>
      </trkpt>
      <trkpt lat="47.49126" lon="6.76453">
        <ele>317</ele>
        <time>2015-03-08T08:34:11.000Z</time>
      </trkpt>
      <trkpt lat="47.49126" lon="6.76463">
        <ele>317</ele>
        <time>2015-03-08T08:34:12.000Z</time>
      </trkpt>
      <trkpt lat="47.49125" lon="6.76474">
        <ele>317</ele>
        <time>2015-03-08T08:34:13.000Z</time>
      </trkpt>
      <trkpt lat="47.49127" lon="6.76485">
        <ele>317</ele>
        <time>2015-03-08T08:34:14.000Z</time>
      </trkpt>
      <trkpt lat="47.49127" lon="6.76494">
        <ele>317</ele>
        <time>2015-03-08T08:34:15.000Z</time>
      </trkpt>
      <trkpt lat="47.49127" lon="6.76504">
        <ele>316</ele>
        <time>2015-03-08T08:34:16.000Z</time>
      </trkpt>
      <trkpt lat="47.49131" lon="6.76515">
        <ele>316</ele>
        <time>2015-03-08T08:34:17.000Z</time>
      </trkpt>
      <trkpt lat="47.49137" lon="6.76521">
        <ele>315</ele>
        <time>2015-03-08T08:34:18.000Z</time>
      </trkpt>
      <trkpt lat="47.49143" lon="6.76525">
        <ele>315</ele>
        <time>2015-03-08T08:34:19.000Z</time>
      </trkpt>
      <trkpt lat="47.4915" lon="6.76522">
        <ele>315</ele>
        <time>2015-03-08T08:34:20.000Z</time>
      </trkpt>
      <trkpt lat="47.49158" lon="6.76521">
        <ele>315</ele>
        <time>2015-03-08T08:34:21.000Z</time>
      </trkpt>
      <trkpt lat="47.49163" lon="6.76515">
        <ele>314</ele>
        <time>2015-03-08T08:34:22.000Z</time>
      </trkpt>
      <trkpt lat="47.49168" lon="6.7651">
        <ele>314</ele>
        <time>2015-03-08T08:34:23.000Z</time>
      </trkpt>
      <trkpt lat="47.49172" lon="6.76505">
        <ele>314</ele>
        <time>2015-03-08T08:34:24.000Z</time>
      </trkpt>
      <trkpt lat="47.49176" lon="6.76503">
        <ele>314</ele>
        <time>2015-03-08T08:34:25.000Z</time>
      </trkpt>
      <trkpt lat="47.4918" lon="6.76499">
        <ele>315</ele>
        <time>2015-03-08T08:34:25.999Z</time>
      </trkpt>
      <trkpt lat="47.49183" lon="6.76495">
        <ele>315</ele>
        <time>2015-03-08T08:34:27.000Z</time>
      </trkpt>
      <trkpt lat="47.49184" lon="6.76489">
        <ele>316</ele>
        <time>2015-03-08T08:34:28.000Z</time>
      </trkpt>
      <trkpt lat="47.49182" lon="6.76485">
        <ele>316</ele>
        <time>2015-03-08T08:34:29.000Z</time>
      </trkpt>
      <trkpt lat="47.49177" lon="6.76483">
        <ele>316</ele>
        <time>2015-03-08T08:34:30.000Z</time>
      </trkpt>
      <trkpt lat="47.49175" lon="6.76478">
        <ele>316</ele>
        <time>2015-03-08T08:35:11.000Z</time>
      </trkpt>
      <trkpt lat="47.49175" lon="6.76477">
        <ele>316</ele>
        <time>2015-03-08T08:35:12.000Z</time>
      </trkpt>
      <trkpt lat="47.49179" lon="6.76479">
        <ele>316</ele>
        <time>2015-03-08T08:35:19.000Z</time>
      </trkpt>
      <trkpt lat="47.49179" lon="6.7648">
        <ele>316</ele>
        <time>2015-03-08T08:35:20.000Z</time>
      </trkpt>
      <trkpt lat="47.4918" lon="6.76485">
        <ele>316</ele>
        <time>2015-03-08T08:35:23.000Z</time>
      </trkpt>
      <trkpt lat="47.49181" lon="6.76487">
        <ele>316</ele>
        <time>2015-03-08T08:35:24.000Z</time>
      </trkpt>
      <trkpt lat="47.49183" lon="6.76491">
        <ele>316</ele>
        <time>2015-03-08T08:35:26.000Z</time>
      </trkpt>
      <trkpt lat="47.49184" lon="6.76494">
        <ele>316</ele>
        <time>2015-03-08T08:35:27.000Z</time>
      </trkpt>
      <trkpt lat="47.49183" lon="6.765">
        <ele>315</ele>
        <time>2015-03-08T08:35:29.000Z</time>
      </trkpt>
      <trkpt lat="47.49182" lon="6.76503">
        <ele>315</ele>
        <time>2015-03-08T08:35:30.000Z</time>
      </trkpt>
      <trkpt lat="47.4918" lon="6.76506">
        <ele>315</ele>
        <time>2015-03-08T08:35:31.000Z</time>
      </trkpt>
      <trkpt lat="47.49178" lon="6.76508">
        <ele>315</ele>
        <time>2015-03-08T08:35:32.000Z</time>
      </trkpt>
      <trkpt lat="47.49176" lon="6.76509">
        <ele>315</ele>
        <time>2015-03-08T08:35:33.000Z</time>
      </trkpt>
      <trkpt lat="47.49173" lon="6.7651">
        <ele>314</ele>
        <time>2015-03-08T08:35:34.000Z</time>
      </trkpt>
      <trkpt lat="47.4917" lon="6.76512">
        <ele>314</ele>
        <time>2015-03-08T08:35:35.000Z</time>
      </trkpt>
      <trkpt lat="47.49162" lon="6.76514">
        <ele>314</ele>
        <time>2015-03-08T08:35:36.000Z</time>
      </trkpt>
      <trkpt lat="47.49157" lon="6.76518">
        <ele>314</ele>
        <time>2015-03-08T08:35:37.000Z</time>
      </trkpt>
      <trkpt lat="47.49152" lon="6.76521">
        <ele>315</ele>
        <time>2015-03-08T08:35:38.000Z</time>
      </trkpt>
      <trkpt lat="47.49146" lon="6.76524">
        <ele>315</ele>
        <time>2015-03-08T08:35:39.000Z</time>
      </trkpt>
      <trkpt lat="47.49141" lon="6.76526">
        <ele>315</ele>
        <time>2015-03-08T08:35:40.000Z</time>
      </trkpt>
      <trkpt lat="47.49136" lon="6.76525">
        <ele>315</ele>
        <time>2015-03-08T08:35:41.000Z</time>
      </trkpt>
      <trkpt lat="47.49131" lon="6.76527">
        <ele>316</ele>
        <time>2015-03-08T08:35:42.000Z</time>
      </trkpt>
      <trkpt lat="47.49128" lon="6.76531">
        <ele>316</ele>
        <time>2015-03-08T08:35:43.000Z</time>
      </trkpt>
      <trkpt lat="47.49127" lon="6.76536">
        <ele>316</ele>
        <time>2015-03-08T08:35:44.000Z</time>
      </trkpt>
      <trkpt lat="47.49127" lon="6.76542">
        <ele>316</ele>
        <time>2015-03-08T08:35:45.000Z</time>
      </trkpt>
      <trkpt lat="47.49128" lon="6.76549">
        <ele>316</ele>
        <time>2015-03-08T08:35:46.000Z</time>
      </trkpt>
      <trkpt lat="47.49128" lon="6.76555">
        <ele>315</ele>
        <time>2015-03-08T08:35:47.000Z</time>
      </trkpt>
      <trkpt lat="47.49128" lon="6.76561">
        <ele>315</ele>
        <time>2015-03-08T08:35:48.000Z</time>
      </trkpt>
      <trkpt lat="47.49129" lon="6.76568">
        <ele>315</ele>
        <time>2015-03-08T08:35:49.000Z</time>
      </trkpt>
      <trkpt lat="47.49131" lon="6.76574">
        <ele>315</ele>
        <time>2015-03-08T08:35:50.000Z</time>
      </trkpt>
      <trkpt lat="47.49133" lon="6.76579">
        <ele>315</ele>
        <time>2015-03-08T08:35:51.000Z</time>
      </trkpt>
      <trkpt lat="47.49134" lon="6.76585">
        <ele>314</ele>
        <time>2015-03-08T08:35:52.000Z</time>
      </trkpt>
      <trkpt lat="47.49134" lon="6.7659">
        <ele>314</ele>
        <time>2015-03-08T08:35:53.000Z</time>
      </trkpt>
      <trkpt lat="47.49135" lon="6.76594">
        <ele>314</ele>
        <time>2015-03-08T08:35:54.000Z</time>
      </trkpt>
      <trkpt lat="47.49135" lon="6.76597">
        <ele>314</ele>
        <time>2015-03-08T08:35:55.000Z</time>
      </trkpt>
      <trkpt lat="47.49136" lon="6.76602">
        <ele>314</ele>
        <time>2015-03-08T08:35:57.000Z</time>
      </trkpt>
      <trkpt lat="47.49136" lon="6.76605">
        <ele>314</ele>
        <time>2015-03-08T08:35:58.000Z</time>
      </trkpt>
      <trkpt lat="47.49137" lon="6.76611">
        <ele>314</ele>
        <time>2015-03-08T08:36:43.000Z</time>
      </trkpt>
      <trkpt lat="47.49138" lon="6.76614">
        <ele>314</ele>
        <time>2015-03-08T08:36:44.000Z</time>
      </trkpt>
      <trkpt lat="47.49138" lon="6.76617">
        <ele>314</ele>
        <time>2015-03-08T08:36:45.000Z</time>
      </trkpt>
      <trkpt lat="47.49139" lon="6.76622">
        <ele>314</ele>
        <time>2015-03-08T08:36:46.000Z</time>
      </trkpt>
      <trkpt lat="47.49139" lon="6.76627">
        <ele>314</ele>
        <time>2015-03-08T08:36:47.000Z</time>
      </trkpt>
      <trkpt lat="47.4914" lon="6.76632">
        <ele>314</ele>
        <time>2015-03-08T08:36:48.000Z</time>
      </trkpt>
      <trkpt lat="47.4914" lon="6.76638">
        <ele>314</ele>
        <time>2015-03-08T08:36:49.000Z</time>
      </trkpt>
      <trkpt lat="47.49141" lon="6.76644">
        <ele>314</ele>
        <time>2015-03-08T08:36:50.000Z</time>
      </trkpt>
      <trkpt lat="47.49142" lon="6.7665">
        <ele>314</ele>
        <time>2015-03-08T08:36:51.000Z</time>
      </trkpt>
      <trkpt lat="47.49143" lon="6.76657">
        <ele>314</ele>
        <time>2015-03-08T08:36:52.000Z</time>
      </trkpt>
      <trkpt lat="47.49143" lon="6.76663">
        <ele>314</ele>
        <time>2015-03-08T08:36:53.000Z</time>
      </trkpt>
      <trkpt lat="47.49144" lon="6.7667">
        <ele>314</ele>
        <time>2015-03-08T08:36:54.000Z</time>
      </trkpt>
      <trkpt lat="47.49145" lon="6.76676">
        <ele>314</ele>
        <time>2015-03-08T08:36:55.000Z</time>
      </trkpt>
      <trkpt lat="47.49145" lon="6.76683">
        <ele>314</ele>
        <time>2015-03-08T08:36:56.000Z</time>
      </trkpt>
      <trkpt lat="47.49146" lon="6.76689">
        <ele>313</ele>
        <time>2015-03-08T08:36:57.000Z</time>
      </trkpt>
      <trkpt lat="47.49147" lon="6.76695">
        <ele>313</ele>
        <time>2015-03-08T08:36:58.000Z</time>
      </trkpt>
      <trkpt lat="47.49148" lon="6.76702">
        <ele>313</ele>
        <time>2015-03-08T08:36:59.000Z</time>
      </trkpt>
      <trkpt lat="47.49148" lon="6.76708">
        <ele>313</ele>
        <time>2015-03-08T08:37:00.000Z</time>
      </trkpt>
      <trkpt lat="47.49149" lon="6.76714">
        <ele>313</ele>
        <time>2015-03-08T08:37:01.000Z</time>
      </trkpt>
      <trkpt lat="47.49149" lon="6.7672">
        <ele>313</ele>
        <time>2015-03-08T08:37:02.000Z</time>
      </trkpt>
      <trkpt lat="47.4915" lon="6.76726">
        <ele>313</ele>
        <time>2015-03-08T08:37:03.000Z</time>
      </trkpt>
      <trkpt lat="47.49151" lon="6.76733">
        <ele>313</ele>
        <time>2015-03-08T08:37:04.000Z</time>
      </trkpt>
      <trkpt lat="47.49151" lon="6.76739">
        <ele>313</ele>
        <time>2015-03-08T08:37:05.000Z</time>
      </trkpt>
      <trkpt lat="47.49152" lon="6.76747">
        <ele>313</ele>
        <time>2015-03-08T08:37:06.000Z</time>
      </trkpt>
      <trkpt lat="47.49153" lon="6.76754">
        <ele>313</ele>
        <time>2015-03-08T08:37:07.000Z</time>
      </trkpt>
      <trkpt lat="47.49153" lon="6.76761">
        <ele>313</ele>
        <time>2015-03-08T08:37:08.000Z</time>
      </trkpt>
      <trkpt lat="47.49152" lon="6.76766">
        <ele>313</ele>
        <time>2015-03-08T08:37:09.000Z</time>
      </trkpt>
      <trkpt lat="47.49153" lon="6.76772">
        <ele>313</ele>
        <time>2015-03-08T08:37:10.000Z</time>
      </trkpt>
      <trkpt lat="47.49154" lon="6.76779">
        <ele>313</ele>
        <time>2015-03-08T08:37:11.000Z</time>
      </trkpt>
      <trkpt lat="47.49154" lon="6.76785">
        <ele>312</ele>
        <time>2015-03-08T08:37:12.000Z</time>
      </trkpt>
      <trkpt lat="47.49154" lon="6.76792">
        <ele>312</ele>
        <time>2015-03-08T08:37:13.000Z</time>
      </trkpt>
      <trkpt lat="47.49155" lon="6.76799">
        <ele>312</ele>
        <time>2015-03-08T08:37:14.000Z</time>
      </trkpt>
      <trkpt lat="47.49155" lon="6.76805">
        <ele>313</ele>
        <time>2015-03-08T08:37:15.000Z</time>
      </trkpt>
      <trkpt lat="47.49155" lon="6.76813">
        <ele>313</ele>
        <time>2015-03-08T08:37:16.000Z</time>
      </trkpt>
      <trkpt lat="47.49156" lon="6.76819">
        <ele>313</ele>
        <time>2015-03-08T08:37:17.000Z</time>
      </trkpt>
      <trkpt lat="47.49157" lon="6.76827">
        <ele>313</ele>
        <time>2015-03-08T08:37:18.000Z</time>
      </trkpt>
      <trkpt lat="47.49157" lon="6.76834">
        <ele>313</ele>
        <time>2015-03-08T08:37:19.000Z</time>
      </trkpt>
      <trkpt lat="47.49158" lon="6.76842">
        <ele>313</ele>
        <time>2015-03-08T08:37:20.000Z</time>
      </trkpt>
      <trkpt lat="47.49157" lon="6.76848">
        <ele>313</ele>
        <time>2015-03-08T08:37:21.000Z</time>
      </trkpt>
      <trkpt lat="47.49156" lon="6.76855">
        <ele>312</ele>
        <time>2015-03-08T08:37:22.000Z</time>
      </trkpt>
      <trkpt lat="47.49156" lon="6.76862">
        <ele>312</ele>
        <time>2015-03-08T08:37:23.000Z</time>
      </trkpt>
      <trkpt lat="47.49155" lon="6.7687">
        <ele>312</ele>
        <time>2015-03-08T08:37:24.000Z</time>
      </trkpt>
      <trkpt lat="47.49155" lon="6.76878">
        <ele>312</ele>
        <time>2015-03-08T08:37:25.000Z</time>
      </trkpt>
      <trkpt lat="47.49154" lon="6.76884">
        <ele>312</ele>
        <time>2015-03-08T08:37:26.000Z</time>
      </trkpt>
      <trkpt lat="47.49154" lon="6.76892">
        <ele>312</ele>
        <time>2015-03-08T08:37:27.000Z</time>
      </trkpt>
      <trkpt lat="47.49155" lon="6.76899">
        <ele>312</ele>
        <time>2015-03-08T08:37:28.000Z</time>
      </trkpt>
      <trkpt lat="47.49155" lon="6.76906">
        <ele>313</ele>
        <time>2015-03-08T08:37:29.000Z</time>
      </trkpt>
      <trkpt lat="47.49154" lon="6.76913">
        <ele>313</ele>
        <time>2015-03-08T08:37:30.000Z</time>
      </trkpt>
      <trkpt lat="47.49154" lon="6.76919">
        <ele>312</ele>
        <time>2015-03-08T08:37:31.000Z</time>
      </trkpt>
      <trkpt lat="47.49154" lon="6.76926">
        <ele>312</ele>
        <time>2015-03-08T08:37:32.000Z</time>
      </trkpt>
      <trkpt lat="47.49154" lon="6.76933">
        <ele>312</ele>
        <time>2015-03-08T08:37:33.000Z</time>
      </trkpt>
      <trkpt lat="47.49154" lon="6.7694">
        <ele>312</ele>
        <time>2015-03-08T08:37:34.000Z</time>
      </trkpt>
      <trkpt lat="47.49153" lon="6.76947">
        <ele>312</ele>
        <time>2015-03-08T08:37:35.000Z</time>
      </trkpt>
      <trkpt lat="47.49155" lon="6.76954">
        <ele>312</ele>
        <time>2015-03-08T08:37:36.000Z</time>
      </trkpt>
      <trkpt lat="47.49155" lon="6.76957">
        <ele>312</ele>
        <time>2015-03-08T08:37:37.000Z</time>
      </trkpt>
      <trkpt lat="47.49156" lon="6.76963">
        <ele>312</ele>
        <time>2015-03-08T08:37:38.000Z</time>
      </trkpt>
      <trkpt lat="47.49157" lon="6.76968">
        <ele>312</ele>
        <time>2015-03-08T08:37:39.000Z</time>
      </trkpt>
      <trkpt lat="47.49156" lon="6.76975">
        <ele>312</ele>
        <time>2015-03-08T08:37:40.000Z</time>
      </trkpt>
      <trkpt lat="47.49153" lon="6.76981">
        <ele>312</ele>
        <time>2015-03-08T08:37:41.000Z</time>
      </trkpt>
      <trkpt lat="47.49153" lon="6.76989">
        <ele>312</ele>
        <time>2015-03-08T08:37:42.000Z</time>
      </trkpt>
      <trkpt lat="47.49154" lon="6.76993">
        <ele>312</ele>
        <time>2015-03-08T08:37:43.000Z</time>
      </trkpt>
      <trkpt lat="47.49159" lon="6.76998">
        <ele>312</ele>
        <time>2015-03-08T08:37:44.000Z</time>
      </trkpt>
      <trkpt lat="47.49162" lon="6.77003">
        <ele>312</ele>
        <time>2015-03-08T08:37:45.000Z</time>
      </trkpt>
      <trkpt lat="47.49164" lon="6.7701">
        <ele>312</ele>
        <time>2015-03-08T08:37:46.000Z</time>
      </trkpt>
      <trkpt lat="47.49166" lon="6.77017">
        <ele>312</ele>
        <time>2015-03-08T08:37:47.000Z</time>
      </trkpt>
      <trkpt lat="47.49167" lon="6.77024">
        <ele>313</ele>
        <time>2015-03-08T08:37:48.000Z</time>
      </trkpt>
      <trkpt lat="47.49169" lon="6.77032">
        <ele>313</ele>
        <time>2015-03-08T08:37:49.000Z</time>
      </trkpt>
      <trkpt lat="47.4917" lon="6.77039">
        <ele>313</ele>
        <time>2015-03-08T08:37:50.000Z</time>
      </trkpt>
      <trkpt lat="47.49171" lon="6.77046">
        <ele>313</ele>
        <time>2015-03-08T08:37:51.000Z</time>
      </trkpt>
      <trkpt lat="47.49171" lon="6.77053">
        <ele>313</ele>
        <time>2015-03-08T08:37:52.000Z</time>
      </trkpt>
      <trkpt lat="47.49172" lon="6.7706">
        <ele>313</ele>
        <time>2015-03-08T08:37:53.000Z</time>
      </trkpt>
      <trkpt lat="47.49173" lon="6.77067">
        <ele>313</ele>
        <time>2015-03-08T08:37:54.000Z</time>
      </trkpt>
      <trkpt lat="47.49174" lon="6.77074">
        <ele>312</ele>
        <time>2015-03-08T08:37:55.000Z</time>
      </trkpt>
      <trkpt lat="47.49176" lon="6.77082">
        <ele>312</ele>
        <time>2015-03-08T08:37:56.000Z</time>
      </trkpt>
      <trkpt lat="47.49176" lon="6.77088">
        <ele>312</ele>
        <time>2015-03-08T08:37:57.000Z</time>
      </trkpt>
      <trkpt lat="47.49177" lon="6.77095">
        <ele>312</ele>
        <time>2015-03-08T08:37:58.000Z</time>
      </trkpt>
      <trkpt lat="47.49178" lon="6.771">
        <ele>312</ele>
        <time>2015-03-08T08:37:59.000Z</time>
      </trkpt>
      <trkpt lat="47.49179" lon="6.77106">
        <ele>313</ele>
        <time>2015-03-08T08:38:00.000Z</time>
      </trkpt>
      <trkpt lat="47.49179" lon="6.77113">
        <ele>313</ele>
        <time>2015-03-08T08:38:01.000Z</time>
      </trkpt>
      <trkpt lat="47.4918" lon="6.77118">
        <ele>313</ele>
        <time>2015-03-08T08:38:02.000Z</time>
      </trkpt>
      <trkpt lat="47.4918" lon="6.77124">
        <ele>313</ele>
        <time>2015-03-08T08:38:03.000Z</time>
      </trkpt>
      <trkpt lat="47.49179" lon="6.77128">
        <ele>313</ele>
        <time>2015-03-08T08:38:05.000Z</time>
      </trkpt>
      <trkpt lat="47.49181" lon="6.77132">
        <ele>313</ele>
        <time>2015-03-08T08:38:06.000Z</time>
      </trkpt>
      <trkpt lat="47.49183" lon="6.77136">
        <ele>313</ele>
        <time>2015-03-08T08:38:07.000Z</time>
      </trkpt>
      <trkpt lat="47.49185" lon="6.7714">
        <ele>313</ele>
        <time>2015-03-08T08:38:08.000Z</time>
      </trkpt>
      <trkpt lat="47.49187" lon="6.77146">
        <ele>313</ele>
        <time>2015-03-08T08:38:09.000Z</time>
      </trkpt>
      <trkpt lat="47.49189" lon="6.77151">
        <ele>313</ele>
        <time>2015-03-08T08:38:10.000Z</time>
      </trkpt>
      <trkpt lat="47.4919" lon="6.77162">
        <ele>313</ele>
        <time>2015-03-08T08:38:11.000Z</time>
      </trkpt>
      <trkpt lat="47.4919" lon="6.77169">
        <ele>313</ele>
        <time>2015-03-08T08:38:12.000Z</time>
      </trkpt>
      <trkpt lat="47.4919" lon="6.77176">
        <ele>313</ele>
        <time>2015-03-08T08:38:13.000Z</time>
      </trkpt>
      <trkpt lat="47.4919" lon="6.77184">
        <ele>313</ele>
        <time>2015-03-08T08:38:14.000Z</time>
      </trkpt>
      <trkpt lat="47.4919" lon="6.7719">
        <ele>312</ele>
        <time>2015-03-08T08:38:15.000Z</time>
      </trkpt>
      <trkpt lat="47.4919" lon="6.77196">
        <ele>312</ele>
        <time>2015-03-08T08:38:16.000Z</time>
      </trkpt>
      <trkpt lat="47.4919" lon="6.77202">
        <ele>312</ele>
        <time>2015-03-08T08:38:17.000Z</time>
      </trkpt>
      <trkpt lat="47.4919" lon="6.77207">
        <ele>312</ele>
        <time>2015-03-08T08:38:18.000Z</time>
      </trkpt>
      <trkpt lat="47.4919" lon="6.77213">
        <ele>312</ele>
        <time>2015-03-08T08:38:19.000Z</time>
      </trkpt>
      <trkpt lat="47.4919" lon="6.77219">
        <ele>312</ele>
        <time>2015-03-08T08:38:20.000Z</time>
      </trkpt>
      <trkpt lat="47.49188" lon="6.77225">
        <ele>312</ele>
        <time>2015-03-08T08:38:21.000Z</time>
      </trkpt>
      <trkpt lat="47.49189" lon="6.77232">
        <ele>312</ele>
        <time>2015-03-08T08:38:22.000Z</time>
      </trkpt>
      <trkpt lat="47.49189" lon="6.77238">
        <ele>312</ele>
        <time>2015-03-08T08:38:23.000Z</time>
      </trkpt>
      <trkpt lat="47.49189" lon="6.77244">
        <ele>312</ele>
        <time>2015-03-08T08:38:24.000Z</time>
      </trkpt>
      <trkpt lat="47.49191" lon="6.7725">
        <ele>312</ele>
        <time>2015-03-08T08:38:25.000Z</time>
      </trkpt>
      <trkpt lat="47.4919" lon="6.77256">
        <ele>311</ele>
        <time>2015-03-08T08:38:26.000Z</time>
      </trkpt>
      <trkpt lat="47.49189" lon="6.77263">
        <ele>311</ele>
        <time>2015-03-08T08:38:27.000Z</time>
      </trkpt>
      <trkpt lat="47.49188" lon="6.7727">
        <ele>311</ele>
        <time>2015-03-08T08:38:28.000Z</time>
      </trkpt>
      <trkpt lat="47.49188" lon="6.77277">
        <ele>311</ele>
        <time>2015-03-08T08:38:29.000Z</time>
      </trkpt>
      <trkpt lat="47.49187" lon="6.77285">
        <ele>311</ele>
        <time>2015-03-08T08:38:30.000Z</time>
      </trkpt>
      <trkpt lat="47.49187" lon="6.77293">
        <ele>311</ele>
        <time>2015-03-08T08:38:31.000Z</time>
      </trkpt>
      <trkpt lat="47.49187" lon="6.773">
        <ele>311</ele>
        <time>2015-03-08T08:38:31.999Z</time>
      </trkpt>
      <trkpt lat="47.49188" lon="6.77307">
        <ele>311</ele>
        <time>2015-03-08T08:38:33.000Z</time>
      </trkpt>
      <trkpt lat="47.49187" lon="6.77314">
        <ele>311</ele>
        <time>2015-03-08T08:38:34.000Z</time>
      </trkpt>
      <trkpt lat="47.49186" lon="6.77322">
        <ele>310</ele>
        <time>2015-03-08T08:38:35.000Z</time>
      </trkpt>
      <trkpt lat="47.49185" lon="6.77329">
        <ele>310</ele>
        <time>2015-03-08T08:38:36.000Z</time>
      </trkpt>
      <trkpt lat="47.49183" lon="6.77334">
        <ele>310</ele>
        <time>2015-03-08T08:38:37.000Z</time>
      </trkpt>
      <trkpt lat="47.49181" lon="6.77334">
        <ele>310</ele>
        <time>2015-03-08T08:38:38.000Z</time>
      </trkpt>
      <trkpt lat="47.49179" lon="6.77336">
        <ele>310</ele>
        <time>2015-03-08T08:38:39.000Z</time>
      </trkpt>
      <trkpt lat="47.49176" lon="6.77337">
        <ele>310</ele>
        <time>2015-03-08T08:38:40.000Z</time>
      </trkpt>
      <trkpt lat="47.49173" lon="6.77336">
        <ele>310</ele>
        <time>2015-03-08T08:38:41.000Z</time>
      </trkpt>
      <trkpt lat="47.49169" lon="6.77336">
        <ele>310</ele>
        <time>2015-03-08T08:38:42.000Z</time>
      </trkpt>
      <trkpt lat="47.49164" lon="6.77336">
        <ele>310</ele>
        <time>2015-03-08T08:38:43.000Z</time>
      </trkpt>
      <trkpt lat="47.4916" lon="6.77337">
        <ele>310</ele>
        <time>2015-03-08T08:38:44.000Z</time>
      </trkpt>
      <trkpt lat="47.49156" lon="6.77336">
        <ele>310</ele>
        <time>2015-03-08T08:38:45.000Z</time>
      </trkpt>
      <trkpt lat="47.49152" lon="6.77336">
        <ele>310</ele>
        <time>2015-03-08T08:38:46.000Z</time>
      </trkpt>
      <trkpt lat="47.49148" lon="6.77336">
        <ele>310</ele>
        <time>2015-03-08T08:38:47.000Z</time>
      </trkpt>
      <trkpt lat="47.49144" lon="6.77335">
        <ele>310</ele>
        <time>2015-03-08T08:38:48.000Z</time>
      </trkpt>
      <trkpt lat="47.49139" lon="6.77335">
        <ele>310</ele>
        <time>2015-03-08T08:38:49.000Z</time>
      </trkpt>
      <trkpt lat="47.49135" lon="6.77335">
        <ele>310</ele>
        <time>2015-03-08T08:38:50.000Z</time>
      </trkpt>
      <trkpt lat="47.4913" lon="6.77335">
        <ele>310</ele>
        <time>2015-03-08T08:38:51.000Z</time>
      </trkpt>
      <trkpt lat="47.49126" lon="6.77335">
        <ele>310</ele>
        <time>2015-03-08T08:38:52.000Z</time>
      </trkpt>
      <trkpt lat="47.49121" lon="6.77334">
        <ele>310</ele>
        <time>2015-03-08T08:38:53.000Z</time>
      </trkpt>
      <trkpt lat="47.49117" lon="6.77334">
        <ele>310</ele>
        <time>2015-03-08T08:38:54.000Z</time>
      </trkpt>
      <trkpt lat="47.49113" lon="6.77334">
        <ele>310</ele>
        <time>2015-03-08T08:38:55.000Z</time>
      </trkpt>
      <trkpt lat="47.49109" lon="6.77333">
        <ele>311</ele>
        <time>2015-03-08T08:38:56.000Z</time>
      </trkpt>
      <trkpt lat="47.49103" lon="6.77333">
        <ele>311</ele>
        <time>2015-03-08T08:38:57.000Z</time>
      </trkpt>
      <trkpt lat="47.49099" lon="6.77333">
        <ele>311</ele>
        <time>2015-03-08T08:38:58.000Z</time>
      </trkpt>
      <trkpt lat="47.49094" lon="6.77332">
        <ele>311</ele>
        <time>2015-03-08T08:38:59.000Z</time>
      </trkpt>
      <trkpt lat="47.49089" lon="6.77332">
        <ele>311</ele>
        <time>2015-03-08T08:39:00.000Z</time>
      </trkpt>
      <trkpt lat="47.49084" lon="6.77332">
        <ele>311</ele>
        <time>2015-03-08T08:39:01.000Z</time>
      </trkpt>
      <trkpt lat="47.49079" lon="6.77332">
        <ele>311</ele>
        <time>2015-03-08T08:39:02.000Z</time>
      </trkpt>
      <trkpt lat="47.49074" lon="6.77332">
        <ele>311</ele>
        <time>2015-03-08T08:39:03.000Z</time>
      </trkpt>
      <trkpt lat="47.49069" lon="6.77332">
        <ele>311</ele>
        <time>2015-03-08T08:39:04.000Z</time>
      </trkpt>
      <trkpt lat="47.49064" lon="6.77331">
        <ele>311</ele>
        <time>2015-03-08T08:39:05.000Z</time>
      </trkpt>
      <trkpt lat="47.49058" lon="6.77331">
        <ele>311</ele>
        <time>2015-03-08T08:39:06.000Z</time>
      </trkpt>
      <trkpt lat="47.49053" lon="6.7733">
        <ele>311</ele>
        <time>2015-03-08T08:39:07.000Z</time>
      </trkpt>
      <trkpt lat="47.49047" lon="6.7733">
        <ele>311</ele>
        <time>2015-03-08T08:39:08.000Z</time>
      </trkpt>
      <trkpt lat="47.49042" lon="6.7733">
        <ele>311</ele>
        <time>2015-03-08T08:39:09.000Z</time>
      </trkpt>
      <trkpt lat="47.49037" lon="6.7733">
        <ele>311</ele>
        <time>2015-03-08T08:39:10.000Z</time>
      </trkpt>
      <trkpt lat="47.49033" lon="6.7733">
        <ele>311</ele>
        <time>2015-03-08T08:39:11.000Z</time>
      </trkpt>
      <trkpt lat="47.49028" lon="6.77329">
        <ele>311</ele>
        <time>2015-03-08T08:39:12.000Z</time>
      </trkpt>
      <trkpt lat="47.49024" lon="6.77328">
        <ele>311</ele>
        <time>2015-03-08T08:39:13.000Z</time>
      </trkpt>
      <trkpt lat="47.49019" lon="6.77328">
        <ele>311</ele>
        <time>2015-03-08T08:39:14.000Z</time>
      </trkpt>
      <trkpt lat="47.49013" lon="6.77328">
        <ele>311</ele>
        <time>2015-03-08T08:39:15.000Z</time>
      </trkpt>
      <trkpt lat="47.49008" lon="6.77327">
        <ele>311</ele>
        <time>2015-03-08T08:39:16.000Z</time>
      </trkpt>
      <trkpt lat="47.49003" lon="6.77326">
        <ele>311</ele>
        <time>2015-03-08T08:39:17.000Z</time>
      </trkpt>
      <trkpt lat="47.48998" lon="6.77325">
        <ele>311</ele>
        <time>2015-03-08T08:39:18.000Z</time>
      </trkpt>
      <trkpt lat="47.48993" lon="6.77326">
        <ele>311</ele>
        <time>2015-03-08T08:39:19.000Z</time>
      </trkpt>
      <trkpt lat="47.48988" lon="6.77326">
        <ele>311</ele>
        <time>2015-03-08T08:39:20.000Z</time>
      </trkpt>
      <trkpt lat="47.48983" lon="6.77326">
        <ele>311</ele>
        <time>2015-03-08T08:39:21.000Z</time>
      </trkpt>
      <trkpt lat="47.48978" lon="6.77325">
        <ele>311</ele>
        <time>2015-03-08T08:39:22.000Z</time>
      </trkpt>
      <trkpt lat="47.48973" lon="6.77324">
        <ele>311</ele>
        <time>2015-03-08T08:39:23.000Z</time>
      </trkpt>
      <trkpt lat="47.48968" lon="6.77324">
        <ele>311</ele>
        <time>2015-03-08T08:39:24.000Z</time>
      </trkpt>
      <trkpt lat="47.48963" lon="6.77323">
        <ele>311</ele>
        <time>2015-03-08T08:39:25.000Z</time>
      </trkpt>
      <trkpt lat="47.48958" lon="6.77322">
        <ele>311</ele>
        <time>2015-03-08T08:39:26.000Z</time>
      </trkpt>
      <trkpt lat="47.48953" lon="6.77321">
        <ele>311</ele>
        <time>2015-03-08T08:39:27.000Z</time>
      </trkpt>
      <trkpt lat="47.48948" lon="6.7732">
        <ele>311</ele>
        <time>2015-03-08T08:39:28.000Z</time>
      </trkpt>
      <trkpt lat="47.48943" lon="6.77318">
        <ele>311</ele>
        <time>2015-03-08T08:39:29.000Z</time>
      </trkpt>
      <trkpt lat="47.48937" lon="6.77316">
        <ele>311</ele>
        <time>2015-03-08T08:39:30.000Z</time>
      </trkpt>
      <trkpt lat="47.48933" lon="6.77314">
        <ele>311</ele>
        <time>2015-03-08T08:39:31.000Z</time>
      </trkpt>
      <trkpt lat="47.48928" lon="6.77312">
        <ele>310</ele>
        <time>2015-03-08T08:39:32.000Z</time>
      </trkpt>
      <trkpt lat="47.48924" lon="6.7731">
        <ele>310</ele>
        <time>2015-03-08T08:39:33.000Z</time>
      </trkpt>
      <trkpt lat="47.48919" lon="6.77307">
        <ele>311</ele>
        <time>2015-03-08T08:39:34.000Z</time>
      </trkpt>
      <trkpt lat="47.48914" lon="6.77305">
        <ele>310</ele>
        <time>2015-03-08T08:39:35.000Z</time>
      </trkpt>
      <trkpt lat="47.48909" lon="6.77303">
        <ele>310</ele>
        <time>2015-03-08T08:39:36.000Z</time>
      </trkpt>
      <trkpt lat="47.48903" lon="6.77301">
        <ele>310</ele>
        <time>2015-03-08T08:39:37.000Z</time>
      </trkpt>
      <trkpt lat="47.48898" lon="6.773">
        <ele>310</ele>
        <time>2015-03-08T08:39:38.000Z</time>
      </trkpt>
      <trkpt lat="47.48893" lon="6.77298">
        <ele>310</ele>
        <time>2015-03-08T08:39:39.000Z</time>
      </trkpt>
      <trkpt lat="47.48888" lon="6.77296">
        <ele>310</ele>
        <time>2015-03-08T08:39:40.000Z</time>
      </trkpt>
      <trkpt lat="47.48883" lon="6.77295">
        <ele>310</ele>
        <time>2015-03-08T08:39:41.000Z</time>
      </trkpt>
      <trkpt lat="47.48878" lon="6.77292">
        <ele>310</ele>
        <time>2015-03-08T08:39:42.000Z</time>
      </trkpt>
      <trkpt lat="47.48873" lon="6.77289">
        <ele>310</ele>
        <time>2015-03-08T08:39:43.000Z</time>
      </trkpt>
      <trkpt lat="47.48868" lon="6.77287">
        <ele>310</ele>
        <time>2015-03-08T08:39:44.000Z</time>
      </trkpt>
      <trkpt lat="47.48863" lon="6.77286">
        <ele>310</ele>
        <time>2015-03-08T08:39:45.000Z</time>
      </trkpt>
      <trkpt lat="47.48858" lon="6.77284">
        <ele>310</ele>
        <time>2015-03-08T08:39:46.000Z</time>
      </trkpt>
      <trkpt lat="47.48854" lon="6.77281">
        <ele>310</ele>
        <time>2015-03-08T08:39:47.000Z</time>
      </trkpt>
      <trkpt lat="47.48848" lon="6.77278">
        <ele>310</ele>
        <time>2015-03-08T08:39:48.000Z</time>
      </trkpt>
      <trkpt lat="47.48843" lon="6.77275">
        <ele>310</ele>
        <time>2015-03-08T08:39:49.000Z</time>
      </trkpt>
      <trkpt lat="47.4884" lon="6.77273">
        <ele>310</ele>
        <time>2015-03-08T08:39:50.000Z</time>
      </trkpt>
      <trkpt lat="47.48835" lon="6.77271">
        <ele>310</ele>
        <time>2015-03-08T08:39:51.000Z</time>
      </trkpt>
      <trkpt lat="47.48831" lon="6.77268">
        <ele>310</ele>
        <time>2015-03-08T08:39:52.000Z</time>
      </trkpt>
      <trkpt lat="47.48826" lon="6.77265">
        <ele>310</ele>
        <time>2015-03-08T08:39:53.000Z</time>
      </trkpt>
      <trkpt lat="47.48821" lon="6.77262">
        <ele>310</ele>
        <time>2015-03-08T08:39:54.000Z</time>
      </trkpt>
      <trkpt lat="47.48817" lon="6.77259">
        <ele>310</ele>
        <time>2015-03-08T08:39:55.000Z</time>
      </trkpt>
      <trkpt lat="47.48812" lon="6.77255">
        <ele>310</ele>
        <time>2015-03-08T08:39:56.000Z</time>
      </trkpt>
      <trkpt lat="47.48808" lon="6.77251">
        <ele>310</ele>
        <time>2015-03-08T08:39:57.000Z</time>
      </trkpt>
      <trkpt lat="47.48804" lon="6.77247">
        <ele>310</ele>
        <time>2015-03-08T08:39:58.000Z</time>
      </trkpt>
      <trkpt lat="47.48798" lon="6.77244">
        <ele>310</ele>
        <time>2015-03-08T08:39:59.000Z</time>
      </trkpt>
      <trkpt lat="47.48793" lon="6.77241">
        <ele>310</ele>
        <time>2015-03-08T08:40:00.000Z</time>
      </trkpt>
      <trkpt lat="47.48789" lon="6.77237">
        <ele>310</ele>
        <time>2015-03-08T08:40:01.000Z</time>
      </trkpt>
      <trkpt lat="47.48784" lon="6.77233">
        <ele>310</ele>
        <time>2015-03-08T08:40:02.000Z</time>
      </trkpt>
      <trkpt lat="47.48779" lon="6.7723">
        <ele>310</ele>
        <time>2015-03-08T08:40:03.000Z</time>
      </trkpt>
      <trkpt lat="47.48774" lon="6.77225">
        <ele>310</ele>
        <time>2015-03-08T08:40:04.000Z</time>
      </trkpt>
      <trkpt lat="47.48769" lon="6.77222">
        <ele>310</ele>
        <time>2015-03-08T08:40:05.000Z</time>
      </trkpt>
      <trkpt lat="47.48765" lon="6.77218">
        <ele>310</ele>
        <time>2015-03-08T08:40:06.000Z</time>
      </trkpt>
      <trkpt lat="47.4876" lon="6.77214">
        <ele>310</ele>
        <time>2015-03-08T08:40:07.000Z</time>
      </trkpt>
      <trkpt lat="47.48756" lon="6.77211">
        <ele>310</ele>
        <time>2015-03-08T08:40:08.000Z</time>
      </trkpt>
      <trkpt lat="47.48751" lon="6.77208">
        <ele>310</ele>
        <time>2015-03-08T08:40:09.000Z</time>
      </trkpt>
      <trkpt lat="47.48747" lon="6.77204">
        <ele>310</ele>
        <time>2015-03-08T08:40:10.000Z</time>
      </trkpt>
      <trkpt lat="47.48742" lon="6.77201">
        <ele>310</ele>
        <time>2015-03-08T08:40:11.000Z</time>
      </trkpt>
      <trkpt lat="47.48737" lon="6.77197">
        <ele>310</ele>
        <time>2015-03-08T08:40:12.000Z</time>
      </trkpt>
      <trkpt lat="47.48733" lon="6.77194">
        <ele>310</ele>
        <time>2015-03-08T08:40:13.000Z</time>
      </trkpt>
      <trkpt lat="47.48728" lon="6.7719">
        <ele>310</ele>
        <time>2015-03-08T08:40:14.000Z</time>
      </trkpt>
      <trkpt lat="47.48723" lon="6.77187">
        <ele>310</ele>
        <time>2015-03-08T08:40:15.000Z</time>
      </trkpt>
      <trkpt lat="47.48719" lon="6.77183">
        <ele>310</ele>
        <time>2015-03-08T08:40:16.000Z</time>
      </trkpt>
      <trkpt lat="47.48714" lon="6.7718">
        <ele>310</ele>
        <time>2015-03-08T08:40:17.000Z</time>
      </trkpt>
      <trkpt lat="47.48709" lon="6.77176">
        <ele>310</ele>
        <time>2015-03-08T08:40:18.000Z</time>
      </trkpt>
      <trkpt lat="47.48704" lon="6.77173">
        <ele>311</ele>
        <time>2015-03-08T08:40:19.000Z</time>
      </trkpt>
      <trkpt lat="47.48701" lon="6.77169">
        <ele>311</ele>
        <time>2015-03-08T08:40:20.000Z</time>
      </trkpt>
      <trkpt lat="47.48696" lon="6.77165">
        <ele>311</ele>
        <time>2015-03-08T08:40:21.000Z</time>
      </trkpt>
      <trkpt lat="47.48691" lon="6.77161">
        <ele>311</ele>
        <time>2015-03-08T08:40:22.000Z</time>
      </trkpt>
      <trkpt lat="47.48686" lon="6.77157">
        <ele>311</ele>
        <time>2015-03-08T08:40:23.000Z</time>
      </trkpt>
      <trkpt lat="47.48683" lon="6.77153">
        <ele>311</ele>
        <time>2015-03-08T08:40:24.000Z</time>
      </trkpt>
      <trkpt lat="47.48679" lon="6.77149">
        <ele>311</ele>
        <time>2015-03-08T08:40:25.000Z</time>
      </trkpt>
      <trkpt lat="47.48675" lon="6.77144">
        <ele>311</ele>
        <time>2015-03-08T08:40:26.000Z</time>
      </trkpt>
      <trkpt lat="47.48671" lon="6.7714">
        <ele>311</ele>
        <time>2015-03-08T08:40:27.000Z</time>
      </trkpt>
      <trkpt lat="47.48666" lon="6.77136">
        <ele>312</ele>
        <time>2015-03-08T08:40:28.000Z</time>
      </trkpt>
      <trkpt lat="47.48662" lon="6.7713">
        <ele>312</ele>
        <time>2015-03-08T08:40:29.000Z</time>
      </trkpt>
      <trkpt lat="47.48658" lon="6.77126">
        <ele>312</ele>
        <time>2015-03-08T08:40:30.000Z</time>
      </trkpt>
      <trkpt lat="47.48654" lon="6.77122">
        <ele>312</ele>
        <time>2015-03-08T08:40:31.000Z</time>
      </trkpt>
      <trkpt lat="47.4865" lon="6.77118">
        <ele>312</ele>
        <time>2015-03-08T08:40:32.000Z</time>
      </trkpt>
      <trkpt lat="47.48646" lon="6.77113">
        <ele>312</ele>
        <time>2015-03-08T08:40:33.000Z</time>
      </trkpt>
      <trkpt lat="47.48642" lon="6.77109">
        <ele>312</ele>
        <time>2015-03-08T08:40:34.000Z</time>
      </trkpt>
      <trkpt lat="47.48638" lon="6.77104">
        <ele>312</ele>
        <time>2015-03-08T08:40:35.000Z</time>
      </trkpt>
      <trkpt lat="47.48634" lon="6.771">
        <ele>312</ele>
        <time>2015-03-08T08:40:36.000Z</time>
      </trkpt>
      <trkpt lat="47.4863" lon="6.77096">
        <ele>312</ele>
        <time>2015-03-08T08:40:37.000Z</time>
      </trkpt>
      <trkpt lat="47.48626" lon="6.77094">
        <ele>312</ele>
        <time>2015-03-08T08:40:38.000Z</time>
      </trkpt>
      <trkpt lat="47.48623" lon="6.7709">
        <ele>312</ele>
        <time>2015-03-08T08:40:39.000Z</time>
      </trkpt>
      <trkpt lat="47.48618" lon="6.77088">
        <ele>312</ele>
        <time>2015-03-08T08:40:40.000Z</time>
      </trkpt>
      <trkpt lat="47.48615" lon="6.77086">
        <ele>312</ele>
        <time>2015-03-08T08:40:41.000Z</time>
      </trkpt>
      <trkpt lat="47.48611" lon="6.77083">
        <ele>313</ele>
        <time>2015-03-08T08:40:42.000Z</time>
      </trkpt>
      <trkpt lat="47.48607" lon="6.7708">
        <ele>313</ele>
        <time>2015-03-08T08:40:43.000Z</time>
      </trkpt>
      <trkpt lat="47.48602" lon="6.77076">
        <ele>313</ele>
        <time>2015-03-08T08:40:44.000Z</time>
      </trkpt>
      <trkpt lat="47.48598" lon="6.77073">
        <ele>313</ele>
        <time>2015-03-08T08:40:45.000Z</time>
      </trkpt>
      <trkpt lat="47.48593" lon="6.7707">
        <ele>313</ele>
        <time>2015-03-08T08:40:46.000Z</time>
      </trkpt>
      <trkpt lat="47.48589" lon="6.77068">
        <ele>313</ele>
        <time>2015-03-08T08:40:47.000Z</time>
      </trkpt>
      <trkpt lat="47.48585" lon="6.77065">
        <ele>313</ele>
        <time>2015-03-08T08:40:48.000Z</time>
      </trkpt>
      <trkpt lat="47.4858" lon="6.77063">
        <ele>314</ele>
        <time>2015-03-08T08:40:49.000Z</time>
      </trkpt>
      <trkpt lat="47.48576" lon="6.77061">
        <ele>314</ele>
        <time>2015-03-08T08:40:50.000Z</time>
      </trkpt>
      <trkpt lat="47.48572" lon="6.77058">
        <ele>314</ele>
        <time>2015-03-08T08:40:51.000Z</time>
      </trkpt>
      <trkpt lat="47.48568" lon="6.77054">
        <ele>314</ele>
        <time>2015-03-08T08:40:52.000Z</time>
      </trkpt>
      <trkpt lat="47.48564" lon="6.77052">
        <ele>314</ele>
        <time>2015-03-08T08:40:53.000Z</time>
      </trkpt>
      <trkpt lat="47.4856" lon="6.77049">
        <ele>314</ele>
        <time>2015-03-08T08:40:54.000Z</time>
      </trkpt>
      <trkpt lat="47.48555" lon="6.77048">
        <ele>314</ele>
        <time>2015-03-08T08:40:55.000Z</time>
      </trkpt>
      <trkpt lat="47.48549" lon="6.77045">
        <ele>314</ele>
        <time>2015-03-08T08:40:56.000Z</time>
      </trkpt>
      <trkpt lat="47.48542" lon="6.77043">
        <ele>314</ele>
        <time>2015-03-08T08:40:57.000Z</time>
      </trkpt>
      <trkpt lat="47.48536" lon="6.7704">
        <ele>314</ele>
        <time>2015-03-08T08:40:58.000Z</time>
      </trkpt>
      <trkpt lat="47.4853" lon="6.77035">
        <ele>314</ele>
        <time>2015-03-08T08:40:59.000Z</time>
      </trkpt>
      <trkpt lat="47.48525" lon="6.7703">
        <ele>314</ele>
        <time>2015-03-08T08:41:00.000Z</time>
      </trkpt>
      <trkpt lat="47.48521" lon="6.77027">
        <ele>314</ele>
        <time>2015-03-08T08:41:01.000Z</time>
      </trkpt>
      <trkpt lat="47.48516" lon="6.77024">
        <ele>315</ele>
        <time>2015-03-08T08:41:02.000Z</time>
      </trkpt>
      <trkpt lat="47.4851" lon="6.7702">
        <ele>315</ele>
        <time>2015-03-08T08:41:03.000Z</time>
      </trkpt>
      <trkpt lat="47.48505" lon="6.77017">
        <ele>315</ele>
        <time>2015-03-08T08:41:04.000Z</time>
      </trkpt>
      <trkpt lat="47.485" lon="6.77013">
        <ele>315</ele>
        <time>2015-03-08T08:41:05.000Z</time>
      </trkpt>
      <trkpt lat="47.48495" lon="6.7701">
        <ele>315</ele>
        <time>2015-03-08T08:41:06.000Z</time>
      </trkpt>
      <trkpt lat="47.48489" lon="6.77006">
        <ele>315</ele>
        <time>2015-03-08T08:41:07.000Z</time>
      </trkpt>
      <trkpt lat="47.48484" lon="6.77003">
        <ele>315</ele>
        <time>2015-03-08T08:41:08.000Z</time>
      </trkpt>
      <trkpt lat="47.48479" lon="6.77001">
        <ele>315</ele>
        <time>2015-03-08T08:41:09.000Z</time>
      </trkpt>
      <trkpt lat="47.48474" lon="6.76997">
        <ele>315</ele>
        <time>2015-03-08T08:41:10.000Z</time>
      </trkpt>
      <trkpt lat="47.48468" lon="6.76994">
        <ele>315</ele>
        <time>2015-03-08T08:41:11.000Z</time>
      </trkpt>
      <trkpt lat="47.48462" lon="6.76991">
        <ele>315</ele>
        <time>2015-03-08T08:41:12.000Z</time>
      </trkpt>
      <trkpt lat="47.48458" lon="6.76987">
        <ele>315</ele>
        <time>2015-03-08T08:41:13.000Z</time>
      </trkpt>
      <trkpt lat="47.48452" lon="6.76984">
        <ele>315</ele>
        <time>2015-03-08T08:41:14.000Z</time>
      </trkpt>
      <trkpt lat="47.48447" lon="6.7698">
        <ele>315</ele>
        <time>2015-03-08T08:41:15.000Z</time>
      </trkpt>
      <trkpt lat="47.48442" lon="6.76976">
        <ele>314</ele>
        <time>2015-03-08T08:41:16.000Z</time>
      </trkpt>
      <trkpt lat="47.48436" lon="6.76972">
        <ele>314</ele>
        <time>2015-03-08T08:41:17.000Z</time>
      </trkpt>
      <trkpt lat="47.48431" lon="6.76968">
        <ele>314</ele>
        <time>2015-03-08T08:41:18.000Z</time>
      </trkpt>
      <trkpt lat="47.48427" lon="6.76966">
        <ele>314</ele>
        <time>2015-03-08T08:41:19.000Z</time>
      </trkpt>
      <trkpt lat="47.48422" lon="6.76964">
        <ele>314</ele>
        <time>2015-03-08T08:41:20.000Z</time>
      </trkpt>
      <trkpt lat="47.48414" lon="6.76962">
        <ele>312</ele>
        <time>2015-03-08T08:41:21.000Z</time>
      </trkpt>
      <trkpt lat="47.48408" lon="6.76959">
        <ele>312</ele>
        <time>2015-03-08T08:41:22.000Z</time>
      </trkpt>
      <trkpt lat="47.48401" lon="6.76956">
        <ele>312</ele>
        <time>2015-03-08T08:41:23.000Z</time>
      </trkpt>
      <trkpt lat="47.48395" lon="6.76953">
        <ele>312</ele>
        <time>2015-03-08T08:41:24.000Z</time>
      </trkpt>
      <trkpt lat="47.4839" lon="6.7695">
        <ele>312</ele>
        <time>2015-03-08T08:41:25.000Z</time>
      </trkpt>
      <trkpt lat="47.48384" lon="6.76947">
        <ele>312</ele>
        <time>2015-03-08T08:41:26.000Z</time>
      </trkpt>
      <trkpt lat="47.48379" lon="6.76944">
        <ele>312</ele>
        <time>2015-03-08T08:41:27.000Z</time>
      </trkpt>
      <trkpt lat="47.48374" lon="6.7694">
        <ele>312</ele>
        <time>2015-03-08T08:41:28.000Z</time>
      </trkpt>
      <trkpt lat="47.48369" lon="6.76937">
        <ele>312</ele>
        <time>2015-03-08T08:41:29.000Z</time>
      </trkpt>
      <trkpt lat="47.48363" lon="6.76934">
        <ele>311</ele>
        <time>2015-03-08T08:41:30.000Z</time>
      </trkpt>
      <trkpt lat="47.48358" lon="6.7693">
        <ele>311</ele>
        <time>2015-03-08T08:41:31.000Z</time>
      </trkpt>
      <trkpt lat="47.48353" lon="6.76926">
        <ele>311</ele>
        <time>2015-03-08T08:41:32.000Z</time>
      </trkpt>
      <trkpt lat="47.48348" lon="6.76923">
        <ele>310</ele>
        <time>2015-03-08T08:41:33.000Z</time>
      </trkpt>
      <trkpt lat="47.48342" lon="6.76919">
        <ele>310</ele>
        <time>2015-03-08T08:41:34.000Z</time>
      </trkpt>
      <trkpt lat="47.48337" lon="6.76915">
        <ele>309</ele>
        <time>2015-03-08T08:41:35.000Z</time>
      </trkpt>
      <trkpt lat="47.48331" lon="6.7691">
        <ele>309</ele>
        <time>2015-03-08T08:41:36.000Z</time>
      </trkpt>
      <trkpt lat="47.48326" lon="6.76907">
        <ele>309</ele>
        <time>2015-03-08T08:41:37.000Z</time>
      </trkpt>
      <trkpt lat="47.48321" lon="6.76904">
        <ele>310</ele>
        <time>2015-03-08T08:41:38.000Z</time>
      </trkpt>
      <trkpt lat="47.48316" lon="6.76899">
        <ele>310</ele>
        <time>2015-03-08T08:41:39.000Z</time>
      </trkpt>
      <trkpt lat="47.48311" lon="6.76895">
        <ele>310</ele>
        <time>2015-03-08T08:41:40.000Z</time>
      </trkpt>
      <trkpt lat="47.48306" lon="6.7689">
        <ele>310</ele>
        <time>2015-03-08T08:41:41.000Z</time>
      </trkpt>
      <trkpt lat="47.48301" lon="6.76886">
        <ele>310</ele>
        <time>2015-03-08T08:41:42.000Z</time>
      </trkpt>
      <trkpt lat="47.48296" lon="6.76882">
        <ele>310</ele>
        <time>2015-03-08T08:41:43.000Z</time>
      </trkpt>
      <trkpt lat="47.48292" lon="6.76878">
        <ele>310</ele>
        <time>2015-03-08T08:41:44.000Z</time>
      </trkpt>
      <trkpt lat="47.48287" lon="6.76873">
        <ele>310</ele>
        <time>2015-03-08T08:41:45.000Z</time>
      </trkpt>
      <trkpt lat="47.48283" lon="6.76867">
        <ele>310</ele>
        <time>2015-03-08T08:41:46.000Z</time>
      </trkpt>
      <trkpt lat="47.48279" lon="6.76861">
        <ele>310</ele>
        <time>2015-03-08T08:41:47.000Z</time>
      </trkpt>
      <trkpt lat="47.48276" lon="6.76856">
        <ele>310</ele>
        <time>2015-03-08T08:41:48.000Z</time>
      </trkpt>
      <trkpt lat="47.48272" lon="6.7685">
        <ele>311</ele>
        <time>2015-03-08T08:41:49.000Z</time>
      </trkpt>
      <trkpt lat="47.48268" lon="6.76844">
        <ele>311</ele>
        <time>2015-03-08T08:41:50.000Z</time>
      </trkpt>
      <trkpt lat="47.48264" lon="6.76838">
        <ele>311</ele>
        <time>2015-03-08T08:41:51.000Z</time>
      </trkpt>
      <trkpt lat="47.4826" lon="6.76831">
        <ele>312</ele>
        <time>2015-03-08T08:41:52.000Z</time>
      </trkpt>
      <trkpt lat="47.48256" lon="6.76825">
        <ele>312</ele>
        <time>2015-03-08T08:41:53.000Z</time>
      </trkpt>
      <trkpt lat="47.48252" lon="6.76819">
        <ele>312</ele>
        <time>2015-03-08T08:41:54.000Z</time>
      </trkpt>
      <trkpt lat="47.48247" lon="6.76815">
        <ele>312</ele>
        <time>2015-03-08T08:41:55.000Z</time>
      </trkpt>
      <trkpt lat="47.48243" lon="6.76811">
        <ele>312</ele>
        <time>2015-03-08T08:41:56.000Z</time>
      </trkpt>
      <trkpt lat="47.48238" lon="6.76806">
        <ele>312</ele>
        <time>2015-03-08T08:41:57.000Z</time>
      </trkpt>
      <trkpt lat="47.48233" lon="6.76803">
        <ele>312</ele>
        <time>2015-03-08T08:41:58.000Z</time>
      </trkpt>
      <trkpt lat="47.48228" lon="6.768">
        <ele>312</ele>
        <time>2015-03-08T08:41:59.000Z</time>
      </trkpt>
      <trkpt lat="47.48223" lon="6.76799">
        <ele>312</ele>
        <time>2015-03-08T08:42:00.000Z</time>
      </trkpt>
      <trkpt lat="47.48218" lon="6.76797">
        <ele>312</ele>
        <time>2015-03-08T08:42:01.000Z</time>
      </trkpt>
      <trkpt lat="47.48212" lon="6.76795">
        <ele>312</ele>
        <time>2015-03-08T08:42:02.000Z</time>
      </trkpt>
      <trkpt lat="47.48207" lon="6.76792">
        <ele>312</ele>
        <time>2015-03-08T08:42:03.000Z</time>
      </trkpt>
      <trkpt lat="47.48201" lon="6.76788">
        <ele>312</ele>
        <time>2015-03-08T08:42:04.000Z</time>
      </trkpt>
      <trkpt lat="47.48195" lon="6.76785">
        <ele>312</ele>
        <time>2015-03-08T08:42:05.000Z</time>
      </trkpt>
      <trkpt lat="47.48189" lon="6.76782">
        <ele>312</ele>
        <time>2015-03-08T08:42:06.000Z</time>
      </trkpt>
      <trkpt lat="47.48184" lon="6.76778">
        <ele>312</ele>
        <time>2015-03-08T08:42:07.000Z</time>
      </trkpt>
      <trkpt lat="47.4818" lon="6.76774">
        <ele>312</ele>
        <time>2015-03-08T08:42:08.000Z</time>
      </trkpt>
      <trkpt lat="47.48175" lon="6.76769">
        <ele>312</ele>
        <time>2015-03-08T08:42:09.000Z</time>
      </trkpt>
      <trkpt lat="47.48171" lon="6.76764">
        <ele>313</ele>
        <time>2015-03-08T08:42:10.000Z</time>
      </trkpt>
      <trkpt lat="47.48166" lon="6.76758">
        <ele>313</ele>
        <time>2015-03-08T08:42:11.000Z</time>
      </trkpt>
      <trkpt lat="47.48163" lon="6.76752">
        <ele>313</ele>
        <time>2015-03-08T08:42:12.000Z</time>
      </trkpt>
      <trkpt lat="47.4816" lon="6.76745">
        <ele>313</ele>
        <time>2015-03-08T08:42:13.000Z</time>
      </trkpt>
      <trkpt lat="47.48156" lon="6.76738">
        <ele>313</ele>
        <time>2015-03-08T08:42:14.000Z</time>
      </trkpt>
      <trkpt lat="47.48152" lon="6.76731">
        <ele>312</ele>
        <time>2015-03-08T08:42:15.000Z</time>
      </trkpt>
      <trkpt lat="47.48148" lon="6.76724">
        <ele>312</ele>
        <time>2015-03-08T08:42:16.000Z</time>
      </trkpt>
      <trkpt lat="47.48146" lon="6.76718">
        <ele>312</ele>
        <time>2015-03-08T08:42:17.000Z</time>
      </trkpt>
      <trkpt lat="47.48142" lon="6.76712">
        <ele>312</ele>
        <time>2015-03-08T08:42:18.000Z</time>
      </trkpt>
      <trkpt lat="47.48139" lon="6.76704">
        <ele>312</ele>
        <time>2015-03-08T08:42:19.000Z</time>
      </trkpt>
      <trkpt lat="47.48135" lon="6.76697">
        <ele>312</ele>
        <time>2015-03-08T08:42:20.000Z</time>
      </trkpt>
      <trkpt lat="47.48132" lon="6.76691">
        <ele>312</ele>
        <time>2015-03-08T08:42:21.000Z</time>
      </trkpt>
      <trkpt lat="47.48128" lon="6.76684">
        <ele>312</ele>
        <time>2015-03-08T08:42:22.000Z</time>
      </trkpt>
      <trkpt lat="47.48125" lon="6.76679">
        <ele>312</ele>
        <time>2015-03-08T08:42:23.000Z</time>
      </trkpt>
      <trkpt lat="47.48121" lon="6.76673">
        <ele>312</ele>
        <time>2015-03-08T08:42:24.000Z</time>
      </trkpt>
      <trkpt lat="47.48118" lon="6.76667">
        <ele>312</ele>
        <time>2015-03-08T08:42:25.000Z</time>
      </trkpt>
      <trkpt lat="47.48115" lon="6.76662">
        <ele>312</ele>
        <time>2015-03-08T08:42:26.000Z</time>
      </trkpt>
      <trkpt lat="47.48111" lon="6.76657">
        <ele>312</ele>
        <time>2015-03-08T08:42:27.000Z</time>
      </trkpt>
      <trkpt lat="47.48108" lon="6.76652">
        <ele>312</ele>
        <time>2015-03-08T08:42:28.000Z</time>
      </trkpt>
      <trkpt lat="47.48105" lon="6.76647">
        <ele>312</ele>
        <time>2015-03-08T08:42:29.000Z</time>
      </trkpt>
      <trkpt lat="47.48103" lon="6.76642">
        <ele>313</ele>
        <time>2015-03-08T08:42:30.000Z</time>
      </trkpt>
      <trkpt lat="47.48102" lon="6.76635">
        <ele>313</ele>
        <time>2015-03-08T08:42:31.000Z</time>
      </trkpt>
      <trkpt lat="47.48099" lon="6.76628">
        <ele>313</ele>
        <time>2015-03-08T08:42:32.000Z</time>
      </trkpt>
      <trkpt lat="47.48098" lon="6.7662">
        <ele>313</ele>
        <time>2015-03-08T08:42:33.000Z</time>
      </trkpt>
      <trkpt lat="47.48097" lon="6.76613">
        <ele>313</ele>
        <time>2015-03-08T08:42:34.000Z</time>
      </trkpt>
      <trkpt lat="47.48098" lon="6.76607">
        <ele>313</ele>
        <time>2015-03-08T08:42:35.000Z</time>
      </trkpt>
      <trkpt lat="47.48099" lon="6.766">
        <ele>313</ele>
        <time>2015-03-08T08:42:36.000Z</time>
      </trkpt>
      <trkpt lat="47.481" lon="6.76593">
        <ele>313</ele>
        <time>2015-03-08T08:42:37.000Z</time>
      </trkpt>
      <trkpt lat="47.48102" lon="6.76587">
        <ele>313</ele>
        <time>2015-03-08T08:42:38.000Z</time>
      </trkpt>
      <trkpt lat="47.48105" lon="6.76582">
        <ele>316</ele>
        <time>2015-03-08T08:42:39.000Z</time>
      </trkpt>
      <trkpt lat="47.48108" lon="6.76576">
        <ele>317</ele>
        <time>2015-03-08T08:42:40.000Z</time>
      </trkpt>
      <trkpt lat="47.48111" lon="6.76571">
        <ele>317</ele>
        <time>2015-03-08T08:42:41.000Z</time>
      </trkpt>
      <trkpt lat="47.48113" lon="6.76565">
        <ele>318</ele>
        <time>2015-03-08T08:42:42.000Z</time>
      </trkpt>
      <trkpt lat="47.48115" lon="6.7656">
        <ele>318</ele>
        <time>2015-03-08T08:42:43.000Z</time>
      </trkpt>
      <trkpt lat="47.48118" lon="6.76556">
        <ele>319</ele>
        <time>2015-03-08T08:42:44.000Z</time>
      </trkpt>
      <trkpt lat="47.48121" lon="6.76551">
        <ele>319</ele>
        <time>2015-03-08T08:42:45.000Z</time>
      </trkpt>
      <trkpt lat="47.48123" lon="6.76547">
        <ele>320</ele>
        <time>2015-03-08T08:42:46.000Z</time>
      </trkpt>
      <trkpt lat="47.48123" lon="6.76543">
        <ele>320</ele>
        <time>2015-03-08T08:42:47.000Z</time>
      </trkpt>
      <trkpt lat="47.48121" lon="6.76539">
        <ele>320</ele>
        <time>2015-03-08T08:42:48.000Z</time>
      </trkpt>
      <trkpt lat="47.48118" lon="6.76533">
        <ele>320</ele>
        <time>2015-03-08T08:42:49.000Z</time>
      </trkpt>
      <trkpt lat="47.48116" lon="6.76529">
        <ele>320</ele>
        <time>2015-03-08T08:42:50.000Z</time>
      </trkpt>
      <trkpt lat="47.48114" lon="6.76524">
        <ele>320</ele>
        <time>2015-03-08T08:42:51.000Z</time>
      </trkpt>
      <trkpt lat="47.48112" lon="6.7652">
        <ele>319</ele>
        <time>2015-03-08T08:42:52.000Z</time>
      </trkpt>
      <trkpt lat="47.48111" lon="6.76516">
        <ele>319</ele>
        <time>2015-03-08T08:42:53.000Z</time>
      </trkpt>
      <trkpt lat="47.48108" lon="6.76513">
        <ele>319</ele>
        <time>2015-03-08T08:42:54.000Z</time>
      </trkpt>
      <trkpt lat="47.48106" lon="6.76511">
        <ele>318</ele>
        <time>2015-03-08T08:42:55.000Z</time>
      </trkpt>
      <trkpt lat="47.48102" lon="6.76512">
        <ele>318</ele>
        <time>2015-03-08T08:42:56.000Z</time>
      </trkpt>
      <trkpt lat="47.48099" lon="6.76514">
        <ele>318</ele>
        <time>2015-03-08T08:42:57.000Z</time>
      </trkpt>
      <trkpt lat="47.48096" lon="6.76518">
        <ele>317</ele>
        <time>2015-03-08T08:42:58.000Z</time>
      </trkpt>
      <trkpt lat="47.48093" lon="6.76521">
        <ele>317</ele>
        <time>2015-03-08T08:42:59.000Z</time>
      </trkpt>
      <trkpt lat="47.48089" lon="6.76525">
        <ele>317</ele>
        <time>2015-03-08T08:43:00.000Z</time>
      </trkpt>
      <trkpt lat="47.48086" lon="6.76529">
        <ele>317</ele>
        <time>2015-03-08T08:43:01.000Z</time>
      </trkpt>
      <trkpt lat="47.48081" lon="6.76533">
        <ele>312</ele>
        <time>2015-03-08T08:43:02.000Z</time>
      </trkpt>
      <trkpt lat="47.48077" lon="6.76537">
        <ele>312</ele>
        <time>2015-03-08T08:43:03.000Z</time>
      </trkpt>
      <trkpt lat="47.48074" lon="6.76541">
        <ele>312</ele>
        <time>2015-03-08T08:43:04.000Z</time>
      </trkpt>
      <trkpt lat="47.48071" lon="6.76544">
        <ele>312</ele>
        <time>2015-03-08T08:43:05.000Z</time>
      </trkpt>
      <trkpt lat="47.48068" lon="6.76547">
        <ele>312</ele>
        <time>2015-03-08T08:43:06.000Z</time>
      </trkpt>
      <trkpt lat="47.48065" lon="6.7655">
        <ele>312</ele>
        <time>2015-03-08T08:43:07.000Z</time>
      </trkpt>
      <trkpt lat="47.48057" lon="6.76556">
        <ele>312</ele>
        <time>2015-03-08T08:43:08.000Z</time>
      </trkpt>
      <trkpt lat="47.48054" lon="6.7656">
        <ele>312</ele>
        <time>2015-03-08T08:43:09.000Z</time>
      </trkpt>
      <trkpt lat="47.48051" lon="6.76562">
        <ele>312</ele>
        <time>2015-03-08T08:43:10.000Z</time>
      </trkpt>
      <trkpt lat="47.48046" lon="6.76567">
        <ele>312</ele>
        <time>2015-03-08T08:43:11.000Z</time>
      </trkpt>
      <trkpt lat="47.48043" lon="6.76571">
        <ele>312</ele>
        <time>2015-03-08T08:43:11.999Z</time>
      </trkpt>
      <trkpt lat="47.48039" lon="6.76574">
        <ele>312</ele>
        <time>2015-03-08T08:43:13.000Z</time>
      </trkpt>
      <trkpt lat="47.48035" lon="6.76577">
        <ele>312</ele>
        <time>2015-03-08T08:43:14.000Z</time>
      </trkpt>
      <trkpt lat="47.48031" lon="6.7658">
        <ele>312</ele>
        <time>2015-03-08T08:43:15.000Z</time>
      </trkpt>
      <trkpt lat="47.48026" lon="6.76583">
        <ele>312</ele>
        <time>2015-03-08T08:43:16.000Z</time>
      </trkpt>
      <trkpt lat="47.48022" lon="6.76586">
        <ele>312</ele>
        <time>2015-03-08T08:43:17.000Z</time>
      </trkpt>
      <trkpt lat="47.48018" lon="6.76589">
        <ele>312</ele>
        <time>2015-03-08T08:43:18.000Z</time>
      </trkpt>
      <trkpt lat="47.48014" lon="6.76593">
        <ele>312</ele>
        <time>2015-03-08T08:43:19.000Z</time>
      </trkpt>
      <trkpt lat="47.4801" lon="6.76595">
        <ele>312</ele>
        <time>2015-03-08T08:43:20.000Z</time>
      </trkpt>
      <trkpt lat="47.48006" lon="6.76598">
        <ele>312</ele>
        <time>2015-03-08T08:43:21.000Z</time>
      </trkpt>
      <trkpt lat="47.48002" lon="6.766">
        <ele>312</ele>
        <time>2015-03-08T08:43:22.000Z</time>
      </trkpt>
      <trkpt lat="47.47997" lon="6.76603">
        <ele>312</ele>
        <time>2015-03-08T08:43:23.000Z</time>
      </trkpt>
      <trkpt lat="47.47992" lon="6.76605">
        <ele>312</ele>
        <time>2015-03-08T08:43:24.000Z</time>
      </trkpt>
      <trkpt lat="47.47988" lon="6.76608">
        <ele>312</ele>
        <time>2015-03-08T08:43:25.000Z</time>
      </trkpt>
      <trkpt lat="47.47983" lon="6.76611">
        <ele>311</ele>
        <time>2015-03-08T08:43:26.000Z</time>
      </trkpt>
      <trkpt lat="47.47978" lon="6.76614">
        <ele>311</ele>
        <time>2015-03-08T08:43:27.000Z</time>
      </trkpt>
      <trkpt lat="47.47974" lon="6.76617">
        <ele>311</ele>
        <time>2015-03-08T08:43:28.000Z</time>
      </trkpt>
      <trkpt lat="47.4797" lon="6.7662">
        <ele>311</ele>
        <time>2015-03-08T08:43:29.000Z</time>
      </trkpt>
      <trkpt lat="47.47966" lon="6.76622">
        <ele>311</ele>
        <time>2015-03-08T08:43:30.000Z</time>
      </trkpt>
      <trkpt lat="47.47963" lon="6.76623">
        <ele>311</ele>
        <time>2015-03-08T08:43:31.000Z</time>
      </trkpt>
      <trkpt lat="47.4796" lon="6.76624">
        <ele>311</ele>
        <time>2015-03-08T08:43:32.000Z</time>
      </trkpt>
      <trkpt lat="47.47956" lon="6.76624">
        <ele>311</ele>
        <time>2015-03-08T08:43:33.000Z</time>
      </trkpt>
      <trkpt lat="47.47954" lon="6.76621">
        <ele>311</ele>
        <time>2015-03-08T08:43:34.000Z</time>
      </trkpt>
      <trkpt lat="47.47952" lon="6.76613">
        <ele>311</ele>
        <time>2015-03-08T08:43:35.000Z</time>
      </trkpt>
      <trkpt lat="47.47951" lon="6.76606">
        <ele>311</ele>
        <time>2015-03-08T08:43:36.000Z</time>
      </trkpt>
      <trkpt lat="47.47949" lon="6.76598">
        <ele>311</ele>
        <time>2015-03-08T08:43:37.000Z</time>
      </trkpt>
      <trkpt lat="47.47947" lon="6.76588">
        <ele>311</ele>
        <time>2015-03-08T08:43:38.000Z</time>
      </trkpt>
      <trkpt lat="47.47945" lon="6.76579">
        <ele>311</ele>
        <time>2015-03-08T08:43:39.000Z</time>
      </trkpt>
      <trkpt lat="47.47944" lon="6.7657">
        <ele>311</ele>
        <time>2015-03-08T08:43:40.000Z</time>
      </trkpt>
      <trkpt lat="47.47942" lon="6.76562">
        <ele>311</ele>
        <time>2015-03-08T08:43:41.000Z</time>
      </trkpt>
      <trkpt lat="47.4794" lon="6.76553">
        <ele>311</ele>
        <time>2015-03-08T08:43:42.000Z</time>
      </trkpt>
      <trkpt lat="47.47937" lon="6.76545">
        <ele>311</ele>
        <time>2015-03-08T08:43:43.000Z</time>
      </trkpt>
      <trkpt lat="47.47936" lon="6.76538">
        <ele>311</ele>
        <time>2015-03-08T08:43:44.000Z</time>
      </trkpt>
      <trkpt lat="47.47934" lon="6.76531">
        <ele>311</ele>
        <time>2015-03-08T08:43:45.000Z</time>
      </trkpt>
      <trkpt lat="47.47931" lon="6.76522">
        <ele>311</ele>
        <time>2015-03-08T08:43:46.000Z</time>
      </trkpt>
      <trkpt lat="47.4793" lon="6.76514">
        <ele>311</ele>
        <time>2015-03-08T08:43:47.000Z</time>
      </trkpt>
      <trkpt lat="47.47929" lon="6.76507">
        <ele>310</ele>
        <time>2015-03-08T08:43:48.000Z</time>
      </trkpt>
      <trkpt lat="47.47928" lon="6.76499">
        <ele>310</ele>
        <time>2015-03-08T08:43:49.000Z</time>
      </trkpt>
      <trkpt lat="47.47926" lon="6.76491">
        <ele>310</ele>
        <time>2015-03-08T08:43:50.000Z</time>
      </trkpt>
      <trkpt lat="47.47924" lon="6.76484">
        <ele>311</ele>
        <time>2015-03-08T08:43:51.000Z</time>
      </trkpt>
      <trkpt lat="47.47922" lon="6.76476">
        <ele>311</ele>
        <time>2015-03-08T08:43:52.000Z</time>
      </trkpt>
      <trkpt lat="47.4792" lon="6.76469">
        <ele>311</ele>
        <time>2015-03-08T08:43:53.000Z</time>
      </trkpt>
      <trkpt lat="47.47919" lon="6.76461">
        <ele>311</ele>
        <time>2015-03-08T08:43:54.000Z</time>
      </trkpt>
      <trkpt lat="47.47917" lon="6.76453">
        <ele>311</ele>
        <time>2015-03-08T08:43:55.000Z</time>
      </trkpt>
      <trkpt lat="47.47916" lon="6.76446">
        <ele>311</ele>
        <time>2015-03-08T08:43:56.000Z</time>
      </trkpt>
      <trkpt lat="47.47914" lon="6.76439">
        <ele>311</ele>
        <time>2015-03-08T08:43:57.000Z</time>
      </trkpt>
      <trkpt lat="47.47912" lon="6.76432">
        <ele>311</ele>
        <time>2015-03-08T08:43:58.000Z</time>
      </trkpt>
      <trkpt lat="47.4791" lon="6.76425">
        <ele>311</ele>
        <time>2015-03-08T08:43:59.000Z</time>
      </trkpt>
      <trkpt lat="47.47907" lon="6.76418">
        <ele>311</ele>
        <time>2015-03-08T08:44:00.000Z</time>
      </trkpt>
      <trkpt lat="47.47905" lon="6.76411">
        <ele>311</ele>
        <time>2015-03-08T08:44:01.000Z</time>
      </trkpt>
      <trkpt lat="47.47902" lon="6.76404">
        <ele>311</ele>
        <time>2015-03-08T08:44:02.000Z</time>
      </trkpt>
      <trkpt lat="47.47899" lon="6.76398">
        <ele>311</ele>
        <time>2015-03-08T08:44:03.000Z</time>
      </trkpt>
      <trkpt lat="47.47896" lon="6.76392">
        <ele>311</ele>
        <time>2015-03-08T08:44:04.000Z</time>
      </trkpt>
      <trkpt lat="47.47893" lon="6.76385">
        <ele>311</ele>
        <time>2015-03-08T08:44:05.000Z</time>
      </trkpt>
      <trkpt lat="47.4789" lon="6.76378">
        <ele>311</ele>
        <time>2015-03-08T08:44:06.000Z</time>
      </trkpt>
      <trkpt lat="47.47887" lon="6.76372">
        <ele>311</ele>
        <time>2015-03-08T08:44:07.000Z</time>
      </trkpt>
      <trkpt lat="47.47884" lon="6.76365">
        <ele>311</ele>
        <time>2015-03-08T08:44:08.000Z</time>
      </trkpt>
      <trkpt lat="47.47881" lon="6.76359">
        <ele>311</ele>
        <time>2015-03-08T08:44:09.000Z</time>
      </trkpt>
      <trkpt lat="47.47877" lon="6.76352">
        <ele>311</ele>
        <time>2015-03-08T08:44:10.000Z</time>
      </trkpt>
      <trkpt lat="47.47875" lon="6.76346">
        <ele>311</ele>
        <time>2015-03-08T08:44:11.000Z</time>
      </trkpt>
      <trkpt lat="47.47871" lon="6.7634">
        <ele>311</ele>
        <time>2015-03-08T08:44:12.000Z</time>
      </trkpt>
      <trkpt lat="47.47868" lon="6.76334">
        <ele>311</ele>
        <time>2015-03-08T08:44:13.000Z</time>
      </trkpt>
      <trkpt lat="47.47865" lon="6.76328">
        <ele>310</ele>
        <time>2015-03-08T08:44:14.000Z</time>
      </trkpt>
      <trkpt lat="47.47862" lon="6.76322">
        <ele>310</ele>
        <time>2015-03-08T08:44:15.000Z</time>
      </trkpt>
      <trkpt lat="47.47858" lon="6.76316">
        <ele>310</ele>
        <time>2015-03-08T08:44:16.000Z</time>
      </trkpt>
      <trkpt lat="47.47854" lon="6.76311">
        <ele>310</ele>
        <time>2015-03-08T08:44:17.000Z</time>
      </trkpt>
      <trkpt lat="47.47851" lon="6.76305">
        <ele>310</ele>
        <time>2015-03-08T08:44:18.000Z</time>
      </trkpt>
      <trkpt lat="47.47848" lon="6.763">
        <ele>310</ele>
        <time>2015-03-08T08:44:19.000Z</time>
      </trkpt>
      <trkpt lat="47.47845" lon="6.76296">
        <ele>310</ele>
        <time>2015-03-08T08:44:20.000Z</time>
      </trkpt>
      <trkpt lat="47.47842" lon="6.76291">
        <ele>311</ele>
        <time>2015-03-08T08:44:21.000Z</time>
      </trkpt>
      <trkpt lat="47.47837" lon="6.76286">
        <ele>311</ele>
        <time>2015-03-08T08:44:22.000Z</time>
      </trkpt>
      <trkpt lat="47.47832" lon="6.76281">
        <ele>310</ele>
        <time>2015-03-08T08:44:23.000Z</time>
      </trkpt>
      <trkpt lat="47.47827" lon="6.76276">
        <ele>310</ele>
        <time>2015-03-08T08:44:24.000Z</time>
      </trkpt>
      <trkpt lat="47.47823" lon="6.76272">
        <ele>310</ele>
        <time>2015-03-08T08:44:24.999Z</time>
      </trkpt>
      <trkpt lat="47.47817" lon="6.76272">
        <ele>310</ele>
        <time>2015-03-08T08:44:26.000Z</time>
      </trkpt>
      <trkpt lat="47.47813" lon="6.76269">
        <ele>310</ele>
        <time>2015-03-08T08:44:27.000Z</time>
      </trkpt>
      <trkpt lat="47.47807" lon="6.76266">
        <ele>310</ele>
        <time>2015-03-08T08:44:28.000Z</time>
      </trkpt>
      <trkpt lat="47.47801" lon="6.76264">
        <ele>310</ele>
        <time>2015-03-08T08:44:29.000Z</time>
      </trkpt>
      <trkpt lat="47.47797" lon="6.76262">
        <ele>310</ele>
        <time>2015-03-08T08:44:30.000Z</time>
      </trkpt>
      <trkpt lat="47.47792" lon="6.76259">
        <ele>310</ele>
        <time>2015-03-08T08:44:31.000Z</time>
      </trkpt>
      <trkpt lat="47.47788" lon="6.76255">
        <ele>310</ele>
        <time>2015-03-08T08:44:32.000Z</time>
      </trkpt>
      <trkpt lat="47.47783" lon="6.76251">
        <ele>310</ele>
        <time>2015-03-08T08:44:33.000Z</time>
      </trkpt>
      <trkpt lat="47.47778" lon="6.76246">
        <ele>309</ele>
        <time>2015-03-08T08:44:34.000Z</time>
      </trkpt>
      <trkpt lat="47.47775" lon="6.76241">
        <ele>309</ele>
        <time>2015-03-08T08:44:35.000Z</time>
      </trkpt>
      <trkpt lat="47.47771" lon="6.76236">
        <ele>309</ele>
        <time>2015-03-08T08:44:36.000Z</time>
      </trkpt>
      <trkpt lat="47.47768" lon="6.76231">
        <ele>309</ele>
        <time>2015-03-08T08:44:37.000Z</time>
      </trkpt>
      <trkpt lat="47.47764" lon="6.76225">
        <ele>309</ele>
        <time>2015-03-08T08:44:38.000Z</time>
      </trkpt>
      <trkpt lat="47.47761" lon="6.76219">
        <ele>309</ele>
        <time>2015-03-08T08:44:39.000Z</time>
      </trkpt>
      <trkpt lat="47.47758" lon="6.76213">
        <ele>309</ele>
        <time>2015-03-08T08:44:40.000Z</time>
      </trkpt>
      <trkpt lat="47.47755" lon="6.76208">
        <ele>309</ele>
        <time>2015-03-08T08:44:41.000Z</time>
      </trkpt>
      <trkpt lat="47.47752" lon="6.76202">
        <ele>309</ele>
        <time>2015-03-08T08:44:42.000Z</time>
      </trkpt>
      <trkpt lat="47.47748" lon="6.76196">
        <ele>309</ele>
        <time>2015-03-08T08:44:43.000Z</time>
      </trkpt>
      <trkpt lat="47.47745" lon="6.7619">
        <ele>309</ele>
        <time>2015-03-08T08:44:44.000Z</time>
      </trkpt>
      <trkpt lat="47.47741" lon="6.76184">
        <ele>308</ele>
        <time>2015-03-08T08:44:45.000Z</time>
      </trkpt>
      <trkpt lat="47.47738" lon="6.76179">
        <ele>308</ele>
        <time>2015-03-08T08:44:46.000Z</time>
      </trkpt>
      <trkpt lat="47.47734" lon="6.76174">
        <ele>308</ele>
        <time>2015-03-08T08:44:47.000Z</time>
      </trkpt>
      <trkpt lat="47.47731" lon="6.76168">
        <ele>308</ele>
        <time>2015-03-08T08:44:48.000Z</time>
      </trkpt>
      <trkpt lat="47.47728" lon="6.76164">
        <ele>309</ele>
        <time>2015-03-08T08:44:49.000Z</time>
      </trkpt>
      <trkpt lat="47.47724" lon="6.76159">
        <ele>309</ele>
        <time>2015-03-08T08:44:50.000Z</time>
      </trkpt>
      <trkpt lat="47.47721" lon="6.76152">
        <ele>309</ele>
        <time>2015-03-08T08:44:51.000Z</time>
      </trkpt>
      <trkpt lat="47.47717" lon="6.76147">
        <ele>309</ele>
        <time>2015-03-08T08:44:52.000Z</time>
      </trkpt>
      <trkpt lat="47.47714" lon="6.76141">
        <ele>309</ele>
        <time>2015-03-08T08:44:53.000Z</time>
      </trkpt>
      <trkpt lat="47.4771" lon="6.76137">
        <ele>309</ele>
        <time>2015-03-08T08:44:54.000Z</time>
      </trkpt>
      <trkpt lat="47.47707" lon="6.76131">
        <ele>309</ele>
        <time>2015-03-08T08:44:55.000Z</time>
      </trkpt>
      <trkpt lat="47.47704" lon="6.76126">
        <ele>310</ele>
        <time>2015-03-08T08:44:56.000Z</time>
      </trkpt>
      <trkpt lat="47.477" lon="6.76121">
        <ele>310</ele>
        <time>2015-03-08T08:44:57.000Z</time>
      </trkpt>
      <trkpt lat="47.47696" lon="6.76117">
        <ele>310</ele>
        <time>2015-03-08T08:44:58.000Z</time>
      </trkpt>
      <trkpt lat="47.47692" lon="6.76111">
        <ele>310</ele>
        <time>2015-03-08T08:44:59.000Z</time>
      </trkpt>
      <trkpt lat="47.47688" lon="6.76107">
        <ele>310</ele>
        <time>2015-03-08T08:45:00.000Z</time>
      </trkpt>
      <trkpt lat="47.47685" lon="6.76102">
        <ele>310</ele>
        <time>2015-03-08T08:45:01.000Z</time>
      </trkpt>
      <trkpt lat="47.47681" lon="6.76097">
        <ele>310</ele>
        <time>2015-03-08T08:45:02.000Z</time>
      </trkpt>
      <trkpt lat="47.47678" lon="6.76092">
        <ele>310</ele>
        <time>2015-03-08T08:45:03.000Z</time>
      </trkpt>
      <trkpt lat="47.47674" lon="6.76086">
        <ele>311</ele>
        <time>2015-03-08T08:45:04.000Z</time>
      </trkpt>
      <trkpt lat="47.47671" lon="6.7608">
        <ele>311</ele>
        <time>2015-03-08T08:45:05.000Z</time>
      </trkpt>
      <trkpt lat="47.47669" lon="6.76074">
        <ele>311</ele>
        <time>2015-03-08T08:45:06.000Z</time>
      </trkpt>
      <trkpt lat="47.47666" lon="6.76067">
        <ele>311</ele>
        <time>2015-03-08T08:45:07.000Z</time>
      </trkpt>
      <trkpt lat="47.47664" lon="6.7606">
        <ele>311</ele>
        <time>2015-03-08T08:45:08.000Z</time>
      </trkpt>
      <trkpt lat="47.47663" lon="6.76053">
        <ele>311</ele>
        <time>2015-03-08T08:45:09.000Z</time>
      </trkpt>
      <trkpt lat="47.47663" lon="6.76045">
        <ele>311</ele>
        <time>2015-03-08T08:45:10.000Z</time>
      </trkpt>
      <trkpt lat="47.47664" lon="6.76038">
        <ele>311</ele>
        <time>2015-03-08T08:45:11.000Z</time>
      </trkpt>
      <trkpt lat="47.47664" lon="6.7603">
        <ele>311</ele>
        <time>2015-03-08T08:45:12.000Z</time>
      </trkpt>
      <trkpt lat="47.47664" lon="6.76022">
        <ele>311</ele>
        <time>2015-03-08T08:45:13.000Z</time>
      </trkpt>
      <trkpt lat="47.47665" lon="6.76016">
        <ele>311</ele>
        <time>2015-03-08T08:45:14.000Z</time>
      </trkpt>
      <trkpt lat="47.47667" lon="6.76008">
        <ele>312</ele>
        <time>2015-03-08T08:45:15.000Z</time>
      </trkpt>
      <trkpt lat="47.47669" lon="6.76001">
        <ele>312</ele>
        <time>2015-03-08T08:45:16.000Z</time>
      </trkpt>
      <trkpt lat="47.47671" lon="6.75993">
        <ele>312</ele>
        <time>2015-03-08T08:45:17.000Z</time>
      </trkpt>
      <trkpt lat="47.47673" lon="6.75987">
        <ele>312</ele>
        <time>2015-03-08T08:45:18.000Z</time>
      </trkpt>
      <trkpt lat="47.47676" lon="6.7598">
        <ele>312</ele>
        <time>2015-03-08T08:45:19.000Z</time>
      </trkpt>
      <trkpt lat="47.47679" lon="6.75974">
        <ele>311</ele>
        <time>2015-03-08T08:45:20.000Z</time>
      </trkpt>
      <trkpt lat="47.47682" lon="6.75969">
        <ele>311</ele>
        <time>2015-03-08T08:45:21.000Z</time>
      </trkpt>
      <trkpt lat="47.47685" lon="6.75964">
        <ele>311</ele>
        <time>2015-03-08T08:45:22.000Z</time>
      </trkpt>
      <trkpt lat="47.47688" lon="6.75958">
        <ele>311</ele>
        <time>2015-03-08T08:45:23.000Z</time>
      </trkpt>
      <trkpt lat="47.4769" lon="6.75952">
        <ele>311</ele>
        <time>2015-03-08T08:45:24.000Z</time>
      </trkpt>
      <trkpt lat="47.47692" lon="6.75945">
        <ele>311</ele>
        <time>2015-03-08T08:45:25.000Z</time>
      </trkpt>
      <trkpt lat="47.47695" lon="6.75937">
        <ele>311</ele>
        <time>2015-03-08T08:45:26.000Z</time>
      </trkpt>
      <trkpt lat="47.47695" lon="6.75928">
        <ele>311</ele>
        <time>2015-03-08T08:45:27.000Z</time>
      </trkpt>
      <trkpt lat="47.47696" lon="6.75919">
        <ele>311</ele>
        <time>2015-03-08T08:45:28.000Z</time>
      </trkpt>
      <trkpt lat="47.47697" lon="6.7591">
        <ele>311</ele>
        <time>2015-03-08T08:45:29.000Z</time>
      </trkpt>
      <trkpt lat="47.47697" lon="6.75901">
        <ele>311</ele>
        <time>2015-03-08T08:45:30.000Z</time>
      </trkpt>
      <trkpt lat="47.47698" lon="6.75892">
        <ele>311</ele>
        <time>2015-03-08T08:45:31.000Z</time>
      </trkpt>
      <trkpt lat="47.47698" lon="6.75884">
        <ele>311</ele>
        <time>2015-03-08T08:45:32.000Z</time>
      </trkpt>
      <trkpt lat="47.47698" lon="6.75876">
        <ele>311</ele>
        <time>2015-03-08T08:45:33.000Z</time>
      </trkpt>
      <trkpt lat="47.47698" lon="6.75867">
        <ele>311</ele>
        <time>2015-03-08T08:45:34.000Z</time>
      </trkpt>
      <trkpt lat="47.47698" lon="6.75858">
        <ele>311</ele>
        <time>2015-03-08T08:45:35.000Z</time>
      </trkpt>
      <trkpt lat="47.47698" lon="6.7585">
        <ele>311</ele>
        <time>2015-03-08T08:45:36.000Z</time>
      </trkpt>
      <trkpt lat="47.47698" lon="6.75841">
        <ele>311</ele>
        <time>2015-03-08T08:45:37.000Z</time>
      </trkpt>
      <trkpt lat="47.47698" lon="6.75833">
        <ele>310</ele>
        <time>2015-03-08T08:45:38.000Z</time>
      </trkpt>
      <trkpt lat="47.47699" lon="6.75824">
        <ele>310</ele>
        <time>2015-03-08T08:45:39.000Z</time>
      </trkpt>
      <trkpt lat="47.477" lon="6.75816">
        <ele>310</ele>
        <time>2015-03-08T08:45:40.000Z</time>
      </trkpt>
      <trkpt lat="47.47702" lon="6.75809">
        <ele>310</ele>
        <time>2015-03-08T08:45:41.000Z</time>
      </trkpt>
      <trkpt lat="47.47702" lon="6.758">
        <ele>310</ele>
        <time>2015-03-08T08:45:42.000Z</time>
      </trkpt>
      <trkpt lat="47.47703" lon="6.7579">
        <ele>310</ele>
        <time>2015-03-08T08:45:43.000Z</time>
      </trkpt>
      <trkpt lat="47.47703" lon="6.7578">
        <ele>310</ele>
        <time>2015-03-08T08:45:44.000Z</time>
      </trkpt>
      <trkpt lat="47.47703" lon="6.75771">
        <ele>310</ele>
        <time>2015-03-08T08:45:45.000Z</time>
      </trkpt>
      <trkpt lat="47.47703" lon="6.75762">
        <ele>310</ele>
        <time>2015-03-08T08:45:46.000Z</time>
      </trkpt>
      <trkpt lat="47.47703" lon="6.75754">
        <ele>310</ele>
        <time>2015-03-08T08:45:47.000Z</time>
      </trkpt>
      <trkpt lat="47.47702" lon="6.75746">
        <ele>310</ele>
        <time>2015-03-08T08:45:48.000Z</time>
      </trkpt>
      <trkpt lat="47.47703" lon="6.75737">
        <ele>310</ele>
        <time>2015-03-08T08:45:49.000Z</time>
      </trkpt>
      <trkpt lat="47.47703" lon="6.75729">
        <ele>310</ele>
        <time>2015-03-08T08:45:50.000Z</time>
      </trkpt>
      <trkpt lat="47.47704" lon="6.75721">
        <ele>310</ele>
        <time>2015-03-08T08:45:51.000Z</time>
      </trkpt>
      <trkpt lat="47.47703" lon="6.75712">
        <ele>310</ele>
        <time>2015-03-08T08:45:52.000Z</time>
      </trkpt>
      <trkpt lat="47.47704" lon="6.75705">
        <ele>310</ele>
        <time>2015-03-08T08:45:53.000Z</time>
      </trkpt>
      <trkpt lat="47.47705" lon="6.75697">
        <ele>310</ele>
        <time>2015-03-08T08:45:54.000Z</time>
      </trkpt>
      <trkpt lat="47.47705" lon="6.75688">
        <ele>310</ele>
        <time>2015-03-08T08:45:55.000Z</time>
      </trkpt>
      <trkpt lat="47.47705" lon="6.7568">
        <ele>310</ele>
        <time>2015-03-08T08:45:56.000Z</time>
      </trkpt>
      <trkpt lat="47.47705" lon="6.75671">
        <ele>310</ele>
        <time>2015-03-08T08:45:57.000Z</time>
      </trkpt>
      <trkpt lat="47.47706" lon="6.75663">
        <ele>309</ele>
        <time>2015-03-08T08:45:58.000Z</time>
      </trkpt>
      <trkpt lat="47.47707" lon="6.75655">
        <ele>309</ele>
        <time>2015-03-08T08:45:59.000Z</time>
      </trkpt>
      <trkpt lat="47.47708" lon="6.75647">
        <ele>309</ele>
        <time>2015-03-08T08:46:00.000Z</time>
      </trkpt>
      <trkpt lat="47.47708" lon="6.75637">
        <ele>309</ele>
        <time>2015-03-08T08:46:01.000Z</time>
      </trkpt>
      <trkpt lat="47.47709" lon="6.75627">
        <ele>309</ele>
        <time>2015-03-08T08:46:02.000Z</time>
      </trkpt>
      <trkpt lat="47.47708" lon="6.75616">
        <ele>309</ele>
        <time>2015-03-08T08:46:03.000Z</time>
      </trkpt>
      <trkpt lat="47.47708" lon="6.75608">
        <ele>309</ele>
        <time>2015-03-08T08:46:04.000Z</time>
      </trkpt>
      <trkpt lat="47.47707" lon="6.75598">
        <ele>309</ele>
        <time>2015-03-08T08:46:05.000Z</time>
      </trkpt>
      <trkpt lat="47.47708" lon="6.75588">
        <ele>309</ele>
        <time>2015-03-08T08:46:06.000Z</time>
      </trkpt>
      <trkpt lat="47.47708" lon="6.75579">
        <ele>309</ele>
        <time>2015-03-08T08:46:07.000Z</time>
      </trkpt>
      <trkpt lat="47.47708" lon="6.75571">
        <ele>309</ele>
        <time>2015-03-08T08:46:08.000Z</time>
      </trkpt>
      <trkpt lat="47.47709" lon="6.75561">
        <ele>308</ele>
        <time>2015-03-08T08:46:09.000Z</time>
      </trkpt>
      <trkpt lat="47.47709" lon="6.75553">
        <ele>308</ele>
        <time>2015-03-08T08:46:10.000Z</time>
      </trkpt>
      <trkpt lat="47.47708" lon="6.75544">
        <ele>309</ele>
        <time>2015-03-08T08:46:11.000Z</time>
      </trkpt>
      <trkpt lat="47.47707" lon="6.75535">
        <ele>309</ele>
        <time>2015-03-08T08:46:12.000Z</time>
      </trkpt>
      <trkpt lat="47.47707" lon="6.75526">
        <ele>309</ele>
        <time>2015-03-08T08:46:13.000Z</time>
      </trkpt>
      <trkpt lat="47.47708" lon="6.75517">
        <ele>309</ele>
        <time>2015-03-08T08:46:14.000Z</time>
      </trkpt>
      <trkpt lat="47.47708" lon="6.7551">
        <ele>309</ele>
        <time>2015-03-08T08:46:15.000Z</time>
      </trkpt>
      <trkpt lat="47.47709" lon="6.75502">
        <ele>308</ele>
        <time>2015-03-08T08:46:16.000Z</time>
      </trkpt>
      <trkpt lat="47.47709" lon="6.75492">
        <ele>308</ele>
        <time>2015-03-08T08:46:17.000Z</time>
      </trkpt>
      <trkpt lat="47.4771" lon="6.75483">
        <ele>308</ele>
        <time>2015-03-08T08:46:18.000Z</time>
      </trkpt>
      <trkpt lat="47.4771" lon="6.75474">
        <ele>308</ele>
        <time>2015-03-08T08:46:19.000Z</time>
      </trkpt>
      <trkpt lat="47.47711" lon="6.75466">
        <ele>308</ele>
        <time>2015-03-08T08:46:20.000Z</time>
      </trkpt>
      <trkpt lat="47.4771" lon="6.75458">
        <ele>308</ele>
        <time>2015-03-08T08:46:21.000Z</time>
      </trkpt>
      <trkpt lat="47.47711" lon="6.75449">
        <ele>308</ele>
        <time>2015-03-08T08:46:22.000Z</time>
      </trkpt>
      <trkpt lat="47.47711" lon="6.7544">
        <ele>308</ele>
        <time>2015-03-08T08:46:23.000Z</time>
      </trkpt>
      <trkpt lat="47.47711" lon="6.75433">
        <ele>308</ele>
        <time>2015-03-08T08:46:24.000Z</time>
      </trkpt>
      <trkpt lat="47.47712" lon="6.75424">
        <ele>308</ele>
        <time>2015-03-08T08:46:25.000Z</time>
      </trkpt>
      <trkpt lat="47.47712" lon="6.75415">
        <ele>309</ele>
        <time>2015-03-08T08:46:26.000Z</time>
      </trkpt>
      <trkpt lat="47.47712" lon="6.75406">
        <ele>309</ele>
        <time>2015-03-08T08:46:27.000Z</time>
      </trkpt>
      <trkpt lat="47.47712" lon="6.75398">
        <ele>309</ele>
        <time>2015-03-08T08:46:28.000Z</time>
      </trkpt>
      <trkpt lat="47.47712" lon="6.75389">
        <ele>309</ele>
        <time>2015-03-08T08:46:28.999Z</time>
      </trkpt>
      <trkpt lat="47.47713" lon="6.75382">
        <ele>309</ele>
        <time>2015-03-08T08:46:30.000Z</time>
      </trkpt>
      <trkpt lat="47.47712" lon="6.75372">
        <ele>309</ele>
        <time>2015-03-08T08:46:31.000Z</time>
      </trkpt>
      <trkpt lat="47.47712" lon="6.75364">
        <ele>309</ele>
        <time>2015-03-08T08:46:32.000Z</time>
      </trkpt>
      <trkpt lat="47.47713" lon="6.75355">
        <ele>309</ele>
        <time>2015-03-08T08:46:33.000Z</time>
      </trkpt>
      <trkpt lat="47.47713" lon="6.75348">
        <ele>309</ele>
        <time>2015-03-08T08:46:34.000Z</time>
      </trkpt>
      <trkpt lat="47.47714" lon="6.7534">
        <ele>309</ele>
        <time>2015-03-08T08:46:35.000Z</time>
      </trkpt>
      <trkpt lat="47.47714" lon="6.75332">
        <ele>310</ele>
        <time>2015-03-08T08:46:36.000Z</time>
      </trkpt>
      <trkpt lat="47.47715" lon="6.75324">
        <ele>310</ele>
        <time>2015-03-08T08:46:37.000Z</time>
      </trkpt>
      <trkpt lat="47.47716" lon="6.75317">
        <ele>310</ele>
        <time>2015-03-08T08:46:38.000Z</time>
      </trkpt>
      <trkpt lat="47.47716" lon="6.75309">
        <ele>310</ele>
        <time>2015-03-08T08:46:39.000Z</time>
      </trkpt>
      <trkpt lat="47.47716" lon="6.75302">
        <ele>310</ele>
        <time>2015-03-08T08:46:40.000Z</time>
      </trkpt>
      <trkpt lat="47.47716" lon="6.75294">
        <ele>310</ele>
        <time>2015-03-08T08:46:41.000Z</time>
      </trkpt>
      <trkpt lat="47.47716" lon="6.75287">
        <ele>310</ele>
        <time>2015-03-08T08:46:42.000Z</time>
      </trkpt>
      <trkpt lat="47.47716" lon="6.75279">
        <ele>310</ele>
        <time>2015-03-08T08:46:43.000Z</time>
      </trkpt>
      <trkpt lat="47.47717" lon="6.75271">
        <ele>310</ele>
        <time>2015-03-08T08:46:44.000Z</time>
      </trkpt>
      <trkpt lat="47.47717" lon="6.75263">
        <ele>310</ele>
        <time>2015-03-08T08:46:45.000Z</time>
      </trkpt>
      <trkpt lat="47.47718" lon="6.75255">
        <ele>310</ele>
        <time>2015-03-08T08:46:46.000Z</time>
      </trkpt>
      <trkpt lat="47.47719" lon="6.75249">
        <ele>311</ele>
        <time>2015-03-08T08:46:47.000Z</time>
      </trkpt>
      <trkpt lat="47.47719" lon="6.75242">
        <ele>311</ele>
        <time>2015-03-08T08:46:48.000Z</time>
      </trkpt>
      <trkpt lat="47.47719" lon="6.75234">
        <ele>311</ele>
        <time>2015-03-08T08:46:49.000Z</time>
      </trkpt>
      <trkpt lat="47.47717" lon="6.75224">
        <ele>311</ele>
        <time>2015-03-08T08:46:50.000Z</time>
      </trkpt>
      <trkpt lat="47.47717" lon="6.75216">
        <ele>311</ele>
        <time>2015-03-08T08:46:51.000Z</time>
      </trkpt>
      <trkpt lat="47.47717" lon="6.75207">
        <ele>311</ele>
        <time>2015-03-08T08:46:52.000Z</time>
      </trkpt>
      <trkpt lat="47.47717" lon="6.752">
        <ele>311</ele>
        <time>2015-03-08T08:46:53.000Z</time>
      </trkpt>
      <trkpt lat="47.47717" lon="6.75192">
        <ele>311</ele>
        <time>2015-03-08T08:46:54.000Z</time>
      </trkpt>
      <trkpt lat="47.47717" lon="6.75183">
        <ele>310</ele>
        <time>2015-03-08T08:46:55.000Z</time>
      </trkpt>
      <trkpt lat="47.47717" lon="6.75174">
        <ele>310</ele>
        <time>2015-03-08T08:46:56.000Z</time>
      </trkpt>
      <trkpt lat="47.47717" lon="6.75166">
        <ele>310</ele>
        <time>2015-03-08T08:46:57.000Z</time>
      </trkpt>
      <trkpt lat="47.47717" lon="6.75157">
        <ele>310</ele>
        <time>2015-03-08T08:46:58.000Z</time>
      </trkpt>
      <trkpt lat="47.47718" lon="6.75148">
        <ele>310</ele>
        <time>2015-03-08T08:46:59.000Z</time>
      </trkpt>
      <trkpt lat="47.47719" lon="6.7514">
        <ele>310</ele>
        <time>2015-03-08T08:47:00.000Z</time>
      </trkpt>
      <trkpt lat="47.47719" lon="6.75132">
        <ele>310</ele>
        <time>2015-03-08T08:47:01.000Z</time>
      </trkpt>
      <trkpt lat="47.47718" lon="6.75124">
        <ele>310</ele>
        <time>2015-03-08T08:47:02.000Z</time>
      </trkpt>
      <trkpt lat="47.4772" lon="6.75115">
        <ele>310</ele>
        <time>2015-03-08T08:47:03.000Z</time>
      </trkpt>
      <trkpt lat="47.47719" lon="6.75107">
        <ele>310</ele>
        <time>2015-03-08T08:47:04.000Z</time>
      </trkpt>
      <trkpt lat="47.4772" lon="6.75099">
        <ele>310</ele>
        <time>2015-03-08T08:47:05.000Z</time>
      </trkpt>
      <trkpt lat="47.47719" lon="6.7509">
        <ele>310</ele>
        <time>2015-03-08T08:47:06.000Z</time>
      </trkpt>
      <trkpt lat="47.47718" lon="6.75081">
        <ele>310</ele>
        <time>2015-03-08T08:47:07.000Z</time>
      </trkpt>
      <trkpt lat="47.47719" lon="6.75071">
        <ele>310</ele>
        <time>2015-03-08T08:47:08.000Z</time>
      </trkpt>
      <trkpt lat="47.47719" lon="6.75062">
        <ele>310</ele>
        <time>2015-03-08T08:47:09.000Z</time>
      </trkpt>
      <trkpt lat="47.47719" lon="6.75054">
        <ele>310</ele>
        <time>2015-03-08T08:47:10.000Z</time>
      </trkpt>
      <trkpt lat="47.47718" lon="6.75043">
        <ele>310</ele>
        <time>2015-03-08T08:47:11.000Z</time>
      </trkpt>
      <trkpt lat="47.47719" lon="6.75036">
        <ele>310</ele>
        <time>2015-03-08T08:47:12.000Z</time>
      </trkpt>
      <trkpt lat="47.4772" lon="6.75028">
        <ele>310</ele>
        <time>2015-03-08T08:47:13.000Z</time>
      </trkpt>
      <trkpt lat="47.4772" lon="6.75019">
        <ele>310</ele>
        <time>2015-03-08T08:47:14.000Z</time>
      </trkpt>
      <trkpt lat="47.4772" lon="6.75011">
        <ele>310</ele>
        <time>2015-03-08T08:47:15.000Z</time>
      </trkpt>
      <trkpt lat="47.47721" lon="6.75002">
        <ele>310</ele>
        <time>2015-03-08T08:47:16.000Z</time>
      </trkpt>
      <trkpt lat="47.47721" lon="6.74995">
        <ele>310</ele>
        <time>2015-03-08T08:47:17.000Z</time>
      </trkpt>
      <trkpt lat="47.47722" lon="6.74988">
        <ele>310</ele>
        <time>2015-03-08T08:47:18.000Z</time>
      </trkpt>
      <trkpt lat="47.47723" lon="6.74981">
        <ele>310</ele>
        <time>2015-03-08T08:47:19.000Z</time>
      </trkpt>
      <trkpt lat="47.47723" lon="6.74973">
        <ele>310</ele>
        <time>2015-03-08T08:47:20.000Z</time>
      </trkpt>
      <trkpt lat="47.47723" lon="6.74965">
        <ele>310</ele>
        <time>2015-03-08T08:47:21.000Z</time>
      </trkpt>
      <trkpt lat="47.47723" lon="6.74957">
        <ele>310</ele>
        <time>2015-03-08T08:47:22.000Z</time>
      </trkpt>
      <trkpt lat="47.47723" lon="6.74948">
        <ele>310</ele>
        <time>2015-03-08T08:47:23.000Z</time>
      </trkpt>
      <trkpt lat="47.47723" lon="6.7494">
        <ele>310</ele>
        <time>2015-03-08T08:47:24.000Z</time>
      </trkpt>
      <trkpt lat="47.47723" lon="6.74934">
        <ele>310</ele>
        <time>2015-03-08T08:47:25.000Z</time>
      </trkpt>
      <trkpt lat="47.47723" lon="6.74926">
        <ele>310</ele>
        <time>2015-03-08T08:47:26.000Z</time>
      </trkpt>
      <trkpt lat="47.47724" lon="6.74918">
        <ele>310</ele>
        <time>2015-03-08T08:47:27.000Z</time>
      </trkpt>
      <trkpt lat="47.47725" lon="6.7491">
        <ele>309</ele>
        <time>2015-03-08T08:47:28.000Z</time>
      </trkpt>
      <trkpt lat="47.47724" lon="6.74902">
        <ele>309</ele>
        <time>2015-03-08T08:47:29.000Z</time>
      </trkpt>
      <trkpt lat="47.47723" lon="6.74893">
        <ele>309</ele>
        <time>2015-03-08T08:47:30.000Z</time>
      </trkpt>
      <trkpt lat="47.47724" lon="6.74885">
        <ele>309</ele>
        <time>2015-03-08T08:47:31.000Z</time>
      </trkpt>
      <trkpt lat="47.47724" lon="6.74877">
        <ele>309</ele>
        <time>2015-03-08T08:47:32.000Z</time>
      </trkpt>
      <trkpt lat="47.47724" lon="6.74869">
        <ele>309</ele>
        <time>2015-03-08T08:47:33.000Z</time>
      </trkpt>
      <trkpt lat="47.47725" lon="6.74863">
        <ele>309</ele>
        <time>2015-03-08T08:47:34.000Z</time>
      </trkpt>
      <trkpt lat="47.47724" lon="6.74854">
        <ele>309</ele>
        <time>2015-03-08T08:47:35.000Z</time>
      </trkpt>
      <trkpt lat="47.47725" lon="6.74846">
        <ele>309</ele>
        <time>2015-03-08T08:47:36.000Z</time>
      </trkpt>
      <trkpt lat="47.47725" lon="6.74838">
        <ele>309</ele>
        <time>2015-03-08T08:47:37.000Z</time>
      </trkpt>
      <trkpt lat="47.47725" lon="6.74829">
        <ele>309</ele>
        <time>2015-03-08T08:47:38.000Z</time>
      </trkpt>
      <trkpt lat="47.47725" lon="6.74821">
        <ele>309</ele>
        <time>2015-03-08T08:47:39.000Z</time>
      </trkpt>
      <trkpt lat="47.47725" lon="6.74813">
        <ele>309</ele>
        <time>2015-03-08T08:47:40.000Z</time>
      </trkpt>
      <trkpt lat="47.47725" lon="6.74805">
        <ele>309</ele>
        <time>2015-03-08T08:47:41.000Z</time>
      </trkpt>
      <trkpt lat="47.47726" lon="6.74797">
        <ele>309</ele>
        <time>2015-03-08T08:47:42.000Z</time>
      </trkpt>
      <trkpt lat="47.47726" lon="6.74789">
        <ele>309</ele>
        <time>2015-03-08T08:47:43.000Z</time>
      </trkpt>
      <trkpt lat="47.47726" lon="6.74781">
        <ele>309</ele>
        <time>2015-03-08T08:47:44.000Z</time>
      </trkpt>
      <trkpt lat="47.47726" lon="6.74774">
        <ele>309</ele>
        <time>2015-03-08T08:47:45.000Z</time>
      </trkpt>
      <trkpt lat="47.47727" lon="6.74766">
        <ele>309</ele>
        <time>2015-03-08T08:47:46.000Z</time>
      </trkpt>
      <trkpt lat="47.47727" lon="6.74759">
        <ele>309</ele>
        <time>2015-03-08T08:47:47.000Z</time>
      </trkpt>
      <trkpt lat="47.47727" lon="6.7475">
        <ele>309</ele>
        <time>2015-03-08T08:47:48.000Z</time>
      </trkpt>
      <trkpt lat="47.47728" lon="6.74742">
        <ele>309</ele>
        <time>2015-03-08T08:47:49.000Z</time>
      </trkpt>
      <trkpt lat="47.47728" lon="6.74733">
        <ele>309</ele>
        <time>2015-03-08T08:47:50.000Z</time>
      </trkpt>
      <trkpt lat="47.47729" lon="6.74726">
        <ele>309</ele>
        <time>2015-03-08T08:47:51.000Z</time>
      </trkpt>
      <trkpt lat="47.47729" lon="6.74717">
        <ele>309</ele>
        <time>2015-03-08T08:47:52.000Z</time>
      </trkpt>
      <trkpt lat="47.4773" lon="6.74709">
        <ele>309</ele>
        <time>2015-03-08T08:47:53.000Z</time>
      </trkpt>
      <trkpt lat="47.47729" lon="6.74699">
        <ele>309</ele>
        <time>2015-03-08T08:47:54.000Z</time>
      </trkpt>
      <trkpt lat="47.47728" lon="6.74689">
        <ele>308</ele>
        <time>2015-03-08T08:47:55.000Z</time>
      </trkpt>
      <trkpt lat="47.47729" lon="6.74681">
        <ele>308</ele>
        <time>2015-03-08T08:47:56.000Z</time>
      </trkpt>
      <trkpt lat="47.47729" lon="6.74673">
        <ele>308</ele>
        <time>2015-03-08T08:47:57.000Z</time>
      </trkpt>
      <trkpt lat="47.47729" lon="6.74666">
        <ele>308</ele>
        <time>2015-03-08T08:47:58.000Z</time>
      </trkpt>
      <trkpt lat="47.47729" lon="6.74659">
        <ele>308</ele>
        <time>2015-03-08T08:47:59.000Z</time>
      </trkpt>
      <trkpt lat="47.47728" lon="6.74651">
        <ele>308</ele>
        <time>2015-03-08T08:48:00.000Z</time>
      </trkpt>
      <trkpt lat="47.47727" lon="6.74643">
        <ele>308</ele>
        <time>2015-03-08T08:48:01.000Z</time>
      </trkpt>
      <trkpt lat="47.47728" lon="6.74636">
        <ele>308</ele>
        <time>2015-03-08T08:48:02.000Z</time>
      </trkpt>
      <trkpt lat="47.47728" lon="6.74628">
        <ele>308</ele>
        <time>2015-03-08T08:48:03.000Z</time>
      </trkpt>
      <trkpt lat="47.47728" lon="6.74621">
        <ele>308</ele>
        <time>2015-03-08T08:48:04.000Z</time>
      </trkpt>
      <trkpt lat="47.47729" lon="6.74613">
        <ele>308</ele>
        <time>2015-03-08T08:48:05.000Z</time>
      </trkpt>
      <trkpt lat="47.47729" lon="6.74605">
        <ele>308</ele>
        <time>2015-03-08T08:48:06.000Z</time>
      </trkpt>
      <trkpt lat="47.47729" lon="6.74596">
        <ele>308</ele>
        <time>2015-03-08T08:48:07.000Z</time>
      </trkpt>
      <trkpt lat="47.47729" lon="6.74589">
        <ele>308</ele>
        <time>2015-03-08T08:48:08.000Z</time>
      </trkpt>
      <trkpt lat="47.47726" lon="6.74574">
        <ele>308</ele>
        <time>2015-03-08T08:48:09.000Z</time>
      </trkpt>
      <trkpt lat="47.47724" lon="6.74564">
        <ele>308</ele>
        <time>2015-03-08T08:48:10.000Z</time>
      </trkpt>
      <trkpt lat="47.47724" lon="6.74556">
        <ele>308</ele>
        <time>2015-03-08T08:48:11.000Z</time>
      </trkpt>
      <trkpt lat="47.47723" lon="6.74548">
        <ele>308</ele>
        <time>2015-03-08T08:48:12.000Z</time>
      </trkpt>
      <trkpt lat="47.47723" lon="6.74543">
        <ele>308</ele>
        <time>2015-03-08T08:48:13.000Z</time>
      </trkpt>
      <trkpt lat="47.47722" lon="6.74536">
        <ele>308</ele>
        <time>2015-03-08T08:48:14.000Z</time>
      </trkpt>
      <trkpt lat="47.47719" lon="6.74529">
        <ele>308</ele>
        <time>2015-03-08T08:48:15.000Z</time>
      </trkpt>
      <trkpt lat="47.47717" lon="6.74522">
        <ele>308</ele>
        <time>2015-03-08T08:48:16.000Z</time>
      </trkpt>
      <trkpt lat="47.47715" lon="6.74515">
        <ele>308</ele>
        <time>2015-03-08T08:48:17.000Z</time>
      </trkpt>
      <trkpt lat="47.47714" lon="6.74507">
        <ele>308</ele>
        <time>2015-03-08T08:48:18.000Z</time>
      </trkpt>
      <trkpt lat="47.47713" lon="6.74499">
        <ele>308</ele>
        <time>2015-03-08T08:48:19.000Z</time>
      </trkpt>
      <trkpt lat="47.47712" lon="6.74492">
        <ele>308</ele>
        <time>2015-03-08T08:48:20.000Z</time>
      </trkpt>
      <trkpt lat="47.47712" lon="6.74485">
        <ele>308</ele>
        <time>2015-03-08T08:48:21.000Z</time>
      </trkpt>
      <trkpt lat="47.47711" lon="6.74478">
        <ele>308</ele>
        <time>2015-03-08T08:48:22.000Z</time>
      </trkpt>
      <trkpt lat="47.47711" lon="6.7447">
        <ele>308</ele>
        <time>2015-03-08T08:48:23.000Z</time>
      </trkpt>
      <trkpt lat="47.47711" lon="6.74463">
        <ele>308</ele>
        <time>2015-03-08T08:48:24.000Z</time>
      </trkpt>
      <trkpt lat="47.4771" lon="6.74454">
        <ele>308</ele>
        <time>2015-03-08T08:48:25.000Z</time>
      </trkpt>
      <trkpt lat="47.4771" lon="6.74446">
        <ele>308</ele>
        <time>2015-03-08T08:48:26.000Z</time>
      </trkpt>
      <trkpt lat="47.4771" lon="6.74439">
        <ele>308</ele>
        <time>2015-03-08T08:48:27.000Z</time>
      </trkpt>
      <trkpt lat="47.47709" lon="6.74431">
        <ele>308</ele>
        <time>2015-03-08T08:48:28.000Z</time>
      </trkpt>
      <trkpt lat="47.47709" lon="6.74424">
        <ele>308</ele>
        <time>2015-03-08T08:48:29.000Z</time>
      </trkpt>
      <trkpt lat="47.47709" lon="6.74417">
        <ele>308</ele>
        <time>2015-03-08T08:48:30.000Z</time>
      </trkpt>
      <trkpt lat="47.47709" lon="6.74409">
        <ele>308</ele>
        <time>2015-03-08T08:48:31.000Z</time>
      </trkpt>
      <trkpt lat="47.47707" lon="6.74402">
        <ele>308</ele>
        <time>2015-03-08T08:48:32.000Z</time>
      </trkpt>
      <trkpt lat="47.47706" lon="6.74395">
        <ele>308</ele>
        <time>2015-03-08T08:48:33.000Z</time>
      </trkpt>
      <trkpt lat="47.47705" lon="6.74387">
        <ele>309</ele>
        <time>2015-03-08T08:48:33.980Z</time>
      </trkpt>
      <trkpt lat="47.47705" lon="6.74377">
        <ele>309</ele>
        <time>2015-03-08T08:48:35.000Z</time>
      </trkpt>
      <trkpt lat="47.47704" lon="6.74369">
        <ele>309</ele>
        <time>2015-03-08T08:48:36.000Z</time>
      </trkpt>
      <trkpt lat="47.47703" lon="6.74361">
        <ele>309</ele>
        <time>2015-03-08T08:48:37.000Z</time>
      </trkpt>
      <trkpt lat="47.47702" lon="6.74352">
        <ele>309</ele>
        <time>2015-03-08T08:48:38.000Z</time>
      </trkpt>
      <trkpt lat="47.47702" lon="6.74344">
        <ele>309</ele>
        <time>2015-03-08T08:48:39.000Z</time>
      </trkpt>
      <trkpt lat="47.47701" lon="6.74336">
        <ele>309</ele>
        <time>2015-03-08T08:48:40.000Z</time>
      </trkpt>
      <trkpt lat="47.47699" lon="6.74327">
        <ele>310</ele>
        <time>2015-03-08T08:48:41.000Z</time>
      </trkpt>
      <trkpt lat="47.47699" lon="6.74318">
        <ele>310</ele>
        <time>2015-03-08T08:48:42.000Z</time>
      </trkpt>
      <trkpt lat="47.47697" lon="6.7431">
        <ele>310</ele>
        <time>2015-03-08T08:48:43.000Z</time>
      </trkpt>
      <trkpt lat="47.47698" lon="6.74302">
        <ele>310</ele>
        <time>2015-03-08T08:48:44.000Z</time>
      </trkpt>
      <trkpt lat="47.47697" lon="6.74295">
        <ele>310</ele>
        <time>2015-03-08T08:48:45.000Z</time>
      </trkpt>
      <trkpt lat="47.47696" lon="6.74287">
        <ele>310</ele>
        <time>2015-03-08T08:48:46.000Z</time>
      </trkpt>
      <trkpt lat="47.47695" lon="6.74278">
        <ele>310</ele>
        <time>2015-03-08T08:48:47.000Z</time>
      </trkpt>
      <trkpt lat="47.47694" lon="6.74268">
        <ele>310</ele>
        <time>2015-03-08T08:48:48.000Z</time>
      </trkpt>
      <trkpt lat="47.47692" lon="6.74261">
        <ele>310</ele>
        <time>2015-03-08T08:48:49.000Z</time>
      </trkpt>
      <trkpt lat="47.47691" lon="6.74253">
        <ele>310</ele>
        <time>2015-03-08T08:48:50.000Z</time>
      </trkpt>
      <trkpt lat="47.4769" lon="6.74245">
        <ele>310</ele>
        <time>2015-03-08T08:48:51.000Z</time>
      </trkpt>
      <trkpt lat="47.47689" lon="6.74237">
        <ele>310</ele>
        <time>2015-03-08T08:48:52.000Z</time>
      </trkpt>
      <trkpt lat="47.47687" lon="6.74229">
        <ele>310</ele>
        <time>2015-03-08T08:48:53.000Z</time>
      </trkpt>
      <trkpt lat="47.47686" lon="6.74221">
        <ele>310</ele>
        <time>2015-03-08T08:48:54.000Z</time>
      </trkpt>
      <trkpt lat="47.47684" lon="6.74213">
        <ele>310</ele>
        <time>2015-03-08T08:48:55.000Z</time>
      </trkpt>
      <trkpt lat="47.47683" lon="6.74206">
        <ele>310</ele>
        <time>2015-03-08T08:48:56.000Z</time>
      </trkpt>
      <trkpt lat="47.47682" lon="6.74198">
        <ele>310</ele>
        <time>2015-03-08T08:48:57.000Z</time>
      </trkpt>
      <trkpt lat="47.4768" lon="6.7419">
        <ele>310</ele>
        <time>2015-03-08T08:48:58.000Z</time>
      </trkpt>
      <trkpt lat="47.47677" lon="6.74182">
        <ele>310</ele>
        <time>2015-03-08T08:48:59.000Z</time>
      </trkpt>
      <trkpt lat="47.47674" lon="6.74174">
        <ele>309</ele>
        <time>2015-03-08T08:49:00.000Z</time>
      </trkpt>
      <trkpt lat="47.47671" lon="6.74167">
        <ele>309</ele>
        <time>2015-03-08T08:49:01.000Z</time>
      </trkpt>
      <trkpt lat="47.47669" lon="6.74159">
        <ele>309</ele>
        <time>2015-03-08T08:49:02.000Z</time>
      </trkpt>
      <trkpt lat="47.47666" lon="6.74151">
        <ele>309</ele>
        <time>2015-03-08T08:49:03.000Z</time>
      </trkpt>
      <trkpt lat="47.47664" lon="6.74143">
        <ele>309</ele>
        <time>2015-03-08T08:49:04.000Z</time>
      </trkpt>
      <trkpt lat="47.4766" lon="6.74135">
        <ele>309</ele>
        <time>2015-03-08T08:49:05.000Z</time>
      </trkpt>
      <trkpt lat="47.47656" lon="6.74127">
        <ele>309</ele>
        <time>2015-03-08T08:49:06.000Z</time>
      </trkpt>
      <trkpt lat="47.47652" lon="6.74119">
        <ele>309</ele>
        <time>2015-03-08T08:49:07.000Z</time>
      </trkpt>
      <trkpt lat="47.47649" lon="6.74111">
        <ele>309</ele>
        <time>2015-03-08T08:49:08.000Z</time>
      </trkpt>
      <trkpt lat="47.47647" lon="6.74103">
        <ele>309</ele>
        <time>2015-03-08T08:49:09.000Z</time>
      </trkpt>
      <trkpt lat="47.47644" lon="6.74096">
        <ele>309</ele>
        <time>2015-03-08T08:49:10.000Z</time>
      </trkpt>
      <trkpt lat="47.47641" lon="6.74089">
        <ele>309</ele>
        <time>2015-03-08T08:49:11.000Z</time>
      </trkpt>
      <trkpt lat="47.47639" lon="6.74081">
        <ele>310</ele>
        <time>2015-03-08T08:49:12.000Z</time>
      </trkpt>
      <trkpt lat="47.47636" lon="6.74074">
        <ele>310</ele>
        <time>2015-03-08T08:49:13.000Z</time>
      </trkpt>
      <trkpt lat="47.47633" lon="6.74068">
        <ele>310</ele>
        <time>2015-03-08T08:49:14.000Z</time>
      </trkpt>
      <trkpt lat="47.47629" lon="6.74063">
        <ele>310</ele>
        <time>2015-03-08T08:49:15.000Z</time>
      </trkpt>
      <trkpt lat="47.47625" lon="6.7406">
        <ele>309</ele>
        <time>2015-03-08T08:49:16.000Z</time>
      </trkpt>
      <trkpt lat="47.47621" lon="6.74057">
        <ele>309</ele>
        <time>2015-03-08T08:49:17.000Z</time>
      </trkpt>
      <trkpt lat="47.47617" lon="6.7406">
        <ele>309</ele>
        <time>2015-03-08T08:49:18.000Z</time>
      </trkpt>
      <trkpt lat="47.47612" lon="6.7406">
        <ele>309</ele>
        <time>2015-03-08T08:49:19.000Z</time>
      </trkpt>
      <trkpt lat="47.47607" lon="6.74061">
        <ele>309</ele>
        <time>2015-03-08T08:49:20.000Z</time>
      </trkpt>
      <trkpt lat="47.47603" lon="6.74062">
        <ele>309</ele>
        <time>2015-03-08T08:49:21.000Z</time>
      </trkpt>
      <trkpt lat="47.47598" lon="6.74064">
        <ele>309</ele>
        <time>2015-03-08T08:49:22.000Z</time>
      </trkpt>
      <trkpt lat="47.47594" lon="6.74066">
        <ele>309</ele>
        <time>2015-03-08T08:49:23.000Z</time>
      </trkpt>
      <trkpt lat="47.47591" lon="6.74069">
        <ele>309</ele>
        <time>2015-03-08T08:49:24.000Z</time>
      </trkpt>
      <trkpt lat="47.47587" lon="6.74072">
        <ele>309</ele>
        <time>2015-03-08T08:49:25.000Z</time>
      </trkpt>
      <trkpt lat="47.47583" lon="6.74075">
        <ele>309</ele>
        <time>2015-03-08T08:49:26.000Z</time>
      </trkpt>
      <trkpt lat="47.47579" lon="6.74078">
        <ele>309</ele>
        <time>2015-03-08T08:49:27.000Z</time>
      </trkpt>
      <trkpt lat="47.47575" lon="6.74082">
        <ele>309</ele>
        <time>2015-03-08T08:49:28.000Z</time>
      </trkpt>
      <trkpt lat="47.47572" lon="6.74085">
        <ele>309</ele>
        <time>2015-03-08T08:49:29.000Z</time>
      </trkpt>
      <trkpt lat="47.47568" lon="6.74089">
        <ele>309</ele>
        <time>2015-03-08T08:49:30.000Z</time>
      </trkpt>
      <trkpt lat="47.47564" lon="6.74092">
        <ele>309</ele>
        <time>2015-03-08T08:49:31.000Z</time>
      </trkpt>
      <trkpt lat="47.4756" lon="6.74095">
        <ele>309</ele>
        <time>2015-03-08T08:49:32.000Z</time>
      </trkpt>
      <trkpt lat="47.47556" lon="6.74099">
        <ele>309</ele>
        <time>2015-03-08T08:49:33.000Z</time>
      </trkpt>
      <trkpt lat="47.47552" lon="6.74103">
        <ele>309</ele>
        <time>2015-03-08T08:49:34.000Z</time>
      </trkpt>
      <trkpt lat="47.47548" lon="6.74106">
        <ele>309</ele>
        <time>2015-03-08T08:49:35.000Z</time>
      </trkpt>
      <trkpt lat="47.47545" lon="6.7411">
        <ele>309</ele>
        <time>2015-03-08T08:49:36.000Z</time>
      </trkpt>
      <trkpt lat="47.4754" lon="6.74113">
        <ele>308</ele>
        <time>2015-03-08T08:49:37.000Z</time>
      </trkpt>
      <trkpt lat="47.47536" lon="6.74117">
        <ele>308</ele>
        <time>2015-03-08T08:49:38.000Z</time>
      </trkpt>
      <trkpt lat="47.47532" lon="6.7412">
        <ele>308</ele>
        <time>2015-03-08T08:49:39.000Z</time>
      </trkpt>
      <trkpt lat="47.47527" lon="6.74123">
        <ele>308</ele>
        <time>2015-03-08T08:49:40.000Z</time>
      </trkpt>
      <trkpt lat="47.47523" lon="6.74127">
        <ele>309</ele>
        <time>2015-03-08T08:49:41.000Z</time>
      </trkpt>
      <trkpt lat="47.4752" lon="6.7413">
        <ele>309</ele>
        <time>2015-03-08T08:49:42.000Z</time>
      </trkpt>
      <trkpt lat="47.47517" lon="6.74133">
        <ele>309</ele>
        <time>2015-03-08T08:49:43.000Z</time>
      </trkpt>
      <trkpt lat="47.47513" lon="6.74136">
        <ele>309</ele>
        <time>2015-03-08T08:49:44.000Z</time>
      </trkpt>
      <trkpt lat="47.47509" lon="6.74139">
        <ele>309</ele>
        <time>2015-03-08T08:49:45.000Z</time>
      </trkpt>
      <trkpt lat="47.47505" lon="6.74143">
        <ele>309</ele>
        <time>2015-03-08T08:49:46.000Z</time>
      </trkpt>
      <trkpt lat="47.475" lon="6.74145">
        <ele>309</ele>
        <time>2015-03-08T08:49:47.000Z</time>
      </trkpt>
      <trkpt lat="47.47496" lon="6.74149">
        <ele>309</ele>
        <time>2015-03-08T08:49:48.000Z</time>
      </trkpt>
      <trkpt lat="47.47492" lon="6.74152">
        <ele>309</ele>
        <time>2015-03-08T08:49:49.000Z</time>
      </trkpt>
      <trkpt lat="47.47489" lon="6.74155">
        <ele>309</ele>
        <time>2015-03-08T08:49:50.000Z</time>
      </trkpt>
      <trkpt lat="47.47485" lon="6.74158">
        <ele>309</ele>
        <time>2015-03-08T08:49:51.000Z</time>
      </trkpt>
      <trkpt lat="47.47482" lon="6.7416">
        <ele>309</ele>
        <time>2015-03-08T08:49:52.000Z</time>
      </trkpt>
      <trkpt lat="47.47479" lon="6.74164">
        <ele>309</ele>
        <time>2015-03-08T08:49:53.000Z</time>
      </trkpt>
      <trkpt lat="47.47475" lon="6.74166">
        <ele>309</ele>
        <time>2015-03-08T08:49:54.000Z</time>
      </trkpt>
      <trkpt lat="47.47472" lon="6.74168">
        <ele>309</ele>
        <time>2015-03-08T08:49:55.000Z</time>
      </trkpt>
      <trkpt lat="47.47469" lon="6.74171">
        <ele>309</ele>
        <time>2015-03-08T08:49:56.000Z</time>
      </trkpt>
      <trkpt lat="47.47466" lon="6.74174">
        <ele>309</ele>
        <time>2015-03-08T08:49:57.000Z</time>
      </trkpt>
      <trkpt lat="47.47462" lon="6.74176">
        <ele>309</ele>
        <time>2015-03-08T08:49:58.000Z</time>
      </trkpt>
      <trkpt lat="47.47457" lon="6.74178">
        <ele>309</ele>
        <time>2015-03-08T08:49:59.000Z</time>
      </trkpt>
      <trkpt lat="47.47452" lon="6.7418">
        <ele>309</ele>
        <time>2015-03-08T08:50:00.000Z</time>
      </trkpt>
      <trkpt lat="47.47447" lon="6.74181">
        <ele>309</ele>
        <time>2015-03-08T08:50:01.000Z</time>
      </trkpt>
      <trkpt lat="47.47442" lon="6.74184">
        <ele>309</ele>
        <time>2015-03-08T08:50:02.000Z</time>
      </trkpt>
      <trkpt lat="47.47438" lon="6.74186">
        <ele>309</ele>
        <time>2015-03-08T08:50:03.000Z</time>
      </trkpt>
      <trkpt lat="47.47433" lon="6.74188">
        <ele>309</ele>
        <time>2015-03-08T08:50:04.000Z</time>
      </trkpt>
      <trkpt lat="47.47428" lon="6.7419">
        <ele>309</ele>
        <time>2015-03-08T08:50:05.000Z</time>
      </trkpt>
      <trkpt lat="47.47424" lon="6.74192">
        <ele>309</ele>
        <time>2015-03-08T08:50:06.000Z</time>
      </trkpt>
      <trkpt lat="47.47419" lon="6.74195">
        <ele>309</ele>
        <time>2015-03-08T08:50:07.000Z</time>
      </trkpt>
      <trkpt lat="47.47414" lon="6.74197">
        <ele>310</ele>
        <time>2015-03-08T08:50:08.000Z</time>
      </trkpt>
      <trkpt lat="47.4741" lon="6.742">
        <ele>310</ele>
        <time>2015-03-08T08:50:09.000Z</time>
      </trkpt>
      <trkpt lat="47.47405" lon="6.74202">
        <ele>310</ele>
        <time>2015-03-08T08:50:10.000Z</time>
      </trkpt>
      <trkpt lat="47.47402" lon="6.74204">
        <ele>310</ele>
        <time>2015-03-08T08:50:11.000Z</time>
      </trkpt>
      <trkpt lat="47.47397" lon="6.74206">
        <ele>310</ele>
        <time>2015-03-08T08:50:12.000Z</time>
      </trkpt>
      <trkpt lat="47.47393" lon="6.74209">
        <ele>310</ele>
        <time>2015-03-08T08:50:13.000Z</time>
      </trkpt>
      <trkpt lat="47.47389" lon="6.74211">
        <ele>310</ele>
        <time>2015-03-08T08:50:14.000Z</time>
      </trkpt>
      <trkpt lat="47.47384" lon="6.74213">
        <ele>310</ele>
        <time>2015-03-08T08:50:15.000Z</time>
      </trkpt>
      <trkpt lat="47.4738" lon="6.74215">
        <ele>310</ele>
        <time>2015-03-08T08:50:16.000Z</time>
      </trkpt>
      <trkpt lat="47.47376" lon="6.74217">
        <ele>310</ele>
        <time>2015-03-08T08:50:17.000Z</time>
      </trkpt>
      <trkpt lat="47.47372" lon="6.74219">
        <ele>310</ele>
        <time>2015-03-08T08:50:18.000Z</time>
      </trkpt>
      <trkpt lat="47.47368" lon="6.7422">
        <ele>310</ele>
        <time>2015-03-08T08:50:19.000Z</time>
      </trkpt>
      <trkpt lat="47.47364" lon="6.74222">
        <ele>310</ele>
        <time>2015-03-08T08:50:20.000Z</time>
      </trkpt>
      <trkpt lat="47.4736" lon="6.74224">
        <ele>310</ele>
        <time>2015-03-08T08:50:21.000Z</time>
      </trkpt>
      <trkpt lat="47.47356" lon="6.74227">
        <ele>310</ele>
        <time>2015-03-08T08:50:22.000Z</time>
      </trkpt>
      <trkpt lat="47.47352" lon="6.7423">
        <ele>310</ele>
        <time>2015-03-08T08:50:23.000Z</time>
      </trkpt>
      <trkpt lat="47.47348" lon="6.74232">
        <ele>310</ele>
        <time>2015-03-08T08:50:24.000Z</time>
      </trkpt>
      <trkpt lat="47.47344" lon="6.74234">
        <ele>310</ele>
        <time>2015-03-08T08:50:25.000Z</time>
      </trkpt>
      <trkpt lat="47.47341" lon="6.74237">
        <ele>311</ele>
        <time>2015-03-08T08:50:26.000Z</time>
      </trkpt>
      <trkpt lat="47.47337" lon="6.74239">
        <ele>311</ele>
        <time>2015-03-08T08:50:27.000Z</time>
      </trkpt>
      <trkpt lat="47.47333" lon="6.74241">
        <ele>311</ele>
        <time>2015-03-08T08:50:28.000Z</time>
      </trkpt>
      <trkpt lat="47.47329" lon="6.74243">
        <ele>311</ele>
        <time>2015-03-08T08:50:29.000Z</time>
      </trkpt>
      <trkpt lat="47.47324" lon="6.74246">
        <ele>311</ele>
        <time>2015-03-08T08:50:30.000Z</time>
      </trkpt>
      <trkpt lat="47.4732" lon="6.74247">
        <ele>311</ele>
        <time>2015-03-08T08:50:31.000Z</time>
      </trkpt>
      <trkpt lat="47.47315" lon="6.74249">
        <ele>311</ele>
        <time>2015-03-08T08:50:32.000Z</time>
      </trkpt>
      <trkpt lat="47.47311" lon="6.7425">
        <ele>312</ele>
        <time>2015-03-08T08:50:33.000Z</time>
      </trkpt>
      <trkpt lat="47.47307" lon="6.74252">
        <ele>312</ele>
        <time>2015-03-08T08:50:34.000Z</time>
      </trkpt>
      <trkpt lat="47.47302" lon="6.74253">
        <ele>312</ele>
        <time>2015-03-08T08:50:35.000Z</time>
      </trkpt>
      <trkpt lat="47.47298" lon="6.74255">
        <ele>312</ele>
        <time>2015-03-08T08:50:36.000Z</time>
      </trkpt>
      <trkpt lat="47.47294" lon="6.74256">
        <ele>312</ele>
        <time>2015-03-08T08:50:37.000Z</time>
      </trkpt>
      <trkpt lat="47.47289" lon="6.74258">
        <ele>312</ele>
        <time>2015-03-08T08:50:38.000Z</time>
      </trkpt>
      <trkpt lat="47.47285" lon="6.7426">
        <ele>312</ele>
        <time>2015-03-08T08:50:39.000Z</time>
      </trkpt>
      <trkpt lat="47.47281" lon="6.74262">
        <ele>313</ele>
        <time>2015-03-08T08:50:40.000Z</time>
      </trkpt>
      <trkpt lat="47.47276" lon="6.74264">
        <ele>313</ele>
        <time>2015-03-08T08:50:41.000Z</time>
      </trkpt>
      <trkpt lat="47.47272" lon="6.74265">
        <ele>313</ele>
        <time>2015-03-08T08:50:42.000Z</time>
      </trkpt>
      <trkpt lat="47.47268" lon="6.74265">
        <ele>313</ele>
        <time>2015-03-08T08:50:43.000Z</time>
      </trkpt>
      <trkpt lat="47.47264" lon="6.74267">
        <ele>313</ele>
        <time>2015-03-08T08:50:44.000Z</time>
      </trkpt>
      <trkpt lat="47.4726" lon="6.74269">
        <ele>313</ele>
        <time>2015-03-08T08:50:45.000Z</time>
      </trkpt>
      <trkpt lat="47.47258" lon="6.74272">
        <ele>313</ele>
        <time>2015-03-08T08:50:46.000Z</time>
      </trkpt>
      <trkpt lat="47.47257" lon="6.74277">
        <ele>313</ele>
        <time>2015-03-08T08:50:47.000Z</time>
      </trkpt>
      <trkpt lat="47.47254" lon="6.74281">
        <ele>313</ele>
        <time>2015-03-08T08:50:48.000Z</time>
      </trkpt>
      <trkpt lat="47.47254" lon="6.74288">
        <ele>313</ele>
        <time>2015-03-08T08:50:49.000Z</time>
      </trkpt>
      <trkpt lat="47.47254" lon="6.74295">
        <ele>313</ele>
        <time>2015-03-08T08:50:50.000Z</time>
      </trkpt>
      <trkpt lat="47.47253" lon="6.74301">
        <ele>313</ele>
        <time>2015-03-08T08:50:51.000Z</time>
      </trkpt>
      <trkpt lat="47.47252" lon="6.74307">
        <ele>313</ele>
        <time>2015-03-08T08:50:52.000Z</time>
      </trkpt>
      <trkpt lat="47.47251" lon="6.74312">
        <ele>313</ele>
        <time>2015-03-08T08:50:53.000Z</time>
      </trkpt>
      <trkpt lat="47.4725" lon="6.74317">
        <ele>313</ele>
        <time>2015-03-08T08:50:54.000Z</time>
      </trkpt>
      <trkpt lat="47.47249" lon="6.74322">
        <ele>315</ele>
        <time>2015-03-08T08:50:55.000Z</time>
      </trkpt>
      <trkpt lat="47.47247" lon="6.74327">
        <ele>314</ele>
        <time>2015-03-08T08:50:56.000Z</time>
      </trkpt>
      <trkpt lat="47.47245" lon="6.74332">
        <ele>314</ele>
        <time>2015-03-08T08:50:57.000Z</time>
      </trkpt>
      <trkpt lat="47.47243" lon="6.74336">
        <ele>315</ele>
        <time>2015-03-08T08:50:58.000Z</time>
      </trkpt>
      <trkpt lat="47.47241" lon="6.7434">
        <ele>316</ele>
        <time>2015-03-08T08:50:59.000Z</time>
      </trkpt>
      <trkpt lat="47.47239" lon="6.74344">
        <ele>316</ele>
        <time>2015-03-08T08:51:00.000Z</time>
      </trkpt>
      <trkpt lat="47.47237" lon="6.74348">
        <ele>317</ele>
        <time>2015-03-08T08:51:01.000Z</time>
      </trkpt>
      <trkpt lat="47.47234" lon="6.74352">
        <ele>317</ele>
        <time>2015-03-08T08:51:02.000Z</time>
      </trkpt>
      <trkpt lat="47.47231" lon="6.74355">
        <ele>317</ele>
        <time>2015-03-08T08:51:03.000Z</time>
      </trkpt>
      <trkpt lat="47.47228" lon="6.74358">
        <ele>317</ele>
        <time>2015-03-08T08:51:04.000Z</time>
      </trkpt>
      <trkpt lat="47.47225" lon="6.7436">
        <ele>318</ele>
        <time>2015-03-08T08:51:05.000Z</time>
      </trkpt>
      <trkpt lat="47.47222" lon="6.74362">
        <ele>318</ele>
        <time>2015-03-08T08:51:06.000Z</time>
      </trkpt>
      <trkpt lat="47.47219" lon="6.74363">
        <ele>318</ele>
        <time>2015-03-08T08:51:07.000Z</time>
      </trkpt>
      <trkpt lat="47.47216" lon="6.74364">
        <ele>318</ele>
        <time>2015-03-08T08:51:08.000Z</time>
      </trkpt>
      <trkpt lat="47.47214" lon="6.74365">
        <ele>318</ele>
        <time>2015-03-08T08:51:09.000Z</time>
      </trkpt>
      <trkpt lat="47.4721" lon="6.74366">
        <ele>318</ele>
        <time>2015-03-08T08:51:11.000Z</time>
      </trkpt>
      <trkpt lat="47.47207" lon="6.74366">
        <ele>319</ele>
        <time>2015-03-08T08:51:12.000Z</time>
      </trkpt>
      <trkpt lat="47.47203" lon="6.74365">
        <ele>319</ele>
        <time>2015-03-08T08:51:14.000Z</time>
      </trkpt>
      <trkpt lat="47.47201" lon="6.74365">
        <ele>319</ele>
        <time>2015-03-08T08:51:15.000Z</time>
      </trkpt>
      <trkpt lat="47.47197" lon="6.74365">
        <ele>319</ele>
        <time>2015-03-08T08:51:18.000Z</time>
      </trkpt>
      <trkpt lat="47.47195" lon="6.74366">
        <ele>319</ele>
        <time>2015-03-08T08:51:19.000Z</time>
      </trkpt>
      <trkpt lat="47.47193" lon="6.74367">
        <ele>319</ele>
        <time>2015-03-08T08:51:20.000Z</time>
      </trkpt>
      <trkpt lat="47.47191" lon="6.74368">
        <ele>319</ele>
        <time>2015-03-08T08:51:21.000Z</time>
      </trkpt>
      <trkpt lat="47.47186" lon="6.74367">
        <ele>319</ele>
        <time>2015-03-08T08:51:23.000Z</time>
      </trkpt>
      <trkpt lat="47.47184" lon="6.74366">
        <ele>319</ele>
        <time>2015-03-08T08:51:24.000Z</time>
      </trkpt>
      <trkpt lat="47.47182" lon="6.74366">
        <ele>319</ele>
        <time>2015-03-08T08:51:25.000Z</time>
      </trkpt>
      <trkpt lat="47.47179" lon="6.74365">
        <ele>319</ele>
        <time>2015-03-08T08:51:26.000Z</time>
      </trkpt>
      <trkpt lat="47.47177" lon="6.74365">
        <ele>319</ele>
        <time>2015-03-08T08:51:27.000Z</time>
      </trkpt>
      <trkpt lat="47.47174" lon="6.74365">
        <ele>319</ele>
        <time>2015-03-08T08:51:28.000Z</time>
      </trkpt>
      <trkpt lat="47.47172" lon="6.74365">
        <ele>319</ele>
        <time>2015-03-08T08:51:29.000Z</time>
      </trkpt>
      <trkpt lat="47.47169" lon="6.74365">
        <ele>320</ele>
        <time>2015-03-08T08:51:30.000Z</time>
      </trkpt>
      <trkpt lat="47.47167" lon="6.74365">
        <ele>320</ele>
        <time>2015-03-08T08:51:31.000Z</time>
      </trkpt>
      <trkpt lat="47.47165" lon="6.74365">
        <ele>324</ele>
        <time>2015-03-08T08:51:32.000Z</time>
      </trkpt>
      <trkpt lat="47.47162" lon="6.74365">
        <ele>324</ele>
        <time>2015-03-08T08:51:33.000Z</time>
      </trkpt>
      <trkpt lat="47.4716" lon="6.74366">
        <ele>324</ele>
        <time>2015-03-08T08:51:34.000Z</time>
      </trkpt>
      <trkpt lat="47.47157" lon="6.74366">
        <ele>324</ele>
        <time>2015-03-08T08:51:35.000Z</time>
      </trkpt>
      <trkpt lat="47.47155" lon="6.74367">
        <ele>324</ele>
        <time>2015-03-08T08:51:36.000Z</time>
      </trkpt>
      <trkpt lat="47.47153" lon="6.74367">
        <ele>324</ele>
        <time>2015-03-08T08:51:37.000Z</time>
      </trkpt>
      <trkpt lat="47.4715" lon="6.74367">
        <ele>324</ele>
        <time>2015-03-08T08:51:38.000Z</time>
      </trkpt>
      <trkpt lat="47.47148" lon="6.74367">
        <ele>324</ele>
        <time>2015-03-08T08:51:39.000Z</time>
      </trkpt>
      <trkpt lat="47.47145" lon="6.74368">
        <ele>325</ele>
        <time>2015-03-08T08:51:40.000Z</time>
      </trkpt>
      <trkpt lat="47.47143" lon="6.74368">
        <ele>325</ele>
        <time>2015-03-08T08:51:41.000Z</time>
      </trkpt>
      <trkpt lat="47.47141" lon="6.74369">
        <ele>325</ele>
        <time>2015-03-08T08:51:42.000Z</time>
      </trkpt>
      <trkpt lat="47.47137" lon="6.74371">
        <ele>325</ele>
        <time>2015-03-08T08:51:44.000Z</time>
      </trkpt>
      <trkpt lat="47.47134" lon="6.74372">
        <ele>325</ele>
        <time>2015-03-08T08:51:45.000Z</time>
      </trkpt>
      <trkpt lat="47.4713" lon="6.74373">
        <ele>325</ele>
        <time>2015-03-08T08:51:47.000Z</time>
      </trkpt>
      <trkpt lat="47.47128" lon="6.74373">
        <ele>326</ele>
        <time>2015-03-08T08:51:48.000Z</time>
      </trkpt>
      <trkpt lat="47.47126" lon="6.74374">
        <ele>326</ele>
        <time>2015-03-08T08:51:49.000Z</time>
      </trkpt>
      <trkpt lat="47.47123" lon="6.74374">
        <ele>326</ele>
        <time>2015-03-08T08:51:50.000Z</time>
      </trkpt>
      <trkpt lat="47.47121" lon="6.74375">
        <ele>326</ele>
        <time>2015-03-08T08:51:51.000Z</time>
      </trkpt>
      <trkpt lat="47.47118" lon="6.74376">
        <ele>326</ele>
        <time>2015-03-08T08:51:52.000Z</time>
      </trkpt>
      <trkpt lat="47.47116" lon="6.74376">
        <ele>326</ele>
        <time>2015-03-08T08:51:53.000Z</time>
      </trkpt>
      <trkpt lat="47.47113" lon="6.74377">
        <ele>326</ele>
        <time>2015-03-08T08:51:54.000Z</time>
      </trkpt>
      <trkpt lat="47.4711" lon="6.74378">
        <ele>327</ele>
        <time>2015-03-08T08:51:56.000Z</time>
      </trkpt>
      <trkpt lat="47.47108" lon="6.7438">
        <ele>327</ele>
        <time>2015-03-08T08:51:57.000Z</time>
      </trkpt>
      <trkpt lat="47.47104" lon="6.74382">
        <ele>327</ele>
        <time>2015-03-08T08:51:59.000Z</time>
      </trkpt>
      <trkpt lat="47.47102" lon="6.74382">
        <ele>327</ele>
        <time>2015-03-08T08:52:00.000Z</time>
      </trkpt>
      <trkpt lat="47.47098" lon="6.74383">
        <ele>327</ele>
        <time>2015-03-08T08:52:02.000Z</time>
      </trkpt>
      <trkpt lat="47.47096" lon="6.74384">
        <ele>327</ele>
        <time>2015-03-08T08:52:03.000Z</time>
      </trkpt>
      <trkpt lat="47.47093" lon="6.74386">
        <ele>328</ele>
        <time>2015-03-08T08:52:05.000Z</time>
      </trkpt>
      <trkpt lat="47.47091" lon="6.74386">
        <ele>328</ele>
        <time>2015-03-08T08:52:06.000Z</time>
      </trkpt>
      <trkpt lat="47.47087" lon="6.74387">
        <ele>328</ele>
        <time>2015-03-08T08:52:08.000Z</time>
      </trkpt>
      <trkpt lat="47.47086" lon="6.74388">
        <ele>328</ele>
        <time>2015-03-08T08:52:09.000Z</time>
      </trkpt>
      <trkpt lat="47.47082" lon="6.7439">
        <ele>334</ele>
        <time>2015-03-08T08:52:11.000Z</time>
      </trkpt>
      <trkpt lat="47.4708" lon="6.74391">
        <ele>334</ele>
        <time>2015-03-08T08:52:12.000Z</time>
      </trkpt>
      <trkpt lat="47.47077" lon="6.74392">
        <ele>334</ele>
        <time>2015-03-08T08:52:14.000Z</time>
      </trkpt>
      <trkpt lat="47.47075" lon="6.74393">
        <ele>335</ele>
        <time>2015-03-08T08:52:15.000Z</time>
      </trkpt>
      <trkpt lat="47.47071" lon="6.74396">
        <ele>335</ele>
        <time>2015-03-08T08:52:17.000Z</time>
      </trkpt>
      <trkpt lat="47.47069" lon="6.74397">
        <ele>335</ele>
        <time>2015-03-08T08:52:18.000Z</time>
      </trkpt>
      <trkpt lat="47.47065" lon="6.744">
        <ele>335</ele>
        <time>2015-03-08T08:52:20.000Z</time>
      </trkpt>
      <trkpt lat="47.47063" lon="6.74402">
        <ele>335</ele>
        <time>2015-03-08T08:52:21.000Z</time>
      </trkpt>
      <trkpt lat="47.47059" lon="6.74405">
        <ele>336</ele>
        <time>2015-03-08T08:52:23.000Z</time>
      </trkpt>
      <trkpt lat="47.47057" lon="6.74406">
        <ele>336</ele>
        <time>2015-03-08T08:52:24.000Z</time>
      </trkpt>
      <trkpt lat="47.47054" lon="6.74408">
        <ele>336</ele>
        <time>2015-03-08T08:52:26.000Z</time>
      </trkpt>
      <trkpt lat="47.47052" lon="6.74408">
        <ele>336</ele>
        <time>2015-03-08T08:52:27.000Z</time>
      </trkpt>
      <trkpt lat="47.47049" lon="6.74411">
        <ele>337</ele>
        <time>2015-03-08T08:52:30.000Z</time>
      </trkpt>
      <trkpt lat="47.47047" lon="6.74413">
        <ele>337</ele>
        <time>2015-03-08T08:52:31.000Z</time>
      </trkpt>
      <trkpt lat="47.47043" lon="6.74417">
        <ele>338</ele>
        <time>2015-03-08T08:52:33.000Z</time>
      </trkpt>
      <trkpt lat="47.47042" lon="6.74419">
        <ele>341</ele>
        <time>2015-03-08T08:52:34.000Z</time>
      </trkpt>
      <trkpt lat="47.4704" lon="6.74421">
        <ele>341</ele>
        <time>2015-03-08T08:52:35.000Z</time>
      </trkpt>
      <trkpt lat="47.47038" lon="6.74423">
        <ele>341</ele>
        <time>2015-03-08T08:52:36.000Z</time>
      </trkpt>
      <trkpt lat="47.47036" lon="6.74425">
        <ele>341</ele>
        <time>2015-03-08T08:52:37.000Z</time>
      </trkpt>
      <trkpt lat="47.47034" lon="6.74426">
        <ele>342</ele>
        <time>2015-03-08T08:52:38.000Z</time>
      </trkpt>
      <trkpt lat="47.47031" lon="6.74427">
        <ele>342</ele>
        <time>2015-03-08T08:52:39.000Z</time>
      </trkpt>
      <trkpt lat="47.47029" lon="6.74428">
        <ele>342</ele>
        <time>2015-03-08T08:52:40.000Z</time>
      </trkpt>
      <trkpt lat="47.47025" lon="6.74431">
        <ele>343</ele>
        <time>2015-03-08T08:52:42.000Z</time>
      </trkpt>
      <trkpt lat="47.47023" lon="6.74433">
        <ele>343</ele>
        <time>2015-03-08T08:52:43.000Z</time>
      </trkpt>
      <trkpt lat="47.4702" lon="6.74436">
        <ele>343</ele>
        <time>2015-03-08T08:52:45.000Z</time>
      </trkpt>
      <trkpt lat="47.47019" lon="6.74437">
        <ele>343</ele>
        <time>2015-03-08T08:52:46.000Z</time>
      </trkpt>
      <trkpt lat="47.47016" lon="6.7444">
        <ele>343</ele>
        <time>2015-03-08T08:52:49.000Z</time>
      </trkpt>
      <trkpt lat="47.47014" lon="6.74441">
        <ele>343</ele>
        <time>2015-03-08T08:52:50.000Z</time>
      </trkpt>
      <trkpt lat="47.47011" lon="6.74444">
        <ele>343</ele>
        <time>2015-03-08T08:52:52.000Z</time>
      </trkpt>
      <trkpt lat="47.4701" lon="6.74445">
        <ele>343</ele>
        <time>2015-03-08T08:52:53.000Z</time>
      </trkpt>
      <trkpt lat="47.47006" lon="6.74448">
        <ele>343</ele>
        <time>2015-03-08T08:52:55.000Z</time>
      </trkpt>
      <trkpt lat="47.47005" lon="6.7445">
        <ele>343</ele>
        <time>2015-03-08T08:52:56.000Z</time>
      </trkpt>
      <trkpt lat="47.47002" lon="6.74455">
        <ele>343</ele>
        <time>2015-03-08T08:52:58.000Z</time>
      </trkpt>
      <trkpt lat="47.47001" lon="6.74456">
        <ele>343</ele>
        <time>2015-03-08T08:52:59.000Z</time>
      </trkpt>
      <trkpt lat="47.46999" lon="6.74458">
        <ele>349</ele>
        <time>2015-03-08T08:53:00.000Z</time>
      </trkpt>
      <trkpt lat="47.46996" lon="6.74462">
        <ele>349</ele>
        <time>2015-03-08T08:53:02.000Z</time>
      </trkpt>
      <trkpt lat="47.46993" lon="6.74466">
        <ele>349</ele>
        <time>2015-03-08T08:53:04.000Z</time>
      </trkpt>
      <trkpt lat="47.46992" lon="6.74468">
        <ele>349</ele>
        <time>2015-03-08T08:53:05.000Z</time>
      </trkpt>
      <trkpt lat="47.46989" lon="6.74471">
        <ele>349</ele>
        <time>2015-03-08T08:53:07.000Z</time>
      </trkpt>
      <trkpt lat="47.46988" lon="6.74473">
        <ele>349</ele>
        <time>2015-03-08T08:53:08.000Z</time>
      </trkpt>
      <trkpt lat="47.46986" lon="6.74477">
        <ele>349</ele>
        <time>2015-03-08T08:53:10.000Z</time>
      </trkpt>
      <trkpt lat="47.46985" lon="6.74478">
        <ele>349</ele>
        <time>2015-03-08T08:53:11.000Z</time>
      </trkpt>
      <trkpt lat="47.46983" lon="6.74481">
        <ele>349</ele>
        <time>2015-03-08T08:53:13.000Z</time>
      </trkpt>
      <trkpt lat="47.46981" lon="6.74482">
        <ele>349</ele>
        <time>2015-03-08T08:53:14.000Z</time>
      </trkpt>
      <trkpt lat="47.46978" lon="6.74486">
        <ele>349</ele>
        <time>2015-03-08T08:53:17.000Z</time>
      </trkpt>
      <trkpt lat="47.46977" lon="6.74487">
        <ele>349</ele>
        <time>2015-03-08T08:53:18.000Z</time>
      </trkpt>
      <trkpt lat="47.46975" lon="6.74491">
        <ele>349</ele>
        <time>2015-03-08T08:53:21.000Z</time>
      </trkpt>
      <trkpt lat="47.46974" lon="6.74492">
        <ele>349</ele>
        <time>2015-03-08T08:53:22.000Z</time>
      </trkpt>
      <trkpt lat="47.4697" lon="6.74495">
        <ele>350</ele>
        <time>2015-03-08T08:53:26.000Z</time>
      </trkpt>
      <trkpt lat="47.46969" lon="6.74496">
        <ele>350</ele>
        <time>2015-03-08T08:53:27.000Z</time>
      </trkpt>
      <trkpt lat="47.46966" lon="6.745">
        <ele>348</ele>
        <time>2015-03-08T08:53:30.000Z</time>
      </trkpt>
      <trkpt lat="47.46965" lon="6.74502">
        <ele>348</ele>
        <time>2015-03-08T08:53:31.000Z</time>
      </trkpt>
      <trkpt lat="47.46962" lon="6.74505">
        <ele>348</ele>
        <time>2015-03-08T08:53:33.000Z</time>
      </trkpt>
      <trkpt lat="47.46961" lon="6.74506">
        <ele>348</ele>
        <time>2015-03-08T08:53:34.000Z</time>
      </trkpt>
      <trkpt lat="47.46958" lon="6.74508">
        <ele>348</ele>
        <time>2015-03-08T08:53:36.000Z</time>
      </trkpt>
      <trkpt lat="47.46956" lon="6.74508">
        <ele>348</ele>
        <time>2015-03-08T08:53:37.000Z</time>
      </trkpt>
      <trkpt lat="47.46952" lon="6.74509">
        <ele>348</ele>
        <time>2015-03-08T08:53:39.000Z</time>
      </trkpt>
      <trkpt lat="47.4695" lon="6.7451">
        <ele>349</ele>
        <time>2015-03-08T08:53:40.000Z</time>
      </trkpt>
      <trkpt lat="47.46947" lon="6.74511">
        <ele>349</ele>
        <time>2015-03-08T08:53:42.000Z</time>
      </trkpt>
      <trkpt lat="47.46945" lon="6.74512">
        <ele>349</ele>
        <time>2015-03-08T08:53:43.000Z</time>
      </trkpt>
      <trkpt lat="47.46943" lon="6.74513">
        <ele>349</ele>
        <time>2015-03-08T08:53:44.000Z</time>
      </trkpt>
      <trkpt lat="47.46941" lon="6.74515">
        <ele>349</ele>
        <time>2015-03-08T08:53:45.000Z</time>
      </trkpt>
      <trkpt lat="47.46939" lon="6.74518">
        <ele>349</ele>
        <time>2015-03-08T08:53:46.000Z</time>
      </trkpt>
      <trkpt lat="47.46937" lon="6.7452">
        <ele>349</ele>
        <time>2015-03-08T08:53:47.000Z</time>
      </trkpt>
      <trkpt lat="47.46934" lon="6.74525">
        <ele>349</ele>
        <time>2015-03-08T08:53:49.000Z</time>
      </trkpt>
      <trkpt lat="47.46933" lon="6.74527">
        <ele>349</ele>
        <time>2015-03-08T08:53:50.000Z</time>
      </trkpt>
      <trkpt lat="47.4693" lon="6.7453">
        <ele>349</ele>
        <time>2015-03-08T08:53:52.000Z</time>
      </trkpt>
      <trkpt lat="47.46929" lon="6.74531">
        <ele>349</ele>
        <time>2015-03-08T08:53:53.000Z</time>
      </trkpt>
      <trkpt lat="47.46925" lon="6.7453">
        <ele>349</ele>
        <time>2015-03-08T08:53:55.000Z</time>
      </trkpt>
      <trkpt lat="47.46924" lon="6.74529">
        <ele>349</ele>
        <time>2015-03-08T08:53:56.000Z</time>
      </trkpt>
      <trkpt lat="47.46923" lon="6.74523">
        <ele>349</ele>
        <time>2015-03-08T08:54:02.000Z</time>
      </trkpt>
      <trkpt lat="47.46923" lon="6.74522">
        <ele>349</ele>
        <time>2015-03-08T08:54:03.000Z</time>
      </trkpt>
      <trkpt lat="47.4692" lon="6.74526">
        <ele>349</ele>
        <time>2015-03-08T08:54:07.000Z</time>
      </trkpt>
      <trkpt lat="47.4692" lon="6.74528">
        <ele>349</ele>
        <time>2015-03-08T08:54:08.000Z</time>
      </trkpt>
      <trkpt lat="47.46923" lon="6.74533">
        <ele>349</ele>
        <time>2015-03-08T08:54:11.000Z</time>
      </trkpt>
      <trkpt lat="47.46924" lon="6.74532">
        <ele>349</ele>
        <time>2015-03-08T08:54:12.000Z</time>
      </trkpt>
      <trkpt lat="47.46927" lon="6.7453">
        <ele>349</ele>
        <time>2015-03-08T08:54:14.000Z</time>
      </trkpt>
      <trkpt lat="47.46928" lon="6.74529">
        <ele>349</ele>
        <time>2015-03-08T08:54:15.000Z</time>
      </trkpt>
      <trkpt lat="47.4693" lon="6.74526">
        <ele>349</ele>
        <time>2015-03-08T08:54:17.000Z</time>
      </trkpt>
      <trkpt lat="47.46932" lon="6.74525">
        <ele>349</ele>
        <time>2015-03-08T08:54:18.000Z</time>
      </trkpt>
      <trkpt lat="47.46935" lon="6.74521">
        <ele>349</ele>
        <time>2015-03-08T08:54:20.000Z</time>
      </trkpt>
      <trkpt lat="47.46936" lon="6.74521">
        <ele>349</ele>
        <time>2015-03-08T08:54:21.000Z</time>
      </trkpt>
      <trkpt lat="47.46932" lon="6.74523">
        <ele>349</ele>
        <time>2015-03-08T08:54:36.000Z</time>
      </trkpt>
      <trkpt lat="47.46931" lon="6.74524">
        <ele>349</ele>
        <time>2015-03-08T08:54:37.000Z</time>
      </trkpt>
      <trkpt lat="47.46928" lon="6.74526">
        <ele>349</ele>
        <time>2015-03-08T08:54:40.000Z</time>
      </trkpt>
      <trkpt lat="47.46927" lon="6.74527">
        <ele>349</ele>
        <time>2015-03-08T08:54:41.000Z</time>
      </trkpt>
      <trkpt lat="47.46923" lon="6.74526">
        <ele>349</ele>
        <time>2015-03-08T08:54:44.000Z</time>
      </trkpt>
      <trkpt lat="47.46921" lon="6.74524">
        <ele>349</ele>
        <time>2015-03-08T08:54:45.000Z</time>
      </trkpt>
      <trkpt lat="47.46919" lon="6.74521">
        <ele>349</ele>
        <time>2015-03-08T08:54:47.000Z</time>
      </trkpt>
      <trkpt lat="47.46918" lon="6.74518">
        <ele>350</ele>
        <time>2015-03-08T08:54:48.000Z</time>
      </trkpt>
      <trkpt lat="47.46916" lon="6.74514">
        <ele>354</ele>
        <time>2015-03-08T08:54:50.000Z</time>
      </trkpt>
      <trkpt lat="47.46915" lon="6.74512">
        <ele>354</ele>
        <time>2015-03-08T08:54:51.000Z</time>
      </trkpt>
      <trkpt lat="47.46914" lon="6.74506">
        <ele>353</ele>
        <time>2015-03-08T08:54:54.000Z</time>
      </trkpt>
      <trkpt lat="47.46914" lon="6.74503">
        <ele>353</ele>
        <time>2015-03-08T08:54:55.000Z</time>
      </trkpt>
      <trkpt lat="47.46913" lon="6.74499">
        <ele>354</ele>
        <time>2015-03-08T08:54:57.000Z</time>
      </trkpt>
      <trkpt lat="47.46913" lon="6.74496">
        <ele>355</ele>
        <time>2015-03-08T08:54:58.000Z</time>
      </trkpt>
      <trkpt lat="47.46913" lon="6.74491">
        <ele>356</ele>
        <time>2015-03-08T08:55:00.000Z</time>
      </trkpt>
      <trkpt lat="47.46913" lon="6.74489">
        <ele>357</ele>
        <time>2015-03-08T08:55:01.000Z</time>
      </trkpt>
      <trkpt lat="47.46912" lon="6.74484">
        <ele>358</ele>
        <time>2015-03-08T08:55:03.000Z</time>
      </trkpt>
      <trkpt lat="47.46911" lon="6.74482">
        <ele>359</ele>
        <time>2015-03-08T08:55:04.000Z</time>
      </trkpt>
      <trkpt lat="47.4691" lon="6.74477">
        <ele>360</ele>
        <time>2015-03-08T08:55:06.000Z</time>
      </trkpt>
      <trkpt lat="47.46909" lon="6.74474">
        <ele>360</ele>
        <time>2015-03-08T08:55:07.000Z</time>
      </trkpt>
      <trkpt lat="47.46909" lon="6.74468">
        <ele>361</ele>
        <time>2015-03-08T08:55:09.000Z</time>
      </trkpt>
      <trkpt lat="47.46909" lon="6.74466">
        <ele>361</ele>
        <time>2015-03-08T08:55:10.000Z</time>
      </trkpt>
      <trkpt lat="47.46908" lon="6.7446">
        <ele>362</ele>
        <time>2015-03-08T08:55:13.000Z</time>
      </trkpt>
      <trkpt lat="47.46907" lon="6.74457">
        <ele>362</ele>
        <time>2015-03-08T08:55:14.000Z</time>
      </trkpt>
      <trkpt lat="47.46905" lon="6.74452">
        <ele>362</ele>
        <time>2015-03-08T08:55:16.000Z</time>
      </trkpt>
      <trkpt lat="47.46904" lon="6.74449">
        <ele>362</ele>
        <time>2015-03-08T08:55:17.000Z</time>
      </trkpt>
      <trkpt lat="47.46902" lon="6.74444">
        <ele>362</ele>
        <time>2015-03-08T08:55:19.000Z</time>
      </trkpt>
      <trkpt lat="47.46901" lon="6.74442">
        <ele>363</ele>
        <time>2015-03-08T08:55:20.000Z</time>
      </trkpt>
      <trkpt lat="47.46899" lon="6.74437">
        <ele>363</ele>
        <time>2015-03-08T08:55:22.000Z</time>
      </trkpt>
      <trkpt lat="47.46899" lon="6.74434">
        <ele>363</ele>
        <time>2015-03-08T08:55:23.000Z</time>
      </trkpt>
      <trkpt lat="47.46898" lon="6.74427">
        <ele>362</ele>
        <time>2015-03-08T08:55:26.000Z</time>
      </trkpt>
      <trkpt lat="47.46898" lon="6.74426">
        <ele>362</ele>
        <time>2015-03-08T08:55:27.000Z</time>
      </trkpt>
      <trkpt lat="47.46897" lon="6.7442">
        <ele>362</ele>
        <time>2015-03-08T08:55:31.000Z</time>
      </trkpt>
      <trkpt lat="47.46897" lon="6.74418">
        <ele>362</ele>
        <time>2015-03-08T08:55:32.000Z</time>
      </trkpt>
      <trkpt lat="47.46898" lon="6.74413">
        <ele>367</ele>
        <time>2015-03-08T08:55:35.000Z</time>
      </trkpt>
      <trkpt lat="47.46898" lon="6.74411">
        <ele>367</ele>
        <time>2015-03-08T08:55:36.000Z</time>
      </trkpt>
      <trkpt lat="47.46897" lon="6.74405">
        <ele>368</ele>
        <time>2015-03-08T08:55:38.000Z</time>
      </trkpt>
      <trkpt lat="47.46896" lon="6.74402">
        <ele>369</ele>
        <time>2015-03-08T08:55:39.000Z</time>
      </trkpt>
      <trkpt lat="47.46894" lon="6.74397">
        <ele>370</ele>
        <time>2015-03-08T08:55:41.000Z</time>
      </trkpt>
      <trkpt lat="47.46894" lon="6.74395">
        <ele>370</ele>
        <time>2015-03-08T08:55:42.000Z</time>
      </trkpt>
      <trkpt lat="47.46893" lon="6.7439">
        <ele>371</ele>
        <time>2015-03-08T08:55:45.000Z</time>
      </trkpt>
      <trkpt lat="47.46892" lon="6.74389">
        <ele>371</ele>
        <time>2015-03-08T08:55:46.000Z</time>
      </trkpt>
      <trkpt lat="47.46893" lon="6.74383">
        <ele>372</ele>
        <time>2015-03-08T08:55:51.000Z</time>
      </trkpt>
      <trkpt lat="47.46894" lon="6.7438">
        <ele>372</ele>
        <time>2015-03-08T08:55:52.000Z</time>
      </trkpt>
      <trkpt lat="47.46894" lon="6.74375">
        <ele>372</ele>
        <time>2015-03-08T08:55:54.000Z</time>
      </trkpt>
      <trkpt lat="47.46894" lon="6.74373">
        <ele>372</ele>
        <time>2015-03-08T08:55:55.000Z</time>
      </trkpt>
      <trkpt lat="47.46896" lon="6.74369">
        <ele>372</ele>
        <time>2015-03-08T08:55:57.000Z</time>
      </trkpt>
      <trkpt lat="47.46897" lon="6.74367">
        <ele>372</ele>
        <time>2015-03-08T08:55:58.000Z</time>
      </trkpt>
      <trkpt lat="47.46898" lon="6.74362">
        <ele>372</ele>
        <time>2015-03-08T08:56:00.000Z</time>
      </trkpt>
      <trkpt lat="47.46897" lon="6.74359">
        <ele>372</ele>
        <time>2015-03-08T08:56:01.000Z</time>
      </trkpt>
      <trkpt lat="47.46897" lon="6.74354">
        <ele>372</ele>
        <time>2015-03-08T08:56:03.000Z</time>
      </trkpt>
      <trkpt lat="47.46897" lon="6.74352">
        <ele>372</ele>
        <time>2015-03-08T08:56:04.000Z</time>
      </trkpt>
      <trkpt lat="47.46897" lon="6.74346">
        <ele>372</ele>
        <time>2015-03-08T08:56:06.000Z</time>
      </trkpt>
      <trkpt lat="47.46897" lon="6.74343">
        <ele>372</ele>
        <time>2015-03-08T08:56:07.000Z</time>
      </trkpt>
      <trkpt lat="47.46897" lon="6.74338">
        <ele>372</ele>
        <time>2015-03-08T08:56:09.000Z</time>
      </trkpt>
      <trkpt lat="47.46897" lon="6.74335">
        <ele>372</ele>
        <time>2015-03-08T08:56:10.000Z</time>
      </trkpt>
      <trkpt lat="47.46898" lon="6.74329">
        <ele>377</ele>
        <time>2015-03-08T08:56:13.000Z</time>
      </trkpt>
      <trkpt lat="47.46897" lon="6.74327">
        <ele>377</ele>
        <time>2015-03-08T08:56:14.000Z</time>
      </trkpt>
      <trkpt lat="47.46897" lon="6.74322">
        <ele>378</ele>
        <time>2015-03-08T08:56:17.000Z</time>
      </trkpt>
      <trkpt lat="47.46896" lon="6.74319">
        <ele>378</ele>
        <time>2015-03-08T08:56:18.000Z</time>
      </trkpt>
      <trkpt lat="47.46896" lon="6.74313">
        <ele>379</ele>
        <time>2015-03-08T08:56:24.000Z</time>
      </trkpt>
      <trkpt lat="47.46896" lon="6.74312">
        <ele>379</ele>
        <time>2015-03-08T08:56:25.000Z</time>
      </trkpt>
      <trkpt lat="47.46896" lon="6.74306">
        <ele>380</ele>
        <time>2015-03-08T08:56:28.000Z</time>
      </trkpt>
      <trkpt lat="47.46896" lon="6.74304">
        <ele>380</ele>
        <time>2015-03-08T08:56:29.000Z</time>
      </trkpt>
      <trkpt lat="47.46896" lon="6.74299">
        <ele>381</ele>
        <time>2015-03-08T08:56:31.000Z</time>
      </trkpt>
      <trkpt lat="47.46896" lon="6.74297">
        <ele>381</ele>
        <time>2015-03-08T08:56:32.000Z</time>
      </trkpt>
      <trkpt lat="47.46897" lon="6.74292">
        <ele>381</ele>
        <time>2015-03-08T08:56:34.000Z</time>
      </trkpt>
      <trkpt lat="47.46898" lon="6.7429">
        <ele>381</ele>
        <time>2015-03-08T08:56:35.000Z</time>
      </trkpt>
      <trkpt lat="47.46899" lon="6.74284">
        <ele>381</ele>
        <time>2015-03-08T08:56:37.000Z</time>
      </trkpt>
      <trkpt lat="47.469" lon="6.74282">
        <ele>381</ele>
        <time>2015-03-08T08:56:38.000Z</time>
      </trkpt>
      <trkpt lat="47.46901" lon="6.74277">
        <ele>381</ele>
        <time>2015-03-08T08:56:41.000Z</time>
      </trkpt>
      <trkpt lat="47.46901" lon="6.74275">
        <ele>381</ele>
        <time>2015-03-08T08:56:42.000Z</time>
      </trkpt>
      <trkpt lat="47.46901" lon="6.74271">
        <ele>381</ele>
        <time>2015-03-08T08:56:44.000Z</time>
      </trkpt>
      <trkpt lat="47.46899" lon="6.74268">
        <ele>381</ele>
        <time>2015-03-08T08:56:45.000Z</time>
      </trkpt>
      <trkpt lat="47.46898" lon="6.74262">
        <ele>381</ele>
        <time>2015-03-08T08:56:47.000Z</time>
      </trkpt>
      <trkpt lat="47.46897" lon="6.7426">
        <ele>381</ele>
        <time>2015-03-08T08:56:48.000Z</time>
      </trkpt>
      <trkpt lat="47.46897" lon="6.74255">
        <ele>381</ele>
        <time>2015-03-08T08:56:50.000Z</time>
      </trkpt>
      <trkpt lat="47.46898" lon="6.74252">
        <ele>381</ele>
        <time>2015-03-08T08:56:51.000Z</time>
      </trkpt>
      <trkpt lat="47.469" lon="6.74247">
        <ele>383</ele>
        <time>2015-03-08T08:56:54.000Z</time>
      </trkpt>
      <trkpt lat="47.469" lon="6.74245">
        <ele>383</ele>
        <time>2015-03-08T08:56:55.000Z</time>
      </trkpt>
      <trkpt lat="47.46904" lon="6.74241">
        <ele>383</ele>
        <time>2015-03-08T08:56:58.000Z</time>
      </trkpt>
      <trkpt lat="47.46905" lon="6.7424">
        <ele>383</ele>
        <time>2015-03-08T08:56:59.000Z</time>
      </trkpt>
      <trkpt lat="47.46908" lon="6.74236">
        <ele>383</ele>
        <time>2015-03-08T08:57:03.000Z</time>
      </trkpt>
      <trkpt lat="47.46908" lon="6.74234">
        <ele>383</ele>
        <time>2015-03-08T08:57:04.000Z</time>
      </trkpt>
      <trkpt lat="47.46907" lon="6.74227">
        <ele>385</ele>
        <time>2015-03-08T08:57:07.000Z</time>
      </trkpt>
      <trkpt lat="47.46905" lon="6.74226">
        <ele>385</ele>
        <time>2015-03-08T08:57:08.000Z</time>
      </trkpt>
      <trkpt lat="47.46903" lon="6.74221">
        <ele>386</ele>
        <time>2015-03-08T08:57:10.000Z</time>
      </trkpt>
      <trkpt lat="47.46902" lon="6.7422">
        <ele>386</ele>
        <time>2015-03-08T08:57:11.000Z</time>
      </trkpt>
      <trkpt lat="47.469" lon="6.74214">
        <ele>387</ele>
        <time>2015-03-08T08:57:14.000Z</time>
      </trkpt>
      <trkpt lat="47.46899" lon="6.74212">
        <ele>387</ele>
        <time>2015-03-08T08:57:15.000Z</time>
      </trkpt>
      <trkpt lat="47.46899" lon="6.74207">
        <ele>388</ele>
        <time>2015-03-08T08:57:18.000Z</time>
      </trkpt>
      <trkpt lat="47.46899" lon="6.74205">
        <ele>388</ele>
        <time>2015-03-08T08:57:19.000Z</time>
      </trkpt>
      <trkpt lat="47.46897" lon="6.74199">
        <ele>388</ele>
        <time>2015-03-08T08:57:22.000Z</time>
      </trkpt>
      <trkpt lat="47.46897" lon="6.74197">
        <ele>388</ele>
        <time>2015-03-08T08:57:23.000Z</time>
      </trkpt>
      <trkpt lat="47.46898" lon="6.74192">
        <ele>388</ele>
        <time>2015-03-08T08:57:26.000Z</time>
      </trkpt>
      <trkpt lat="47.46898" lon="6.74189">
        <ele>388</ele>
        <time>2015-03-08T08:57:27.000Z</time>
      </trkpt>
      <trkpt lat="47.46899" lon="6.74185">
        <ele>388</ele>
        <time>2015-03-08T08:57:29.000Z</time>
      </trkpt>
      <trkpt lat="47.46899" lon="6.74183">
        <ele>387</ele>
        <time>2015-03-08T08:57:30.000Z</time>
      </trkpt>
      <trkpt lat="47.469" lon="6.74176">
        <ele>387</ele>
        <time>2015-03-08T08:57:33.000Z</time>
      </trkpt>
      <trkpt lat="47.469" lon="6.74174">
        <ele>387</ele>
        <time>2015-03-08T08:57:34.000Z</time>
      </trkpt>
      <trkpt lat="47.469" lon="6.74168">
        <ele>387</ele>
        <time>2015-03-08T08:57:37.000Z</time>
      </trkpt>
      <trkpt lat="47.469" lon="6.74165">
        <ele>388</ele>
        <time>2015-03-08T08:57:38.000Z</time>
      </trkpt>
      <trkpt lat="47.469" lon="6.7416">
        <ele>389</ele>
        <time>2015-03-08T08:57:40.000Z</time>
      </trkpt>
      <trkpt lat="47.469" lon="6.74157">
        <ele>389</ele>
        <time>2015-03-08T08:57:41.000Z</time>
      </trkpt>
      <trkpt lat="47.469" lon="6.74152">
        <ele>389</ele>
        <time>2015-03-08T08:57:43.000Z</time>
      </trkpt>
      <trkpt lat="47.469" lon="6.74149">
        <ele>390</ele>
        <time>2015-03-08T08:57:44.000Z</time>
      </trkpt>
      <trkpt lat="47.469" lon="6.74143">
        <ele>390</ele>
        <time>2015-03-08T08:57:46.000Z</time>
      </trkpt>
      <trkpt lat="47.469" lon="6.74141">
        <ele>391</ele>
        <time>2015-03-08T08:57:47.000Z</time>
      </trkpt>
      <trkpt lat="47.469" lon="6.74136">
        <ele>391</ele>
        <time>2015-03-08T08:57:49.000Z</time>
      </trkpt>
      <trkpt lat="47.46899" lon="6.74134">
        <ele>391</ele>
        <time>2015-03-08T08:57:50.000Z</time>
      </trkpt>
      <trkpt lat="47.46899" lon="6.74127">
        <ele>391</ele>
        <time>2015-03-08T08:57:53.000Z</time>
      </trkpt>
      <trkpt lat="47.46899" lon="6.74125">
        <ele>392</ele>
        <time>2015-03-08T08:57:54.000Z</time>
      </trkpt>
      <trkpt lat="47.469" lon="6.7412">
        <ele>392</ele>
        <time>2015-03-08T08:57:57.000Z</time>
      </trkpt>
      <trkpt lat="47.469" lon="6.74118">
        <ele>392</ele>
        <time>2015-03-08T08:57:58.000Z</time>
      </trkpt>
      <trkpt lat="47.469" lon="6.74112">
        <ele>392</ele>
        <time>2015-03-08T08:58:01.000Z</time>
      </trkpt>
      <trkpt lat="47.46899" lon="6.7411">
        <ele>391</ele>
        <time>2015-03-08T08:58:02.000Z</time>
      </trkpt>
      <trkpt lat="47.46899" lon="6.74105">
        <ele>391</ele>
        <time>2015-03-08T08:58:04.000Z</time>
      </trkpt>
      <trkpt lat="47.46899" lon="6.74103">
        <ele>391</ele>
        <time>2015-03-08T08:58:05.000Z</time>
      </trkpt>
      <trkpt lat="47.46898" lon="6.74098">
        <ele>391</ele>
        <time>2015-03-08T08:58:07.000Z</time>
      </trkpt>
      <trkpt lat="47.46897" lon="6.74096">
        <ele>391</ele>
        <time>2015-03-08T08:58:08.000Z</time>
      </trkpt>
      <trkpt lat="47.46898" lon="6.7409">
        <ele>391</ele>
        <time>2015-03-08T08:58:11.000Z</time>
      </trkpt>
      <trkpt lat="47.46898" lon="6.74088">
        <ele>391</ele>
        <time>2015-03-08T08:58:12.000Z</time>
      </trkpt>
      <trkpt lat="47.46898" lon="6.74083">
        <ele>391</ele>
        <time>2015-03-08T08:58:15.000Z</time>
      </trkpt>
      <trkpt lat="47.46897" lon="6.74081">
        <ele>391</ele>
        <time>2015-03-08T08:58:16.000Z</time>
      </trkpt>
      <trkpt lat="47.46895" lon="6.74077">
        <ele>392</ele>
        <time>2015-03-08T08:58:18.000Z</time>
      </trkpt>
      <trkpt lat="47.46895" lon="6.74075">
        <ele>392</ele>
        <time>2015-03-08T08:58:19.000Z</time>
      </trkpt>
      <trkpt lat="47.46894" lon="6.74069">
        <ele>392</ele>
        <time>2015-03-08T08:58:22.000Z</time>
      </trkpt>
      <trkpt lat="47.46894" lon="6.74067">
        <ele>392</ele>
        <time>2015-03-08T08:58:23.000Z</time>
      </trkpt>
      <trkpt lat="47.46892" lon="6.74062">
        <ele>393</ele>
        <time>2015-03-08T08:58:26.000Z</time>
      </trkpt>
      <trkpt lat="47.46891" lon="6.7406">
        <ele>393</ele>
        <time>2015-03-08T08:58:27.000Z</time>
      </trkpt>
      <trkpt lat="47.46891" lon="6.74054">
        <ele>393</ele>
        <time>2015-03-08T08:58:30.000Z</time>
      </trkpt>
      <trkpt lat="47.46891" lon="6.74052">
        <ele>393</ele>
        <time>2015-03-08T08:58:31.000Z</time>
      </trkpt>
      <trkpt lat="47.4689" lon="6.74048">
        <ele>393</ele>
        <time>2015-03-08T08:58:33.000Z</time>
      </trkpt>
      <trkpt lat="47.46889" lon="6.74045">
        <ele>393</ele>
        <time>2015-03-08T08:58:34.000Z</time>
      </trkpt>
      <trkpt lat="47.46888" lon="6.74041">
        <ele>394</ele>
        <time>2015-03-08T08:58:36.000Z</time>
      </trkpt>
      <trkpt lat="47.46888" lon="6.74039">
        <ele>394</ele>
        <time>2015-03-08T08:58:37.000Z</time>
      </trkpt>
      <trkpt lat="47.46887" lon="6.74033">
        <ele>394</ele>
        <time>2015-03-08T08:58:40.000Z</time>
      </trkpt>
      <trkpt lat="47.46886" lon="6.74032">
        <ele>394</ele>
        <time>2015-03-08T08:58:41.000Z</time>
      </trkpt>
      <trkpt lat="47.46886" lon="6.74025">
        <ele>394</ele>
        <time>2015-03-08T08:58:45.000Z</time>
      </trkpt>
      <trkpt lat="47.46886" lon="6.74023">
        <ele>394</ele>
        <time>2015-03-08T08:58:46.000Z</time>
      </trkpt>
      <trkpt lat="47.46885" lon="6.74017">
        <ele>394</ele>
        <time>2015-03-08T08:58:49.000Z</time>
      </trkpt>
      <trkpt lat="47.46884" lon="6.74015">
        <ele>394</ele>
        <time>2015-03-08T08:58:50.000Z</time>
      </trkpt>
      <trkpt lat="47.46882" lon="6.74009">
        <ele>394</ele>
        <time>2015-03-08T08:58:53.000Z</time>
      </trkpt>
      <trkpt lat="47.46882" lon="6.74007">
        <ele>394</ele>
        <time>2015-03-08T08:58:54.000Z</time>
      </trkpt>
      <trkpt lat="47.46881" lon="6.74003">
        <ele>394</ele>
        <time>2015-03-08T08:58:56.000Z</time>
      </trkpt>
      <trkpt lat="47.4688" lon="6.74001">
        <ele>394</ele>
        <time>2015-03-08T08:58:57.000Z</time>
      </trkpt>
      <trkpt lat="47.46878" lon="6.73997">
        <ele>395</ele>
        <time>2015-03-08T08:58:59.000Z</time>
      </trkpt>
      <trkpt lat="47.46878" lon="6.73994">
        <ele>395</ele>
        <time>2015-03-08T08:59:00.000Z</time>
      </trkpt>
      <trkpt lat="47.46876" lon="6.73991">
        <ele>395</ele>
        <time>2015-03-08T08:59:02.000Z</time>
      </trkpt>
      <trkpt lat="47.46875" lon="6.73989">
        <ele>395</ele>
        <time>2015-03-08T08:59:03.000Z</time>
      </trkpt>
      <trkpt lat="47.46873" lon="6.73983">
        <ele>395</ele>
        <time>2015-03-08T08:59:06.000Z</time>
      </trkpt>
      <trkpt lat="47.46872" lon="6.73981">
        <ele>395</ele>
        <time>2015-03-08T08:59:07.000Z</time>
      </trkpt>
      <trkpt lat="47.46871" lon="6.73977">
        <ele>396</ele>
        <time>2015-03-08T08:59:09.000Z</time>
      </trkpt>
      <trkpt lat="47.46871" lon="6.73974">
        <ele>396</ele>
        <time>2015-03-08T08:59:10.000Z</time>
      </trkpt>
      <trkpt lat="47.46869" lon="6.73969">
        <ele>396</ele>
        <time>2015-03-08T08:59:13.000Z</time>
      </trkpt>
      <trkpt lat="47.46868" lon="6.73967">
        <ele>396</ele>
        <time>2015-03-08T08:59:14.000Z</time>
      </trkpt>
      <trkpt lat="47.46867" lon="6.73961">
        <ele>396</ele>
        <time>2015-03-08T08:59:16.000Z</time>
      </trkpt>
      <trkpt lat="47.46867" lon="6.73959">
        <ele>396</ele>
        <time>2015-03-08T08:59:17.000Z</time>
      </trkpt>
      <trkpt lat="47.46865" lon="6.73953">
        <ele>396</ele>
        <time>2015-03-08T08:59:20.000Z</time>
      </trkpt>
      <trkpt lat="47.46864" lon="6.73951">
        <ele>396</ele>
        <time>2015-03-08T08:59:21.000Z</time>
      </trkpt>
      <trkpt lat="47.46862" lon="6.73947">
        <ele>397</ele>
        <time>2015-03-08T08:59:23.000Z</time>
      </trkpt>
      <trkpt lat="47.46861" lon="6.73944">
        <ele>397</ele>
        <time>2015-03-08T08:59:24.000Z</time>
      </trkpt>
      <trkpt lat="47.46858" lon="6.73939">
        <ele>397</ele>
        <time>2015-03-08T08:59:27.000Z</time>
      </trkpt>
      <trkpt lat="47.46857" lon="6.73937">
        <ele>397</ele>
        <time>2015-03-08T08:59:28.000Z</time>
      </trkpt>
      <trkpt lat="47.46856" lon="6.73931">
        <ele>397</ele>
        <time>2015-03-08T08:59:32.000Z</time>
      </trkpt>
      <trkpt lat="47.46855" lon="6.73929">
        <ele>398</ele>
        <time>2015-03-08T08:59:33.000Z</time>
      </trkpt>
      <trkpt lat="47.46853" lon="6.73925">
        <ele>398</ele>
        <time>2015-03-08T08:59:35.000Z</time>
      </trkpt>
      <trkpt lat="47.46853" lon="6.73923">
        <ele>398</ele>
        <time>2015-03-08T08:59:36.000Z</time>
      </trkpt>
      <trkpt lat="47.46851" lon="6.73917">
        <ele>398</ele>
        <time>2015-03-08T08:59:39.000Z</time>
      </trkpt>
      <trkpt lat="47.4685" lon="6.73914">
        <ele>400</ele>
        <time>2015-03-08T08:59:40.000Z</time>
      </trkpt>
      <trkpt lat="47.46849" lon="6.73908">
        <ele>400</ele>
        <time>2015-03-08T08:59:42.000Z</time>
      </trkpt>
      <trkpt lat="47.46849" lon="6.73906">
        <ele>400</ele>
        <time>2015-03-08T08:59:43.000Z</time>
      </trkpt>
      <trkpt lat="47.4685" lon="6.73901">
        <ele>400</ele>
        <time>2015-03-08T08:59:45.000Z</time>
      </trkpt>
      <trkpt lat="47.4685" lon="6.73898">
        <ele>399</ele>
        <time>2015-03-08T08:59:46.000Z</time>
      </trkpt>
      <trkpt lat="47.4685" lon="6.73893">
        <ele>399</ele>
        <time>2015-03-08T08:59:48.000Z</time>
      </trkpt>
      <trkpt lat="47.46849" lon="6.73891">
        <ele>400</ele>
        <time>2015-03-08T08:59:49.000Z</time>
      </trkpt>
      <trkpt lat="47.46849" lon="6.73887">
        <ele>400</ele>
        <time>2015-03-08T08:59:51.000Z</time>
      </trkpt>
      <trkpt lat="47.46848" lon="6.73884">
        <ele>400</ele>
        <time>2015-03-08T08:59:52.000Z</time>
      </trkpt>
      <trkpt lat="47.46847" lon="6.73878">
        <ele>400</ele>
        <time>2015-03-08T08:59:54.000Z</time>
      </trkpt>
      <trkpt lat="47.46846" lon="6.73875">
        <ele>400</ele>
        <time>2015-03-08T08:59:55.000Z</time>
      </trkpt>
      <trkpt lat="47.46844" lon="6.73869">
        <ele>400</ele>
        <time>2015-03-08T08:59:57.000Z</time>
      </trkpt>
      <trkpt lat="47.46844" lon="6.73866">
        <ele>400</ele>
        <time>2015-03-08T08:59:58.000Z</time>
      </trkpt>
      <trkpt lat="47.46842" lon="6.7386">
        <ele>401</ele>
        <time>2015-03-08T09:00:00.000Z</time>
      </trkpt>
      <trkpt lat="47.46841" lon="6.73857">
        <ele>401</ele>
        <time>2015-03-08T09:00:01.000Z</time>
      </trkpt>
      <trkpt lat="47.4684" lon="6.73851">
        <ele>402</ele>
        <time>2015-03-08T09:00:03.000Z</time>
      </trkpt>
      <trkpt lat="47.46839" lon="6.73849">
        <ele>402</ele>
        <time>2015-03-08T09:00:04.000Z</time>
      </trkpt>
      <trkpt lat="47.46837" lon="6.73843">
        <ele>403</ele>
        <time>2015-03-08T09:00:58.000Z</time>
      </trkpt>
      <trkpt lat="47.46837" lon="6.73843">
        <ele>403</ele>
        <time>2015-03-08T09:00:59.000Z</time>
      </trkpt>
      <trkpt lat="47.46837" lon="6.73837">
        <ele>404</ele>
        <time>2015-03-08T09:02:27.000Z</time>
      </trkpt>
      <trkpt lat="47.46837" lon="6.73837">
        <ele>404</ele>
        <time>2015-03-08T09:02:28.000Z</time>
      </trkpt>
      <trkpt lat="47.46833" lon="6.73834">
        <ele>405</ele>
        <time>2015-03-08T09:03:47.000Z</time>
      </trkpt>
      <trkpt lat="47.46833" lon="6.73833">
        <ele>405</ele>
        <time>2015-03-08T09:03:48.001Z</time>
      </trkpt>
      <trkpt lat="47.46836" lon="6.73831">
        <ele>404</ele>
        <time>2015-03-08T09:03:54.000Z</time>
      </trkpt>
      <trkpt lat="47.46836" lon="6.73829">
        <ele>404</ele>
        <time>2015-03-08T09:03:55.000Z</time>
      </trkpt>
      <trkpt lat="47.46836" lon="6.73824">
        <ele>403</ele>
        <time>2015-03-08T09:03:57.000Z</time>
      </trkpt>
      <trkpt lat="47.46835" lon="6.73821">
        <ele>403</ele>
        <time>2015-03-08T09:03:58.000Z</time>
      </trkpt>
      <trkpt lat="47.46834" lon="6.73817">
        <ele>402</ele>
        <time>2015-03-08T09:03:59.000Z</time>
      </trkpt>
      <trkpt lat="47.46832" lon="6.73814">
        <ele>403</ele>
        <time>2015-03-08T09:04:00.000Z</time>
      </trkpt>
      <trkpt lat="47.46831" lon="6.7381">
        <ele>403</ele>
        <time>2015-03-08T09:04:01.000Z</time>
      </trkpt>
      <trkpt lat="47.46829" lon="6.73806">
        <ele>402</ele>
        <time>2015-03-08T09:04:02.000Z</time>
      </trkpt>
      <trkpt lat="47.46828" lon="6.73803">
        <ele>402</ele>
        <time>2015-03-08T09:04:03.000Z</time>
      </trkpt>
      <trkpt lat="47.46827" lon="6.738">
        <ele>402</ele>
        <time>2015-03-08T09:04:04.000Z</time>
      </trkpt>
      <trkpt lat="47.46825" lon="6.73797">
        <ele>402</ele>
        <time>2015-03-08T09:04:05.000Z</time>
      </trkpt>
      <trkpt lat="47.46823" lon="6.73794">
        <ele>402</ele>
        <time>2015-03-08T09:04:06.000Z</time>
      </trkpt>
      <trkpt lat="47.4682" lon="6.7379">
        <ele>401</ele>
        <time>2015-03-08T09:04:07.000Z</time>
      </trkpt>
      <trkpt lat="47.46816" lon="6.73787">
        <ele>401</ele>
        <time>2015-03-08T09:04:08.000Z</time>
      </trkpt>
      <trkpt lat="47.46812" lon="6.73784">
        <ele>401</ele>
        <time>2015-03-08T09:04:09.000Z</time>
      </trkpt>
      <trkpt lat="47.46807" lon="6.73781">
        <ele>401</ele>
        <time>2015-03-08T09:04:10.000Z</time>
      </trkpt>
      <trkpt lat="47.46803" lon="6.73779">
        <ele>401</ele>
        <time>2015-03-08T09:04:11.000Z</time>
      </trkpt>
      <trkpt lat="47.468" lon="6.73778">
        <ele>401</ele>
        <time>2015-03-08T09:04:12.000Z</time>
      </trkpt>
      <trkpt lat="47.46793" lon="6.73777">
        <ele>400</ele>
        <time>2015-03-08T09:04:13.000Z</time>
      </trkpt>
      <trkpt lat="47.46788" lon="6.73777">
        <ele>400</ele>
        <time>2015-03-08T09:04:14.000Z</time>
      </trkpt>
      <trkpt lat="47.46783" lon="6.73779">
        <ele>400</ele>
        <time>2015-03-08T09:04:15.000Z</time>
      </trkpt>
      <trkpt lat="47.46779" lon="6.73782">
        <ele>400</ele>
        <time>2015-03-08T09:04:16.000Z</time>
      </trkpt>
      <trkpt lat="47.46775" lon="6.73784">
        <ele>400</ele>
        <time>2015-03-08T09:04:17.000Z</time>
      </trkpt>
      <trkpt lat="47.4677" lon="6.73787">
        <ele>400</ele>
        <time>2015-03-08T09:04:18.000Z</time>
      </trkpt>
      <trkpt lat="47.46765" lon="6.73789">
        <ele>400</ele>
        <time>2015-03-08T09:04:19.000Z</time>
      </trkpt>
      <trkpt lat="47.46761" lon="6.73792">
        <ele>400</ele>
        <time>2015-03-08T09:04:20.000Z</time>
      </trkpt>
      <trkpt lat="47.46757" lon="6.73795">
        <ele>400</ele>
        <time>2015-03-08T09:04:21.000Z</time>
      </trkpt>
      <trkpt lat="47.46752" lon="6.73798">
        <ele>400</ele>
        <time>2015-03-08T09:04:22.000Z</time>
      </trkpt>
      <trkpt lat="47.46747" lon="6.73801">
        <ele>399</ele>
        <time>2015-03-08T09:04:23.000Z</time>
      </trkpt>
      <trkpt lat="47.46744" lon="6.73804">
        <ele>399</ele>
        <time>2015-03-08T09:04:24.000Z</time>
      </trkpt>
      <trkpt lat="47.46738" lon="6.73807">
        <ele>399</ele>
        <time>2015-03-08T09:04:25.000Z</time>
      </trkpt>
      <trkpt lat="47.46734" lon="6.73811">
        <ele>399</ele>
        <time>2015-03-08T09:04:26.000Z</time>
      </trkpt>
      <trkpt lat="47.46729" lon="6.73813">
        <ele>400</ele>
        <time>2015-03-08T09:04:27.000Z</time>
      </trkpt>
      <trkpt lat="47.46725" lon="6.73814">
        <ele>399</ele>
        <time>2015-03-08T09:04:28.000Z</time>
      </trkpt>
      <trkpt lat="47.46721" lon="6.73817">
        <ele>399</ele>
        <time>2015-03-08T09:04:29.000Z</time>
      </trkpt>
      <trkpt lat="47.46717" lon="6.73818">
        <ele>399</ele>
        <time>2015-03-08T09:04:30.001Z</time>
      </trkpt>
      <trkpt lat="47.46713" lon="6.73822">
        <ele>399</ele>
        <time>2015-03-08T09:04:31.000Z</time>
      </trkpt>
      <trkpt lat="47.4671" lon="6.73825">
        <ele>400</ele>
        <time>2015-03-08T09:04:32.000Z</time>
      </trkpt>
      <trkpt lat="47.46702" lon="6.73837">
        <ele>401</ele>
        <time>2015-03-08T09:04:33.000Z</time>
      </trkpt>
      <trkpt lat="47.46699" lon="6.7384">
        <ele>401</ele>
        <time>2015-03-08T09:04:34.000Z</time>
      </trkpt>
      <trkpt lat="47.46696" lon="6.73845">
        <ele>401</ele>
        <time>2015-03-08T09:04:35.000Z</time>
      </trkpt>
      <trkpt lat="47.46696" lon="6.73849">
        <ele>401</ele>
        <time>2015-03-08T09:04:36.000Z</time>
      </trkpt>
      <trkpt lat="47.46693" lon="6.73854">
        <ele>401</ele>
        <time>2015-03-08T09:04:37.000Z</time>
      </trkpt>
      <trkpt lat="47.46686" lon="6.73859">
        <ele>401</ele>
        <time>2015-03-08T09:04:38.000Z</time>
      </trkpt>
      <trkpt lat="47.46682" lon="6.73861">
        <ele>401</ele>
        <time>2015-03-08T09:04:39.000Z</time>
      </trkpt>
      <trkpt lat="47.4668" lon="6.73863">
        <ele>401</ele>
        <time>2015-03-08T09:04:40.000Z</time>
      </trkpt>
      <trkpt lat="47.46676" lon="6.73862">
        <ele>401</ele>
        <time>2015-03-08T09:04:41.000Z</time>
      </trkpt>
      <trkpt lat="47.46671" lon="6.7386">
        <ele>401</ele>
        <time>2015-03-08T09:04:42.000Z</time>
      </trkpt>
      <trkpt lat="47.46667" lon="6.73857">
        <ele>401</ele>
        <time>2015-03-08T09:04:43.000Z</time>
      </trkpt>
      <trkpt lat="47.46665" lon="6.73855">
        <ele>403</ele>
        <time>2015-03-08T09:04:44.000Z</time>
      </trkpt>
      <trkpt lat="47.46667" lon="6.73851">
        <ele>401</ele>
        <time>2015-03-08T09:04:46.000Z</time>
      </trkpt>
      <trkpt lat="47.46669" lon="6.73849">
        <ele>401</ele>
        <time>2015-03-08T09:04:47.000Z</time>
      </trkpt>
      <trkpt lat="47.46669" lon="6.73843">
        <ele>401</ele>
        <time>2015-03-08T09:04:56.000Z</time>
      </trkpt>
      <trkpt lat="47.46669" lon="6.73842">
        <ele>401</ele>
        <time>2015-03-08T09:04:57.000Z</time>
      </trkpt>
      <trkpt lat="47.46667" lon="6.73837">
        <ele>401</ele>
        <time>2015-03-08T09:06:05.000Z</time>
      </trkpt>
      <trkpt lat="47.46667" lon="6.73836">
        <ele>401</ele>
        <time>2015-03-08T09:06:06.000Z</time>
      </trkpt>
      <trkpt lat="47.46668" lon="6.73831">
        <ele>401</ele>
        <time>2015-03-08T09:06:08.000Z</time>
      </trkpt>
      <trkpt lat="47.46668" lon="6.73829">
        <ele>401</ele>
        <time>2015-03-08T09:06:09.000Z</time>
      </trkpt>
      <trkpt lat="47.46669" lon="6.73824">
        <ele>400</ele>
        <time>2015-03-08T09:06:11.000Z</time>
      </trkpt>
      <trkpt lat="47.46669" lon="6.73821">
        <ele>400</ele>
        <time>2015-03-08T09:06:12.000Z</time>
      </trkpt>
      <trkpt lat="47.46669" lon="6.73816">
        <ele>400</ele>
        <time>2015-03-08T09:06:14.000Z</time>
      </trkpt>
      <trkpt lat="47.46669" lon="6.73814">
        <ele>400</ele>
        <time>2015-03-08T09:06:15.000Z</time>
      </trkpt>
      <trkpt lat="47.46668" lon="6.73809">
        <ele>399</ele>
        <time>2015-03-08T09:06:18.000Z</time>
      </trkpt>
      <trkpt lat="47.46667" lon="6.73806">
        <ele>399</ele>
        <time>2015-03-08T09:06:19.000Z</time>
      </trkpt>
      <trkpt lat="47.46665" lon="6.73802">
        <ele>401</ele>
        <time>2015-03-08T09:06:21.001Z</time>
      </trkpt>
      <trkpt lat="47.46663" lon="6.73796">
        <ele>401</ele>
        <time>2015-03-08T09:06:22.000Z</time>
      </trkpt>
      <trkpt lat="47.4666" lon="6.73792">
        <ele>401</ele>
        <time>2015-03-08T09:06:23.000Z</time>
      </trkpt>
      <trkpt lat="47.46656" lon="6.73786">
        <ele>401</ele>
        <time>2015-03-08T09:06:24.000Z</time>
      </trkpt>
      <trkpt lat="47.46651" lon="6.73779">
        <ele>400</ele>
        <time>2015-03-08T09:06:25.000Z</time>
      </trkpt>
      <trkpt lat="47.46647" lon="6.73774">
        <ele>400</ele>
        <time>2015-03-08T09:06:26.000Z</time>
      </trkpt>
      <trkpt lat="47.46643" lon="6.7377">
        <ele>400</ele>
        <time>2015-03-08T09:06:27.000Z</time>
      </trkpt>
      <trkpt lat="47.4664" lon="6.73767">
        <ele>400</ele>
        <time>2015-03-08T09:06:28.000Z</time>
      </trkpt>
      <trkpt lat="47.46638" lon="6.73764">
        <ele>400</ele>
        <time>2015-03-08T09:06:29.000Z</time>
      </trkpt>
      <trkpt lat="47.46635" lon="6.7376">
        <ele>400</ele>
        <time>2015-03-08T09:06:31.000Z</time>
      </trkpt>
      <trkpt lat="47.46634" lon="6.73757">
        <ele>401</ele>
        <time>2015-03-08T09:06:32.000Z</time>
      </trkpt>
      <trkpt lat="47.46632" lon="6.73755">
        <ele>401</ele>
        <time>2015-03-08T09:06:33.000Z</time>
      </trkpt>
      <trkpt lat="47.46629" lon="6.73753">
        <ele>401</ele>
        <time>2015-03-08T09:06:34.000Z</time>
      </trkpt>
      <trkpt lat="47.46627" lon="6.73751">
        <ele>401</ele>
        <time>2015-03-08T09:06:35.000Z</time>
      </trkpt>
      <trkpt lat="47.46624" lon="6.73748">
        <ele>395</ele>
        <time>2015-03-08T09:06:36.000Z</time>
      </trkpt>
      <trkpt lat="47.46622" lon="6.73746">
        <ele>395</ele>
        <time>2015-03-08T09:06:37.000Z</time>
      </trkpt>
      <trkpt lat="47.4662" lon="6.73745">
        <ele>396</ele>
        <time>2015-03-08T09:06:38.000Z</time>
      </trkpt>
      <trkpt lat="47.46617" lon="6.73745">
        <ele>396</ele>
        <time>2015-03-08T09:06:39.000Z</time>
      </trkpt>
      <trkpt lat="47.46614" lon="6.73745">
        <ele>396</ele>
        <time>2015-03-08T09:06:40.000Z</time>
      </trkpt>
      <trkpt lat="47.46612" lon="6.73745">
        <ele>396</ele>
        <time>2015-03-08T09:06:41.000Z</time>
      </trkpt>
      <trkpt lat="47.46609" lon="6.73745">
        <ele>397</ele>
        <time>2015-03-08T09:06:42.000Z</time>
      </trkpt>
      <trkpt lat="47.46606" lon="6.73745">
        <ele>397</ele>
        <time>2015-03-08T09:06:43.000Z</time>
      </trkpt>
      <trkpt lat="47.46602" lon="6.73745">
        <ele>398</ele>
        <time>2015-03-08T09:06:44.000Z</time>
      </trkpt>
      <trkpt lat="47.46599" lon="6.73745">
        <ele>398</ele>
        <time>2015-03-08T09:06:45.000Z</time>
      </trkpt>
      <trkpt lat="47.46597" lon="6.73745">
        <ele>399</ele>
        <time>2015-03-08T09:06:46.000Z</time>
      </trkpt>
      <trkpt lat="47.46595" lon="6.73744">
        <ele>399</ele>
        <time>2015-03-08T09:06:47.000Z</time>
      </trkpt>
      <trkpt lat="47.46592" lon="6.73743">
        <ele>399</ele>
        <time>2015-03-08T09:06:48.000Z</time>
      </trkpt>
      <trkpt lat="47.46588" lon="6.73742">
        <ele>400</ele>
        <time>2015-03-08T09:06:50.000Z</time>
      </trkpt>
      <trkpt lat="47.46585" lon="6.7374">
        <ele>400</ele>
        <time>2015-03-08T09:06:51.000Z</time>
      </trkpt>
      <trkpt lat="47.4658" lon="6.73738">
        <ele>402</ele>
        <time>2015-03-08T09:06:53.000Z</time>
      </trkpt>
      <trkpt lat="47.46579" lon="6.73737">
        <ele>402</ele>
        <time>2015-03-08T09:06:54.000Z</time>
      </trkpt>
      <trkpt lat="47.46575" lon="6.73734">
        <ele>402</ele>
        <time>2015-03-08T09:06:57.000Z</time>
      </trkpt>
      <trkpt lat="47.46573" lon="6.73733">
        <ele>402</ele>
        <time>2015-03-08T09:06:58.000Z</time>
      </trkpt>
      <trkpt lat="47.4657" lon="6.73732">
        <ele>402</ele>
        <time>2015-03-08T09:06:59.000Z</time>
      </trkpt>
      <trkpt lat="47.46568" lon="6.7373">
        <ele>402</ele>
        <time>2015-03-08T09:07:00.000Z</time>
      </trkpt>
      <trkpt lat="47.46566" lon="6.73729">
        <ele>402</ele>
        <time>2015-03-08T09:07:01.000Z</time>
      </trkpt>
      <trkpt lat="47.46563" lon="6.73729">
        <ele>402</ele>
        <time>2015-03-08T09:07:02.000Z</time>
      </trkpt>
      <trkpt lat="47.46561" lon="6.73728">
        <ele>402</ele>
        <time>2015-03-08T09:07:03.000Z</time>
      </trkpt>
      <trkpt lat="47.46558" lon="6.73727">
        <ele>402</ele>
        <time>2015-03-08T09:07:04.000Z</time>
      </trkpt>
      <trkpt lat="47.46556" lon="6.73726">
        <ele>402</ele>
        <time>2015-03-08T09:07:05.000Z</time>
      </trkpt>
      <trkpt lat="47.46553" lon="6.73724">
        <ele>402</ele>
        <time>2015-03-08T09:07:06.000Z</time>
      </trkpt>
      <trkpt lat="47.4655" lon="6.73723">
        <ele>402</ele>
        <time>2015-03-08T09:07:07.000Z</time>
      </trkpt>
      <trkpt lat="47.46547" lon="6.73721">
        <ele>402</ele>
        <time>2015-03-08T09:07:08.000Z</time>
      </trkpt>
      <trkpt lat="47.46543" lon="6.73721">
        <ele>402</ele>
        <time>2015-03-08T09:07:09.000Z</time>
      </trkpt>
      <trkpt lat="47.46539" lon="6.7372">
        <ele>402</ele>
        <time>2015-03-08T09:07:10.000Z</time>
      </trkpt>
      <trkpt lat="47.46536" lon="6.7372">
        <ele>402</ele>
        <time>2015-03-08T09:07:11.000Z</time>
      </trkpt>
      <trkpt lat="47.46533" lon="6.73719">
        <ele>402</ele>
        <time>2015-03-08T09:07:12.000Z</time>
      </trkpt>
      <trkpt lat="47.4653" lon="6.73718">
        <ele>402</ele>
        <time>2015-03-08T09:07:13.000Z</time>
      </trkpt>
      <trkpt lat="47.46527" lon="6.73718">
        <ele>402</ele>
        <time>2015-03-08T09:07:14.000Z</time>
      </trkpt>
      <trkpt lat="47.46524" lon="6.73717">
        <ele>403</ele>
        <time>2015-03-08T09:07:15.000Z</time>
      </trkpt>
      <trkpt lat="47.46522" lon="6.73717">
        <ele>403</ele>
        <time>2015-03-08T09:07:16.000Z</time>
      </trkpt>
      <trkpt lat="47.46519" lon="6.73716">
        <ele>403</ele>
        <time>2015-03-08T09:07:17.000Z</time>
      </trkpt>
      <trkpt lat="47.46516" lon="6.73715">
        <ele>403</ele>
        <time>2015-03-08T09:07:18.000Z</time>
      </trkpt>
      <trkpt lat="47.46513" lon="6.73714">
        <ele>403</ele>
        <time>2015-03-08T09:07:19.000Z</time>
      </trkpt>
      <trkpt lat="47.4651" lon="6.73714">
        <ele>403</ele>
        <time>2015-03-08T09:07:20.000Z</time>
      </trkpt>
      <trkpt lat="47.46506" lon="6.73713">
        <ele>403</ele>
        <time>2015-03-08T09:07:21.000Z</time>
      </trkpt>
      <trkpt lat="47.46502" lon="6.73713">
        <ele>403</ele>
        <time>2015-03-08T09:07:22.000Z</time>
      </trkpt>
      <trkpt lat="47.46499" lon="6.73712">
        <ele>409</ele>
        <time>2015-03-08T09:07:23.000Z</time>
      </trkpt>
      <trkpt lat="47.46495" lon="6.73712">
        <ele>409</ele>
        <time>2015-03-08T09:07:24.000Z</time>
      </trkpt>
      <trkpt lat="47.46492" lon="6.73712">
        <ele>409</ele>
        <time>2015-03-08T09:07:25.000Z</time>
      </trkpt>
      <trkpt lat="47.46489" lon="6.73713">
        <ele>409</ele>
        <time>2015-03-08T09:07:26.000Z</time>
      </trkpt>
      <trkpt lat="47.46485" lon="6.73715">
        <ele>409</ele>
        <time>2015-03-08T09:07:28.000Z</time>
      </trkpt>
      <trkpt lat="47.46483" lon="6.73716">
        <ele>409</ele>
        <time>2015-03-08T09:07:29.000Z</time>
      </trkpt>
      <trkpt lat="47.46479" lon="6.73719">
        <ele>410</ele>
        <time>2015-03-08T09:07:31.000Z</time>
      </trkpt>
      <trkpt lat="47.46477" lon="6.7372">
        <ele>410</ele>
        <time>2015-03-08T09:07:32.000Z</time>
      </trkpt>
      <trkpt lat="47.46474" lon="6.73723">
        <ele>410</ele>
        <time>2015-03-08T09:07:34.000Z</time>
      </trkpt>
      <trkpt lat="47.46472" lon="6.73725">
        <ele>410</ele>
        <time>2015-03-08T09:07:35.000Z</time>
      </trkpt>
      <trkpt lat="47.46469" lon="6.73728">
        <ele>410</ele>
        <time>2015-03-08T09:07:37.000Z</time>
      </trkpt>
      <trkpt lat="47.46468" lon="6.7373">
        <ele>410</ele>
        <time>2015-03-08T09:07:38.000Z</time>
      </trkpt>
      <trkpt lat="47.46465" lon="6.73734">
        <ele>410</ele>
        <time>2015-03-08T09:07:40.000Z</time>
      </trkpt>
      <trkpt lat="47.46464" lon="6.73736">
        <ele>411</ele>
        <time>2015-03-08T09:07:41.000Z</time>
      </trkpt>
      <trkpt lat="47.46461" lon="6.7374">
        <ele>411</ele>
        <time>2015-03-08T09:07:43.000Z</time>
      </trkpt>
      <trkpt lat="47.46459" lon="6.73741">
        <ele>411</ele>
        <time>2015-03-08T09:07:44.000Z</time>
      </trkpt>
      <trkpt lat="47.46456" lon="6.73744">
        <ele>411</ele>
        <time>2015-03-08T09:07:46.000Z</time>
      </trkpt>
      <trkpt lat="47.46455" lon="6.73744">
        <ele>411</ele>
        <time>2015-03-08T09:07:47.000Z</time>
      </trkpt>
      <trkpt lat="47.46451" lon="6.73744">
        <ele>412</ele>
        <time>2015-03-08T09:07:49.000Z</time>
      </trkpt>
      <trkpt lat="47.4645" lon="6.73744">
        <ele>412</ele>
        <time>2015-03-08T09:07:50.000Z</time>
      </trkpt>
      <trkpt lat="47.46446" lon="6.73743">
        <ele>412</ele>
        <time>2015-03-08T09:07:52.000Z</time>
      </trkpt>
      <trkpt lat="47.46444" lon="6.73743">
        <ele>412</ele>
        <time>2015-03-08T09:07:53.000Z</time>
      </trkpt>
      <trkpt lat="47.46441" lon="6.73744">
        <ele>412</ele>
        <time>2015-03-08T09:07:56.000Z</time>
      </trkpt>
      <trkpt lat="47.46439" lon="6.73745">
        <ele>413</ele>
        <time>2015-03-08T09:07:57.000Z</time>
      </trkpt>
      <trkpt lat="47.46436" lon="6.73748">
        <ele>413</ele>
        <time>2015-03-08T09:08:00.000Z</time>
      </trkpt>
      <trkpt lat="47.46435" lon="6.73748">
        <ele>413</ele>
        <time>2015-03-08T09:08:01.000Z</time>
      </trkpt>
      <trkpt lat="47.46431" lon="6.73749">
        <ele>414</ele>
        <time>2015-03-08T09:08:03.000Z</time>
      </trkpt>
      <trkpt lat="47.4643" lon="6.73749">
        <ele>414</ele>
        <time>2015-03-08T09:08:04.000Z</time>
      </trkpt>
      <trkpt lat="47.46426" lon="6.73748">
        <ele>414</ele>
        <time>2015-03-08T09:08:06.000Z</time>
      </trkpt>
      <trkpt lat="47.46425" lon="6.73749">
        <ele>415</ele>
        <time>2015-03-08T09:08:07.000Z</time>
      </trkpt>
      <trkpt lat="47.46422" lon="6.73748">
        <ele>415</ele>
        <time>2015-03-08T09:08:08.000Z</time>
      </trkpt>
      <trkpt lat="47.4642" lon="6.73748">
        <ele>415</ele>
        <time>2015-03-08T09:08:09.000Z</time>
      </trkpt>
      <trkpt lat="47.46416" lon="6.73746">
        <ele>416</ele>
        <time>2015-03-08T09:08:10.000Z</time>
      </trkpt>
      <trkpt lat="47.46413" lon="6.73746">
        <ele>416</ele>
        <time>2015-03-08T09:08:11.000Z</time>
      </trkpt>
      <trkpt lat="47.4641" lon="6.73745">
        <ele>416</ele>
        <time>2015-03-08T09:08:12.001Z</time>
      </trkpt>
      <trkpt lat="47.46406" lon="6.73744">
        <ele>417</ele>
        <time>2015-03-08T09:08:13.000Z</time>
      </trkpt>
      <trkpt lat="47.46404" lon="6.73743">
        <ele>417</ele>
        <time>2015-03-08T09:08:14.000Z</time>
      </trkpt>
      <trkpt lat="47.46401" lon="6.73742">
        <ele>417</ele>
        <time>2015-03-08T09:08:15.000Z</time>
      </trkpt>
      <trkpt lat="47.46397" lon="6.7374">
        <ele>417</ele>
        <time>2015-03-08T09:08:17.000Z</time>
      </trkpt>
      <trkpt lat="47.46396" lon="6.73739">
        <ele>417</ele>
        <time>2015-03-08T09:08:18.000Z</time>
      </trkpt>
      <trkpt lat="47.46392" lon="6.73739">
        <ele>417</ele>
        <time>2015-03-08T09:08:20.000Z</time>
      </trkpt>
      <trkpt lat="47.46391" lon="6.7374">
        <ele>417</ele>
        <time>2015-03-08T09:08:21.000Z</time>
      </trkpt>
      <trkpt lat="47.46387" lon="6.73741">
        <ele>417</ele>
        <time>2015-03-08T09:08:26.000Z</time>
      </trkpt>
      <trkpt lat="47.46385" lon="6.73741">
        <ele>417</ele>
        <time>2015-03-08T09:08:27.000Z</time>
      </trkpt>
      <trkpt lat="47.46382" lon="6.73739">
        <ele>417</ele>
        <time>2015-03-08T09:08:29.000Z</time>
      </trkpt>
      <trkpt lat="47.46379" lon="6.73738">
        <ele>417</ele>
        <time>2015-03-08T09:08:30.000Z</time>
      </trkpt>
      <trkpt lat="47.46377" lon="6.73737">
        <ele>417</ele>
        <time>2015-03-08T09:08:31.000Z</time>
      </trkpt>
      <trkpt lat="47.46374" lon="6.73736">
        <ele>418</ele>
        <time>2015-03-08T09:08:32.000Z</time>
      </trkpt>
      <trkpt lat="47.46372" lon="6.73735">
        <ele>418</ele>
        <time>2015-03-08T09:08:33.000Z</time>
      </trkpt>
      <trkpt lat="47.46369" lon="6.73734">
        <ele>418</ele>
        <time>2015-03-08T09:08:34.000Z</time>
      </trkpt>
      <trkpt lat="47.46365" lon="6.73733">
        <ele>418</ele>
        <time>2015-03-08T09:08:36.000Z</time>
      </trkpt>
      <trkpt lat="47.46363" lon="6.73732">
        <ele>418</ele>
        <time>2015-03-08T09:08:37.000Z</time>
      </trkpt>
      <trkpt lat="47.4636" lon="6.7373">
        <ele>418</ele>
        <time>2015-03-08T09:08:39.000Z</time>
      </trkpt>
      <trkpt lat="47.46358" lon="6.7373">
        <ele>418</ele>
        <time>2015-03-08T09:08:40.000Z</time>
      </trkpt>
      <trkpt lat="47.46354" lon="6.73729">
        <ele>418</ele>
        <time>2015-03-08T09:08:42.000Z</time>
      </trkpt>
      <trkpt lat="47.46353" lon="6.73728">
        <ele>418</ele>
        <time>2015-03-08T09:08:43.000Z</time>
      </trkpt>
      <trkpt lat="47.46349" lon="6.73727">
        <ele>418</ele>
        <time>2015-03-08T09:08:45.000Z</time>
      </trkpt>
      <trkpt lat="47.46347" lon="6.73727">
        <ele>418</ele>
        <time>2015-03-08T09:08:46.000Z</time>
      </trkpt>
      <trkpt lat="47.46343" lon="6.73725">
        <ele>418</ele>
        <time>2015-03-08T09:08:48.000Z</time>
      </trkpt>
      <trkpt lat="47.46341" lon="6.73724">
        <ele>418</ele>
        <time>2015-03-08T09:08:49.000Z</time>
      </trkpt>
      <trkpt lat="47.46339" lon="6.73723">
        <ele>418</ele>
        <time>2015-03-08T09:08:50.000Z</time>
      </trkpt>
      <trkpt lat="47.46337" lon="6.73721">
        <ele>418</ele>
        <time>2015-03-08T09:08:51.000Z</time>
      </trkpt>
      <trkpt lat="47.46335" lon="6.7372">
        <ele>418</ele>
        <time>2015-03-08T09:08:52.000Z</time>
      </trkpt>
      <trkpt lat="47.46332" lon="6.73719">
        <ele>420</ele>
        <time>2015-03-08T09:08:53.000Z</time>
      </trkpt>
      <trkpt lat="47.46328" lon="6.73718">
        <ele>420</ele>
        <time>2015-03-08T09:08:55.000Z</time>
      </trkpt>
      <trkpt lat="47.46327" lon="6.73718">
        <ele>420</ele>
        <time>2015-03-08T09:08:56.000Z</time>
      </trkpt>
      <trkpt lat="47.46324" lon="6.73717">
        <ele>420</ele>
        <time>2015-03-08T09:09:00.000Z</time>
      </trkpt>
      <trkpt lat="47.46322" lon="6.73717">
        <ele>420</ele>
        <time>2015-03-08T09:09:01.000Z</time>
      </trkpt>
      <trkpt lat="47.46319" lon="6.73716">
        <ele>420</ele>
        <time>2015-03-08T09:09:02.000Z</time>
      </trkpt>
      <trkpt lat="47.46316" lon="6.73716">
        <ele>420</ele>
        <time>2015-03-08T09:09:03.000Z</time>
      </trkpt>
      <trkpt lat="47.46314" lon="6.73715">
        <ele>420</ele>
        <time>2015-03-08T09:09:04.000Z</time>
      </trkpt>
      <trkpt lat="47.46311" lon="6.73715">
        <ele>420</ele>
        <time>2015-03-08T09:09:05.000Z</time>
      </trkpt>
      <trkpt lat="47.46309" lon="6.73715">
        <ele>420</ele>
        <time>2015-03-08T09:09:06.000Z</time>
      </trkpt>
      <trkpt lat="47.46306" lon="6.73715">
        <ele>420</ele>
        <time>2015-03-08T09:09:07.000Z</time>
      </trkpt>
      <trkpt lat="47.46304" lon="6.73715">
        <ele>420</ele>
        <time>2015-03-08T09:09:08.000Z</time>
      </trkpt>
      <trkpt lat="47.46301" lon="6.73715">
        <ele>420</ele>
        <time>2015-03-08T09:09:09.000Z</time>
      </trkpt>
      <trkpt lat="47.46298" lon="6.73715">
        <ele>420</ele>
        <time>2015-03-08T09:09:10.000Z</time>
      </trkpt>
      <trkpt lat="47.46296" lon="6.73714">
        <ele>420</ele>
        <time>2015-03-08T09:09:11.000Z</time>
      </trkpt>
      <trkpt lat="47.46293" lon="6.73714">
        <ele>420</ele>
        <time>2015-03-08T09:09:12.000Z</time>
      </trkpt>
      <trkpt lat="47.4629" lon="6.73714">
        <ele>420</ele>
        <time>2015-03-08T09:09:13.000Z</time>
      </trkpt>
      <trkpt lat="47.46287" lon="6.73713">
        <ele>420</ele>
        <time>2015-03-08T09:09:14.000Z</time>
      </trkpt>
      <trkpt lat="47.46284" lon="6.73713">
        <ele>420</ele>
        <time>2015-03-08T09:09:15.000Z</time>
      </trkpt>
      <trkpt lat="47.4628" lon="6.73714">
        <ele>420</ele>
        <time>2015-03-08T09:09:16.000Z</time>
      </trkpt>
      <trkpt lat="47.46277" lon="6.73713">
        <ele>420</ele>
        <time>2015-03-08T09:09:17.000Z</time>
      </trkpt>
      <trkpt lat="47.46274" lon="6.73713">
        <ele>420</ele>
        <time>2015-03-08T09:09:18.000Z</time>
      </trkpt>
      <trkpt lat="47.4627" lon="6.73713">
        <ele>420</ele>
        <time>2015-03-08T09:09:19.000Z</time>
      </trkpt>
      <trkpt lat="47.46267" lon="6.73713">
        <ele>420</ele>
        <time>2015-03-08T09:09:20.000Z</time>
      </trkpt>
      <trkpt lat="47.46264" lon="6.73712">
        <ele>420</ele>
        <time>2015-03-08T09:09:21.000Z</time>
      </trkpt>
      <trkpt lat="47.46261" lon="6.73712">
        <ele>420</ele>
        <time>2015-03-08T09:09:22.000Z</time>
      </trkpt>
      <trkpt lat="47.46258" lon="6.73712">
        <ele>420</ele>
        <time>2015-03-08T09:09:23.000Z</time>
      </trkpt>
      <trkpt lat="47.46255" lon="6.73713">
        <ele>420</ele>
        <time>2015-03-08T09:09:24.000Z</time>
      </trkpt>
      <trkpt lat="47.46252" lon="6.73713">
        <ele>420</ele>
        <time>2015-03-08T09:09:25.000Z</time>
      </trkpt>
      <trkpt lat="47.46248" lon="6.73712">
        <ele>421</ele>
        <time>2015-03-08T09:09:26.000Z</time>
      </trkpt>
      <trkpt lat="47.46245" lon="6.73712">
        <ele>421</ele>
        <time>2015-03-08T09:09:27.000Z</time>
      </trkpt>
      <trkpt lat="47.46242" lon="6.73711">
        <ele>421</ele>
        <time>2015-03-08T09:09:28.000Z</time>
      </trkpt>
      <trkpt lat="47.46239" lon="6.73711">
        <ele>421</ele>
        <time>2015-03-08T09:09:29.000Z</time>
      </trkpt>
      <trkpt lat="47.46235" lon="6.73711">
        <ele>421</ele>
        <time>2015-03-08T09:09:30.000Z</time>
      </trkpt>
      <trkpt lat="47.46232" lon="6.73711">
        <ele>421</ele>
        <time>2015-03-08T09:09:31.000Z</time>
      </trkpt>
      <trkpt lat="47.46228" lon="6.73711">
        <ele>421</ele>
        <time>2015-03-08T09:09:32.000Z</time>
      </trkpt>
      <trkpt lat="47.46225" lon="6.73711">
        <ele>421</ele>
        <time>2015-03-08T09:09:33.000Z</time>
      </trkpt>
      <trkpt lat="47.46221" lon="6.73711">
        <ele>421</ele>
        <time>2015-03-08T09:09:34.000Z</time>
      </trkpt>
      <trkpt lat="47.46218" lon="6.73711">
        <ele>421</ele>
        <time>2015-03-08T09:09:35.000Z</time>
      </trkpt>
      <trkpt lat="47.46214" lon="6.73711">
        <ele>421</ele>
        <time>2015-03-08T09:09:36.000Z</time>
      </trkpt>
      <trkpt lat="47.46211" lon="6.73711">
        <ele>421</ele>
        <time>2015-03-08T09:09:37.000Z</time>
      </trkpt>
      <trkpt lat="47.46208" lon="6.73711">
        <ele>421</ele>
        <time>2015-03-08T09:09:38.000Z</time>
      </trkpt>
      <trkpt lat="47.46204" lon="6.73711">
        <ele>422</ele>
        <time>2015-03-08T09:09:39.000Z</time>
      </trkpt>
      <trkpt lat="47.46201" lon="6.73711">
        <ele>422</ele>
        <time>2015-03-08T09:09:40.000Z</time>
      </trkpt>
      <trkpt lat="47.46198" lon="6.73711">
        <ele>422</ele>
        <time>2015-03-08T09:09:41.000Z</time>
      </trkpt>
      <trkpt lat="47.46194" lon="6.7371">
        <ele>422</ele>
        <time>2015-03-08T09:09:42.000Z</time>
      </trkpt>
      <trkpt lat="47.46191" lon="6.7371">
        <ele>422</ele>
        <time>2015-03-08T09:09:43.000Z</time>
      </trkpt>
      <trkpt lat="47.46187" lon="6.7371">
        <ele>422</ele>
        <time>2015-03-08T09:09:44.000Z</time>
      </trkpt>
      <trkpt lat="47.46184" lon="6.7371">
        <ele>422</ele>
        <time>2015-03-08T09:09:45.000Z</time>
      </trkpt>
      <trkpt lat="47.46181" lon="6.73709">
        <ele>422</ele>
        <time>2015-03-08T09:09:46.000Z</time>
      </trkpt>
      <trkpt lat="47.46177" lon="6.73709">
        <ele>422</ele>
        <time>2015-03-08T09:09:47.000Z</time>
      </trkpt>
      <trkpt lat="47.46174" lon="6.73708">
        <ele>422</ele>
        <time>2015-03-08T09:09:48.000Z</time>
      </trkpt>
      <trkpt lat="47.4617" lon="6.73707">
        <ele>422</ele>
        <time>2015-03-08T09:09:49.000Z</time>
      </trkpt>
      <trkpt lat="47.46167" lon="6.73706">
        <ele>422</ele>
        <time>2015-03-08T09:09:50.000Z</time>
      </trkpt>
      <trkpt lat="47.46164" lon="6.73705">
        <ele>426</ele>
        <time>2015-03-08T09:09:51.000Z</time>
      </trkpt>
      <trkpt lat="47.46161" lon="6.73704">
        <ele>426</ele>
        <time>2015-03-08T09:09:52.000Z</time>
      </trkpt>
      <trkpt lat="47.46159" lon="6.73703">
        <ele>426</ele>
        <time>2015-03-08T09:09:53.000Z</time>
      </trkpt>
      <trkpt lat="47.46156" lon="6.73702">
        <ele>426</ele>
        <time>2015-03-08T09:09:54.000Z</time>
      </trkpt>
      <trkpt lat="47.46153" lon="6.737">
        <ele>426</ele>
        <time>2015-03-08T09:09:55.000Z</time>
      </trkpt>
      <trkpt lat="47.4615" lon="6.73698">
        <ele>426</ele>
        <time>2015-03-08T09:09:56.000Z</time>
      </trkpt>
      <trkpt lat="47.46147" lon="6.73696">
        <ele>426</ele>
        <time>2015-03-08T09:09:57.000Z</time>
      </trkpt>
      <trkpt lat="47.46145" lon="6.73694">
        <ele>426</ele>
        <time>2015-03-08T09:09:58.000Z</time>
      </trkpt>
      <trkpt lat="47.46142" lon="6.73692">
        <ele>426</ele>
        <time>2015-03-08T09:09:59.000Z</time>
      </trkpt>
      <trkpt lat="47.46138" lon="6.7369">
        <ele>427</ele>
        <time>2015-03-08T09:10:01.000Z</time>
      </trkpt>
      <trkpt lat="47.46137" lon="6.73688">
        <ele>427</ele>
        <time>2015-03-08T09:10:02.000Z</time>
      </trkpt>
      <trkpt lat="47.46133" lon="6.73684">
        <ele>427</ele>
        <time>2015-03-08T09:10:04.000Z</time>
      </trkpt>
      <trkpt lat="47.46131" lon="6.73683">
        <ele>427</ele>
        <time>2015-03-08T09:10:05.000Z</time>
      </trkpt>
      <trkpt lat="47.46129" lon="6.73681">
        <ele>427</ele>
        <time>2015-03-08T09:10:06.000Z</time>
      </trkpt>
      <trkpt lat="47.46127" lon="6.73679">
        <ele>427</ele>
        <time>2015-03-08T09:10:07.000Z</time>
      </trkpt>
      <trkpt lat="47.46125" lon="6.73677">
        <ele>428</ele>
        <time>2015-03-08T09:10:08.000Z</time>
      </trkpt>
      <trkpt lat="47.46123" lon="6.73675">
        <ele>428</ele>
        <time>2015-03-08T09:10:09.000Z</time>
      </trkpt>
      <trkpt lat="47.46119" lon="6.73673">
        <ele>428</ele>
        <time>2015-03-08T09:10:11.000Z</time>
      </trkpt>
      <trkpt lat="47.46118" lon="6.73671">
        <ele>428</ele>
        <time>2015-03-08T09:10:12.000Z</time>
      </trkpt>
      <trkpt lat="47.46114" lon="6.73669">
        <ele>429</ele>
        <time>2015-03-08T09:10:14.000Z</time>
      </trkpt>
      <trkpt lat="47.46112" lon="6.73667">
        <ele>429</ele>
        <time>2015-03-08T09:10:15.000Z</time>
      </trkpt>
      <trkpt lat="47.46109" lon="6.73665">
        <ele>430</ele>
        <time>2015-03-08T09:10:17.000Z</time>
      </trkpt>
      <trkpt lat="47.46107" lon="6.73663">
        <ele>430</ele>
        <time>2015-03-08T09:10:18.000Z</time>
      </trkpt>
      <trkpt lat="47.46104" lon="6.73661">
        <ele>430</ele>
        <time>2015-03-08T09:10:20.000Z</time>
      </trkpt>
      <trkpt lat="47.46102" lon="6.73659">
        <ele>430</ele>
        <time>2015-03-08T09:10:21.000Z</time>
      </trkpt>
      <trkpt lat="47.46101" lon="6.73656">
        <ele>430</ele>
        <time>2015-03-08T09:10:22.000Z</time>
      </trkpt>
      <trkpt lat="47.46098" lon="6.73654">
        <ele>430</ele>
        <time>2015-03-08T09:10:23.000Z</time>
      </trkpt>
      <trkpt lat="47.46096" lon="6.73652">
        <ele>430</ele>
        <time>2015-03-08T09:10:24.000Z</time>
      </trkpt>
      <trkpt lat="47.46094" lon="6.7365">
        <ele>431</ele>
        <time>2015-03-08T09:10:25.000Z</time>
      </trkpt>
      <trkpt lat="47.46092" lon="6.73649">
        <ele>431</ele>
        <time>2015-03-08T09:10:26.000Z</time>
      </trkpt>
      <trkpt lat="47.4609" lon="6.73647">
        <ele>431</ele>
        <time>2015-03-08T09:10:27.000Z</time>
      </trkpt>
      <trkpt lat="47.46088" lon="6.73644">
        <ele>430</ele>
        <time>2015-03-08T09:10:28.000Z</time>
      </trkpt>
      <trkpt lat="47.46086" lon="6.73642">
        <ele>430</ele>
        <time>2015-03-08T09:10:29.000Z</time>
      </trkpt>
      <trkpt lat="47.46084" lon="6.73639">
        <ele>430</ele>
        <time>2015-03-08T09:10:30.000Z</time>
      </trkpt>
      <trkpt lat="47.46082" lon="6.73637">
        <ele>434</ele>
        <time>2015-03-08T09:10:31.000Z</time>
      </trkpt>
      <trkpt lat="47.46081" lon="6.73634">
        <ele>434</ele>
        <time>2015-03-08T09:10:32.000Z</time>
      </trkpt>
      <trkpt lat="47.46079" lon="6.73632">
        <ele>434</ele>
        <time>2015-03-08T09:10:33.000Z</time>
      </trkpt>
      <trkpt lat="47.46077" lon="6.73629">
        <ele>434</ele>
        <time>2015-03-08T09:10:34.000Z</time>
      </trkpt>
      <trkpt lat="47.46075" lon="6.73628">
        <ele>434</ele>
        <time>2015-03-08T09:10:35.000Z</time>
      </trkpt>
      <trkpt lat="47.46072" lon="6.73624">
        <ele>434</ele>
        <time>2015-03-08T09:10:37.000Z</time>
      </trkpt>
      <trkpt lat="47.46071" lon="6.73623">
        <ele>434</ele>
        <time>2015-03-08T09:10:38.000Z</time>
      </trkpt>
      <trkpt lat="47.46067" lon="6.73621">
        <ele>434</ele>
        <time>2015-03-08T09:10:40.000Z</time>
      </trkpt>
      <trkpt lat="47.46065" lon="6.7362">
        <ele>434</ele>
        <time>2015-03-08T09:10:41.000Z</time>
      </trkpt>
      <trkpt lat="47.46062" lon="6.73617">
        <ele>434</ele>
        <time>2015-03-08T09:10:43.000Z</time>
      </trkpt>
      <trkpt lat="47.4606" lon="6.73616">
        <ele>434</ele>
        <time>2015-03-08T09:10:44.000Z</time>
      </trkpt>
      <trkpt lat="47.46056" lon="6.73614">
        <ele>434</ele>
        <time>2015-03-08T09:10:46.000Z</time>
      </trkpt>
      <trkpt lat="47.46055" lon="6.73613">
        <ele>434</ele>
        <time>2015-03-08T09:10:47.000Z</time>
      </trkpt>
      <trkpt lat="47.46052" lon="6.73612">
        <ele>434</ele>
        <time>2015-03-08T09:10:49.000Z</time>
      </trkpt>
      <trkpt lat="47.4605" lon="6.73611">
        <ele>434</ele>
        <time>2015-03-08T09:10:50.000Z</time>
      </trkpt>
      <trkpt lat="47.46046" lon="6.7361">
        <ele>434</ele>
        <time>2015-03-08T09:10:52.000Z</time>
      </trkpt>
      <trkpt lat="47.46044" lon="6.73609">
        <ele>434</ele>
        <time>2015-03-08T09:10:53.000Z</time>
      </trkpt>
      <trkpt lat="47.46041" lon="6.73608">
        <ele>434</ele>
        <time>2015-03-08T09:10:54.000Z</time>
      </trkpt>
      <trkpt lat="47.46039" lon="6.73607">
        <ele>434</ele>
        <time>2015-03-08T09:10:55.000Z</time>
      </trkpt>
      <trkpt lat="47.46037" lon="6.73606">
        <ele>434</ele>
        <time>2015-03-08T09:10:56.000Z</time>
      </trkpt>
      <trkpt lat="47.46034" lon="6.73606">
        <ele>434</ele>
        <time>2015-03-08T09:10:57.000Z</time>
      </trkpt>
      <trkpt lat="47.46032" lon="6.73605">
        <ele>434</ele>
        <time>2015-03-08T09:10:58.000Z</time>
      </trkpt>
      <trkpt lat="47.4603" lon="6.73605">
        <ele>435</ele>
        <time>2015-03-08T09:10:59.000Z</time>
      </trkpt>
      <trkpt lat="47.46027" lon="6.73604">
        <ele>435</ele>
        <time>2015-03-08T09:11:00.000Z</time>
      </trkpt>
      <trkpt lat="47.46025" lon="6.73604">
        <ele>435</ele>
        <time>2015-03-08T09:11:01.000Z</time>
      </trkpt>
      <trkpt lat="47.46021" lon="6.73605">
        <ele>435</ele>
        <time>2015-03-08T09:11:03.000Z</time>
      </trkpt>
      <trkpt lat="47.46019" lon="6.73605">
        <ele>435</ele>
        <time>2015-03-08T09:11:04.000Z</time>
      </trkpt>
      <trkpt lat="47.46015" lon="6.73606">
        <ele>435</ele>
        <time>2015-03-08T09:11:06.000Z</time>
      </trkpt>
      <trkpt lat="47.46013" lon="6.73606">
        <ele>435</ele>
        <time>2015-03-08T09:11:07.000Z</time>
      </trkpt>
      <trkpt lat="47.4601" lon="6.73605">
        <ele>435</ele>
        <time>2015-03-08T09:11:09.000Z</time>
      </trkpt>
      <trkpt lat="47.46008" lon="6.73606">
        <ele>435</ele>
        <time>2015-03-08T09:11:10.000Z</time>
      </trkpt>
      <trkpt lat="47.46005" lon="6.73608">
        <ele>435</ele>
        <time>2015-03-08T09:11:12.000Z</time>
      </trkpt>
      <trkpt lat="47.46003" lon="6.73609">
        <ele>435</ele>
        <time>2015-03-08T09:11:13.000Z</time>
      </trkpt>
      <trkpt lat="47.45999" lon="6.7361">
        <ele>437</ele>
        <time>2015-03-08T09:11:15.000Z</time>
      </trkpt>
      <trkpt lat="47.45997" lon="6.7361">
        <ele>437</ele>
        <time>2015-03-08T09:11:16.000Z</time>
      </trkpt>
      <trkpt lat="47.45993" lon="6.73611">
        <ele>438</ele>
        <time>2015-03-08T09:11:18.000Z</time>
      </trkpt>
      <trkpt lat="47.45991" lon="6.73611">
        <ele>438</ele>
        <time>2015-03-08T09:11:19.000Z</time>
      </trkpt>
      <trkpt lat="47.45988" lon="6.73612">
        <ele>438</ele>
        <time>2015-03-08T09:11:21.000Z</time>
      </trkpt>
      <trkpt lat="47.45986" lon="6.73612">
        <ele>438</ele>
        <time>2015-03-08T09:11:22.000Z</time>
      </trkpt>
      <trkpt lat="47.45982" lon="6.73613">
        <ele>438</ele>
        <time>2015-03-08T09:11:24.000Z</time>
      </trkpt>
      <trkpt lat="47.45979" lon="6.73614">
        <ele>438</ele>
        <time>2015-03-08T09:11:25.000Z</time>
      </trkpt>
      <trkpt lat="47.45977" lon="6.73614">
        <ele>438</ele>
        <time>2015-03-08T09:11:26.000Z</time>
      </trkpt>
      <trkpt lat="47.45975" lon="6.73614">
        <ele>438</ele>
        <time>2015-03-08T09:11:27.000Z</time>
      </trkpt>
      <trkpt lat="47.45972" lon="6.73614">
        <ele>438</ele>
        <time>2015-03-08T09:11:28.000Z</time>
      </trkpt>
      <trkpt lat="47.4597" lon="6.73615">
        <ele>438</ele>
        <time>2015-03-08T09:11:29.000Z</time>
      </trkpt>
      <trkpt lat="47.45967" lon="6.73615">
        <ele>438</ele>
        <time>2015-03-08T09:11:30.000Z</time>
      </trkpt>
      <trkpt lat="47.45965" lon="6.73615">
        <ele>438</ele>
        <time>2015-03-08T09:11:31.000Z</time>
      </trkpt>
      <trkpt lat="47.45962" lon="6.73616">
        <ele>438</ele>
        <time>2015-03-08T09:11:32.000Z</time>
      </trkpt>
      <trkpt lat="47.4596" lon="6.73616">
        <ele>439</ele>
        <time>2015-03-08T09:11:33.000Z</time>
      </trkpt>
      <trkpt lat="47.45958" lon="6.73617">
        <ele>439</ele>
        <time>2015-03-08T09:11:34.000Z</time>
      </trkpt>
      <trkpt lat="47.45955" lon="6.73617">
        <ele>439</ele>
        <time>2015-03-08T09:11:35.000Z</time>
      </trkpt>
      <trkpt lat="47.45951" lon="6.73619">
        <ele>439</ele>
        <time>2015-03-08T09:11:37.000Z</time>
      </trkpt>
      <trkpt lat="47.45948" lon="6.7362">
        <ele>439</ele>
        <time>2015-03-08T09:11:38.000Z</time>
      </trkpt>
      <trkpt lat="47.45946" lon="6.73621">
        <ele>439</ele>
        <time>2015-03-08T09:11:39.000Z</time>
      </trkpt>
      <trkpt lat="47.45944" lon="6.73623">
        <ele>439</ele>
        <time>2015-03-08T09:11:40.000Z</time>
      </trkpt>
      <trkpt lat="47.45942" lon="6.73625">
        <ele>439</ele>
        <time>2015-03-08T09:11:41.000Z</time>
      </trkpt>
      <trkpt lat="47.45939" lon="6.73627">
        <ele>439</ele>
        <time>2015-03-08T09:11:42.000Z</time>
      </trkpt>
      <trkpt lat="47.45937" lon="6.73629">
        <ele>439</ele>
        <time>2015-03-08T09:11:43.000Z</time>
      </trkpt>
      <trkpt lat="47.45935" lon="6.73632">
        <ele>439</ele>
        <time>2015-03-08T09:11:44.000Z</time>
      </trkpt>
      <trkpt lat="47.45932" lon="6.73634">
        <ele>439</ele>
        <time>2015-03-08T09:11:45.000Z</time>
      </trkpt>
      <trkpt lat="47.4593" lon="6.73636">
        <ele>439</ele>
        <time>2015-03-08T09:11:46.000Z</time>
      </trkpt>
      <trkpt lat="47.45927" lon="6.73638">
        <ele>439</ele>
        <time>2015-03-08T09:11:47.000Z</time>
      </trkpt>
      <trkpt lat="47.45925" lon="6.73641">
        <ele>439</ele>
        <time>2015-03-08T09:11:48.000Z</time>
      </trkpt>
      <trkpt lat="47.45922" lon="6.73643">
        <ele>439</ele>
        <time>2015-03-08T09:11:49.000Z</time>
      </trkpt>
      <trkpt lat="47.4592" lon="6.73646">
        <ele>439</ele>
        <time>2015-03-08T09:11:50.000Z</time>
      </trkpt>
      <trkpt lat="47.45917" lon="6.73648">
        <ele>439</ele>
        <time>2015-03-08T09:11:51.000Z</time>
      </trkpt>
      <trkpt lat="47.45914" lon="6.73649">
        <ele>442</ele>
        <time>2015-03-08T09:11:52.000Z</time>
      </trkpt>
      <trkpt lat="47.45911" lon="6.7365">
        <ele>442</ele>
        <time>2015-03-08T09:11:53.000Z</time>
      </trkpt>
      <trkpt lat="47.45908" lon="6.7365">
        <ele>442</ele>
        <time>2015-03-08T09:11:54.000Z</time>
      </trkpt>
      <trkpt lat="47.45905" lon="6.7365">
        <ele>442</ele>
        <time>2015-03-08T09:11:55.000Z</time>
      </trkpt>
      <trkpt lat="47.45902" lon="6.7365">
        <ele>442</ele>
        <time>2015-03-08T09:11:56.000Z</time>
      </trkpt>
      <trkpt lat="47.459" lon="6.7365">
        <ele>442</ele>
        <time>2015-03-08T09:11:57.000Z</time>
      </trkpt>
      <trkpt lat="47.45897" lon="6.73651">
        <ele>442</ele>
        <time>2015-03-08T09:11:58.000Z</time>
      </trkpt>
      <trkpt lat="47.45895" lon="6.73652">
        <ele>442</ele>
        <time>2015-03-08T09:11:59.000Z</time>
      </trkpt>
      <trkpt lat="47.45892" lon="6.73652">
        <ele>442</ele>
        <time>2015-03-08T09:12:00.000Z</time>
      </trkpt>
      <trkpt lat="47.45889" lon="6.73652">
        <ele>442</ele>
        <time>2015-03-08T09:12:01.000Z</time>
      </trkpt>
      <trkpt lat="47.45887" lon="6.73652">
        <ele>442</ele>
        <time>2015-03-08T09:12:02.000Z</time>
      </trkpt>
      <trkpt lat="47.45884" lon="6.73652">
        <ele>443</ele>
        <time>2015-03-08T09:12:03.000Z</time>
      </trkpt>
      <trkpt lat="47.45881" lon="6.73652">
        <ele>443</ele>
        <time>2015-03-08T09:12:04.000Z</time>
      </trkpt>
      <trkpt lat="47.45878" lon="6.73652">
        <ele>443</ele>
        <time>2015-03-08T09:12:05.000Z</time>
      </trkpt>
      <trkpt lat="47.45875" lon="6.73651">
        <ele>443</ele>
        <time>2015-03-08T09:12:06.000Z</time>
      </trkpt>
      <trkpt lat="47.45872" lon="6.73651">
        <ele>443</ele>
        <time>2015-03-08T09:12:07.000Z</time>
      </trkpt>
      <trkpt lat="47.45869" lon="6.7365">
        <ele>443</ele>
        <time>2015-03-08T09:12:08.000Z</time>
      </trkpt>
      <trkpt lat="47.45866" lon="6.7365">
        <ele>443</ele>
        <time>2015-03-08T09:12:09.000Z</time>
      </trkpt>
      <trkpt lat="47.45863" lon="6.73649">
        <ele>443</ele>
        <time>2015-03-08T09:12:10.000Z</time>
      </trkpt>
      <trkpt lat="47.4586" lon="6.73649">
        <ele>443</ele>
        <time>2015-03-08T09:12:11.000Z</time>
      </trkpt>
      <trkpt lat="47.45858" lon="6.73649">
        <ele>443</ele>
        <time>2015-03-08T09:12:12.000Z</time>
      </trkpt>
      <trkpt lat="47.45855" lon="6.73649">
        <ele>444</ele>
        <time>2015-03-08T09:12:13.000Z</time>
      </trkpt>
      <trkpt lat="47.45852" lon="6.73649">
        <ele>444</ele>
        <time>2015-03-08T09:12:14.000Z</time>
      </trkpt>
      <trkpt lat="47.45849" lon="6.73649">
        <ele>444</ele>
        <time>2015-03-08T09:12:15.000Z</time>
      </trkpt>
      <trkpt lat="47.45846" lon="6.73648">
        <ele>444</ele>
        <time>2015-03-08T09:12:16.000Z</time>
      </trkpt>
      <trkpt lat="47.45842" lon="6.73648">
        <ele>444</ele>
        <time>2015-03-08T09:12:17.000Z</time>
      </trkpt>
      <trkpt lat="47.45839" lon="6.73648">
        <ele>444</ele>
        <time>2015-03-08T09:12:18.000Z</time>
      </trkpt>
      <trkpt lat="47.45836" lon="6.73649">
        <ele>444</ele>
        <time>2015-03-08T09:12:19.000Z</time>
      </trkpt>
      <trkpt lat="47.45833" lon="6.7365">
        <ele>446</ele>
        <time>2015-03-08T09:12:20.000Z</time>
      </trkpt>
      <trkpt lat="47.45831" lon="6.73651">
        <ele>446</ele>
        <time>2015-03-08T09:12:21.000Z</time>
      </trkpt>
      <trkpt lat="47.45828" lon="6.73653">
        <ele>446</ele>
        <time>2015-03-08T09:12:22.000Z</time>
      </trkpt>
      <trkpt lat="47.45825" lon="6.73654">
        <ele>446</ele>
        <time>2015-03-08T09:12:23.000Z</time>
      </trkpt>
      <trkpt lat="47.45823" lon="6.73654">
        <ele>446</ele>
        <time>2015-03-08T09:12:24.000Z</time>
      </trkpt>
      <trkpt lat="47.4582" lon="6.73655">
        <ele>446</ele>
        <time>2015-03-08T09:12:25.000Z</time>
      </trkpt>
      <trkpt lat="47.45818" lon="6.73655">
        <ele>446</ele>
        <time>2015-03-08T09:12:26.000Z</time>
      </trkpt>
      <trkpt lat="47.45815" lon="6.73656">
        <ele>446</ele>
        <time>2015-03-08T09:12:27.000Z</time>
      </trkpt>
      <trkpt lat="47.45812" lon="6.73656">
        <ele>446</ele>
        <time>2015-03-08T09:12:28.000Z</time>
      </trkpt>
      <trkpt lat="47.45809" lon="6.73656">
        <ele>446</ele>
        <time>2015-03-08T09:12:29.000Z</time>
      </trkpt>
      <trkpt lat="47.45806" lon="6.73655">
        <ele>447</ele>
        <time>2015-03-08T09:12:30.000Z</time>
      </trkpt>
      <trkpt lat="47.45803" lon="6.73656">
        <ele>447</ele>
        <time>2015-03-08T09:12:31.000Z</time>
      </trkpt>
      <trkpt lat="47.45801" lon="6.73656">
        <ele>447</ele>
        <time>2015-03-08T09:12:32.000Z</time>
      </trkpt>
      <trkpt lat="47.45798" lon="6.73656">
        <ele>447</ele>
        <time>2015-03-08T09:12:33.000Z</time>
      </trkpt>
      <trkpt lat="47.45795" lon="6.73657">
        <ele>447</ele>
        <time>2015-03-08T09:12:34.000Z</time>
      </trkpt>
      <trkpt lat="47.45793" lon="6.73657">
        <ele>447</ele>
        <time>2015-03-08T09:12:35.000Z</time>
      </trkpt>
      <trkpt lat="47.4579" lon="6.73657">
        <ele>447</ele>
        <time>2015-03-08T09:12:36.000Z</time>
      </trkpt>
      <trkpt lat="47.45786" lon="6.73657">
        <ele>447</ele>
        <time>2015-03-08T09:12:38.000Z</time>
      </trkpt>
      <trkpt lat="47.45784" lon="6.73657">
        <ele>447</ele>
        <time>2015-03-08T09:12:39.000Z</time>
      </trkpt>
      <trkpt lat="47.45781" lon="6.73656">
        <ele>447</ele>
        <time>2015-03-08T09:12:40.000Z</time>
      </trkpt>
      <trkpt lat="47.45779" lon="6.73656">
        <ele>447</ele>
        <time>2015-03-08T09:12:41.000Z</time>
      </trkpt>
      <trkpt lat="47.45775" lon="6.73657">
        <ele>448</ele>
        <time>2015-03-08T09:12:43.000Z</time>
      </trkpt>
      <trkpt lat="47.45773" lon="6.73658">
        <ele>448</ele>
        <time>2015-03-08T09:12:44.000Z</time>
      </trkpt>
      <trkpt lat="47.45769" lon="6.73659">
        <ele>448</ele>
        <time>2015-03-08T09:12:46.000Z</time>
      </trkpt>
      <trkpt lat="47.45767" lon="6.7366">
        <ele>448</ele>
        <time>2015-03-08T09:12:47.000Z</time>
      </trkpt>
      <trkpt lat="47.45763" lon="6.7366">
        <ele>448</ele>
        <time>2015-03-08T09:12:49.000Z</time>
      </trkpt>
      <trkpt lat="47.45761" lon="6.7366">
        <ele>448</ele>
        <time>2015-03-08T09:12:50.000Z</time>
      </trkpt>
      <trkpt lat="47.45757" lon="6.73661">
        <ele>448</ele>
        <time>2015-03-08T09:12:52.000Z</time>
      </trkpt>
      <trkpt lat="47.45756" lon="6.73661">
        <ele>448</ele>
        <time>2015-03-08T09:12:53.000Z</time>
      </trkpt>
      <trkpt lat="47.45752" lon="6.73662">
        <ele>449</ele>
        <time>2015-03-08T09:12:55.000Z</time>
      </trkpt>
      <trkpt lat="47.4575" lon="6.73662">
        <ele>449</ele>
        <time>2015-03-08T09:12:56.000Z</time>
      </trkpt>
      <trkpt lat="47.45746" lon="6.73662">
        <ele>449</ele>
        <time>2015-03-08T09:12:58.000Z</time>
      </trkpt>
      <trkpt lat="47.45744" lon="6.73662">
        <ele>450</ele>
        <time>2015-03-08T09:12:59.000Z</time>
      </trkpt>
      <trkpt lat="47.45741" lon="6.73662">
        <ele>450</ele>
        <time>2015-03-08T09:13:00.000Z</time>
      </trkpt>
      <trkpt lat="47.45739" lon="6.73662">
        <ele>450</ele>
        <time>2015-03-08T09:13:01.000Z</time>
      </trkpt>
      <trkpt lat="47.45735" lon="6.73662">
        <ele>450</ele>
        <time>2015-03-08T09:13:03.000Z</time>
      </trkpt>
      <trkpt lat="47.45733" lon="6.73662">
        <ele>450</ele>
        <time>2015-03-08T09:13:04.000Z</time>
      </trkpt>
      <trkpt lat="47.45729" lon="6.73662">
        <ele>450</ele>
        <time>2015-03-08T09:13:06.000Z</time>
      </trkpt>
      <trkpt lat="47.45727" lon="6.73662">
        <ele>450</ele>
        <time>2015-03-08T09:13:07.000Z</time>
      </trkpt>
      <trkpt lat="47.45723" lon="6.73662">
        <ele>450</ele>
        <time>2015-03-08T09:13:09.000Z</time>
      </trkpt>
      <trkpt lat="47.45721" lon="6.73662">
        <ele>450</ele>
        <time>2015-03-08T09:13:10.000Z</time>
      </trkpt>
      <trkpt lat="47.45719" lon="6.73661">
        <ele>450</ele>
        <time>2015-03-08T09:13:11.000Z</time>
      </trkpt>
      <trkpt lat="47.45716" lon="6.73661">
        <ele>451</ele>
        <time>2015-03-08T09:13:12.000Z</time>
      </trkpt>
      <trkpt lat="47.45714" lon="6.7366">
        <ele>451</ele>
        <time>2015-03-08T09:13:13.000Z</time>
      </trkpt>
      <trkpt lat="47.45712" lon="6.7366">
        <ele>451</ele>
        <time>2015-03-08T09:13:14.000Z</time>
      </trkpt>
      <trkpt lat="47.45707" lon="6.7366">
        <ele>451</ele>
        <time>2015-03-08T09:13:16.000Z</time>
      </trkpt>
      <trkpt lat="47.45705" lon="6.7366">
        <ele>451</ele>
        <time>2015-03-08T09:13:17.000Z</time>
      </trkpt>
      <trkpt lat="47.45702" lon="6.7366">
        <ele>451</ele>
        <time>2015-03-08T09:13:19.000Z</time>
      </trkpt>
      <trkpt lat="47.457" lon="6.7366">
        <ele>451</ele>
        <time>2015-03-08T09:13:20.000Z</time>
      </trkpt>
      <trkpt lat="47.45696" lon="6.7366">
        <ele>451</ele>
        <time>2015-03-08T09:13:22.000Z</time>
      </trkpt>
      <trkpt lat="47.45693" lon="6.7366">
        <ele>451</ele>
        <time>2015-03-08T09:13:23.000Z</time>
      </trkpt>
      <trkpt lat="47.45689" lon="6.73661">
        <ele>452</ele>
        <time>2015-03-08T09:13:25.000Z</time>
      </trkpt>
      <trkpt lat="47.45687" lon="6.73662">
        <ele>452</ele>
        <time>2015-03-08T09:13:26.000Z</time>
      </trkpt>
      <trkpt lat="47.45684" lon="6.73663">
        <ele>452</ele>
        <time>2015-03-08T09:13:27.000Z</time>
      </trkpt>
      <trkpt lat="47.45682" lon="6.73663">
        <ele>452</ele>
        <time>2015-03-08T09:13:28.000Z</time>
      </trkpt>
      <trkpt lat="47.4568" lon="6.73664">
        <ele>452</ele>
        <time>2015-03-08T09:13:29.000Z</time>
      </trkpt>
      <trkpt lat="47.45677" lon="6.73664">
        <ele>452</ele>
        <time>2015-03-08T09:13:30.000Z</time>
      </trkpt>
      <trkpt lat="47.45675" lon="6.73665">
        <ele>452</ele>
        <time>2015-03-08T09:13:31.000Z</time>
      </trkpt>
      <trkpt lat="47.45672" lon="6.73665">
        <ele>453</ele>
        <time>2015-03-08T09:13:32.000Z</time>
      </trkpt>
      <trkpt lat="47.4567" lon="6.73665">
        <ele>453</ele>
        <time>2015-03-08T09:13:33.000Z</time>
      </trkpt>
      <trkpt lat="47.45667" lon="6.73666">
        <ele>453</ele>
        <time>2015-03-08T09:13:34.000Z</time>
      </trkpt>
      <trkpt lat="47.45665" lon="6.73666">
        <ele>453</ele>
        <time>2015-03-08T09:13:35.000Z</time>
      </trkpt>
      <trkpt lat="47.45662" lon="6.73667">
        <ele>454</ele>
        <time>2015-03-08T09:13:36.000Z</time>
      </trkpt>
      <trkpt lat="47.45659" lon="6.73668">
        <ele>454</ele>
        <time>2015-03-08T09:13:37.000Z</time>
      </trkpt>
      <trkpt lat="47.45656" lon="6.73669">
        <ele>454</ele>
        <time>2015-03-08T09:13:38.000Z</time>
      </trkpt>
      <trkpt lat="47.45653" lon="6.73669">
        <ele>455</ele>
        <time>2015-03-08T09:13:39.000Z</time>
      </trkpt>
      <trkpt lat="47.45651" lon="6.7367">
        <ele>455</ele>
        <time>2015-03-08T09:13:40.000Z</time>
      </trkpt>
      <trkpt lat="47.45647" lon="6.73671">
        <ele>455</ele>
        <time>2015-03-08T09:13:42.000Z</time>
      </trkpt>
      <trkpt lat="47.45645" lon="6.73671">
        <ele>455</ele>
        <time>2015-03-08T09:13:43.000Z</time>
      </trkpt>
      <trkpt lat="47.45642" lon="6.73669">
        <ele>456</ele>
        <time>2015-03-08T09:15:17.000Z</time>
      </trkpt>
      <trkpt lat="47.4564" lon="6.73669">
        <ele>456</ele>
        <time>2015-03-08T09:15:18.000Z</time>
      </trkpt>
      <trkpt lat="47.45637" lon="6.73669">
        <ele>456</ele>
        <time>2015-03-08T09:15:20.000Z</time>
      </trkpt>
      <trkpt lat="47.45634" lon="6.7367">
        <ele>456</ele>
        <time>2015-03-08T09:15:21.000Z</time>
      </trkpt>
      <trkpt lat="47.45632" lon="6.7367">
        <ele>456</ele>
        <time>2015-03-08T09:15:22.000Z</time>
      </trkpt>
      <trkpt lat="47.45629" lon="6.7367">
        <ele>457</ele>
        <time>2015-03-08T09:15:23.000Z</time>
      </trkpt>
      <trkpt lat="47.45627" lon="6.7367">
        <ele>457</ele>
        <time>2015-03-08T09:15:24.000Z</time>
      </trkpt>
      <trkpt lat="47.45624" lon="6.7367">
        <ele>457</ele>
        <time>2015-03-08T09:15:25.000Z</time>
      </trkpt>
      <trkpt lat="47.45621" lon="6.7367">
        <ele>457</ele>
        <time>2015-03-08T09:15:26.000Z</time>
      </trkpt>
      <trkpt lat="47.45619" lon="6.7367">
        <ele>457</ele>
        <time>2015-03-08T09:15:27.000Z</time>
      </trkpt>
      <trkpt lat="47.45616" lon="6.7367">
        <ele>457</ele>
        <time>2015-03-08T09:15:28.000Z</time>
      </trkpt>
      <trkpt lat="47.45613" lon="6.7367">
        <ele>458</ele>
        <time>2015-03-08T09:15:29.000Z</time>
      </trkpt>
      <trkpt lat="47.45611" lon="6.7367">
        <ele>458</ele>
        <time>2015-03-08T09:15:30.000Z</time>
      </trkpt>
      <trkpt lat="47.45608" lon="6.73669">
        <ele>458</ele>
        <time>2015-03-08T09:15:31.000Z</time>
      </trkpt>
      <trkpt lat="47.45605" lon="6.73669">
        <ele>458</ele>
        <time>2015-03-08T09:15:32.000Z</time>
      </trkpt>
      <trkpt lat="47.45601" lon="6.73669">
        <ele>458</ele>
        <time>2015-03-08T09:15:33.000Z</time>
      </trkpt>
      <trkpt lat="47.45598" lon="6.73668">
        <ele>459</ele>
        <time>2015-03-08T09:15:34.000Z</time>
      </trkpt>
      <trkpt lat="47.45594" lon="6.73668">
        <ele>459</ele>
        <time>2015-03-08T09:15:35.000Z</time>
      </trkpt>
      <trkpt lat="47.45591" lon="6.73669">
        <ele>459</ele>
        <time>2015-03-08T09:15:36.000Z</time>
      </trkpt>
      <trkpt lat="47.45588" lon="6.73669">
        <ele>459</ele>
        <time>2015-03-08T09:15:37.000Z</time>
      </trkpt>
      <trkpt lat="47.45585" lon="6.73669">
        <ele>460</ele>
        <time>2015-03-08T09:15:38.000Z</time>
      </trkpt>
      <trkpt lat="47.45582" lon="6.73669">
        <ele>460</ele>
        <time>2015-03-08T09:15:39.000Z</time>
      </trkpt>
      <trkpt lat="47.45579" lon="6.73669">
        <ele>460</ele>
        <time>2015-03-08T09:15:40.000Z</time>
      </trkpt>
      <trkpt lat="47.45576" lon="6.7367">
        <ele>460</ele>
        <time>2015-03-08T09:15:41.000Z</time>
      </trkpt>
      <trkpt lat="47.45573" lon="6.7367">
        <ele>460</ele>
        <time>2015-03-08T09:15:42.000Z</time>
      </trkpt>
      <trkpt lat="47.45569" lon="6.7367">
        <ele>461</ele>
        <time>2015-03-08T09:15:43.000Z</time>
      </trkpt>
      <trkpt lat="47.45566" lon="6.73671">
        <ele>461</ele>
        <time>2015-03-08T09:15:44.000Z</time>
      </trkpt>
      <trkpt lat="47.45562" lon="6.73671">
        <ele>461</ele>
        <time>2015-03-08T09:15:45.000Z</time>
      </trkpt>
      <trkpt lat="47.45559" lon="6.73671">
        <ele>461</ele>
        <time>2015-03-08T09:15:46.000Z</time>
      </trkpt>
      <trkpt lat="47.45556" lon="6.7367">
        <ele>461</ele>
        <time>2015-03-08T09:15:47.000Z</time>
      </trkpt>
      <trkpt lat="47.45552" lon="6.73669">
        <ele>461</ele>
        <time>2015-03-08T09:15:48.000Z</time>
      </trkpt>
      <trkpt lat="47.45549" lon="6.73668">
        <ele>461</ele>
        <time>2015-03-08T09:15:49.000Z</time>
      </trkpt>
      <trkpt lat="47.45545" lon="6.73667">
        <ele>461</ele>
        <time>2015-03-08T09:15:50.000Z</time>
      </trkpt>
      <trkpt lat="47.45541" lon="6.73666">
        <ele>461</ele>
        <time>2015-03-08T09:15:51.000Z</time>
      </trkpt>
      <trkpt lat="47.45538" lon="6.73666">
        <ele>461</ele>
        <time>2015-03-08T09:15:52.000Z</time>
      </trkpt>
      <trkpt lat="47.45534" lon="6.73666">
        <ele>461</ele>
        <time>2015-03-08T09:15:53.000Z</time>
      </trkpt>
      <trkpt lat="47.4553" lon="6.73666">
        <ele>461</ele>
        <time>2015-03-08T09:15:54.000Z</time>
      </trkpt>
      <trkpt lat="47.45526" lon="6.73665">
        <ele>462</ele>
        <time>2015-03-08T09:15:55.000Z</time>
      </trkpt>
      <trkpt lat="47.45522" lon="6.73664">
        <ele>462</ele>
        <time>2015-03-08T09:15:56.000Z</time>
      </trkpt>
      <trkpt lat="47.45519" lon="6.73663">
        <ele>462</ele>
        <time>2015-03-08T09:15:57.000Z</time>
      </trkpt>
      <trkpt lat="47.45515" lon="6.7366">
        <ele>462</ele>
        <time>2015-03-08T09:15:58.000Z</time>
      </trkpt>
      <trkpt lat="47.45512" lon="6.73657">
        <ele>462</ele>
        <time>2015-03-08T09:15:59.000Z</time>
      </trkpt>
      <trkpt lat="47.45509" lon="6.73654">
        <ele>462</ele>
        <time>2015-03-08T09:16:00.000Z</time>
      </trkpt>
      <trkpt lat="47.45503" lon="6.73648">
        <ele>462</ele>
        <time>2015-03-08T09:16:02.000Z</time>
      </trkpt>
      <trkpt lat="47.45501" lon="6.73645">
        <ele>462</ele>
        <time>2015-03-08T09:16:03.000Z</time>
      </trkpt>
      <trkpt lat="47.45497" lon="6.73642">
        <ele>462</ele>
        <time>2015-03-08T09:16:04.000Z</time>
      </trkpt>
      <trkpt lat="47.45494" lon="6.7364">
        <ele>462</ele>
        <time>2015-03-08T09:16:05.000Z</time>
      </trkpt>
      <trkpt lat="47.45492" lon="6.73637">
        <ele>462</ele>
        <time>2015-03-08T09:16:06.000Z</time>
      </trkpt>
      <trkpt lat="47.45489" lon="6.73635">
        <ele>462</ele>
        <time>2015-03-08T09:16:07.000Z</time>
      </trkpt>
      <trkpt lat="47.45487" lon="6.73634">
        <ele>462</ele>
        <time>2015-03-08T09:16:08.000Z</time>
      </trkpt>
      <trkpt lat="47.45485" lon="6.73633">
        <ele>462</ele>
        <time>2015-03-08T09:16:09.000Z</time>
      </trkpt>
      <trkpt lat="47.45483" lon="6.7363">
        <ele>462</ele>
        <time>2015-03-08T09:16:10.000Z</time>
      </trkpt>
      <trkpt lat="47.45482" lon="6.73626">
        <ele>462</ele>
        <time>2015-03-08T09:16:11.000Z</time>
      </trkpt>
      <trkpt lat="47.45482" lon="6.73621">
        <ele>462</ele>
        <time>2015-03-08T09:16:12.000Z</time>
      </trkpt>
      <trkpt lat="47.45481" lon="6.73615">
        <ele>463</ele>
        <time>2015-03-08T09:16:13.000Z</time>
      </trkpt>
      <trkpt lat="47.45481" lon="6.73611">
        <ele>463</ele>
        <time>2015-03-08T09:16:14.000Z</time>
      </trkpt>
      <trkpt lat="47.45481" lon="6.73607">
        <ele>463</ele>
        <time>2015-03-08T09:16:15.000Z</time>
      </trkpt>
      <trkpt lat="47.4548" lon="6.73602">
        <ele>463</ele>
        <time>2015-03-08T09:16:16.000Z</time>
      </trkpt>
      <trkpt lat="47.45478" lon="6.73597">
        <ele>463</ele>
        <time>2015-03-08T09:16:17.000Z</time>
      </trkpt>
      <trkpt lat="47.45477" lon="6.7359">
        <ele>463</ele>
        <time>2015-03-08T09:16:18.000Z</time>
      </trkpt>
      <trkpt lat="47.45475" lon="6.73583">
        <ele>465</ele>
        <time>2015-03-08T09:16:19.000Z</time>
      </trkpt>
      <trkpt lat="47.45473" lon="6.73576">
        <ele>464</ele>
        <time>2015-03-08T09:16:20.000Z</time>
      </trkpt>
      <trkpt lat="47.45471" lon="6.73569">
        <ele>464</ele>
        <time>2015-03-08T09:16:21.000Z</time>
      </trkpt>
      <trkpt lat="47.45468" lon="6.73564">
        <ele>464</ele>
        <time>2015-03-08T09:16:22.000Z</time>
      </trkpt>
      <trkpt lat="47.45466" lon="6.73559">
        <ele>464</ele>
        <time>2015-03-08T09:16:23.000Z</time>
      </trkpt>
      <trkpt lat="47.45464" lon="6.73555">
        <ele>464</ele>
        <time>2015-03-08T09:16:24.000Z</time>
      </trkpt>
      <trkpt lat="47.45462" lon="6.73551">
        <ele>464</ele>
        <time>2015-03-08T09:16:25.000Z</time>
      </trkpt>
      <trkpt lat="47.45461" lon="6.73546">
        <ele>464</ele>
        <time>2015-03-08T09:16:26.000Z</time>
      </trkpt>
      <trkpt lat="47.4546" lon="6.73542">
        <ele>464</ele>
        <time>2015-03-08T09:16:27.000Z</time>
      </trkpt>
      <trkpt lat="47.4546" lon="6.73537">
        <ele>464</ele>
        <time>2015-03-08T09:16:28.000Z</time>
      </trkpt>
      <trkpt lat="47.4546" lon="6.73532">
        <ele>464</ele>
        <time>2015-03-08T09:16:29.000Z</time>
      </trkpt>
      <trkpt lat="47.4546" lon="6.73526">
        <ele>464</ele>
        <time>2015-03-08T09:16:30.000Z</time>
      </trkpt>
      <trkpt lat="47.4546" lon="6.7352">
        <ele>464</ele>
        <time>2015-03-08T09:16:31.000Z</time>
      </trkpt>
      <trkpt lat="47.4546" lon="6.73514">
        <ele>464</ele>
        <time>2015-03-08T09:16:32.000Z</time>
      </trkpt>
      <trkpt lat="47.4546" lon="6.73508">
        <ele>464</ele>
        <time>2015-03-08T09:16:33.000Z</time>
      </trkpt>
      <trkpt lat="47.4546" lon="6.73502">
        <ele>464</ele>
        <time>2015-03-08T09:16:34.000Z</time>
      </trkpt>
      <trkpt lat="47.4546" lon="6.73497">
        <ele>465</ele>
        <time>2015-03-08T09:16:35.000Z</time>
      </trkpt>
      <trkpt lat="47.45459" lon="6.73491">
        <ele>465</ele>
        <time>2015-03-08T09:16:36.000Z</time>
      </trkpt>
      <trkpt lat="47.45459" lon="6.73485">
        <ele>465</ele>
        <time>2015-03-08T09:16:37.000Z</time>
      </trkpt>
      <trkpt lat="47.45458" lon="6.7348">
        <ele>465</ele>
        <time>2015-03-08T09:16:38.000Z</time>
      </trkpt>
      <trkpt lat="47.45457" lon="6.73475">
        <ele>465</ele>
        <time>2015-03-08T09:16:39.000Z</time>
      </trkpt>
      <trkpt lat="47.45456" lon="6.7347">
        <ele>465</ele>
        <time>2015-03-08T09:16:40.000Z</time>
      </trkpt>
      <trkpt lat="47.45456" lon="6.73464">
        <ele>465</ele>
        <time>2015-03-08T09:16:41.000Z</time>
      </trkpt>
      <trkpt lat="47.45455" lon="6.7346">
        <ele>465</ele>
        <time>2015-03-08T09:16:42.000Z</time>
      </trkpt>
      <trkpt lat="47.45454" lon="6.73455">
        <ele>465</ele>
        <time>2015-03-08T09:16:43.000Z</time>
      </trkpt>
      <trkpt lat="47.45453" lon="6.73449">
        <ele>465</ele>
        <time>2015-03-08T09:16:44.000Z</time>
      </trkpt>
      <trkpt lat="47.45453" lon="6.73445">
        <ele>465</ele>
        <time>2015-03-08T09:16:45.000Z</time>
      </trkpt>
      <trkpt lat="47.45453" lon="6.73441">
        <ele>465</ele>
        <time>2015-03-08T09:16:46.000Z</time>
      </trkpt>
      <trkpt lat="47.45454" lon="6.73437">
        <ele>465</ele>
        <time>2015-03-08T09:16:47.000Z</time>
      </trkpt>
      <trkpt lat="47.45456" lon="6.73432">
        <ele>465</ele>
        <time>2015-03-08T09:16:49.000Z</time>
      </trkpt>
      <trkpt lat="47.45456" lon="6.73429">
        <ele>465</ele>
        <time>2015-03-08T09:16:50.000Z</time>
      </trkpt>
      <trkpt lat="47.45457" lon="6.73426">
        <ele>465</ele>
        <time>2015-03-08T09:16:51.000Z</time>
      </trkpt>
      <trkpt lat="47.45457" lon="6.73422">
        <ele>465</ele>
        <time>2015-03-08T09:16:52.000Z</time>
      </trkpt>
      <trkpt lat="47.45458" lon="6.73418">
        <ele>465</ele>
        <time>2015-03-08T09:16:53.000Z</time>
      </trkpt>
      <trkpt lat="47.45458" lon="6.73414">
        <ele>464</ele>
        <time>2015-03-08T09:16:54.000Z</time>
      </trkpt>
      <trkpt lat="47.45459" lon="6.7341">
        <ele>464</ele>
        <time>2015-03-08T09:16:55.000Z</time>
      </trkpt>
      <trkpt lat="47.4546" lon="6.73407">
        <ele>464</ele>
        <time>2015-03-08T09:16:56.000Z</time>
      </trkpt>
      <trkpt lat="47.45461" lon="6.73403">
        <ele>464</ele>
        <time>2015-03-08T09:16:57.000Z</time>
      </trkpt>
      <trkpt lat="47.45462" lon="6.734">
        <ele>464</ele>
        <time>2015-03-08T09:16:58.000Z</time>
      </trkpt>
      <trkpt lat="47.45463" lon="6.73397">
        <ele>464</ele>
        <time>2015-03-08T09:16:59.000Z</time>
      </trkpt>
      <trkpt lat="47.45464" lon="6.73394">
        <ele>464</ele>
        <time>2015-03-08T09:17:00.000Z</time>
      </trkpt>
      <trkpt lat="47.45465" lon="6.73391">
        <ele>464</ele>
        <time>2015-03-08T09:17:01.000Z</time>
      </trkpt>
      <trkpt lat="47.45466" lon="6.73388">
        <ele>464</ele>
        <time>2015-03-08T09:17:02.000Z</time>
      </trkpt>
      <trkpt lat="47.45468" lon="6.73385">
        <ele>464</ele>
        <time>2015-03-08T09:17:03.000Z</time>
      </trkpt>
      <trkpt lat="47.45469" lon="6.73382">
        <ele>464</ele>
        <time>2015-03-08T09:17:04.000Z</time>
      </trkpt>
      <trkpt lat="47.4547" lon="6.73378">
        <ele>464</ele>
        <time>2015-03-08T09:17:05.000Z</time>
      </trkpt>
      <trkpt lat="47.4547" lon="6.73375">
        <ele>464</ele>
        <time>2015-03-08T09:17:06.000Z</time>
      </trkpt>
      <trkpt lat="47.45469" lon="6.7337">
        <ele>464</ele>
        <time>2015-03-08T09:17:08.000Z</time>
      </trkpt>
      <trkpt lat="47.45469" lon="6.73366">
        <ele>464</ele>
        <time>2015-03-08T09:17:09.000Z</time>
      </trkpt>
      <trkpt lat="47.45469" lon="6.73363">
        <ele>464</ele>
        <time>2015-03-08T09:17:10.000Z</time>
      </trkpt>
      <trkpt lat="47.4547" lon="6.73358">
        <ele>464</ele>
        <time>2015-03-08T09:17:11.000Z</time>
      </trkpt>
      <trkpt lat="47.45471" lon="6.73354">
        <ele>464</ele>
        <time>2015-03-08T09:17:12.000Z</time>
      </trkpt>
      <trkpt lat="47.45472" lon="6.7335">
        <ele>464</ele>
        <time>2015-03-08T09:17:13.000Z</time>
      </trkpt>
      <trkpt lat="47.45474" lon="6.73347">
        <ele>464</ele>
        <time>2015-03-08T09:17:14.000Z</time>
      </trkpt>
      <trkpt lat="47.45476" lon="6.73345">
        <ele>464</ele>
        <time>2015-03-08T09:17:15.000Z</time>
      </trkpt>
      <trkpt lat="47.45478" lon="6.73343">
        <ele>464</ele>
        <time>2015-03-08T09:17:16.000Z</time>
      </trkpt>
      <trkpt lat="47.4548" lon="6.73341">
        <ele>464</ele>
        <time>2015-03-08T09:17:17.000Z</time>
      </trkpt>
      <trkpt lat="47.45482" lon="6.73338">
        <ele>464</ele>
        <time>2015-03-08T09:17:18.000Z</time>
      </trkpt>
      <trkpt lat="47.45484" lon="6.73335">
        <ele>463</ele>
        <time>2015-03-08T09:17:19.000Z</time>
      </trkpt>
      <trkpt lat="47.45486" lon="6.73331">
        <ele>463</ele>
        <time>2015-03-08T09:17:20.000Z</time>
      </trkpt>
      <trkpt lat="47.45488" lon="6.73328">
        <ele>463</ele>
        <time>2015-03-08T09:17:21.000Z</time>
      </trkpt>
      <trkpt lat="47.45491" lon="6.73324">
        <ele>463</ele>
        <time>2015-03-08T09:17:22.000Z</time>
      </trkpt>
      <trkpt lat="47.45493" lon="6.7332">
        <ele>463</ele>
        <time>2015-03-08T09:17:23.000Z</time>
      </trkpt>
      <trkpt lat="47.45494" lon="6.73318">
        <ele>463</ele>
        <time>2015-03-08T09:17:24.000Z</time>
      </trkpt>
      <trkpt lat="47.45496" lon="6.73315">
        <ele>463</ele>
        <time>2015-03-08T09:17:25.000Z</time>
      </trkpt>
      <trkpt lat="47.45499" lon="6.73311">
        <ele>462</ele>
        <time>2015-03-08T09:17:27.000Z</time>
      </trkpt>
      <trkpt lat="47.45501" lon="6.73308">
        <ele>463</ele>
        <time>2015-03-08T09:17:28.000Z</time>
      </trkpt>
      <trkpt lat="47.45503" lon="6.73306">
        <ele>463</ele>
        <time>2015-03-08T09:17:29.000Z</time>
      </trkpt>
      <trkpt lat="47.45505" lon="6.73305">
        <ele>463</ele>
        <time>2015-03-08T09:17:30.000Z</time>
      </trkpt>
      <trkpt lat="47.45507" lon="6.73303">
        <ele>463</ele>
        <time>2015-03-08T09:17:31.000Z</time>
      </trkpt>
      <trkpt lat="47.45509" lon="6.73302">
        <ele>463</ele>
        <time>2015-03-08T09:17:32.000Z</time>
      </trkpt>
      <trkpt lat="47.45513" lon="6.733">
        <ele>463</ele>
        <time>2015-03-08T09:17:34.000Z</time>
      </trkpt>
      <trkpt lat="47.45515" lon="6.73299">
        <ele>463</ele>
        <time>2015-03-08T09:17:35.000Z</time>
      </trkpt>
      <trkpt lat="47.45518" lon="6.73298">
        <ele>463</ele>
        <time>2015-03-08T09:17:36.000Z</time>
      </trkpt>
      <trkpt lat="47.45521" lon="6.73298">
        <ele>463</ele>
        <time>2015-03-08T09:17:37.000Z</time>
      </trkpt>
      <trkpt lat="47.45524" lon="6.73297">
        <ele>463</ele>
        <time>2015-03-08T09:17:38.000Z</time>
      </trkpt>
      <trkpt lat="47.45527" lon="6.73296">
        <ele>463</ele>
        <time>2015-03-08T09:17:39.000Z</time>
      </trkpt>
      <trkpt lat="47.45531" lon="6.73295">
        <ele>463</ele>
        <time>2015-03-08T09:17:41.000Z</time>
      </trkpt>
      <trkpt lat="47.45533" lon="6.73294">
        <ele>463</ele>
        <time>2015-03-08T09:17:42.000Z</time>
      </trkpt>
      <trkpt lat="47.45535" lon="6.73293">
        <ele>463</ele>
        <time>2015-03-08T09:17:43.000Z</time>
      </trkpt>
      <trkpt lat="47.45538" lon="6.73291">
        <ele>463</ele>
        <time>2015-03-08T09:17:44.000Z</time>
      </trkpt>
      <trkpt lat="47.4554" lon="6.73289">
        <ele>463</ele>
        <time>2015-03-08T09:17:45.000Z</time>
      </trkpt>
      <trkpt lat="47.45543" lon="6.73287">
        <ele>463</ele>
        <time>2015-03-08T09:17:46.000Z</time>
      </trkpt>
      <trkpt lat="47.45545" lon="6.73285">
        <ele>463</ele>
        <time>2015-03-08T09:17:47.000Z</time>
      </trkpt>
      <trkpt lat="47.45547" lon="6.73283">
        <ele>463</ele>
        <time>2015-03-08T09:17:48.000Z</time>
      </trkpt>
      <trkpt lat="47.45549" lon="6.7328">
        <ele>463</ele>
        <time>2015-03-08T09:17:49.000Z</time>
      </trkpt>
      <trkpt lat="47.45551" lon="6.73278">
        <ele>463</ele>
        <time>2015-03-08T09:17:50.000Z</time>
      </trkpt>
      <trkpt lat="47.45553" lon="6.73275">
        <ele>464</ele>
        <time>2015-03-08T09:17:51.000Z</time>
      </trkpt>
      <trkpt lat="47.45555" lon="6.73272">
        <ele>464</ele>
        <time>2015-03-08T09:17:52.000Z</time>
      </trkpt>
      <trkpt lat="47.45558" lon="6.73268">
        <ele>464</ele>
        <time>2015-03-08T09:17:53.000Z</time>
      </trkpt>
      <trkpt lat="47.4556" lon="6.73265">
        <ele>464</ele>
        <time>2015-03-08T09:17:54.000Z</time>
      </trkpt>
      <trkpt lat="47.45562" lon="6.73263">
        <ele>464</ele>
        <time>2015-03-08T09:17:55.000Z</time>
      </trkpt>
      <trkpt lat="47.45564" lon="6.7326">
        <ele>464</ele>
        <time>2015-03-08T09:17:56.000Z</time>
      </trkpt>
      <trkpt lat="47.45566" lon="6.73258">
        <ele>465</ele>
        <time>2015-03-08T09:17:57.000Z</time>
      </trkpt>
      <trkpt lat="47.45568" lon="6.73256">
        <ele>465</ele>
        <time>2015-03-08T09:17:58.000Z</time>
      </trkpt>
      <trkpt lat="47.4557" lon="6.73254">
        <ele>465</ele>
        <time>2015-03-08T09:17:59.000Z</time>
      </trkpt>
      <trkpt lat="47.45573" lon="6.73252">
        <ele>465</ele>
        <time>2015-03-08T09:18:00.000Z</time>
      </trkpt>
      <trkpt lat="47.45575" lon="6.7325">
        <ele>466</ele>
        <time>2015-03-08T09:18:01.000Z</time>
      </trkpt>
      <trkpt lat="47.45577" lon="6.73249">
        <ele>467</ele>
        <time>2015-03-08T09:18:02.000Z</time>
      </trkpt>
      <trkpt lat="47.45579" lon="6.73247">
        <ele>467</ele>
        <time>2015-03-08T09:18:03.000Z</time>
      </trkpt>
      <trkpt lat="47.45581" lon="6.73245">
        <ele>467</ele>
        <time>2015-03-08T09:18:04.000Z</time>
      </trkpt>
      <trkpt lat="47.45585" lon="6.73241">
        <ele>467</ele>
        <time>2015-03-08T09:18:06.000Z</time>
      </trkpt>
      <trkpt lat="47.45586" lon="6.7324">
        <ele>467</ele>
        <time>2015-03-08T09:18:07.000Z</time>
      </trkpt>
      <trkpt lat="47.45587" lon="6.73235">
        <ele>468</ele>
        <time>2015-03-08T09:18:10.000Z</time>
      </trkpt>
      <trkpt lat="47.45587" lon="6.73233">
        <ele>468</ele>
        <time>2015-03-08T09:18:11.000Z</time>
      </trkpt>
      <trkpt lat="47.45588" lon="6.73228">
        <ele>468</ele>
        <time>2015-03-08T09:18:13.000Z</time>
      </trkpt>
      <trkpt lat="47.45589" lon="6.73225">
        <ele>468</ele>
        <time>2015-03-08T09:18:14.000Z</time>
      </trkpt>
      <trkpt lat="47.45589" lon="6.73222">
        <ele>468</ele>
        <time>2015-03-08T09:18:15.000Z</time>
      </trkpt>
      <trkpt lat="47.45589" lon="6.73218">
        <ele>468</ele>
        <time>2015-03-08T09:18:16.000Z</time>
      </trkpt>
      <trkpt lat="47.45589" lon="6.73214">
        <ele>468</ele>
        <time>2015-03-08T09:18:17.000Z</time>
      </trkpt>
      <trkpt lat="47.45589" lon="6.73211">
        <ele>468</ele>
        <time>2015-03-08T09:18:18.000Z</time>
      </trkpt>
      <trkpt lat="47.45589" lon="6.73207">
        <ele>469</ele>
        <time>2015-03-08T09:18:19.000Z</time>
      </trkpt>
      <trkpt lat="47.45589" lon="6.73203">
        <ele>469</ele>
        <time>2015-03-08T09:18:20.000Z</time>
      </trkpt>
      <trkpt lat="47.4559" lon="6.73198">
        <ele>469</ele>
        <time>2015-03-08T09:18:22.000Z</time>
      </trkpt>
      <trkpt lat="47.4559" lon="6.73196">
        <ele>469</ele>
        <time>2015-03-08T09:18:23.000Z</time>
      </trkpt>
      <trkpt lat="47.4559" lon="6.73191">
        <ele>469</ele>
        <time>2015-03-08T09:18:25.000Z</time>
      </trkpt>
      <trkpt lat="47.4559" lon="6.73188">
        <ele>469</ele>
        <time>2015-03-08T09:18:26.000Z</time>
      </trkpt>
      <trkpt lat="47.4559" lon="6.73185">
        <ele>469</ele>
        <time>2015-03-08T09:18:27.000Z</time>
      </trkpt>
      <trkpt lat="47.4559" lon="6.7318">
        <ele>470</ele>
        <time>2015-03-08T09:18:28.000Z</time>
      </trkpt>
      <trkpt lat="47.4559" lon="6.73175">
        <ele>470</ele>
        <time>2015-03-08T09:18:29.000Z</time>
      </trkpt>
      <trkpt lat="47.4559" lon="6.7317">
        <ele>470</ele>
        <time>2015-03-08T09:18:30.000Z</time>
      </trkpt>
      <trkpt lat="47.45589" lon="6.73166">
        <ele>471</ele>
        <time>2015-03-08T09:18:31.000Z</time>
      </trkpt>
      <trkpt lat="47.45589" lon="6.73163">
        <ele>470</ele>
        <time>2015-03-08T09:18:32.000Z</time>
      </trkpt>
      <trkpt lat="47.45589" lon="6.73159">
        <ele>470</ele>
        <time>2015-03-08T09:18:33.000Z</time>
      </trkpt>
      <trkpt lat="47.45588" lon="6.73155">
        <ele>470</ele>
        <time>2015-03-08T09:18:34.000Z</time>
      </trkpt>
      <trkpt lat="47.45588" lon="6.73152">
        <ele>470</ele>
        <time>2015-03-08T09:18:35.000Z</time>
      </trkpt>
      <trkpt lat="47.45587" lon="6.73148">
        <ele>470</ele>
        <time>2015-03-08T09:18:36.000Z</time>
      </trkpt>
      <trkpt lat="47.45586" lon="6.73144">
        <ele>470</ele>
        <time>2015-03-08T09:18:37.000Z</time>
      </trkpt>
      <trkpt lat="47.45586" lon="6.73141">
        <ele>470</ele>
        <time>2015-03-08T09:18:38.000Z</time>
      </trkpt>
      <trkpt lat="47.45585" lon="6.73137">
        <ele>470</ele>
        <time>2015-03-08T09:18:39.000Z</time>
      </trkpt>
      <trkpt lat="47.45584" lon="6.73134">
        <ele>470</ele>
        <time>2015-03-08T09:18:40.000Z</time>
      </trkpt>
      <trkpt lat="47.45584" lon="6.73127">
        <ele>469</ele>
        <time>2015-03-08T09:18:42.000Z</time>
      </trkpt>
      <trkpt lat="47.45584" lon="6.73124">
        <ele>469</ele>
        <time>2015-03-08T09:18:43.000Z</time>
      </trkpt>
      <trkpt lat="47.45585" lon="6.73118">
        <ele>469</ele>
        <time>2015-03-08T09:18:45.000Z</time>
      </trkpt>
      <trkpt lat="47.45585" lon="6.73115">
        <ele>469</ele>
        <time>2015-03-08T09:18:46.000Z</time>
      </trkpt>
      <trkpt lat="47.45586" lon="6.73112">
        <ele>469</ele>
        <time>2015-03-08T09:18:47.000Z</time>
      </trkpt>
      <trkpt lat="47.45587" lon="6.73108">
        <ele>469</ele>
        <time>2015-03-08T09:18:48.000Z</time>
      </trkpt>
      <trkpt lat="47.45587" lon="6.73105">
        <ele>469</ele>
        <time>2015-03-08T09:18:49.000Z</time>
      </trkpt>
      <trkpt lat="47.45588" lon="6.73101">
        <ele>469</ele>
        <time>2015-03-08T09:18:50.000Z</time>
      </trkpt>
      <trkpt lat="47.45588" lon="6.73097">
        <ele>469</ele>
        <time>2015-03-08T09:18:51.000Z</time>
      </trkpt>
      <trkpt lat="47.45588" lon="6.73094">
        <ele>470</ele>
        <time>2015-03-08T09:18:52.000Z</time>
      </trkpt>
      <trkpt lat="47.45588" lon="6.7309">
        <ele>470</ele>
        <time>2015-03-08T09:18:53.000Z</time>
      </trkpt>
      <trkpt lat="47.45587" lon="6.73086">
        <ele>470</ele>
        <time>2015-03-08T09:18:54.000Z</time>
      </trkpt>
      <trkpt lat="47.45586" lon="6.7308">
        <ele>469</ele>
        <time>2015-03-08T09:18:57.000Z</time>
      </trkpt>
      <trkpt lat="47.45586" lon="6.73079">
        <ele>469</ele>
        <time>2015-03-08T09:18:58.000Z</time>
      </trkpt>
      <trkpt lat="47.45586" lon="6.73074">
        <ele>469</ele>
        <time>2015-03-08T09:19:01.000Z</time>
      </trkpt>
      <trkpt lat="47.45586" lon="6.73072">
        <ele>469</ele>
        <time>2015-03-08T09:19:02.000Z</time>
      </trkpt>
      <trkpt lat="47.45586" lon="6.73067">
        <ele>468</ele>
        <time>2015-03-08T09:19:04.000Z</time>
      </trkpt>
      <trkpt lat="47.45585" lon="6.73065">
        <ele>468</ele>
        <time>2015-03-08T09:19:05.000Z</time>
      </trkpt>
      <trkpt lat="47.45585" lon="6.73059">
        <ele>468</ele>
        <time>2015-03-08T09:19:09.000Z</time>
      </trkpt>
      <trkpt lat="47.45583" lon="6.73056">
        <ele>468</ele>
        <time>2015-03-08T09:19:10.000Z</time>
      </trkpt>
      <trkpt lat="47.45582" lon="6.73053">
        <ele>469</ele>
        <time>2015-03-08T09:19:11.000Z</time>
      </trkpt>
      <trkpt lat="47.4558" lon="6.7305">
        <ele>469</ele>
        <time>2015-03-08T09:19:12.000Z</time>
      </trkpt>
      <trkpt lat="47.45577" lon="6.73047">
        <ele>469</ele>
        <time>2015-03-08T09:19:13.000Z</time>
      </trkpt>
      <trkpt lat="47.45575" lon="6.73044">
        <ele>469</ele>
        <time>2015-03-08T09:19:14.000Z</time>
      </trkpt>
      <trkpt lat="47.45573" lon="6.7304">
        <ele>469</ele>
        <time>2015-03-08T09:19:15.000Z</time>
      </trkpt>
      <trkpt lat="47.45571" lon="6.73037">
        <ele>469</ele>
        <time>2015-03-08T09:19:16.000Z</time>
      </trkpt>
      <trkpt lat="47.45569" lon="6.73031">
        <ele>469</ele>
        <time>2015-03-08T09:19:18.000Z</time>
      </trkpt>
      <trkpt lat="47.45568" lon="6.73029">
        <ele>469</ele>
        <time>2015-03-08T09:19:19.000Z</time>
      </trkpt>
      <trkpt lat="47.45565" lon="6.73024">
        <ele>469</ele>
        <time>2015-03-08T09:19:21.000Z</time>
      </trkpt>
      <trkpt lat="47.45563" lon="6.73022">
        <ele>469</ele>
        <time>2015-03-08T09:19:22.000Z</time>
      </trkpt>
      <trkpt lat="47.45561" lon="6.73017">
        <ele>468</ele>
        <time>2015-03-08T09:19:24.000Z</time>
      </trkpt>
      <trkpt lat="47.45559" lon="6.73015">
        <ele>468</ele>
        <time>2015-03-08T09:19:25.000Z</time>
      </trkpt>
      <trkpt lat="47.45556" lon="6.73012">
        <ele>469</ele>
        <time>2015-03-08T09:19:28.000Z</time>
      </trkpt>
      <trkpt lat="47.45555" lon="6.73011">
        <ele>469</ele>
        <time>2015-03-08T09:19:29.000Z</time>
      </trkpt>
      <trkpt lat="47.45551" lon="6.7301">
        <ele>469</ele>
        <time>2015-03-08T09:19:31.000Z</time>
      </trkpt>
      <trkpt lat="47.4555" lon="6.73009">
        <ele>469</ele>
        <time>2015-03-08T09:19:32.000Z</time>
      </trkpt>
      <trkpt lat="47.45546" lon="6.73006">
        <ele>469</ele>
        <time>2015-03-08T09:19:34.000Z</time>
      </trkpt>
      <trkpt lat="47.45545" lon="6.73005">
        <ele>469</ele>
        <time>2015-03-08T09:19:35.000Z</time>
      </trkpt>
      <trkpt lat="47.45542" lon="6.73001">
        <ele>469</ele>
        <time>2015-03-08T09:19:37.000Z</time>
      </trkpt>
      <trkpt lat="47.4554" lon="6.72999">
        <ele>469</ele>
        <time>2015-03-08T09:19:38.000Z</time>
      </trkpt>
      <trkpt lat="47.45538" lon="6.72994">
        <ele>469</ele>
        <time>2015-03-08T09:19:40.000Z</time>
      </trkpt>
      <trkpt lat="47.45537" lon="6.72991">
        <ele>469</ele>
        <time>2015-03-08T09:19:41.000Z</time>
      </trkpt>
      <trkpt lat="47.45536" lon="6.72988">
        <ele>469</ele>
        <time>2015-03-08T09:19:42.000Z</time>
      </trkpt>
      <trkpt lat="47.45535" lon="6.72984">
        <ele>469</ele>
        <time>2015-03-08T09:19:43.000Z</time>
      </trkpt>
      <trkpt lat="47.45533" lon="6.72981">
        <ele>469</ele>
        <time>2015-03-08T09:19:44.000Z</time>
      </trkpt>
      <trkpt lat="47.45532" lon="6.72978">
        <ele>469</ele>
        <time>2015-03-08T09:19:45.000Z</time>
      </trkpt>
      <trkpt lat="47.45529" lon="6.72973">
        <ele>469</ele>
        <time>2015-03-08T09:19:47.000Z</time>
      </trkpt>
      <trkpt lat="47.45528" lon="6.72969">
        <ele>469</ele>
        <time>2015-03-08T09:19:48.000Z</time>
      </trkpt>
      <trkpt lat="47.45526" lon="6.72966">
        <ele>469</ele>
        <time>2015-03-08T09:19:50.000Z</time>
      </trkpt>
      <trkpt lat="47.45525" lon="6.72964">
        <ele>469</ele>
        <time>2015-03-08T09:19:51.000Z</time>
      </trkpt>
      <trkpt lat="47.45522" lon="6.72961">
        <ele>469</ele>
        <time>2015-03-08T09:19:53.000Z</time>
      </trkpt>
      <trkpt lat="47.45521" lon="6.72958">
        <ele>469</ele>
        <time>2015-03-08T09:19:54.000Z</time>
      </trkpt>
      <trkpt lat="47.4552" lon="6.72954">
        <ele>469</ele>
        <time>2015-03-08T09:19:56.000Z</time>
      </trkpt>
      <trkpt lat="47.45519" lon="6.72951">
        <ele>469</ele>
        <time>2015-03-08T09:19:57.000Z</time>
      </trkpt>
      <trkpt lat="47.45518" lon="6.72947">
        <ele>469</ele>
        <time>2015-03-08T09:19:59.000Z</time>
      </trkpt>
      <trkpt lat="47.45517" lon="6.72943">
        <ele>469</ele>
        <time>2015-03-08T09:20:00.000Z</time>
      </trkpt>
      <trkpt lat="47.45518" lon="6.72937">
        <ele>469</ele>
        <time>2015-03-08T09:20:11.000Z</time>
      </trkpt>
      <trkpt lat="47.45518" lon="6.72936">
        <ele>469</ele>
        <time>2015-03-08T09:20:12.000Z</time>
      </trkpt>
      <trkpt lat="47.45518" lon="6.72942">
        <ele>469</ele>
        <time>2015-03-08T09:21:17.000Z</time>
      </trkpt>
      <trkpt lat="47.45518" lon="6.72943">
        <ele>469</ele>
        <time>2015-03-08T09:21:18.000Z</time>
      </trkpt>
      <trkpt lat="47.4552" lon="6.72948">
        <ele>469</ele>
        <time>2015-03-08T09:21:50.000Z</time>
      </trkpt>
      <trkpt lat="47.4552" lon="6.72949">
        <ele>469</ele>
        <time>2015-03-08T09:21:51.000Z</time>
      </trkpt>
      <trkpt lat="47.45518" lon="6.72945">
        <ele>469</ele>
        <time>2015-03-08T09:22:32.000Z</time>
      </trkpt>
      <trkpt lat="47.45517" lon="6.72944">
        <ele>469</ele>
        <time>2015-03-08T09:22:33.000Z</time>
      </trkpt>
      <trkpt lat="47.45515" lon="6.72938">
        <ele>469</ele>
        <time>2015-03-08T09:22:37.000Z</time>
      </trkpt>
      <trkpt lat="47.45515" lon="6.72937">
        <ele>469</ele>
        <time>2015-03-08T09:22:38.000Z</time>
      </trkpt>
      <trkpt lat="47.45514" lon="6.72932">
        <ele>470</ele>
        <time>2015-03-08T09:22:42.000Z</time>
      </trkpt>
      <trkpt lat="47.45513" lon="6.7293">
        <ele>470</ele>
        <time>2015-03-08T09:22:43.000Z</time>
      </trkpt>
      <trkpt lat="47.45512" lon="6.72925">
        <ele>470</ele>
        <time>2015-03-08T09:22:47.000Z</time>
      </trkpt>
      <trkpt lat="47.45512" lon="6.72923">
        <ele>470</ele>
        <time>2015-03-08T09:22:48.000Z</time>
      </trkpt>
      <trkpt lat="47.45512" lon="6.72916">
        <ele>469</ele>
        <time>2015-03-08T09:22:51.000Z</time>
      </trkpt>
      <trkpt lat="47.45512" lon="6.72915">
        <ele>469</ele>
        <time>2015-03-08T09:22:52.000Z</time>
      </trkpt>
      <trkpt lat="47.45511" lon="6.72909">
        <ele>469</ele>
        <time>2015-03-08T09:22:54.000Z</time>
      </trkpt>
      <trkpt lat="47.45511" lon="6.72906">
        <ele>469</ele>
        <time>2015-03-08T09:22:55.000Z</time>
      </trkpt>
      <trkpt lat="47.4551" lon="6.72901">
        <ele>468</ele>
        <time>2015-03-08T09:22:57.000Z</time>
      </trkpt>
      <trkpt lat="47.45509" lon="6.72899">
        <ele>468</ele>
        <time>2015-03-08T09:22:58.000Z</time>
      </trkpt>
      <trkpt lat="47.45507" lon="6.72894">
        <ele>468</ele>
        <time>2015-03-08T09:23:01.000Z</time>
      </trkpt>
      <trkpt lat="47.45506" lon="6.72892">
        <ele>468</ele>
        <time>2015-03-08T09:23:02.000Z</time>
      </trkpt>
      <trkpt lat="47.45504" lon="6.72888">
        <ele>468</ele>
        <time>2015-03-08T09:23:03.000Z</time>
      </trkpt>
      <trkpt lat="47.45503" lon="6.72885">
        <ele>467</ele>
        <time>2015-03-08T09:23:04.000Z</time>
      </trkpt>
      <trkpt lat="47.455" lon="6.72881">
        <ele>469</ele>
        <time>2015-03-08T09:23:06.000Z</time>
      </trkpt>
      <trkpt lat="47.45498" lon="6.72879">
        <ele>469</ele>
        <time>2015-03-08T09:23:07.000Z</time>
      </trkpt>
      <trkpt lat="47.45495" lon="6.72874">
        <ele>469</ele>
        <time>2015-03-08T09:23:09.000Z</time>
      </trkpt>
      <trkpt lat="47.45493" lon="6.72872">
        <ele>469</ele>
        <time>2015-03-08T09:23:10.000Z</time>
      </trkpt>
      <trkpt lat="47.4549" lon="6.72868">
        <ele>469</ele>
        <time>2015-03-08T09:23:12.000Z</time>
      </trkpt>
      <trkpt lat="47.45488" lon="6.72866">
        <ele>469</ele>
        <time>2015-03-08T09:23:13.000Z</time>
      </trkpt>
      <trkpt lat="47.45486" lon="6.72864">
        <ele>469</ele>
        <time>2015-03-08T09:23:14.000Z</time>
      </trkpt>
      <trkpt lat="47.45485" lon="6.72861">
        <ele>469</ele>
        <time>2015-03-08T09:23:15.000Z</time>
      </trkpt>
      <trkpt lat="47.45483" lon="6.72857">
        <ele>469</ele>
        <time>2015-03-08T09:23:16.000Z</time>
      </trkpt>
      <trkpt lat="47.45481" lon="6.72854">
        <ele>469</ele>
        <time>2015-03-08T09:23:17.000Z</time>
      </trkpt>
      <trkpt lat="47.45479" lon="6.72851">
        <ele>469</ele>
        <time>2015-03-08T09:23:18.000Z</time>
      </trkpt>
      <trkpt lat="47.45478" lon="6.72848">
        <ele>469</ele>
        <time>2015-03-08T09:23:19.000Z</time>
      </trkpt>
      <trkpt lat="47.45476" lon="6.72844">
        <ele>469</ele>
        <time>2015-03-08T09:23:20.000Z</time>
      </trkpt>
      <trkpt lat="47.45475" lon="6.72841">
        <ele>469</ele>
        <time>2015-03-08T09:23:21.000Z</time>
      </trkpt>
      <trkpt lat="47.45474" lon="6.72837">
        <ele>469</ele>
        <time>2015-03-08T09:23:22.000Z</time>
      </trkpt>
      <trkpt lat="47.45473" lon="6.72833">
        <ele>466</ele>
        <time>2015-03-08T09:23:23.000Z</time>
      </trkpt>
      <trkpt lat="47.45472" lon="6.72829">
        <ele>465</ele>
        <time>2015-03-08T09:23:24.000Z</time>
      </trkpt>
      <trkpt lat="47.45471" lon="6.72825">
        <ele>465</ele>
        <time>2015-03-08T09:23:25.000Z</time>
      </trkpt>
      <trkpt lat="47.4547" lon="6.72821">
        <ele>465</ele>
        <time>2015-03-08T09:23:26.000Z</time>
      </trkpt>
      <trkpt lat="47.45468" lon="6.72816">
        <ele>465</ele>
        <time>2015-03-08T09:23:27.000Z</time>
      </trkpt>
      <trkpt lat="47.45467" lon="6.72813">
        <ele>464</ele>
        <time>2015-03-08T09:23:28.000Z</time>
      </trkpt>
      <trkpt lat="47.45465" lon="6.72811">
        <ele>464</ele>
        <time>2015-03-08T09:23:29.000Z</time>
      </trkpt>
      <trkpt lat="47.45463" lon="6.72807">
        <ele>464</ele>
        <time>2015-03-08T09:23:31.000Z</time>
      </trkpt>
      <trkpt lat="47.45462" lon="6.72805">
        <ele>464</ele>
        <time>2015-03-08T09:23:32.000Z</time>
      </trkpt>
      <trkpt lat="47.4546" lon="6.728">
        <ele>464</ele>
        <time>2015-03-08T09:23:34.000Z</time>
      </trkpt>
      <trkpt lat="47.45459" lon="6.72798">
        <ele>463</ele>
        <time>2015-03-08T09:23:35.000Z</time>
      </trkpt>
      <trkpt lat="47.45457" lon="6.72794">
        <ele>463</ele>
        <time>2015-03-08T09:23:38.000Z</time>
      </trkpt>
      <trkpt lat="47.45457" lon="6.72792">
        <ele>463</ele>
        <time>2015-03-08T09:23:39.000Z</time>
      </trkpt>
      <trkpt lat="47.45456" lon="6.72787">
        <ele>463</ele>
        <time>2015-03-08T09:23:41.000Z</time>
      </trkpt>
      <trkpt lat="47.45455" lon="6.72785">
        <ele>463</ele>
        <time>2015-03-08T09:23:42.000Z</time>
      </trkpt>
      <trkpt lat="47.45452" lon="6.72781">
        <ele>462</ele>
        <time>2015-03-08T09:23:44.000Z</time>
      </trkpt>
      <trkpt lat="47.4545" lon="6.7278">
        <ele>462</ele>
        <time>2015-03-08T09:23:45.000Z</time>
      </trkpt>
      <trkpt lat="47.45447" lon="6.72776">
        <ele>462</ele>
        <time>2015-03-08T09:23:47.000Z</time>
      </trkpt>
      <trkpt lat="47.45446" lon="6.72774">
        <ele>462</ele>
        <time>2015-03-08T09:23:48.000Z</time>
      </trkpt>
      <trkpt lat="47.45444" lon="6.7277">
        <ele>462</ele>
        <time>2015-03-08T09:23:50.000Z</time>
      </trkpt>
      <trkpt lat="47.45443" lon="6.72769">
        <ele>462</ele>
        <time>2015-03-08T09:23:51.000Z</time>
      </trkpt>
      <trkpt lat="47.45441" lon="6.72763">
        <ele>461</ele>
        <time>2015-03-08T09:23:54.000Z</time>
      </trkpt>
      <trkpt lat="47.45442" lon="6.72761">
        <ele>461</ele>
        <time>2015-03-08T09:23:55.000Z</time>
      </trkpt>
      <trkpt lat="47.45443" lon="6.72756">
        <ele>461</ele>
        <time>2015-03-08T09:23:57.000Z</time>
      </trkpt>
      <trkpt lat="47.45444" lon="6.72753">
        <ele>461</ele>
        <time>2015-03-08T09:23:58.000Z</time>
      </trkpt>
      <trkpt lat="47.45445" lon="6.72749">
        <ele>456</ele>
        <time>2015-03-08T09:23:59.000Z</time>
      </trkpt>
      <trkpt lat="47.45446" lon="6.72745">
        <ele>456</ele>
        <time>2015-03-08T09:24:00.000Z</time>
      </trkpt>
      <trkpt lat="47.45447" lon="6.72741">
        <ele>456</ele>
        <time>2015-03-08T09:24:01.000Z</time>
      </trkpt>
      <trkpt lat="47.45448" lon="6.72736">
        <ele>456</ele>
        <time>2015-03-08T09:24:02.000Z</time>
      </trkpt>
      <trkpt lat="47.45448" lon="6.72731">
        <ele>456</ele>
        <time>2015-03-08T09:24:03.000Z</time>
      </trkpt>
      <trkpt lat="47.45448" lon="6.72726">
        <ele>456</ele>
        <time>2015-03-08T09:24:04.000Z</time>
      </trkpt>
      <trkpt lat="47.45447" lon="6.72721">
        <ele>456</ele>
        <time>2015-03-08T09:24:05.000Z</time>
      </trkpt>
      <trkpt lat="47.45444" lon="6.72717">
        <ele>456</ele>
        <time>2015-03-08T09:24:06.000Z</time>
      </trkpt>
      <trkpt lat="47.45442" lon="6.72714">
        <ele>455</ele>
        <time>2015-03-08T09:24:07.000Z</time>
      </trkpt>
      <trkpt lat="47.4544" lon="6.72713">
        <ele>455</ele>
        <time>2015-03-08T09:24:08.000Z</time>
      </trkpt>
      <trkpt lat="47.45436" lon="6.72716">
        <ele>456</ele>
        <time>2015-03-08T09:24:12.000Z</time>
      </trkpt>
      <trkpt lat="47.45435" lon="6.72716">
        <ele>456</ele>
        <time>2015-03-08T09:24:13.000Z</time>
      </trkpt>
      <trkpt lat="47.45432" lon="6.72717">
        <ele>456</ele>
        <time>2015-03-08T09:24:16.000Z</time>
      </trkpt>
      <trkpt lat="47.4543" lon="6.72718">
        <ele>456</ele>
        <time>2015-03-08T09:24:17.000Z</time>
      </trkpt>
      <trkpt lat="47.45426" lon="6.72718">
        <ele>456</ele>
        <time>2015-03-08T09:24:20.000Z</time>
      </trkpt>
      <trkpt lat="47.45425" lon="6.72718">
        <ele>456</ele>
        <time>2015-03-08T09:24:21.000Z</time>
      </trkpt>
      <trkpt lat="47.45421" lon="6.72719">
        <ele>456</ele>
        <time>2015-03-08T09:24:24.000Z</time>
      </trkpt>
      <trkpt lat="47.45419" lon="6.72719">
        <ele>456</ele>
        <time>2015-03-08T09:24:25.000Z</time>
      </trkpt>
      <trkpt lat="47.45415" lon="6.72719">
        <ele>457</ele>
        <time>2015-03-08T09:24:27.000Z</time>
      </trkpt>
      <trkpt lat="47.45413" lon="6.72719">
        <ele>457</ele>
        <time>2015-03-08T09:24:28.000Z</time>
      </trkpt>
      <trkpt lat="47.4541" lon="6.72718">
        <ele>457</ele>
        <time>2015-03-08T09:24:30.000Z</time>
      </trkpt>
      <trkpt lat="47.45408" lon="6.72717">
        <ele>457</ele>
        <time>2015-03-08T09:24:31.000Z</time>
      </trkpt>
      <trkpt lat="47.45404" lon="6.72715">
        <ele>457</ele>
        <time>2015-03-08T09:24:33.000Z</time>
      </trkpt>
      <trkpt lat="47.45402" lon="6.72713">
        <ele>457</ele>
        <time>2015-03-08T09:24:34.000Z</time>
      </trkpt>
      <trkpt lat="47.454" lon="6.72711">
        <ele>457</ele>
        <time>2015-03-08T09:24:35.000Z</time>
      </trkpt>
      <trkpt lat="47.45398" lon="6.7271">
        <ele>457</ele>
        <time>2015-03-08T09:24:36.000Z</time>
      </trkpt>
      <trkpt lat="47.45396" lon="6.72708">
        <ele>456</ele>
        <time>2015-03-08T09:24:37.000Z</time>
      </trkpt>
      <trkpt lat="47.45394" lon="6.72705">
        <ele>456</ele>
        <time>2015-03-08T09:24:38.000Z</time>
      </trkpt>
      <trkpt lat="47.45392" lon="6.72703">
        <ele>456</ele>
        <time>2015-03-08T09:24:39.000Z</time>
      </trkpt>
      <trkpt lat="47.4539" lon="6.72701">
        <ele>456</ele>
        <time>2015-03-08T09:24:40.000Z</time>
      </trkpt>
      <trkpt lat="47.45388" lon="6.72699">
        <ele>456</ele>
        <time>2015-03-08T09:24:41.000Z</time>
      </trkpt>
      <trkpt lat="47.45386" lon="6.72697">
        <ele>456</ele>
        <time>2015-03-08T09:24:42.000Z</time>
      </trkpt>
      <trkpt lat="47.45384" lon="6.72695">
        <ele>456</ele>
        <time>2015-03-08T09:24:43.000Z</time>
      </trkpt>
      <trkpt lat="47.45381" lon="6.72692">
        <ele>456</ele>
        <time>2015-03-08T09:24:44.000Z</time>
      </trkpt>
      <trkpt lat="47.45379" lon="6.7269">
        <ele>456</ele>
        <time>2015-03-08T09:24:45.000Z</time>
      </trkpt>
      <trkpt lat="47.45377" lon="6.72687">
        <ele>456</ele>
        <time>2015-03-08T09:24:46.000Z</time>
      </trkpt>
      <trkpt lat="47.45374" lon="6.72684">
        <ele>456</ele>
        <time>2015-03-08T09:24:47.000Z</time>
      </trkpt>
      <trkpt lat="47.45372" lon="6.72681">
        <ele>456</ele>
        <time>2015-03-08T09:24:48.000Z</time>
      </trkpt>
      <trkpt lat="47.45369" lon="6.72677">
        <ele>456</ele>
        <time>2015-03-08T09:24:49.000Z</time>
      </trkpt>
      <trkpt lat="47.45367" lon="6.72674">
        <ele>456</ele>
        <time>2015-03-08T09:24:50.000Z</time>
      </trkpt>
      <trkpt lat="47.45364" lon="6.72672">
        <ele>456</ele>
        <time>2015-03-08T09:24:51.000Z</time>
      </trkpt>
      <trkpt lat="47.45362" lon="6.72669">
        <ele>456</ele>
        <time>2015-03-08T09:24:52.000Z</time>
      </trkpt>
      <trkpt lat="47.45359" lon="6.72666">
        <ele>454</ele>
        <time>2015-03-08T09:24:53.000Z</time>
      </trkpt>
      <trkpt lat="47.45357" lon="6.72664">
        <ele>454</ele>
        <time>2015-03-08T09:24:54.000Z</time>
      </trkpt>
      <trkpt lat="47.45354" lon="6.72661">
        <ele>454</ele>
        <time>2015-03-08T09:24:55.000Z</time>
      </trkpt>
      <trkpt lat="47.45352" lon="6.72658">
        <ele>454</ele>
        <time>2015-03-08T09:24:56.000Z</time>
      </trkpt>
      <trkpt lat="47.4535" lon="6.72656">
        <ele>454</ele>
        <time>2015-03-08T09:24:57.000Z</time>
      </trkpt>
      <trkpt lat="47.45347" lon="6.72653">
        <ele>454</ele>
        <time>2015-03-08T09:24:58.000Z</time>
      </trkpt>
      <trkpt lat="47.45345" lon="6.7265">
        <ele>454</ele>
        <time>2015-03-08T09:24:59.000Z</time>
      </trkpt>
      <trkpt lat="47.45342" lon="6.72646">
        <ele>454</ele>
        <time>2015-03-08T09:25:00.000Z</time>
      </trkpt>
      <trkpt lat="47.45339" lon="6.72643">
        <ele>454</ele>
        <time>2015-03-08T09:25:01.000Z</time>
      </trkpt>
      <trkpt lat="47.45336" lon="6.72639">
        <ele>453</ele>
        <time>2015-03-08T09:25:02.000Z</time>
      </trkpt>
      <trkpt lat="47.45332" lon="6.72635">
        <ele>454</ele>
        <time>2015-03-08T09:25:03.000Z</time>
      </trkpt>
      <trkpt lat="47.45328" lon="6.72629">
        <ele>454</ele>
        <time>2015-03-08T09:25:04.000Z</time>
      </trkpt>
      <trkpt lat="47.45324" lon="6.72625">
        <ele>454</ele>
        <time>2015-03-08T09:25:05.000Z</time>
      </trkpt>
      <trkpt lat="47.4532" lon="6.72621">
        <ele>453</ele>
        <time>2015-03-08T09:25:06.000Z</time>
      </trkpt>
      <trkpt lat="47.45316" lon="6.72617">
        <ele>453</ele>
        <time>2015-03-08T09:25:07.000Z</time>
      </trkpt>
      <trkpt lat="47.45311" lon="6.72613">
        <ele>453</ele>
        <time>2015-03-08T09:25:08.000Z</time>
      </trkpt>
      <trkpt lat="47.45307" lon="6.7261">
        <ele>453</ele>
        <time>2015-03-08T09:25:09.000Z</time>
      </trkpt>
      <trkpt lat="47.45303" lon="6.72607">
        <ele>453</ele>
        <time>2015-03-08T09:25:10.000Z</time>
      </trkpt>
      <trkpt lat="47.45298" lon="6.72604">
        <ele>453</ele>
        <time>2015-03-08T09:25:11.000Z</time>
      </trkpt>
      <trkpt lat="47.45295" lon="6.72602">
        <ele>453</ele>
        <time>2015-03-08T09:25:12.000Z</time>
      </trkpt>
      <trkpt lat="47.45291" lon="6.72599">
        <ele>453</ele>
        <time>2015-03-08T09:25:13.000Z</time>
      </trkpt>
      <trkpt lat="47.45287" lon="6.72596">
        <ele>453</ele>
        <time>2015-03-08T09:25:14.000Z</time>
      </trkpt>
      <trkpt lat="47.45283" lon="6.72593">
        <ele>453</ele>
        <time>2015-03-08T09:25:15.000Z</time>
      </trkpt>
      <trkpt lat="47.45279" lon="6.7259">
        <ele>453</ele>
        <time>2015-03-08T09:25:16.000Z</time>
      </trkpt>
      <trkpt lat="47.45276" lon="6.72587">
        <ele>453</ele>
        <time>2015-03-08T09:25:17.000Z</time>
      </trkpt>
      <trkpt lat="47.45272" lon="6.72584">
        <ele>453</ele>
        <time>2015-03-08T09:25:18.000Z</time>
      </trkpt>
      <trkpt lat="47.45267" lon="6.72581">
        <ele>452</ele>
        <time>2015-03-08T09:25:19.000Z</time>
      </trkpt>
      <trkpt lat="47.45262" lon="6.72579">
        <ele>452</ele>
        <time>2015-03-08T09:25:20.000Z</time>
      </trkpt>
      <trkpt lat="47.45257" lon="6.72575">
        <ele>452</ele>
        <time>2015-03-08T09:25:21.000Z</time>
      </trkpt>
      <trkpt lat="47.45252" lon="6.72572">
        <ele>452</ele>
        <time>2015-03-08T09:25:22.000Z</time>
      </trkpt>
      <trkpt lat="47.45247" lon="6.72568">
        <ele>452</ele>
        <time>2015-03-08T09:25:23.000Z</time>
      </trkpt>
      <trkpt lat="47.45241" lon="6.72564">
        <ele>452</ele>
        <time>2015-03-08T09:25:24.000Z</time>
      </trkpt>
      <trkpt lat="47.45236" lon="6.72561">
        <ele>452</ele>
        <time>2015-03-08T09:25:25.000Z</time>
      </trkpt>
      <trkpt lat="47.45231" lon="6.72557">
        <ele>452</ele>
        <time>2015-03-08T09:25:26.000Z</time>
      </trkpt>
      <trkpt lat="47.45225" lon="6.72553">
        <ele>451</ele>
        <time>2015-03-08T09:25:27.000Z</time>
      </trkpt>
      <trkpt lat="47.45219" lon="6.72549">
        <ele>451</ele>
        <time>2015-03-08T09:25:28.000Z</time>
      </trkpt>
      <trkpt lat="47.45213" lon="6.72545">
        <ele>451</ele>
        <time>2015-03-08T09:25:29.000Z</time>
      </trkpt>
      <trkpt lat="47.45206" lon="6.7254">
        <ele>451</ele>
        <time>2015-03-08T09:25:30.000Z</time>
      </trkpt>
      <trkpt lat="47.452" lon="6.72535">
        <ele>451</ele>
        <time>2015-03-08T09:25:31.000Z</time>
      </trkpt>
      <trkpt lat="47.45194" lon="6.7253">
        <ele>451</ele>
        <time>2015-03-08T09:25:32.000Z</time>
      </trkpt>
      <trkpt lat="47.45187" lon="6.72526">
        <ele>450</ele>
        <time>2015-03-08T09:25:33.000Z</time>
      </trkpt>
      <trkpt lat="47.4518" lon="6.72522">
        <ele>450</ele>
        <time>2015-03-08T09:25:34.000Z</time>
      </trkpt>
      <trkpt lat="47.45174" lon="6.72517">
        <ele>450</ele>
        <time>2015-03-08T09:25:35.000Z</time>
      </trkpt>
      <trkpt lat="47.45168" lon="6.72512">
        <ele>450</ele>
        <time>2015-03-08T09:25:36.000Z</time>
      </trkpt>
      <trkpt lat="47.45161" lon="6.72507">
        <ele>450</ele>
        <time>2015-03-08T09:25:37.000Z</time>
      </trkpt>
      <trkpt lat="47.45154" lon="6.72502">
        <ele>450</ele>
        <time>2015-03-08T09:25:38.000Z</time>
      </trkpt>
      <trkpt lat="47.45148" lon="6.72498">
        <ele>450</ele>
        <time>2015-03-08T09:25:39.000Z</time>
      </trkpt>
      <trkpt lat="47.45142" lon="6.72493">
        <ele>450</ele>
        <time>2015-03-08T09:25:40.000Z</time>
      </trkpt>
      <trkpt lat="47.45136" lon="6.72488">
        <ele>450</ele>
        <time>2015-03-08T09:25:41.000Z</time>
      </trkpt>
      <trkpt lat="47.45129" lon="6.72484">
        <ele>450</ele>
        <time>2015-03-08T09:25:42.000Z</time>
      </trkpt>
      <trkpt lat="47.45123" lon="6.72481">
        <ele>450</ele>
        <time>2015-03-08T09:25:43.000Z</time>
      </trkpt>
      <trkpt lat="47.45117" lon="6.72477">
        <ele>450</ele>
        <time>2015-03-08T09:25:44.000Z</time>
      </trkpt>
      <trkpt lat="47.45112" lon="6.72473">
        <ele>450</ele>
        <time>2015-03-08T09:25:45.000Z</time>
      </trkpt>
      <trkpt lat="47.45105" lon="6.72469">
        <ele>450</ele>
        <time>2015-03-08T09:25:46.000Z</time>
      </trkpt>
      <trkpt lat="47.451" lon="6.72464">
        <ele>450</ele>
        <time>2015-03-08T09:25:47.000Z</time>
      </trkpt>
      <trkpt lat="47.45094" lon="6.7246">
        <ele>450</ele>
        <time>2015-03-08T09:25:48.000Z</time>
      </trkpt>
      <trkpt lat="47.45089" lon="6.72455">
        <ele>450</ele>
        <time>2015-03-08T09:25:49.000Z</time>
      </trkpt>
      <trkpt lat="47.45083" lon="6.72449">
        <ele>454</ele>
        <time>2015-03-08T09:25:50.000Z</time>
      </trkpt>
      <trkpt lat="47.45078" lon="6.72445">
        <ele>454</ele>
        <time>2015-03-08T09:25:51.000Z</time>
      </trkpt>
      <trkpt lat="47.45072" lon="6.72441">
        <ele>454</ele>
        <time>2015-03-08T09:25:52.000Z</time>
      </trkpt>
      <trkpt lat="47.45067" lon="6.72437">
        <ele>454</ele>
        <time>2015-03-08T09:25:53.000Z</time>
      </trkpt>
      <trkpt lat="47.45061" lon="6.72433">
        <ele>454</ele>
        <time>2015-03-08T09:25:54.000Z</time>
      </trkpt>
      <trkpt lat="47.45056" lon="6.7243">
        <ele>455</ele>
        <time>2015-03-08T09:25:55.000Z</time>
      </trkpt>
      <trkpt lat="47.45051" lon="6.72427">
        <ele>455</ele>
        <time>2015-03-08T09:25:56.000Z</time>
      </trkpt>
      <trkpt lat="47.45045" lon="6.72423">
        <ele>455</ele>
        <time>2015-03-08T09:25:57.000Z</time>
      </trkpt>
      <trkpt lat="47.4504" lon="6.7242">
        <ele>456</ele>
        <time>2015-03-08T09:25:58.000Z</time>
      </trkpt>
      <trkpt lat="47.45035" lon="6.72417">
        <ele>456</ele>
        <time>2015-03-08T09:25:59.000Z</time>
      </trkpt>
      <trkpt lat="47.4503" lon="6.72413">
        <ele>454</ele>
        <time>2015-03-08T09:26:00.000Z</time>
      </trkpt>
      <trkpt lat="47.45025" lon="6.7241">
        <ele>454</ele>
        <time>2015-03-08T09:26:01.000Z</time>
      </trkpt>
      <trkpt lat="47.45021" lon="6.72407">
        <ele>455</ele>
        <time>2015-03-08T09:26:02.000Z</time>
      </trkpt>
      <trkpt lat="47.45016" lon="6.72404">
        <ele>455</ele>
        <time>2015-03-08T09:26:03.000Z</time>
      </trkpt>
      <trkpt lat="47.45011" lon="6.72401">
        <ele>455</ele>
        <time>2015-03-08T09:26:04.000Z</time>
      </trkpt>
      <trkpt lat="47.45007" lon="6.72397">
        <ele>455</ele>
        <time>2015-03-08T09:26:05.000Z</time>
      </trkpt>
      <trkpt lat="47.45003" lon="6.72393">
        <ele>455</ele>
        <time>2015-03-08T09:26:06.000Z</time>
      </trkpt>
      <trkpt lat="47.44998" lon="6.7239">
        <ele>461</ele>
        <time>2015-03-08T09:26:07.000Z</time>
      </trkpt>
      <trkpt lat="47.44994" lon="6.72386">
        <ele>461</ele>
        <time>2015-03-08T09:26:08.000Z</time>
      </trkpt>
      <trkpt lat="47.44991" lon="6.72384">
        <ele>461</ele>
        <time>2015-03-08T09:26:09.000Z</time>
      </trkpt>
      <trkpt lat="47.44987" lon="6.72381">
        <ele>461</ele>
        <time>2015-03-08T09:26:10.000Z</time>
      </trkpt>
      <trkpt lat="47.44982" lon="6.72378">
        <ele>461</ele>
        <time>2015-03-08T09:26:11.000Z</time>
      </trkpt>
      <trkpt lat="47.44978" lon="6.72375">
        <ele>461</ele>
        <time>2015-03-08T09:26:12.000Z</time>
      </trkpt>
      <trkpt lat="47.44974" lon="6.72372">
        <ele>461</ele>
        <time>2015-03-08T09:26:13.000Z</time>
      </trkpt>
      <trkpt lat="47.4497" lon="6.72368">
        <ele>461</ele>
        <time>2015-03-08T09:26:14.000Z</time>
      </trkpt>
      <trkpt lat="47.44966" lon="6.72363">
        <ele>461</ele>
        <time>2015-03-08T09:26:15.000Z</time>
      </trkpt>
      <trkpt lat="47.44962" lon="6.72359">
        <ele>462</ele>
        <time>2015-03-08T09:26:16.000Z</time>
      </trkpt>
      <trkpt lat="47.44958" lon="6.72355">
        <ele>462</ele>
        <time>2015-03-08T09:26:17.000Z</time>
      </trkpt>
      <trkpt lat="47.44954" lon="6.72351">
        <ele>462</ele>
        <time>2015-03-08T09:26:18.000Z</time>
      </trkpt>
      <trkpt lat="47.44951" lon="6.72346">
        <ele>462</ele>
        <time>2015-03-08T09:26:19.000Z</time>
      </trkpt>
      <trkpt lat="47.44947" lon="6.72343">
        <ele>462</ele>
        <time>2015-03-08T09:26:20.000Z</time>
      </trkpt>
      <trkpt lat="47.44943" lon="6.72339">
        <ele>463</ele>
        <time>2015-03-08T09:26:21.000Z</time>
      </trkpt>
      <trkpt lat="47.44939" lon="6.72335">
        <ele>463</ele>
        <time>2015-03-08T09:26:22.000Z</time>
      </trkpt>
      <trkpt lat="47.44935" lon="6.72332">
        <ele>460</ele>
        <time>2015-03-08T09:26:23.000Z</time>
      </trkpt>
      <trkpt lat="47.4493" lon="6.72329">
        <ele>461</ele>
        <time>2015-03-08T09:26:24.000Z</time>
      </trkpt>
      <trkpt lat="47.44926" lon="6.72326">
        <ele>462</ele>
        <time>2015-03-08T09:26:25.000Z</time>
      </trkpt>
      <trkpt lat="47.44923" lon="6.72324">
        <ele>462</ele>
        <time>2015-03-08T09:26:26.000Z</time>
      </trkpt>
      <trkpt lat="47.44919" lon="6.72322">
        <ele>462</ele>
        <time>2015-03-08T09:26:27.000Z</time>
      </trkpt>
      <trkpt lat="47.44916" lon="6.72319">
        <ele>466</ele>
        <time>2015-03-08T09:26:28.000Z</time>
      </trkpt>
      <trkpt lat="47.44912" lon="6.72317">
        <ele>466</ele>
        <time>2015-03-08T09:26:29.000Z</time>
      </trkpt>
      <trkpt lat="47.44908" lon="6.72315">
        <ele>466</ele>
        <time>2015-03-08T09:26:30.000Z</time>
      </trkpt>
      <trkpt lat="47.44905" lon="6.72314">
        <ele>466</ele>
        <time>2015-03-08T09:26:31.000Z</time>
      </trkpt>
      <trkpt lat="47.44901" lon="6.72311">
        <ele>466</ele>
        <time>2015-03-08T09:26:32.000Z</time>
      </trkpt>
      <trkpt lat="47.44898" lon="6.72308">
        <ele>466</ele>
        <time>2015-03-08T09:26:33.000Z</time>
      </trkpt>
      <trkpt lat="47.44895" lon="6.72307">
        <ele>466</ele>
        <time>2015-03-08T09:26:34.000Z</time>
      </trkpt>
      <trkpt lat="47.44891" lon="6.72305">
        <ele>466</ele>
        <time>2015-03-08T09:26:35.000Z</time>
      </trkpt>
      <trkpt lat="47.44888" lon="6.72303">
        <ele>467</ele>
        <time>2015-03-08T09:26:36.000Z</time>
      </trkpt>
      <trkpt lat="47.44884" lon="6.72301">
        <ele>467</ele>
        <time>2015-03-08T09:26:37.000Z</time>
      </trkpt>
      <trkpt lat="47.44881" lon="6.72298">
        <ele>467</ele>
        <time>2015-03-08T09:26:38.000Z</time>
      </trkpt>
      <trkpt lat="47.44878" lon="6.72295">
        <ele>467</ele>
        <time>2015-03-08T09:26:39.000Z</time>
      </trkpt>
      <trkpt lat="47.44875" lon="6.72292">
        <ele>467</ele>
        <time>2015-03-08T09:26:40.000Z</time>
      </trkpt>
      <trkpt lat="47.44871" lon="6.72289">
        <ele>467</ele>
        <time>2015-03-08T09:26:41.000Z</time>
      </trkpt>
      <trkpt lat="47.44868" lon="6.72286">
        <ele>467</ele>
        <time>2015-03-08T09:26:42.000Z</time>
      </trkpt>
      <trkpt lat="47.44865" lon="6.72285">
        <ele>467</ele>
        <time>2015-03-08T09:26:43.000Z</time>
      </trkpt>
      <trkpt lat="47.44862" lon="6.72284">
        <ele>467</ele>
        <time>2015-03-08T09:26:44.000Z</time>
      </trkpt>
      <trkpt lat="47.44859" lon="6.72283">
        <ele>467</ele>
        <time>2015-03-08T09:26:45.000Z</time>
      </trkpt>
      <trkpt lat="47.44856" lon="6.72282">
        <ele>467</ele>
        <time>2015-03-08T09:26:46.000Z</time>
      </trkpt>
      <trkpt lat="47.44853" lon="6.72281">
        <ele>467</ele>
        <time>2015-03-08T09:26:47.000Z</time>
      </trkpt>
      <trkpt lat="47.44851" lon="6.72277">
        <ele>467</ele>
        <time>2015-03-08T09:26:48.000Z</time>
      </trkpt>
      <trkpt lat="47.44848" lon="6.72274">
        <ele>467</ele>
        <time>2015-03-08T09:26:49.000Z</time>
      </trkpt>
      <trkpt lat="47.44846" lon="6.72272">
        <ele>467</ele>
        <time>2015-03-08T09:26:50.000Z</time>
      </trkpt>
      <trkpt lat="47.44842" lon="6.7227">
        <ele>467</ele>
        <time>2015-03-08T09:26:52.000Z</time>
      </trkpt>
      <trkpt lat="47.44841" lon="6.72271">
        <ele>467</ele>
        <time>2015-03-08T09:26:53.000Z</time>
      </trkpt>
      <trkpt lat="47.44838" lon="6.72269">
        <ele>467</ele>
        <time>2015-03-08T09:26:54.000Z</time>
      </trkpt>
      <trkpt lat="47.44835" lon="6.72267">
        <ele>467</ele>
        <time>2015-03-08T09:26:55.000Z</time>
      </trkpt>
      <trkpt lat="47.44831" lon="6.72267">
        <ele>471</ele>
        <time>2015-03-08T09:26:57.000Z</time>
      </trkpt>
      <trkpt lat="47.44828" lon="6.72268">
        <ele>471</ele>
        <time>2015-03-08T09:26:58.000Z</time>
      </trkpt>
      <trkpt lat="47.44826" lon="6.72268">
        <ele>472</ele>
        <time>2015-03-08T09:26:59.001Z</time>
      </trkpt>
      <trkpt lat="47.44819" lon="6.72259">
        <ele>471</ele>
        <time>2015-03-08T09:27:00.000Z</time>
      </trkpt>
      <trkpt lat="47.44815" lon="6.72257">
        <ele>471</ele>
        <time>2015-03-08T09:27:01.000Z</time>
      </trkpt>
      <trkpt lat="47.44811" lon="6.72255">
        <ele>472</ele>
        <time>2015-03-08T09:27:02.000Z</time>
      </trkpt>
      <trkpt lat="47.44809" lon="6.72256">
        <ele>472</ele>
        <time>2015-03-08T09:27:03.000Z</time>
      </trkpt>
      <trkpt lat="47.44807" lon="6.72257">
        <ele>473</ele>
        <time>2015-03-08T09:27:04.000Z</time>
      </trkpt>
      <trkpt lat="47.44806" lon="6.7226">
        <ele>473</ele>
        <time>2015-03-08T09:27:05.000Z</time>
      </trkpt>
      <trkpt lat="47.44804" lon="6.72261">
        <ele>473</ele>
        <time>2015-03-08T09:27:06.001Z</time>
      </trkpt>
      <trkpt lat="47.44799" lon="6.72259">
        <ele>473</ele>
        <time>2015-03-08T09:27:07.000Z</time>
      </trkpt>
      <trkpt lat="47.44797" lon="6.72264">
        <ele>474</ele>
        <time>2015-03-08T09:27:08.000Z</time>
      </trkpt>
      <trkpt lat="47.44794" lon="6.72264">
        <ele>474</ele>
        <time>2015-03-08T09:27:09.000Z</time>
      </trkpt>
      <trkpt lat="47.44791" lon="6.72265">
        <ele>474</ele>
        <time>2015-03-08T09:27:10.000Z</time>
      </trkpt>
      <trkpt lat="47.44788" lon="6.72266">
        <ele>475</ele>
        <time>2015-03-08T09:27:11.000Z</time>
      </trkpt>
      <trkpt lat="47.44786" lon="6.72267">
        <ele>475</ele>
        <time>2015-03-08T09:27:12.000Z</time>
      </trkpt>
      <trkpt lat="47.44783" lon="6.72268">
        <ele>475</ele>
        <time>2015-03-08T09:27:13.000Z</time>
      </trkpt>
      <trkpt lat="47.44781" lon="6.72269">
        <ele>475</ele>
        <time>2015-03-08T09:27:14.000Z</time>
      </trkpt>
      <trkpt lat="47.44778" lon="6.72269">
        <ele>475</ele>
        <time>2015-03-08T09:27:15.000Z</time>
      </trkpt>
      <trkpt lat="47.44775" lon="6.72269">
        <ele>475</ele>
        <time>2015-03-08T09:27:16.000Z</time>
      </trkpt>
      <trkpt lat="47.44772" lon="6.72268">
        <ele>475</ele>
        <time>2015-03-08T09:27:17.000Z</time>
      </trkpt>
      <trkpt lat="47.44769" lon="6.72268">
        <ele>475</ele>
        <time>2015-03-08T09:27:18.000Z</time>
      </trkpt>
      <trkpt lat="47.44766" lon="6.72269">
        <ele>475</ele>
        <time>2015-03-08T09:27:19.000Z</time>
      </trkpt>
      <trkpt lat="47.44763" lon="6.72269">
        <ele>475</ele>
        <time>2015-03-08T09:27:20.000Z</time>
      </trkpt>
      <trkpt lat="47.4476" lon="6.72271">
        <ele>475</ele>
        <time>2015-03-08T09:27:21.000Z</time>
      </trkpt>
      <trkpt lat="47.44758" lon="6.72271">
        <ele>475</ele>
        <time>2015-03-08T09:27:21.999Z</time>
      </trkpt>
      <trkpt lat="47.44755" lon="6.72272">
        <ele>475</ele>
        <time>2015-03-08T09:27:23.000Z</time>
      </trkpt>
      <trkpt lat="47.44753" lon="6.72274">
        <ele>476</ele>
        <time>2015-03-08T09:27:24.000Z</time>
      </trkpt>
      <trkpt lat="47.4475" lon="6.72275">
        <ele>476</ele>
        <time>2015-03-08T09:27:25.000Z</time>
      </trkpt>
      <trkpt lat="47.44748" lon="6.72276">
        <ele>477</ele>
        <time>2015-03-08T09:27:26.000Z</time>
      </trkpt>
      <trkpt lat="47.44745" lon="6.72277">
        <ele>477</ele>
        <time>2015-03-08T09:27:27.000Z</time>
      </trkpt>
      <trkpt lat="47.44742" lon="6.72278">
        <ele>477</ele>
        <time>2015-03-08T09:27:28.000Z</time>
      </trkpt>
      <trkpt lat="47.44739" lon="6.72279">
        <ele>477</ele>
        <time>2015-03-08T09:27:29.000Z</time>
      </trkpt>
      <trkpt lat="47.44736" lon="6.7228">
        <ele>477</ele>
        <time>2015-03-08T09:27:30.000Z</time>
      </trkpt>
      <trkpt lat="47.44734" lon="6.72281">
        <ele>477</ele>
        <time>2015-03-08T09:27:31.000Z</time>
      </trkpt>
      <trkpt lat="47.44731" lon="6.72283">
        <ele>477</ele>
        <time>2015-03-08T09:27:32.000Z</time>
      </trkpt>
      <trkpt lat="47.44728" lon="6.72284">
        <ele>477</ele>
        <time>2015-03-08T09:27:33.000Z</time>
      </trkpt>
      <trkpt lat="47.44725" lon="6.72286">
        <ele>477</ele>
        <time>2015-03-08T09:27:34.000Z</time>
      </trkpt>
      <trkpt lat="47.44722" lon="6.72288">
        <ele>477</ele>
        <time>2015-03-08T09:27:35.000Z</time>
      </trkpt>
      <trkpt lat="47.44719" lon="6.72289">
        <ele>478</ele>
        <time>2015-03-08T09:27:36.000Z</time>
      </trkpt>
      <trkpt lat="47.44716" lon="6.7229">
        <ele>478</ele>
        <time>2015-03-08T09:27:37.000Z</time>
      </trkpt>
      <trkpt lat="47.44713" lon="6.72292">
        <ele>478</ele>
        <time>2015-03-08T09:27:38.000Z</time>
      </trkpt>
      <trkpt lat="47.4471" lon="6.72293">
        <ele>478</ele>
        <time>2015-03-08T09:27:39.000Z</time>
      </trkpt>
      <trkpt lat="47.44707" lon="6.72295">
        <ele>478</ele>
        <time>2015-03-08T09:27:40.000Z</time>
      </trkpt>
      <trkpt lat="47.44703" lon="6.72297">
        <ele>478</ele>
        <time>2015-03-08T09:27:41.000Z</time>
      </trkpt>
      <trkpt lat="47.447" lon="6.72299">
        <ele>478</ele>
        <time>2015-03-08T09:27:42.000Z</time>
      </trkpt>
      <trkpt lat="47.44696" lon="6.72301">
        <ele>478</ele>
        <time>2015-03-08T09:27:43.000Z</time>
      </trkpt>
      <trkpt lat="47.44693" lon="6.72302">
        <ele>478</ele>
        <time>2015-03-08T09:27:44.000Z</time>
      </trkpt>
      <trkpt lat="47.4469" lon="6.72304">
        <ele>478</ele>
        <time>2015-03-08T09:27:45.000Z</time>
      </trkpt>
      <trkpt lat="47.44687" lon="6.72305">
        <ele>478</ele>
        <time>2015-03-08T09:27:46.000Z</time>
      </trkpt>
      <trkpt lat="47.44683" lon="6.72306">
        <ele>478</ele>
        <time>2015-03-08T09:27:47.000Z</time>
      </trkpt>
      <trkpt lat="47.4468" lon="6.72308">
        <ele>478</ele>
        <time>2015-03-08T09:27:48.000Z</time>
      </trkpt>
      <trkpt lat="47.44676" lon="6.72309">
        <ele>478</ele>
        <time>2015-03-08T09:27:49.000Z</time>
      </trkpt>
      <trkpt lat="47.44672" lon="6.72311">
        <ele>478</ele>
        <time>2015-03-08T09:27:50.000Z</time>
      </trkpt>
      <trkpt lat="47.44668" lon="6.72312">
        <ele>478</ele>
        <time>2015-03-08T09:27:51.000Z</time>
      </trkpt>
      <trkpt lat="47.44663" lon="6.72312">
        <ele>477</ele>
        <time>2015-03-08T09:27:52.000Z</time>
      </trkpt>
      <trkpt lat="47.44659" lon="6.72314">
        <ele>477</ele>
        <time>2015-03-08T09:27:53.000Z</time>
      </trkpt>
      <trkpt lat="47.44655" lon="6.72316">
        <ele>477</ele>
        <time>2015-03-08T09:27:54.000Z</time>
      </trkpt>
      <trkpt lat="47.44651" lon="6.72317">
        <ele>477</ele>
        <time>2015-03-08T09:27:55.000Z</time>
      </trkpt>
      <trkpt lat="47.44646" lon="6.72319">
        <ele>476</ele>
        <time>2015-03-08T09:27:56.000Z</time>
      </trkpt>
      <trkpt lat="47.44642" lon="6.72322">
        <ele>476</ele>
        <time>2015-03-08T09:27:57.000Z</time>
      </trkpt>
      <trkpt lat="47.44637" lon="6.72321">
        <ele>476</ele>
        <time>2015-03-08T09:27:58.000Z</time>
      </trkpt>
      <trkpt lat="47.44632" lon="6.7232">
        <ele>476</ele>
        <time>2015-03-08T09:27:59.000Z</time>
      </trkpt>
      <trkpt lat="47.44627" lon="6.72318">
        <ele>476</ele>
        <time>2015-03-08T09:28:00.000Z</time>
      </trkpt>
      <trkpt lat="47.44621" lon="6.72319">
        <ele>476</ele>
        <time>2015-03-08T09:28:01.000Z</time>
      </trkpt>
      <trkpt lat="47.44616" lon="6.72319">
        <ele>476</ele>
        <time>2015-03-08T09:28:02.000Z</time>
      </trkpt>
      <trkpt lat="47.44611" lon="6.72322">
        <ele>476</ele>
        <time>2015-03-08T09:28:03.000Z</time>
      </trkpt>
      <trkpt lat="47.44605" lon="6.72322">
        <ele>476</ele>
        <time>2015-03-08T09:28:04.000Z</time>
      </trkpt>
      <trkpt lat="47.44597" lon="6.72325">
        <ele>476</ele>
        <time>2015-03-08T09:28:05.000Z</time>
      </trkpt>
      <trkpt lat="47.4459" lon="6.72324">
        <ele>477</ele>
        <time>2015-03-08T09:28:06.000Z</time>
      </trkpt>
      <trkpt lat="47.44586" lon="6.72328">
        <ele>477</ele>
        <time>2015-03-08T09:28:07.000Z</time>
      </trkpt>
      <trkpt lat="47.4458" lon="6.72329">
        <ele>477</ele>
        <time>2015-03-08T09:28:08.000Z</time>
      </trkpt>
      <trkpt lat="47.44576" lon="6.72333">
        <ele>477</ele>
        <time>2015-03-08T09:28:09.000Z</time>
      </trkpt>
      <trkpt lat="47.4457" lon="6.72336">
        <ele>479</ele>
        <time>2015-03-08T09:28:10.000Z</time>
      </trkpt>
      <trkpt lat="47.44564" lon="6.72339">
        <ele>479</ele>
        <time>2015-03-08T09:28:11.000Z</time>
      </trkpt>
      <trkpt lat="47.44555" lon="6.72334">
        <ele>479</ele>
        <time>2015-03-08T09:28:12.000Z</time>
      </trkpt>
      <trkpt lat="47.4455" lon="6.72333">
        <ele>474</ele>
        <time>2015-03-08T09:28:13.000Z</time>
      </trkpt>
      <trkpt lat="47.44545" lon="6.72335">
        <ele>479</ele>
        <time>2015-03-08T09:28:14.001Z</time>
      </trkpt>
      <trkpt lat="47.44537" lon="6.72336">
        <ele>479</ele>
        <time>2015-03-08T09:28:15.000Z</time>
      </trkpt>
      <trkpt lat="47.4453" lon="6.72335">
        <ele>479</ele>
        <time>2015-03-08T09:28:16.000Z</time>
      </trkpt>
      <trkpt lat="47.44523" lon="6.72337">
        <ele>479</ele>
        <time>2015-03-08T09:28:17.000Z</time>
      </trkpt>
      <trkpt lat="47.44517" lon="6.72341">
        <ele>478</ele>
        <time>2015-03-08T09:28:18.000Z</time>
      </trkpt>
      <trkpt lat="47.44513" lon="6.72344">
        <ele>478</ele>
        <time>2015-03-08T09:28:19.000Z</time>
      </trkpt>
      <trkpt lat="47.44507" lon="6.72343">
        <ele>478</ele>
        <time>2015-03-08T09:28:20.000Z</time>
      </trkpt>
      <trkpt lat="47.44501" lon="6.72345">
        <ele>478</ele>
        <time>2015-03-08T09:28:21.000Z</time>
      </trkpt>
      <trkpt lat="47.44495" lon="6.72346">
        <ele>477</ele>
        <time>2015-03-08T09:28:22.000Z</time>
      </trkpt>
      <trkpt lat="47.44492" lon="6.72349">
        <ele>477</ele>
        <time>2015-03-08T09:28:23.000Z</time>
      </trkpt>
      <trkpt lat="47.44488" lon="6.72351">
        <ele>477</ele>
        <time>2015-03-08T09:28:24.000Z</time>
      </trkpt>
      <trkpt lat="47.44484" lon="6.72353">
        <ele>478</ele>
        <time>2015-03-08T09:28:25.000Z</time>
      </trkpt>
      <trkpt lat="47.44478" lon="6.72353">
        <ele>478</ele>
        <time>2015-03-08T09:28:26.000Z</time>
      </trkpt>
      <trkpt lat="47.44473" lon="6.72352">
        <ele>478</ele>
        <time>2015-03-08T09:28:27.000Z</time>
      </trkpt>
      <trkpt lat="47.44469" lon="6.72352">
        <ele>478</ele>
        <time>2015-03-08T09:28:28.000Z</time>
      </trkpt>
      <trkpt lat="47.44464" lon="6.72353">
        <ele>478</ele>
        <time>2015-03-08T09:28:29.000Z</time>
      </trkpt>
      <trkpt lat="47.44459" lon="6.72354">
        <ele>477</ele>
        <time>2015-03-08T09:28:30.000Z</time>
      </trkpt>
      <trkpt lat="47.44454" lon="6.72352">
        <ele>477</ele>
        <time>2015-03-08T09:28:31.000Z</time>
      </trkpt>
      <trkpt lat="47.44448" lon="6.72353">
        <ele>477</ele>
        <time>2015-03-08T09:28:32.000Z</time>
      </trkpt>
      <trkpt lat="47.44443" lon="6.72353">
        <ele>477</ele>
        <time>2015-03-08T09:28:33.000Z</time>
      </trkpt>
      <trkpt lat="47.44438" lon="6.72352">
        <ele>477</ele>
        <time>2015-03-08T09:28:34.000Z</time>
      </trkpt>
      <trkpt lat="47.44432" lon="6.72352">
        <ele>477</ele>
        <time>2015-03-08T09:28:35.000Z</time>
      </trkpt>
      <trkpt lat="47.44427" lon="6.72353">
        <ele>476</ele>
        <time>2015-03-08T09:28:36.000Z</time>
      </trkpt>
      <trkpt lat="47.44421" lon="6.72354">
        <ele>476</ele>
        <time>2015-03-08T09:28:37.000Z</time>
      </trkpt>
      <trkpt lat="47.44416" lon="6.72353">
        <ele>476</ele>
        <time>2015-03-08T09:28:38.000Z</time>
      </trkpt>
      <trkpt lat="47.4441" lon="6.72353">
        <ele>476</ele>
        <time>2015-03-08T09:28:39.000Z</time>
      </trkpt>
      <trkpt lat="47.44405" lon="6.72353">
        <ele>476</ele>
        <time>2015-03-08T09:28:40.000Z</time>
      </trkpt>
      <trkpt lat="47.444" lon="6.72354">
        <ele>476</ele>
        <time>2015-03-08T09:28:41.000Z</time>
      </trkpt>
      <trkpt lat="47.44395" lon="6.72355">
        <ele>477</ele>
        <time>2015-03-08T09:28:42.000Z</time>
      </trkpt>
      <trkpt lat="47.4439" lon="6.72357">
        <ele>477</ele>
        <time>2015-03-08T09:28:43.000Z</time>
      </trkpt>
      <trkpt lat="47.44385" lon="6.72359">
        <ele>477</ele>
        <time>2015-03-08T09:28:44.000Z</time>
      </trkpt>
      <trkpt lat="47.4438" lon="6.72361">
        <ele>477</ele>
        <time>2015-03-08T09:28:45.000Z</time>
      </trkpt>
      <trkpt lat="47.44374" lon="6.72363">
        <ele>477</ele>
        <time>2015-03-08T09:28:46.000Z</time>
      </trkpt>
      <trkpt lat="47.44369" lon="6.72365">
        <ele>477</ele>
        <time>2015-03-08T09:28:47.000Z</time>
      </trkpt>
      <trkpt lat="47.44364" lon="6.72368">
        <ele>477</ele>
        <time>2015-03-08T09:28:48.000Z</time>
      </trkpt>
      <trkpt lat="47.44358" lon="6.7237">
        <ele>478</ele>
        <time>2015-03-08T09:28:49.000Z</time>
      </trkpt>
      <trkpt lat="47.44353" lon="6.72373">
        <ele>478</ele>
        <time>2015-03-08T09:28:50.000Z</time>
      </trkpt>
      <trkpt lat="47.44348" lon="6.72376">
        <ele>478</ele>
        <time>2015-03-08T09:28:51.000Z</time>
      </trkpt>
      <trkpt lat="47.44343" lon="6.7238">
        <ele>478</ele>
        <time>2015-03-08T09:28:52.000Z</time>
      </trkpt>
      <trkpt lat="47.44337" lon="6.7238">
        <ele>478</ele>
        <time>2015-03-08T09:28:53.000Z</time>
      </trkpt>
      <trkpt lat="47.44332" lon="6.72383">
        <ele>480</ele>
        <time>2015-03-08T09:28:54.000Z</time>
      </trkpt>
      <trkpt lat="47.44328" lon="6.72386">
        <ele>480</ele>
        <time>2015-03-08T09:28:55.000Z</time>
      </trkpt>
      <trkpt lat="47.44323" lon="6.72389">
        <ele>480</ele>
        <time>2015-03-08T09:28:56.000Z</time>
      </trkpt>
      <trkpt lat="47.44319" lon="6.72391">
        <ele>480</ele>
        <time>2015-03-08T09:28:57.000Z</time>
      </trkpt>
      <trkpt lat="47.44314" lon="6.72393">
        <ele>480</ele>
        <time>2015-03-08T09:28:58.000Z</time>
      </trkpt>
      <trkpt lat="47.44308" lon="6.72396">
        <ele>481</ele>
        <time>2015-03-08T09:28:59.000Z</time>
      </trkpt>
      <trkpt lat="47.44302" lon="6.72397">
        <ele>481</ele>
        <time>2015-03-08T09:29:00.000Z</time>
      </trkpt>
      <trkpt lat="47.44297" lon="6.724">
        <ele>481</ele>
        <time>2015-03-08T09:29:01.000Z</time>
      </trkpt>
      <trkpt lat="47.44293" lon="6.72403">
        <ele>481</ele>
        <time>2015-03-08T09:29:02.000Z</time>
      </trkpt>
      <trkpt lat="47.44288" lon="6.72406">
        <ele>481</ele>
        <time>2015-03-08T09:29:03.000Z</time>
      </trkpt>
      <trkpt lat="47.44284" lon="6.72407">
        <ele>481</ele>
        <time>2015-03-08T09:29:04.000Z</time>
      </trkpt>
      <trkpt lat="47.44279" lon="6.72407">
        <ele>481</ele>
        <time>2015-03-08T09:29:05.000Z</time>
      </trkpt>
      <trkpt lat="47.44273" lon="6.72407">
        <ele>481</ele>
        <time>2015-03-08T09:29:06.000Z</time>
      </trkpt>
      <trkpt lat="47.44268" lon="6.72409">
        <ele>482</ele>
        <time>2015-03-08T09:29:07.000Z</time>
      </trkpt>
      <trkpt lat="47.44262" lon="6.72409">
        <ele>482</ele>
        <time>2015-03-08T09:29:08.000Z</time>
      </trkpt>
      <trkpt lat="47.44256" lon="6.72412">
        <ele>482</ele>
        <time>2015-03-08T09:29:09.000Z</time>
      </trkpt>
      <trkpt lat="47.44251" lon="6.72413">
        <ele>483</ele>
        <time>2015-03-08T09:29:10.000Z</time>
      </trkpt>
      <trkpt lat="47.44246" lon="6.72414">
        <ele>483</ele>
        <time>2015-03-08T09:29:11.000Z</time>
      </trkpt>
      <trkpt lat="47.44239" lon="6.72413">
        <ele>483</ele>
        <time>2015-03-08T09:29:12.000Z</time>
      </trkpt>
      <trkpt lat="47.44234" lon="6.72414">
        <ele>483</ele>
        <time>2015-03-08T09:29:13.000Z</time>
      </trkpt>
      <trkpt lat="47.44229" lon="6.72417">
        <ele>482</ele>
        <time>2015-03-08T09:29:14.000Z</time>
      </trkpt>
      <trkpt lat="47.44224" lon="6.72416">
        <ele>482</ele>
        <time>2015-03-08T09:29:15.000Z</time>
      </trkpt>
      <trkpt lat="47.44218" lon="6.72417">
        <ele>482</ele>
        <time>2015-03-08T09:29:16.000Z</time>
      </trkpt>
      <trkpt lat="47.44212" lon="6.72418">
        <ele>482</ele>
        <time>2015-03-08T09:29:17.000Z</time>
      </trkpt>
      <trkpt lat="47.44207" lon="6.72419">
        <ele>481</ele>
        <time>2015-03-08T09:29:18.000Z</time>
      </trkpt>
      <trkpt lat="47.44201" lon="6.7242">
        <ele>481</ele>
        <time>2015-03-08T09:29:19.000Z</time>
      </trkpt>
      <trkpt lat="47.44196" lon="6.72421">
        <ele>481</ele>
        <time>2015-03-08T09:29:20.000Z</time>
      </trkpt>
      <trkpt lat="47.44189" lon="6.72421">
        <ele>481</ele>
        <time>2015-03-08T09:29:21.000Z</time>
      </trkpt>
      <trkpt lat="47.44183" lon="6.72421">
        <ele>481</ele>
        <time>2015-03-08T09:29:22.000Z</time>
      </trkpt>
      <trkpt lat="47.44178" lon="6.72423">
        <ele>481</ele>
        <time>2015-03-08T09:29:23.000Z</time>
      </trkpt>
      <trkpt lat="47.44172" lon="6.72425">
        <ele>481</ele>
        <time>2015-03-08T09:29:24.000Z</time>
      </trkpt>
      <trkpt lat="47.44166" lon="6.72427">
        <ele>479</ele>
        <time>2015-03-08T09:29:25.000Z</time>
      </trkpt>
      <trkpt lat="47.44161" lon="6.72428">
        <ele>479</ele>
        <time>2015-03-08T09:29:26.000Z</time>
      </trkpt>
      <trkpt lat="47.44154" lon="6.7243">
        <ele>478</ele>
        <time>2015-03-08T09:29:27.000Z</time>
      </trkpt>
      <trkpt lat="47.44147" lon="6.72431">
        <ele>477</ele>
        <time>2015-03-08T09:29:28.000Z</time>
      </trkpt>
      <trkpt lat="47.44141" lon="6.72435">
        <ele>476</ele>
        <time>2015-03-08T09:29:29.000Z</time>
      </trkpt>
      <trkpt lat="47.44134" lon="6.72438">
        <ele>476</ele>
        <time>2015-03-08T09:29:30.000Z</time>
      </trkpt>
      <trkpt lat="47.44128" lon="6.72439">
        <ele>475</ele>
        <time>2015-03-08T09:29:31.000Z</time>
      </trkpt>
      <trkpt lat="47.44122" lon="6.7244">
        <ele>475</ele>
        <time>2015-03-08T09:29:32.000Z</time>
      </trkpt>
      <trkpt lat="47.44115" lon="6.72442">
        <ele>474</ele>
        <time>2015-03-08T09:29:33.000Z</time>
      </trkpt>
      <trkpt lat="47.44108" lon="6.72445">
        <ele>474</ele>
        <time>2015-03-08T09:29:34.000Z</time>
      </trkpt>
      <trkpt lat="47.44102" lon="6.72447">
        <ele>474</ele>
        <time>2015-03-08T09:29:35.000Z</time>
      </trkpt>
      <trkpt lat="47.44093" lon="6.72449">
        <ele>473</ele>
        <time>2015-03-08T09:29:36.000Z</time>
      </trkpt>
      <trkpt lat="47.44084" lon="6.72452">
        <ele>473</ele>
        <time>2015-03-08T09:29:37.000Z</time>
      </trkpt>
      <trkpt lat="47.44075" lon="6.72452">
        <ele>468</ele>
        <time>2015-03-08T09:29:38.000Z</time>
      </trkpt>
      <trkpt lat="47.44067" lon="6.72455">
        <ele>468</ele>
        <time>2015-03-08T09:29:39.000Z</time>
      </trkpt>
      <trkpt lat="47.44059" lon="6.72459">
        <ele>468</ele>
        <time>2015-03-08T09:29:40.000Z</time>
      </trkpt>
      <trkpt lat="47.44051" lon="6.7246">
        <ele>467</ele>
        <time>2015-03-08T09:29:41.000Z</time>
      </trkpt>
      <trkpt lat="47.44044" lon="6.72464">
        <ele>467</ele>
        <time>2015-03-08T09:29:42.000Z</time>
      </trkpt>
      <trkpt lat="47.44036" lon="6.72466">
        <ele>467</ele>
        <time>2015-03-08T09:29:43.000Z</time>
      </trkpt>
      <trkpt lat="47.44029" lon="6.72468">
        <ele>467</ele>
        <time>2015-03-08T09:29:44.000Z</time>
      </trkpt>
      <trkpt lat="47.44021" lon="6.7247">
        <ele>466</ele>
        <time>2015-03-08T09:29:45.000Z</time>
      </trkpt>
      <trkpt lat="47.44014" lon="6.72473">
        <ele>466</ele>
        <time>2015-03-08T09:29:46.000Z</time>
      </trkpt>
      <trkpt lat="47.44008" lon="6.72475">
        <ele>466</ele>
        <time>2015-03-08T09:29:47.000Z</time>
      </trkpt>
      <trkpt lat="47.44001" lon="6.72477">
        <ele>466</ele>
        <time>2015-03-08T09:29:48.000Z</time>
      </trkpt>
      <trkpt lat="47.43995" lon="6.7248">
        <ele>464</ele>
        <time>2015-03-08T09:29:49.000Z</time>
      </trkpt>
      <trkpt lat="47.43989" lon="6.72482">
        <ele>464</ele>
        <time>2015-03-08T09:29:50.000Z</time>
      </trkpt>
      <trkpt lat="47.43983" lon="6.72484">
        <ele>464</ele>
        <time>2015-03-08T09:29:51.000Z</time>
      </trkpt>
      <trkpt lat="47.43977" lon="6.72486">
        <ele>464</ele>
        <time>2015-03-08T09:29:52.000Z</time>
      </trkpt>
      <trkpt lat="47.43971" lon="6.72488">
        <ele>464</ele>
        <time>2015-03-08T09:29:53.000Z</time>
      </trkpt>
      <trkpt lat="47.43966" lon="6.7249">
        <ele>464</ele>
        <time>2015-03-08T09:29:54.000Z</time>
      </trkpt>
      <trkpt lat="47.4396" lon="6.72492">
        <ele>464</ele>
        <time>2015-03-08T09:29:55.000Z</time>
      </trkpt>
      <trkpt lat="47.43954" lon="6.72495">
        <ele>464</ele>
        <time>2015-03-08T09:29:56.000Z</time>
      </trkpt>
      <trkpt lat="47.43949" lon="6.72497">
        <ele>464</ele>
        <time>2015-03-08T09:29:57.000Z</time>
      </trkpt>
      <trkpt lat="47.43943" lon="6.72498">
        <ele>464</ele>
        <time>2015-03-08T09:29:58.000Z</time>
      </trkpt>
      <trkpt lat="47.43938" lon="6.72499">
        <ele>464</ele>
        <time>2015-03-08T09:29:59.000Z</time>
      </trkpt>
      <trkpt lat="47.43932" lon="6.72499">
        <ele>464</ele>
        <time>2015-03-08T09:30:00.000Z</time>
      </trkpt>
      <trkpt lat="47.43926" lon="6.72498">
        <ele>463</ele>
        <time>2015-03-08T09:30:01.000Z</time>
      </trkpt>
      <trkpt lat="47.4392" lon="6.72494">
        <ele>463</ele>
        <time>2015-03-08T09:30:02.000Z</time>
      </trkpt>
      <trkpt lat="47.43915" lon="6.7249">
        <ele>463</ele>
        <time>2015-03-08T09:30:03.000Z</time>
      </trkpt>
      <trkpt lat="47.4391" lon="6.72485">
        <ele>463</ele>
        <time>2015-03-08T09:30:04.000Z</time>
      </trkpt>
      <trkpt lat="47.43904" lon="6.72481">
        <ele>463</ele>
        <time>2015-03-08T09:30:05.000Z</time>
      </trkpt>
      <trkpt lat="47.43899" lon="6.72476">
        <ele>463</ele>
        <time>2015-03-08T09:30:06.000Z</time>
      </trkpt>
      <trkpt lat="47.43893" lon="6.72471">
        <ele>463</ele>
        <time>2015-03-08T09:30:07.000Z</time>
      </trkpt>
      <trkpt lat="47.43887" lon="6.72466">
        <ele>463</ele>
        <time>2015-03-08T09:30:08.000Z</time>
      </trkpt>
      <trkpt lat="47.43882" lon="6.72461">
        <ele>463</ele>
        <time>2015-03-08T09:30:09.000Z</time>
      </trkpt>
      <trkpt lat="47.43876" lon="6.72456">
        <ele>463</ele>
        <time>2015-03-08T09:30:10.000Z</time>
      </trkpt>
      <trkpt lat="47.4387" lon="6.72451">
        <ele>463</ele>
        <time>2015-03-08T09:30:11.000Z</time>
      </trkpt>
      <trkpt lat="47.43865" lon="6.72445">
        <ele>463</ele>
        <time>2015-03-08T09:30:12.000Z</time>
      </trkpt>
      <trkpt lat="47.43859" lon="6.7244">
        <ele>463</ele>
        <time>2015-03-08T09:30:13.000Z</time>
      </trkpt>
      <trkpt lat="47.43855" lon="6.72436">
        <ele>463</ele>
        <time>2015-03-08T09:30:14.000Z</time>
      </trkpt>
      <trkpt lat="47.4385" lon="6.7243">
        <ele>462</ele>
        <time>2015-03-08T09:30:15.000Z</time>
      </trkpt>
      <trkpt lat="47.43844" lon="6.72424">
        <ele>462</ele>
        <time>2015-03-08T09:30:16.000Z</time>
      </trkpt>
      <trkpt lat="47.43839" lon="6.7242">
        <ele>462</ele>
        <time>2015-03-08T09:30:17.000Z</time>
      </trkpt>
      <trkpt lat="47.43835" lon="6.72414">
        <ele>462</ele>
        <time>2015-03-08T09:30:18.000Z</time>
      </trkpt>
      <trkpt lat="47.43829" lon="6.72408">
        <ele>462</ele>
        <time>2015-03-08T09:30:19.000Z</time>
      </trkpt>
      <trkpt lat="47.43824" lon="6.72403">
        <ele>462</ele>
        <time>2015-03-08T09:30:20.000Z</time>
      </trkpt>
      <trkpt lat="47.43819" lon="6.72398">
        <ele>462</ele>
        <time>2015-03-08T09:30:21.000Z</time>
      </trkpt>
      <trkpt lat="47.43814" lon="6.72391">
        <ele>462</ele>
        <time>2015-03-08T09:30:22.000Z</time>
      </trkpt>
      <trkpt lat="47.43809" lon="6.72386">
        <ele>462</ele>
        <time>2015-03-08T09:30:23.000Z</time>
      </trkpt>
      <trkpt lat="47.43804" lon="6.7238">
        <ele>462</ele>
        <time>2015-03-08T09:30:24.000Z</time>
      </trkpt>
      <trkpt lat="47.43799" lon="6.72375">
        <ele>462</ele>
        <time>2015-03-08T09:30:25.000Z</time>
      </trkpt>
      <trkpt lat="47.43795" lon="6.72369">
        <ele>462</ele>
        <time>2015-03-08T09:30:26.000Z</time>
      </trkpt>
      <trkpt lat="47.4379" lon="6.72364">
        <ele>461</ele>
        <time>2015-03-08T09:30:27.000Z</time>
      </trkpt>
      <trkpt lat="47.43786" lon="6.7236">
        <ele>461</ele>
        <time>2015-03-08T09:30:28.000Z</time>
      </trkpt>
      <trkpt lat="47.43782" lon="6.72354">
        <ele>461</ele>
        <time>2015-03-08T09:30:29.000Z</time>
      </trkpt>
      <trkpt lat="47.43778" lon="6.72349">
        <ele>461</ele>
        <time>2015-03-08T09:30:30.000Z</time>
      </trkpt>
      <trkpt lat="47.43773" lon="6.72343">
        <ele>461</ele>
        <time>2015-03-08T09:30:31.000Z</time>
      </trkpt>
      <trkpt lat="47.43769" lon="6.72339">
        <ele>461</ele>
        <time>2015-03-08T09:30:32.000Z</time>
      </trkpt>
      <trkpt lat="47.43765" lon="6.72333">
        <ele>460</ele>
        <time>2015-03-08T09:30:33.000Z</time>
      </trkpt>
      <trkpt lat="47.43761" lon="6.72327">
        <ele>460</ele>
        <time>2015-03-08T09:30:34.000Z</time>
      </trkpt>
      <trkpt lat="47.43758" lon="6.72321">
        <ele>460</ele>
        <time>2015-03-08T09:30:35.000Z</time>
      </trkpt>
      <trkpt lat="47.43754" lon="6.72315">
        <ele>460</ele>
        <time>2015-03-08T09:30:36.000Z</time>
      </trkpt>
      <trkpt lat="47.4375" lon="6.72309">
        <ele>460</ele>
        <time>2015-03-08T09:30:37.000Z</time>
      </trkpt>
      <trkpt lat="47.43746" lon="6.72305">
        <ele>460</ele>
        <time>2015-03-08T09:30:38.000Z</time>
      </trkpt>
      <trkpt lat="47.43741" lon="6.72302">
        <ele>460</ele>
        <time>2015-03-08T09:30:39.000Z</time>
      </trkpt>
      <trkpt lat="47.43734" lon="6.72301">
        <ele>460</ele>
        <time>2015-03-08T09:30:40.000Z</time>
      </trkpt>
      <trkpt lat="47.43728" lon="6.72302">
        <ele>460</ele>
        <time>2015-03-08T09:30:41.000Z</time>
      </trkpt>
      <trkpt lat="47.43722" lon="6.72305">
        <ele>460</ele>
        <time>2015-03-08T09:30:42.000Z</time>
      </trkpt>
      <trkpt lat="47.43716" lon="6.72307">
        <ele>460</ele>
        <time>2015-03-08T09:30:43.000Z</time>
      </trkpt>
      <trkpt lat="47.43711" lon="6.72312">
        <ele>460</ele>
        <time>2015-03-08T09:30:44.000Z</time>
      </trkpt>
      <trkpt lat="47.43705" lon="6.72315">
        <ele>460</ele>
        <time>2015-03-08T09:30:45.000Z</time>
      </trkpt>
      <trkpt lat="47.437" lon="6.7232">
        <ele>460</ele>
        <time>2015-03-08T09:30:46.000Z</time>
      </trkpt>
      <trkpt lat="47.43695" lon="6.72324">
        <ele>460</ele>
        <time>2015-03-08T09:30:47.000Z</time>
      </trkpt>
      <trkpt lat="47.4369" lon="6.72327">
        <ele>460</ele>
        <time>2015-03-08T09:30:48.000Z</time>
      </trkpt>
      <trkpt lat="47.43686" lon="6.7233">
        <ele>460</ele>
        <time>2015-03-08T09:30:49.000Z</time>
      </trkpt>
      <trkpt lat="47.43682" lon="6.72334">
        <ele>461</ele>
        <time>2015-03-08T09:30:50.000Z</time>
      </trkpt>
      <trkpt lat="47.43678" lon="6.72337">
        <ele>461</ele>
        <time>2015-03-08T09:30:51.000Z</time>
      </trkpt>
      <trkpt lat="47.43673" lon="6.7234">
        <ele>461</ele>
        <time>2015-03-08T09:30:52.000Z</time>
      </trkpt>
      <trkpt lat="47.43669" lon="6.72343">
        <ele>461</ele>
        <time>2015-03-08T09:30:53.000Z</time>
      </trkpt>
      <trkpt lat="47.43665" lon="6.72345">
        <ele>462</ele>
        <time>2015-03-08T09:30:54.000Z</time>
      </trkpt>
      <trkpt lat="47.43661" lon="6.72349">
        <ele>462</ele>
        <time>2015-03-08T09:30:55.000Z</time>
      </trkpt>
      <trkpt lat="47.43657" lon="6.72352">
        <ele>463</ele>
        <time>2015-03-08T09:30:56.000Z</time>
      </trkpt>
      <trkpt lat="47.43653" lon="6.72354">
        <ele>463</ele>
        <time>2015-03-08T09:30:57.000Z</time>
      </trkpt>
      <trkpt lat="47.43648" lon="6.72357">
        <ele>463</ele>
        <time>2015-03-08T09:30:58.000Z</time>
      </trkpt>
      <trkpt lat="47.43644" lon="6.72359">
        <ele>463</ele>
        <time>2015-03-08T09:30:59.000Z</time>
      </trkpt>
      <trkpt lat="47.4364" lon="6.72361">
        <ele>463</ele>
        <time>2015-03-08T09:31:00.000Z</time>
      </trkpt>
      <trkpt lat="47.43636" lon="6.72362">
        <ele>463</ele>
        <time>2015-03-08T09:31:01.000Z</time>
      </trkpt>
      <trkpt lat="47.43632" lon="6.72364">
        <ele>463</ele>
        <time>2015-03-08T09:31:02.000Z</time>
      </trkpt>
      <trkpt lat="47.43628" lon="6.72367">
        <ele>464</ele>
        <time>2015-03-08T09:31:03.000Z</time>
      </trkpt>
      <trkpt lat="47.43624" lon="6.72369">
        <ele>464</ele>
        <time>2015-03-08T09:31:04.000Z</time>
      </trkpt>
      <trkpt lat="47.4362" lon="6.72371">
        <ele>464</ele>
        <time>2015-03-08T09:31:05.000Z</time>
      </trkpt>
      <trkpt lat="47.43616" lon="6.72373">
        <ele>464</ele>
        <time>2015-03-08T09:31:06.000Z</time>
      </trkpt>
      <trkpt lat="47.43612" lon="6.72376">
        <ele>464</ele>
        <time>2015-03-08T09:31:07.000Z</time>
      </trkpt>
      <trkpt lat="47.43607" lon="6.72378">
        <ele>464</ele>
        <time>2015-03-08T09:31:08.000Z</time>
      </trkpt>
      <trkpt lat="47.43603" lon="6.7238">
        <ele>464</ele>
        <time>2015-03-08T09:31:09.000Z</time>
      </trkpt>
      <trkpt lat="47.43599" lon="6.72382">
        <ele>464</ele>
        <time>2015-03-08T09:31:10.000Z</time>
      </trkpt>
      <trkpt lat="47.43595" lon="6.72383">
        <ele>464</ele>
        <time>2015-03-08T09:31:11.000Z</time>
      </trkpt>
      <trkpt lat="47.43591" lon="6.72385">
        <ele>464</ele>
        <time>2015-03-08T09:31:12.000Z</time>
      </trkpt>
      <trkpt lat="47.43588" lon="6.72388">
        <ele>465</ele>
        <time>2015-03-08T09:31:13.000Z</time>
      </trkpt>
      <trkpt lat="47.43585" lon="6.7239">
        <ele>465</ele>
        <time>2015-03-08T09:31:14.000Z</time>
      </trkpt>
      <trkpt lat="47.43581" lon="6.72392">
        <ele>467</ele>
        <time>2015-03-08T09:31:15.000Z</time>
      </trkpt>
      <trkpt lat="47.43578" lon="6.72394">
        <ele>467</ele>
        <time>2015-03-08T09:31:16.000Z</time>
      </trkpt>
      <trkpt lat="47.43575" lon="6.72395">
        <ele>467</ele>
        <time>2015-03-08T09:31:17.000Z</time>
      </trkpt>
      <trkpt lat="47.43571" lon="6.72397">
        <ele>467</ele>
        <time>2015-03-08T09:31:18.000Z</time>
      </trkpt>
      <trkpt lat="47.43568" lon="6.72399">
        <ele>467</ele>
        <time>2015-03-08T09:31:19.000Z</time>
      </trkpt>
      <trkpt lat="47.43565" lon="6.724">
        <ele>467</ele>
        <time>2015-03-08T09:31:20.000Z</time>
      </trkpt>
      <trkpt lat="47.43562" lon="6.72402">
        <ele>467</ele>
        <time>2015-03-08T09:31:21.000Z</time>
      </trkpt>
      <trkpt lat="47.43559" lon="6.72403">
        <ele>467</ele>
        <time>2015-03-08T09:31:22.000Z</time>
      </trkpt>
      <trkpt lat="47.43555" lon="6.72405">
        <ele>467</ele>
        <time>2015-03-08T09:31:23.000Z</time>
      </trkpt>
      <trkpt lat="47.43552" lon="6.72406">
        <ele>467</ele>
        <time>2015-03-08T09:31:24.000Z</time>
      </trkpt>
      <trkpt lat="47.43549" lon="6.72407">
        <ele>467</ele>
        <time>2015-03-08T09:31:25.000Z</time>
      </trkpt>
      <trkpt lat="47.43546" lon="6.72409">
        <ele>468</ele>
        <time>2015-03-08T09:31:26.000Z</time>
      </trkpt>
      <trkpt lat="47.43543" lon="6.7241">
        <ele>468</ele>
        <time>2015-03-08T09:31:27.000Z</time>
      </trkpt>
      <trkpt lat="47.4354" lon="6.72411">
        <ele>468</ele>
        <time>2015-03-08T09:31:28.000Z</time>
      </trkpt>
      <trkpt lat="47.43536" lon="6.72413">
        <ele>468</ele>
        <time>2015-03-08T09:31:29.000Z</time>
      </trkpt>
      <trkpt lat="47.43533" lon="6.72414">
        <ele>468</ele>
        <time>2015-03-08T09:31:30.000Z</time>
      </trkpt>
      <trkpt lat="47.4353" lon="6.72416">
        <ele>468</ele>
        <time>2015-03-08T09:31:31.000Z</time>
      </trkpt>
      <trkpt lat="47.43528" lon="6.72417">
        <ele>470</ele>
        <time>2015-03-08T09:31:32.000Z</time>
      </trkpt>
      <trkpt lat="47.43525" lon="6.72418">
        <ele>470</ele>
        <time>2015-03-08T09:31:33.000Z</time>
      </trkpt>
      <trkpt lat="47.43522" lon="6.7242">
        <ele>470</ele>
        <time>2015-03-08T09:31:34.000Z</time>
      </trkpt>
      <trkpt lat="47.43519" lon="6.72421">
        <ele>470</ele>
        <time>2015-03-08T09:31:35.000Z</time>
      </trkpt>
      <trkpt lat="47.43516" lon="6.72422">
        <ele>470</ele>
        <time>2015-03-08T09:31:36.000Z</time>
      </trkpt>
      <trkpt lat="47.43512" lon="6.72422">
        <ele>470</ele>
        <time>2015-03-08T09:31:37.000Z</time>
      </trkpt>
      <trkpt lat="47.4351" lon="6.72421">
        <ele>470</ele>
        <time>2015-03-08T09:31:38.000Z</time>
      </trkpt>
      <trkpt lat="47.43507" lon="6.72418">
        <ele>471</ele>
        <time>2015-03-08T09:31:39.000Z</time>
      </trkpt>
      <trkpt lat="47.43504" lon="6.72414">
        <ele>470</ele>
        <time>2015-03-08T09:31:40.000Z</time>
      </trkpt>
      <trkpt lat="47.43502" lon="6.72409">
        <ele>470</ele>
        <time>2015-03-08T09:31:41.000Z</time>
      </trkpt>
      <trkpt lat="47.435" lon="6.72404">
        <ele>471</ele>
        <time>2015-03-08T09:31:42.000Z</time>
      </trkpt>
      <trkpt lat="47.43497" lon="6.72399">
        <ele>471</ele>
        <time>2015-03-08T09:31:43.000Z</time>
      </trkpt>
      <trkpt lat="47.43495" lon="6.72394">
        <ele>471</ele>
        <time>2015-03-08T09:31:44.000Z</time>
      </trkpt>
      <trkpt lat="47.43492" lon="6.72389">
        <ele>471</ele>
        <time>2015-03-08T09:31:45.000Z</time>
      </trkpt>
      <trkpt lat="47.43489" lon="6.72385">
        <ele>471</ele>
        <time>2015-03-08T09:31:46.000Z</time>
      </trkpt>
      <trkpt lat="47.43486" lon="6.7238">
        <ele>471</ele>
        <time>2015-03-08T09:31:47.000Z</time>
      </trkpt>
      <trkpt lat="47.43483" lon="6.72376">
        <ele>471</ele>
        <time>2015-03-08T09:31:48.000Z</time>
      </trkpt>
      <trkpt lat="47.4348" lon="6.72371">
        <ele>471</ele>
        <time>2015-03-08T09:31:49.000Z</time>
      </trkpt>
      <trkpt lat="47.43478" lon="6.72367">
        <ele>471</ele>
        <time>2015-03-08T09:31:50.000Z</time>
      </trkpt>
      <trkpt lat="47.43475" lon="6.72363">
        <ele>471</ele>
        <time>2015-03-08T09:31:51.000Z</time>
      </trkpt>
      <trkpt lat="47.43473" lon="6.72358">
        <ele>471</ele>
        <time>2015-03-08T09:31:52.000Z</time>
      </trkpt>
      <trkpt lat="47.43471" lon="6.72354">
        <ele>471</ele>
        <time>2015-03-08T09:31:53.000Z</time>
      </trkpt>
      <trkpt lat="47.43468" lon="6.72349">
        <ele>471</ele>
        <time>2015-03-08T09:31:54.000Z</time>
      </trkpt>
      <trkpt lat="47.43465" lon="6.72344">
        <ele>471</ele>
        <time>2015-03-08T09:31:55.000Z</time>
      </trkpt>
      <trkpt lat="47.43462" lon="6.72338">
        <ele>471</ele>
        <time>2015-03-08T09:31:56.000Z</time>
      </trkpt>
      <trkpt lat="47.43458" lon="6.72333">
        <ele>468</ele>
        <time>2015-03-08T09:31:57.000Z</time>
      </trkpt>
      <trkpt lat="47.43455" lon="6.72328">
        <ele>468</ele>
        <time>2015-03-08T09:31:58.000Z</time>
      </trkpt>
      <trkpt lat="47.43452" lon="6.72323">
        <ele>468</ele>
        <time>2015-03-08T09:31:59.000Z</time>
      </trkpt>
      <trkpt lat="47.43449" lon="6.72318">
        <ele>469</ele>
        <time>2015-03-08T09:32:00.000Z</time>
      </trkpt>
      <trkpt lat="47.43444" lon="6.72312">
        <ele>469</ele>
        <time>2015-03-08T09:32:01.000Z</time>
      </trkpt>
      <trkpt lat="47.43442" lon="6.72306">
        <ele>468</ele>
        <time>2015-03-08T09:32:02.000Z</time>
      </trkpt>
      <trkpt lat="47.43438" lon="6.72301">
        <ele>468</ele>
        <time>2015-03-08T09:32:03.000Z</time>
      </trkpt>
      <trkpt lat="47.43434" lon="6.72295">
        <ele>468</ele>
        <time>2015-03-08T09:32:04.000Z</time>
      </trkpt>
      <trkpt lat="47.4343" lon="6.72291">
        <ele>468</ele>
        <time>2015-03-08T09:32:05.000Z</time>
      </trkpt>
      <trkpt lat="47.43427" lon="6.72285">
        <ele>468</ele>
        <time>2015-03-08T09:32:06.000Z</time>
      </trkpt>
      <trkpt lat="47.43423" lon="6.72281">
        <ele>468</ele>
        <time>2015-03-08T09:32:07.000Z</time>
      </trkpt>
      <trkpt lat="47.4342" lon="6.72276">
        <ele>468</ele>
        <time>2015-03-08T09:32:08.000Z</time>
      </trkpt>
      <trkpt lat="47.43417" lon="6.72272">
        <ele>467</ele>
        <time>2015-03-08T09:32:09.000Z</time>
      </trkpt>
      <trkpt lat="47.43414" lon="6.72266">
        <ele>470</ele>
        <time>2015-03-08T09:32:10.000Z</time>
      </trkpt>
      <trkpt lat="47.4341" lon="6.72261">
        <ele>470</ele>
        <time>2015-03-08T09:32:11.000Z</time>
      </trkpt>
      <trkpt lat="47.43407" lon="6.72257">
        <ele>470</ele>
        <time>2015-03-08T09:32:12.000Z</time>
      </trkpt>
      <trkpt lat="47.43403" lon="6.72252">
        <ele>470</ele>
        <time>2015-03-08T09:32:13.000Z</time>
      </trkpt>
      <trkpt lat="47.434" lon="6.72248">
        <ele>468</ele>
        <time>2015-03-08T09:32:14.000Z</time>
      </trkpt>
      <trkpt lat="47.43397" lon="6.72243">
        <ele>468</ele>
        <time>2015-03-08T09:32:15.000Z</time>
      </trkpt>
      <trkpt lat="47.43394" lon="6.72238">
        <ele>468</ele>
        <time>2015-03-08T09:32:16.000Z</time>
      </trkpt>
      <trkpt lat="47.4339" lon="6.72233">
        <ele>468</ele>
        <time>2015-03-08T09:32:17.000Z</time>
      </trkpt>
      <trkpt lat="47.43387" lon="6.72228">
        <ele>468</ele>
        <time>2015-03-08T09:32:18.000Z</time>
      </trkpt>
      <trkpt lat="47.43383" lon="6.72221">
        <ele>468</ele>
        <time>2015-03-08T09:32:19.000Z</time>
      </trkpt>
      <trkpt lat="47.43379" lon="6.72216">
        <ele>469</ele>
        <time>2015-03-08T09:32:20.000Z</time>
      </trkpt>
      <trkpt lat="47.43376" lon="6.7221">
        <ele>469</ele>
        <time>2015-03-08T09:32:21.000Z</time>
      </trkpt>
      <trkpt lat="47.43372" lon="6.72205">
        <ele>469</ele>
        <time>2015-03-08T09:32:22.000Z</time>
      </trkpt>
      <trkpt lat="47.43368" lon="6.72199">
        <ele>468</ele>
        <time>2015-03-08T09:32:23.000Z</time>
      </trkpt>
      <trkpt lat="47.43365" lon="6.72193">
        <ele>468</ele>
        <time>2015-03-08T09:32:24.000Z</time>
      </trkpt>
      <trkpt lat="47.43361" lon="6.72188">
        <ele>468</ele>
        <time>2015-03-08T09:32:25.000Z</time>
      </trkpt>
      <trkpt lat="47.43358" lon="6.72182">
        <ele>469</ele>
        <time>2015-03-08T09:32:26.000Z</time>
      </trkpt>
      <trkpt lat="47.43354" lon="6.72178">
        <ele>469</ele>
        <time>2015-03-08T09:32:27.000Z</time>
      </trkpt>
      <trkpt lat="47.4335" lon="6.72172">
        <ele>469</ele>
        <time>2015-03-08T09:32:28.000Z</time>
      </trkpt>
      <trkpt lat="47.43347" lon="6.72165">
        <ele>467</ele>
        <time>2015-03-08T09:32:29.000Z</time>
      </trkpt>
      <trkpt lat="47.43344" lon="6.7216">
        <ele>467</ele>
        <time>2015-03-08T09:32:30.000Z</time>
      </trkpt>
      <trkpt lat="47.4334" lon="6.72155">
        <ele>467</ele>
        <time>2015-03-08T09:32:31.000Z</time>
      </trkpt>
      <trkpt lat="47.43336" lon="6.72149">
        <ele>467</ele>
        <time>2015-03-08T09:32:32.000Z</time>
      </trkpt>
      <trkpt lat="47.43333" lon="6.72144">
        <ele>470</ele>
        <time>2015-03-08T09:32:33.000Z</time>
      </trkpt>
      <trkpt lat="47.4333" lon="6.72139">
        <ele>470</ele>
        <time>2015-03-08T09:32:34.000Z</time>
      </trkpt>
      <trkpt lat="47.43326" lon="6.72133">
        <ele>470</ele>
        <time>2015-03-08T09:32:35.000Z</time>
      </trkpt>
      <trkpt lat="47.43323" lon="6.72129">
        <ele>470</ele>
        <time>2015-03-08T09:32:36.000Z</time>
      </trkpt>
      <trkpt lat="47.43319" lon="6.72122">
        <ele>470</ele>
        <time>2015-03-08T09:32:37.000Z</time>
      </trkpt>
      <trkpt lat="47.43315" lon="6.72117">
        <ele>470</ele>
        <time>2015-03-08T09:32:38.000Z</time>
      </trkpt>
      <trkpt lat="47.43312" lon="6.72111">
        <ele>470</ele>
        <time>2015-03-08T09:32:39.000Z</time>
      </trkpt>
      <trkpt lat="47.43308" lon="6.72105">
        <ele>470</ele>
        <time>2015-03-08T09:32:40.000Z</time>
      </trkpt>
      <trkpt lat="47.43305" lon="6.72099">
        <ele>470</ele>
        <time>2015-03-08T09:32:41.000Z</time>
      </trkpt>
      <trkpt lat="47.43302" lon="6.72095">
        <ele>470</ele>
        <time>2015-03-08T09:32:42.000Z</time>
      </trkpt>
      <trkpt lat="47.43299" lon="6.72089">
        <ele>470</ele>
        <time>2015-03-08T09:32:43.000Z</time>
      </trkpt>
      <trkpt lat="47.43295" lon="6.72085">
        <ele>470</ele>
        <time>2015-03-08T09:32:44.000Z</time>
      </trkpt>
      <trkpt lat="47.43292" lon="6.7208">
        <ele>468</ele>
        <time>2015-03-08T09:32:45.000Z</time>
      </trkpt>
      <trkpt lat="47.43289" lon="6.72074">
        <ele>469</ele>
        <time>2015-03-08T09:32:46.000Z</time>
      </trkpt>
      <trkpt lat="47.43286" lon="6.7207">
        <ele>469</ele>
        <time>2015-03-08T09:32:47.000Z</time>
      </trkpt>
      <trkpt lat="47.43283" lon="6.72065">
        <ele>469</ele>
        <time>2015-03-08T09:32:48.000Z</time>
      </trkpt>
      <trkpt lat="47.4328" lon="6.72059">
        <ele>469</ele>
        <time>2015-03-08T09:32:49.000Z</time>
      </trkpt>
      <trkpt lat="47.43277" lon="6.72054">
        <ele>469</ele>
        <time>2015-03-08T09:32:50.000Z</time>
      </trkpt>
      <trkpt lat="47.43274" lon="6.7205">
        <ele>469</ele>
        <time>2015-03-08T09:32:51.000Z</time>
      </trkpt>
      <trkpt lat="47.43271" lon="6.72046">
        <ele>469</ele>
        <time>2015-03-08T09:32:52.000Z</time>
      </trkpt>
      <trkpt lat="47.43268" lon="6.72041">
        <ele>469</ele>
        <time>2015-03-08T09:32:53.000Z</time>
      </trkpt>
      <trkpt lat="47.43265" lon="6.72036">
        <ele>469</ele>
        <time>2015-03-08T09:32:54.000Z</time>
      </trkpt>
      <trkpt lat="47.43262" lon="6.7203">
        <ele>469</ele>
        <time>2015-03-08T09:32:55.000Z</time>
      </trkpt>
      <trkpt lat="47.43259" lon="6.72025">
        <ele>469</ele>
        <time>2015-03-08T09:32:56.000Z</time>
      </trkpt>
      <trkpt lat="47.43257" lon="6.72021">
        <ele>469</ele>
        <time>2015-03-08T09:32:57.000Z</time>
      </trkpt>
      <trkpt lat="47.43254" lon="6.72015">
        <ele>469</ele>
        <time>2015-03-08T09:32:58.000Z</time>
      </trkpt>
      <trkpt lat="47.43251" lon="6.72011">
        <ele>469</ele>
        <time>2015-03-08T09:32:59.000Z</time>
      </trkpt>
      <trkpt lat="47.43248" lon="6.72005">
        <ele>471</ele>
        <time>2015-03-08T09:33:00.000Z</time>
      </trkpt>
      <trkpt lat="47.43245" lon="6.72001">
        <ele>471</ele>
        <time>2015-03-08T09:33:01.000Z</time>
      </trkpt>
      <trkpt lat="47.43242" lon="6.71996">
        <ele>471</ele>
        <time>2015-03-08T09:33:02.000Z</time>
      </trkpt>
      <trkpt lat="47.43239" lon="6.71991">
        <ele>471</ele>
        <time>2015-03-08T09:33:03.000Z</time>
      </trkpt>
      <trkpt lat="47.43237" lon="6.71985">
        <ele>471</ele>
        <time>2015-03-08T09:33:04.000Z</time>
      </trkpt>
      <trkpt lat="47.43234" lon="6.7198">
        <ele>471</ele>
        <time>2015-03-08T09:33:05.000Z</time>
      </trkpt>
      <trkpt lat="47.43232" lon="6.71975">
        <ele>471</ele>
        <time>2015-03-08T09:33:06.000Z</time>
      </trkpt>
      <trkpt lat="47.43229" lon="6.7197">
        <ele>472</ele>
        <time>2015-03-08T09:33:07.000Z</time>
      </trkpt>
      <trkpt lat="47.43226" lon="6.71966">
        <ele>472</ele>
        <time>2015-03-08T09:33:08.000Z</time>
      </trkpt>
      <trkpt lat="47.43224" lon="6.71962">
        <ele>472</ele>
        <time>2015-03-08T09:33:09.000Z</time>
      </trkpt>
      <trkpt lat="47.43221" lon="6.71958">
        <ele>472</ele>
        <time>2015-03-08T09:33:10.000Z</time>
      </trkpt>
      <trkpt lat="47.43218" lon="6.71953">
        <ele>472</ele>
        <time>2015-03-08T09:33:11.000Z</time>
      </trkpt>
      <trkpt lat="47.43216" lon="6.71949">
        <ele>472</ele>
        <time>2015-03-08T09:33:12.000Z</time>
      </trkpt>
      <trkpt lat="47.43213" lon="6.71945">
        <ele>472</ele>
        <time>2015-03-08T09:33:13.000Z</time>
      </trkpt>
      <trkpt lat="47.43211" lon="6.71941">
        <ele>472</ele>
        <time>2015-03-08T09:33:14.000Z</time>
      </trkpt>
      <trkpt lat="47.43209" lon="6.71937">
        <ele>472</ele>
        <time>2015-03-08T09:33:15.000Z</time>
      </trkpt>
      <trkpt lat="47.43207" lon="6.71933">
        <ele>472</ele>
        <time>2015-03-08T09:33:16.000Z</time>
      </trkpt>
      <trkpt lat="47.43204" lon="6.71929">
        <ele>472</ele>
        <time>2015-03-08T09:33:17.000Z</time>
      </trkpt>
      <trkpt lat="47.43202" lon="6.71926">
        <ele>472</ele>
        <time>2015-03-08T09:33:18.000Z</time>
      </trkpt>
      <trkpt lat="47.432" lon="6.71922">
        <ele>472</ele>
        <time>2015-03-08T09:33:19.000Z</time>
      </trkpt>
      <trkpt lat="47.43198" lon="6.71918">
        <ele>472</ele>
        <time>2015-03-08T09:33:20.000Z</time>
      </trkpt>
      <trkpt lat="47.43196" lon="6.71915">
        <ele>471</ele>
        <time>2015-03-08T09:33:21.000Z</time>
      </trkpt>
      <trkpt lat="47.43194" lon="6.71911">
        <ele>471</ele>
        <time>2015-03-08T09:33:22.000Z</time>
      </trkpt>
      <trkpt lat="47.43192" lon="6.71908">
        <ele>471</ele>
        <time>2015-03-08T09:33:23.000Z</time>
      </trkpt>
      <trkpt lat="47.43189" lon="6.71905">
        <ele>471</ele>
        <time>2015-03-08T09:33:24.000Z</time>
      </trkpt>
      <trkpt lat="47.43187" lon="6.71902">
        <ele>471</ele>
        <time>2015-03-08T09:33:25.000Z</time>
      </trkpt>
      <trkpt lat="47.43185" lon="6.719">
        <ele>471</ele>
        <time>2015-03-08T09:33:26.000Z</time>
      </trkpt>
      <trkpt lat="47.43183" lon="6.71898">
        <ele>471</ele>
        <time>2015-03-08T09:33:27.000Z</time>
      </trkpt>
      <trkpt lat="47.4318" lon="6.71897">
        <ele>471</ele>
        <time>2015-03-08T09:33:28.000Z</time>
      </trkpt>
      <trkpt lat="47.43177" lon="6.71897">
        <ele>471</ele>
        <time>2015-03-08T09:33:29.000Z</time>
      </trkpt>
      <trkpt lat="47.43175" lon="6.71897">
        <ele>472</ele>
        <time>2015-03-08T09:33:30.000Z</time>
      </trkpt>
      <trkpt lat="47.43172" lon="6.71899">
        <ele>472</ele>
        <time>2015-03-08T09:33:31.000Z</time>
      </trkpt>
      <trkpt lat="47.4317" lon="6.71901">
        <ele>472</ele>
        <time>2015-03-08T09:33:32.000Z</time>
      </trkpt>
      <trkpt lat="47.43168" lon="6.71904">
        <ele>473</ele>
        <time>2015-03-08T09:33:33.000Z</time>
      </trkpt>
      <trkpt lat="47.43166" lon="6.71907">
        <ele>476</ele>
        <time>2015-03-08T09:33:34.000Z</time>
      </trkpt>
      <trkpt lat="47.43165" lon="6.7191">
        <ele>476</ele>
        <time>2015-03-08T09:33:35.000Z</time>
      </trkpt>
      <trkpt lat="47.43163" lon="6.71912">
        <ele>476</ele>
        <time>2015-03-08T09:33:36.000Z</time>
      </trkpt>
      <trkpt lat="47.4316" lon="6.71916">
        <ele>476</ele>
        <time>2015-03-08T09:33:38.000Z</time>
      </trkpt>
      <trkpt lat="47.43158" lon="6.71918">
        <ele>477</ele>
        <time>2015-03-08T09:33:39.000Z</time>
      </trkpt>
      <trkpt lat="47.43156" lon="6.71921">
        <ele>477</ele>
        <time>2015-03-08T09:33:41.000Z</time>
      </trkpt>
      <trkpt lat="47.43154" lon="6.71923">
        <ele>478</ele>
        <time>2015-03-08T09:33:42.000Z</time>
      </trkpt>
      <trkpt lat="47.43151" lon="6.71926">
        <ele>478</ele>
        <time>2015-03-08T09:33:44.000Z</time>
      </trkpt>
      <trkpt lat="47.43149" lon="6.71928">
        <ele>478</ele>
        <time>2015-03-08T09:33:45.000Z</time>
      </trkpt>
      <trkpt lat="47.43147" lon="6.71931">
        <ele>479</ele>
        <time>2015-03-08T09:33:47.000Z</time>
      </trkpt>
      <trkpt lat="47.43146" lon="6.71932">
        <ele>479</ele>
        <time>2015-03-08T09:33:48.000Z</time>
      </trkpt>
      <trkpt lat="47.43142" lon="6.71934">
        <ele>479</ele>
        <time>2015-03-08T09:33:50.000Z</time>
      </trkpt>
      <trkpt lat="47.43141" lon="6.71936">
        <ele>480</ele>
        <time>2015-03-08T09:33:51.000Z</time>
      </trkpt>
      <trkpt lat="47.43138" lon="6.71938">
        <ele>480</ele>
        <time>2015-03-08T09:33:53.000Z</time>
      </trkpt>
      <trkpt lat="47.43136" lon="6.71939">
        <ele>480</ele>
        <time>2015-03-08T09:33:54.000Z</time>
      </trkpt>
      <trkpt lat="47.43133" lon="6.71941">
        <ele>480</ele>
        <time>2015-03-08T09:33:56.000Z</time>
      </trkpt>
      <trkpt lat="47.43131" lon="6.71943">
        <ele>480</ele>
        <time>2015-03-08T09:33:57.000Z</time>
      </trkpt>
      <trkpt lat="47.43128" lon="6.71945">
        <ele>481</ele>
        <time>2015-03-08T09:33:59.000Z</time>
      </trkpt>
      <trkpt lat="47.43126" lon="6.71946">
        <ele>481</ele>
        <time>2015-03-08T09:34:00.000Z</time>
      </trkpt>
      <trkpt lat="47.43122" lon="6.71949">
        <ele>481</ele>
        <time>2015-03-08T09:34:03.000Z</time>
      </trkpt>
      <trkpt lat="47.43121" lon="6.7195">
        <ele>481</ele>
        <time>2015-03-08T09:34:04.000Z</time>
      </trkpt>
      <trkpt lat="47.43117" lon="6.71953">
        <ele>481</ele>
        <time>2015-03-08T09:34:07.000Z</time>
      </trkpt>
      <trkpt lat="47.43116" lon="6.71953">
        <ele>481</ele>
        <time>2015-03-08T09:34:08.000Z</time>
      </trkpt>
      <trkpt lat="47.43113" lon="6.71955">
        <ele>482</ele>
        <time>2015-03-08T09:34:10.000Z</time>
      </trkpt>
      <trkpt lat="47.43112" lon="6.71957">
        <ele>482</ele>
        <time>2015-03-08T09:34:11.000Z</time>
      </trkpt>
      <trkpt lat="47.4311" lon="6.71959">
        <ele>482</ele>
        <time>2015-03-08T09:34:12.000Z</time>
      </trkpt>
      <trkpt lat="47.43108" lon="6.71961">
        <ele>482</ele>
        <time>2015-03-08T09:34:13.000Z</time>
      </trkpt>
      <trkpt lat="47.43105" lon="6.71964">
        <ele>482</ele>
        <time>2015-03-08T09:34:15.000Z</time>
      </trkpt>
      <trkpt lat="47.43103" lon="6.71965">
        <ele>482</ele>
        <time>2015-03-08T09:34:16.000Z</time>
      </trkpt>
      <trkpt lat="47.431" lon="6.71967">
        <ele>482</ele>
        <time>2015-03-08T09:34:18.000Z</time>
      </trkpt>
      <trkpt lat="47.43099" lon="6.71968">
        <ele>482</ele>
        <time>2015-03-08T09:34:19.000Z</time>
      </trkpt>
      <trkpt lat="47.43096" lon="6.7197">
        <ele>483</ele>
        <time>2015-03-08T09:34:21.000Z</time>
      </trkpt>
      <trkpt lat="47.43095" lon="6.71971">
        <ele>483</ele>
        <time>2015-03-08T09:34:22.000Z</time>
      </trkpt>
      <trkpt lat="47.43092" lon="6.71974">
        <ele>483</ele>
        <time>2015-03-08T09:34:24.000Z</time>
      </trkpt>
      <trkpt lat="47.43091" lon="6.71975">
        <ele>483</ele>
        <time>2015-03-08T09:34:25.000Z</time>
      </trkpt>
      <trkpt lat="47.43088" lon="6.71978">
        <ele>483</ele>
        <time>2015-03-08T09:34:27.000Z</time>
      </trkpt>
      <trkpt lat="47.43087" lon="6.71979">
        <ele>483</ele>
        <time>2015-03-08T09:34:28.000Z</time>
      </trkpt>
      <trkpt lat="47.43084" lon="6.71982">
        <ele>484</ele>
        <time>2015-03-08T09:34:30.000Z</time>
      </trkpt>
      <trkpt lat="47.43083" lon="6.71983">
        <ele>488</ele>
        <time>2015-03-08T09:34:31.000Z</time>
      </trkpt>
      <trkpt lat="47.4308" lon="6.71985">
        <ele>488</ele>
        <time>2015-03-08T09:34:32.000Z</time>
      </trkpt>
      <trkpt lat="47.43078" lon="6.71986">
        <ele>488</ele>
        <time>2015-03-08T09:34:33.000Z</time>
      </trkpt>
      <trkpt lat="47.43074" lon="6.71989">
        <ele>488</ele>
        <time>2015-03-08T09:34:35.000Z</time>
      </trkpt>
      <trkpt lat="47.43073" lon="6.7199">
        <ele>488</ele>
        <time>2015-03-08T09:34:36.000Z</time>
      </trkpt>
      <trkpt lat="47.43069" lon="6.71993">
        <ele>488</ele>
        <time>2015-03-08T09:34:38.000Z</time>
      </trkpt>
      <trkpt lat="47.43068" lon="6.71994">
        <ele>488</ele>
        <time>2015-03-08T09:34:39.000Z</time>
      </trkpt>
      <trkpt lat="47.43064" lon="6.71997">
        <ele>488</ele>
        <time>2015-03-08T09:34:41.000Z</time>
      </trkpt>
      <trkpt lat="47.43062" lon="6.71998">
        <ele>488</ele>
        <time>2015-03-08T09:34:42.000Z</time>
      </trkpt>
      <trkpt lat="47.43059" lon="6.72001">
        <ele>490</ele>
        <time>2015-03-08T09:34:44.000Z</time>
      </trkpt>
      <trkpt lat="47.43058" lon="6.72003">
        <ele>490</ele>
        <time>2015-03-08T09:34:45.000Z</time>
      </trkpt>
      <trkpt lat="47.43056" lon="6.72005">
        <ele>490</ele>
        <time>2015-03-08T09:34:47.000Z</time>
      </trkpt>
      <trkpt lat="47.43054" lon="6.72006">
        <ele>491</ele>
        <time>2015-03-08T09:34:48.000Z</time>
      </trkpt>
      <trkpt lat="47.43051" lon="6.72008">
        <ele>491</ele>
        <time>2015-03-08T09:34:50.000Z</time>
      </trkpt>
      <trkpt lat="47.4305" lon="6.72009">
        <ele>491</ele>
        <time>2015-03-08T09:34:51.000Z</time>
      </trkpt>
      <trkpt lat="47.43047" lon="6.72012">
        <ele>491</ele>
        <time>2015-03-08T09:34:53.000Z</time>
      </trkpt>
      <trkpt lat="47.43046" lon="6.72013">
        <ele>491</ele>
        <time>2015-03-08T09:34:54.000Z</time>
      </trkpt>
      <trkpt lat="47.43043" lon="6.72015">
        <ele>492</ele>
        <time>2015-03-08T09:34:56.000Z</time>
      </trkpt>
      <trkpt lat="47.43041" lon="6.72017">
        <ele>492</ele>
        <time>2015-03-08T09:34:57.000Z</time>
      </trkpt>
      <trkpt lat="47.43038" lon="6.7202">
        <ele>492</ele>
        <time>2015-03-08T09:34:59.000Z</time>
      </trkpt>
      <trkpt lat="47.43036" lon="6.72021">
        <ele>492</ele>
        <time>2015-03-08T09:35:00.000Z</time>
      </trkpt>
      <trkpt lat="47.43034" lon="6.72023">
        <ele>492</ele>
        <time>2015-03-08T09:35:02.000Z</time>
      </trkpt>
      <trkpt lat="47.43032" lon="6.72024">
        <ele>492</ele>
        <time>2015-03-08T09:35:03.000Z</time>
      </trkpt>
      <trkpt lat="47.43029" lon="6.72027">
        <ele>493</ele>
        <time>2015-03-08T09:35:05.000Z</time>
      </trkpt>
      <trkpt lat="47.43027" lon="6.72028">
        <ele>493</ele>
        <time>2015-03-08T09:35:06.000Z</time>
      </trkpt>
      <trkpt lat="47.43023" lon="6.72031">
        <ele>493</ele>
        <time>2015-03-08T09:35:08.000Z</time>
      </trkpt>
      <trkpt lat="47.43022" lon="6.72033">
        <ele>493</ele>
        <time>2015-03-08T09:35:09.000Z</time>
      </trkpt>
      <trkpt lat="47.43019" lon="6.72035">
        <ele>493</ele>
        <time>2015-03-08T09:35:11.000Z</time>
      </trkpt>
      <trkpt lat="47.43018" lon="6.72036">
        <ele>493</ele>
        <time>2015-03-08T09:35:12.000Z</time>
      </trkpt>
      <trkpt lat="47.43015" lon="6.72038">
        <ele>493</ele>
        <time>2015-03-08T09:35:14.000Z</time>
      </trkpt>
      <trkpt lat="47.43014" lon="6.7204">
        <ele>493</ele>
        <time>2015-03-08T09:35:15.000Z</time>
      </trkpt>
      <trkpt lat="47.43011" lon="6.72042">
        <ele>494</ele>
        <time>2015-03-08T09:35:17.000Z</time>
      </trkpt>
      <trkpt lat="47.43009" lon="6.72043">
        <ele>494</ele>
        <time>2015-03-08T09:35:18.000Z</time>
      </trkpt>
      <trkpt lat="47.43006" lon="6.72045">
        <ele>494</ele>
        <time>2015-03-08T09:35:20.000Z</time>
      </trkpt>
      <trkpt lat="47.43004" lon="6.72045">
        <ele>494</ele>
        <time>2015-03-08T09:35:21.000Z</time>
      </trkpt>
      <trkpt lat="47.43" lon="6.72043">
        <ele>494</ele>
        <time>2015-03-08T09:35:23.000Z</time>
      </trkpt>
      <trkpt lat="47.42998" lon="6.72042">
        <ele>498</ele>
        <time>2015-03-08T09:35:24.000Z</time>
      </trkpt>
      <trkpt lat="47.42995" lon="6.7204">
        <ele>498</ele>
        <time>2015-03-08T09:35:26.000Z</time>
      </trkpt>
      <trkpt lat="47.42993" lon="6.72039">
        <ele>498</ele>
        <time>2015-03-08T09:35:27.000Z</time>
      </trkpt>
      <trkpt lat="47.4299" lon="6.72035">
        <ele>498</ele>
        <time>2015-03-08T09:35:30.000Z</time>
      </trkpt>
      <trkpt lat="47.42989" lon="6.72034">
        <ele>498</ele>
        <time>2015-03-08T09:35:31.000Z</time>
      </trkpt>
      <trkpt lat="47.42987" lon="6.72029">
        <ele>498</ele>
        <time>2015-03-08T09:35:33.000Z</time>
      </trkpt>
      <trkpt lat="47.42986" lon="6.72027">
        <ele>498</ele>
        <time>2015-03-08T09:35:34.000Z</time>
      </trkpt>
      <trkpt lat="47.42984" lon="6.72021">
        <ele>498</ele>
        <time>2015-03-08T09:35:51.000Z</time>
      </trkpt>
      <trkpt lat="47.42984" lon="6.72021">
        <ele>498</ele>
        <time>2015-03-08T09:35:52.000Z</time>
      </trkpt>
      <trkpt lat="47.42981" lon="6.72019">
        <ele>498</ele>
        <time>2015-03-08T09:35:56.000Z</time>
      </trkpt>
      <trkpt lat="47.4298" lon="6.72018">
        <ele>498</ele>
        <time>2015-03-08T09:35:57.000Z</time>
      </trkpt>
      <trkpt lat="47.4298" lon="6.72011">
        <ele>497</ele>
        <time>2015-03-08T09:41:31.000Z</time>
      </trkpt>
      <trkpt lat="47.42978" lon="6.72008">
        <ele>497</ele>
        <time>2015-03-08T09:41:32.000Z</time>
      </trkpt>
      <trkpt lat="47.42977" lon="6.72005">
        <ele>497</ele>
        <time>2015-03-08T09:41:33.000Z</time>
      </trkpt>
      <trkpt lat="47.42975" lon="6.72001">
        <ele>498</ele>
        <time>2015-03-08T09:41:34.000Z</time>
      </trkpt>
      <trkpt lat="47.42973" lon="6.71997">
        <ele>496</ele>
        <time>2015-03-08T09:41:35.000Z</time>
      </trkpt>
      <trkpt lat="47.42971" lon="6.71993">
        <ele>496</ele>
        <time>2015-03-08T09:41:36.000Z</time>
      </trkpt>
      <trkpt lat="47.42969" lon="6.71988">
        <ele>496</ele>
        <time>2015-03-08T09:41:37.000Z</time>
      </trkpt>
      <trkpt lat="47.42968" lon="6.71984">
        <ele>496</ele>
        <time>2015-03-08T09:41:38.000Z</time>
      </trkpt>
      <trkpt lat="47.42966" lon="6.7198">
        <ele>496</ele>
        <time>2015-03-08T09:41:39.000Z</time>
      </trkpt>
      <trkpt lat="47.42964" lon="6.71977">
        <ele>497</ele>
        <time>2015-03-08T09:41:40.000Z</time>
      </trkpt>
      <trkpt lat="47.42962" lon="6.71972">
        <ele>497</ele>
        <time>2015-03-08T09:41:41.000Z</time>
      </trkpt>
      <trkpt lat="47.42959" lon="6.71968">
        <ele>497</ele>
        <time>2015-03-08T09:41:42.000Z</time>
      </trkpt>
      <trkpt lat="47.42957" lon="6.71963">
        <ele>497</ele>
        <time>2015-03-08T09:41:43.000Z</time>
      </trkpt>
      <trkpt lat="47.42955" lon="6.71958">
        <ele>497</ele>
        <time>2015-03-08T09:41:44.000Z</time>
      </trkpt>
      <trkpt lat="47.42953" lon="6.71953">
        <ele>497</ele>
        <time>2015-03-08T09:41:45.000Z</time>
      </trkpt>
      <trkpt lat="47.42951" lon="6.71948">
        <ele>497</ele>
        <time>2015-03-08T09:41:46.000Z</time>
      </trkpt>
      <trkpt lat="47.42949" lon="6.71943">
        <ele>497</ele>
        <time>2015-03-08T09:41:47.000Z</time>
      </trkpt>
      <trkpt lat="47.42947" lon="6.71937">
        <ele>497</ele>
        <time>2015-03-08T09:41:48.000Z</time>
      </trkpt>
      <trkpt lat="47.42944" lon="6.71932">
        <ele>497</ele>
        <time>2015-03-08T09:41:49.000Z</time>
      </trkpt>
      <trkpt lat="47.42941" lon="6.71925">
        <ele>497</ele>
        <time>2015-03-08T09:41:50.000Z</time>
      </trkpt>
      <trkpt lat="47.42939" lon="6.71919">
        <ele>497</ele>
        <time>2015-03-08T09:41:51.000Z</time>
      </trkpt>
      <trkpt lat="47.42938" lon="6.71916">
        <ele>496</ele>
        <time>2015-03-08T09:41:52.000Z</time>
      </trkpt>
      <trkpt lat="47.42936" lon="6.7191">
        <ele>496</ele>
        <time>2015-03-08T09:41:53.000Z</time>
      </trkpt>
      <trkpt lat="47.42933" lon="6.71905">
        <ele>496</ele>
        <time>2015-03-08T09:41:54.000Z</time>
      </trkpt>
      <trkpt lat="47.4293" lon="6.71898">
        <ele>496</ele>
        <time>2015-03-08T09:41:55.000Z</time>
      </trkpt>
      <trkpt lat="47.42927" lon="6.71893">
        <ele>495</ele>
        <time>2015-03-08T09:41:56.000Z</time>
      </trkpt>
      <trkpt lat="47.42924" lon="6.71887">
        <ele>495</ele>
        <time>2015-03-08T09:41:57.000Z</time>
      </trkpt>
      <trkpt lat="47.42922" lon="6.71882">
        <ele>495</ele>
        <time>2015-03-08T09:41:58.000Z</time>
      </trkpt>
      <trkpt lat="47.42919" lon="6.71875">
        <ele>495</ele>
        <time>2015-03-08T09:41:59.000Z</time>
      </trkpt>
      <trkpt lat="47.42917" lon="6.7187">
        <ele>494</ele>
        <time>2015-03-08T09:42:00.000Z</time>
      </trkpt>
      <trkpt lat="47.42915" lon="6.71863">
        <ele>497</ele>
        <time>2015-03-08T09:42:01.000Z</time>
      </trkpt>
      <trkpt lat="47.42913" lon="6.71856">
        <ele>497</ele>
        <time>2015-03-08T09:42:02.000Z</time>
      </trkpt>
      <trkpt lat="47.4291" lon="6.71847">
        <ele>496</ele>
        <time>2015-03-08T09:42:03.000Z</time>
      </trkpt>
      <trkpt lat="47.42908" lon="6.71838">
        <ele>496</ele>
        <time>2015-03-08T09:42:04.000Z</time>
      </trkpt>
      <trkpt lat="47.42906" lon="6.71831">
        <ele>494</ele>
        <time>2015-03-08T09:42:05.000Z</time>
      </trkpt>
      <trkpt lat="47.42905" lon="6.71822">
        <ele>494</ele>
        <time>2015-03-08T09:42:06.000Z</time>
      </trkpt>
      <trkpt lat="47.42902" lon="6.71814">
        <ele>494</ele>
        <time>2015-03-08T09:42:07.000Z</time>
      </trkpt>
      <trkpt lat="47.429" lon="6.71806">
        <ele>494</ele>
        <time>2015-03-08T09:42:08.000Z</time>
      </trkpt>
      <trkpt lat="47.42898" lon="6.71799">
        <ele>494</ele>
        <time>2015-03-08T09:42:09.000Z</time>
      </trkpt>
      <trkpt lat="47.42896" lon="6.71792">
        <ele>493</ele>
        <time>2015-03-08T09:42:10.000Z</time>
      </trkpt>
      <trkpt lat="47.42893" lon="6.71788">
        <ele>493</ele>
        <time>2015-03-08T09:42:11.000Z</time>
      </trkpt>
      <trkpt lat="47.42891" lon="6.71782">
        <ele>493</ele>
        <time>2015-03-08T09:42:12.000Z</time>
      </trkpt>
      <trkpt lat="47.42888" lon="6.71777">
        <ele>493</ele>
        <time>2015-03-08T09:42:13.000Z</time>
      </trkpt>
      <trkpt lat="47.42885" lon="6.71771">
        <ele>493</ele>
        <time>2015-03-08T09:42:14.000Z</time>
      </trkpt>
      <trkpt lat="47.42883" lon="6.71764">
        <ele>493</ele>
        <time>2015-03-08T09:42:15.000Z</time>
      </trkpt>
      <trkpt lat="47.4288" lon="6.71758">
        <ele>493</ele>
        <time>2015-03-08T09:42:16.000Z</time>
      </trkpt>
      <trkpt lat="47.42877" lon="6.7175">
        <ele>493</ele>
        <time>2015-03-08T09:42:17.000Z</time>
      </trkpt>
      <trkpt lat="47.42875" lon="6.71742">
        <ele>489</ele>
        <time>2015-03-08T09:42:18.000Z</time>
      </trkpt>
      <trkpt lat="47.42872" lon="6.71735">
        <ele>489</ele>
        <time>2015-03-08T09:42:19.000Z</time>
      </trkpt>
      <trkpt lat="47.4287" lon="6.71728">
        <ele>489</ele>
        <time>2015-03-08T09:42:20.000Z</time>
      </trkpt>
      <trkpt lat="47.42867" lon="6.7172">
        <ele>489</ele>
        <time>2015-03-08T09:42:21.000Z</time>
      </trkpt>
      <trkpt lat="47.42865" lon="6.71713">
        <ele>489</ele>
        <time>2015-03-08T09:42:22.000Z</time>
      </trkpt>
      <trkpt lat="47.42862" lon="6.71705">
        <ele>489</ele>
        <time>2015-03-08T09:42:23.000Z</time>
      </trkpt>
      <trkpt lat="47.42859" lon="6.71698">
        <ele>489</ele>
        <time>2015-03-08T09:42:24.000Z</time>
      </trkpt>
      <trkpt lat="47.42855" lon="6.71689">
        <ele>489</ele>
        <time>2015-03-08T09:42:25.000Z</time>
      </trkpt>
      <trkpt lat="47.42851" lon="6.71679">
        <ele>489</ele>
        <time>2015-03-08T09:42:26.000Z</time>
      </trkpt>
      <trkpt lat="47.42847" lon="6.71673">
        <ele>489</ele>
        <time>2015-03-08T09:42:27.000Z</time>
      </trkpt>
      <trkpt lat="47.42843" lon="6.71666">
        <ele>487</ele>
        <time>2015-03-08T09:42:28.000Z</time>
      </trkpt>
      <trkpt lat="47.42838" lon="6.71659">
        <ele>487</ele>
        <time>2015-03-08T09:42:29.000Z</time>
      </trkpt>
      <trkpt lat="47.42834" lon="6.71653">
        <ele>487</ele>
        <time>2015-03-08T09:42:30.000Z</time>
      </trkpt>
      <trkpt lat="47.42831" lon="6.71647">
        <ele>488</ele>
        <time>2015-03-08T09:42:31.000Z</time>
      </trkpt>
      <trkpt lat="47.42827" lon="6.71643">
        <ele>488</ele>
        <time>2015-03-08T09:42:32.000Z</time>
      </trkpt>
      <trkpt lat="47.42823" lon="6.71639">
        <ele>488</ele>
        <time>2015-03-08T09:42:33.000Z</time>
      </trkpt>
      <trkpt lat="47.42822" lon="6.71634">
        <ele>488</ele>
        <time>2015-03-08T09:42:34.000Z</time>
      </trkpt>
      <trkpt lat="47.42818" lon="6.71628">
        <ele>488</ele>
        <time>2015-03-08T09:42:35.000Z</time>
      </trkpt>
      <trkpt lat="47.42815" lon="6.71623">
        <ele>488</ele>
        <time>2015-03-08T09:42:36.000Z</time>
      </trkpt>
      <trkpt lat="47.42812" lon="6.71619">
        <ele>488</ele>
        <time>2015-03-08T09:42:37.000Z</time>
      </trkpt>
      <trkpt lat="47.42809" lon="6.71613">
        <ele>488</ele>
        <time>2015-03-08T09:42:38.000Z</time>
      </trkpt>
      <trkpt lat="47.42806" lon="6.71609">
        <ele>487</ele>
        <time>2015-03-08T09:42:39.000Z</time>
      </trkpt>
      <trkpt lat="47.42803" lon="6.71602">
        <ele>487</ele>
        <time>2015-03-08T09:42:40.000Z</time>
      </trkpt>
      <trkpt lat="47.428" lon="6.71599">
        <ele>487</ele>
        <time>2015-03-08T09:42:41.000Z</time>
      </trkpt>
      <trkpt lat="47.42799" lon="6.71597">
        <ele>487</ele>
        <time>2015-03-08T09:42:42.000Z</time>
      </trkpt>
      <trkpt lat="47.42796" lon="6.71593">
        <ele>487</ele>
        <time>2015-03-08T09:42:58.000Z</time>
      </trkpt>
      <trkpt lat="47.42795" lon="6.71593">
        <ele>488</ele>
        <time>2015-03-08T09:42:59.000Z</time>
      </trkpt>
      <trkpt lat="47.42796" lon="6.71599">
        <ele>488</ele>
        <time>2015-03-08T09:44:47.000Z</time>
      </trkpt>
      <trkpt lat="47.42796" lon="6.71599">
        <ele>488</ele>
        <time>2015-03-08T09:44:48.000Z</time>
      </trkpt>
      <trkpt lat="47.42793" lon="6.71595">
        <ele>488</ele>
        <time>2015-03-08T09:46:07.000Z</time>
      </trkpt>
      <trkpt lat="47.42791" lon="6.71594">
        <ele>488</ele>
        <time>2015-03-08T09:46:08.000Z</time>
      </trkpt>
      <trkpt lat="47.42788" lon="6.7159">
        <ele>488</ele>
        <time>2015-03-08T09:46:10.000Z</time>
      </trkpt>
      <trkpt lat="47.42787" lon="6.71589">
        <ele>488</ele>
        <time>2015-03-08T09:46:11.000Z</time>
      </trkpt>
      <trkpt lat="47.42785" lon="6.71585">
        <ele>488</ele>
        <time>2015-03-08T09:46:15.000Z</time>
      </trkpt>
      <trkpt lat="47.42783" lon="6.71583">
        <ele>485</ele>
        <time>2015-03-08T09:46:16.000Z</time>
      </trkpt>
      <trkpt lat="47.42781" lon="6.71581">
        <ele>485</ele>
        <time>2015-03-08T09:46:17.000Z</time>
      </trkpt>
      <trkpt lat="47.42779" lon="6.71578">
        <ele>485</ele>
        <time>2015-03-08T09:46:18.000Z</time>
      </trkpt>
      <trkpt lat="47.42776" lon="6.71575">
        <ele>485</ele>
        <time>2015-03-08T09:46:19.000Z</time>
      </trkpt>
      <trkpt lat="47.42774" lon="6.71572">
        <ele>485</ele>
        <time>2015-03-08T09:46:20.000Z</time>
      </trkpt>
      <trkpt lat="47.42771" lon="6.71568">
        <ele>486</ele>
        <time>2015-03-08T09:46:21.000Z</time>
      </trkpt>
      <trkpt lat="47.42766" lon="6.71562">
        <ele>485</ele>
        <time>2015-03-08T09:46:22.000Z</time>
      </trkpt>
      <trkpt lat="47.42762" lon="6.71557">
        <ele>485</ele>
        <time>2015-03-08T09:46:23.000Z</time>
      </trkpt>
      <trkpt lat="47.42758" lon="6.71551">
        <ele>485</ele>
        <time>2015-03-08T09:46:24.000Z</time>
      </trkpt>
      <trkpt lat="47.42755" lon="6.71545">
        <ele>485</ele>
        <time>2015-03-08T09:46:25.000Z</time>
      </trkpt>
      <trkpt lat="47.42752" lon="6.71537">
        <ele>484</ele>
        <time>2015-03-08T09:46:26.000Z</time>
      </trkpt>
      <trkpt lat="47.4275" lon="6.71531">
        <ele>487</ele>
        <time>2015-03-08T09:46:27.000Z</time>
      </trkpt>
      <trkpt lat="47.42746" lon="6.71522">
        <ele>486</ele>
        <time>2015-03-08T09:46:28.000Z</time>
      </trkpt>
      <trkpt lat="47.42742" lon="6.71515">
        <ele>486</ele>
        <time>2015-03-08T09:46:29.000Z</time>
      </trkpt>
      <trkpt lat="47.42739" lon="6.71506">
        <ele>485</ele>
        <time>2015-03-08T09:46:30.000Z</time>
      </trkpt>
      <trkpt lat="47.42735" lon="6.71496">
        <ele>483</ele>
        <time>2015-03-08T09:46:31.000Z</time>
      </trkpt>
      <trkpt lat="47.42732" lon="6.71488">
        <ele>483</ele>
        <time>2015-03-08T09:46:32.000Z</time>
      </trkpt>
      <trkpt lat="47.42728" lon="6.71478">
        <ele>483</ele>
        <time>2015-03-08T09:46:33.000Z</time>
      </trkpt>
      <trkpt lat="47.42723" lon="6.71468">
        <ele>483</ele>
        <time>2015-03-08T09:46:34.000Z</time>
      </trkpt>
      <trkpt lat="47.42719" lon="6.71459">
        <ele>483</ele>
        <time>2015-03-08T09:46:35.000Z</time>
      </trkpt>
      <trkpt lat="47.42717" lon="6.71449">
        <ele>482</ele>
        <time>2015-03-08T09:46:36.000Z</time>
      </trkpt>
      <trkpt lat="47.42713" lon="6.7144">
        <ele>482</ele>
        <time>2015-03-08T09:46:37.000Z</time>
      </trkpt>
      <trkpt lat="47.4271" lon="6.71432">
        <ele>482</ele>
        <time>2015-03-08T09:46:38.000Z</time>
      </trkpt>
      <trkpt lat="47.42706" lon="6.71423">
        <ele>482</ele>
        <time>2015-03-08T09:46:39.000Z</time>
      </trkpt>
      <trkpt lat="47.42704" lon="6.71413">
        <ele>479</ele>
        <time>2015-03-08T09:46:40.000Z</time>
      </trkpt>
      <trkpt lat="47.42701" lon="6.71404">
        <ele>479</ele>
        <time>2015-03-08T09:46:41.000Z</time>
      </trkpt>
      <trkpt lat="47.42698" lon="6.71394">
        <ele>479</ele>
        <time>2015-03-08T09:46:42.000Z</time>
      </trkpt>
      <trkpt lat="47.42695" lon="6.71385">
        <ele>479</ele>
        <time>2015-03-08T09:46:43.000Z</time>
      </trkpt>
      <trkpt lat="47.42693" lon="6.71377">
        <ele>479</ele>
        <time>2015-03-08T09:46:44.000Z</time>
      </trkpt>
      <trkpt lat="47.4269" lon="6.71367">
        <ele>479</ele>
        <time>2015-03-08T09:46:45.000Z</time>
      </trkpt>
      <trkpt lat="47.42685" lon="6.71358">
        <ele>479</ele>
        <time>2015-03-08T09:46:46.000Z</time>
      </trkpt>
      <trkpt lat="47.42681" lon="6.71349">
        <ele>479</ele>
        <time>2015-03-08T09:46:47.000Z</time>
      </trkpt>
      <trkpt lat="47.42678" lon="6.7134">
        <ele>479</ele>
        <time>2015-03-08T09:46:48.000Z</time>
      </trkpt>
      <trkpt lat="47.42676" lon="6.7133">
        <ele>477</ele>
        <time>2015-03-08T09:46:49.000Z</time>
      </trkpt>
      <trkpt lat="47.42673" lon="6.71321">
        <ele>477</ele>
        <time>2015-03-08T09:46:50.000Z</time>
      </trkpt>
      <trkpt lat="47.4267" lon="6.71309">
        <ele>476</ele>
        <time>2015-03-08T09:46:51.000Z</time>
      </trkpt>
      <trkpt lat="47.42669" lon="6.71304">
        <ele>475</ele>
        <time>2015-03-08T09:46:52.000Z</time>
      </trkpt>
      <trkpt lat="47.42666" lon="6.71296">
        <ele>478</ele>
        <time>2015-03-08T09:46:53.000Z</time>
      </trkpt>
      <trkpt lat="47.42663" lon="6.71288">
        <ele>477</ele>
        <time>2015-03-08T09:46:54.000Z</time>
      </trkpt>
      <trkpt lat="47.42659" lon="6.71281">
        <ele>477</ele>
        <time>2015-03-08T09:46:55.000Z</time>
      </trkpt>
      <trkpt lat="47.42657" lon="6.71273">
        <ele>477</ele>
        <time>2015-03-08T09:46:56.000Z</time>
      </trkpt>
      <trkpt lat="47.42654" lon="6.71267">
        <ele>476</ele>
        <time>2015-03-08T09:46:57.000Z</time>
      </trkpt>
      <trkpt lat="47.42649" lon="6.71264">
        <ele>476</ele>
        <time>2015-03-08T09:46:58.000Z</time>
      </trkpt>
      <trkpt lat="47.42644" lon="6.71265">
        <ele>477</ele>
        <time>2015-03-08T09:46:59.000Z</time>
      </trkpt>
      <trkpt lat="47.42638" lon="6.71272">
        <ele>477</ele>
        <time>2015-03-08T09:47:00.000Z</time>
      </trkpt>
      <trkpt lat="47.42633" lon="6.71278">
        <ele>477</ele>
        <time>2015-03-08T09:47:01.000Z</time>
      </trkpt>
      <trkpt lat="47.42629" lon="6.71282">
        <ele>478</ele>
        <time>2015-03-08T09:47:02.000Z</time>
      </trkpt>
      <trkpt lat="47.42626" lon="6.71284">
        <ele>478</ele>
        <time>2015-03-08T09:47:03.000Z</time>
      </trkpt>
      <trkpt lat="47.42624" lon="6.71288">
        <ele>478</ele>
        <time>2015-03-08T09:47:04.000Z</time>
      </trkpt>
      <trkpt lat="47.4262" lon="6.71291">
        <ele>478</ele>
        <time>2015-03-08T09:47:05.000Z</time>
      </trkpt>
      <trkpt lat="47.42619" lon="6.71297">
        <ele>478</ele>
        <time>2015-03-08T09:47:06.000Z</time>
      </trkpt>
      <trkpt lat="47.42617" lon="6.713">
        <ele>478</ele>
        <time>2015-03-08T09:47:07.000Z</time>
      </trkpt>
      <trkpt lat="47.42614" lon="6.71302">
        <ele>478</ele>
        <time>2015-03-08T09:47:08.000Z</time>
      </trkpt>
      <trkpt lat="47.42611" lon="6.71303">
        <ele>479</ele>
        <time>2015-03-08T09:47:09.000Z</time>
      </trkpt>
      <trkpt lat="47.42609" lon="6.71305">
        <ele>479</ele>
        <time>2015-03-08T09:47:10.000Z</time>
      </trkpt>
      <trkpt lat="47.42605" lon="6.71307">
        <ele>479</ele>
        <time>2015-03-08T09:47:11.000Z</time>
      </trkpt>
      <trkpt lat="47.42603" lon="6.71308">
        <ele>479</ele>
        <time>2015-03-08T09:47:12.000Z</time>
      </trkpt>
      <trkpt lat="47.42601" lon="6.71309">
        <ele>479</ele>
        <time>2015-03-08T09:47:13.000Z</time>
      </trkpt>
      <trkpt lat="47.42598" lon="6.7131">
        <ele>479</ele>
        <time>2015-03-08T09:47:14.000Z</time>
      </trkpt>
      <trkpt lat="47.42595" lon="6.71311">
        <ele>479</ele>
        <time>2015-03-08T09:47:15.000Z</time>
      </trkpt>
      <trkpt lat="47.42592" lon="6.71312">
        <ele>479</ele>
        <time>2015-03-08T09:47:16.000Z</time>
      </trkpt>
      <trkpt lat="47.42589" lon="6.71313">
        <ele>479</ele>
        <time>2015-03-08T09:47:17.000Z</time>
      </trkpt>
      <trkpt lat="47.42585" lon="6.71314">
        <ele>479</ele>
        <time>2015-03-08T09:47:18.000Z</time>
      </trkpt>
      <trkpt lat="47.42582" lon="6.71316">
        <ele>480</ele>
        <time>2015-03-08T09:47:19.000Z</time>
      </trkpt>
      <trkpt lat="47.42578" lon="6.71318">
        <ele>480</ele>
        <time>2015-03-08T09:47:20.000Z</time>
      </trkpt>
      <trkpt lat="47.42574" lon="6.7132">
        <ele>480</ele>
        <time>2015-03-08T09:47:21.000Z</time>
      </trkpt>
      <trkpt lat="47.4257" lon="6.71322">
        <ele>480</ele>
        <time>2015-03-08T09:47:22.000Z</time>
      </trkpt>
      <trkpt lat="47.42566" lon="6.71324">
        <ele>480</ele>
        <time>2015-03-08T09:47:23.000Z</time>
      </trkpt>
      <trkpt lat="47.42562" lon="6.71326">
        <ele>480</ele>
        <time>2015-03-08T09:47:24.000Z</time>
      </trkpt>
      <trkpt lat="47.42558" lon="6.71328">
        <ele>480</ele>
        <time>2015-03-08T09:47:25.000Z</time>
      </trkpt>
      <trkpt lat="47.42554" lon="6.7133">
        <ele>480</ele>
        <time>2015-03-08T09:47:26.000Z</time>
      </trkpt>
      <trkpt lat="47.42551" lon="6.71332">
        <ele>480</ele>
        <time>2015-03-08T09:47:27.000Z</time>
      </trkpt>
      <trkpt lat="47.42547" lon="6.71333">
        <ele>480</ele>
        <time>2015-03-08T09:47:28.000Z</time>
      </trkpt>
      <trkpt lat="47.42543" lon="6.71335">
        <ele>483</ele>
        <time>2015-03-08T09:47:29.000Z</time>
      </trkpt>
      <trkpt lat="47.42539" lon="6.71337">
        <ele>483</ele>
        <time>2015-03-08T09:47:30.000Z</time>
      </trkpt>
      <trkpt lat="47.42536" lon="6.71339">
        <ele>483</ele>
        <time>2015-03-08T09:47:31.000Z</time>
      </trkpt>
      <trkpt lat="47.42532" lon="6.71342">
        <ele>483</ele>
        <time>2015-03-08T09:47:32.000Z</time>
      </trkpt>
      <trkpt lat="47.42529" lon="6.71344">
        <ele>483</ele>
        <time>2015-03-08T09:47:33.000Z</time>
      </trkpt>
      <trkpt lat="47.42525" lon="6.71345">
        <ele>483</ele>
        <time>2015-03-08T09:47:34.000Z</time>
      </trkpt>
      <trkpt lat="47.42522" lon="6.71347">
        <ele>483</ele>
        <time>2015-03-08T09:47:35.000Z</time>
      </trkpt>
      <trkpt lat="47.42519" lon="6.71349">
        <ele>483</ele>
        <time>2015-03-08T09:47:36.000Z</time>
      </trkpt>
      <trkpt lat="47.42515" lon="6.71351">
        <ele>483</ele>
        <time>2015-03-08T09:47:37.000Z</time>
      </trkpt>
      <trkpt lat="47.42512" lon="6.71353">
        <ele>483</ele>
        <time>2015-03-08T09:47:38.000Z</time>
      </trkpt>
      <trkpt lat="47.42509" lon="6.71354">
        <ele>483</ele>
        <time>2015-03-08T09:47:39.000Z</time>
      </trkpt>
      <trkpt lat="47.42505" lon="6.71356">
        <ele>483</ele>
        <time>2015-03-08T09:47:40.000Z</time>
      </trkpt>
      <trkpt lat="47.42502" lon="6.71357">
        <ele>483</ele>
        <time>2015-03-08T09:47:41.000Z</time>
      </trkpt>
      <trkpt lat="47.42498" lon="6.71359">
        <ele>482</ele>
        <time>2015-03-08T09:47:42.000Z</time>
      </trkpt>
      <trkpt lat="47.42494" lon="6.7136">
        <ele>482</ele>
        <time>2015-03-08T09:47:43.000Z</time>
      </trkpt>
      <trkpt lat="47.42491" lon="6.71358">
        <ele>482</ele>
        <time>2015-03-08T09:47:44.000Z</time>
      </trkpt>
      <trkpt lat="47.42488" lon="6.71354">
        <ele>482</ele>
        <time>2015-03-08T09:47:45.000Z</time>
      </trkpt>
      <trkpt lat="47.42485" lon="6.71342">
        <ele>482</ele>
        <time>2015-03-08T09:47:46.000Z</time>
      </trkpt>
      <trkpt lat="47.42484" lon="6.71337">
        <ele>482</ele>
        <time>2015-03-08T09:47:47.000Z</time>
      </trkpt>
      <trkpt lat="47.42484" lon="6.71326">
        <ele>479</ele>
        <time>2015-03-08T09:47:48.000Z</time>
      </trkpt>
      <trkpt lat="47.42482" lon="6.71315">
        <ele>479</ele>
        <time>2015-03-08T09:47:49.000Z</time>
      </trkpt>
      <trkpt lat="47.42483" lon="6.71303">
        <ele>478</ele>
        <time>2015-03-08T09:47:50.000Z</time>
      </trkpt>
      <trkpt lat="47.42484" lon="6.7129">
        <ele>477</ele>
        <time>2015-03-08T09:47:51.000Z</time>
      </trkpt>
      <trkpt lat="47.42486" lon="6.71279">
        <ele>477</ele>
        <time>2015-03-08T09:47:52.000Z</time>
      </trkpt>
      <trkpt lat="47.42484" lon="6.71266">
        <ele>477</ele>
        <time>2015-03-08T09:47:53.000Z</time>
      </trkpt>
      <trkpt lat="47.42484" lon="6.71251">
        <ele>477</ele>
        <time>2015-03-08T09:47:54.000Z</time>
      </trkpt>
      <trkpt lat="47.42482" lon="6.71237">
        <ele>472</ele>
        <time>2015-03-08T09:47:55.000Z</time>
      </trkpt>
      <trkpt lat="47.4248" lon="6.71225">
        <ele>471</ele>
        <time>2015-03-08T09:47:56.000Z</time>
      </trkpt>
      <trkpt lat="47.42481" lon="6.71207">
        <ele>470</ele>
        <time>2015-03-08T09:47:57.000Z</time>
      </trkpt>
      <trkpt lat="47.42477" lon="6.71193">
        <ele>469</ele>
        <time>2015-03-08T09:47:58.000Z</time>
      </trkpt>
      <trkpt lat="47.42475" lon="6.71174">
        <ele>468</ele>
        <time>2015-03-08T09:47:59.000Z</time>
      </trkpt>
      <trkpt lat="47.42473" lon="6.7116">
        <ele>463</ele>
        <time>2015-03-08T09:48:00.000Z</time>
      </trkpt>
      <trkpt lat="47.42473" lon="6.71148">
        <ele>462</ele>
        <time>2015-03-08T09:48:01.000Z</time>
      </trkpt>
      <trkpt lat="47.4247" lon="6.71133">
        <ele>461</ele>
        <time>2015-03-08T09:48:02.000Z</time>
      </trkpt>
      <trkpt lat="47.42467" lon="6.71121">
        <ele>460</ele>
        <time>2015-03-08T09:48:03.000Z</time>
      </trkpt>
      <trkpt lat="47.42468" lon="6.71111">
        <ele>460</ele>
        <time>2015-03-08T09:48:04.000Z</time>
      </trkpt>
      <trkpt lat="47.42463" lon="6.711">
        <ele>459</ele>
        <time>2015-03-08T09:48:05.000Z</time>
      </trkpt>
      <trkpt lat="47.42463" lon="6.71087">
        <ele>459</ele>
        <time>2015-03-08T09:48:06.000Z</time>
      </trkpt>
      <trkpt lat="47.42461" lon="6.71076">
        <ele>455</ele>
        <time>2015-03-08T09:48:07.000Z</time>
      </trkpt>
      <trkpt lat="47.42456" lon="6.71067">
        <ele>454</ele>
        <time>2015-03-08T09:48:08.000Z</time>
      </trkpt>
      <trkpt lat="47.42454" lon="6.7106">
        <ele>454</ele>
        <time>2015-03-08T09:48:09.000Z</time>
      </trkpt>
      <trkpt lat="47.42452" lon="6.71053">
        <ele>454</ele>
        <time>2015-03-08T09:48:10.000Z</time>
      </trkpt>
      <trkpt lat="47.42447" lon="6.71043">
        <ele>453</ele>
        <time>2015-03-08T09:48:11.000Z</time>
      </trkpt>
      <trkpt lat="47.42444" lon="6.71031">
        <ele>453</ele>
        <time>2015-03-08T09:48:12.000Z</time>
      </trkpt>
      <trkpt lat="47.42441" lon="6.71028">
        <ele>452</ele>
        <time>2015-03-08T09:48:13.000Z</time>
      </trkpt>
      <trkpt lat="47.42436" lon="6.71018">
        <ele>451</ele>
        <time>2015-03-08T09:48:14.000Z</time>
      </trkpt>
      <trkpt lat="47.42434" lon="6.71017">
        <ele>451</ele>
        <time>2015-03-08T09:48:15.000Z</time>
      </trkpt>
      <trkpt lat="47.42431" lon="6.71009">
        <ele>450</ele>
        <time>2015-03-08T09:48:16.000Z</time>
      </trkpt>
      <trkpt lat="47.42427" lon="6.71004">
        <ele>448</ele>
        <time>2015-03-08T09:48:17.000Z</time>
      </trkpt>
      <trkpt lat="47.42422" lon="6.70998">
        <ele>447</ele>
        <time>2015-03-08T09:48:18.000Z</time>
      </trkpt>
      <trkpt lat="47.42419" lon="6.70991">
        <ele>448</ele>
        <time>2015-03-08T09:48:19.000Z</time>
      </trkpt>
      <trkpt lat="47.42414" lon="6.70987">
        <ele>441</ele>
        <time>2015-03-08T09:48:20.000Z</time>
      </trkpt>
      <trkpt lat="47.4241" lon="6.70981">
        <ele>440</ele>
        <time>2015-03-08T09:48:21.000Z</time>
      </trkpt>
      <trkpt lat="47.42406" lon="6.70975">
        <ele>439</ele>
        <time>2015-03-08T09:48:22.000Z</time>
      </trkpt>
      <trkpt lat="47.42402" lon="6.70971">
        <ele>438</ele>
        <time>2015-03-08T09:48:23.000Z</time>
      </trkpt>
      <trkpt lat="47.42396" lon="6.70965">
        <ele>437</ele>
        <time>2015-03-08T09:48:24.000Z</time>
      </trkpt>
      <trkpt lat="47.42391" lon="6.70953">
        <ele>437</ele>
        <time>2015-03-08T09:48:25.000Z</time>
      </trkpt>
      <trkpt lat="47.42386" lon="6.70943">
        <ele>436</ele>
        <time>2015-03-08T09:48:26.000Z</time>
      </trkpt>
      <trkpt lat="47.42383" lon="6.70932">
        <ele>436</ele>
        <time>2015-03-08T09:48:27.000Z</time>
      </trkpt>
      <trkpt lat="47.42376" lon="6.70913">
        <ele>435</ele>
        <time>2015-03-08T09:48:28.000Z</time>
      </trkpt>
      <trkpt lat="47.42374" lon="6.709">
        <ele>435</ele>
        <time>2015-03-08T09:48:29.000Z</time>
      </trkpt>
      <trkpt lat="47.42369" lon="6.70887">
        <ele>434</ele>
        <time>2015-03-08T09:48:30.000Z</time>
      </trkpt>
      <trkpt lat="47.42363" lon="6.70872">
        <ele>433</ele>
        <time>2015-03-08T09:48:31.000Z</time>
      </trkpt>
      <trkpt lat="47.42357" lon="6.70856">
        <ele>432</ele>
        <time>2015-03-08T09:48:32.000Z</time>
      </trkpt>
      <trkpt lat="47.42351" lon="6.7084">
        <ele>430</ele>
        <time>2015-03-08T09:48:33.000Z</time>
      </trkpt>
      <trkpt lat="47.42347" lon="6.70828">
        <ele>430</ele>
        <time>2015-03-08T09:48:34.000Z</time>
      </trkpt>
      <trkpt lat="47.42342" lon="6.70815">
        <ele>431</ele>
        <time>2015-03-08T09:48:35.000Z</time>
      </trkpt>
      <trkpt lat="47.42338" lon="6.70807">
        <ele>433</ele>
        <time>2015-03-08T09:48:36.000Z</time>
      </trkpt>
      <trkpt lat="47.42333" lon="6.70793">
        <ele>421</ele>
        <time>2015-03-08T09:48:37.000Z</time>
      </trkpt>
      <trkpt lat="47.42327" lon="6.70784">
        <ele>421</ele>
        <time>2015-03-08T09:48:38.000Z</time>
      </trkpt>
      <trkpt lat="47.42319" lon="6.70773">
        <ele>422</ele>
        <time>2015-03-08T09:48:39.000Z</time>
      </trkpt>
      <trkpt lat="47.42311" lon="6.70756">
        <ele>422</ele>
        <time>2015-03-08T09:48:40.000Z</time>
      </trkpt>
      <trkpt lat="47.42305" lon="6.70747">
        <ele>424</ele>
        <time>2015-03-08T09:48:41.000Z</time>
      </trkpt>
      <trkpt lat="47.42296" lon="6.70737">
        <ele>422</ele>
        <time>2015-03-08T09:48:42.000Z</time>
      </trkpt>
      <trkpt lat="47.42291" lon="6.70722">
        <ele>421</ele>
        <time>2015-03-08T09:48:43.000Z</time>
      </trkpt>
      <trkpt lat="47.42285" lon="6.70708">
        <ele>421</ele>
        <time>2015-03-08T09:48:44.000Z</time>
      </trkpt>
      <trkpt lat="47.42278" lon="6.70695">
        <ele>420</ele>
        <time>2015-03-08T09:48:45.000Z</time>
      </trkpt>
      <trkpt lat="47.42271" lon="6.70684">
        <ele>418</ele>
        <time>2015-03-08T09:48:46.000Z</time>
      </trkpt>
      <trkpt lat="47.42264" lon="6.70671">
        <ele>415</ele>
        <time>2015-03-08T09:48:47.000Z</time>
      </trkpt>
      <trkpt lat="47.42256" lon="6.70656">
        <ele>416</ele>
        <time>2015-03-08T09:48:48.000Z</time>
      </trkpt>
      <trkpt lat="47.42251" lon="6.70643">
        <ele>419</ele>
        <time>2015-03-08T09:48:49.000Z</time>
      </trkpt>
      <trkpt lat="47.42245" lon="6.70629">
        <ele>406</ele>
        <time>2015-03-08T09:48:50.000Z</time>
      </trkpt>
      <trkpt lat="47.42241" lon="6.70616">
        <ele>407</ele>
        <time>2015-03-08T09:48:51.000Z</time>
      </trkpt>
      <trkpt lat="47.42238" lon="6.70603">
        <ele>408</ele>
        <time>2015-03-08T09:48:52.000Z</time>
      </trkpt>
      <trkpt lat="47.42234" lon="6.70585">
        <ele>409</ele>
        <time>2015-03-08T09:48:53.000Z</time>
      </trkpt>
      <trkpt lat="47.42231" lon="6.7057">
        <ele>408</ele>
        <time>2015-03-08T09:48:54.000Z</time>
      </trkpt>
      <trkpt lat="47.42229" lon="6.70554">
        <ele>407</ele>
        <time>2015-03-08T09:48:55.000Z</time>
      </trkpt>
      <trkpt lat="47.42227" lon="6.7054">
        <ele>407</ele>
        <time>2015-03-08T09:48:56.000Z</time>
      </trkpt>
      <trkpt lat="47.42226" lon="6.70526">
        <ele>407</ele>
        <time>2015-03-08T09:48:57.000Z</time>
      </trkpt>
      <trkpt lat="47.42225" lon="6.70512">
        <ele>408</ele>
        <time>2015-03-08T09:48:58.000Z</time>
      </trkpt>
      <trkpt lat="47.42224" lon="6.70498">
        <ele>407</ele>
        <time>2015-03-08T09:48:59.000Z</time>
      </trkpt>
      <trkpt lat="47.42223" lon="6.70484">
        <ele>407</ele>
        <time>2015-03-08T09:49:00.000Z</time>
      </trkpt>
      <trkpt lat="47.42223" lon="6.70469">
        <ele>406</ele>
        <time>2015-03-08T09:49:01.000Z</time>
      </trkpt>
      <trkpt lat="47.42223" lon="6.70457">
        <ele>405</ele>
        <time>2015-03-08T09:49:02.000Z</time>
      </trkpt>
      <trkpt lat="47.42222" lon="6.70444">
        <ele>405</ele>
        <time>2015-03-08T09:49:03.000Z</time>
      </trkpt>
      <trkpt lat="47.42221" lon="6.7043">
        <ele>405</ele>
        <time>2015-03-08T09:49:04.000Z</time>
      </trkpt>
      <trkpt lat="47.4222" lon="6.70417">
        <ele>405</ele>
        <time>2015-03-08T09:49:05.000Z</time>
      </trkpt>
      <trkpt lat="47.42219" lon="6.70404">
        <ele>403</ele>
        <time>2015-03-08T09:49:05.999Z</time>
      </trkpt>
      <trkpt lat="47.42218" lon="6.70393">
        <ele>402</ele>
        <time>2015-03-08T09:49:07.000Z</time>
      </trkpt>
      <trkpt lat="47.42217" lon="6.70381">
        <ele>401</ele>
        <time>2015-03-08T09:49:08.000Z</time>
      </trkpt>
      <trkpt lat="47.42216" lon="6.7037">
        <ele>401</ele>
        <time>2015-03-08T09:49:09.000Z</time>
      </trkpt>
      <trkpt lat="47.42215" lon="6.70357">
        <ele>401</ele>
        <time>2015-03-08T09:49:10.000Z</time>
      </trkpt>
      <trkpt lat="47.42215" lon="6.70344">
        <ele>400</ele>
        <time>2015-03-08T09:49:11.000Z</time>
      </trkpt>
      <trkpt lat="47.42215" lon="6.7033">
        <ele>398</ele>
        <time>2015-03-08T09:49:12.000Z</time>
      </trkpt>
      <trkpt lat="47.42215" lon="6.70317">
        <ele>398</ele>
        <time>2015-03-08T09:49:13.000Z</time>
      </trkpt>
      <trkpt lat="47.42216" lon="6.70304">
        <ele>397</ele>
        <time>2015-03-08T09:49:13.999Z</time>
      </trkpt>
      <trkpt lat="47.42217" lon="6.7029">
        <ele>397</ele>
        <time>2015-03-08T09:49:15.000Z</time>
      </trkpt>
      <trkpt lat="47.42218" lon="6.70276">
        <ele>397</ele>
        <time>2015-03-08T09:49:16.000Z</time>
      </trkpt>
      <trkpt lat="47.42219" lon="6.70262">
        <ele>397</ele>
        <time>2015-03-08T09:49:17.000Z</time>
      </trkpt>
      <trkpt lat="47.4222" lon="6.70248">
        <ele>395</ele>
        <time>2015-03-08T09:49:18.000Z</time>
      </trkpt>
      <trkpt lat="47.4222" lon="6.70232">
        <ele>394</ele>
        <time>2015-03-08T09:49:19.000Z</time>
      </trkpt>
      <trkpt lat="47.42221" lon="6.70221">
        <ele>393</ele>
        <time>2015-03-08T09:49:20.000Z</time>
      </trkpt>
      <trkpt lat="47.42223" lon="6.70205">
        <ele>392</ele>
        <time>2015-03-08T09:49:21.000Z</time>
      </trkpt>
      <trkpt lat="47.42225" lon="6.7019">
        <ele>392</ele>
        <time>2015-03-08T09:49:22.000Z</time>
      </trkpt>
      <trkpt lat="47.42228" lon="6.70174">
        <ele>393</ele>
        <time>2015-03-08T09:49:23.000Z</time>
      </trkpt>
      <trkpt lat="47.42231" lon="6.70158">
        <ele>388</ele>
        <time>2015-03-08T09:49:24.000Z</time>
      </trkpt>
      <trkpt lat="47.42235" lon="6.70142">
        <ele>387</ele>
        <time>2015-03-08T09:49:25.000Z</time>
      </trkpt>
      <trkpt lat="47.42238" lon="6.70127">
        <ele>385</ele>
        <time>2015-03-08T09:49:26.000Z</time>
      </trkpt>
      <trkpt lat="47.42241" lon="6.70112">
        <ele>384</ele>
        <time>2015-03-08T09:49:27.000Z</time>
      </trkpt>
      <trkpt lat="47.42245" lon="6.70097">
        <ele>383</ele>
        <time>2015-03-08T09:49:28.000Z</time>
      </trkpt>
      <trkpt lat="47.42248" lon="6.70082">
        <ele>381</ele>
        <time>2015-03-08T09:49:29.000Z</time>
      </trkpt>
      <trkpt lat="47.42251" lon="6.70067">
        <ele>381</ele>
        <time>2015-03-08T09:49:30.000Z</time>
      </trkpt>
      <trkpt lat="47.42255" lon="6.70054">
        <ele>380</ele>
        <time>2015-03-08T09:49:31.000Z</time>
      </trkpt>
      <trkpt lat="47.4226" lon="6.70041">
        <ele>379</ele>
        <time>2015-03-08T09:49:32.000Z</time>
      </trkpt>
      <trkpt lat="47.42262" lon="6.70027">
        <ele>377</ele>
        <time>2015-03-08T09:49:33.000Z</time>
      </trkpt>
      <trkpt lat="47.42263" lon="6.70014">
        <ele>376</ele>
        <time>2015-03-08T09:49:34.000Z</time>
      </trkpt>
      <trkpt lat="47.42262" lon="6.69999">
        <ele>372</ele>
        <time>2015-03-08T09:49:35.000Z</time>
      </trkpt>
      <trkpt lat="47.42261" lon="6.69986">
        <ele>372</ele>
        <time>2015-03-08T09:49:36.000Z</time>
      </trkpt>
      <trkpt lat="47.42262" lon="6.69972">
        <ele>372</ele>
        <time>2015-03-08T09:49:37.000Z</time>
      </trkpt>
      <trkpt lat="47.42259" lon="6.69957">
        <ele>371</ele>
        <time>2015-03-08T09:49:38.000Z</time>
      </trkpt>
      <trkpt lat="47.42256" lon="6.69941">
        <ele>371</ele>
        <time>2015-03-08T09:49:39.000Z</time>
      </trkpt>
      <trkpt lat="47.42254" lon="6.69925">
        <ele>369</ele>
        <time>2015-03-08T09:49:40.000Z</time>
      </trkpt>
      <trkpt lat="47.42253" lon="6.69909">
        <ele>369</ele>
        <time>2015-03-08T09:49:41.000Z</time>
      </trkpt>
      <trkpt lat="47.42251" lon="6.69893">
        <ele>369</ele>
        <time>2015-03-08T09:49:42.000Z</time>
      </trkpt>
      <trkpt lat="47.42248" lon="6.69878">
        <ele>366</ele>
        <time>2015-03-08T09:49:43.000Z</time>
      </trkpt>
      <trkpt lat="47.42245" lon="6.69866">
        <ele>365</ele>
        <time>2015-03-08T09:49:44.000Z</time>
      </trkpt>
      <trkpt lat="47.42241" lon="6.69854">
        <ele>365</ele>
        <time>2015-03-08T09:49:45.000Z</time>
      </trkpt>
      <trkpt lat="47.42236" lon="6.69843">
        <ele>365</ele>
        <time>2015-03-08T09:49:46.000Z</time>
      </trkpt>
      <trkpt lat="47.4223" lon="6.69835">
        <ele>365</ele>
        <time>2015-03-08T09:49:47.000Z</time>
      </trkpt>
      <trkpt lat="47.42229" lon="6.6983">
        <ele>363</ele>
        <time>2015-03-08T09:49:57.000Z</time>
      </trkpt>
      <trkpt lat="47.42226" lon="6.69828">
        <ele>363</ele>
        <time>2015-03-08T09:49:58.000Z</time>
      </trkpt>
      <trkpt lat="47.42224" lon="6.69827">
        <ele>363</ele>
        <time>2015-03-08T09:49:59.000Z</time>
      </trkpt>
      <trkpt lat="47.42222" lon="6.69826">
        <ele>363</ele>
        <time>2015-03-08T09:50:00.000Z</time>
      </trkpt>
      <trkpt lat="47.42217" lon="6.69826">
        <ele>362</ele>
        <time>2015-03-08T09:50:01.000Z</time>
      </trkpt>
      <trkpt lat="47.42213" lon="6.6983">
        <ele>362</ele>
        <time>2015-03-08T09:50:02.000Z</time>
      </trkpt>
      <trkpt lat="47.4221" lon="6.69832">
        <ele>362</ele>
        <time>2015-03-08T09:50:03.000Z</time>
      </trkpt>
      <trkpt lat="47.42206" lon="6.69835">
        <ele>364</ele>
        <time>2015-03-08T09:50:04.000Z</time>
      </trkpt>
      <trkpt lat="47.42202" lon="6.69838">
        <ele>364</ele>
        <time>2015-03-08T09:50:05.000Z</time>
      </trkpt>
      <trkpt lat="47.42197" lon="6.69839">
        <ele>364</ele>
        <time>2015-03-08T09:50:06.000Z</time>
      </trkpt>
      <trkpt lat="47.42192" lon="6.69843">
        <ele>364</ele>
        <time>2015-03-08T09:50:07.000Z</time>
      </trkpt>
      <trkpt lat="47.42185" lon="6.69845">
        <ele>363</ele>
        <time>2015-03-08T09:50:08.000Z</time>
      </trkpt>
      <trkpt lat="47.4218" lon="6.69847">
        <ele>363</ele>
        <time>2015-03-08T09:50:09.000Z</time>
      </trkpt>
      <trkpt lat="47.42174" lon="6.69852">
        <ele>363</ele>
        <time>2015-03-08T09:50:10.000Z</time>
      </trkpt>
      <trkpt lat="47.42168" lon="6.69856">
        <ele>363</ele>
        <time>2015-03-08T09:50:11.000Z</time>
      </trkpt>
      <trkpt lat="47.42163" lon="6.69859">
        <ele>363</ele>
        <time>2015-03-08T09:50:12.000Z</time>
      </trkpt>
      <trkpt lat="47.42157" lon="6.69864">
        <ele>363</ele>
        <time>2015-03-08T09:50:13.000Z</time>
      </trkpt>
      <trkpt lat="47.42154" lon="6.69868">
        <ele>363</ele>
        <time>2015-03-08T09:50:14.000Z</time>
      </trkpt>
      <trkpt lat="47.42149" lon="6.69872">
        <ele>364</ele>
        <time>2015-03-08T09:50:15.000Z</time>
      </trkpt>
      <trkpt lat="47.42145" lon="6.69877">
        <ele>364</ele>
        <time>2015-03-08T09:50:16.000Z</time>
      </trkpt>
      <trkpt lat="47.4214" lon="6.69881">
        <ele>364</ele>
        <time>2015-03-08T09:50:17.000Z</time>
      </trkpt>
      <trkpt lat="47.42137" lon="6.69882">
        <ele>364</ele>
        <time>2015-03-08T09:50:18.000Z</time>
      </trkpt>
      <trkpt lat="47.42134" lon="6.69883">
        <ele>364</ele>
        <time>2015-03-08T09:50:19.000Z</time>
      </trkpt>
      <trkpt lat="47.42131" lon="6.69883">
        <ele>364</ele>
        <time>2015-03-08T09:50:20.000Z</time>
      </trkpt>
      <trkpt lat="47.42127" lon="6.69884">
        <ele>364</ele>
        <time>2015-03-08T09:50:21.000Z</time>
      </trkpt>
      <trkpt lat="47.42124" lon="6.69887">
        <ele>364</ele>
        <time>2015-03-08T09:50:22.000Z</time>
      </trkpt>
      <trkpt lat="47.42122" lon="6.69888">
        <ele>365</ele>
        <time>2015-03-08T09:50:23.000Z</time>
      </trkpt>
      <trkpt lat="47.42119" lon="6.69889">
        <ele>365</ele>
        <time>2015-03-08T09:50:24.000Z</time>
      </trkpt>
      <trkpt lat="47.42117" lon="6.69891">
        <ele>365</ele>
        <time>2015-03-08T09:50:25.000Z</time>
      </trkpt>
      <trkpt lat="47.42114" lon="6.69892">
        <ele>365</ele>
        <time>2015-03-08T09:50:27.000Z</time>
      </trkpt>
      <trkpt lat="47.42112" lon="6.69893">
        <ele>365</ele>
        <time>2015-03-08T09:50:28.000Z</time>
      </trkpt>
      <trkpt lat="47.42109" lon="6.69897">
        <ele>365</ele>
        <time>2015-03-08T09:50:31.000Z</time>
      </trkpt>
      <trkpt lat="47.42108" lon="6.69898">
        <ele>366</ele>
        <time>2015-03-08T09:50:32.000Z</time>
      </trkpt>
      <trkpt lat="47.42104" lon="6.69902">
        <ele>366</ele>
        <time>2015-03-08T09:51:04.000Z</time>
      </trkpt>
      <trkpt lat="47.42104" lon="6.69902">
        <ele>366</ele>
        <time>2015-03-08T09:51:05.000Z</time>
      </trkpt>
      <trkpt lat="47.42101" lon="6.69905">
        <ele>366</ele>
        <time>2015-03-08T09:51:44.000Z</time>
      </trkpt>
      <trkpt lat="47.421" lon="6.69906">
        <ele>367</ele>
        <time>2015-03-08T09:51:45.000Z</time>
      </trkpt>
      <trkpt lat="47.42097" lon="6.6991">
        <ele>367</ele>
        <time>2015-03-08T09:51:48.000Z</time>
      </trkpt>
      <trkpt lat="47.42096" lon="6.69911">
        <ele>367</ele>
        <time>2015-03-08T09:51:49.000Z</time>
      </trkpt>
      <trkpt lat="47.42093" lon="6.69907">
        <ele>367</ele>
        <time>2015-03-08T09:53:03.000Z</time>
      </trkpt>
      <trkpt lat="47.42092" lon="6.69907">
        <ele>367</ele>
        <time>2015-03-08T09:53:04.000Z</time>
      </trkpt>
      <trkpt lat="47.42096" lon="6.6991">
        <ele>367</ele>
        <time>2015-03-08T09:55:38.000Z</time>
      </trkpt>
      <trkpt lat="47.42096" lon="6.6991">
        <ele>367</ele>
        <time>2015-03-08T09:55:39.000Z</time>
      </trkpt>
      <trkpt lat="47.421" lon="6.69911">
        <ele>367</ele>
        <time>2015-03-08T09:56:24.000Z</time>
      </trkpt>
      <trkpt lat="47.421" lon="6.69911">
        <ele>367</ele>
        <time>2015-03-08T09:56:25.000Z</time>
      </trkpt>
      <trkpt lat="47.42097" lon="6.69915">
        <ele>367</ele>
        <time>2015-03-08T09:57:19.000Z</time>
      </trkpt>
      <trkpt lat="47.42096" lon="6.69916">
        <ele>368</ele>
        <time>2015-03-08T09:57:20.000Z</time>
      </trkpt>
      <trkpt lat="47.42092" lon="6.69914">
        <ele>368</ele>
        <time>2015-03-08T09:57:29.000Z</time>
      </trkpt>
      <trkpt lat="47.42091" lon="6.69914">
        <ele>368</ele>
        <time>2015-03-08T09:57:30.000Z</time>
      </trkpt>
      <trkpt lat="47.42088" lon="6.69914">
        <ele>369</ele>
        <time>2015-03-08T09:57:32.000Z</time>
      </trkpt>
      <trkpt lat="47.42086" lon="6.69915">
        <ele>369</ele>
        <time>2015-03-08T09:57:33.000Z</time>
      </trkpt>
      <trkpt lat="47.42084" lon="6.69915">
        <ele>370</ele>
        <time>2015-03-08T09:57:34.000Z</time>
      </trkpt>
      <trkpt lat="47.42081" lon="6.69916">
        <ele>370</ele>
        <time>2015-03-08T09:57:35.000Z</time>
      </trkpt>
      <trkpt lat="47.42079" lon="6.69917">
        <ele>369</ele>
        <time>2015-03-08T09:57:36.000Z</time>
      </trkpt>
      <trkpt lat="47.42076" lon="6.69917">
        <ele>372</ele>
        <time>2015-03-08T09:57:37.000Z</time>
      </trkpt>
      <trkpt lat="47.42074" lon="6.69918">
        <ele>373</ele>
        <time>2015-03-08T09:57:38.000Z</time>
      </trkpt>
      <trkpt lat="47.42071" lon="6.69918">
        <ele>373</ele>
        <time>2015-03-08T09:57:39.000Z</time>
      </trkpt>
      <trkpt lat="47.42069" lon="6.69919">
        <ele>374</ele>
        <time>2015-03-08T09:57:40.000Z</time>
      </trkpt>
      <trkpt lat="47.42067" lon="6.6992">
        <ele>374</ele>
        <time>2015-03-08T09:57:41.000Z</time>
      </trkpt>
      <trkpt lat="47.42064" lon="6.69921">
        <ele>374</ele>
        <time>2015-03-08T09:57:42.000Z</time>
      </trkpt>
      <trkpt lat="47.42061" lon="6.69922">
        <ele>375</ele>
        <time>2015-03-08T09:57:43.000Z</time>
      </trkpt>
      <trkpt lat="47.42059" lon="6.69922">
        <ele>375</ele>
        <time>2015-03-08T09:57:44.000Z</time>
      </trkpt>
      <trkpt lat="47.42056" lon="6.69923">
        <ele>375</ele>
        <time>2015-03-08T09:57:45.000Z</time>
      </trkpt>
      <trkpt lat="47.42053" lon="6.69923">
        <ele>375</ele>
        <time>2015-03-08T09:57:46.000Z</time>
      </trkpt>
      <trkpt lat="47.4205" lon="6.69923">
        <ele>376</ele>
        <time>2015-03-08T09:57:47.000Z</time>
      </trkpt>
      <trkpt lat="47.42047" lon="6.69923">
        <ele>376</ele>
        <time>2015-03-08T09:57:48.000Z</time>
      </trkpt>
      <trkpt lat="47.42045" lon="6.69922">
        <ele>376</ele>
        <time>2015-03-08T09:57:49.000Z</time>
      </trkpt>
      <trkpt lat="47.42042" lon="6.69922">
        <ele>376</ele>
        <time>2015-03-08T09:57:50.000Z</time>
      </trkpt>
      <trkpt lat="47.42039" lon="6.69921">
        <ele>376</ele>
        <time>2015-03-08T09:57:51.000Z</time>
      </trkpt>
      <trkpt lat="47.42036" lon="6.6992">
        <ele>376</ele>
        <time>2015-03-08T09:57:52.000Z</time>
      </trkpt>
      <trkpt lat="47.42031" lon="6.69921">
        <ele>376</ele>
        <time>2015-03-08T09:57:53.000Z</time>
      </trkpt>
      <trkpt lat="47.42027" lon="6.69922">
        <ele>376</ele>
        <time>2015-03-08T09:57:54.000Z</time>
      </trkpt>
      <trkpt lat="47.42022" lon="6.69922">
        <ele>375</ele>
        <time>2015-03-08T09:57:55.000Z</time>
      </trkpt>
      <trkpt lat="47.42018" lon="6.69922">
        <ele>375</ele>
        <time>2015-03-08T09:57:56.000Z</time>
      </trkpt>
      <trkpt lat="47.42014" lon="6.69923">
        <ele>374</ele>
        <time>2015-03-08T09:57:57.000Z</time>
      </trkpt>
      <trkpt lat="47.4201" lon="6.69924">
        <ele>374</ele>
        <time>2015-03-08T09:57:58.000Z</time>
      </trkpt>
      <trkpt lat="47.42006" lon="6.69924">
        <ele>374</ele>
        <time>2015-03-08T09:57:59.000Z</time>
      </trkpt>
      <trkpt lat="47.42002" lon="6.69925">
        <ele>373</ele>
        <time>2015-03-08T09:58:00.000Z</time>
      </trkpt>
      <trkpt lat="47.41999" lon="6.69925">
        <ele>373</ele>
        <time>2015-03-08T09:58:01.000Z</time>
      </trkpt>
      <trkpt lat="47.41995" lon="6.69926">
        <ele>373</ele>
        <time>2015-03-08T09:58:02.000Z</time>
      </trkpt>
      <trkpt lat="47.41992" lon="6.69926">
        <ele>373</ele>
        <time>2015-03-08T09:58:03.000Z</time>
      </trkpt>
      <trkpt lat="47.41988" lon="6.69927">
        <ele>374</ele>
        <time>2015-03-08T09:58:04.000Z</time>
      </trkpt>
      <trkpt lat="47.41984" lon="6.69927">
        <ele>374</ele>
        <time>2015-03-08T09:58:05.000Z</time>
      </trkpt>
      <trkpt lat="47.41979" lon="6.69928">
        <ele>374</ele>
        <time>2015-03-08T09:58:06.000Z</time>
      </trkpt>
      <trkpt lat="47.41975" lon="6.69928">
        <ele>375</ele>
        <time>2015-03-08T09:58:07.000Z</time>
      </trkpt>
      <trkpt lat="47.4197" lon="6.69929">
        <ele>375</ele>
        <time>2015-03-08T09:58:08.000Z</time>
      </trkpt>
      <trkpt lat="47.41966" lon="6.6993">
        <ele>375</ele>
        <time>2015-03-08T09:58:09.000Z</time>
      </trkpt>
      <trkpt lat="47.41961" lon="6.69931">
        <ele>375</ele>
        <time>2015-03-08T09:58:10.000Z</time>
      </trkpt>
      <trkpt lat="47.41957" lon="6.69932">
        <ele>374</ele>
        <time>2015-03-08T09:58:11.000Z</time>
      </trkpt>
      <trkpt lat="47.41953" lon="6.69933">
        <ele>374</ele>
        <time>2015-03-08T09:58:12.000Z</time>
      </trkpt>
      <trkpt lat="47.41949" lon="6.69934">
        <ele>374</ele>
        <time>2015-03-08T09:58:13.000Z</time>
      </trkpt>
      <trkpt lat="47.41945" lon="6.69935">
        <ele>374</ele>
        <time>2015-03-08T09:58:14.000Z</time>
      </trkpt>
      <trkpt lat="47.41941" lon="6.69937">
        <ele>374</ele>
        <time>2015-03-08T09:58:15.000Z</time>
      </trkpt>
      <trkpt lat="47.41937" lon="6.69938">
        <ele>373</ele>
        <time>2015-03-08T09:58:16.000Z</time>
      </trkpt>
      <trkpt lat="47.41933" lon="6.69939">
        <ele>373</ele>
        <time>2015-03-08T09:58:17.000Z</time>
      </trkpt>
      <trkpt lat="47.41929" lon="6.6994">
        <ele>373</ele>
        <time>2015-03-08T09:58:18.000Z</time>
      </trkpt>
      <trkpt lat="47.41925" lon="6.69941">
        <ele>373</ele>
        <time>2015-03-08T09:58:19.000Z</time>
      </trkpt>
      <trkpt lat="47.41921" lon="6.69942">
        <ele>373</ele>
        <time>2015-03-08T09:58:20.000Z</time>
      </trkpt>
      <trkpt lat="47.41917" lon="6.69943">
        <ele>373</ele>
        <time>2015-03-08T09:58:21.000Z</time>
      </trkpt>
      <trkpt lat="47.41913" lon="6.69944">
        <ele>369</ele>
        <time>2015-03-08T09:58:22.000Z</time>
      </trkpt>
      <trkpt lat="47.41908" lon="6.69948">
        <ele>369</ele>
        <time>2015-03-08T09:58:23.000Z</time>
      </trkpt>
      <trkpt lat="47.41902" lon="6.69949">
        <ele>369</ele>
        <time>2015-03-08T09:58:24.000Z</time>
      </trkpt>
      <trkpt lat="47.41898" lon="6.6995">
        <ele>370</ele>
        <time>2015-03-08T09:58:25.000Z</time>
      </trkpt>
      <trkpt lat="47.41893" lon="6.69953">
        <ele>370</ele>
        <time>2015-03-08T09:58:26.000Z</time>
      </trkpt>
      <trkpt lat="47.4189" lon="6.69956">
        <ele>370</ele>
        <time>2015-03-08T09:58:27.000Z</time>
      </trkpt>
      <trkpt lat="47.41885" lon="6.69959">
        <ele>370</ele>
        <time>2015-03-08T09:58:28.000Z</time>
      </trkpt>
      <trkpt lat="47.4188" lon="6.69961">
        <ele>370</ele>
        <time>2015-03-08T09:58:29.000Z</time>
      </trkpt>
      <trkpt lat="47.41876" lon="6.69962">
        <ele>370</ele>
        <time>2015-03-08T09:58:30.000Z</time>
      </trkpt>
      <trkpt lat="47.41872" lon="6.69963">
        <ele>370</ele>
        <time>2015-03-08T09:58:31.000Z</time>
      </trkpt>
      <trkpt lat="47.41866" lon="6.69966">
        <ele>370</ele>
        <time>2015-03-08T09:58:32.000Z</time>
      </trkpt>
      <trkpt lat="47.41859" lon="6.6997">
        <ele>370</ele>
        <time>2015-03-08T09:58:33.000Z</time>
      </trkpt>
      <trkpt lat="47.41853" lon="6.69974">
        <ele>370</ele>
        <time>2015-03-08T09:58:34.000Z</time>
      </trkpt>
      <trkpt lat="47.41849" lon="6.69979">
        <ele>370</ele>
        <time>2015-03-08T09:58:35.000Z</time>
      </trkpt>
      <trkpt lat="47.41844" lon="6.6998">
        <ele>370</ele>
        <time>2015-03-08T09:58:36.000Z</time>
      </trkpt>
      <trkpt lat="47.41838" lon="6.69983">
        <ele>370</ele>
        <time>2015-03-08T09:58:37.000Z</time>
      </trkpt>
      <trkpt lat="47.41834" lon="6.69983">
        <ele>370</ele>
        <time>2015-03-08T09:58:38.000Z</time>
      </trkpt>
      <trkpt lat="47.41828" lon="6.69985">
        <ele>369</ele>
        <time>2015-03-08T09:58:39.000Z</time>
      </trkpt>
      <trkpt lat="47.41822" lon="6.69984">
        <ele>368</ele>
        <time>2015-03-08T09:58:40.000Z</time>
      </trkpt>
      <trkpt lat="47.41816" lon="6.69983">
        <ele>368</ele>
        <time>2015-03-08T09:58:41.000Z</time>
      </trkpt>
      <trkpt lat="47.41809" lon="6.69983">
        <ele>368</ele>
        <time>2015-03-08T09:58:42.000Z</time>
      </trkpt>
      <trkpt lat="47.41805" lon="6.69983">
        <ele>368</ele>
        <time>2015-03-08T09:58:43.000Z</time>
      </trkpt>
      <trkpt lat="47.418" lon="6.69985">
        <ele>368</ele>
        <time>2015-03-08T09:58:44.000Z</time>
      </trkpt>
      <trkpt lat="47.41795" lon="6.69985">
        <ele>368</ele>
        <time>2015-03-08T09:58:45.000Z</time>
      </trkpt>
      <trkpt lat="47.4179" lon="6.69985">
        <ele>368</ele>
        <time>2015-03-08T09:58:46.000Z</time>
      </trkpt>
      <trkpt lat="47.41784" lon="6.69984">
        <ele>368</ele>
        <time>2015-03-08T09:58:47.000Z</time>
      </trkpt>
      <trkpt lat="47.41779" lon="6.69984">
        <ele>369</ele>
        <time>2015-03-08T09:58:48.000Z</time>
      </trkpt>
      <trkpt lat="47.41775" lon="6.69986">
        <ele>369</ele>
        <time>2015-03-08T09:58:49.000Z</time>
      </trkpt>
      <trkpt lat="47.41769" lon="6.69988">
        <ele>369</ele>
        <time>2015-03-08T09:58:50.000Z</time>
      </trkpt>
      <trkpt lat="47.41764" lon="6.69988">
        <ele>370</ele>
        <time>2015-03-08T09:58:51.000Z</time>
      </trkpt>
      <trkpt lat="47.41758" lon="6.69988">
        <ele>370</ele>
        <time>2015-03-08T09:58:52.000Z</time>
      </trkpt>
      <trkpt lat="47.41753" lon="6.6999">
        <ele>370</ele>
        <time>2015-03-08T09:58:53.000Z</time>
      </trkpt>
      <trkpt lat="47.41748" lon="6.6999">
        <ele>370</ele>
        <time>2015-03-08T09:58:54.000Z</time>
      </trkpt>
      <trkpt lat="47.41743" lon="6.69989">
        <ele>370</ele>
        <time>2015-03-08T09:58:55.000Z</time>
      </trkpt>
      <trkpt lat="47.41738" lon="6.69988">
        <ele>370</ele>
        <time>2015-03-08T09:58:56.000Z</time>
      </trkpt>
      <trkpt lat="47.41732" lon="6.69989">
        <ele>370</ele>
        <time>2015-03-08T09:58:57.000Z</time>
      </trkpt>
      <trkpt lat="47.41726" lon="6.6999">
        <ele>369</ele>
        <time>2015-03-08T09:58:58.000Z</time>
      </trkpt>
      <trkpt lat="47.4172" lon="6.6999">
        <ele>369</ele>
        <time>2015-03-08T09:58:59.000Z</time>
      </trkpt>
      <trkpt lat="47.41715" lon="6.69991">
        <ele>369</ele>
        <time>2015-03-08T09:59:00.000Z</time>
      </trkpt>
      <trkpt lat="47.41709" lon="6.69993">
        <ele>369</ele>
        <time>2015-03-08T09:59:01.000Z</time>
      </trkpt>
      <trkpt lat="47.41704" lon="6.69995">
        <ele>369</ele>
        <time>2015-03-08T09:59:02.000Z</time>
      </trkpt>
      <trkpt lat="47.41699" lon="6.69997">
        <ele>369</ele>
        <time>2015-03-08T09:59:03.000Z</time>
      </trkpt>
      <trkpt lat="47.41694" lon="6.7">
        <ele>369</ele>
        <time>2015-03-08T09:59:04.000Z</time>
      </trkpt>
      <trkpt lat="47.41691" lon="6.70004">
        <ele>378</ele>
        <time>2015-03-08T09:59:05.000Z</time>
      </trkpt>
      <trkpt lat="47.41687" lon="6.70009">
        <ele>378</ele>
        <time>2015-03-08T09:59:06.000Z</time>
      </trkpt>
      <trkpt lat="47.41683" lon="6.70014">
        <ele>378</ele>
        <time>2015-03-08T09:59:07.000Z</time>
      </trkpt>
      <trkpt lat="47.41678" lon="6.70018">
        <ele>378</ele>
        <time>2015-03-08T09:59:08.000Z</time>
      </trkpt>
      <trkpt lat="47.41676" lon="6.70022">
        <ele>379</ele>
        <time>2015-03-08T09:59:09.000Z</time>
      </trkpt>
      <trkpt lat="47.41669" lon="6.70021">
        <ele>378</ele>
        <time>2015-03-08T09:59:10.000Z</time>
      </trkpt>
      <trkpt lat="47.41664" lon="6.70024">
        <ele>376</ele>
        <time>2015-03-08T09:59:11.000Z</time>
      </trkpt>
      <trkpt lat="47.4166" lon="6.70027">
        <ele>377</ele>
        <time>2015-03-08T09:59:12.000Z</time>
      </trkpt>
      <trkpt lat="47.41655" lon="6.70031">
        <ele>377</ele>
        <time>2015-03-08T09:59:13.000Z</time>
      </trkpt>
      <trkpt lat="47.41651" lon="6.70033">
        <ele>378</ele>
        <time>2015-03-08T09:59:14.000Z</time>
      </trkpt>
      <trkpt lat="47.41648" lon="6.70036">
        <ele>378</ele>
        <time>2015-03-08T09:59:15.000Z</time>
      </trkpt>
      <trkpt lat="47.41644" lon="6.70038">
        <ele>378</ele>
        <time>2015-03-08T09:59:16.001Z</time>
      </trkpt>
      <trkpt lat="47.4164" lon="6.70039">
        <ele>378</ele>
        <time>2015-03-08T09:59:17.000Z</time>
      </trkpt>
      <trkpt lat="47.41637" lon="6.70044">
        <ele>379</ele>
        <time>2015-03-08T09:59:18.000Z</time>
      </trkpt>
      <trkpt lat="47.41634" lon="6.70049">
        <ele>379</ele>
        <time>2015-03-08T09:59:19.000Z</time>
      </trkpt>
      <trkpt lat="47.41631" lon="6.70051">
        <ele>380</ele>
        <time>2015-03-08T09:59:20.000Z</time>
      </trkpt>
      <trkpt lat="47.41627" lon="6.70055">
        <ele>380</ele>
        <time>2015-03-08T09:59:21.000Z</time>
      </trkpt>
      <trkpt lat="47.41624" lon="6.70057">
        <ele>380</ele>
        <time>2015-03-08T09:59:22.000Z</time>
      </trkpt>
      <trkpt lat="47.41619" lon="6.7006">
        <ele>380</ele>
        <time>2015-03-08T09:59:23.000Z</time>
      </trkpt>
      <trkpt lat="47.41616" lon="6.70064">
        <ele>380</ele>
        <time>2015-03-08T09:59:24.000Z</time>
      </trkpt>
      <trkpt lat="47.41612" lon="6.70068">
        <ele>380</ele>
        <time>2015-03-08T09:59:25.000Z</time>
      </trkpt>
      <trkpt lat="47.41608" lon="6.70071">
        <ele>380</ele>
        <time>2015-03-08T09:59:26.000Z</time>
      </trkpt>
      <trkpt lat="47.41603" lon="6.70072">
        <ele>380</ele>
        <time>2015-03-08T09:59:27.000Z</time>
      </trkpt>
      <trkpt lat="47.416" lon="6.70075">
        <ele>380</ele>
        <time>2015-03-08T09:59:28.000Z</time>
      </trkpt>
      <trkpt lat="47.41597" lon="6.70079">
        <ele>381</ele>
        <time>2015-03-08T09:59:29.000Z</time>
      </trkpt>
      <trkpt lat="47.41594" lon="6.70082">
        <ele>381</ele>
        <time>2015-03-08T09:59:30.000Z</time>
      </trkpt>
      <trkpt lat="47.41592" lon="6.70084">
        <ele>386</ele>
        <time>2015-03-08T09:59:31.000Z</time>
      </trkpt>
      <trkpt lat="47.41588" lon="6.70086">
        <ele>385</ele>
        <time>2015-03-08T09:59:32.000Z</time>
      </trkpt>
      <trkpt lat="47.41585" lon="6.7009">
        <ele>386</ele>
        <time>2015-03-08T09:59:33.000Z</time>
      </trkpt>
      <trkpt lat="47.41581" lon="6.70094">
        <ele>382</ele>
        <time>2015-03-08T09:59:34.000Z</time>
      </trkpt>
      <trkpt lat="47.41579" lon="6.70099">
        <ele>382</ele>
        <time>2015-03-08T09:59:35.000Z</time>
      </trkpt>
      <trkpt lat="47.41576" lon="6.70104">
        <ele>383</ele>
        <time>2015-03-08T09:59:36.000Z</time>
      </trkpt>
      <trkpt lat="47.41573" lon="6.70108">
        <ele>383</ele>
        <time>2015-03-08T09:59:37.000Z</time>
      </trkpt>
      <trkpt lat="47.4157" lon="6.70112">
        <ele>383</ele>
        <time>2015-03-08T09:59:38.000Z</time>
      </trkpt>
      <trkpt lat="47.41567" lon="6.70115">
        <ele>383</ele>
        <time>2015-03-08T09:59:39.000Z</time>
      </trkpt>
      <trkpt lat="47.41565" lon="6.70119">
        <ele>384</ele>
        <time>2015-03-08T09:59:40.000Z</time>
      </trkpt>
      <trkpt lat="47.41561" lon="6.70124">
        <ele>384</ele>
        <time>2015-03-08T09:59:41.000Z</time>
      </trkpt>
      <trkpt lat="47.41559" lon="6.70128">
        <ele>384</ele>
        <time>2015-03-08T09:59:42.000Z</time>
      </trkpt>
      <trkpt lat="47.41556" lon="6.70131">
        <ele>384</ele>
        <time>2015-03-08T09:59:43.000Z</time>
      </trkpt>
      <trkpt lat="47.41551" lon="6.70135">
        <ele>384</ele>
        <time>2015-03-08T09:59:44.000Z</time>
      </trkpt>
      <trkpt lat="47.41547" lon="6.7014">
        <ele>384</ele>
        <time>2015-03-08T09:59:45.000Z</time>
      </trkpt>
      <trkpt lat="47.41543" lon="6.70145">
        <ele>384</ele>
        <time>2015-03-08T09:59:46.000Z</time>
      </trkpt>
      <trkpt lat="47.4154" lon="6.70151">
        <ele>384</ele>
        <time>2015-03-08T09:59:47.000Z</time>
      </trkpt>
      <trkpt lat="47.41535" lon="6.70153">
        <ele>383</ele>
        <time>2015-03-08T09:59:48.000Z</time>
      </trkpt>
      <trkpt lat="47.41531" lon="6.70156">
        <ele>383</ele>
        <time>2015-03-08T09:59:49.000Z</time>
      </trkpt>
      <trkpt lat="47.41526" lon="6.7016">
        <ele>382</ele>
        <time>2015-03-08T09:59:50.000Z</time>
      </trkpt>
      <trkpt lat="47.4152" lon="6.70163">
        <ele>382</ele>
        <time>2015-03-08T09:59:51.000Z</time>
      </trkpt>
      <trkpt lat="47.41515" lon="6.70165">
        <ele>381</ele>
        <time>2015-03-08T09:59:52.000Z</time>
      </trkpt>
      <trkpt lat="47.41509" lon="6.70167">
        <ele>381</ele>
        <time>2015-03-08T09:59:53.000Z</time>
      </trkpt>
      <trkpt lat="47.41504" lon="6.70169">
        <ele>383</ele>
        <time>2015-03-08T09:59:54.000Z</time>
      </trkpt>
      <trkpt lat="47.41499" lon="6.7017">
        <ele>380</ele>
        <time>2015-03-08T09:59:55.000Z</time>
      </trkpt>
      <trkpt lat="47.41494" lon="6.70173">
        <ele>380</ele>
        <time>2015-03-08T09:59:56.000Z</time>
      </trkpt>
      <trkpt lat="47.41489" lon="6.70173">
        <ele>380</ele>
        <time>2015-03-08T09:59:57.000Z</time>
      </trkpt>
      <trkpt lat="47.41484" lon="6.70174">
        <ele>380</ele>
        <time>2015-03-08T09:59:58.000Z</time>
      </trkpt>
      <trkpt lat="47.41479" lon="6.70177">
        <ele>380</ele>
        <time>2015-03-08T09:59:59.000Z</time>
      </trkpt>
      <trkpt lat="47.41474" lon="6.70179">
        <ele>380</ele>
        <time>2015-03-08T10:00:00.000Z</time>
      </trkpt>
      <trkpt lat="47.41466" lon="6.70183">
        <ele>379</ele>
        <time>2015-03-08T10:00:01.000Z</time>
      </trkpt>
      <trkpt lat="47.4146" lon="6.70185">
        <ele>379</ele>
        <time>2015-03-08T10:00:02.000Z</time>
      </trkpt>
      <trkpt lat="47.41455" lon="6.7019">
        <ele>378</ele>
        <time>2015-03-08T10:00:03.000Z</time>
      </trkpt>
      <trkpt lat="47.4145" lon="6.70194">
        <ele>378</ele>
        <time>2015-03-08T10:00:04.000Z</time>
      </trkpt>
      <trkpt lat="47.41442" lon="6.702">
        <ele>378</ele>
        <time>2015-03-08T10:00:05.000Z</time>
      </trkpt>
      <trkpt lat="47.41436" lon="6.70206">
        <ele>378</ele>
        <time>2015-03-08T10:00:06.000Z</time>
      </trkpt>
      <trkpt lat="47.4143" lon="6.70215">
        <ele>378</ele>
        <time>2015-03-08T10:00:07.000Z</time>
      </trkpt>
      <trkpt lat="47.41424" lon="6.70224">
        <ele>378</ele>
        <time>2015-03-08T10:00:08.000Z</time>
      </trkpt>
      <trkpt lat="47.41421" lon="6.70236">
        <ele>378</ele>
        <time>2015-03-08T10:00:09.000Z</time>
      </trkpt>
      <trkpt lat="47.41417" lon="6.70244">
        <ele>377</ele>
        <time>2015-03-08T10:00:10.000Z</time>
      </trkpt>
      <trkpt lat="47.41411" lon="6.70254">
        <ele>376</ele>
        <time>2015-03-08T10:00:11.000Z</time>
      </trkpt>
      <trkpt lat="47.41405" lon="6.70262">
        <ele>377</ele>
        <time>2015-03-08T10:00:12.000Z</time>
      </trkpt>
      <trkpt lat="47.41401" lon="6.70271">
        <ele>377</ele>
        <time>2015-03-08T10:00:13.000Z</time>
      </trkpt>
      <trkpt lat="47.41398" lon="6.70279">
        <ele>377</ele>
        <time>2015-03-08T10:00:14.000Z</time>
      </trkpt>
      <trkpt lat="47.41393" lon="6.70288">
        <ele>378</ele>
        <time>2015-03-08T10:00:15.000Z</time>
      </trkpt>
      <trkpt lat="47.4139" lon="6.70294">
        <ele>378</ele>
        <time>2015-03-08T10:00:16.000Z</time>
      </trkpt>
      <trkpt lat="47.41387" lon="6.70301">
        <ele>378</ele>
        <time>2015-03-08T10:00:17.000Z</time>
      </trkpt>
      <trkpt lat="47.41384" lon="6.70307">
        <ele>379</ele>
        <time>2015-03-08T10:00:18.000Z</time>
      </trkpt>
      <trkpt lat="47.41377" lon="6.70313">
        <ele>379</ele>
        <time>2015-03-08T10:00:19.000Z</time>
      </trkpt>
      <trkpt lat="47.41372" lon="6.7032">
        <ele>378</ele>
        <time>2015-03-08T10:00:20.000Z</time>
      </trkpt>
      <trkpt lat="47.41368" lon="6.70325">
        <ele>378</ele>
        <time>2015-03-08T10:00:21.000Z</time>
      </trkpt>
      <trkpt lat="47.41363" lon="6.70331">
        <ele>378</ele>
        <time>2015-03-08T10:00:22.000Z</time>
      </trkpt>
      <trkpt lat="47.41359" lon="6.70337">
        <ele>386</ele>
        <time>2015-03-08T10:00:23.000Z</time>
      </trkpt>
      <trkpt lat="47.41354" lon="6.70344">
        <ele>386</ele>
        <time>2015-03-08T10:00:24.000Z</time>
      </trkpt>
      <trkpt lat="47.4135" lon="6.70351">
        <ele>386</ele>
        <time>2015-03-08T10:00:25.000Z</time>
      </trkpt>
      <trkpt lat="47.41347" lon="6.70358">
        <ele>387</ele>
        <time>2015-03-08T10:00:26.000Z</time>
      </trkpt>
      <trkpt lat="47.41345" lon="6.70362">
        <ele>388</ele>
        <time>2015-03-08T10:00:27.000Z</time>
      </trkpt>
      <trkpt lat="47.41342" lon="6.70367">
        <ele>389</ele>
        <time>2015-03-08T10:00:28.000Z</time>
      </trkpt>
      <trkpt lat="47.41337" lon="6.70374">
        <ele>390</ele>
        <time>2015-03-08T10:00:29.000Z</time>
      </trkpt>
      <trkpt lat="47.41335" lon="6.70376">
        <ele>390</ele>
        <time>2015-03-08T10:00:30.000Z</time>
      </trkpt>
      <trkpt lat="47.41333" lon="6.70378">
        <ele>384</ele>
        <time>2015-03-08T10:00:31.000Z</time>
      </trkpt>
      <trkpt lat="47.4133" lon="6.70378">
        <ele>384</ele>
        <time>2015-03-08T10:00:32.000Z</time>
      </trkpt>
      <trkpt lat="47.41328" lon="6.70379">
        <ele>384</ele>
        <time>2015-03-08T10:00:33.000Z</time>
      </trkpt>
      <trkpt lat="47.41324" lon="6.70385">
        <ele>384</ele>
        <time>2015-03-08T10:00:34.000Z</time>
      </trkpt>
      <trkpt lat="47.41322" lon="6.70389">
        <ele>385</ele>
        <time>2015-03-08T10:00:35.000Z</time>
      </trkpt>
      <trkpt lat="47.41317" lon="6.70397">
        <ele>386</ele>
        <time>2015-03-08T10:00:36.000Z</time>
      </trkpt>
      <trkpt lat="47.41313" lon="6.704">
        <ele>386</ele>
        <time>2015-03-08T10:00:37.000Z</time>
      </trkpt>
      <trkpt lat="47.4131" lon="6.70402">
        <ele>385</ele>
        <time>2015-03-08T10:00:38.000Z</time>
      </trkpt>
      <trkpt lat="47.41309" lon="6.70405">
        <ele>385</ele>
        <time>2015-03-08T10:00:39.000Z</time>
      </trkpt>
      <trkpt lat="47.41307" lon="6.70411">
        <ele>385</ele>
        <time>2015-03-08T10:00:40.000Z</time>
      </trkpt>
      <trkpt lat="47.41303" lon="6.70413">
        <ele>385</ele>
        <time>2015-03-08T10:00:41.000Z</time>
      </trkpt>
      <trkpt lat="47.41301" lon="6.70416">
        <ele>385</ele>
        <time>2015-03-08T10:00:42.000Z</time>
      </trkpt>
      <trkpt lat="47.41298" lon="6.70418">
        <ele>391</ele>
        <time>2015-03-08T10:00:43.000Z</time>
      </trkpt>
      <trkpt lat="47.41294" lon="6.70424">
        <ele>391</ele>
        <time>2015-03-08T10:00:44.000Z</time>
      </trkpt>
      <trkpt lat="47.4129" lon="6.70426">
        <ele>391</ele>
        <time>2015-03-08T10:00:45.000Z</time>
      </trkpt>
      <trkpt lat="47.41288" lon="6.70429">
        <ele>391</ele>
        <time>2015-03-08T10:00:46.000Z</time>
      </trkpt>
      <trkpt lat="47.41286" lon="6.70432">
        <ele>390</ele>
        <time>2015-03-08T10:00:47.000Z</time>
      </trkpt>
      <trkpt lat="47.41283" lon="6.70434">
        <ele>390</ele>
        <time>2015-03-08T10:00:48.000Z</time>
      </trkpt>
      <trkpt lat="47.41281" lon="6.70437">
        <ele>390</ele>
        <time>2015-03-08T10:00:49.000Z</time>
      </trkpt>
      <trkpt lat="47.41278" lon="6.70441">
        <ele>390</ele>
        <time>2015-03-08T10:00:50.000Z</time>
      </trkpt>
      <trkpt lat="47.41276" lon="6.70445">
        <ele>390</ele>
        <time>2015-03-08T10:00:51.000Z</time>
      </trkpt>
      <trkpt lat="47.41274" lon="6.70449">
        <ele>390</ele>
        <time>2015-03-08T10:00:52.000Z</time>
      </trkpt>
      <trkpt lat="47.41272" lon="6.70454">
        <ele>391</ele>
        <time>2015-03-08T10:00:53.000Z</time>
      </trkpt>
      <trkpt lat="47.41271" lon="6.70459">
        <ele>391</ele>
        <time>2015-03-08T10:00:54.000Z</time>
      </trkpt>
      <trkpt lat="47.41269" lon="6.70463">
        <ele>391</ele>
        <time>2015-03-08T10:00:55.000Z</time>
      </trkpt>
      <trkpt lat="47.41266" lon="6.70466">
        <ele>391</ele>
        <time>2015-03-08T10:00:56.000Z</time>
      </trkpt>
      <trkpt lat="47.41263" lon="6.70469">
        <ele>391</ele>
        <time>2015-03-08T10:00:57.000Z</time>
      </trkpt>
      <trkpt lat="47.41261" lon="6.70471">
        <ele>391</ele>
        <time>2015-03-08T10:00:58.000Z</time>
      </trkpt>
      <trkpt lat="47.41259" lon="6.70474">
        <ele>391</ele>
        <time>2015-03-08T10:00:59.000Z</time>
      </trkpt>
      <trkpt lat="47.41257" lon="6.70478">
        <ele>391</ele>
        <time>2015-03-08T10:01:00.000Z</time>
      </trkpt>
      <trkpt lat="47.41256" lon="6.70483">
        <ele>391</ele>
        <time>2015-03-08T10:01:01.000Z</time>
      </trkpt>
      <trkpt lat="47.41255" lon="6.70488">
        <ele>391</ele>
        <time>2015-03-08T10:01:02.000Z</time>
      </trkpt>
      <trkpt lat="47.41253" lon="6.70493">
        <ele>391</ele>
        <time>2015-03-08T10:01:03.000Z</time>
      </trkpt>
      <trkpt lat="47.41251" lon="6.70497">
        <ele>390</ele>
        <time>2015-03-08T10:01:04.000Z</time>
      </trkpt>
      <trkpt lat="47.4125" lon="6.705">
        <ele>390</ele>
        <time>2015-03-08T10:01:05.000Z</time>
      </trkpt>
      <trkpt lat="47.41248" lon="6.70503">
        <ele>391</ele>
        <time>2015-03-08T10:01:06.000Z</time>
      </trkpt>
      <trkpt lat="47.41247" lon="6.70505">
        <ele>391</ele>
        <time>2015-03-08T10:01:07.000Z</time>
      </trkpt>
      <trkpt lat="47.41245" lon="6.70509">
        <ele>392</ele>
        <time>2015-03-08T10:01:08.000Z</time>
      </trkpt>
      <trkpt lat="47.41244" lon="6.70512">
        <ele>392</ele>
        <time>2015-03-08T10:01:09.000Z</time>
      </trkpt>
      <trkpt lat="47.41243" lon="6.70516">
        <ele>393</ele>
        <time>2015-03-08T10:01:10.000Z</time>
      </trkpt>
      <trkpt lat="47.41241" lon="6.7052">
        <ele>393</ele>
        <time>2015-03-08T10:01:11.000Z</time>
      </trkpt>
      <trkpt lat="47.41239" lon="6.70524">
        <ele>394</ele>
        <time>2015-03-08T10:01:12.000Z</time>
      </trkpt>
      <trkpt lat="47.41237" lon="6.70529">
        <ele>394</ele>
        <time>2015-03-08T10:01:13.000Z</time>
      </trkpt>
      <trkpt lat="47.41235" lon="6.70534">
        <ele>395</ele>
        <time>2015-03-08T10:01:14.000Z</time>
      </trkpt>
      <trkpt lat="47.41232" lon="6.70538">
        <ele>395</ele>
        <time>2015-03-08T10:01:15.000Z</time>
      </trkpt>
      <trkpt lat="47.41229" lon="6.70543">
        <ele>396</ele>
        <time>2015-03-08T10:01:16.000Z</time>
      </trkpt>
      <trkpt lat="47.41226" lon="6.70547">
        <ele>396</ele>
        <time>2015-03-08T10:01:17.000Z</time>
      </trkpt>
      <trkpt lat="47.41223" lon="6.70552">
        <ele>396</ele>
        <time>2015-03-08T10:01:18.000Z</time>
      </trkpt>
      <trkpt lat="47.41221" lon="6.70556">
        <ele>396</ele>
        <time>2015-03-08T10:01:19.000Z</time>
      </trkpt>
      <trkpt lat="47.41218" lon="6.70563">
        <ele>397</ele>
        <time>2015-03-08T10:01:20.000Z</time>
      </trkpt>
      <trkpt lat="47.41215" lon="6.7057">
        <ele>397</ele>
        <time>2015-03-08T10:01:21.000Z</time>
      </trkpt>
      <trkpt lat="47.41212" lon="6.70578">
        <ele>397</ele>
        <time>2015-03-08T10:01:22.000Z</time>
      </trkpt>
      <trkpt lat="47.4121" lon="6.70586">
        <ele>401</ele>
        <time>2015-03-08T10:01:23.000Z</time>
      </trkpt>
      <trkpt lat="47.41208" lon="6.70593">
        <ele>401</ele>
        <time>2015-03-08T10:01:24.000Z</time>
      </trkpt>
      <trkpt lat="47.41206" lon="6.706">
        <ele>402</ele>
        <time>2015-03-08T10:01:25.000Z</time>
      </trkpt>
      <trkpt lat="47.41204" lon="6.70606">
        <ele>402</ele>
        <time>2015-03-08T10:01:26.000Z</time>
      </trkpt>
      <trkpt lat="47.41203" lon="6.70612">
        <ele>402</ele>
        <time>2015-03-08T10:01:27.000Z</time>
      </trkpt>
      <trkpt lat="47.41202" lon="6.70617">
        <ele>402</ele>
        <time>2015-03-08T10:01:28.000Z</time>
      </trkpt>
      <trkpt lat="47.412" lon="6.70623">
        <ele>402</ele>
        <time>2015-03-08T10:01:29.000Z</time>
      </trkpt>
      <trkpt lat="47.41199" lon="6.70628">
        <ele>402</ele>
        <time>2015-03-08T10:01:30.000Z</time>
      </trkpt>
      <trkpt lat="47.41197" lon="6.70633">
        <ele>402</ele>
        <time>2015-03-08T10:01:31.000Z</time>
      </trkpt>
      <trkpt lat="47.41196" lon="6.70637">
        <ele>402</ele>
        <time>2015-03-08T10:01:32.000Z</time>
      </trkpt>
      <trkpt lat="47.41194" lon="6.70639">
        <ele>402</ele>
        <time>2015-03-08T10:01:33.000Z</time>
      </trkpt>
      <trkpt lat="47.41193" lon="6.70642">
        <ele>402</ele>
        <time>2015-03-08T10:01:34.000Z</time>
      </trkpt>
      <trkpt lat="47.41192" lon="6.70646">
        <ele>402</ele>
        <time>2015-03-08T10:01:35.000Z</time>
      </trkpt>
      <trkpt lat="47.41191" lon="6.7065">
        <ele>402</ele>
        <time>2015-03-08T10:01:36.000Z</time>
      </trkpt>
      <trkpt lat="47.41189" lon="6.70656">
        <ele>402</ele>
        <time>2015-03-08T10:01:37.000Z</time>
      </trkpt>
      <trkpt lat="47.41188" lon="6.70661">
        <ele>401</ele>
        <time>2015-03-08T10:01:38.000Z</time>
      </trkpt>
      <trkpt lat="47.41186" lon="6.70666">
        <ele>401</ele>
        <time>2015-03-08T10:01:39.000Z</time>
      </trkpt>
      <trkpt lat="47.41184" lon="6.70672">
        <ele>405</ele>
        <time>2015-03-08T10:01:40.000Z</time>
      </trkpt>
      <trkpt lat="47.41182" lon="6.70677">
        <ele>405</ele>
        <time>2015-03-08T10:01:41.000Z</time>
      </trkpt>
      <trkpt lat="47.4118" lon="6.70682">
        <ele>405</ele>
        <time>2015-03-08T10:01:42.000Z</time>
      </trkpt>
      <trkpt lat="47.41178" lon="6.70687">
        <ele>406</ele>
        <time>2015-03-08T10:01:43.000Z</time>
      </trkpt>
      <trkpt lat="47.41175" lon="6.70692">
        <ele>406</ele>
        <time>2015-03-08T10:01:44.000Z</time>
      </trkpt>
      <trkpt lat="47.41172" lon="6.70697">
        <ele>407</ele>
        <time>2015-03-08T10:01:45.000Z</time>
      </trkpt>
      <trkpt lat="47.41169" lon="6.70701">
        <ele>407</ele>
        <time>2015-03-08T10:01:46.000Z</time>
      </trkpt>
      <trkpt lat="47.41166" lon="6.70706">
        <ele>401</ele>
        <time>2015-03-08T10:01:47.000Z</time>
      </trkpt>
      <trkpt lat="47.41163" lon="6.7071">
        <ele>401</ele>
        <time>2015-03-08T10:01:48.000Z</time>
      </trkpt>
      <trkpt lat="47.4116" lon="6.70714">
        <ele>401</ele>
        <time>2015-03-08T10:01:49.000Z</time>
      </trkpt>
      <trkpt lat="47.41158" lon="6.70718">
        <ele>402</ele>
        <time>2015-03-08T10:01:50.000Z</time>
      </trkpt>
      <trkpt lat="47.41155" lon="6.70722">
        <ele>402</ele>
        <time>2015-03-08T10:01:51.000Z</time>
      </trkpt>
      <trkpt lat="47.41152" lon="6.70726">
        <ele>402</ele>
        <time>2015-03-08T10:01:52.000Z</time>
      </trkpt>
      <trkpt lat="47.41149" lon="6.7073">
        <ele>402</ele>
        <time>2015-03-08T10:01:53.000Z</time>
      </trkpt>
      <trkpt lat="47.41145" lon="6.70734">
        <ele>402</ele>
        <time>2015-03-08T10:01:54.000Z</time>
      </trkpt>
      <trkpt lat="47.41142" lon="6.7074">
        <ele>402</ele>
        <time>2015-03-08T10:01:55.000Z</time>
      </trkpt>
      <trkpt lat="47.41139" lon="6.70745">
        <ele>402</ele>
        <time>2015-03-08T10:01:56.000Z</time>
      </trkpt>
      <trkpt lat="47.41137" lon="6.70752">
        <ele>400</ele>
        <time>2015-03-08T10:01:57.000Z</time>
      </trkpt>
      <trkpt lat="47.41134" lon="6.70758">
        <ele>400</ele>
        <time>2015-03-08T10:01:58.000Z</time>
      </trkpt>
      <trkpt lat="47.41131" lon="6.70765">
        <ele>400</ele>
        <time>2015-03-08T10:01:59.000Z</time>
      </trkpt>
      <trkpt lat="47.41128" lon="6.70772">
        <ele>400</ele>
        <time>2015-03-08T10:02:00.000Z</time>
      </trkpt>
      <trkpt lat="47.41125" lon="6.70779">
        <ele>400</ele>
        <time>2015-03-08T10:02:01.000Z</time>
      </trkpt>
      <trkpt lat="47.41122" lon="6.70786">
        <ele>399</ele>
        <time>2015-03-08T10:02:02.000Z</time>
      </trkpt>
      <trkpt lat="47.4112" lon="6.70792">
        <ele>399</ele>
        <time>2015-03-08T10:02:03.000Z</time>
      </trkpt>
      <trkpt lat="47.41117" lon="6.70798">
        <ele>399</ele>
        <time>2015-03-08T10:02:04.000Z</time>
      </trkpt>
      <trkpt lat="47.41115" lon="6.70804">
        <ele>398</ele>
        <time>2015-03-08T10:02:05.000Z</time>
      </trkpt>
      <trkpt lat="47.41112" lon="6.70811">
        <ele>398</ele>
        <time>2015-03-08T10:02:06.000Z</time>
      </trkpt>
      <trkpt lat="47.41109" lon="6.70818">
        <ele>397</ele>
        <time>2015-03-08T10:02:07.000Z</time>
      </trkpt>
      <trkpt lat="47.41107" lon="6.70825">
        <ele>396</ele>
        <time>2015-03-08T10:02:08.000Z</time>
      </trkpt>
      <trkpt lat="47.41104" lon="6.70832">
        <ele>395</ele>
        <time>2015-03-08T10:02:09.000Z</time>
      </trkpt>
      <trkpt lat="47.41101" lon="6.70839">
        <ele>395</ele>
        <time>2015-03-08T10:02:10.000Z</time>
      </trkpt>
      <trkpt lat="47.411" lon="6.70845">
        <ele>396</ele>
        <time>2015-03-08T10:02:11.000Z</time>
      </trkpt>
      <trkpt lat="47.411" lon="6.70851">
        <ele>396</ele>
        <time>2015-03-08T10:02:12.000Z</time>
      </trkpt>
      <trkpt lat="47.41099" lon="6.70856">
        <ele>397</ele>
        <time>2015-03-08T10:02:13.000Z</time>
      </trkpt>
      <trkpt lat="47.41099" lon="6.70862">
        <ele>398</ele>
        <time>2015-03-08T10:02:14.000Z</time>
      </trkpt>
      <trkpt lat="47.41098" lon="6.70866">
        <ele>398</ele>
        <time>2015-03-08T10:02:15.000Z</time>
      </trkpt>
      <trkpt lat="47.41098" lon="6.70871">
        <ele>398</ele>
        <time>2015-03-08T10:02:16.000Z</time>
      </trkpt>
      <trkpt lat="47.41097" lon="6.70876">
        <ele>398</ele>
        <time>2015-03-08T10:02:17.000Z</time>
      </trkpt>
      <trkpt lat="47.41096" lon="6.70881">
        <ele>398</ele>
        <time>2015-03-08T10:02:18.000Z</time>
      </trkpt>
      <trkpt lat="47.41095" lon="6.70887">
        <ele>398</ele>
        <time>2015-03-08T10:02:19.000Z</time>
      </trkpt>
      <trkpt lat="47.41094" lon="6.70893">
        <ele>398</ele>
        <time>2015-03-08T10:02:20.000Z</time>
      </trkpt>
      <trkpt lat="47.41092" lon="6.70898">
        <ele>397</ele>
        <time>2015-03-08T10:02:21.000Z</time>
      </trkpt>
      <trkpt lat="47.41091" lon="6.70902">
        <ele>397</ele>
        <time>2015-03-08T10:02:22.000Z</time>
      </trkpt>
      <trkpt lat="47.4109" lon="6.70906">
        <ele>396</ele>
        <time>2015-03-08T10:02:23.000Z</time>
      </trkpt>
      <trkpt lat="47.41089" lon="6.70911">
        <ele>395</ele>
        <time>2015-03-08T10:02:24.000Z</time>
      </trkpt>
      <trkpt lat="47.41088" lon="6.70915">
        <ele>394</ele>
        <time>2015-03-08T10:02:25.000Z</time>
      </trkpt>
      <trkpt lat="47.41086" lon="6.70921">
        <ele>395</ele>
        <time>2015-03-08T10:02:26.000Z</time>
      </trkpt>
      <trkpt lat="47.41085" lon="6.70925">
        <ele>397</ele>
        <time>2015-03-08T10:02:27.000Z</time>
      </trkpt>
      <trkpt lat="47.41085" lon="6.70929">
        <ele>399</ele>
        <time>2015-03-08T10:02:28.000Z</time>
      </trkpt>
      <trkpt lat="47.41084" lon="6.70933">
        <ele>400</ele>
        <time>2015-03-08T10:02:29.000Z</time>
      </trkpt>
      <trkpt lat="47.41083" lon="6.70936">
        <ele>401</ele>
        <time>2015-03-08T10:02:30.000Z</time>
      </trkpt>
      <trkpt lat="47.41083" lon="6.70939">
        <ele>395</ele>
        <time>2015-03-08T10:02:31.000Z</time>
      </trkpt>
      <trkpt lat="47.41083" lon="6.70943">
        <ele>395</ele>
        <time>2015-03-08T10:02:32.000Z</time>
      </trkpt>
      <trkpt lat="47.41082" lon="6.70948">
        <ele>396</ele>
        <time>2015-03-08T10:02:34.000Z</time>
      </trkpt>
      <trkpt lat="47.4108" lon="6.70951">
        <ele>396</ele>
        <time>2015-03-08T10:02:35.000Z</time>
      </trkpt>
      <trkpt lat="47.41079" lon="6.70955">
        <ele>396</ele>
        <time>2015-03-08T10:02:36.000Z</time>
      </trkpt>
      <trkpt lat="47.41077" lon="6.70959">
        <ele>397</ele>
        <time>2015-03-08T10:02:37.000Z</time>
      </trkpt>
      <trkpt lat="47.41076" lon="6.70964">
        <ele>397</ele>
        <time>2015-03-08T10:02:38.000Z</time>
      </trkpt>
      <trkpt lat="47.41076" lon="6.70969">
        <ele>397</ele>
        <time>2015-03-08T10:02:39.000Z</time>
      </trkpt>
      <trkpt lat="47.41075" lon="6.70974">
        <ele>397</ele>
        <time>2015-03-08T10:02:40.000Z</time>
      </trkpt>
      <trkpt lat="47.41073" lon="6.70979">
        <ele>398</ele>
        <time>2015-03-08T10:02:41.000Z</time>
      </trkpt>
      <trkpt lat="47.41072" lon="6.70983">
        <ele>398</ele>
        <time>2015-03-08T10:02:42.000Z</time>
      </trkpt>
      <trkpt lat="47.4107" lon="6.70986">
        <ele>398</ele>
        <time>2015-03-08T10:02:43.000Z</time>
      </trkpt>
      <trkpt lat="47.41069" lon="6.70989">
        <ele>398</ele>
        <time>2015-03-08T10:02:44.000Z</time>
      </trkpt>
      <trkpt lat="47.41067" lon="6.70993">
        <ele>398</ele>
        <time>2015-03-08T10:02:45.000Z</time>
      </trkpt>
      <trkpt lat="47.41066" lon="6.70997">
        <ele>398</ele>
        <time>2015-03-08T10:02:46.000Z</time>
      </trkpt>
      <trkpt lat="47.41065" lon="6.71002">
        <ele>400</ele>
        <time>2015-03-08T10:02:47.000Z</time>
      </trkpt>
      <trkpt lat="47.41064" lon="6.71007">
        <ele>400</ele>
        <time>2015-03-08T10:02:48.000Z</time>
      </trkpt>
      <trkpt lat="47.41062" lon="6.71012">
        <ele>400</ele>
        <time>2015-03-08T10:02:49.000Z</time>
      </trkpt>
      <trkpt lat="47.4106" lon="6.71017">
        <ele>400</ele>
        <time>2015-03-08T10:02:50.000Z</time>
      </trkpt>
      <trkpt lat="47.41058" lon="6.71023">
        <ele>401</ele>
        <time>2015-03-08T10:02:51.000Z</time>
      </trkpt>
      <trkpt lat="47.41056" lon="6.71028">
        <ele>401</ele>
        <time>2015-03-08T10:02:52.000Z</time>
      </trkpt>
      <trkpt lat="47.41054" lon="6.71034">
        <ele>401</ele>
        <time>2015-03-08T10:02:53.000Z</time>
      </trkpt>
      <trkpt lat="47.41053" lon="6.7104">
        <ele>401</ele>
        <time>2015-03-08T10:02:54.000Z</time>
      </trkpt>
      <trkpt lat="47.41051" lon="6.71046">
        <ele>401</ele>
        <time>2015-03-08T10:02:55.000Z</time>
      </trkpt>
      <trkpt lat="47.4105" lon="6.71052">
        <ele>402</ele>
        <time>2015-03-08T10:02:56.000Z</time>
      </trkpt>
      <trkpt lat="47.41048" lon="6.71057">
        <ele>402</ele>
        <time>2015-03-08T10:02:57.000Z</time>
      </trkpt>
      <trkpt lat="47.41047" lon="6.71062">
        <ele>402</ele>
        <time>2015-03-08T10:02:58.000Z</time>
      </trkpt>
      <trkpt lat="47.41045" lon="6.71067">
        <ele>402</ele>
        <time>2015-03-08T10:02:59.000Z</time>
      </trkpt>
      <trkpt lat="47.41044" lon="6.71071">
        <ele>402</ele>
        <time>2015-03-08T10:03:00.000Z</time>
      </trkpt>
      <trkpt lat="47.41042" lon="6.71076">
        <ele>402</ele>
        <time>2015-03-08T10:03:01.000Z</time>
      </trkpt>
      <trkpt lat="47.41039" lon="6.71082">
        <ele>401</ele>
        <time>2015-03-08T10:03:02.000Z</time>
      </trkpt>
      <trkpt lat="47.41037" lon="6.71087">
        <ele>405</ele>
        <time>2015-03-08T10:03:03.000Z</time>
      </trkpt>
      <trkpt lat="47.41034" lon="6.71094">
        <ele>404</ele>
        <time>2015-03-08T10:03:04.000Z</time>
      </trkpt>
      <trkpt lat="47.41032" lon="6.711">
        <ele>404</ele>
        <time>2015-03-08T10:03:05.000Z</time>
      </trkpt>
      <trkpt lat="47.41027" lon="6.71112">
        <ele>404</ele>
        <time>2015-03-08T10:03:06.000Z</time>
      </trkpt>
      <trkpt lat="47.41025" lon="6.7112">
        <ele>404</ele>
        <time>2015-03-08T10:03:07.000Z</time>
      </trkpt>
      <trkpt lat="47.41025" lon="6.71126">
        <ele>404</ele>
        <time>2015-03-08T10:03:08.000Z</time>
      </trkpt>
      <trkpt lat="47.41023" lon="6.71132">
        <ele>404</ele>
        <time>2015-03-08T10:03:09.000Z</time>
      </trkpt>
      <trkpt lat="47.41022" lon="6.71138">
        <ele>404</ele>
        <time>2015-03-08T10:03:10.000Z</time>
      </trkpt>
      <trkpt lat="47.41021" lon="6.71144">
        <ele>404</ele>
        <time>2015-03-08T10:03:11.000Z</time>
      </trkpt>
      <trkpt lat="47.41021" lon="6.71151">
        <ele>403</ele>
        <time>2015-03-08T10:03:12.000Z</time>
      </trkpt>
      <trkpt lat="47.41018" lon="6.71157">
        <ele>402</ele>
        <time>2015-03-08T10:03:13.000Z</time>
      </trkpt>
      <trkpt lat="47.41017" lon="6.71164">
        <ele>402</ele>
        <time>2015-03-08T10:03:14.000Z</time>
      </trkpt>
      <trkpt lat="47.41015" lon="6.7117">
        <ele>404</ele>
        <time>2015-03-08T10:03:15.000Z</time>
      </trkpt>
      <trkpt lat="47.41015" lon="6.71176">
        <ele>404</ele>
        <time>2015-03-08T10:03:16.000Z</time>
      </trkpt>
      <trkpt lat="47.41015" lon="6.71181">
        <ele>405</ele>
        <time>2015-03-08T10:03:17.000Z</time>
      </trkpt>
      <trkpt lat="47.41015" lon="6.71186">
        <ele>406</ele>
        <time>2015-03-08T10:03:18.000Z</time>
      </trkpt>
      <trkpt lat="47.41014" lon="6.71191">
        <ele>407</ele>
        <time>2015-03-08T10:03:19.000Z</time>
      </trkpt>
      <trkpt lat="47.41014" lon="6.71196">
        <ele>407</ele>
        <time>2015-03-08T10:03:20.000Z</time>
      </trkpt>
      <trkpt lat="47.41015" lon="6.712">
        <ele>408</ele>
        <time>2015-03-08T10:03:21.000Z</time>
      </trkpt>
      <trkpt lat="47.41015" lon="6.71206">
        <ele>408</ele>
        <time>2015-03-08T10:03:22.000Z</time>
      </trkpt>
      <trkpt lat="47.41014" lon="6.71212">
        <ele>408</ele>
        <time>2015-03-08T10:03:23.000Z</time>
      </trkpt>
      <trkpt lat="47.41013" lon="6.71218">
        <ele>408</ele>
        <time>2015-03-08T10:03:24.000Z</time>
      </trkpt>
      <trkpt lat="47.41012" lon="6.71224">
        <ele>408</ele>
        <time>2015-03-08T10:03:25.000Z</time>
      </trkpt>
      <trkpt lat="47.4101" lon="6.71231">
        <ele>407</ele>
        <time>2015-03-08T10:03:26.000Z</time>
      </trkpt>
      <trkpt lat="47.41008" lon="6.71237">
        <ele>405</ele>
        <time>2015-03-08T10:03:27.000Z</time>
      </trkpt>
      <trkpt lat="47.41007" lon="6.71244">
        <ele>404</ele>
        <time>2015-03-08T10:03:28.000Z</time>
      </trkpt>
      <trkpt lat="47.41005" lon="6.7125">
        <ele>403</ele>
        <time>2015-03-08T10:03:29.000Z</time>
      </trkpt>
      <trkpt lat="47.41002" lon="6.71255">
        <ele>404</ele>
        <time>2015-03-08T10:03:30.000Z</time>
      </trkpt>
      <trkpt lat="47.41" lon="6.7126">
        <ele>402</ele>
        <time>2015-03-08T10:03:31.000Z</time>
      </trkpt>
      <trkpt lat="47.40997" lon="6.71263">
        <ele>403</ele>
        <time>2015-03-08T10:03:32.000Z</time>
      </trkpt>
      <trkpt lat="47.40995" lon="6.71267">
        <ele>403</ele>
        <time>2015-03-08T10:03:33.000Z</time>
      </trkpt>
      <trkpt lat="47.40993" lon="6.71271">
        <ele>404</ele>
        <time>2015-03-08T10:03:34.000Z</time>
      </trkpt>
      <trkpt lat="47.40991" lon="6.71275">
        <ele>404</ele>
        <time>2015-03-08T10:03:35.000Z</time>
      </trkpt>
      <trkpt lat="47.40989" lon="6.7128">
        <ele>405</ele>
        <time>2015-03-08T10:03:36.000Z</time>
      </trkpt>
      <trkpt lat="47.40987" lon="6.71284">
        <ele>405</ele>
        <time>2015-03-08T10:03:37.000Z</time>
      </trkpt>
      <trkpt lat="47.40986" lon="6.71288">
        <ele>405</ele>
        <time>2015-03-08T10:03:38.000Z</time>
      </trkpt>
      <trkpt lat="47.40984" lon="6.71292">
        <ele>406</ele>
        <time>2015-03-08T10:03:39.000Z</time>
      </trkpt>
      <trkpt lat="47.40982" lon="6.71295">
        <ele>406</ele>
        <time>2015-03-08T10:03:40.000Z</time>
      </trkpt>
      <trkpt lat="47.40981" lon="6.71298">
        <ele>406</ele>
        <time>2015-03-08T10:03:41.000Z</time>
      </trkpt>
      <trkpt lat="47.40979" lon="6.71305">
        <ele>406</ele>
        <time>2015-03-08T10:03:43.000Z</time>
      </trkpt>
      <trkpt lat="47.4098" lon="6.71307">
        <ele>406</ele>
        <time>2015-03-08T10:03:44.000Z</time>
      </trkpt>
      <trkpt lat="47.40982" lon="6.7131">
        <ele>407</ele>
        <time>2015-03-08T10:03:45.000Z</time>
      </trkpt>
      <trkpt lat="47.40983" lon="6.71313">
        <ele>407</ele>
        <time>2015-03-08T10:03:46.000Z</time>
      </trkpt>
      <trkpt lat="47.40984" lon="6.71319">
        <ele>407</ele>
        <time>2015-03-08T10:03:48.000Z</time>
      </trkpt>
      <trkpt lat="47.40983" lon="6.71323">
        <ele>407</ele>
        <time>2015-03-08T10:03:49.000Z</time>
      </trkpt>
      <trkpt lat="47.40983" lon="6.71326">
        <ele>407</ele>
        <time>2015-03-08T10:03:50.000Z</time>
      </trkpt>
      <trkpt lat="47.40982" lon="6.71329">
        <ele>407</ele>
        <time>2015-03-08T10:03:51.000Z</time>
      </trkpt>
      <trkpt lat="47.40981" lon="6.71333">
        <ele>407</ele>
        <time>2015-03-08T10:03:52.000Z</time>
      </trkpt>
      <trkpt lat="47.4098" lon="6.71336">
        <ele>408</ele>
        <time>2015-03-08T10:03:53.000Z</time>
      </trkpt>
      <trkpt lat="47.40978" lon="6.7134">
        <ele>408</ele>
        <time>2015-03-08T10:03:54.000Z</time>
      </trkpt>
      <trkpt lat="47.40977" lon="6.71342">
        <ele>408</ele>
        <time>2015-03-08T10:03:55.000Z</time>
      </trkpt>
      <trkpt lat="47.40976" lon="6.71347">
        <ele>408</ele>
        <time>2015-03-08T10:03:57.000Z</time>
      </trkpt>
      <trkpt lat="47.40976" lon="6.71349">
        <ele>408</ele>
        <time>2015-03-08T10:03:58.000Z</time>
      </trkpt>
      <trkpt lat="47.40976" lon="6.71353">
        <ele>408</ele>
        <time>2015-03-08T10:03:59.000Z</time>
      </trkpt>
      <trkpt lat="47.40975" lon="6.71356">
        <ele>409</ele>
        <time>2015-03-08T10:04:00.000Z</time>
      </trkpt>
      <trkpt lat="47.40975" lon="6.7136">
        <ele>409</ele>
        <time>2015-03-08T10:04:01.000Z</time>
      </trkpt>
      <trkpt lat="47.40975" lon="6.71363">
        <ele>409</ele>
        <time>2015-03-08T10:04:02.000Z</time>
      </trkpt>
      <trkpt lat="47.40975" lon="6.71367">
        <ele>409</ele>
        <time>2015-03-08T10:04:03.000Z</time>
      </trkpt>
      <trkpt lat="47.40974" lon="6.71371">
        <ele>409</ele>
        <time>2015-03-08T10:04:04.000Z</time>
      </trkpt>
      <trkpt lat="47.40974" lon="6.71374">
        <ele>409</ele>
        <time>2015-03-08T10:04:05.000Z</time>
      </trkpt>
      <trkpt lat="47.40975" lon="6.71379">
        <ele>409</ele>
        <time>2015-03-08T10:04:06.000Z</time>
      </trkpt>
      <trkpt lat="47.40976" lon="6.71382">
        <ele>409</ele>
        <time>2015-03-08T10:04:07.000Z</time>
      </trkpt>
      <trkpt lat="47.40977" lon="6.71384">
        <ele>409</ele>
        <time>2015-03-08T10:04:08.000Z</time>
      </trkpt>
      <trkpt lat="47.40979" lon="6.71388">
        <ele>409</ele>
        <time>2015-03-08T10:04:10.000Z</time>
      </trkpt>
      <trkpt lat="47.4098" lon="6.71391">
        <ele>409</ele>
        <time>2015-03-08T10:04:11.000Z</time>
      </trkpt>
      <trkpt lat="47.4098" lon="6.71395">
        <ele>409</ele>
        <time>2015-03-08T10:04:12.000Z</time>
      </trkpt>
      <trkpt lat="47.4098" lon="6.71398">
        <ele>409</ele>
        <time>2015-03-08T10:04:13.000Z</time>
      </trkpt>
      <trkpt lat="47.40981" lon="6.71402">
        <ele>409</ele>
        <time>2015-03-08T10:04:14.000Z</time>
      </trkpt>
      <trkpt lat="47.40981" lon="6.71405">
        <ele>409</ele>
        <time>2015-03-08T10:04:15.000Z</time>
      </trkpt>
      <trkpt lat="47.40981" lon="6.71409">
        <ele>409</ele>
        <time>2015-03-08T10:04:16.000Z</time>
      </trkpt>
      <trkpt lat="47.40982" lon="6.71413">
        <ele>410</ele>
        <time>2015-03-08T10:04:17.000Z</time>
      </trkpt>
      <trkpt lat="47.40982" lon="6.71418">
        <ele>410</ele>
        <time>2015-03-08T10:04:18.000Z</time>
      </trkpt>
      <trkpt lat="47.40982" lon="6.71423">
        <ele>410</ele>
        <time>2015-03-08T10:04:19.000Z</time>
      </trkpt>
      <trkpt lat="47.40983" lon="6.71428">
        <ele>410</ele>
        <time>2015-03-08T10:04:20.000Z</time>
      </trkpt>
      <trkpt lat="47.40983" lon="6.71434">
        <ele>410</ele>
        <time>2015-03-08T10:04:21.000Z</time>
      </trkpt>
      <trkpt lat="47.40983" lon="6.7144">
        <ele>410</ele>
        <time>2015-03-08T10:04:22.000Z</time>
      </trkpt>
      <trkpt lat="47.40984" lon="6.71446">
        <ele>410</ele>
        <time>2015-03-08T10:04:23.000Z</time>
      </trkpt>
      <trkpt lat="47.40984" lon="6.71451">
        <ele>410</ele>
        <time>2015-03-08T10:04:24.000Z</time>
      </trkpt>
      <trkpt lat="47.40985" lon="6.71455">
        <ele>410</ele>
        <time>2015-03-08T10:04:25.000Z</time>
      </trkpt>
      <trkpt lat="47.40985" lon="6.7146">
        <ele>410</ele>
        <time>2015-03-08T10:04:26.000Z</time>
      </trkpt>
      <trkpt lat="47.40986" lon="6.71464">
        <ele>410</ele>
        <time>2015-03-08T10:04:27.000Z</time>
      </trkpt>
      <trkpt lat="47.40986" lon="6.71469">
        <ele>410</ele>
        <time>2015-03-08T10:04:28.000Z</time>
      </trkpt>
      <trkpt lat="47.40987" lon="6.71473">
        <ele>410</ele>
        <time>2015-03-08T10:04:29.000Z</time>
      </trkpt>
      <trkpt lat="47.40988" lon="6.71477">
        <ele>410</ele>
        <time>2015-03-08T10:04:30.000Z</time>
      </trkpt>
      <trkpt lat="47.40989" lon="6.7148">
        <ele>410</ele>
        <time>2015-03-08T10:04:31.000Z</time>
      </trkpt>
      <trkpt lat="47.4099" lon="6.71486">
        <ele>410</ele>
        <time>2015-03-08T10:04:33.000Z</time>
      </trkpt>
      <trkpt lat="47.4099" lon="6.71489">
        <ele>411</ele>
        <time>2015-03-08T10:04:34.000Z</time>
      </trkpt>
      <trkpt lat="47.40989" lon="6.71492">
        <ele>411</ele>
        <time>2015-03-08T10:04:35.000Z</time>
      </trkpt>
      <trkpt lat="47.40989" lon="6.71496">
        <ele>411</ele>
        <time>2015-03-08T10:04:36.000Z</time>
      </trkpt>
      <trkpt lat="47.40987" lon="6.715">
        <ele>411</ele>
        <time>2015-03-08T10:04:37.000Z</time>
      </trkpt>
      <trkpt lat="47.40986" lon="6.71505">
        <ele>411</ele>
        <time>2015-03-08T10:04:38.000Z</time>
      </trkpt>
      <trkpt lat="47.40985" lon="6.7151">
        <ele>411</ele>
        <time>2015-03-08T10:04:39.000Z</time>
      </trkpt>
      <trkpt lat="47.40984" lon="6.71514">
        <ele>411</ele>
        <time>2015-03-08T10:04:40.000Z</time>
      </trkpt>
      <trkpt lat="47.40983" lon="6.71518">
        <ele>411</ele>
        <time>2015-03-08T10:04:41.000Z</time>
      </trkpt>
      <trkpt lat="47.40982" lon="6.71521">
        <ele>411</ele>
        <time>2015-03-08T10:04:42.000Z</time>
      </trkpt>
      <trkpt lat="47.4098" lon="6.71525">
        <ele>411</ele>
        <time>2015-03-08T10:04:43.000Z</time>
      </trkpt>
      <trkpt lat="47.40979" lon="6.71528">
        <ele>411</ele>
        <time>2015-03-08T10:04:44.000Z</time>
      </trkpt>
      <trkpt lat="47.40978" lon="6.71532">
        <ele>411</ele>
        <time>2015-03-08T10:04:45.000Z</time>
      </trkpt>
      <trkpt lat="47.40976" lon="6.71536">
        <ele>411</ele>
        <time>2015-03-08T10:04:46.000Z</time>
      </trkpt>
      <trkpt lat="47.40975" lon="6.7154">
        <ele>411</ele>
        <time>2015-03-08T10:04:47.000Z</time>
      </trkpt>
      <trkpt lat="47.40974" lon="6.71544">
        <ele>411</ele>
        <time>2015-03-08T10:04:48.000Z</time>
      </trkpt>
      <trkpt lat="47.40972" lon="6.71549">
        <ele>411</ele>
        <time>2015-03-08T10:04:49.000Z</time>
      </trkpt>
      <trkpt lat="47.4097" lon="6.71554">
        <ele>411</ele>
        <time>2015-03-08T10:04:50.000Z</time>
      </trkpt>
      <trkpt lat="47.40968" lon="6.71559">
        <ele>411</ele>
        <time>2015-03-08T10:04:51.000Z</time>
      </trkpt>
      <trkpt lat="47.40967" lon="6.71565">
        <ele>411</ele>
        <time>2015-03-08T10:04:52.000Z</time>
      </trkpt>
      <trkpt lat="47.40966" lon="6.7157">
        <ele>411</ele>
        <time>2015-03-08T10:04:53.000Z</time>
      </trkpt>
      <trkpt lat="47.40965" lon="6.71575">
        <ele>411</ele>
        <time>2015-03-08T10:04:54.000Z</time>
      </trkpt>
      <trkpt lat="47.40964" lon="6.71579">
        <ele>411</ele>
        <time>2015-03-08T10:04:55.000Z</time>
      </trkpt>
      <trkpt lat="47.40962" lon="6.71582">
        <ele>411</ele>
        <time>2015-03-08T10:04:56.000Z</time>
      </trkpt>
      <trkpt lat="47.4096" lon="6.71584">
        <ele>413</ele>
        <time>2015-03-08T10:04:57.000Z</time>
      </trkpt>
      <trkpt lat="47.40958" lon="6.71587">
        <ele>413</ele>
        <time>2015-03-08T10:04:58.000Z</time>
      </trkpt>
      <trkpt lat="47.40955" lon="6.7159">
        <ele>413</ele>
        <time>2015-03-08T10:04:59.000Z</time>
      </trkpt>
      <trkpt lat="47.40953" lon="6.71592">
        <ele>412</ele>
        <time>2015-03-08T10:05:00.000Z</time>
      </trkpt>
      <trkpt lat="47.4095" lon="6.71596">
        <ele>412</ele>
        <time>2015-03-08T10:05:01.000Z</time>
      </trkpt>
      <trkpt lat="47.40947" lon="6.716">
        <ele>412</ele>
        <time>2015-03-08T10:05:02.000Z</time>
      </trkpt>
      <trkpt lat="47.40945" lon="6.71605">
        <ele>412</ele>
        <time>2015-03-08T10:05:03.000Z</time>
      </trkpt>
      <trkpt lat="47.40942" lon="6.7161">
        <ele>413</ele>
        <time>2015-03-08T10:05:04.000Z</time>
      </trkpt>
      <trkpt lat="47.40941" lon="6.71614">
        <ele>413</ele>
        <time>2015-03-08T10:05:05.000Z</time>
      </trkpt>
      <trkpt lat="47.4094" lon="6.71618">
        <ele>413</ele>
        <time>2015-03-08T10:05:06.000Z</time>
      </trkpt>
      <trkpt lat="47.40938" lon="6.71622">
        <ele>413</ele>
        <time>2015-03-08T10:05:07.000Z</time>
      </trkpt>
      <trkpt lat="47.40937" lon="6.71625">
        <ele>413</ele>
        <time>2015-03-08T10:05:08.000Z</time>
      </trkpt>
      <trkpt lat="47.40935" lon="6.71629">
        <ele>413</ele>
        <time>2015-03-08T10:05:09.000Z</time>
      </trkpt>
      <trkpt lat="47.40933" lon="6.71633">
        <ele>413</ele>
        <time>2015-03-08T10:05:10.000Z</time>
      </trkpt>
      <trkpt lat="47.40931" lon="6.71637">
        <ele>413</ele>
        <time>2015-03-08T10:05:11.000Z</time>
      </trkpt>
      <trkpt lat="47.40929" lon="6.71639">
        <ele>413</ele>
        <time>2015-03-08T10:05:12.000Z</time>
      </trkpt>
      <trkpt lat="47.40927" lon="6.71641">
        <ele>413</ele>
        <time>2015-03-08T10:05:13.000Z</time>
      </trkpt>
      <trkpt lat="47.40925" lon="6.71642">
        <ele>413</ele>
        <time>2015-03-08T10:05:14.000Z</time>
      </trkpt>
      <trkpt lat="47.40922" lon="6.71642">
        <ele>413</ele>
        <time>2015-03-08T10:05:15.000Z</time>
      </trkpt>
      <trkpt lat="47.4092" lon="6.71645">
        <ele>412</ele>
        <time>2015-03-08T10:05:16.000Z</time>
      </trkpt>
      <trkpt lat="47.40917" lon="6.71649">
        <ele>412</ele>
        <time>2015-03-08T10:05:17.000Z</time>
      </trkpt>
      <trkpt lat="47.40915" lon="6.71654">
        <ele>415</ele>
        <time>2015-03-08T10:05:18.000Z</time>
      </trkpt>
      <trkpt lat="47.40912" lon="6.7166">
        <ele>414</ele>
        <time>2015-03-08T10:05:19.000Z</time>
      </trkpt>
      <trkpt lat="47.40909" lon="6.71665">
        <ele>414</ele>
        <time>2015-03-08T10:05:20.000Z</time>
      </trkpt>
      <trkpt lat="47.40906" lon="6.7167">
        <ele>414</ele>
        <time>2015-03-08T10:05:21.000Z</time>
      </trkpt>
      <trkpt lat="47.40903" lon="6.71674">
        <ele>415</ele>
        <time>2015-03-08T10:05:22.000Z</time>
      </trkpt>
      <trkpt lat="47.409" lon="6.71679">
        <ele>416</ele>
        <time>2015-03-08T10:05:23.000Z</time>
      </trkpt>
      <trkpt lat="47.40898" lon="6.71684">
        <ele>416</ele>
        <time>2015-03-08T10:05:24.000Z</time>
      </trkpt>
      <trkpt lat="47.40896" lon="6.71688">
        <ele>417</ele>
        <time>2015-03-08T10:05:25.000Z</time>
      </trkpt>
      <trkpt lat="47.40895" lon="6.71692">
        <ele>417</ele>
        <time>2015-03-08T10:05:26.000Z</time>
      </trkpt>
      <trkpt lat="47.40894" lon="6.71696">
        <ele>417</ele>
        <time>2015-03-08T10:05:27.000Z</time>
      </trkpt>
      <trkpt lat="47.40893" lon="6.71699">
        <ele>417</ele>
        <time>2015-03-08T10:05:28.000Z</time>
      </trkpt>
      <trkpt lat="47.40892" lon="6.71703">
        <ele>417</ele>
        <time>2015-03-08T10:05:29.000Z</time>
      </trkpt>
      <trkpt lat="47.40891" lon="6.71707">
        <ele>418</ele>
        <time>2015-03-08T10:05:30.000Z</time>
      </trkpt>
      <trkpt lat="47.4089" lon="6.71711">
        <ele>418</ele>
        <time>2015-03-08T10:05:31.000Z</time>
      </trkpt>
      <trkpt lat="47.40889" lon="6.71715">
        <ele>418</ele>
        <time>2015-03-08T10:05:32.000Z</time>
      </trkpt>
      <trkpt lat="47.40887" lon="6.71721">
        <ele>418</ele>
        <time>2015-03-08T10:05:33.000Z</time>
      </trkpt>
      <trkpt lat="47.40886" lon="6.71725">
        <ele>418</ele>
        <time>2015-03-08T10:05:34.000Z</time>
      </trkpt>
      <trkpt lat="47.40885" lon="6.71729">
        <ele>418</ele>
        <time>2015-03-08T10:05:35.000Z</time>
      </trkpt>
      <trkpt lat="47.40884" lon="6.71733">
        <ele>418</ele>
        <time>2015-03-08T10:05:36.000Z</time>
      </trkpt>
      <trkpt lat="47.40882" lon="6.71737">
        <ele>418</ele>
        <time>2015-03-08T10:05:37.000Z</time>
      </trkpt>
      <trkpt lat="47.40881" lon="6.7174">
        <ele>418</ele>
        <time>2015-03-08T10:05:38.000Z</time>
      </trkpt>
      <trkpt lat="47.4088" lon="6.71744">
        <ele>418</ele>
        <time>2015-03-08T10:05:39.000Z</time>
      </trkpt>
      <trkpt lat="47.40879" lon="6.71747">
        <ele>418</ele>
        <time>2015-03-08T10:05:40.000Z</time>
      </trkpt>
      <trkpt lat="47.40877" lon="6.7175">
        <ele>417</ele>
        <time>2015-03-08T10:05:41.000Z</time>
      </trkpt>
      <trkpt lat="47.40875" lon="6.71753">
        <ele>417</ele>
        <time>2015-03-08T10:05:42.000Z</time>
      </trkpt>
      <trkpt lat="47.40873" lon="6.71756">
        <ele>417</ele>
        <time>2015-03-08T10:05:43.000Z</time>
      </trkpt>
      <trkpt lat="47.40871" lon="6.7176">
        <ele>417</ele>
        <time>2015-03-08T10:05:44.000Z</time>
      </trkpt>
      <trkpt lat="47.40869" lon="6.71764">
        <ele>417</ele>
        <time>2015-03-08T10:05:45.000Z</time>
      </trkpt>
      <trkpt lat="47.40867" lon="6.71769">
        <ele>417</ele>
        <time>2015-03-08T10:05:46.000Z</time>
      </trkpt>
      <trkpt lat="47.40865" lon="6.71773">
        <ele>417</ele>
        <time>2015-03-08T10:05:47.000Z</time>
      </trkpt>
      <trkpt lat="47.40863" lon="6.71776">
        <ele>417</ele>
        <time>2015-03-08T10:05:48.000Z</time>
      </trkpt>
      <trkpt lat="47.40862" lon="6.7178">
        <ele>417</ele>
        <time>2015-03-08T10:05:49.000Z</time>
      </trkpt>
      <trkpt lat="47.4086" lon="6.71783">
        <ele>417</ele>
        <time>2015-03-08T10:05:50.000Z</time>
      </trkpt>
      <trkpt lat="47.40858" lon="6.71786">
        <ele>416</ele>
        <time>2015-03-08T10:05:51.000Z</time>
      </trkpt>
      <trkpt lat="47.40856" lon="6.7179">
        <ele>416</ele>
        <time>2015-03-08T10:05:52.000Z</time>
      </trkpt>
      <trkpt lat="47.40854" lon="6.71794">
        <ele>416</ele>
        <time>2015-03-08T10:05:53.000Z</time>
      </trkpt>
      <trkpt lat="47.40852" lon="6.71797">
        <ele>416</ele>
        <time>2015-03-08T10:05:54.000Z</time>
      </trkpt>
      <trkpt lat="47.40849" lon="6.71801">
        <ele>416</ele>
        <time>2015-03-08T10:05:55.000Z</time>
      </trkpt>
      <trkpt lat="47.40847" lon="6.71805">
        <ele>416</ele>
        <time>2015-03-08T10:05:56.000Z</time>
      </trkpt>
      <trkpt lat="47.40845" lon="6.71808">
        <ele>415</ele>
        <time>2015-03-08T10:05:57.000Z</time>
      </trkpt>
      <trkpt lat="47.40843" lon="6.71812">
        <ele>415</ele>
        <time>2015-03-08T10:05:58.000Z</time>
      </trkpt>
      <trkpt lat="47.4084" lon="6.71816">
        <ele>414</ele>
        <time>2015-03-08T10:05:59.000Z</time>
      </trkpt>
      <trkpt lat="47.40838" lon="6.71819">
        <ele>414</ele>
        <time>2015-03-08T10:06:00.000Z</time>
      </trkpt>
      <trkpt lat="47.40836" lon="6.71823">
        <ele>413</ele>
        <time>2015-03-08T10:06:01.000Z</time>
      </trkpt>
      <trkpt lat="47.40834" lon="6.71826">
        <ele>413</ele>
        <time>2015-03-08T10:06:02.000Z</time>
      </trkpt>
      <trkpt lat="47.40832" lon="6.71829">
        <ele>413</ele>
        <time>2015-03-08T10:06:03.000Z</time>
      </trkpt>
      <trkpt lat="47.40831" lon="6.71831">
        <ele>413</ele>
        <time>2015-03-08T10:06:04.000Z</time>
      </trkpt>
      <trkpt lat="47.40829" lon="6.71834">
        <ele>413</ele>
        <time>2015-03-08T10:06:05.000Z</time>
      </trkpt>
      <trkpt lat="47.40827" lon="6.71837">
        <ele>414</ele>
        <time>2015-03-08T10:06:06.000Z</time>
      </trkpt>
      <trkpt lat="47.40825" lon="6.71841">
        <ele>415</ele>
        <time>2015-03-08T10:06:07.000Z</time>
      </trkpt>
      <trkpt lat="47.40823" lon="6.71844">
        <ele>416</ele>
        <time>2015-03-08T10:06:08.000Z</time>
      </trkpt>
      <trkpt lat="47.40821" lon="6.71848">
        <ele>417</ele>
        <time>2015-03-08T10:06:09.000Z</time>
      </trkpt>
      <trkpt lat="47.40819" lon="6.71851">
        <ele>417</ele>
        <time>2015-03-08T10:06:10.000Z</time>
      </trkpt>
      <trkpt lat="47.40816" lon="6.71854">
        <ele>418</ele>
        <time>2015-03-08T10:06:11.000Z</time>
      </trkpt>
      <trkpt lat="47.40815" lon="6.71857">
        <ele>418</ele>
        <time>2015-03-08T10:06:12.000Z</time>
      </trkpt>
      <trkpt lat="47.40813" lon="6.71861">
        <ele>419</ele>
        <time>2015-03-08T10:06:13.000Z</time>
      </trkpt>
      <trkpt lat="47.40811" lon="6.71864">
        <ele>419</ele>
        <time>2015-03-08T10:06:14.000Z</time>
      </trkpt>
      <trkpt lat="47.40809" lon="6.71867">
        <ele>419</ele>
        <time>2015-03-08T10:06:15.000Z</time>
      </trkpt>
      <trkpt lat="47.40807" lon="6.71871">
        <ele>420</ele>
        <time>2015-03-08T10:06:16.000Z</time>
      </trkpt>
      <trkpt lat="47.40804" lon="6.71874">
        <ele>420</ele>
        <time>2015-03-08T10:06:17.000Z</time>
      </trkpt>
      <trkpt lat="47.40802" lon="6.71877">
        <ele>420</ele>
        <time>2015-03-08T10:06:18.000Z</time>
      </trkpt>
      <trkpt lat="47.408" lon="6.7188">
        <ele>420</ele>
        <time>2015-03-08T10:06:19.000Z</time>
      </trkpt>
      <trkpt lat="47.40799" lon="6.71882">
        <ele>420</ele>
        <time>2015-03-08T10:06:20.000Z</time>
      </trkpt>
      <trkpt lat="47.40797" lon="6.71884">
        <ele>420</ele>
        <time>2015-03-08T10:06:21.000Z</time>
      </trkpt>
      <trkpt lat="47.40796" lon="6.71887">
        <ele>420</ele>
        <time>2015-03-08T10:06:22.000Z</time>
      </trkpt>
      <trkpt lat="47.40794" lon="6.71891">
        <ele>420</ele>
        <time>2015-03-08T10:06:23.000Z</time>
      </trkpt>
      <trkpt lat="47.40793" lon="6.71894">
        <ele>420</ele>
        <time>2015-03-08T10:06:24.000Z</time>
      </trkpt>
      <trkpt lat="47.40792" lon="6.71898">
        <ele>420</ele>
        <time>2015-03-08T10:06:25.000Z</time>
      </trkpt>
      <trkpt lat="47.40791" lon="6.71901">
        <ele>420</ele>
        <time>2015-03-08T10:06:26.000Z</time>
      </trkpt>
      <trkpt lat="47.40789" lon="6.71904">
        <ele>420</ele>
        <time>2015-03-08T10:06:27.000Z</time>
      </trkpt>
      <trkpt lat="47.40786" lon="6.71907">
        <ele>420</ele>
        <time>2015-03-08T10:06:28.000Z</time>
      </trkpt>
      <trkpt lat="47.40785" lon="6.7191">
        <ele>420</ele>
        <time>2015-03-08T10:06:29.000Z</time>
      </trkpt>
      <trkpt lat="47.40782" lon="6.71914">
        <ele>420</ele>
        <time>2015-03-08T10:06:31.000Z</time>
      </trkpt>
      <trkpt lat="47.40781" lon="6.71916">
        <ele>420</ele>
        <time>2015-03-08T10:06:32.000Z</time>
      </trkpt>
      <trkpt lat="47.40779" lon="6.71921">
        <ele>422</ele>
        <time>2015-03-08T10:06:34.000Z</time>
      </trkpt>
      <trkpt lat="47.40778" lon="6.71923">
        <ele>422</ele>
        <time>2015-03-08T10:06:35.000Z</time>
      </trkpt>
      <trkpt lat="47.40775" lon="6.71927">
        <ele>422</ele>
        <time>2015-03-08T10:06:37.000Z</time>
      </trkpt>
      <trkpt lat="47.40774" lon="6.71928">
        <ele>422</ele>
        <time>2015-03-08T10:06:38.000Z</time>
      </trkpt>
      <trkpt lat="47.4077" lon="6.71931">
        <ele>422</ele>
        <time>2015-03-08T10:06:41.000Z</time>
      </trkpt>
      <trkpt lat="47.40768" lon="6.71932">
        <ele>422</ele>
        <time>2015-03-08T10:06:42.000Z</time>
      </trkpt>
      <trkpt lat="47.40765" lon="6.71934">
        <ele>422</ele>
        <time>2015-03-08T10:06:44.000Z</time>
      </trkpt>
      <trkpt lat="47.40763" lon="6.71936">
        <ele>422</ele>
        <time>2015-03-08T10:06:45.000Z</time>
      </trkpt>
      <trkpt lat="47.40761" lon="6.71938">
        <ele>422</ele>
        <time>2015-03-08T10:06:46.000Z</time>
      </trkpt>
      <trkpt lat="47.4076" lon="6.71941">
        <ele>423</ele>
        <time>2015-03-08T10:06:47.000Z</time>
      </trkpt>
      <trkpt lat="47.40758" lon="6.71943">
        <ele>423</ele>
        <time>2015-03-08T10:06:48.000Z</time>
      </trkpt>
      <trkpt lat="47.40756" lon="6.71945">
        <ele>423</ele>
        <time>2015-03-08T10:06:49.000Z</time>
      </trkpt>
      <trkpt lat="47.40754" lon="6.71948">
        <ele>423</ele>
        <time>2015-03-08T10:06:50.000Z</time>
      </trkpt>
      <trkpt lat="47.40752" lon="6.7195">
        <ele>423</ele>
        <time>2015-03-08T10:06:51.000Z</time>
      </trkpt>
      <trkpt lat="47.4075" lon="6.71953">
        <ele>423</ele>
        <time>2015-03-08T10:06:52.000Z</time>
      </trkpt>
      <trkpt lat="47.40749" lon="6.71956">
        <ele>423</ele>
        <time>2015-03-08T10:06:53.000Z</time>
      </trkpt>
      <trkpt lat="47.40747" lon="6.71959">
        <ele>423</ele>
        <time>2015-03-08T10:06:54.000Z</time>
      </trkpt>
      <trkpt lat="47.40745" lon="6.71962">
        <ele>423</ele>
        <time>2015-03-08T10:06:55.000Z</time>
      </trkpt>
      <trkpt lat="47.40743" lon="6.71964">
        <ele>423</ele>
        <time>2015-03-08T10:06:56.000Z</time>
      </trkpt>
      <trkpt lat="47.40741" lon="6.71966">
        <ele>423</ele>
        <time>2015-03-08T10:06:57.000Z</time>
      </trkpt>
      <trkpt lat="47.40739" lon="6.71969">
        <ele>423</ele>
        <time>2015-03-08T10:06:58.000Z</time>
      </trkpt>
      <trkpt lat="47.40737" lon="6.71972">
        <ele>423</ele>
        <time>2015-03-08T10:06:59.000Z</time>
      </trkpt>
      <trkpt lat="47.40734" lon="6.71975">
        <ele>423</ele>
        <time>2015-03-08T10:07:00.000Z</time>
      </trkpt>
      <trkpt lat="47.40732" lon="6.71978">
        <ele>423</ele>
        <time>2015-03-08T10:07:01.000Z</time>
      </trkpt>
      <trkpt lat="47.4073" lon="6.71981">
        <ele>423</ele>
        <time>2015-03-08T10:07:02.000Z</time>
      </trkpt>
      <trkpt lat="47.40728" lon="6.71984">
        <ele>424</ele>
        <time>2015-03-08T10:07:03.000Z</time>
      </trkpt>
      <trkpt lat="47.40725" lon="6.71988">
        <ele>424</ele>
        <time>2015-03-08T10:07:05.000Z</time>
      </trkpt>
      <trkpt lat="47.40724" lon="6.71991">
        <ele>423</ele>
        <time>2015-03-08T10:07:06.000Z</time>
      </trkpt>
      <trkpt lat="47.40721" lon="6.71995">
        <ele>423</ele>
        <time>2015-03-08T10:07:08.000Z</time>
      </trkpt>
      <trkpt lat="47.40719" lon="6.71997">
        <ele>423</ele>
        <time>2015-03-08T10:07:09.000Z</time>
      </trkpt>
      <trkpt lat="47.40718" lon="6.71999">
        <ele>423</ele>
        <time>2015-03-08T10:07:10.000Z</time>
      </trkpt>
      <trkpt lat="47.40716" lon="6.72001">
        <ele>426</ele>
        <time>2015-03-08T10:07:11.000Z</time>
      </trkpt>
      <trkpt lat="47.40714" lon="6.72004">
        <ele>426</ele>
        <time>2015-03-08T10:07:12.000Z</time>
      </trkpt>
      <trkpt lat="47.40712" lon="6.72006">
        <ele>426</ele>
        <time>2015-03-08T10:07:13.000Z</time>
      </trkpt>
      <trkpt lat="47.40708" lon="6.7201">
        <ele>426</ele>
        <time>2015-03-08T10:07:15.000Z</time>
      </trkpt>
      <trkpt lat="47.40707" lon="6.72012">
        <ele>426</ele>
        <time>2015-03-08T10:07:16.000Z</time>
      </trkpt>
      <trkpt lat="47.40703" lon="6.72014">
        <ele>426</ele>
        <time>2015-03-08T10:07:18.000Z</time>
      </trkpt>
      <trkpt lat="47.40701" lon="6.72016">
        <ele>426</ele>
        <time>2015-03-08T10:07:19.000Z</time>
      </trkpt>
      <trkpt lat="47.40698" lon="6.72021">
        <ele>426</ele>
        <time>2015-03-08T10:07:24.000Z</time>
      </trkpt>
      <trkpt lat="47.40697" lon="6.72022">
        <ele>426</ele>
        <time>2015-03-08T10:07:25.000Z</time>
      </trkpt>
      <trkpt lat="47.40697" lon="6.72028">
        <ele>426</ele>
        <time>2015-03-08T10:07:28.000Z</time>
      </trkpt>
      <trkpt lat="47.40696" lon="6.7203">
        <ele>426</ele>
        <time>2015-03-08T10:07:29.000Z</time>
      </trkpt>
      <trkpt lat="47.40695" lon="6.72036">
        <ele>426</ele>
        <time>2015-03-08T10:07:35.000Z</time>
      </trkpt>
      <trkpt lat="47.40694" lon="6.72037">
        <ele>426</ele>
        <time>2015-03-08T10:07:36.000Z</time>
      </trkpt>
      <trkpt lat="47.40691" lon="6.7204">
        <ele>426</ele>
        <time>2015-03-08T10:07:40.000Z</time>
      </trkpt>
      <trkpt lat="47.4069" lon="6.72041">
        <ele>426</ele>
        <time>2015-03-08T10:07:41.000Z</time>
      </trkpt>
      <trkpt lat="47.40687" lon="6.72046">
        <ele>426</ele>
        <time>2015-03-08T10:08:02.000Z</time>
      </trkpt>
      <trkpt lat="47.40687" lon="6.72046">
        <ele>426</ele>
        <time>2015-03-08T10:08:03.000Z</time>
      </trkpt>
      <trkpt lat="47.40685" lon="6.7205">
        <ele>426</ele>
        <time>2015-03-08T10:08:05.000Z</time>
      </trkpt>
      <trkpt lat="47.40684" lon="6.72053">
        <ele>426</ele>
        <time>2015-03-08T10:08:06.000Z</time>
      </trkpt>
      <trkpt lat="47.4068" lon="6.72056">
        <ele>426</ele>
        <time>2015-03-08T10:08:09.000Z</time>
      </trkpt>
      <trkpt lat="47.4068" lon="6.72057">
        <ele>426</ele>
        <time>2015-03-08T10:08:10.000Z</time>
      </trkpt>
      <trkpt lat="47.4068" lon="6.72062">
        <ele>426</ele>
        <time>2015-03-08T10:08:14.000Z</time>
      </trkpt>
      <trkpt lat="47.4068" lon="6.72064">
        <ele>426</ele>
        <time>2015-03-08T10:08:15.000Z</time>
      </trkpt>
      <trkpt lat="47.40677" lon="6.72067">
        <ele>426</ele>
        <time>2015-03-08T10:08:18.000Z</time>
      </trkpt>
      <trkpt lat="47.40676" lon="6.72068">
        <ele>426</ele>
        <time>2015-03-08T10:08:19.000Z</time>
      </trkpt>
      <trkpt lat="47.40672" lon="6.72071">
        <ele>425</ele>
        <time>2015-03-08T10:08:29.000Z</time>
      </trkpt>
      <trkpt lat="47.40672" lon="6.72072">
        <ele>425</ele>
        <time>2015-03-08T10:08:30.000Z</time>
      </trkpt>
      <trkpt lat="47.40669" lon="6.72076">
        <ele>425</ele>
        <time>2015-03-08T10:08:33.000Z</time>
      </trkpt>
      <trkpt lat="47.40668" lon="6.72077">
        <ele>425</ele>
        <time>2015-03-08T10:08:34.000Z</time>
      </trkpt>
      <trkpt lat="47.40669" lon="6.72071">
        <ele>425</ele>
        <time>2015-03-08T10:08:47.000Z</time>
      </trkpt>
      <trkpt lat="47.4067" lon="6.72069">
        <ele>425</ele>
        <time>2015-03-08T10:08:48.000Z</time>
      </trkpt>
      <trkpt lat="47.40672" lon="6.72064">
        <ele>426</ele>
        <time>2015-03-08T10:08:51.000Z</time>
      </trkpt>
      <trkpt lat="47.40672" lon="6.72063">
        <ele>426</ele>
        <time>2015-03-08T10:08:52.000Z</time>
      </trkpt>
      <trkpt lat="47.40673" lon="6.72059">
        <ele>426</ele>
        <time>2015-03-08T10:08:56.000Z</time>
      </trkpt>
      <trkpt lat="47.40674" lon="6.72057">
        <ele>426</ele>
        <time>2015-03-08T10:08:57.000Z</time>
      </trkpt>
      <trkpt lat="47.40677" lon="6.72053">
        <ele>426</ele>
        <time>2015-03-08T10:09:00.000Z</time>
      </trkpt>
      <trkpt lat="47.40678" lon="6.72053">
        <ele>426</ele>
        <time>2015-03-08T10:09:01.000Z</time>
      </trkpt>
      <trkpt lat="47.40674" lon="6.72057">
        <ele>426</ele>
        <time>2015-03-08T10:09:21.000Z</time>
      </trkpt>
      <trkpt lat="47.40674" lon="6.72059">
        <ele>426</ele>
        <time>2015-03-08T10:09:22.000Z</time>
      </trkpt>
      <trkpt lat="47.40673" lon="6.72065">
        <ele>426</ele>
        <time>2015-03-08T10:09:26.000Z</time>
      </trkpt>
      <trkpt lat="47.40672" lon="6.72067">
        <ele>426</ele>
        <time>2015-03-08T10:09:27.000Z</time>
      </trkpt>
      <trkpt lat="47.4067" lon="6.72072">
        <ele>425</ele>
        <time>2015-03-08T10:09:29.000Z</time>
      </trkpt>
      <trkpt lat="47.40669" lon="6.72075">
        <ele>425</ele>
        <time>2015-03-08T10:09:30.000Z</time>
      </trkpt>
      <trkpt lat="47.40668" lon="6.72078">
        <ele>425</ele>
        <time>2015-03-08T10:09:31.000Z</time>
      </trkpt>
      <trkpt lat="47.40667" lon="6.72081">
        <ele>425</ele>
        <time>2015-03-08T10:09:32.000Z</time>
      </trkpt>
      <trkpt lat="47.40666" lon="6.72085">
        <ele>425</ele>
        <time>2015-03-08T10:09:33.000Z</time>
      </trkpt>
      <trkpt lat="47.40665" lon="6.72088">
        <ele>426</ele>
        <time>2015-03-08T10:09:34.000Z</time>
      </trkpt>
      <trkpt lat="47.40665" lon="6.72093">
        <ele>428</ele>
        <time>2015-03-08T10:09:36.000Z</time>
      </trkpt>
      <trkpt lat="47.40666" lon="6.72096">
        <ele>429</ele>
        <time>2015-03-08T10:09:37.000Z</time>
      </trkpt>
      <trkpt lat="47.40666" lon="6.72101">
        <ele>430</ele>
        <time>2015-03-08T10:09:39.000Z</time>
      </trkpt>
      <trkpt lat="47.40665" lon="6.72105">
        <ele>431</ele>
        <time>2015-03-08T10:09:40.000Z</time>
      </trkpt>
      <trkpt lat="47.40665" lon="6.72108">
        <ele>432</ele>
        <time>2015-03-08T10:09:41.000Z</time>
      </trkpt>
      <trkpt lat="47.40664" lon="6.72111">
        <ele>432</ele>
        <time>2015-03-08T10:09:42.000Z</time>
      </trkpt>
      <trkpt lat="47.40662" lon="6.72117">
        <ele>433</ele>
        <time>2015-03-08T10:09:44.000Z</time>
      </trkpt>
      <trkpt lat="47.40662" lon="6.7212">
        <ele>434</ele>
        <time>2015-03-08T10:09:45.000Z</time>
      </trkpt>
      <trkpt lat="47.40661" lon="6.72125">
        <ele>434</ele>
        <time>2015-03-08T10:09:46.000Z</time>
      </trkpt>
      <trkpt lat="47.4066" lon="6.72129">
        <ele>434</ele>
        <time>2015-03-08T10:09:47.000Z</time>
      </trkpt>
      <trkpt lat="47.40659" lon="6.72133">
        <ele>435</ele>
        <time>2015-03-08T10:09:48.000Z</time>
      </trkpt>
      <trkpt lat="47.40658" lon="6.72137">
        <ele>435</ele>
        <time>2015-03-08T10:09:49.000Z</time>
      </trkpt>
      <trkpt lat="47.40658" lon="6.72143">
        <ele>435</ele>
        <time>2015-03-08T10:09:51.000Z</time>
      </trkpt>
      <trkpt lat="47.40657" lon="6.72146">
        <ele>435</ele>
        <time>2015-03-08T10:09:52.000Z</time>
      </trkpt>
      <trkpt lat="47.40657" lon="6.7215">
        <ele>435</ele>
        <time>2015-03-08T10:09:53.000Z</time>
      </trkpt>
      <trkpt lat="47.40656" lon="6.72154">
        <ele>435</ele>
        <time>2015-03-08T10:09:54.000Z</time>
      </trkpt>
      <trkpt lat="47.40655" lon="6.72158">
        <ele>435</ele>
        <time>2015-03-08T10:09:55.000Z</time>
      </trkpt>
      <trkpt lat="47.40654" lon="6.72161">
        <ele>435</ele>
        <time>2015-03-08T10:09:56.000Z</time>
      </trkpt>
      <trkpt lat="47.40653" lon="6.72168">
        <ele>437</ele>
        <time>2015-03-08T10:09:58.000Z</time>
      </trkpt>
      <trkpt lat="47.40653" lon="6.72172">
        <ele>437</ele>
        <time>2015-03-08T10:09:59.000Z</time>
      </trkpt>
      <trkpt lat="47.40652" lon="6.72178">
        <ele>437</ele>
        <time>2015-03-08T10:10:02.000Z</time>
      </trkpt>
      <trkpt lat="47.40651" lon="6.72181">
        <ele>438</ele>
        <time>2015-03-08T10:10:03.000Z</time>
      </trkpt>
      <trkpt lat="47.4065" lon="6.72185">
        <ele>438</ele>
        <time>2015-03-08T10:10:05.000Z</time>
      </trkpt>
      <trkpt lat="47.4065" lon="6.72187">
        <ele>438</ele>
        <time>2015-03-08T10:10:06.000Z</time>
      </trkpt>
      <trkpt lat="47.40649" lon="6.72193">
        <ele>438</ele>
        <time>2015-03-08T10:10:08.000Z</time>
      </trkpt>
      <trkpt lat="47.40648" lon="6.72196">
        <ele>439</ele>
        <time>2015-03-08T10:10:09.000Z</time>
      </trkpt>
      <trkpt lat="47.40647" lon="6.72202">
        <ele>439</ele>
        <time>2015-03-08T10:10:11.000Z</time>
      </trkpt>
      <trkpt lat="47.40646" lon="6.72205">
        <ele>439</ele>
        <time>2015-03-08T10:10:12.000Z</time>
      </trkpt>
      <trkpt lat="47.40645" lon="6.72208">
        <ele>439</ele>
        <time>2015-03-08T10:10:13.000Z</time>
      </trkpt>
      <trkpt lat="47.40644" lon="6.72211">
        <ele>439</ele>
        <time>2015-03-08T10:10:14.000Z</time>
      </trkpt>
      <trkpt lat="47.40643" lon="6.72215">
        <ele>439</ele>
        <time>2015-03-08T10:10:15.000Z</time>
      </trkpt>
      <trkpt lat="47.40643" lon="6.72218">
        <ele>439</ele>
        <time>2015-03-08T10:10:16.000Z</time>
      </trkpt>
      <trkpt lat="47.40642" lon="6.72224">
        <ele>440</ele>
        <time>2015-03-08T10:10:18.000Z</time>
      </trkpt>
      <trkpt lat="47.40641" lon="6.72227">
        <ele>440</ele>
        <time>2015-03-08T10:10:19.000Z</time>
      </trkpt>
      <trkpt lat="47.40639" lon="6.72233">
        <ele>440</ele>
        <time>2015-03-08T10:10:21.000Z</time>
      </trkpt>
      <trkpt lat="47.40638" lon="6.72236">
        <ele>440</ele>
        <time>2015-03-08T10:10:22.000Z</time>
      </trkpt>
      <trkpt lat="47.40636" lon="6.7224">
        <ele>440</ele>
        <time>2015-03-08T10:10:23.000Z</time>
      </trkpt>
      <trkpt lat="47.40635" lon="6.72244">
        <ele>440</ele>
        <time>2015-03-08T10:10:24.000Z</time>
      </trkpt>
      <trkpt lat="47.40633" lon="6.72248">
        <ele>440</ele>
        <time>2015-03-08T10:10:25.000Z</time>
      </trkpt>
      <trkpt lat="47.40631" lon="6.72253">
        <ele>441</ele>
        <time>2015-03-08T10:10:26.000Z</time>
      </trkpt>
      <trkpt lat="47.4063" lon="6.72258">
        <ele>441</ele>
        <time>2015-03-08T10:10:27.000Z</time>
      </trkpt>
      <trkpt lat="47.40629" lon="6.72264">
        <ele>441</ele>
        <time>2015-03-08T10:10:28.000Z</time>
      </trkpt>
      <trkpt lat="47.40628" lon="6.72269">
        <ele>441</ele>
        <time>2015-03-08T10:10:29.000Z</time>
      </trkpt>
      <trkpt lat="47.40626" lon="6.72274">
        <ele>441</ele>
        <time>2015-03-08T10:10:30.000Z</time>
      </trkpt>
      <trkpt lat="47.40625" lon="6.72278">
        <ele>441</ele>
        <time>2015-03-08T10:10:31.000Z</time>
      </trkpt>
      <trkpt lat="47.40622" lon="6.72283">
        <ele>441</ele>
        <time>2015-03-08T10:10:32.000Z</time>
      </trkpt>
      <trkpt lat="47.4062" lon="6.72289">
        <ele>441</ele>
        <time>2015-03-08T10:10:33.000Z</time>
      </trkpt>
      <trkpt lat="47.40619" lon="6.72293">
        <ele>441</ele>
        <time>2015-03-08T10:10:34.000Z</time>
      </trkpt>
      <trkpt lat="47.40617" lon="6.72298">
        <ele>441</ele>
        <time>2015-03-08T10:10:35.000Z</time>
      </trkpt>
      <trkpt lat="47.40615" lon="6.72303">
        <ele>441</ele>
        <time>2015-03-08T10:10:36.000Z</time>
      </trkpt>
      <trkpt lat="47.40613" lon="6.72308">
        <ele>441</ele>
        <time>2015-03-08T10:10:37.000Z</time>
      </trkpt>
      <trkpt lat="47.40611" lon="6.72313">
        <ele>440</ele>
        <time>2015-03-08T10:10:38.000Z</time>
      </trkpt>
      <trkpt lat="47.40609" lon="6.72319">
        <ele>440</ele>
        <time>2015-03-08T10:10:39.000Z</time>
      </trkpt>
      <trkpt lat="47.40608" lon="6.72325">
        <ele>440</ele>
        <time>2015-03-08T10:10:40.000Z</time>
      </trkpt>
      <trkpt lat="47.40606" lon="6.72331">
        <ele>439</ele>
        <time>2015-03-08T10:10:41.000Z</time>
      </trkpt>
      <trkpt lat="47.40604" lon="6.72336">
        <ele>441</ele>
        <time>2015-03-08T10:10:42.000Z</time>
      </trkpt>
      <trkpt lat="47.40603" lon="6.7234">
        <ele>441</ele>
        <time>2015-03-08T10:10:43.000Z</time>
      </trkpt>
      <trkpt lat="47.40603" lon="6.72343">
        <ele>441</ele>
        <time>2015-03-08T10:10:44.000Z</time>
      </trkpt>
      <trkpt lat="47.40602" lon="6.72349">
        <ele>441</ele>
        <time>2015-03-08T10:10:46.000Z</time>
      </trkpt>
      <trkpt lat="47.40601" lon="6.72352">
        <ele>441</ele>
        <time>2015-03-08T10:10:47.000Z</time>
      </trkpt>
      <trkpt lat="47.40599" lon="6.72358">
        <ele>441</ele>
        <time>2015-03-08T10:10:49.000Z</time>
      </trkpt>
      <trkpt lat="47.40598" lon="6.72361">
        <ele>442</ele>
        <time>2015-03-08T10:10:50.000Z</time>
      </trkpt>
      <trkpt lat="47.40597" lon="6.72364">
        <ele>442</ele>
        <time>2015-03-08T10:10:51.000Z</time>
      </trkpt>
      <trkpt lat="47.40597" lon="6.72368">
        <ele>442</ele>
        <time>2015-03-08T10:10:52.000Z</time>
      </trkpt>
      <trkpt lat="47.40596" lon="6.72372">
        <ele>442</ele>
        <time>2015-03-08T10:10:53.000Z</time>
      </trkpt>
      <trkpt lat="47.40595" lon="6.72376">
        <ele>442</ele>
        <time>2015-03-08T10:10:54.000Z</time>
      </trkpt>
      <trkpt lat="47.40594" lon="6.72379">
        <ele>442</ele>
        <time>2015-03-08T10:10:55.000Z</time>
      </trkpt>
      <trkpt lat="47.40593" lon="6.72383">
        <ele>442</ele>
        <time>2015-03-08T10:10:56.000Z</time>
      </trkpt>
      <trkpt lat="47.40593" lon="6.72386">
        <ele>441</ele>
        <time>2015-03-08T10:10:57.000Z</time>
      </trkpt>
      <trkpt lat="47.40593" lon="6.7239">
        <ele>441</ele>
        <time>2015-03-08T10:10:58.000Z</time>
      </trkpt>
      <trkpt lat="47.40592" lon="6.72393">
        <ele>441</ele>
        <time>2015-03-08T10:10:59.000Z</time>
      </trkpt>
      <trkpt lat="47.40592" lon="6.72397">
        <ele>440</ele>
        <time>2015-03-08T10:11:00.000Z</time>
      </trkpt>
      <trkpt lat="47.40591" lon="6.72401">
        <ele>440</ele>
        <time>2015-03-08T10:11:01.000Z</time>
      </trkpt>
      <trkpt lat="47.40591" lon="6.72404">
        <ele>439</ele>
        <time>2015-03-08T10:11:02.000Z</time>
      </trkpt>
      <trkpt lat="47.4059" lon="6.7241">
        <ele>438</ele>
        <time>2015-03-08T10:11:04.000Z</time>
      </trkpt>
      <trkpt lat="47.4059" lon="6.72414">
        <ele>437</ele>
        <time>2015-03-08T10:11:05.000Z</time>
      </trkpt>
      <trkpt lat="47.40589" lon="6.72418">
        <ele>437</ele>
        <time>2015-03-08T10:11:06.000Z</time>
      </trkpt>
      <trkpt lat="47.40588" lon="6.72422">
        <ele>438</ele>
        <time>2015-03-08T10:11:07.000Z</time>
      </trkpt>
      <trkpt lat="47.40587" lon="6.72427">
        <ele>440</ele>
        <time>2015-03-08T10:11:08.000Z</time>
      </trkpt>
      <trkpt lat="47.40587" lon="6.72431">
        <ele>441</ele>
        <time>2015-03-08T10:11:09.000Z</time>
      </trkpt>
      <trkpt lat="47.40586" lon="6.72435">
        <ele>442</ele>
        <time>2015-03-08T10:11:10.000Z</time>
      </trkpt>
      <trkpt lat="47.40586" lon="6.72439">
        <ele>443</ele>
        <time>2015-03-08T10:11:11.000Z</time>
      </trkpt>
      <trkpt lat="47.40586" lon="6.72442">
        <ele>443</ele>
        <time>2015-03-08T10:11:12.000Z</time>
      </trkpt>
      <trkpt lat="47.40586" lon="6.72446">
        <ele>444</ele>
        <time>2015-03-08T10:11:13.000Z</time>
      </trkpt>
      <trkpt lat="47.40587" lon="6.7245">
        <ele>444</ele>
        <time>2015-03-08T10:11:14.000Z</time>
      </trkpt>
      <trkpt lat="47.40587" lon="6.72454">
        <ele>445</ele>
        <time>2015-03-08T10:11:15.000Z</time>
      </trkpt>
      <trkpt lat="47.40586" lon="6.72457">
        <ele>445</ele>
        <time>2015-03-08T10:11:16.000Z</time>
      </trkpt>
      <trkpt lat="47.40585" lon="6.7246">
        <ele>445</ele>
        <time>2015-03-08T10:11:17.000Z</time>
      </trkpt>
      <trkpt lat="47.40584" lon="6.72466">
        <ele>445</ele>
        <time>2015-03-08T10:11:19.000Z</time>
      </trkpt>
      <trkpt lat="47.40584" lon="6.72469">
        <ele>445</ele>
        <time>2015-03-08T10:11:20.000Z</time>
      </trkpt>
      <trkpt lat="47.40585" lon="6.72474">
        <ele>444</ele>
        <time>2015-03-08T10:11:22.000Z</time>
      </trkpt>
      <trkpt lat="47.40585" lon="6.72477">
        <ele>444</ele>
        <time>2015-03-08T10:11:23.000Z</time>
      </trkpt>
      <trkpt lat="47.40585" lon="6.7248">
        <ele>444</ele>
        <time>2015-03-08T10:11:24.000Z</time>
      </trkpt>
      <trkpt lat="47.40586" lon="6.72484">
        <ele>443</ele>
        <time>2015-03-08T10:11:25.000Z</time>
      </trkpt>
      <trkpt lat="47.40586" lon="6.72488">
        <ele>442</ele>
        <time>2015-03-08T10:11:26.000Z</time>
      </trkpt>
      <trkpt lat="47.40586" lon="6.72492">
        <ele>441</ele>
        <time>2015-03-08T10:11:27.000Z</time>
      </trkpt>
      <trkpt lat="47.40586" lon="6.72495">
        <ele>440</ele>
        <time>2015-03-08T10:11:28.000Z</time>
      </trkpt>
      <trkpt lat="47.40585" lon="6.72499">
        <ele>438</ele>
        <time>2015-03-08T10:11:29.000Z</time>
      </trkpt>
      <trkpt lat="47.40585" lon="6.72504">
        <ele>440</ele>
        <time>2015-03-08T10:11:31.000Z</time>
      </trkpt>
      <trkpt lat="47.40585" lon="6.72506">
        <ele>441</ele>
        <time>2015-03-08T10:11:32.000Z</time>
      </trkpt>
      <trkpt lat="47.40585" lon="6.72511">
        <ele>443</ele>
        <time>2015-03-08T10:11:34.000Z</time>
      </trkpt>
      <trkpt lat="47.40585" lon="6.72514">
        <ele>444</ele>
        <time>2015-03-08T10:11:35.000Z</time>
      </trkpt>
      <trkpt lat="47.40586" lon="6.72517">
        <ele>445</ele>
        <time>2015-03-08T10:11:36.000Z</time>
      </trkpt>
      <trkpt lat="47.40586" lon="6.72521">
        <ele>446</ele>
        <time>2015-03-08T10:11:37.000Z</time>
      </trkpt>
      <trkpt lat="47.40587" lon="6.72525">
        <ele>447</ele>
        <time>2015-03-08T10:11:38.000Z</time>
      </trkpt>
      <trkpt lat="47.40587" lon="6.72528">
        <ele>448</ele>
        <time>2015-03-08T10:11:39.000Z</time>
      </trkpt>
      <trkpt lat="47.40587" lon="6.72532">
        <ele>448</ele>
        <time>2015-03-08T10:11:40.000Z</time>
      </trkpt>
      <trkpt lat="47.40587" lon="6.72536">
        <ele>449</ele>
        <time>2015-03-08T10:11:41.000Z</time>
      </trkpt>
      <trkpt lat="47.40587" lon="6.7254">
        <ele>449</ele>
        <time>2015-03-08T10:11:42.000Z</time>
      </trkpt>
      <trkpt lat="47.40587" lon="6.72544">
        <ele>449</ele>
        <time>2015-03-08T10:11:43.000Z</time>
      </trkpt>
      <trkpt lat="47.40587" lon="6.72548">
        <ele>449</ele>
        <time>2015-03-08T10:11:44.000Z</time>
      </trkpt>
      <trkpt lat="47.40587" lon="6.72551">
        <ele>449</ele>
        <time>2015-03-08T10:11:45.000Z</time>
      </trkpt>
      <trkpt lat="47.40587" lon="6.72558">
        <ele>449</ele>
        <time>2015-03-08T10:11:47.000Z</time>
      </trkpt>
      <trkpt lat="47.40587" lon="6.72561">
        <ele>448</ele>
        <time>2015-03-08T10:11:48.000Z</time>
      </trkpt>
      <trkpt lat="47.40587" lon="6.72566">
        <ele>447</ele>
        <time>2015-03-08T10:11:50.000Z</time>
      </trkpt>
      <trkpt lat="47.40588" lon="6.7257">
        <ele>447</ele>
        <time>2015-03-08T10:11:51.000Z</time>
      </trkpt>
      <trkpt lat="47.40588" lon="6.72573">
        <ele>446</ele>
        <time>2015-03-08T10:11:52.000Z</time>
      </trkpt>
      <trkpt lat="47.40588" lon="6.72577">
        <ele>445</ele>
        <time>2015-03-08T10:11:53.000Z</time>
      </trkpt>
      <trkpt lat="47.40587" lon="6.72581">
        <ele>444</ele>
        <time>2015-03-08T10:11:54.000Z</time>
      </trkpt>
      <trkpt lat="47.40588" lon="6.72584">
        <ele>444</ele>
        <time>2015-03-08T10:11:55.000Z</time>
      </trkpt>
      <trkpt lat="47.40588" lon="6.72588">
        <ele>445</ele>
        <time>2015-03-08T10:11:56.000Z</time>
      </trkpt>
      <trkpt lat="47.40588" lon="6.72592">
        <ele>447</ele>
        <time>2015-03-08T10:11:57.000Z</time>
      </trkpt>
      <trkpt lat="47.40589" lon="6.72597">
        <ele>449</ele>
        <time>2015-03-08T10:11:58.000Z</time>
      </trkpt>
      <trkpt lat="47.40589" lon="6.72602">
        <ele>450</ele>
        <time>2015-03-08T10:11:59.000Z</time>
      </trkpt>
      <trkpt lat="47.40589" lon="6.72608">
        <ele>451</ele>
        <time>2015-03-08T10:12:00.000Z</time>
      </trkpt>
      <trkpt lat="47.40589" lon="6.72613">
        <ele>452</ele>
        <time>2015-03-08T10:12:01.000Z</time>
      </trkpt>
      <trkpt lat="47.40589" lon="6.72618">
        <ele>453</ele>
        <time>2015-03-08T10:12:02.000Z</time>
      </trkpt>
      <trkpt lat="47.40589" lon="6.72624">
        <ele>453</ele>
        <time>2015-03-08T10:12:03.000Z</time>
      </trkpt>
      <trkpt lat="47.40589" lon="6.7263">
        <ele>453</ele>
        <time>2015-03-08T10:12:04.000Z</time>
      </trkpt>
      <trkpt lat="47.40589" lon="6.72635">
        <ele>453</ele>
        <time>2015-03-08T10:12:05.000Z</time>
      </trkpt>
      <trkpt lat="47.4059" lon="6.7264">
        <ele>453</ele>
        <time>2015-03-08T10:12:06.000Z</time>
      </trkpt>
      <trkpt lat="47.4059" lon="6.72644">
        <ele>453</ele>
        <time>2015-03-08T10:12:07.000Z</time>
      </trkpt>
      <trkpt lat="47.4059" lon="6.72648">
        <ele>452</ele>
        <time>2015-03-08T10:12:08.000Z</time>
      </trkpt>
      <trkpt lat="47.4059" lon="6.72652">
        <ele>451</ele>
        <time>2015-03-08T10:12:09.000Z</time>
      </trkpt>
      <trkpt lat="47.40589" lon="6.72656">
        <ele>450</ele>
        <time>2015-03-08T10:12:10.000Z</time>
      </trkpt>
      <trkpt lat="47.40589" lon="6.7266">
        <ele>449</ele>
        <time>2015-03-08T10:12:11.000Z</time>
      </trkpt>
      <trkpt lat="47.40588" lon="6.72664">
        <ele>448</ele>
        <time>2015-03-08T10:12:12.000Z</time>
      </trkpt>
      <trkpt lat="47.40587" lon="6.72667">
        <ele>447</ele>
        <time>2015-03-08T10:12:13.000Z</time>
      </trkpt>
      <trkpt lat="47.40586" lon="6.72671">
        <ele>448</ele>
        <time>2015-03-08T10:12:14.000Z</time>
      </trkpt>
      <trkpt lat="47.40585" lon="6.72674">
        <ele>449</ele>
        <time>2015-03-08T10:12:15.000Z</time>
      </trkpt>
      <trkpt lat="47.40583" lon="6.72679">
        <ele>447</ele>
        <time>2015-03-08T10:12:17.000Z</time>
      </trkpt>
      <trkpt lat="47.40582" lon="6.72682">
        <ele>447</ele>
        <time>2015-03-08T10:12:18.000Z</time>
      </trkpt>
      <trkpt lat="47.4058" lon="6.72684">
        <ele>447</ele>
        <time>2015-03-08T10:12:19.000Z</time>
      </trkpt>
      <trkpt lat="47.40577" lon="6.72685">
        <ele>447</ele>
        <time>2015-03-08T10:12:20.000Z</time>
      </trkpt>
      <trkpt lat="47.40573" lon="6.72687">
        <ele>447</ele>
        <time>2015-03-08T10:12:21.000Z</time>
      </trkpt>
      <trkpt lat="47.40569" lon="6.72688">
        <ele>448</ele>
        <time>2015-03-08T10:12:22.000Z</time>
      </trkpt>
      <trkpt lat="47.40565" lon="6.72688">
        <ele>448</ele>
        <time>2015-03-08T10:12:23.000Z</time>
      </trkpt>
      <trkpt lat="47.40561" lon="6.72688">
        <ele>448</ele>
        <time>2015-03-08T10:12:24.000Z</time>
      </trkpt>
      <trkpt lat="47.40557" lon="6.72689">
        <ele>448</ele>
        <time>2015-03-08T10:12:25.000Z</time>
      </trkpt>
      <trkpt lat="47.40553" lon="6.72688">
        <ele>448</ele>
        <time>2015-03-08T10:12:26.000Z</time>
      </trkpt>
      <trkpt lat="47.4055" lon="6.72687">
        <ele>449</ele>
        <time>2015-03-08T10:12:27.000Z</time>
      </trkpt>
      <trkpt lat="47.40548" lon="6.72686">
        <ele>449</ele>
        <time>2015-03-08T10:12:28.000Z</time>
      </trkpt>
      <trkpt lat="47.40545" lon="6.72682">
        <ele>449</ele>
        <time>2015-03-08T10:12:30.000Z</time>
      </trkpt>
      <trkpt lat="47.40544" lon="6.7268">
        <ele>449</ele>
        <time>2015-03-08T10:12:31.000Z</time>
      </trkpt>
      <trkpt lat="47.40542" lon="6.72674">
        <ele>449</ele>
        <time>2015-03-08T10:12:33.000Z</time>
      </trkpt>
      <trkpt lat="47.40542" lon="6.7267">
        <ele>449</ele>
        <time>2015-03-08T10:12:34.000Z</time>
      </trkpt>
      <trkpt lat="47.40541" lon="6.72666">
        <ele>448</ele>
        <time>2015-03-08T10:12:35.000Z</time>
      </trkpt>
      <trkpt lat="47.40541" lon="6.72662">
        <ele>448</ele>
        <time>2015-03-08T10:12:36.000Z</time>
      </trkpt>
      <trkpt lat="47.40541" lon="6.72657">
        <ele>448</ele>
        <time>2015-03-08T10:12:37.000Z</time>
      </trkpt>
      <trkpt lat="47.40541" lon="6.72653">
        <ele>448</ele>
        <time>2015-03-08T10:12:38.000Z</time>
      </trkpt>
      <trkpt lat="47.40541" lon="6.72649">
        <ele>447</ele>
        <time>2015-03-08T10:12:39.000Z</time>
      </trkpt>
      <trkpt lat="47.40541" lon="6.72645">
        <ele>447</ele>
        <time>2015-03-08T10:12:40.000Z</time>
      </trkpt>
      <trkpt lat="47.40541" lon="6.72642">
        <ele>447</ele>
        <time>2015-03-08T10:12:41.000Z</time>
      </trkpt>
      <trkpt lat="47.40541" lon="6.72638">
        <ele>447</ele>
        <time>2015-03-08T10:12:42.000Z</time>
      </trkpt>
      <trkpt lat="47.40541" lon="6.72633">
        <ele>447</ele>
        <time>2015-03-08T10:12:44.000Z</time>
      </trkpt>
      <trkpt lat="47.40541" lon="6.72631">
        <ele>447</ele>
        <time>2015-03-08T10:12:45.000Z</time>
      </trkpt>
      <trkpt lat="47.40541" lon="6.72624">
        <ele>447</ele>
        <time>2015-03-08T10:12:47.000Z</time>
      </trkpt>
      <trkpt lat="47.40541" lon="6.7262">
        <ele>447</ele>
        <time>2015-03-08T10:12:48.000Z</time>
      </trkpt>
      <trkpt lat="47.40541" lon="6.72615">
        <ele>447</ele>
        <time>2015-03-08T10:12:49.000Z</time>
      </trkpt>
      <trkpt lat="47.40542" lon="6.7261">
        <ele>447</ele>
        <time>2015-03-08T10:12:50.000Z</time>
      </trkpt>
      <trkpt lat="47.40543" lon="6.72605">
        <ele>447</ele>
        <time>2015-03-08T10:12:51.000Z</time>
      </trkpt>
      <trkpt lat="47.40544" lon="6.726">
        <ele>446</ele>
        <time>2015-03-08T10:12:52.000Z</time>
      </trkpt>
      <trkpt lat="47.40544" lon="6.72595">
        <ele>446</ele>
        <time>2015-03-08T10:12:53.000Z</time>
      </trkpt>
      <trkpt lat="47.40545" lon="6.72591">
        <ele>446</ele>
        <time>2015-03-08T10:12:54.000Z</time>
      </trkpt>
      <trkpt lat="47.40546" lon="6.72588">
        <ele>446</ele>
        <time>2015-03-08T10:12:55.000Z</time>
      </trkpt>
      <trkpt lat="47.40547" lon="6.72584">
        <ele>446</ele>
        <time>2015-03-08T10:12:56.000Z</time>
      </trkpt>
      <trkpt lat="47.40547" lon="6.7258">
        <ele>444</ele>
        <time>2015-03-08T10:12:57.000Z</time>
      </trkpt>
      <trkpt lat="47.40548" lon="6.72574">
        <ele>444</ele>
        <time>2015-03-08T10:12:58.000Z</time>
      </trkpt>
      <trkpt lat="47.40548" lon="6.72569">
        <ele>443</ele>
        <time>2015-03-08T10:12:59.000Z</time>
      </trkpt>
      <trkpt lat="47.40548" lon="6.72564">
        <ele>443</ele>
        <time>2015-03-08T10:13:00.000Z</time>
      </trkpt>
      <trkpt lat="47.40548" lon="6.72559">
        <ele>443</ele>
        <time>2015-03-08T10:13:01.000Z</time>
      </trkpt>
      <trkpt lat="47.40548" lon="6.72554">
        <ele>443</ele>
        <time>2015-03-08T10:13:02.000Z</time>
      </trkpt>
      <trkpt lat="47.40548" lon="6.72548">
        <ele>443</ele>
        <time>2015-03-08T10:13:03.000Z</time>
      </trkpt>
      <trkpt lat="47.40548" lon="6.72542">
        <ele>443</ele>
        <time>2015-03-08T10:13:04.000Z</time>
      </trkpt>
      <trkpt lat="47.40548" lon="6.72536">
        <ele>443</ele>
        <time>2015-03-08T10:13:05.000Z</time>
      </trkpt>
      <trkpt lat="47.40548" lon="6.7253">
        <ele>443</ele>
        <time>2015-03-08T10:13:06.000Z</time>
      </trkpt>
      <trkpt lat="47.40547" lon="6.72523">
        <ele>442</ele>
        <time>2015-03-08T10:13:07.000Z</time>
      </trkpt>
      <trkpt lat="47.40546" lon="6.72518">
        <ele>442</ele>
        <time>2015-03-08T10:13:08.000Z</time>
      </trkpt>
      <trkpt lat="47.40545" lon="6.72512">
        <ele>442</ele>
        <time>2015-03-08T10:13:09.000Z</time>
      </trkpt>
      <trkpt lat="47.40543" lon="6.72507">
        <ele>442</ele>
        <time>2015-03-08T10:13:10.000Z</time>
      </trkpt>
      <trkpt lat="47.40542" lon="6.72502">
        <ele>442</ele>
        <time>2015-03-08T10:13:11.000Z</time>
      </trkpt>
      <trkpt lat="47.40541" lon="6.72496">
        <ele>439</ele>
        <time>2015-03-08T10:13:12.000Z</time>
      </trkpt>
      <trkpt lat="47.40539" lon="6.72491">
        <ele>439</ele>
        <time>2015-03-08T10:13:13.000Z</time>
      </trkpt>
      <trkpt lat="47.40538" lon="6.72486">
        <ele>439</ele>
        <time>2015-03-08T10:13:14.000Z</time>
      </trkpt>
      <trkpt lat="47.40537" lon="6.72481">
        <ele>439</ele>
        <time>2015-03-08T10:13:15.000Z</time>
      </trkpt>
      <trkpt lat="47.40535" lon="6.72478">
        <ele>439</ele>
        <time>2015-03-08T10:13:16.000Z</time>
      </trkpt>
      <trkpt lat="47.40533" lon="6.72476">
        <ele>439</ele>
        <time>2015-03-08T10:13:17.000Z</time>
      </trkpt>
      <trkpt lat="47.40531" lon="6.72474">
        <ele>439</ele>
        <time>2015-03-08T10:13:18.000Z</time>
      </trkpt>
      <trkpt lat="47.40529" lon="6.72473">
        <ele>439</ele>
        <time>2015-03-08T10:13:19.000Z</time>
      </trkpt>
      <trkpt lat="47.40527" lon="6.72471">
        <ele>439</ele>
        <time>2015-03-08T10:13:20.000Z</time>
      </trkpt>
      <trkpt lat="47.40524" lon="6.72469">
        <ele>439</ele>
        <time>2015-03-08T10:13:21.000Z</time>
      </trkpt>
      <trkpt lat="47.40521" lon="6.72466">
        <ele>439</ele>
        <time>2015-03-08T10:13:22.000Z</time>
      </trkpt>
      <trkpt lat="47.40518" lon="6.72463">
        <ele>439</ele>
        <time>2015-03-08T10:13:23.000Z</time>
      </trkpt>
      <trkpt lat="47.40514" lon="6.72459">
        <ele>438</ele>
        <time>2015-03-08T10:13:24.000Z</time>
      </trkpt>
      <trkpt lat="47.4051" lon="6.72456">
        <ele>438</ele>
        <time>2015-03-08T10:13:25.000Z</time>
      </trkpt>
      <trkpt lat="47.40505" lon="6.72452">
        <ele>438</ele>
        <time>2015-03-08T10:13:26.000Z</time>
      </trkpt>
      <trkpt lat="47.40501" lon="6.72449">
        <ele>438</ele>
        <time>2015-03-08T10:13:27.000Z</time>
      </trkpt>
      <trkpt lat="47.40497" lon="6.72446">
        <ele>443</ele>
        <time>2015-03-08T10:13:28.000Z</time>
      </trkpt>
      <trkpt lat="47.40492" lon="6.72442">
        <ele>443</ele>
        <time>2015-03-08T10:13:29.000Z</time>
      </trkpt>
      <trkpt lat="47.40488" lon="6.72439">
        <ele>443</ele>
        <time>2015-03-08T10:13:30.000Z</time>
      </trkpt>
      <trkpt lat="47.40484" lon="6.72435">
        <ele>443</ele>
        <time>2015-03-08T10:13:31.000Z</time>
      </trkpt>
      <trkpt lat="47.4048" lon="6.72433">
        <ele>443</ele>
        <time>2015-03-08T10:13:32.000Z</time>
      </trkpt>
      <trkpt lat="47.40475" lon="6.7243">
        <ele>444</ele>
        <time>2015-03-08T10:13:33.000Z</time>
      </trkpt>
      <trkpt lat="47.40471" lon="6.72427">
        <ele>444</ele>
        <time>2015-03-08T10:13:34.000Z</time>
      </trkpt>
      <trkpt lat="47.40467" lon="6.72424">
        <ele>445</ele>
        <time>2015-03-08T10:13:35.000Z</time>
      </trkpt>
      <trkpt lat="47.40462" lon="6.72421">
        <ele>445</ele>
        <time>2015-03-08T10:13:36.000Z</time>
      </trkpt>
      <trkpt lat="47.40458" lon="6.72418">
        <ele>446</ele>
        <time>2015-03-08T10:13:37.000Z</time>
      </trkpt>
      <trkpt lat="47.40454" lon="6.72415">
        <ele>444</ele>
        <time>2015-03-08T10:13:38.000Z</time>
      </trkpt>
      <trkpt lat="47.4045" lon="6.72413">
        <ele>445</ele>
        <time>2015-03-08T10:13:39.000Z</time>
      </trkpt>
      <trkpt lat="47.40445" lon="6.7241">
        <ele>445</ele>
        <time>2015-03-08T10:13:40.000Z</time>
      </trkpt>
      <trkpt lat="47.40441" lon="6.72408">
        <ele>446</ele>
        <time>2015-03-08T10:13:41.000Z</time>
      </trkpt>
      <trkpt lat="47.40437" lon="6.72406">
        <ele>446</ele>
        <time>2015-03-08T10:13:42.000Z</time>
      </trkpt>
      <trkpt lat="47.40433" lon="6.72403">
        <ele>446</ele>
        <time>2015-03-08T10:13:43.000Z</time>
      </trkpt>
      <trkpt lat="47.4043" lon="6.72402">
        <ele>447</ele>
        <time>2015-03-08T10:13:44.000Z</time>
      </trkpt>
      <trkpt lat="47.40426" lon="6.72401">
        <ele>447</ele>
        <time>2015-03-08T10:13:45.000Z</time>
      </trkpt>
      <trkpt lat="47.40423" lon="6.72399">
        <ele>447</ele>
        <time>2015-03-08T10:13:46.000Z</time>
      </trkpt>
      <trkpt lat="47.4042" lon="6.72397">
        <ele>447</ele>
        <time>2015-03-08T10:13:47.000Z</time>
      </trkpt>
      <trkpt lat="47.40416" lon="6.72395">
        <ele>452</ele>
        <time>2015-03-08T10:13:48.000Z</time>
      </trkpt>
      <trkpt lat="47.40413" lon="6.72393">
        <ele>452</ele>
        <time>2015-03-08T10:13:49.000Z</time>
      </trkpt>
      <trkpt lat="47.40409" lon="6.72392">
        <ele>452</ele>
        <time>2015-03-08T10:13:50.000Z</time>
      </trkpt>
      <trkpt lat="47.40405" lon="6.7239">
        <ele>452</ele>
        <time>2015-03-08T10:13:51.000Z</time>
      </trkpt>
      <trkpt lat="47.40401" lon="6.72389">
        <ele>453</ele>
        <time>2015-03-08T10:13:52.000Z</time>
      </trkpt>
      <trkpt lat="47.40397" lon="6.72387">
        <ele>453</ele>
        <time>2015-03-08T10:13:53.000Z</time>
      </trkpt>
      <trkpt lat="47.40393" lon="6.72385">
        <ele>453</ele>
        <time>2015-03-08T10:13:54.000Z</time>
      </trkpt>
      <trkpt lat="47.40389" lon="6.72384">
        <ele>453</ele>
        <time>2015-03-08T10:13:55.000Z</time>
      </trkpt>
      <trkpt lat="47.40385" lon="6.72383">
        <ele>454</ele>
        <time>2015-03-08T10:13:56.000Z</time>
      </trkpt>
      <trkpt lat="47.40381" lon="6.72382">
        <ele>454</ele>
        <time>2015-03-08T10:13:57.000Z</time>
      </trkpt>
      <trkpt lat="47.40377" lon="6.7238">
        <ele>454</ele>
        <time>2015-03-08T10:13:58.000Z</time>
      </trkpt>
      <trkpt lat="47.40372" lon="6.72379">
        <ele>454</ele>
        <time>2015-03-08T10:13:59.000Z</time>
      </trkpt>
      <trkpt lat="47.40368" lon="6.72377">
        <ele>454</ele>
        <time>2015-03-08T10:14:00.000Z</time>
      </trkpt>
      <trkpt lat="47.40364" lon="6.72374">
        <ele>455</ele>
        <time>2015-03-08T10:14:01.000Z</time>
      </trkpt>
      <trkpt lat="47.40359" lon="6.72372">
        <ele>455</ele>
        <time>2015-03-08T10:14:02.000Z</time>
      </trkpt>
      <trkpt lat="47.40355" lon="6.7237">
        <ele>455</ele>
        <time>2015-03-08T10:14:03.000Z</time>
      </trkpt>
      <trkpt lat="47.40351" lon="6.72368">
        <ele>455</ele>
        <time>2015-03-08T10:14:04.000Z</time>
      </trkpt>
      <trkpt lat="47.40348" lon="6.72367">
        <ele>455</ele>
        <time>2015-03-08T10:14:05.000Z</time>
      </trkpt>
      <trkpt lat="47.40344" lon="6.72366">
        <ele>455</ele>
        <time>2015-03-08T10:14:06.000Z</time>
      </trkpt>
      <trkpt lat="47.4034" lon="6.72364">
        <ele>455</ele>
        <time>2015-03-08T10:14:07.000Z</time>
      </trkpt>
      <trkpt lat="47.40337" lon="6.72363">
        <ele>455</ele>
        <time>2015-03-08T10:14:08.000Z</time>
      </trkpt>
      <trkpt lat="47.40333" lon="6.72361">
        <ele>461</ele>
        <time>2015-03-08T10:14:09.000Z</time>
      </trkpt>
      <trkpt lat="47.40329" lon="6.72359">
        <ele>461</ele>
        <time>2015-03-08T10:14:10.000Z</time>
      </trkpt>
      <trkpt lat="47.40325" lon="6.72357">
        <ele>460</ele>
        <time>2015-03-08T10:14:11.000Z</time>
      </trkpt>
      <trkpt lat="47.40322" lon="6.72354">
        <ele>460</ele>
        <time>2015-03-08T10:14:12.000Z</time>
      </trkpt>
      <trkpt lat="47.40319" lon="6.72352">
        <ele>460</ele>
        <time>2015-03-08T10:14:13.000Z</time>
      </trkpt>
      <trkpt lat="47.40316" lon="6.72349">
        <ele>460</ele>
        <time>2015-03-08T10:14:14.000Z</time>
      </trkpt>
      <trkpt lat="47.40313" lon="6.72346">
        <ele>460</ele>
        <time>2015-03-08T10:14:15.000Z</time>
      </trkpt>
      <trkpt lat="47.40311" lon="6.72343">
        <ele>460</ele>
        <time>2015-03-08T10:14:16.000Z</time>
      </trkpt>
      <trkpt lat="47.40308" lon="6.7234">
        <ele>461</ele>
        <time>2015-03-08T10:14:17.000Z</time>
      </trkpt>
      <trkpt lat="47.40305" lon="6.72337">
        <ele>461</ele>
        <time>2015-03-08T10:14:18.000Z</time>
      </trkpt>
      <trkpt lat="47.40302" lon="6.72334">
        <ele>461</ele>
        <time>2015-03-08T10:14:19.000Z</time>
      </trkpt>
      <trkpt lat="47.40299" lon="6.72331">
        <ele>461</ele>
        <time>2015-03-08T10:14:20.000Z</time>
      </trkpt>
      <trkpt lat="47.40296" lon="6.72327">
        <ele>461</ele>
        <time>2015-03-08T10:14:21.000Z</time>
      </trkpt>
      <trkpt lat="47.40293" lon="6.72323">
        <ele>461</ele>
        <time>2015-03-08T10:14:22.000Z</time>
      </trkpt>
      <trkpt lat="47.4029" lon="6.7232">
        <ele>462</ele>
        <time>2015-03-08T10:14:23.000Z</time>
      </trkpt>
      <trkpt lat="47.40287" lon="6.72317">
        <ele>462</ele>
        <time>2015-03-08T10:14:24.000Z</time>
      </trkpt>
      <trkpt lat="47.40284" lon="6.72315">
        <ele>462</ele>
        <time>2015-03-08T10:14:25.000Z</time>
      </trkpt>
      <trkpt lat="47.40281" lon="6.72313">
        <ele>462</ele>
        <time>2015-03-08T10:14:26.000Z</time>
      </trkpt>
      <trkpt lat="47.40278" lon="6.72312">
        <ele>462</ele>
        <time>2015-03-08T10:14:27.000Z</time>
      </trkpt>
      <trkpt lat="47.40275" lon="6.7231">
        <ele>462</ele>
        <time>2015-03-08T10:14:28.000Z</time>
      </trkpt>
      <trkpt lat="47.40272" lon="6.72309">
        <ele>462</ele>
        <time>2015-03-08T10:14:29.000Z</time>
      </trkpt>
      <trkpt lat="47.40269" lon="6.72307">
        <ele>462</ele>
        <time>2015-03-08T10:14:30.000Z</time>
      </trkpt>
      <trkpt lat="47.40266" lon="6.72304">
        <ele>462</ele>
        <time>2015-03-08T10:14:31.000Z</time>
      </trkpt>
      <trkpt lat="47.40264" lon="6.72303">
        <ele>463</ele>
        <time>2015-03-08T10:14:32.000Z</time>
      </trkpt>
      <trkpt lat="47.40261" lon="6.72302">
        <ele>463</ele>
        <time>2015-03-08T10:14:33.000Z</time>
      </trkpt>
      <trkpt lat="47.40259" lon="6.72301">
        <ele>463</ele>
        <time>2015-03-08T10:14:34.000Z</time>
      </trkpt>
      <trkpt lat="47.40255" lon="6.723">
        <ele>463</ele>
        <time>2015-03-08T10:14:36.000Z</time>
      </trkpt>
      <trkpt lat="47.40253" lon="6.72299">
        <ele>463</ele>
        <time>2015-03-08T10:14:37.000Z</time>
      </trkpt>
      <trkpt lat="47.4025" lon="6.723">
        <ele>464</ele>
        <time>2015-03-08T10:14:39.000Z</time>
      </trkpt>
      <trkpt lat="47.40248" lon="6.723">
        <ele>464</ele>
        <time>2015-03-08T10:14:40.000Z</time>
      </trkpt>
      <trkpt lat="47.40245" lon="6.723">
        <ele>464</ele>
        <time>2015-03-08T10:14:41.000Z</time>
      </trkpt>
      <trkpt lat="47.40243" lon="6.723">
        <ele>464</ele>
        <time>2015-03-08T10:14:42.000Z</time>
      </trkpt>
      <trkpt lat="47.40239" lon="6.723">
        <ele>464</ele>
        <time>2015-03-08T10:14:44.000Z</time>
      </trkpt>
      <trkpt lat="47.40237" lon="6.723">
        <ele>464</ele>
        <time>2015-03-08T10:14:45.000Z</time>
      </trkpt>
      <trkpt lat="47.40234" lon="6.72298">
        <ele>464</ele>
        <time>2015-03-08T10:14:46.000Z</time>
      </trkpt>
      <trkpt lat="47.40231" lon="6.72296">
        <ele>464</ele>
        <time>2015-03-08T10:14:47.000Z</time>
      </trkpt>
      <trkpt lat="47.40229" lon="6.72295">
        <ele>464</ele>
        <time>2015-03-08T10:14:48.000Z</time>
      </trkpt>
      <trkpt lat="47.40226" lon="6.72294">
        <ele>465</ele>
        <time>2015-03-08T10:14:49.000Z</time>
      </trkpt>
      <trkpt lat="47.40224" lon="6.72293">
        <ele>465</ele>
        <time>2015-03-08T10:14:50.000Z</time>
      </trkpt>
      <trkpt lat="47.40221" lon="6.72293">
        <ele>465</ele>
        <time>2015-03-08T10:14:51.000Z</time>
      </trkpt>
      <trkpt lat="47.40219" lon="6.72293">
        <ele>465</ele>
        <time>2015-03-08T10:14:52.000Z</time>
      </trkpt>
      <trkpt lat="47.40216" lon="6.72292">
        <ele>465</ele>
        <time>2015-03-08T10:14:53.000Z</time>
      </trkpt>
      <trkpt lat="47.40214" lon="6.72292">
        <ele>465</ele>
        <time>2015-03-08T10:14:54.000Z</time>
      </trkpt>
      <trkpt lat="47.40211" lon="6.72291">
        <ele>465</ele>
        <time>2015-03-08T10:14:55.000Z</time>
      </trkpt>
      <trkpt lat="47.40208" lon="6.7229">
        <ele>465</ele>
        <time>2015-03-08T10:14:56.000Z</time>
      </trkpt>
      <trkpt lat="47.40205" lon="6.72289">
        <ele>465</ele>
        <time>2015-03-08T10:14:57.000Z</time>
      </trkpt>
      <trkpt lat="47.40203" lon="6.72288">
        <ele>465</ele>
        <time>2015-03-08T10:14:58.000Z</time>
      </trkpt>
      <trkpt lat="47.402" lon="6.72288">
        <ele>465</ele>
        <time>2015-03-08T10:14:59.000Z</time>
      </trkpt>
      <trkpt lat="47.40198" lon="6.72287">
        <ele>465</ele>
        <time>2015-03-08T10:15:00.000Z</time>
      </trkpt>
      <trkpt lat="47.40195" lon="6.72287">
        <ele>465</ele>
        <time>2015-03-08T10:15:01.000Z</time>
      </trkpt>
      <trkpt lat="47.40192" lon="6.72286">
        <ele>465</ele>
        <time>2015-03-08T10:15:02.000Z</time>
      </trkpt>
      <trkpt lat="47.4019" lon="6.72286">
        <ele>465</ele>
        <time>2015-03-08T10:15:03.000Z</time>
      </trkpt>
      <trkpt lat="47.40187" lon="6.72285">
        <ele>465</ele>
        <time>2015-03-08T10:15:04.000Z</time>
      </trkpt>
      <trkpt lat="47.40184" lon="6.72285">
        <ele>465</ele>
        <time>2015-03-08T10:15:05.000Z</time>
      </trkpt>
      <trkpt lat="47.40181" lon="6.72285">
        <ele>465</ele>
        <time>2015-03-08T10:15:06.000Z</time>
      </trkpt>
      <trkpt lat="47.40179" lon="6.72285">
        <ele>465</ele>
        <time>2015-03-08T10:15:07.000Z</time>
      </trkpt>
      <trkpt lat="47.40176" lon="6.72285">
        <ele>465</ele>
        <time>2015-03-08T10:15:08.000Z</time>
      </trkpt>
      <trkpt lat="47.40174" lon="6.72285">
        <ele>465</ele>
        <time>2015-03-08T10:15:09.000Z</time>
      </trkpt>
      <trkpt lat="47.40172" lon="6.72284">
        <ele>465</ele>
        <time>2015-03-08T10:15:10.000Z</time>
      </trkpt>
      <trkpt lat="47.40169" lon="6.72284">
        <ele>465</ele>
        <time>2015-03-08T10:15:11.000Z</time>
      </trkpt>
      <trkpt lat="47.40165" lon="6.72285">
        <ele>469</ele>
        <time>2015-03-08T10:15:13.000Z</time>
      </trkpt>
      <trkpt lat="47.40163" lon="6.72285">
        <ele>469</ele>
        <time>2015-03-08T10:15:14.000Z</time>
      </trkpt>
      <trkpt lat="47.40159" lon="6.72285">
        <ele>469</ele>
        <time>2015-03-08T10:15:16.000Z</time>
      </trkpt>
      <trkpt lat="47.40157" lon="6.72285">
        <ele>469</ele>
        <time>2015-03-08T10:15:17.000Z</time>
      </trkpt>
      <trkpt lat="47.40153" lon="6.72286">
        <ele>470</ele>
        <time>2015-03-08T10:15:19.000Z</time>
      </trkpt>
      <trkpt lat="47.40151" lon="6.72286">
        <ele>470</ele>
        <time>2015-03-08T10:15:20.000Z</time>
      </trkpt>
      <trkpt lat="47.40148" lon="6.72286">
        <ele>470</ele>
        <time>2015-03-08T10:15:21.000Z</time>
      </trkpt>
      <trkpt lat="47.40146" lon="6.72286">
        <ele>470</ele>
        <time>2015-03-08T10:15:22.000Z</time>
      </trkpt>
      <trkpt lat="47.40143" lon="6.72285">
        <ele>470</ele>
        <time>2015-03-08T10:15:23.000Z</time>
      </trkpt>
      <trkpt lat="47.4014" lon="6.72284">
        <ele>470</ele>
        <time>2015-03-08T10:15:24.000Z</time>
      </trkpt>
      <trkpt lat="47.40138" lon="6.72283">
        <ele>470</ele>
        <time>2015-03-08T10:15:25.000Z</time>
      </trkpt>
      <trkpt lat="47.40135" lon="6.72282">
        <ele>470</ele>
        <time>2015-03-08T10:15:26.000Z</time>
      </trkpt>
      <trkpt lat="47.40133" lon="6.72281">
        <ele>470</ele>
        <time>2015-03-08T10:15:27.000Z</time>
      </trkpt>
      <trkpt lat="47.4013" lon="6.72279">
        <ele>470</ele>
        <time>2015-03-08T10:15:28.000Z</time>
      </trkpt>
      <trkpt lat="47.40128" lon="6.72278">
        <ele>470</ele>
        <time>2015-03-08T10:15:29.000Z</time>
      </trkpt>
      <trkpt lat="47.40126" lon="6.72278">
        <ele>470</ele>
        <time>2015-03-08T10:15:30.000Z</time>
      </trkpt>
      <trkpt lat="47.40121" lon="6.72278">
        <ele>471</ele>
        <time>2015-03-08T10:15:32.000Z</time>
      </trkpt>
      <trkpt lat="47.40119" lon="6.72278">
        <ele>471</ele>
        <time>2015-03-08T10:15:33.000Z</time>
      </trkpt>
      <trkpt lat="47.40117" lon="6.72277">
        <ele>471</ele>
        <time>2015-03-08T10:15:34.000Z</time>
      </trkpt>
      <trkpt lat="47.40114" lon="6.72276">
        <ele>471</ele>
        <time>2015-03-08T10:15:35.000Z</time>
      </trkpt>
      <trkpt lat="47.40112" lon="6.72274">
        <ele>471</ele>
        <time>2015-03-08T10:15:36.000Z</time>
      </trkpt>
      <trkpt lat="47.40109" lon="6.72271">
        <ele>471</ele>
        <time>2015-03-08T10:15:37.000Z</time>
      </trkpt>
      <trkpt lat="47.40106" lon="6.72269">
        <ele>471</ele>
        <time>2015-03-08T10:15:38.000Z</time>
      </trkpt>
      <trkpt lat="47.40104" lon="6.72267">
        <ele>470</ele>
        <time>2015-03-08T10:15:39.000Z</time>
      </trkpt>
      <trkpt lat="47.40102" lon="6.72264">
        <ele>470</ele>
        <time>2015-03-08T10:15:40.000Z</time>
      </trkpt>
      <trkpt lat="47.401" lon="6.72262">
        <ele>470</ele>
        <time>2015-03-08T10:15:41.000Z</time>
      </trkpt>
      <trkpt lat="47.40098" lon="6.7226">
        <ele>470</ele>
        <time>2015-03-08T10:15:42.000Z</time>
      </trkpt>
      <trkpt lat="47.40096" lon="6.72257">
        <ele>470</ele>
        <time>2015-03-08T10:15:43.000Z</time>
      </trkpt>
      <trkpt lat="47.40094" lon="6.72254">
        <ele>470</ele>
        <time>2015-03-08T10:15:44.000Z</time>
      </trkpt>
      <trkpt lat="47.40093" lon="6.72251">
        <ele>470</ele>
        <time>2015-03-08T10:15:45.000Z</time>
      </trkpt>
      <trkpt lat="47.4009" lon="6.72246">
        <ele>469</ele>
        <time>2015-03-08T10:15:47.000Z</time>
      </trkpt>
      <trkpt lat="47.40089" lon="6.72244">
        <ele>469</ele>
        <time>2015-03-08T10:15:48.000Z</time>
      </trkpt>
      <trkpt lat="47.40086" lon="6.7224">
        <ele>470</ele>
        <time>2015-03-08T10:15:50.000Z</time>
      </trkpt>
      <trkpt lat="47.40086" lon="6.72238">
        <ele>470</ele>
        <time>2015-03-08T10:15:51.000Z</time>
      </trkpt>
      <trkpt lat="47.40084" lon="6.72235">
        <ele>470</ele>
        <time>2015-03-08T10:15:53.000Z</time>
      </trkpt>
      <trkpt lat="47.40083" lon="6.72233">
        <ele>473</ele>
        <time>2015-03-08T10:15:54.000Z</time>
      </trkpt>
      <trkpt lat="47.4008" lon="6.72228">
        <ele>474</ele>
        <time>2015-03-08T10:15:56.000Z</time>
      </trkpt>
      <trkpt lat="47.40079" lon="6.72226">
        <ele>474</ele>
        <time>2015-03-08T10:15:57.000Z</time>
      </trkpt>
      <trkpt lat="47.40075" lon="6.72223">
        <ele>475</ele>
        <time>2015-03-08T10:15:59.000Z</time>
      </trkpt>
      <trkpt lat="47.40073" lon="6.72222">
        <ele>475</ele>
        <time>2015-03-08T10:16:00.000Z</time>
      </trkpt>
      <trkpt lat="47.40069" lon="6.72221">
        <ele>475</ele>
        <time>2015-03-08T10:16:03.000Z</time>
      </trkpt>
      <trkpt lat="47.40068" lon="6.72219">
        <ele>475</ele>
        <time>2015-03-08T10:16:04.000Z</time>
      </trkpt>
      <trkpt lat="47.40067" lon="6.72215">
        <ele>476</ele>
        <time>2015-03-08T10:16:06.000Z</time>
      </trkpt>
      <trkpt lat="47.40065" lon="6.72212">
        <ele>476</ele>
        <time>2015-03-08T10:16:07.000Z</time>
      </trkpt>
      <trkpt lat="47.40062" lon="6.72208">
        <ele>476</ele>
        <time>2015-03-08T10:16:09.000Z</time>
      </trkpt>
      <trkpt lat="47.4006" lon="6.72206">
        <ele>477</ele>
        <time>2015-03-08T10:16:10.000Z</time>
      </trkpt>
      <trkpt lat="47.40057" lon="6.72201">
        <ele>477</ele>
        <time>2015-03-08T10:16:12.000Z</time>
      </trkpt>
      <trkpt lat="47.40056" lon="6.722">
        <ele>477</ele>
        <time>2015-03-08T10:16:13.000Z</time>
      </trkpt>
      <trkpt lat="47.40054" lon="6.72196">
        <ele>477</ele>
        <time>2015-03-08T10:16:15.000Z</time>
      </trkpt>
      <trkpt lat="47.40053" lon="6.72194">
        <ele>477</ele>
        <time>2015-03-08T10:16:16.000Z</time>
      </trkpt>
      <trkpt lat="47.40051" lon="6.72192">
        <ele>477</ele>
        <time>2015-03-08T10:16:18.000Z</time>
      </trkpt>
      <trkpt lat="47.40049" lon="6.72192">
        <ele>477</ele>
        <time>2015-03-08T10:16:19.000Z</time>
      </trkpt>
      <trkpt lat="47.40046" lon="6.72192">
        <ele>477</ele>
        <time>2015-03-08T10:16:20.000Z</time>
      </trkpt>
      <trkpt lat="47.40044" lon="6.72191">
        <ele>477</ele>
        <time>2015-03-08T10:16:21.000Z</time>
      </trkpt>
      <trkpt lat="47.40041" lon="6.72191">
        <ele>477</ele>
        <time>2015-03-08T10:16:22.000Z</time>
      </trkpt>
      <trkpt lat="47.40039" lon="6.7219">
        <ele>477</ele>
        <time>2015-03-08T10:16:23.000Z</time>
      </trkpt>
      <trkpt lat="47.40037" lon="6.72189">
        <ele>477</ele>
        <time>2015-03-08T10:16:24.000Z</time>
      </trkpt>
      <trkpt lat="47.40034" lon="6.72188">
        <ele>477</ele>
        <time>2015-03-08T10:16:25.000Z</time>
      </trkpt>
      <trkpt lat="47.40031" lon="6.72186">
        <ele>477</ele>
        <time>2015-03-08T10:16:27.000Z</time>
      </trkpt>
      <trkpt lat="47.40029" lon="6.72184">
        <ele>477</ele>
        <time>2015-03-08T10:16:28.000Z</time>
      </trkpt>
      <trkpt lat="47.40026" lon="6.72181">
        <ele>477</ele>
        <time>2015-03-08T10:16:31.000Z</time>
      </trkpt>
      <trkpt lat="47.40025" lon="6.7218">
        <ele>477</ele>
        <time>2015-03-08T10:16:32.000Z</time>
      </trkpt>
      <trkpt lat="47.40022" lon="6.72177">
        <ele>477</ele>
        <time>2015-03-08T10:16:34.000Z</time>
      </trkpt>
      <trkpt lat="47.40021" lon="6.72176">
        <ele>477</ele>
        <time>2015-03-08T10:16:35.000Z</time>
      </trkpt>
      <trkpt lat="47.40018" lon="6.72172">
        <ele>477</ele>
        <time>2015-03-08T10:16:37.000Z</time>
      </trkpt>
      <trkpt lat="47.40017" lon="6.72171">
        <ele>477</ele>
        <time>2015-03-08T10:16:38.000Z</time>
      </trkpt>
      <trkpt lat="47.40014" lon="6.72166">
        <ele>479</ele>
        <time>2015-03-08T10:16:42.000Z</time>
      </trkpt>
      <trkpt lat="47.40013" lon="6.72165">
        <ele>479</ele>
        <time>2015-03-08T10:16:43.000Z</time>
      </trkpt>
      <trkpt lat="47.4001" lon="6.72162">
        <ele>479</ele>
        <time>2015-03-08T10:16:45.000Z</time>
      </trkpt>
      <trkpt lat="47.40008" lon="6.7216">
        <ele>479</ele>
        <time>2015-03-08T10:16:46.000Z</time>
      </trkpt>
      <trkpt lat="47.40006" lon="6.72158">
        <ele>479</ele>
        <time>2015-03-08T10:16:47.000Z</time>
      </trkpt>
      <trkpt lat="47.40004" lon="6.72156">
        <ele>479</ele>
        <time>2015-03-08T10:16:48.000Z</time>
      </trkpt>
      <trkpt lat="47.40002" lon="6.72153">
        <ele>479</ele>
        <time>2015-03-08T10:16:49.000Z</time>
      </trkpt>
      <trkpt lat="47.4" lon="6.72151">
        <ele>480</ele>
        <time>2015-03-08T10:16:50.000Z</time>
      </trkpt>
      <trkpt lat="47.39997" lon="6.72148">
        <ele>481</ele>
        <time>2015-03-08T10:16:51.000Z</time>
      </trkpt>
      <trkpt lat="47.39995" lon="6.72146">
        <ele>481</ele>
        <time>2015-03-08T10:16:52.000Z</time>
      </trkpt>
      <trkpt lat="47.39991" lon="6.72143">
        <ele>481</ele>
        <time>2015-03-08T10:16:54.000Z</time>
      </trkpt>
      <trkpt lat="47.39989" lon="6.72141">
        <ele>482</ele>
        <time>2015-03-08T10:16:55.000Z</time>
      </trkpt>
      <trkpt lat="47.39987" lon="6.72138">
        <ele>482</ele>
        <time>2015-03-08T10:16:57.000Z</time>
      </trkpt>
      <trkpt lat="47.39985" lon="6.72136">
        <ele>482</ele>
        <time>2015-03-08T10:16:58.000Z</time>
      </trkpt>
      <trkpt lat="47.39982" lon="6.72132">
        <ele>483</ele>
        <time>2015-03-08T10:17:00.000Z</time>
      </trkpt>
      <trkpt lat="47.39981" lon="6.7213">
        <ele>483</ele>
        <time>2015-03-08T10:17:01.000Z</time>
      </trkpt>
      <trkpt lat="47.39978" lon="6.72126">
        <ele>483</ele>
        <time>2015-03-08T10:17:03.000Z</time>
      </trkpt>
      <trkpt lat="47.39977" lon="6.72125">
        <ele>483</ele>
        <time>2015-03-08T10:17:04.000Z</time>
      </trkpt>
      <trkpt lat="47.39975" lon="6.72122">
        <ele>483</ele>
        <time>2015-03-08T10:17:05.000Z</time>
      </trkpt>
      <trkpt lat="47.39973" lon="6.72119">
        <ele>483</ele>
        <time>2015-03-08T10:17:06.000Z</time>
      </trkpt>
      <trkpt lat="47.39972" lon="6.72116">
        <ele>483</ele>
        <time>2015-03-08T10:17:07.000Z</time>
      </trkpt>
      <trkpt lat="47.39971" lon="6.72113">
        <ele>483</ele>
        <time>2015-03-08T10:17:08.000Z</time>
      </trkpt>
      <trkpt lat="47.3997" lon="6.72107">
        <ele>483</ele>
        <time>2015-03-08T10:17:10.000Z</time>
      </trkpt>
      <trkpt lat="47.3997" lon="6.72105">
        <ele>483</ele>
        <time>2015-03-08T10:17:11.000Z</time>
      </trkpt>
      <trkpt lat="47.39972" lon="6.72101">
        <ele>483</ele>
        <time>2015-03-08T10:17:13.000Z</time>
      </trkpt>
      <trkpt lat="47.39974" lon="6.72098">
        <ele>483</ele>
        <time>2015-03-08T10:17:14.000Z</time>
      </trkpt>
      <trkpt lat="47.39975" lon="6.72095">
        <ele>483</ele>
        <time>2015-03-08T10:17:15.000Z</time>
      </trkpt>
      <trkpt lat="47.39977" lon="6.72092">
        <ele>483</ele>
        <time>2015-03-08T10:17:16.000Z</time>
      </trkpt>
      <trkpt lat="47.39979" lon="6.72089">
        <ele>483</ele>
        <time>2015-03-08T10:17:17.000Z</time>
      </trkpt>
      <trkpt lat="47.39981" lon="6.72086">
        <ele>483</ele>
        <time>2015-03-08T10:17:18.000Z</time>
      </trkpt>
      <trkpt lat="47.39984" lon="6.72082">
        <ele>486</ele>
        <time>2015-03-08T10:17:20.000Z</time>
      </trkpt>
      <trkpt lat="47.39984" lon="6.72082">
        <ele>486</ele>
        <time>2015-03-08T10:17:21.000Z</time>
      </trkpt>
      <trkpt lat="47.39988" lon="6.72082">
        <ele>486</ele>
        <time>2015-03-08T10:17:26.000Z</time>
      </trkpt>
      <trkpt lat="47.39989" lon="6.72082">
        <ele>485</ele>
        <time>2015-03-08T10:17:27.000Z</time>
      </trkpt>
      <trkpt lat="47.39993" lon="6.7208">
        <ele>485</ele>
        <time>2015-03-08T10:17:29.000Z</time>
      </trkpt>
      <trkpt lat="47.39994" lon="6.72079">
        <ele>485</ele>
        <time>2015-03-08T10:17:30.000Z</time>
      </trkpt>
      <trkpt lat="47.39998" lon="6.72078">
        <ele>485</ele>
        <time>2015-03-08T10:17:33.000Z</time>
      </trkpt>
      <trkpt lat="47.39999" lon="6.72078">
        <ele>485</ele>
        <time>2015-03-08T10:17:34.000Z</time>
      </trkpt>
      <trkpt lat="47.40003" lon="6.72078">
        <ele>485</ele>
        <time>2015-03-08T10:17:37.000Z</time>
      </trkpt>
      <trkpt lat="47.40005" lon="6.72079">
        <ele>485</ele>
        <time>2015-03-08T10:17:38.000Z</time>
      </trkpt>
      <trkpt lat="47.40009" lon="6.72081">
        <ele>486</ele>
        <time>2015-03-08T10:17:40.000Z</time>
      </trkpt>
      <trkpt lat="47.40011" lon="6.72081">
        <ele>486</ele>
        <time>2015-03-08T10:17:41.000Z</time>
      </trkpt>
      <trkpt lat="47.40014" lon="6.72082">
        <ele>486</ele>
        <time>2015-03-08T10:17:42.000Z</time>
      </trkpt>
      <trkpt lat="47.40016" lon="6.72082">
        <ele>487</ele>
        <time>2015-03-08T10:17:43.000Z</time>
      </trkpt>
      <trkpt lat="47.4002" lon="6.72082">
        <ele>487</ele>
        <time>2015-03-08T10:17:45.000Z</time>
      </trkpt>
      <trkpt lat="47.40022" lon="6.72082">
        <ele>488</ele>
        <time>2015-03-08T10:17:46.000Z</time>
      </trkpt>
      <trkpt lat="47.40025" lon="6.72083">
        <ele>488</ele>
        <time>2015-03-08T10:17:47.000Z</time>
      </trkpt>
      <trkpt lat="47.40027" lon="6.72083">
        <ele>488</ele>
        <time>2015-03-08T10:17:48.000Z</time>
      </trkpt>
      <trkpt lat="47.40031" lon="6.72084">
        <ele>483</ele>
        <time>2015-03-08T10:17:50.000Z</time>
      </trkpt>
      <trkpt lat="47.40033" lon="6.72085">
        <ele>483</ele>
        <time>2015-03-08T10:17:51.000Z</time>
      </trkpt>
      <trkpt lat="47.40037" lon="6.72086">
        <ele>483</ele>
        <time>2015-03-08T10:17:53.000Z</time>
      </trkpt>
      <trkpt lat="47.40039" lon="6.72087">
        <ele>483</ele>
        <time>2015-03-08T10:17:54.000Z</time>
      </trkpt>
      <trkpt lat="47.40042" lon="6.72091">
        <ele>483</ele>
        <time>2015-03-08T10:17:56.000Z</time>
      </trkpt>
      <trkpt lat="47.40043" lon="6.72093">
        <ele>483</ele>
        <time>2015-03-08T10:17:57.000Z</time>
      </trkpt>
      <trkpt lat="47.40046" lon="6.72096">
        <ele>483</ele>
        <time>2015-03-08T10:18:00.000Z</time>
      </trkpt>
      <trkpt lat="47.40047" lon="6.72097">
        <ele>483</ele>
        <time>2015-03-08T10:18:01.000Z</time>
      </trkpt>
      <trkpt lat="47.4005" lon="6.72101">
        <ele>483</ele>
        <time>2015-03-08T10:18:03.000Z</time>
      </trkpt>
      <trkpt lat="47.40052" lon="6.72103">
        <ele>483</ele>
        <time>2015-03-08T10:18:04.000Z</time>
      </trkpt>
      <trkpt lat="47.40055" lon="6.72107">
        <ele>483</ele>
        <time>2015-03-08T10:18:06.000Z</time>
      </trkpt>
      <trkpt lat="47.40057" lon="6.72108">
        <ele>483</ele>
        <time>2015-03-08T10:18:07.000Z</time>
      </trkpt>
      <trkpt lat="47.40059" lon="6.72111">
        <ele>483</ele>
        <time>2015-03-08T10:18:09.000Z</time>
      </trkpt>
      <trkpt lat="47.4006" lon="6.72112">
        <ele>483</ele>
        <time>2015-03-08T10:18:10.000Z</time>
      </trkpt>
      <trkpt lat="47.40064" lon="6.72116">
        <ele>483</ele>
        <time>2015-03-08T10:18:12.000Z</time>
      </trkpt>
      <trkpt lat="47.40066" lon="6.72118">
        <ele>483</ele>
        <time>2015-03-08T10:18:13.000Z</time>
      </trkpt>
      <trkpt lat="47.40068" lon="6.7212">
        <ele>483</ele>
        <time>2015-03-08T10:18:14.000Z</time>
      </trkpt>
      <trkpt lat="47.4007" lon="6.72122">
        <ele>483</ele>
        <time>2015-03-08T10:18:15.000Z</time>
      </trkpt>
      <trkpt lat="47.40072" lon="6.72124">
        <ele>482</ele>
        <time>2015-03-08T10:18:16.000Z</time>
      </trkpt>
      <trkpt lat="47.40074" lon="6.72126">
        <ele>482</ele>
        <time>2015-03-08T10:18:17.000Z</time>
      </trkpt>
      <trkpt lat="47.40078" lon="6.72127">
        <ele>482</ele>
        <time>2015-03-08T10:18:19.000Z</time>
      </trkpt>
      <trkpt lat="47.40079" lon="6.72128">
        <ele>482</ele>
        <time>2015-03-08T10:18:20.000Z</time>
      </trkpt>
      <trkpt lat="47.40083" lon="6.7213">
        <ele>482</ele>
        <time>2015-03-08T10:18:24.000Z</time>
      </trkpt>
      <trkpt lat="47.40083" lon="6.72131">
        <ele>482</ele>
        <time>2015-03-08T10:18:25.000Z</time>
      </trkpt>
      <trkpt lat="47.40087" lon="6.72134">
        <ele>482</ele>
        <time>2015-03-08T10:18:28.000Z</time>
      </trkpt>
      <trkpt lat="47.40089" lon="6.72135">
        <ele>481</ele>
        <time>2015-03-08T10:18:29.000Z</time>
      </trkpt>
      <trkpt lat="47.40091" lon="6.72135">
        <ele>481</ele>
        <time>2015-03-08T10:18:30.000Z</time>
      </trkpt>
      <trkpt lat="47.40094" lon="6.72135">
        <ele>481</ele>
        <time>2015-03-08T10:18:31.000Z</time>
      </trkpt>
      <trkpt lat="47.40097" lon="6.72136">
        <ele>481</ele>
        <time>2015-03-08T10:18:32.000Z</time>
      </trkpt>
      <trkpt lat="47.401" lon="6.72136">
        <ele>481</ele>
        <time>2015-03-08T10:18:33.000Z</time>
      </trkpt>
      <trkpt lat="47.40103" lon="6.72136">
        <ele>481</ele>
        <time>2015-03-08T10:18:34.000Z</time>
      </trkpt>
      <trkpt lat="47.40105" lon="6.72136">
        <ele>481</ele>
        <time>2015-03-08T10:18:35.000Z</time>
      </trkpt>
      <trkpt lat="47.40107" lon="6.72135">
        <ele>481</ele>
        <time>2015-03-08T10:18:36.000Z</time>
      </trkpt>
      <trkpt lat="47.4011" lon="6.72135">
        <ele>481</ele>
        <time>2015-03-08T10:18:37.000Z</time>
      </trkpt>
      <trkpt lat="47.40114" lon="6.72132">
        <ele>482</ele>
        <time>2015-03-08T10:18:39.000Z</time>
      </trkpt>
      <trkpt lat="47.40115" lon="6.72131">
        <ele>482</ele>
        <time>2015-03-08T10:18:40.000Z</time>
      </trkpt>
      <trkpt lat="47.40117" lon="6.72126">
        <ele>482</ele>
        <time>2015-03-08T10:18:42.000Z</time>
      </trkpt>
      <trkpt lat="47.40118" lon="6.72124">
        <ele>482</ele>
        <time>2015-03-08T10:18:43.000Z</time>
      </trkpt>
      <trkpt lat="47.40118" lon="6.7212">
        <ele>482</ele>
        <time>2015-03-08T10:18:44.000Z</time>
      </trkpt>
      <trkpt lat="47.40118" lon="6.72117">
        <ele>482</ele>
        <time>2015-03-08T10:18:45.000Z</time>
      </trkpt>
      <trkpt lat="47.40118" lon="6.72113">
        <ele>483</ele>
        <time>2015-03-08T10:18:46.000Z</time>
      </trkpt>
      <trkpt lat="47.40118" lon="6.72109">
        <ele>483</ele>
        <time>2015-03-08T10:18:47.000Z</time>
      </trkpt>
      <trkpt lat="47.40119" lon="6.72106">
        <ele>483</ele>
        <time>2015-03-08T10:18:48.000Z</time>
      </trkpt>
      <trkpt lat="47.40119" lon="6.72103">
        <ele>483</ele>
        <time>2015-03-08T10:18:49.000Z</time>
      </trkpt>
      <trkpt lat="47.40119" lon="6.72099">
        <ele>483</ele>
        <time>2015-03-08T10:18:50.000Z</time>
      </trkpt>
      <trkpt lat="47.4012" lon="6.72095">
        <ele>484</ele>
        <time>2015-03-08T10:18:51.000Z</time>
      </trkpt>
      <trkpt lat="47.4012" lon="6.72092">
        <ele>484</ele>
        <time>2015-03-08T10:18:52.000Z</time>
      </trkpt>
      <trkpt lat="47.4012" lon="6.72088">
        <ele>484</ele>
        <time>2015-03-08T10:18:53.000Z</time>
      </trkpt>
      <trkpt lat="47.40119" lon="6.72084">
        <ele>484</ele>
        <time>2015-03-08T10:18:54.000Z</time>
      </trkpt>
      <trkpt lat="47.40119" lon="6.7208">
        <ele>489</ele>
        <time>2015-03-08T10:18:55.000Z</time>
      </trkpt>
      <trkpt lat="47.40119" lon="6.72077">
        <ele>489</ele>
        <time>2015-03-08T10:18:56.000Z</time>
      </trkpt>
      <trkpt lat="47.40119" lon="6.72074">
        <ele>489</ele>
        <time>2015-03-08T10:18:57.000Z</time>
      </trkpt>
      <trkpt lat="47.40119" lon="6.7207">
        <ele>489</ele>
        <time>2015-03-08T10:18:58.000Z</time>
      </trkpt>
      <trkpt lat="47.40119" lon="6.72066">
        <ele>489</ele>
        <time>2015-03-08T10:18:59.000Z</time>
      </trkpt>
      <trkpt lat="47.40119" lon="6.72063">
        <ele>489</ele>
        <time>2015-03-08T10:19:00.000Z</time>
      </trkpt>
      <trkpt lat="47.40119" lon="6.72059">
        <ele>489</ele>
        <time>2015-03-08T10:19:01.000Z</time>
      </trkpt>
      <trkpt lat="47.40119" lon="6.72055">
        <ele>489</ele>
        <time>2015-03-08T10:19:02.000Z</time>
      </trkpt>
      <trkpt lat="47.40119" lon="6.72051">
        <ele>490</ele>
        <time>2015-03-08T10:19:03.000Z</time>
      </trkpt>
      <trkpt lat="47.40119" lon="6.72047">
        <ele>490</ele>
        <time>2015-03-08T10:19:04.000Z</time>
      </trkpt>
      <trkpt lat="47.4012" lon="6.72043">
        <ele>490</ele>
        <time>2015-03-08T10:19:05.000Z</time>
      </trkpt>
      <trkpt lat="47.40121" lon="6.72038">
        <ele>490</ele>
        <time>2015-03-08T10:19:07.000Z</time>
      </trkpt>
      <trkpt lat="47.40121" lon="6.72035">
        <ele>490</ele>
        <time>2015-03-08T10:19:08.000Z</time>
      </trkpt>
      <trkpt lat="47.40122" lon="6.72029">
        <ele>490</ele>
        <time>2015-03-08T10:19:10.000Z</time>
      </trkpt>
      <trkpt lat="47.40123" lon="6.72026">
        <ele>490</ele>
        <time>2015-03-08T10:19:11.000Z</time>
      </trkpt>
      <trkpt lat="47.40123" lon="6.72022">
        <ele>490</ele>
        <time>2015-03-08T10:19:12.000Z</time>
      </trkpt>
      <trkpt lat="47.40123" lon="6.72019">
        <ele>491</ele>
        <time>2015-03-08T10:19:13.000Z</time>
      </trkpt>
      <trkpt lat="47.40124" lon="6.72015">
        <ele>491</ele>
        <time>2015-03-08T10:19:14.000Z</time>
      </trkpt>
      <trkpt lat="47.40124" lon="6.72012">
        <ele>491</ele>
        <time>2015-03-08T10:19:15.000Z</time>
      </trkpt>
      <trkpt lat="47.40124" lon="6.72008">
        <ele>491</ele>
        <time>2015-03-08T10:19:16.000Z</time>
      </trkpt>
      <trkpt lat="47.40124" lon="6.72005">
        <ele>491</ele>
        <time>2015-03-08T10:19:17.000Z</time>
      </trkpt>
      <trkpt lat="47.40124" lon="6.72001">
        <ele>491</ele>
        <time>2015-03-08T10:19:18.000Z</time>
      </trkpt>
      <trkpt lat="47.40124" lon="6.71998">
        <ele>493</ele>
        <time>2015-03-08T10:19:19.000Z</time>
      </trkpt>
      <trkpt lat="47.40123" lon="6.71995">
        <ele>493</ele>
        <time>2015-03-08T10:19:20.000Z</time>
      </trkpt>
      <trkpt lat="47.40123" lon="6.71991">
        <ele>493</ele>
        <time>2015-03-08T10:19:21.000Z</time>
      </trkpt>
      <trkpt lat="47.40122" lon="6.71987">
        <ele>493</ele>
        <time>2015-03-08T10:19:22.000Z</time>
      </trkpt>
      <trkpt lat="47.40122" lon="6.71983">
        <ele>493</ele>
        <time>2015-03-08T10:19:23.000Z</time>
      </trkpt>
      <trkpt lat="47.40122" lon="6.71979">
        <ele>493</ele>
        <time>2015-03-08T10:19:24.000Z</time>
      </trkpt>
      <trkpt lat="47.40122" lon="6.71975">
        <ele>493</ele>
        <time>2015-03-08T10:19:25.000Z</time>
      </trkpt>
      <trkpt lat="47.40121" lon="6.71972">
        <ele>493</ele>
        <time>2015-03-08T10:19:26.000Z</time>
      </trkpt>
      <trkpt lat="47.40121" lon="6.71968">
        <ele>493</ele>
        <time>2015-03-08T10:19:27.000Z</time>
      </trkpt>
      <trkpt lat="47.40121" lon="6.71964">
        <ele>493</ele>
        <time>2015-03-08T10:19:28.000Z</time>
      </trkpt>
      <trkpt lat="47.40121" lon="6.7196">
        <ele>493</ele>
        <time>2015-03-08T10:19:29.000Z</time>
      </trkpt>
      <trkpt lat="47.40121" lon="6.71957">
        <ele>493</ele>
        <time>2015-03-08T10:19:30.000Z</time>
      </trkpt>
      <trkpt lat="47.4012" lon="6.71953">
        <ele>493</ele>
        <time>2015-03-08T10:19:31.000Z</time>
      </trkpt>
      <trkpt lat="47.4012" lon="6.71947">
        <ele>493</ele>
        <time>2015-03-08T10:19:33.000Z</time>
      </trkpt>
      <trkpt lat="47.4012" lon="6.71944">
        <ele>493</ele>
        <time>2015-03-08T10:19:34.000Z</time>
      </trkpt>
      <trkpt lat="47.4012" lon="6.71938">
        <ele>493</ele>
        <time>2015-03-08T10:19:36.000Z</time>
      </trkpt>
      <trkpt lat="47.4012" lon="6.71934">
        <ele>493</ele>
        <time>2015-03-08T10:19:37.000Z</time>
      </trkpt>
      <trkpt lat="47.4012" lon="6.71929">
        <ele>493</ele>
        <time>2015-03-08T10:19:39.000Z</time>
      </trkpt>
      <trkpt lat="47.40119" lon="6.71927">
        <ele>493</ele>
        <time>2015-03-08T10:19:40.000Z</time>
      </trkpt>
      <trkpt lat="47.40116" lon="6.71923">
        <ele>493</ele>
        <time>2015-03-08T10:19:44.000Z</time>
      </trkpt>
      <trkpt lat="47.40115" lon="6.71922">
        <ele>493</ele>
        <time>2015-03-08T10:19:45.000Z</time>
      </trkpt>
      <trkpt lat="47.40111" lon="6.71921">
        <ele>494</ele>
        <time>2015-03-08T10:19:48.000Z</time>
      </trkpt>
      <trkpt lat="47.4011" lon="6.71921">
        <ele>494</ele>
        <time>2015-03-08T10:19:49.000Z</time>
      </trkpt>
      <trkpt lat="47.40114" lon="6.7192">
        <ele>493</ele>
        <time>2015-03-08T10:21:37.000Z</time>
      </trkpt>
      <trkpt lat="47.40115" lon="6.7192">
        <ele>493</ele>
        <time>2015-03-08T10:21:38.000Z</time>
      </trkpt>
      <trkpt lat="47.40119" lon="6.71918">
        <ele>493</ele>
        <time>2015-03-08T10:21:44.000Z</time>
      </trkpt>
      <trkpt lat="47.4012" lon="6.71918">
        <ele>493</ele>
        <time>2015-03-08T10:21:45.000Z</time>
      </trkpt>
      <trkpt lat="47.40121" lon="6.71924">
        <ele>493</ele>
        <time>2015-03-08T10:23:50.000Z</time>
      </trkpt>
      <trkpt lat="47.40121" lon="6.71924">
        <ele>493</ele>
        <time>2015-03-08T10:23:51.000Z</time>
      </trkpt>
      <trkpt lat="47.40117" lon="6.71925">
        <ele>493</ele>
        <time>2015-03-08T10:24:11.000Z</time>
      </trkpt>
      <trkpt lat="47.40117" lon="6.71925">
        <ele>493</ele>
        <time>2015-03-08T10:24:12.000Z</time>
      </trkpt>
      <trkpt lat="47.40116" lon="6.71919">
        <ele>493</ele>
        <time>2015-03-08T10:26:40.000Z</time>
      </trkpt>
      <trkpt lat="47.40117" lon="6.71917">
        <ele>493</ele>
        <time>2015-03-08T10:26:41.000Z</time>
      </trkpt>
      <trkpt lat="47.40115" lon="6.71924">
        <ele>493</ele>
        <time>2015-03-08T10:27:08.000Z</time>
      </trkpt>
      <trkpt lat="47.40114" lon="6.71924">
        <ele>493</ele>
        <time>2015-03-08T10:27:09.000Z</time>
      </trkpt>
      <trkpt lat="47.40111" lon="6.71926">
        <ele>494</ele>
        <time>2015-03-08T10:27:37.000Z</time>
      </trkpt>
      <trkpt lat="47.4011" lon="6.71927">
        <ele>494</ele>
        <time>2015-03-08T10:27:38.000Z</time>
      </trkpt>
      <trkpt lat="47.40107" lon="6.7193">
        <ele>494</ele>
        <time>2015-03-08T10:27:40.000Z</time>
      </trkpt>
      <trkpt lat="47.40105" lon="6.71932">
        <ele>494</ele>
        <time>2015-03-08T10:27:41.000Z</time>
      </trkpt>
      <trkpt lat="47.40102" lon="6.71934">
        <ele>494</ele>
        <time>2015-03-08T10:27:42.000Z</time>
      </trkpt>
      <trkpt lat="47.401" lon="6.71936">
        <ele>494</ele>
        <time>2015-03-08T10:27:42.999Z</time>
      </trkpt>
      <trkpt lat="47.40097" lon="6.71939">
        <ele>494</ele>
        <time>2015-03-08T10:27:44.002Z</time>
      </trkpt>
      <trkpt lat="47.40094" lon="6.71942">
        <ele>494</ele>
        <time>2015-03-08T10:27:45.000Z</time>
      </trkpt>
      <trkpt lat="47.40091" lon="6.71946">
        <ele>494</ele>
        <time>2015-03-08T10:27:46.000Z</time>
      </trkpt>
      <trkpt lat="47.40088" lon="6.71949">
        <ele>494</ele>
        <time>2015-03-08T10:27:47.000Z</time>
      </trkpt>
      <trkpt lat="47.40085" lon="6.71953">
        <ele>494</ele>
        <time>2015-03-08T10:27:48.000Z</time>
      </trkpt>
      <trkpt lat="47.40082" lon="6.71956">
        <ele>496</ele>
        <time>2015-03-08T10:27:49.000Z</time>
      </trkpt>
      <trkpt lat="47.40079" lon="6.71959">
        <ele>496</ele>
        <time>2015-03-08T10:27:50.000Z</time>
      </trkpt>
      <trkpt lat="47.40077" lon="6.71961">
        <ele>496</ele>
        <time>2015-03-08T10:27:51.000Z</time>
      </trkpt>
      <trkpt lat="47.40073" lon="6.71964">
        <ele>496</ele>
        <time>2015-03-08T10:27:52.000Z</time>
      </trkpt>
      <trkpt lat="47.4007" lon="6.71966">
        <ele>496</ele>
        <time>2015-03-08T10:27:53.000Z</time>
      </trkpt>
      <trkpt lat="47.40067" lon="6.71969">
        <ele>496</ele>
        <time>2015-03-08T10:27:54.000Z</time>
      </trkpt>
      <trkpt lat="47.40065" lon="6.71971">
        <ele>496</ele>
        <time>2015-03-08T10:27:55.000Z</time>
      </trkpt>
      <trkpt lat="47.40062" lon="6.71974">
        <ele>496</ele>
        <time>2015-03-08T10:27:56.000Z</time>
      </trkpt>
      <trkpt lat="47.4006" lon="6.71977">
        <ele>496</ele>
        <time>2015-03-08T10:27:57.000Z</time>
      </trkpt>
      <trkpt lat="47.40058" lon="6.71979">
        <ele>496</ele>
        <time>2015-03-08T10:27:58.001Z</time>
      </trkpt>
      <trkpt lat="47.40056" lon="6.71984">
        <ele>496</ele>
        <time>2015-03-08T10:27:59.000Z</time>
      </trkpt>
      <trkpt lat="47.40053" lon="6.71985">
        <ele>496</ele>
        <time>2015-03-08T10:28:01.000Z</time>
      </trkpt>
      <trkpt lat="47.40051" lon="6.71984">
        <ele>497</ele>
        <time>2015-03-08T10:28:02.000Z</time>
      </trkpt>
      <trkpt lat="47.40048" lon="6.71982">
        <ele>497</ele>
        <time>2015-03-08T10:28:03.105Z</time>
      </trkpt>
      <trkpt lat="47.40044" lon="6.71979">
        <ele>497</ele>
        <time>2015-03-08T10:28:05.000Z</time>
      </trkpt>
      <trkpt lat="47.4004" lon="6.71977">
        <ele>497</ele>
        <time>2015-03-08T10:28:07.000Z</time>
      </trkpt>
      <trkpt lat="47.40038" lon="6.71976">
        <ele>497</ele>
        <time>2015-03-08T10:28:08.000Z</time>
      </trkpt>
      <trkpt lat="47.40034" lon="6.71974">
        <ele>497</ele>
        <time>2015-03-08T10:28:10.000Z</time>
      </trkpt>
      <trkpt lat="47.40031" lon="6.71973">
        <ele>497</ele>
        <time>2015-03-08T10:28:11.000Z</time>
      </trkpt>
      <trkpt lat="47.40029" lon="6.71972">
        <ele>497</ele>
        <time>2015-03-08T10:28:12.000Z</time>
      </trkpt>
      <trkpt lat="47.40027" lon="6.71971">
        <ele>497</ele>
        <time>2015-03-08T10:28:13.000Z</time>
      </trkpt>
      <trkpt lat="47.40024" lon="6.7197">
        <ele>497</ele>
        <time>2015-03-08T10:28:14.000Z</time>
      </trkpt>
      <trkpt lat="47.40022" lon="6.71969">
        <ele>497</ele>
        <time>2015-03-08T10:28:15.000Z</time>
      </trkpt>
      <trkpt lat="47.4002" lon="6.71967">
        <ele>497</ele>
        <time>2015-03-08T10:28:16.000Z</time>
      </trkpt>
      <trkpt lat="47.40017" lon="6.71966">
        <ele>497</ele>
        <time>2015-03-08T10:28:17.000Z</time>
      </trkpt>
      <trkpt lat="47.40015" lon="6.71964">
        <ele>497</ele>
        <time>2015-03-08T10:28:18.000Z</time>
      </trkpt>
      <trkpt lat="47.40012" lon="6.71962">
        <ele>497</ele>
        <time>2015-03-08T10:28:19.000Z</time>
      </trkpt>
      <trkpt lat="47.4001" lon="6.71961">
        <ele>497</ele>
        <time>2015-03-08T10:28:20.000Z</time>
      </trkpt>
      <trkpt lat="47.40007" lon="6.71959">
        <ele>497</ele>
        <time>2015-03-08T10:28:21.000Z</time>
      </trkpt>
      <trkpt lat="47.40005" lon="6.71958">
        <ele>498</ele>
        <time>2015-03-08T10:28:22.000Z</time>
      </trkpt>
      <trkpt lat="47.40002" lon="6.71957">
        <ele>498</ele>
        <time>2015-03-08T10:28:23.000Z</time>
      </trkpt>
      <trkpt lat="47.4" lon="6.71955">
        <ele>500</ele>
        <time>2015-03-08T10:28:24.000Z</time>
      </trkpt>
      <trkpt lat="47.39997" lon="6.71955">
        <ele>500</ele>
        <time>2015-03-08T10:28:25.000Z</time>
      </trkpt>
      <trkpt lat="47.39994" lon="6.71954">
        <ele>500</ele>
        <time>2015-03-08T10:28:26.000Z</time>
      </trkpt>
      <trkpt lat="47.39992" lon="6.71953">
        <ele>500</ele>
        <time>2015-03-08T10:28:27.000Z</time>
      </trkpt>
      <trkpt lat="47.39989" lon="6.71952">
        <ele>500</ele>
        <time>2015-03-08T10:28:28.000Z</time>
      </trkpt>
      <trkpt lat="47.39986" lon="6.71951">
        <ele>500</ele>
        <time>2015-03-08T10:28:29.000Z</time>
      </trkpt>
      <trkpt lat="47.39983" lon="6.71949">
        <ele>500</ele>
        <time>2015-03-08T10:28:30.000Z</time>
      </trkpt>
      <trkpt lat="47.3998" lon="6.71948">
        <ele>501</ele>
        <time>2015-03-08T10:28:31.000Z</time>
      </trkpt>
      <trkpt lat="47.39977" lon="6.71947">
        <ele>501</ele>
        <time>2015-03-08T10:28:32.000Z</time>
      </trkpt>
      <trkpt lat="47.39975" lon="6.71946">
        <ele>501</ele>
        <time>2015-03-08T10:28:33.000Z</time>
      </trkpt>
      <trkpt lat="47.39972" lon="6.71945">
        <ele>501</ele>
        <time>2015-03-08T10:28:34.000Z</time>
      </trkpt>
      <trkpt lat="47.39969" lon="6.71944">
        <ele>501</ele>
        <time>2015-03-08T10:28:35.000Z</time>
      </trkpt>
      <trkpt lat="47.39967" lon="6.71943">
        <ele>501</ele>
        <time>2015-03-08T10:28:36.000Z</time>
      </trkpt>
      <trkpt lat="47.39964" lon="6.71942">
        <ele>501</ele>
        <time>2015-03-08T10:28:37.000Z</time>
      </trkpt>
      <trkpt lat="47.39962" lon="6.71941">
        <ele>501</ele>
        <time>2015-03-08T10:28:38.000Z</time>
      </trkpt>
      <trkpt lat="47.39959" lon="6.7194">
        <ele>502</ele>
        <time>2015-03-08T10:28:39.000Z</time>
      </trkpt>
      <trkpt lat="47.39956" lon="6.71939">
        <ele>502</ele>
        <time>2015-03-08T10:28:40.000Z</time>
      </trkpt>
      <trkpt lat="47.39954" lon="6.71938">
        <ele>502</ele>
        <time>2015-03-08T10:28:41.000Z</time>
      </trkpt>
      <trkpt lat="47.39951" lon="6.71936">
        <ele>502</ele>
        <time>2015-03-08T10:28:42.000Z</time>
      </trkpt>
      <trkpt lat="47.39948" lon="6.71935">
        <ele>502</ele>
        <time>2015-03-08T10:28:43.000Z</time>
      </trkpt>
      <trkpt lat="47.39946" lon="6.71934">
        <ele>503</ele>
        <time>2015-03-08T10:28:44.000Z</time>
      </trkpt>
      <trkpt lat="47.39943" lon="6.71933">
        <ele>503</ele>
        <time>2015-03-08T10:28:45.000Z</time>
      </trkpt>
      <trkpt lat="47.39941" lon="6.71932">
        <ele>503</ele>
        <time>2015-03-08T10:28:46.000Z</time>
      </trkpt>
      <trkpt lat="47.39939" lon="6.71931">
        <ele>503</ele>
        <time>2015-03-08T10:28:47.000Z</time>
      </trkpt>
      <trkpt lat="47.39934" lon="6.71932">
        <ele>504</ele>
        <time>2015-03-08T10:28:49.000Z</time>
      </trkpt>
      <trkpt lat="47.39933" lon="6.71932">
        <ele>504</ele>
        <time>2015-03-08T10:28:50.000Z</time>
      </trkpt>
      <trkpt lat="47.39928" lon="6.71933">
        <ele>504</ele>
        <time>2015-03-08T10:28:53.000Z</time>
      </trkpt>
      <trkpt lat="47.39926" lon="6.71931">
        <ele>505</ele>
        <time>2015-03-08T10:28:54.000Z</time>
      </trkpt>
      <trkpt lat="47.39924" lon="6.7193">
        <ele>505</ele>
        <time>2015-03-08T10:28:55.000Z</time>
      </trkpt>
      <trkpt lat="47.39922" lon="6.71928">
        <ele>506</ele>
        <time>2015-03-08T10:28:56.000Z</time>
      </trkpt>
      <trkpt lat="47.39918" lon="6.71927">
        <ele>506</ele>
        <time>2015-03-08T10:28:58.000Z</time>
      </trkpt>
      <trkpt lat="47.39915" lon="6.71927">
        <ele>508</ele>
        <time>2015-03-08T10:28:59.000Z</time>
      </trkpt>
      <trkpt lat="47.39912" lon="6.71929">
        <ele>508</ele>
        <time>2015-03-08T10:29:01.000Z</time>
      </trkpt>
      <trkpt lat="47.3991" lon="6.7193">
        <ele>508</ele>
        <time>2015-03-08T10:29:02.000Z</time>
      </trkpt>
      <trkpt lat="47.39906" lon="6.7193">
        <ele>508</ele>
        <time>2015-03-08T10:29:04.000Z</time>
      </trkpt>
      <trkpt lat="47.39904" lon="6.71929">
        <ele>508</ele>
        <time>2015-03-08T10:29:05.000Z</time>
      </trkpt>
      <trkpt lat="47.39902" lon="6.7193">
        <ele>508</ele>
        <time>2015-03-08T10:29:05.998Z</time>
      </trkpt>
      <trkpt lat="47.39899" lon="6.71928">
        <ele>508</ele>
        <time>2015-03-08T10:29:07.000Z</time>
      </trkpt>
      <trkpt lat="47.39895" lon="6.71926">
        <ele>508</ele>
        <time>2015-03-08T10:29:09.000Z</time>
      </trkpt>
      <trkpt lat="47.39894" lon="6.71925">
        <ele>509</ele>
        <time>2015-03-08T10:29:10.000Z</time>
      </trkpt>
      <trkpt lat="47.3989" lon="6.71924">
        <ele>509</ele>
        <time>2015-03-08T10:29:12.000Z</time>
      </trkpt>
      <trkpt lat="47.39889" lon="6.71923">
        <ele>509</ele>
        <time>2015-03-08T10:29:13.000Z</time>
      </trkpt>
      <trkpt lat="47.39884" lon="6.71922">
        <ele>509</ele>
        <time>2015-03-08T10:29:17.000Z</time>
      </trkpt>
      <trkpt lat="47.39883" lon="6.71923">
        <ele>509</ele>
        <time>2015-03-08T10:29:18.000Z</time>
      </trkpt>
      <trkpt lat="47.39879" lon="6.71923">
        <ele>509</ele>
        <time>2015-03-08T10:29:21.000Z</time>
      </trkpt>
      <trkpt lat="47.39878" lon="6.71922">
        <ele>509</ele>
        <time>2015-03-08T10:29:22.000Z</time>
      </trkpt>
      <trkpt lat="47.39874" lon="6.7192">
        <ele>510</ele>
        <time>2015-03-08T10:29:25.000Z</time>
      </trkpt>
      <trkpt lat="47.39873" lon="6.7192">
        <ele>510</ele>
        <time>2015-03-08T10:29:26.000Z</time>
      </trkpt>
      <trkpt lat="47.39869" lon="6.71919">
        <ele>510</ele>
        <time>2015-03-08T10:29:28.000Z</time>
      </trkpt>
      <trkpt lat="47.39867" lon="6.71918">
        <ele>511</ele>
        <time>2015-03-08T10:29:29.000Z</time>
      </trkpt>
      <trkpt lat="47.39863" lon="6.71916">
        <ele>515</ele>
        <time>2015-03-08T10:29:31.000Z</time>
      </trkpt>
      <trkpt lat="47.39862" lon="6.71915">
        <ele>515</ele>
        <time>2015-03-08T10:29:32.000Z</time>
      </trkpt>
      <trkpt lat="47.39859" lon="6.71912">
        <ele>515</ele>
        <time>2015-03-08T10:29:34.000Z</time>
      </trkpt>
      <trkpt lat="47.39857" lon="6.71911">
        <ele>515</ele>
        <time>2015-03-08T10:29:35.000Z</time>
      </trkpt>
      <trkpt lat="47.39854" lon="6.71907">
        <ele>516</ele>
        <time>2015-03-08T10:29:37.000Z</time>
      </trkpt>
      <trkpt lat="47.39852" lon="6.71905">
        <ele>516</ele>
        <time>2015-03-08T10:29:38.000Z</time>
      </trkpt>
      <trkpt lat="47.39848" lon="6.71902">
        <ele>516</ele>
        <time>2015-03-08T10:29:41.000Z</time>
      </trkpt>
      <trkpt lat="47.39846" lon="6.71901">
        <ele>516</ele>
        <time>2015-03-08T10:29:42.000Z</time>
      </trkpt>
      <trkpt lat="47.39844" lon="6.71899">
        <ele>516</ele>
        <time>2015-03-08T10:29:44.000Z</time>
      </trkpt>
      <trkpt lat="47.39842" lon="6.71897">
        <ele>516</ele>
        <time>2015-03-08T10:29:45.000Z</time>
      </trkpt>
      <trkpt lat="47.39839" lon="6.71894">
        <ele>516</ele>
        <time>2015-03-08T10:29:47.000Z</time>
      </trkpt>
      <trkpt lat="47.39838" lon="6.71892">
        <ele>516</ele>
        <time>2015-03-08T10:29:48.000Z</time>
      </trkpt>
      <trkpt lat="47.39836" lon="6.71889">
        <ele>516</ele>
        <time>2015-03-08T10:29:49.000Z</time>
      </trkpt>
      <trkpt lat="47.39835" lon="6.71886">
        <ele>516</ele>
        <time>2015-03-08T10:29:50.000Z</time>
      </trkpt>
      <trkpt lat="47.39834" lon="6.71883">
        <ele>516</ele>
        <time>2015-03-08T10:29:51.000Z</time>
      </trkpt>
      <trkpt lat="47.39833" lon="6.7188">
        <ele>519</ele>
        <time>2015-03-08T10:29:52.000Z</time>
      </trkpt>
      <trkpt lat="47.3983" lon="6.71875">
        <ele>519</ele>
        <time>2015-03-08T10:29:54.000Z</time>
      </trkpt>
      <trkpt lat="47.39829" lon="6.71873">
        <ele>519</ele>
        <time>2015-03-08T10:29:55.000Z</time>
      </trkpt>
      <trkpt lat="47.39826" lon="6.71868">
        <ele>519</ele>
        <time>2015-03-08T10:29:57.000Z</time>
      </trkpt>
      <trkpt lat="47.39824" lon="6.71866">
        <ele>519</ele>
        <time>2015-03-08T10:29:58.000Z</time>
      </trkpt>
      <trkpt lat="47.39821" lon="6.71862">
        <ele>519</ele>
        <time>2015-03-08T10:30:00.000Z</time>
      </trkpt>
      <trkpt lat="47.39819" lon="6.7186">
        <ele>519</ele>
        <time>2015-03-08T10:30:01.000Z</time>
      </trkpt>
      <trkpt lat="47.39815" lon="6.71857">
        <ele>519</ele>
        <time>2015-03-08T10:30:03.000Z</time>
      </trkpt>
      <trkpt lat="47.39813" lon="6.71855">
        <ele>519</ele>
        <time>2015-03-08T10:30:04.000Z</time>
      </trkpt>
      <trkpt lat="47.39811" lon="6.71853">
        <ele>519</ele>
        <time>2015-03-08T10:30:05.000Z</time>
      </trkpt>
      <trkpt lat="47.39809" lon="6.71851">
        <ele>519</ele>
        <time>2015-03-08T10:30:06.000Z</time>
      </trkpt>
      <trkpt lat="47.39806" lon="6.7185">
        <ele>519</ele>
        <time>2015-03-08T10:30:08.000Z</time>
      </trkpt>
      <trkpt lat="47.39804" lon="6.71849">
        <ele>519</ele>
        <time>2015-03-08T10:30:09.000Z</time>
      </trkpt>
      <trkpt lat="47.39801" lon="6.71848">
        <ele>519</ele>
        <time>2015-03-08T10:30:11.000Z</time>
      </trkpt>
      <trkpt lat="47.39799" lon="6.71848">
        <ele>519</ele>
        <time>2015-03-08T10:30:12.000Z</time>
      </trkpt>
      <trkpt lat="47.39796" lon="6.71847">
        <ele>519</ele>
        <time>2015-03-08T10:30:13.000Z</time>
      </trkpt>
      <trkpt lat="47.39794" lon="6.71846">
        <ele>519</ele>
        <time>2015-03-08T10:30:14.000Z</time>
      </trkpt>
      <trkpt lat="47.39792" lon="6.71845">
        <ele>519</ele>
        <time>2015-03-08T10:30:15.000Z</time>
      </trkpt>
      <trkpt lat="47.3979" lon="6.71843">
        <ele>520</ele>
        <time>2015-03-08T10:30:16.000Z</time>
      </trkpt>
      <trkpt lat="47.39787" lon="6.71842">
        <ele>520</ele>
        <time>2015-03-08T10:30:17.000Z</time>
      </trkpt>
      <trkpt lat="47.39785" lon="6.7184">
        <ele>520</ele>
        <time>2015-03-08T10:30:18.000Z</time>
      </trkpt>
      <trkpt lat="47.39783" lon="6.71839">
        <ele>520</ele>
        <time>2015-03-08T10:30:19.000Z</time>
      </trkpt>
      <trkpt lat="47.39781" lon="6.71838">
        <ele>520</ele>
        <time>2015-03-08T10:30:20.000Z</time>
      </trkpt>
      <trkpt lat="47.39776" lon="6.71835">
        <ele>520</ele>
        <time>2015-03-08T10:30:22.000Z</time>
      </trkpt>
      <trkpt lat="47.39774" lon="6.71835">
        <ele>520</ele>
        <time>2015-03-08T10:30:23.000Z</time>
      </trkpt>
      <trkpt lat="47.3977" lon="6.71833">
        <ele>521</ele>
        <time>2015-03-08T10:30:25.000Z</time>
      </trkpt>
      <trkpt lat="47.39768" lon="6.71833">
        <ele>521</ele>
        <time>2015-03-08T10:30:26.000Z</time>
      </trkpt>
      <trkpt lat="47.39764" lon="6.71831">
        <ele>521</ele>
        <time>2015-03-08T10:30:28.000Z</time>
      </trkpt>
      <trkpt lat="47.39762" lon="6.7183">
        <ele>522</ele>
        <time>2015-03-08T10:30:29.000Z</time>
      </trkpt>
      <trkpt lat="47.3976" lon="6.71829">
        <ele>522</ele>
        <time>2015-03-08T10:30:30.000Z</time>
      </trkpt>
      <trkpt lat="47.39758" lon="6.71827">
        <ele>522</ele>
        <time>2015-03-08T10:30:31.000Z</time>
      </trkpt>
      <trkpt lat="47.39755" lon="6.71825">
        <ele>522</ele>
        <time>2015-03-08T10:30:32.000Z</time>
      </trkpt>
      <trkpt lat="47.39753" lon="6.71824">
        <ele>522</ele>
        <time>2015-03-08T10:30:33.000Z</time>
      </trkpt>
      <trkpt lat="47.39751" lon="6.71822">
        <ele>522</ele>
        <time>2015-03-08T10:30:34.000Z</time>
      </trkpt>
      <trkpt lat="47.39749" lon="6.7182">
        <ele>524</ele>
        <time>2015-03-08T10:30:35.000Z</time>
      </trkpt>
      <trkpt lat="47.39746" lon="6.71819">
        <ele>524</ele>
        <time>2015-03-08T10:30:36.000Z</time>
      </trkpt>
      <trkpt lat="47.39744" lon="6.71817">
        <ele>525</ele>
        <time>2015-03-08T10:30:37.000Z</time>
      </trkpt>
      <trkpt lat="47.39741" lon="6.71816">
        <ele>525</ele>
        <time>2015-03-08T10:30:38.000Z</time>
      </trkpt>
      <trkpt lat="47.39739" lon="6.71815">
        <ele>525</ele>
        <time>2015-03-08T10:30:39.000Z</time>
      </trkpt>
      <trkpt lat="47.39737" lon="6.71814">
        <ele>525</ele>
        <time>2015-03-08T10:30:40.000Z</time>
      </trkpt>
      <trkpt lat="47.39734" lon="6.71814">
        <ele>525</ele>
        <time>2015-03-08T10:30:41.000Z</time>
      </trkpt>
      <trkpt lat="47.39732" lon="6.71813">
        <ele>525</ele>
        <time>2015-03-08T10:30:42.000Z</time>
      </trkpt>
      <trkpt lat="47.39729" lon="6.71812">
        <ele>526</ele>
        <time>2015-03-08T10:30:43.000Z</time>
      </trkpt>
      <trkpt lat="47.39726" lon="6.7181">
        <ele>526</ele>
        <time>2015-03-08T10:30:44.000Z</time>
      </trkpt>
      <trkpt lat="47.39723" lon="6.71809">
        <ele>526</ele>
        <time>2015-03-08T10:30:45.000Z</time>
      </trkpt>
      <trkpt lat="47.3972" lon="6.71808">
        <ele>526</ele>
        <time>2015-03-08T10:30:46.000Z</time>
      </trkpt>
      <trkpt lat="47.39717" lon="6.71808">
        <ele>526</ele>
        <time>2015-03-08T10:30:47.000Z</time>
      </trkpt>
      <trkpt lat="47.39714" lon="6.71807">
        <ele>527</ele>
        <time>2015-03-08T10:30:48.000Z</time>
      </trkpt>
      <trkpt lat="47.39711" lon="6.71807">
        <ele>527</ele>
        <time>2015-03-08T10:30:49.000Z</time>
      </trkpt>
      <trkpt lat="47.39708" lon="6.71807">
        <ele>527</ele>
        <time>2015-03-08T10:30:50.000Z</time>
      </trkpt>
      <trkpt lat="47.39706" lon="6.71808">
        <ele>527</ele>
        <time>2015-03-08T10:30:51.000Z</time>
      </trkpt>
      <trkpt lat="47.39704" lon="6.71808">
        <ele>527</ele>
        <time>2015-03-08T10:30:52.000Z</time>
      </trkpt>
      <trkpt lat="47.39701" lon="6.71809">
        <ele>527</ele>
        <time>2015-03-08T10:30:53.000Z</time>
      </trkpt>
      <trkpt lat="47.39699" lon="6.7181">
        <ele>527</ele>
        <time>2015-03-08T10:30:54.000Z</time>
      </trkpt>
      <trkpt lat="47.39697" lon="6.71812">
        <ele>527</ele>
        <time>2015-03-08T10:30:55.000Z</time>
      </trkpt>
      <trkpt lat="47.39695" lon="6.71814">
        <ele>528</ele>
        <time>2015-03-08T10:30:56.000Z</time>
      </trkpt>
      <trkpt lat="47.39693" lon="6.71815">
        <ele>528</ele>
        <time>2015-03-08T10:30:57.000Z</time>
      </trkpt>
      <trkpt lat="47.3969" lon="6.71817">
        <ele>528</ele>
        <time>2015-03-08T10:30:58.000Z</time>
      </trkpt>
      <trkpt lat="47.39688" lon="6.71818">
        <ele>528</ele>
        <time>2015-03-08T10:30:59.000Z</time>
      </trkpt>
      <trkpt lat="47.39685" lon="6.71821">
        <ele>528</ele>
        <time>2015-03-08T10:31:01.000Z</time>
      </trkpt>
      <trkpt lat="47.39683" lon="6.71822">
        <ele>528</ele>
        <time>2015-03-08T10:31:02.000Z</time>
      </trkpt>
      <trkpt lat="47.3968" lon="6.71824">
        <ele>528</ele>
        <time>2015-03-08T10:31:04.000Z</time>
      </trkpt>
      <trkpt lat="47.39678" lon="6.71826">
        <ele>528</ele>
        <time>2015-03-08T10:31:05.000Z</time>
      </trkpt>
      <trkpt lat="47.39674" lon="6.71827">
        <ele>528</ele>
        <time>2015-03-08T10:31:07.000Z</time>
      </trkpt>
      <trkpt lat="47.39672" lon="6.71828">
        <ele>529</ele>
        <time>2015-03-08T10:31:08.000Z</time>
      </trkpt>
      <trkpt lat="47.39668" lon="6.7183">
        <ele>529</ele>
        <time>2015-03-08T10:31:10.000Z</time>
      </trkpt>
      <trkpt lat="47.39666" lon="6.7183">
        <ele>530</ele>
        <time>2015-03-08T10:31:11.000Z</time>
      </trkpt>
      <trkpt lat="47.39663" lon="6.71829">
        <ele>530</ele>
        <time>2015-03-08T10:31:13.000Z</time>
      </trkpt>
      <trkpt lat="47.39661" lon="6.7183">
        <ele>530</ele>
        <time>2015-03-08T10:31:14.000Z</time>
      </trkpt>
      <trkpt lat="47.39658" lon="6.71832">
        <ele>531</ele>
        <time>2015-03-08T10:31:16.000Z</time>
      </trkpt>
      <trkpt lat="47.39656" lon="6.71833">
        <ele>531</ele>
        <time>2015-03-08T10:31:17.000Z</time>
      </trkpt>
      <trkpt lat="47.39652" lon="6.71834">
        <ele>529</ele>
        <time>2015-03-08T10:31:19.000Z</time>
      </trkpt>
      <trkpt lat="47.3965" lon="6.71835">
        <ele>529</ele>
        <time>2015-03-08T10:31:20.000Z</time>
      </trkpt>
      <trkpt lat="47.39646" lon="6.71837">
        <ele>529</ele>
        <time>2015-03-08T10:31:22.000Z</time>
      </trkpt>
      <trkpt lat="47.39644" lon="6.71839">
        <ele>529</ele>
        <time>2015-03-08T10:31:23.000Z</time>
      </trkpt>
      <trkpt lat="47.3964" lon="6.71841">
        <ele>529</ele>
        <time>2015-03-08T10:31:25.000Z</time>
      </trkpt>
      <trkpt lat="47.39638" lon="6.71842">
        <ele>530</ele>
        <time>2015-03-08T10:31:26.000Z</time>
      </trkpt>
      <trkpt lat="47.39634" lon="6.71843">
        <ele>530</ele>
        <time>2015-03-08T10:31:28.000Z</time>
      </trkpt>
      <trkpt lat="47.39633" lon="6.71844">
        <ele>530</ele>
        <time>2015-03-08T10:31:29.000Z</time>
      </trkpt>
      <trkpt lat="47.39629" lon="6.71846">
        <ele>530</ele>
        <time>2015-03-08T10:31:31.000Z</time>
      </trkpt>
      <trkpt lat="47.39627" lon="6.71846">
        <ele>530</ele>
        <time>2015-03-08T10:31:32.000Z</time>
      </trkpt>
      <trkpt lat="47.39622" lon="6.71848">
        <ele>530</ele>
        <time>2015-03-08T10:31:34.000Z</time>
      </trkpt>
      <trkpt lat="47.39621" lon="6.71848">
        <ele>530</ele>
        <time>2015-03-08T10:31:35.000Z</time>
      </trkpt>
      <trkpt lat="47.39618" lon="6.71846">
        <ele>531</ele>
        <time>2015-03-08T10:31:38.000Z</time>
      </trkpt>
      <trkpt lat="47.39617" lon="6.71845">
        <ele>531</ele>
        <time>2015-03-08T10:31:39.000Z</time>
      </trkpt>
      <trkpt lat="47.39614" lon="6.7184">
        <ele>531</ele>
        <time>2015-03-08T10:31:42.000Z</time>
      </trkpt>
      <trkpt lat="47.39614" lon="6.71838">
        <ele>531</ele>
        <time>2015-03-08T10:31:43.000Z</time>
      </trkpt>
      <trkpt lat="47.39614" lon="6.71833">
        <ele>535</ele>
        <time>2015-03-08T10:31:46.000Z</time>
      </trkpt>
      <trkpt lat="47.39614" lon="6.71831">
        <ele>535</ele>
        <time>2015-03-08T10:31:47.000Z</time>
      </trkpt>
      <trkpt lat="47.39616" lon="6.71827">
        <ele>535</ele>
        <time>2015-03-08T10:32:25.000Z</time>
      </trkpt>
      <trkpt lat="47.39617" lon="6.71824">
        <ele>535</ele>
        <time>2015-03-08T10:32:26.000Z</time>
      </trkpt>
      <trkpt lat="47.39617" lon="6.7182">
        <ele>535</ele>
        <time>2015-03-08T10:32:28.000Z</time>
      </trkpt>
      <trkpt lat="47.39618" lon="6.71817">
        <ele>535</ele>
        <time>2015-03-08T10:32:29.000Z</time>
      </trkpt>
      <trkpt lat="47.39618" lon="6.71813">
        <ele>535</ele>
        <time>2015-03-08T10:32:31.000Z</time>
      </trkpt>
      <trkpt lat="47.39618" lon="6.71811">
        <ele>535</ele>
        <time>2015-03-08T10:32:32.000Z</time>
      </trkpt>
      <trkpt lat="47.39618" lon="6.71806">
        <ele>535</ele>
        <time>2015-03-08T10:32:34.000Z</time>
      </trkpt>
      <trkpt lat="47.39619" lon="6.71804">
        <ele>535</ele>
        <time>2015-03-08T10:32:35.000Z</time>
      </trkpt>
      <trkpt lat="47.39618" lon="6.71799">
        <ele>535</ele>
        <time>2015-03-08T10:32:37.000Z</time>
      </trkpt>
      <trkpt lat="47.39618" lon="6.71796">
        <ele>535</ele>
        <time>2015-03-08T10:32:38.000Z</time>
      </trkpt>
      <trkpt lat="47.39618" lon="6.7179">
        <ele>536</ele>
        <time>2015-03-08T10:32:40.000Z</time>
      </trkpt>
      <trkpt lat="47.39618" lon="6.71787">
        <ele>536</ele>
        <time>2015-03-08T10:32:41.000Z</time>
      </trkpt>
      <trkpt lat="47.39617" lon="6.71783">
        <ele>536</ele>
        <time>2015-03-08T10:32:42.000Z</time>
      </trkpt>
      <trkpt lat="47.39616" lon="6.71779">
        <ele>536</ele>
        <time>2015-03-08T10:32:43.000Z</time>
      </trkpt>
      <trkpt lat="47.39616" lon="6.71773">
        <ele>536</ele>
        <time>2015-03-08T10:32:45.000Z</time>
      </trkpt>
      <trkpt lat="47.39617" lon="6.71771">
        <ele>536</ele>
        <time>2015-03-08T10:32:46.000Z</time>
      </trkpt>
      <trkpt lat="47.39619" lon="6.71765">
        <ele>536</ele>
        <time>2015-03-08T10:32:48.000Z</time>
      </trkpt>
      <trkpt lat="47.39619" lon="6.71763">
        <ele>536</ele>
        <time>2015-03-08T10:32:49.000Z</time>
      </trkpt>
      <trkpt lat="47.39619" lon="6.71757">
        <ele>536</ele>
        <time>2015-03-08T10:32:52.000Z</time>
      </trkpt>
      <trkpt lat="47.39619" lon="6.71755">
        <ele>536</ele>
        <time>2015-03-08T10:32:53.000Z</time>
      </trkpt>
      <trkpt lat="47.39619" lon="6.7175">
        <ele>538</ele>
        <time>2015-03-08T10:32:55.000Z</time>
      </trkpt>
      <trkpt lat="47.39618" lon="6.71748">
        <ele>538</ele>
        <time>2015-03-08T10:32:56.000Z</time>
      </trkpt>
      <trkpt lat="47.39618" lon="6.71745">
        <ele>538</ele>
        <time>2015-03-08T10:32:56.999Z</time>
      </trkpt>
      <trkpt lat="47.39616" lon="6.71741">
        <ele>538</ele>
        <time>2015-03-08T10:32:58.000Z</time>
      </trkpt>
      <trkpt lat="47.39618" lon="6.71735">
        <ele>538</ele>
        <time>2015-03-08T10:33:03.000Z</time>
      </trkpt>
      <trkpt lat="47.39619" lon="6.71732">
        <ele>537</ele>
        <time>2015-03-08T10:33:04.000Z</time>
      </trkpt>
      <trkpt lat="47.39619" lon="6.71729">
        <ele>537</ele>
        <time>2015-03-08T10:33:05.000Z</time>
      </trkpt>
      <trkpt lat="47.3962" lon="6.71725">
        <ele>537</ele>
        <time>2015-03-08T10:33:06.000Z</time>
      </trkpt>
      <trkpt lat="47.3962" lon="6.71721">
        <ele>537</ele>
        <time>2015-03-08T10:33:07.000Z</time>
      </trkpt>
      <trkpt lat="47.3962" lon="6.71717">
        <ele>537</ele>
        <time>2015-03-08T10:33:08.000Z</time>
      </trkpt>
      <trkpt lat="47.3962" lon="6.71713">
        <ele>537</ele>
        <time>2015-03-08T10:33:09.000Z</time>
      </trkpt>
      <trkpt lat="47.39619" lon="6.7171">
        <ele>537</ele>
        <time>2015-03-08T10:33:10.000Z</time>
      </trkpt>
      <trkpt lat="47.39618" lon="6.71706">
        <ele>537</ele>
        <time>2015-03-08T10:33:11.000Z</time>
      </trkpt>
      <trkpt lat="47.39617" lon="6.71701">
        <ele>537</ele>
        <time>2015-03-08T10:33:12.000Z</time>
      </trkpt>
      <trkpt lat="47.39616" lon="6.71697">
        <ele>537</ele>
        <time>2015-03-08T10:33:13.000Z</time>
      </trkpt>
      <trkpt lat="47.39615" lon="6.71693">
        <ele>537</ele>
        <time>2015-03-08T10:33:14.000Z</time>
      </trkpt>
      <trkpt lat="47.39615" lon="6.7169">
        <ele>537</ele>
        <time>2015-03-08T10:33:15.000Z</time>
      </trkpt>
      <trkpt lat="47.39614" lon="6.71686">
        <ele>537</ele>
        <time>2015-03-08T10:33:16.000Z</time>
      </trkpt>
      <trkpt lat="47.39614" lon="6.71683">
        <ele>537</ele>
        <time>2015-03-08T10:33:17.000Z</time>
      </trkpt>
      <trkpt lat="47.39615" lon="6.71676">
        <ele>537</ele>
        <time>2015-03-08T10:33:18.000Z</time>
      </trkpt>
      <trkpt lat="47.39616" lon="6.71671">
        <ele>537</ele>
        <time>2015-03-08T10:33:19.000Z</time>
      </trkpt>
      <trkpt lat="47.39618" lon="6.71666">
        <ele>538</ele>
        <time>2015-03-08T10:33:20.000Z</time>
      </trkpt>
      <trkpt lat="47.39618" lon="6.71661">
        <ele>538</ele>
        <time>2015-03-08T10:33:21.000Z</time>
      </trkpt>
      <trkpt lat="47.39619" lon="6.71656">
        <ele>538</ele>
        <time>2015-03-08T10:33:22.000Z</time>
      </trkpt>
      <trkpt lat="47.3962" lon="6.7165">
        <ele>538</ele>
        <time>2015-03-08T10:33:23.000Z</time>
      </trkpt>
      <trkpt lat="47.3962" lon="6.71645">
        <ele>538</ele>
        <time>2015-03-08T10:33:24.000Z</time>
      </trkpt>
      <trkpt lat="47.39621" lon="6.71641">
        <ele>538</ele>
        <time>2015-03-08T10:33:25.000Z</time>
      </trkpt>
      <trkpt lat="47.39621" lon="6.71636">
        <ele>538</ele>
        <time>2015-03-08T10:33:26.000Z</time>
      </trkpt>
      <trkpt lat="47.39621" lon="6.71632">
        <ele>538</ele>
        <time>2015-03-08T10:33:27.000Z</time>
      </trkpt>
      <trkpt lat="47.39621" lon="6.71628">
        <ele>538</ele>
        <time>2015-03-08T10:33:28.000Z</time>
      </trkpt>
      <trkpt lat="47.39622" lon="6.71624">
        <ele>538</ele>
        <time>2015-03-08T10:33:29.000Z</time>
      </trkpt>
      <trkpt lat="47.39622" lon="6.7162">
        <ele>538</ele>
        <time>2015-03-08T10:33:30.000Z</time>
      </trkpt>
      <trkpt lat="47.39622" lon="6.71616">
        <ele>538</ele>
        <time>2015-03-08T10:33:31.000Z</time>
      </trkpt>
      <trkpt lat="47.39623" lon="6.71612">
        <ele>538</ele>
        <time>2015-03-08T10:33:32.000Z</time>
      </trkpt>
      <trkpt lat="47.39623" lon="6.71609">
        <ele>538</ele>
        <time>2015-03-08T10:33:33.000Z</time>
      </trkpt>
      <trkpt lat="47.39623" lon="6.71605">
        <ele>539</ele>
        <time>2015-03-08T10:33:34.000Z</time>
      </trkpt>
      <trkpt lat="47.39623" lon="6.71601">
        <ele>539</ele>
        <time>2015-03-08T10:33:35.000Z</time>
      </trkpt>
      <trkpt lat="47.39624" lon="6.71598">
        <ele>539</ele>
        <time>2015-03-08T10:33:36.000Z</time>
      </trkpt>
      <trkpt lat="47.39625" lon="6.71594">
        <ele>538</ele>
        <time>2015-03-08T10:33:37.000Z</time>
      </trkpt>
      <trkpt lat="47.39626" lon="6.7159">
        <ele>538</ele>
        <time>2015-03-08T10:33:38.000Z</time>
      </trkpt>
      <trkpt lat="47.39628" lon="6.71586">
        <ele>538</ele>
        <time>2015-03-08T10:33:39.000Z</time>
      </trkpt>
      <trkpt lat="47.3963" lon="6.71583">
        <ele>540</ele>
        <time>2015-03-08T10:33:40.000Z</time>
      </trkpt>
      <trkpt lat="47.39632" lon="6.7158">
        <ele>540</ele>
        <time>2015-03-08T10:33:41.000Z</time>
      </trkpt>
      <trkpt lat="47.39634" lon="6.71576">
        <ele>539</ele>
        <time>2015-03-08T10:33:42.000Z</time>
      </trkpt>
      <trkpt lat="47.39635" lon="6.71573">
        <ele>539</ele>
        <time>2015-03-08T10:33:43.000Z</time>
      </trkpt>
      <trkpt lat="47.39637" lon="6.7157">
        <ele>539</ele>
        <time>2015-03-08T10:33:44.000Z</time>
      </trkpt>
      <trkpt lat="47.39638" lon="6.71567">
        <ele>539</ele>
        <time>2015-03-08T10:33:45.000Z</time>
      </trkpt>
      <trkpt lat="47.39639" lon="6.71564">
        <ele>539</ele>
        <time>2015-03-08T10:33:46.000Z</time>
      </trkpt>
      <trkpt lat="47.39641" lon="6.71561">
        <ele>539</ele>
        <time>2015-03-08T10:33:47.000Z</time>
      </trkpt>
      <trkpt lat="47.39643" lon="6.71558">
        <ele>539</ele>
        <time>2015-03-08T10:33:48.000Z</time>
      </trkpt>
      <trkpt lat="47.39645" lon="6.71555">
        <ele>539</ele>
        <time>2015-03-08T10:33:49.000Z</time>
      </trkpt>
      <trkpt lat="47.39647" lon="6.71552">
        <ele>539</ele>
        <time>2015-03-08T10:33:50.000Z</time>
      </trkpt>
      <trkpt lat="47.39649" lon="6.71549">
        <ele>539</ele>
        <time>2015-03-08T10:33:51.000Z</time>
      </trkpt>
      <trkpt lat="47.3965" lon="6.71546">
        <ele>539</ele>
        <time>2015-03-08T10:33:52.000Z</time>
      </trkpt>
      <trkpt lat="47.39653" lon="6.71541">
        <ele>539</ele>
        <time>2015-03-08T10:33:53.000Z</time>
      </trkpt>
      <trkpt lat="47.39656" lon="6.71538">
        <ele>539</ele>
        <time>2015-03-08T10:33:54.000Z</time>
      </trkpt>
      <trkpt lat="47.39658" lon="6.71534">
        <ele>539</ele>
        <time>2015-03-08T10:33:55.000Z</time>
      </trkpt>
      <trkpt lat="47.39661" lon="6.7153">
        <ele>538</ele>
        <time>2015-03-08T10:33:56.000Z</time>
      </trkpt>
      <trkpt lat="47.39664" lon="6.71526">
        <ele>538</ele>
        <time>2015-03-08T10:33:57.000Z</time>
      </trkpt>
      <trkpt lat="47.39667" lon="6.71523">
        <ele>538</ele>
        <time>2015-03-08T10:33:58.000Z</time>
      </trkpt>
      <trkpt lat="47.39669" lon="6.7152">
        <ele>532</ele>
        <time>2015-03-08T10:33:59.000Z</time>
      </trkpt>
      <trkpt lat="47.39671" lon="6.71517">
        <ele>533</ele>
        <time>2015-03-08T10:34:00.000Z</time>
      </trkpt>
      <trkpt lat="47.39674" lon="6.71512">
        <ele>533</ele>
        <time>2015-03-08T10:34:02.000Z</time>
      </trkpt>
      <trkpt lat="47.39675" lon="6.7151">
        <ele>533</ele>
        <time>2015-03-08T10:34:02.998Z</time>
      </trkpt>
      <trkpt lat="47.39677" lon="6.71506">
        <ele>533</ele>
        <time>2015-03-08T10:37:25.000Z</time>
      </trkpt>
      <trkpt lat="47.39679" lon="6.71503">
        <ele>533</ele>
        <time>2015-03-08T10:37:26.000Z</time>
      </trkpt>
      <trkpt lat="47.3968" lon="6.71501">
        <ele>533</ele>
        <time>2015-03-08T10:37:27.000Z</time>
      </trkpt>
      <trkpt lat="47.39682" lon="6.71499">
        <ele>533</ele>
        <time>2015-03-08T10:37:28.000Z</time>
      </trkpt>
      <trkpt lat="47.39684" lon="6.71496">
        <ele>533</ele>
        <time>2015-03-08T10:37:29.000Z</time>
      </trkpt>
      <trkpt lat="47.39686" lon="6.71494">
        <ele>533</ele>
        <time>2015-03-08T10:37:29.999Z</time>
      </trkpt>
      <trkpt lat="47.39688" lon="6.7149">
        <ele>532</ele>
        <time>2015-03-08T10:37:31.000Z</time>
      </trkpt>
      <trkpt lat="47.39691" lon="6.71487">
        <ele>532</ele>
        <time>2015-03-08T10:37:32.000Z</time>
      </trkpt>
      <trkpt lat="47.39694" lon="6.71483">
        <ele>532</ele>
        <time>2015-03-08T10:37:33.000Z</time>
      </trkpt>
      <trkpt lat="47.39698" lon="6.71479">
        <ele>531</ele>
        <time>2015-03-08T10:37:34.000Z</time>
      </trkpt>
      <trkpt lat="47.39701" lon="6.71474">
        <ele>531</ele>
        <time>2015-03-08T10:37:35.000Z</time>
      </trkpt>
      <trkpt lat="47.39705" lon="6.7147">
        <ele>531</ele>
        <time>2015-03-08T10:37:36.000Z</time>
      </trkpt>
      <trkpt lat="47.39708" lon="6.71465">
        <ele>531</ele>
        <time>2015-03-08T10:37:37.000Z</time>
      </trkpt>
      <trkpt lat="47.39712" lon="6.7146">
        <ele>531</ele>
        <time>2015-03-08T10:37:38.000Z</time>
      </trkpt>
      <trkpt lat="47.39715" lon="6.71456">
        <ele>530</ele>
        <time>2015-03-08T10:37:39.000Z</time>
      </trkpt>
      <trkpt lat="47.39718" lon="6.71452">
        <ele>530</ele>
        <time>2015-03-08T10:37:40.000Z</time>
      </trkpt>
      <trkpt lat="47.39721" lon="6.71448">
        <ele>530</ele>
        <time>2015-03-08T10:37:41.000Z</time>
      </trkpt>
      <trkpt lat="47.39724" lon="6.71444">
        <ele>530</ele>
        <time>2015-03-08T10:37:42.000Z</time>
      </trkpt>
      <trkpt lat="47.39727" lon="6.7144">
        <ele>530</ele>
        <time>2015-03-08T10:37:43.000Z</time>
      </trkpt>
      <trkpt lat="47.39729" lon="6.71436">
        <ele>530</ele>
        <time>2015-03-08T10:37:44.000Z</time>
      </trkpt>
      <trkpt lat="47.39731" lon="6.71431">
        <ele>529</ele>
        <time>2015-03-08T10:37:45.000Z</time>
      </trkpt>
      <trkpt lat="47.39733" lon="6.71427">
        <ele>529</ele>
        <time>2015-03-08T10:37:46.000Z</time>
      </trkpt>
      <trkpt lat="47.39735" lon="6.71422">
        <ele>529</ele>
        <time>2015-03-08T10:37:47.000Z</time>
      </trkpt>
      <trkpt lat="47.39737" lon="6.71418">
        <ele>529</ele>
        <time>2015-03-08T10:37:48.000Z</time>
      </trkpt>
      <trkpt lat="47.39739" lon="6.71413">
        <ele>529</ele>
        <time>2015-03-08T10:37:49.000Z</time>
      </trkpt>
      <trkpt lat="47.39741" lon="6.71409">
        <ele>529</ele>
        <time>2015-03-08T10:37:50.000Z</time>
      </trkpt>
      <trkpt lat="47.39744" lon="6.71406">
        <ele>529</ele>
        <time>2015-03-08T10:37:51.000Z</time>
      </trkpt>
      <trkpt lat="47.39746" lon="6.71403">
        <ele>529</ele>
        <time>2015-03-08T10:37:52.000Z</time>
      </trkpt>
      <trkpt lat="47.39749" lon="6.71401">
        <ele>529</ele>
        <time>2015-03-08T10:37:53.000Z</time>
      </trkpt>
      <trkpt lat="47.39753" lon="6.71398">
        <ele>525</ele>
        <time>2015-03-08T10:37:54.000Z</time>
      </trkpt>
      <trkpt lat="47.39758" lon="6.71396">
        <ele>525</ele>
        <time>2015-03-08T10:37:55.000Z</time>
      </trkpt>
      <trkpt lat="47.39761" lon="6.71393">
        <ele>525</ele>
        <time>2015-03-08T10:37:56.000Z</time>
      </trkpt>
      <trkpt lat="47.39764" lon="6.7139">
        <ele>525</ele>
        <time>2015-03-08T10:37:57.000Z</time>
      </trkpt>
      <trkpt lat="47.39768" lon="6.71386">
        <ele>525</ele>
        <time>2015-03-08T10:37:58.000Z</time>
      </trkpt>
      <trkpt lat="47.39776" lon="6.71382">
        <ele>524</ele>
        <time>2015-03-08T10:37:59.000Z</time>
      </trkpt>
      <trkpt lat="47.39781" lon="6.71379">
        <ele>524</ele>
        <time>2015-03-08T10:38:00.000Z</time>
      </trkpt>
      <trkpt lat="47.39786" lon="6.71375">
        <ele>524</ele>
        <time>2015-03-08T10:38:01.000Z</time>
      </trkpt>
      <trkpt lat="47.39789" lon="6.71369">
        <ele>524</ele>
        <time>2015-03-08T10:38:02.000Z</time>
      </trkpt>
      <trkpt lat="47.39795" lon="6.71364">
        <ele>523</ele>
        <time>2015-03-08T10:38:03.000Z</time>
      </trkpt>
      <trkpt lat="47.39801" lon="6.71359">
        <ele>523</ele>
        <time>2015-03-08T10:38:04.000Z</time>
      </trkpt>
      <trkpt lat="47.39806" lon="6.71353">
        <ele>523</ele>
        <time>2015-03-08T10:38:05.000Z</time>
      </trkpt>
      <trkpt lat="47.39814" lon="6.71348">
        <ele>522</ele>
        <time>2015-03-08T10:38:06.000Z</time>
      </trkpt>
      <trkpt lat="47.39821" lon="6.71344">
        <ele>521</ele>
        <time>2015-03-08T10:38:07.000Z</time>
      </trkpt>
      <trkpt lat="47.39829" lon="6.71338">
        <ele>520</ele>
        <time>2015-03-08T10:38:08.000Z</time>
      </trkpt>
      <trkpt lat="47.39837" lon="6.71332">
        <ele>519</ele>
        <time>2015-03-08T10:38:09.000Z</time>
      </trkpt>
      <trkpt lat="47.39844" lon="6.71327">
        <ele>518</ele>
        <time>2015-03-08T10:38:10.000Z</time>
      </trkpt>
      <trkpt lat="47.39853" lon="6.71324">
        <ele>518</ele>
        <time>2015-03-08T10:38:11.000Z</time>
      </trkpt>
      <trkpt lat="47.39862" lon="6.7132">
        <ele>517</ele>
        <time>2015-03-08T10:38:12.000Z</time>
      </trkpt>
      <trkpt lat="47.3987" lon="6.71319">
        <ele>517</ele>
        <time>2015-03-08T10:38:13.000Z</time>
      </trkpt>
      <trkpt lat="47.39879" lon="6.7132">
        <ele>517</ele>
        <time>2015-03-08T10:38:14.000Z</time>
      </trkpt>
      <trkpt lat="47.39887" lon="6.71322">
        <ele>516</ele>
        <time>2015-03-08T10:38:15.000Z</time>
      </trkpt>
      <trkpt lat="47.39895" lon="6.71323">
        <ele>516</ele>
        <time>2015-03-08T10:38:16.000Z</time>
      </trkpt>
      <trkpt lat="47.39903" lon="6.71325">
        <ele>515</ele>
        <time>2015-03-08T10:38:17.000Z</time>
      </trkpt>
      <trkpt lat="47.3991" lon="6.71323">
        <ele>515</ele>
        <time>2015-03-08T10:38:18.000Z</time>
      </trkpt>
      <trkpt lat="47.39917" lon="6.71321">
        <ele>515</ele>
        <time>2015-03-08T10:38:19.000Z</time>
      </trkpt>
      <trkpt lat="47.39924" lon="6.71318">
        <ele>515</ele>
        <time>2015-03-08T10:38:20.000Z</time>
      </trkpt>
      <trkpt lat="47.3993" lon="6.71313">
        <ele>516</ele>
        <time>2015-03-08T10:38:21.000Z</time>
      </trkpt>
      <trkpt lat="47.39936" lon="6.71308">
        <ele>516</ele>
        <time>2015-03-08T10:38:22.000Z</time>
      </trkpt>
      <trkpt lat="47.39941" lon="6.71302">
        <ele>516</ele>
        <time>2015-03-08T10:38:23.000Z</time>
      </trkpt>
      <trkpt lat="47.39946" lon="6.71295">
        <ele>516</ele>
        <time>2015-03-08T10:38:24.000Z</time>
      </trkpt>
      <trkpt lat="47.39951" lon="6.71288">
        <ele>517</ele>
        <time>2015-03-08T10:38:25.000Z</time>
      </trkpt>
      <trkpt lat="47.39957" lon="6.71281">
        <ele>517</ele>
        <time>2015-03-08T10:38:26.000Z</time>
      </trkpt>
      <trkpt lat="47.39962" lon="6.71275">
        <ele>517</ele>
        <time>2015-03-08T10:38:27.000Z</time>
      </trkpt>
      <trkpt lat="47.39967" lon="6.71267">
        <ele>517</ele>
        <time>2015-03-08T10:38:28.000Z</time>
      </trkpt>
      <trkpt lat="47.39971" lon="6.7126">
        <ele>517</ele>
        <time>2015-03-08T10:38:29.000Z</time>
      </trkpt>
      <trkpt lat="47.39975" lon="6.71254">
        <ele>517</ele>
        <time>2015-03-08T10:38:30.000Z</time>
      </trkpt>
      <trkpt lat="47.39978" lon="6.71247">
        <ele>517</ele>
        <time>2015-03-08T10:38:31.000Z</time>
      </trkpt>
      <trkpt lat="47.39983" lon="6.7124">
        <ele>517</ele>
        <time>2015-03-08T10:38:32.000Z</time>
      </trkpt>
      <trkpt lat="47.39986" lon="6.71233">
        <ele>517</ele>
        <time>2015-03-08T10:38:33.000Z</time>
      </trkpt>
      <trkpt lat="47.39989" lon="6.71226">
        <ele>517</ele>
        <time>2015-03-08T10:38:34.000Z</time>
      </trkpt>
      <trkpt lat="47.39992" lon="6.7122">
        <ele>517</ele>
        <time>2015-03-08T10:38:35.000Z</time>
      </trkpt>
      <trkpt lat="47.39996" lon="6.71217">
        <ele>517</ele>
        <time>2015-03-08T10:38:36.000Z</time>
      </trkpt>
      <trkpt lat="47.4" lon="6.71214">
        <ele>517</ele>
        <time>2015-03-08T10:38:37.000Z</time>
      </trkpt>
      <trkpt lat="47.40004" lon="6.7121">
        <ele>516</ele>
        <time>2015-03-08T10:38:38.000Z</time>
      </trkpt>
      <trkpt lat="47.40005" lon="6.71206">
        <ele>516</ele>
        <time>2015-03-08T10:38:39.000Z</time>
      </trkpt>
      <trkpt lat="47.40006" lon="6.71202">
        <ele>516</ele>
        <time>2015-03-08T10:38:40.000Z</time>
      </trkpt>
      <trkpt lat="47.40007" lon="6.71195">
        <ele>516</ele>
        <time>2015-03-08T10:38:41.000Z</time>
      </trkpt>
      <trkpt lat="47.40007" lon="6.71192">
        <ele>516</ele>
        <time>2015-03-08T10:38:42.000Z</time>
      </trkpt>
      <trkpt lat="47.40004" lon="6.7119">
        <ele>516</ele>
        <time>2015-03-08T10:38:43.000Z</time>
      </trkpt>
      <trkpt lat="47.40005" lon="6.71185">
        <ele>516</ele>
        <time>2015-03-08T10:38:45.000Z</time>
      </trkpt>
      <trkpt lat="47.40004" lon="6.71182">
        <ele>516</ele>
        <time>2015-03-08T10:38:46.000Z</time>
      </trkpt>
      <trkpt lat="47.40002" lon="6.71177">
        <ele>517</ele>
        <time>2015-03-08T10:38:48.000Z</time>
      </trkpt>
      <trkpt lat="47.40002" lon="6.71174">
        <ele>517</ele>
        <time>2015-03-08T10:38:49.000Z</time>
      </trkpt>
      <trkpt lat="47.40002" lon="6.7117">
        <ele>517</ele>
        <time>2015-03-08T10:38:50.000Z</time>
      </trkpt>
      <trkpt lat="47.40001" lon="6.71165">
        <ele>518</ele>
        <time>2015-03-08T10:38:51.000Z</time>
      </trkpt>
      <trkpt lat="47.4" lon="6.7116">
        <ele>518</ele>
        <time>2015-03-08T10:38:52.000Z</time>
      </trkpt>
      <trkpt lat="47.39998" lon="6.71154">
        <ele>518</ele>
        <time>2015-03-08T10:38:53.000Z</time>
      </trkpt>
      <trkpt lat="47.39996" lon="6.71149">
        <ele>518</ele>
        <time>2015-03-08T10:38:54.000Z</time>
      </trkpt>
      <trkpt lat="47.39994" lon="6.71143">
        <ele>518</ele>
        <time>2015-03-08T10:38:55.000Z</time>
      </trkpt>
      <trkpt lat="47.39992" lon="6.71138">
        <ele>518</ele>
        <time>2015-03-08T10:38:56.000Z</time>
      </trkpt>
      <trkpt lat="47.3999" lon="6.71133">
        <ele>517</ele>
        <time>2015-03-08T10:38:57.000Z</time>
      </trkpt>
      <trkpt lat="47.39989" lon="6.71128">
        <ele>517</ele>
        <time>2015-03-08T10:38:58.000Z</time>
      </trkpt>
      <trkpt lat="47.39988" lon="6.71122">
        <ele>517</ele>
        <time>2015-03-08T10:38:59.000Z</time>
      </trkpt>
      <trkpt lat="47.39988" lon="6.71117">
        <ele>518</ele>
        <time>2015-03-08T10:39:00.000Z</time>
      </trkpt>
      <trkpt lat="47.39988" lon="6.71114">
        <ele>518</ele>
        <time>2015-03-08T10:39:01.000Z</time>
      </trkpt>
      <trkpt lat="47.39988" lon="6.71109">
        <ele>518</ele>
        <time>2015-03-08T10:39:03.000Z</time>
      </trkpt>
      <trkpt lat="47.39988" lon="6.71106">
        <ele>518</ele>
        <time>2015-03-08T10:39:04.000Z</time>
      </trkpt>
      <trkpt lat="47.39988" lon="6.71101">
        <ele>518</ele>
        <time>2015-03-08T10:39:06.000Z</time>
      </trkpt>
      <trkpt lat="47.39987" lon="6.71098">
        <ele>518</ele>
        <time>2015-03-08T10:39:07.000Z</time>
      </trkpt>
      <trkpt lat="47.39987" lon="6.71095">
        <ele>518</ele>
        <time>2015-03-08T10:39:08.000Z</time>
      </trkpt>
      <trkpt lat="47.39986" lon="6.71091">
        <ele>518</ele>
        <time>2015-03-08T10:39:09.000Z</time>
      </trkpt>
      <trkpt lat="47.39985" lon="6.71087">
        <ele>518</ele>
        <time>2015-03-08T10:39:10.000Z</time>
      </trkpt>
      <trkpt lat="47.39984" lon="6.71083">
        <ele>518</ele>
        <time>2015-03-08T10:39:11.000Z</time>
      </trkpt>
      <trkpt lat="47.39982" lon="6.71079">
        <ele>518</ele>
        <time>2015-03-08T10:39:12.000Z</time>
      </trkpt>
      <trkpt lat="47.3998" lon="6.71076">
        <ele>518</ele>
        <time>2015-03-08T10:39:13.000Z</time>
      </trkpt>
      <trkpt lat="47.39978" lon="6.71073">
        <ele>518</ele>
        <time>2015-03-08T10:39:14.000Z</time>
      </trkpt>
      <trkpt lat="47.39976" lon="6.71071">
        <ele>518</ele>
        <time>2015-03-08T10:39:15.000Z</time>
      </trkpt>
      <trkpt lat="47.39975" lon="6.71068">
        <ele>518</ele>
        <time>2015-03-08T10:39:16.000Z</time>
      </trkpt>
      <trkpt lat="47.39973" lon="6.71065">
        <ele>518</ele>
        <time>2015-03-08T10:39:17.000Z</time>
      </trkpt>
      <trkpt lat="47.39971" lon="6.71059">
        <ele>518</ele>
        <time>2015-03-08T10:39:19.000Z</time>
      </trkpt>
      <trkpt lat="47.3997" lon="6.71056">
        <ele>518</ele>
        <time>2015-03-08T10:39:20.000Z</time>
      </trkpt>
      <trkpt lat="47.39969" lon="6.7105">
        <ele>518</ele>
        <time>2015-03-08T10:39:22.000Z</time>
      </trkpt>
      <trkpt lat="47.39969" lon="6.71047">
        <ele>518</ele>
        <time>2015-03-08T10:39:23.000Z</time>
      </trkpt>
      <trkpt lat="47.39968" lon="6.71044">
        <ele>518</ele>
        <time>2015-03-08T10:39:24.000Z</time>
      </trkpt>
      <trkpt lat="47.39968" lon="6.7104">
        <ele>518</ele>
        <time>2015-03-08T10:39:25.000Z</time>
      </trkpt>
      <trkpt lat="47.39968" lon="6.71036">
        <ele>518</ele>
        <time>2015-03-08T10:39:26.000Z</time>
      </trkpt>
      <trkpt lat="47.39967" lon="6.71031">
        <ele>518</ele>
        <time>2015-03-08T10:39:27.000Z</time>
      </trkpt>
      <trkpt lat="47.39967" lon="6.71025">
        <ele>518</ele>
        <time>2015-03-08T10:39:28.000Z</time>
      </trkpt>
      <trkpt lat="47.39967" lon="6.71023">
        <ele>518</ele>
        <time>2015-03-08T10:39:29.000Z</time>
      </trkpt>
      <trkpt lat="47.39966" lon="6.71017">
        <ele>518</ele>
        <time>2015-03-08T10:39:31.000Z</time>
      </trkpt>
      <trkpt lat="47.39966" lon="6.71015">
        <ele>518</ele>
        <time>2015-03-08T10:39:32.000Z</time>
      </trkpt>
      <trkpt lat="47.39965" lon="6.71011">
        <ele>519</ele>
        <time>2015-03-08T10:39:33.000Z</time>
      </trkpt>
      <trkpt lat="47.39963" lon="6.71007">
        <ele>519</ele>
        <time>2015-03-08T10:39:34.000Z</time>
      </trkpt>
      <trkpt lat="47.39958" lon="6.70997">
        <ele>517</ele>
        <time>2015-03-08T10:39:35.000Z</time>
      </trkpt>
      <trkpt lat="47.39957" lon="6.70991">
        <ele>517</ele>
        <time>2015-03-08T10:39:37.000Z</time>
      </trkpt>
      <trkpt lat="47.39957" lon="6.70985">
        <ele>517</ele>
        <time>2015-03-08T10:39:38.000Z</time>
      </trkpt>
      <trkpt lat="47.39957" lon="6.70976">
        <ele>517</ele>
        <time>2015-03-08T10:39:39.000Z</time>
      </trkpt>
      <trkpt lat="47.39956" lon="6.70971">
        <ele>517</ele>
        <time>2015-03-08T10:39:40.000Z</time>
      </trkpt>
      <trkpt lat="47.39953" lon="6.70963">
        <ele>517</ele>
        <time>2015-03-08T10:39:41.000Z</time>
      </trkpt>
      <trkpt lat="47.39953" lon="6.70956">
        <ele>516</ele>
        <time>2015-03-08T10:39:42.000Z</time>
      </trkpt>
      <trkpt lat="47.39955" lon="6.70951">
        <ele>516</ele>
        <time>2015-03-08T10:39:43.000Z</time>
      </trkpt>
      <trkpt lat="47.39957" lon="6.70944">
        <ele>516</ele>
        <time>2015-03-08T10:39:44.000Z</time>
      </trkpt>
      <trkpt lat="47.39957" lon="6.70941">
        <ele>516</ele>
        <time>2015-03-08T10:39:45.000Z</time>
      </trkpt>
      <trkpt lat="47.39958" lon="6.70937">
        <ele>516</ele>
        <time>2015-03-08T10:39:46.000Z</time>
      </trkpt>
      <trkpt lat="47.39959" lon="6.70932">
        <ele>516</ele>
        <time>2015-03-08T10:39:48.000Z</time>
      </trkpt>
      <trkpt lat="47.3996" lon="6.70929">
        <ele>516</ele>
        <time>2015-03-08T10:39:49.000Z</time>
      </trkpt>
      <trkpt lat="47.3996" lon="6.70924">
        <ele>516</ele>
        <time>2015-03-08T10:39:52.000Z</time>
      </trkpt>
      <trkpt lat="47.3996" lon="6.70922">
        <ele>516</ele>
        <time>2015-03-08T10:39:53.000Z</time>
      </trkpt>
      <trkpt lat="47.39962" lon="6.70919">
        <ele>516</ele>
        <time>2015-03-08T10:39:55.000Z</time>
      </trkpt>
      <trkpt lat="47.39964" lon="6.70918">
        <ele>516</ele>
        <time>2015-03-08T10:39:56.000Z</time>
      </trkpt>
      <trkpt lat="47.39968" lon="6.70917">
        <ele>516</ele>
        <time>2015-03-08T10:39:58.000Z</time>
      </trkpt>
      <trkpt lat="47.3997" lon="6.70917">
        <ele>516</ele>
        <time>2015-03-08T10:39:59.000Z</time>
      </trkpt>
      <trkpt lat="47.39973" lon="6.70918">
        <ele>516</ele>
        <time>2015-03-08T10:40:01.000Z</time>
      </trkpt>
      <trkpt lat="47.39976" lon="6.70918">
        <ele>516</ele>
        <time>2015-03-08T10:40:02.000Z</time>
      </trkpt>
      <trkpt lat="47.39975" lon="6.70914">
        <ele>512</ele>
        <time>2015-03-08T10:40:03.000Z</time>
      </trkpt>
      <trkpt lat="47.39975" lon="6.70911">
        <ele>512</ele>
        <time>2015-03-08T10:40:04.000Z</time>
      </trkpt>
      <trkpt lat="47.39977" lon="6.70906">
        <ele>512</ele>
        <time>2015-03-08T10:40:06.000Z</time>
      </trkpt>
      <trkpt lat="47.39977" lon="6.70904">
        <ele>512</ele>
        <time>2015-03-08T10:40:07.002Z</time>
      </trkpt>
      <trkpt lat="47.3998" lon="6.70897">
        <ele>511</ele>
        <time>2015-03-08T10:40:08.000Z</time>
      </trkpt>
      <trkpt lat="47.39982" lon="6.70892">
        <ele>511</ele>
        <time>2015-03-08T10:40:10.000Z</time>
      </trkpt>
      <trkpt lat="47.39983" lon="6.70891">
        <ele>511</ele>
        <time>2015-03-08T10:40:11.000Z</time>
      </trkpt>
      <trkpt lat="47.39985" lon="6.70887">
        <ele>511</ele>
        <time>2015-03-08T10:40:13.000Z</time>
      </trkpt>
      <trkpt lat="47.39986" lon="6.70884">
        <ele>511</ele>
        <time>2015-03-08T10:40:14.000Z</time>
      </trkpt>
      <trkpt lat="47.39988" lon="6.70881">
        <ele>511</ele>
        <time>2015-03-08T10:40:15.000Z</time>
      </trkpt>
      <trkpt lat="47.3999" lon="6.70877">
        <ele>510</ele>
        <time>2015-03-08T10:40:16.000Z</time>
      </trkpt>
      <trkpt lat="47.39991" lon="6.70873">
        <ele>510</ele>
        <time>2015-03-08T10:40:17.000Z</time>
      </trkpt>
      <trkpt lat="47.39993" lon="6.70867">
        <ele>510</ele>
        <time>2015-03-08T10:40:18.000Z</time>
      </trkpt>
      <trkpt lat="47.39994" lon="6.70862">
        <ele>510</ele>
        <time>2015-03-08T10:40:19.000Z</time>
      </trkpt>
      <trkpt lat="47.39995" lon="6.70856">
        <ele>510</ele>
        <time>2015-03-08T10:40:20.000Z</time>
      </trkpt>
      <trkpt lat="47.39996" lon="6.70851">
        <ele>510</ele>
        <time>2015-03-08T10:40:21.000Z</time>
      </trkpt>
      <trkpt lat="47.39997" lon="6.70846">
        <ele>510</ele>
        <time>2015-03-08T10:40:22.000Z</time>
      </trkpt>
      <trkpt lat="47.39999" lon="6.7084">
        <ele>510</ele>
        <time>2015-03-08T10:40:23.000Z</time>
      </trkpt>
      <trkpt lat="47.4" lon="6.70834">
        <ele>510</ele>
        <time>2015-03-08T10:40:24.000Z</time>
      </trkpt>
      <trkpt lat="47.40002" lon="6.70829">
        <ele>510</ele>
        <time>2015-03-08T10:40:25.000Z</time>
      </trkpt>
      <trkpt lat="47.40003" lon="6.70823">
        <ele>510</ele>
        <time>2015-03-08T10:40:26.000Z</time>
      </trkpt>
      <trkpt lat="47.40004" lon="6.70818">
        <ele>510</ele>
        <time>2015-03-08T10:40:27.000Z</time>
      </trkpt>
      <trkpt lat="47.40005" lon="6.70812">
        <ele>510</ele>
        <time>2015-03-08T10:40:28.000Z</time>
      </trkpt>
      <trkpt lat="47.40006" lon="6.70808">
        <ele>510</ele>
        <time>2015-03-08T10:40:29.000Z</time>
      </trkpt>
      <trkpt lat="47.40007" lon="6.70803">
        <ele>509</ele>
        <time>2015-03-08T10:40:30.000Z</time>
      </trkpt>
      <trkpt lat="47.40007" lon="6.70798">
        <ele>509</ele>
        <time>2015-03-08T10:40:31.000Z</time>
      </trkpt>
      <trkpt lat="47.40007" lon="6.70792">
        <ele>509</ele>
        <time>2015-03-08T10:40:32.000Z</time>
      </trkpt>
      <trkpt lat="47.40008" lon="6.70786">
        <ele>509</ele>
        <time>2015-03-08T10:40:33.000Z</time>
      </trkpt>
      <trkpt lat="47.40008" lon="6.7078">
        <ele>509</ele>
        <time>2015-03-08T10:40:34.000Z</time>
      </trkpt>
      <trkpt lat="47.4001" lon="6.70773">
        <ele>509</ele>
        <time>2015-03-08T10:40:35.000Z</time>
      </trkpt>
      <trkpt lat="47.40012" lon="6.70767">
        <ele>508</ele>
        <time>2015-03-08T10:40:36.000Z</time>
      </trkpt>
      <trkpt lat="47.40015" lon="6.70759">
        <ele>508</ele>
        <time>2015-03-08T10:40:37.000Z</time>
      </trkpt>
      <trkpt lat="47.40017" lon="6.70753">
        <ele>508</ele>
        <time>2015-03-08T10:40:38.000Z</time>
      </trkpt>
      <trkpt lat="47.4002" lon="6.70746">
        <ele>507</ele>
        <time>2015-03-08T10:40:39.000Z</time>
      </trkpt>
      <trkpt lat="47.40022" lon="6.70739">
        <ele>507</ele>
        <time>2015-03-08T10:40:40.000Z</time>
      </trkpt>
      <trkpt lat="47.40024" lon="6.70732">
        <ele>507</ele>
        <time>2015-03-08T10:40:41.000Z</time>
      </trkpt>
      <trkpt lat="47.40025" lon="6.70724">
        <ele>507</ele>
        <time>2015-03-08T10:40:42.000Z</time>
      </trkpt>
      <trkpt lat="47.40025" lon="6.70715">
        <ele>507</ele>
        <time>2015-03-08T10:40:43.000Z</time>
      </trkpt>
      <trkpt lat="47.40026" lon="6.70706">
        <ele>508</ele>
        <time>2015-03-08T10:40:44.000Z</time>
      </trkpt>
      <trkpt lat="47.40026" lon="6.70696">
        <ele>508</ele>
        <time>2015-03-08T10:40:45.000Z</time>
      </trkpt>
      <trkpt lat="47.40024" lon="6.70669">
        <ele>508</ele>
        <time>2015-03-08T10:40:46.000Z</time>
      </trkpt>
      <trkpt lat="47.40024" lon="6.70657">
        <ele>506</ele>
        <time>2015-03-08T10:40:47.000Z</time>
      </trkpt>
      <trkpt lat="47.40024" lon="6.70646">
        <ele>506</ele>
        <time>2015-03-08T10:40:48.000Z</time>
      </trkpt>
      <trkpt lat="47.40024" lon="6.70637">
        <ele>506</ele>
        <time>2015-03-08T10:40:49.000Z</time>
      </trkpt>
      <trkpt lat="47.4002" lon="6.70626">
        <ele>506</ele>
        <time>2015-03-08T10:40:50.000Z</time>
      </trkpt>
      <trkpt lat="47.40018" lon="6.70618">
        <ele>506</ele>
        <time>2015-03-08T10:40:51.000Z</time>
      </trkpt>
      <trkpt lat="47.40018" lon="6.70611">
        <ele>506</ele>
        <time>2015-03-08T10:40:52.000Z</time>
      </trkpt>
      <trkpt lat="47.40017" lon="6.70598">
        <ele>506</ele>
        <time>2015-03-08T10:40:53.000Z</time>
      </trkpt>
      <trkpt lat="47.40016" lon="6.70589">
        <ele>506</ele>
        <time>2015-03-08T10:40:54.000Z</time>
      </trkpt>
      <trkpt lat="47.40014" lon="6.70582">
        <ele>504</ele>
        <time>2015-03-08T10:40:55.000Z</time>
      </trkpt>
      <trkpt lat="47.40012" lon="6.70574">
        <ele>504</ele>
        <time>2015-03-08T10:40:56.000Z</time>
      </trkpt>
      <trkpt lat="47.40012" lon="6.70567">
        <ele>503</ele>
        <time>2015-03-08T10:40:57.000Z</time>
      </trkpt>
      <trkpt lat="47.4001" lon="6.70555">
        <ele>502</ele>
        <time>2015-03-08T10:40:58.000Z</time>
      </trkpt>
      <trkpt lat="47.40009" lon="6.70546">
        <ele>502</ele>
        <time>2015-03-08T10:40:59.000Z</time>
      </trkpt>
      <trkpt lat="47.40008" lon="6.70538">
        <ele>501</ele>
        <time>2015-03-08T10:41:00.000Z</time>
      </trkpt>
      <trkpt lat="47.40008" lon="6.7053">
        <ele>501</ele>
        <time>2015-03-08T10:41:01.000Z</time>
      </trkpt>
      <trkpt lat="47.40008" lon="6.70521">
        <ele>501</ele>
        <time>2015-03-08T10:41:02.000Z</time>
      </trkpt>
      <trkpt lat="47.40007" lon="6.70514">
        <ele>501</ele>
        <time>2015-03-08T10:41:03.000Z</time>
      </trkpt>
      <trkpt lat="47.40005" lon="6.70504">
        <ele>500</ele>
        <time>2015-03-08T10:41:04.000Z</time>
      </trkpt>
      <trkpt lat="47.40004" lon="6.70496">
        <ele>499</ele>
        <time>2015-03-08T10:41:05.000Z</time>
      </trkpt>
      <trkpt lat="47.40003" lon="6.70488">
        <ele>498</ele>
        <time>2015-03-08T10:41:06.000Z</time>
      </trkpt>
      <trkpt lat="47.40002" lon="6.7048">
        <ele>497</ele>
        <time>2015-03-08T10:41:07.000Z</time>
      </trkpt>
      <trkpt lat="47.40001" lon="6.70473">
        <ele>497</ele>
        <time>2015-03-08T10:41:08.000Z</time>
      </trkpt>
      <trkpt lat="47.4" lon="6.7046">
        <ele>496</ele>
        <time>2015-03-08T10:41:09.000Z</time>
      </trkpt>
      <trkpt lat="47.39999" lon="6.7045">
        <ele>491</ele>
        <time>2015-03-08T10:41:10.000Z</time>
      </trkpt>
      <trkpt lat="47.39997" lon="6.7044">
        <ele>491</ele>
        <time>2015-03-08T10:41:11.000Z</time>
      </trkpt>
      <trkpt lat="47.39997" lon="6.70432">
        <ele>492</ele>
        <time>2015-03-08T10:41:12.000Z</time>
      </trkpt>
      <trkpt lat="47.39996" lon="6.70426">
        <ele>492</ele>
        <time>2015-03-08T10:41:13.000Z</time>
      </trkpt>
      <trkpt lat="47.39994" lon="6.70413">
        <ele>491</ele>
        <time>2015-03-08T10:41:14.000Z</time>
      </trkpt>
      <trkpt lat="47.39996" lon="6.70407">
        <ele>491</ele>
        <time>2015-03-08T10:41:15.000Z</time>
      </trkpt>
      <trkpt lat="47.39995" lon="6.704">
        <ele>489</ele>
        <time>2015-03-08T10:41:16.000Z</time>
      </trkpt>
      <trkpt lat="47.39993" lon="6.70393">
        <ele>488</ele>
        <time>2015-03-08T10:41:17.000Z</time>
      </trkpt>
      <trkpt lat="47.39992" lon="6.70387">
        <ele>487</ele>
        <time>2015-03-08T10:41:18.000Z</time>
      </trkpt>
      <trkpt lat="47.3999" lon="6.70381">
        <ele>487</ele>
        <time>2015-03-08T10:41:19.000Z</time>
      </trkpt>
      <trkpt lat="47.39989" lon="6.70371">
        <ele>486</ele>
        <time>2015-03-08T10:41:20.000Z</time>
      </trkpt>
      <trkpt lat="47.39993" lon="6.70372">
        <ele>487</ele>
        <time>2015-03-08T10:41:22.000Z</time>
      </trkpt>
      <trkpt lat="47.39995" lon="6.7037">
        <ele>487</ele>
        <time>2015-03-08T10:41:23.000Z</time>
      </trkpt>
      <trkpt lat="47.39999" lon="6.7037">
        <ele>487</ele>
        <time>2015-03-08T10:41:26.000Z</time>
      </trkpt>
      <trkpt lat="47.4" lon="6.7037">
        <ele>489</ele>
        <time>2015-03-08T10:41:27.000Z</time>
      </trkpt>
      <trkpt lat="47.40002" lon="6.7037">
        <ele>489</ele>
        <time>2015-03-08T10:41:28.000Z</time>
      </trkpt>
      <trkpt lat="47.40005" lon="6.70367">
        <ele>489</ele>
        <time>2015-03-08T10:41:29.000Z</time>
      </trkpt>
      <trkpt lat="47.40008" lon="6.70366">
        <ele>489</ele>
        <time>2015-03-08T10:41:30.000Z</time>
      </trkpt>
      <trkpt lat="47.4001" lon="6.70364">
        <ele>489</ele>
        <time>2015-03-08T10:41:31.000Z</time>
      </trkpt>
      <trkpt lat="47.40014" lon="6.70362">
        <ele>488</ele>
        <time>2015-03-08T10:41:32.000Z</time>
      </trkpt>
      <trkpt lat="47.40016" lon="6.70362">
        <ele>488</ele>
        <time>2015-03-08T10:41:33.000Z</time>
      </trkpt>
      <trkpt lat="47.40019" lon="6.70361">
        <ele>488</ele>
        <time>2015-03-08T10:41:34.000Z</time>
      </trkpt>
      <trkpt lat="47.40023" lon="6.70359">
        <ele>488</ele>
        <time>2015-03-08T10:41:35.000Z</time>
      </trkpt>
      <trkpt lat="47.40026" lon="6.70358">
        <ele>488</ele>
        <time>2015-03-08T10:41:36.000Z</time>
      </trkpt>
      <trkpt lat="47.40029" lon="6.70358">
        <ele>488</ele>
        <time>2015-03-08T10:41:37.000Z</time>
      </trkpt>
      <trkpt lat="47.40032" lon="6.70359">
        <ele>488</ele>
        <time>2015-03-08T10:41:38.000Z</time>
      </trkpt>
      <trkpt lat="47.40035" lon="6.7036">
        <ele>487</ele>
        <time>2015-03-08T10:41:39.000Z</time>
      </trkpt>
      <trkpt lat="47.40039" lon="6.7036">
        <ele>487</ele>
        <time>2015-03-08T10:41:40.000Z</time>
      </trkpt>
      <trkpt lat="47.40042" lon="6.70361">
        <ele>487</ele>
        <time>2015-03-08T10:41:41.000Z</time>
      </trkpt>
      <trkpt lat="47.40046" lon="6.70362">
        <ele>487</ele>
        <time>2015-03-08T10:41:42.000Z</time>
      </trkpt>
      <trkpt lat="47.40051" lon="6.70362">
        <ele>487</ele>
        <time>2015-03-08T10:41:43.000Z</time>
      </trkpt>
      <trkpt lat="47.40056" lon="6.70363">
        <ele>486</ele>
        <time>2015-03-08T10:41:44.000Z</time>
      </trkpt>
      <trkpt lat="47.40062" lon="6.70363">
        <ele>486</ele>
        <time>2015-03-08T10:41:45.000Z</time>
      </trkpt>
      <trkpt lat="47.40067" lon="6.70364">
        <ele>486</ele>
        <time>2015-03-08T10:41:46.000Z</time>
      </trkpt>
      <trkpt lat="47.40073" lon="6.70366">
        <ele>486</ele>
        <time>2015-03-08T10:41:47.000Z</time>
      </trkpt>
      <trkpt lat="47.40078" lon="6.70369">
        <ele>486</ele>
        <time>2015-03-08T10:41:48.000Z</time>
      </trkpt>
      <trkpt lat="47.40082" lon="6.70372">
        <ele>486</ele>
        <time>2015-03-08T10:41:49.000Z</time>
      </trkpt>
      <trkpt lat="47.40086" lon="6.70376">
        <ele>483</ele>
        <time>2015-03-08T10:41:50.000Z</time>
      </trkpt>
      <trkpt lat="47.4009" lon="6.7038">
        <ele>483</ele>
        <time>2015-03-08T10:41:51.000Z</time>
      </trkpt>
      <trkpt lat="47.40093" lon="6.70385">
        <ele>483</ele>
        <time>2015-03-08T10:41:52.000Z</time>
      </trkpt>
      <trkpt lat="47.40096" lon="6.70389">
        <ele>484</ele>
        <time>2015-03-08T10:41:53.000Z</time>
      </trkpt>
      <trkpt lat="47.40099" lon="6.70392">
        <ele>484</ele>
        <time>2015-03-08T10:41:54.000Z</time>
      </trkpt>
      <trkpt lat="47.40102" lon="6.70392">
        <ele>484</ele>
        <time>2015-03-08T10:41:55.000Z</time>
      </trkpt>
      <trkpt lat="47.40105" lon="6.70392">
        <ele>484</ele>
        <time>2015-03-08T10:41:56.000Z</time>
      </trkpt>
      <trkpt lat="47.40107" lon="6.70391">
        <ele>483</ele>
        <time>2015-03-08T10:41:57.000Z</time>
      </trkpt>
      <trkpt lat="47.40109" lon="6.7039">
        <ele>483</ele>
        <time>2015-03-08T10:41:58.000Z</time>
      </trkpt>
      <trkpt lat="47.40113" lon="6.70388">
        <ele>483</ele>
        <time>2015-03-08T10:42:00.000Z</time>
      </trkpt>
      <trkpt lat="47.40115" lon="6.70385">
        <ele>483</ele>
        <time>2015-03-08T10:42:01.000Z</time>
      </trkpt>
      <trkpt lat="47.40117" lon="6.70381">
        <ele>482</ele>
        <time>2015-03-08T10:42:03.000Z</time>
      </trkpt>
      <trkpt lat="47.40119" lon="6.7038">
        <ele>482</ele>
        <time>2015-03-08T10:42:04.000Z</time>
      </trkpt>
      <trkpt lat="47.40122" lon="6.70378">
        <ele>482</ele>
        <time>2015-03-08T10:42:06.000Z</time>
      </trkpt>
      <trkpt lat="47.40123" lon="6.70377">
        <ele>482</ele>
        <time>2015-03-08T10:42:07.000Z</time>
      </trkpt>
      <trkpt lat="47.40127" lon="6.70376">
        <ele>482</ele>
        <time>2015-03-08T10:42:09.000Z</time>
      </trkpt>
      <trkpt lat="47.40129" lon="6.70376">
        <ele>482</ele>
        <time>2015-03-08T10:42:10.000Z</time>
      </trkpt>
      <trkpt lat="47.40133" lon="6.70376">
        <ele>482</ele>
        <time>2015-03-08T10:42:12.000Z</time>
      </trkpt>
      <trkpt lat="47.40135" lon="6.70374">
        <ele>481</ele>
        <time>2015-03-08T10:42:13.000Z</time>
      </trkpt>
      <trkpt lat="47.40138" lon="6.70373">
        <ele>481</ele>
        <time>2015-03-08T10:42:14.000Z</time>
      </trkpt>
      <trkpt lat="47.4014" lon="6.70373">
        <ele>481</ele>
        <time>2015-03-08T10:42:15.000Z</time>
      </trkpt>
      <trkpt lat="47.40143" lon="6.70372">
        <ele>481</ele>
        <time>2015-03-08T10:42:17.000Z</time>
      </trkpt>
      <trkpt lat="47.40145" lon="6.70372">
        <ele>481</ele>
        <time>2015-03-08T10:42:18.000Z</time>
      </trkpt>
      <trkpt lat="47.40147" lon="6.70376">
        <ele>481</ele>
        <time>2015-03-08T10:42:21.000Z</time>
      </trkpt>
      <trkpt lat="47.40148" lon="6.70377">
        <ele>481</ele>
        <time>2015-03-08T10:42:22.000Z</time>
      </trkpt>
      <trkpt lat="47.40152" lon="6.70381">
        <ele>481</ele>
        <time>2015-03-08T10:42:24.000Z</time>
      </trkpt>
      <trkpt lat="47.40155" lon="6.70382">
        <ele>482</ele>
        <time>2015-03-08T10:42:25.000Z</time>
      </trkpt>
      <trkpt lat="47.40157" lon="6.70383">
        <ele>482</ele>
        <time>2015-03-08T10:42:26.000Z</time>
      </trkpt>
      <trkpt lat="47.40161" lon="6.70385">
        <ele>482</ele>
        <time>2015-03-08T10:42:27.000Z</time>
      </trkpt>
      <trkpt lat="47.40165" lon="6.70387">
        <ele>482</ele>
        <time>2015-03-08T10:42:28.000Z</time>
      </trkpt>
      <trkpt lat="47.40169" lon="6.70391">
        <ele>478</ele>
        <time>2015-03-08T10:42:29.000Z</time>
      </trkpt>
      <trkpt lat="47.40173" lon="6.70394">
        <ele>478</ele>
        <time>2015-03-08T10:42:30.000Z</time>
      </trkpt>
      <trkpt lat="47.40177" lon="6.70398">
        <ele>478</ele>
        <time>2015-03-08T10:42:31.000Z</time>
      </trkpt>
      <trkpt lat="47.40182" lon="6.70402">
        <ele>478</ele>
        <time>2015-03-08T10:42:32.000Z</time>
      </trkpt>
      <trkpt lat="47.40187" lon="6.70406">
        <ele>478</ele>
        <time>2015-03-08T10:42:33.000Z</time>
      </trkpt>
      <trkpt lat="47.40192" lon="6.70411">
        <ele>478</ele>
        <time>2015-03-08T10:42:34.000Z</time>
      </trkpt>
      <trkpt lat="47.40198" lon="6.70415">
        <ele>477</ele>
        <time>2015-03-08T10:42:35.000Z</time>
      </trkpt>
      <trkpt lat="47.40202" lon="6.70419">
        <ele>482</ele>
        <time>2015-03-08T10:42:36.000Z</time>
      </trkpt>
      <trkpt lat="47.40206" lon="6.70423">
        <ele>482</ele>
        <time>2015-03-08T10:42:37.000Z</time>
      </trkpt>
      <trkpt lat="47.4021" lon="6.70426">
        <ele>482</ele>
        <time>2015-03-08T10:42:38.000Z</time>
      </trkpt>
      <trkpt lat="47.40213" lon="6.70429">
        <ele>482</ele>
        <time>2015-03-08T10:42:39.000Z</time>
      </trkpt>
      <trkpt lat="47.40216" lon="6.70432">
        <ele>481</ele>
        <time>2015-03-08T10:42:40.000Z</time>
      </trkpt>
      <trkpt lat="47.40219" lon="6.70436">
        <ele>481</ele>
        <time>2015-03-08T10:42:41.000Z</time>
      </trkpt>
      <trkpt lat="47.40223" lon="6.7044">
        <ele>481</ele>
        <time>2015-03-08T10:42:42.000Z</time>
      </trkpt>
      <trkpt lat="47.40226" lon="6.70443">
        <ele>481</ele>
        <time>2015-03-08T10:42:43.000Z</time>
      </trkpt>
      <trkpt lat="47.40229" lon="6.70447">
        <ele>481</ele>
        <time>2015-03-08T10:42:44.000Z</time>
      </trkpt>
      <trkpt lat="47.40233" lon="6.70449">
        <ele>481</ele>
        <time>2015-03-08T10:42:45.000Z</time>
      </trkpt>
      <trkpt lat="47.40237" lon="6.70452">
        <ele>481</ele>
        <time>2015-03-08T10:42:46.000Z</time>
      </trkpt>
      <trkpt lat="47.40241" lon="6.70455">
        <ele>481</ele>
        <time>2015-03-08T10:42:47.000Z</time>
      </trkpt>
      <trkpt lat="47.40245" lon="6.70457">
        <ele>481</ele>
        <time>2015-03-08T10:42:48.000Z</time>
      </trkpt>
      <trkpt lat="47.40249" lon="6.70461">
        <ele>481</ele>
        <time>2015-03-08T10:42:49.000Z</time>
      </trkpt>
      <trkpt lat="47.40252" lon="6.70464">
        <ele>476</ele>
        <time>2015-03-08T10:42:50.000Z</time>
      </trkpt>
      <trkpt lat="47.40256" lon="6.70468">
        <ele>476</ele>
        <time>2015-03-08T10:42:51.000Z</time>
      </trkpt>
      <trkpt lat="47.4026" lon="6.70472">
        <ele>476</ele>
        <time>2015-03-08T10:42:52.000Z</time>
      </trkpt>
      <trkpt lat="47.40264" lon="6.70476">
        <ele>476</ele>
        <time>2015-03-08T10:42:53.000Z</time>
      </trkpt>
      <trkpt lat="47.40267" lon="6.7048">
        <ele>476</ele>
        <time>2015-03-08T10:42:54.000Z</time>
      </trkpt>
      <trkpt lat="47.40271" lon="6.70483">
        <ele>476</ele>
        <time>2015-03-08T10:42:55.000Z</time>
      </trkpt>
      <trkpt lat="47.40275" lon="6.70487">
        <ele>476</ele>
        <time>2015-03-08T10:42:56.000Z</time>
      </trkpt>
      <trkpt lat="47.40279" lon="6.7049">
        <ele>476</ele>
        <time>2015-03-08T10:42:57.000Z</time>
      </trkpt>
      <trkpt lat="47.40284" lon="6.70492">
        <ele>475</ele>
        <time>2015-03-08T10:42:58.000Z</time>
      </trkpt>
      <trkpt lat="47.40289" lon="6.70495">
        <ele>475</ele>
        <time>2015-03-08T10:42:59.000Z</time>
      </trkpt>
      <trkpt lat="47.40295" lon="6.70498">
        <ele>474</ele>
        <time>2015-03-08T10:43:00.000Z</time>
      </trkpt>
      <trkpt lat="47.403" lon="6.70502">
        <ele>479</ele>
        <time>2015-03-08T10:43:01.000Z</time>
      </trkpt>
      <trkpt lat="47.40306" lon="6.70506">
        <ele>478</ele>
        <time>2015-03-08T10:43:02.000Z</time>
      </trkpt>
      <trkpt lat="47.40311" lon="6.7051">
        <ele>478</ele>
        <time>2015-03-08T10:43:03.000Z</time>
      </trkpt>
      <trkpt lat="47.40317" lon="6.70516">
        <ele>478</ele>
        <time>2015-03-08T10:43:04.000Z</time>
      </trkpt>
      <trkpt lat="47.40331" lon="6.70534">
        <ele>479</ele>
        <time>2015-03-08T10:43:05.000Z</time>
      </trkpt>
      <trkpt lat="47.4034" lon="6.70545">
        <ele>472</ele>
        <time>2015-03-08T10:43:06.000Z</time>
      </trkpt>
      <trkpt lat="47.40346" lon="6.70553">
        <ele>472</ele>
        <time>2015-03-08T10:43:07.000Z</time>
      </trkpt>
      <trkpt lat="47.40352" lon="6.70559">
        <ele>472</ele>
        <time>2015-03-08T10:43:08.000Z</time>
      </trkpt>
      <trkpt lat="47.40356" lon="6.70564">
        <ele>472</ele>
        <time>2015-03-08T10:43:09.000Z</time>
      </trkpt>
      <trkpt lat="47.40362" lon="6.70572">
        <ele>472</ele>
        <time>2015-03-08T10:43:10.000Z</time>
      </trkpt>
      <trkpt lat="47.40367" lon="6.70576">
        <ele>472</ele>
        <time>2015-03-08T10:43:11.000Z</time>
      </trkpt>
      <trkpt lat="47.40371" lon="6.70579">
        <ele>471</ele>
        <time>2015-03-08T10:43:12.000Z</time>
      </trkpt>
      <trkpt lat="47.40376" lon="6.70585">
        <ele>475</ele>
        <time>2015-03-08T10:43:13.000Z</time>
      </trkpt>
      <trkpt lat="47.4038" lon="6.70588">
        <ele>475</ele>
        <time>2015-03-08T10:43:14.000Z</time>
      </trkpt>
      <trkpt lat="47.40384" lon="6.70591">
        <ele>474</ele>
        <time>2015-03-08T10:43:15.000Z</time>
      </trkpt>
      <trkpt lat="47.40389" lon="6.70597">
        <ele>474</ele>
        <time>2015-03-08T10:43:16.000Z</time>
      </trkpt>
      <trkpt lat="47.40395" lon="6.70604">
        <ele>474</ele>
        <time>2015-03-08T10:43:17.000Z</time>
      </trkpt>
      <trkpt lat="47.40398" lon="6.70607">
        <ele>474</ele>
        <time>2015-03-08T10:43:18.000Z</time>
      </trkpt>
      <trkpt lat="47.40402" lon="6.70612">
        <ele>474</ele>
        <time>2015-03-08T10:43:19.000Z</time>
      </trkpt>
      <trkpt lat="47.40405" lon="6.70616">
        <ele>474</ele>
        <time>2015-03-08T10:43:20.000Z</time>
      </trkpt>
      <trkpt lat="47.40409" lon="6.7062">
        <ele>474</ele>
        <time>2015-03-08T10:43:21.000Z</time>
      </trkpt>
      <trkpt lat="47.40413" lon="6.70625">
        <ele>474</ele>
        <time>2015-03-08T10:43:22.000Z</time>
      </trkpt>
      <trkpt lat="47.40418" lon="6.70628">
        <ele>468</ele>
        <time>2015-03-08T10:43:23.000Z</time>
      </trkpt>
      <trkpt lat="47.40422" lon="6.7063">
        <ele>468</ele>
        <time>2015-03-08T10:43:24.000Z</time>
      </trkpt>
      <trkpt lat="47.40427" lon="6.70632">
        <ele>468</ele>
        <time>2015-03-08T10:43:25.000Z</time>
      </trkpt>
      <trkpt lat="47.40432" lon="6.70632">
        <ele>468</ele>
        <time>2015-03-08T10:43:26.000Z</time>
      </trkpt>
      <trkpt lat="47.40434" lon="6.70631">
        <ele>468</ele>
        <time>2015-03-08T10:43:27.000Z</time>
      </trkpt>
      <trkpt lat="47.40437" lon="6.70629">
        <ele>467</ele>
        <time>2015-03-08T10:43:28.000Z</time>
      </trkpt>
      <trkpt lat="47.40441" lon="6.70626">
        <ele>467</ele>
        <time>2015-03-08T10:43:29.000Z</time>
      </trkpt>
      <trkpt lat="47.40444" lon="6.70623">
        <ele>467</ele>
        <time>2015-03-08T10:43:30.000Z</time>
      </trkpt>
      <trkpt lat="47.40447" lon="6.7062">
        <ele>466</ele>
        <time>2015-03-08T10:43:31.000Z</time>
      </trkpt>
      <trkpt lat="47.4045" lon="6.70617">
        <ele>466</ele>
        <time>2015-03-08T10:43:32.000Z</time>
      </trkpt>
      <trkpt lat="47.40452" lon="6.70614">
        <ele>466</ele>
        <time>2015-03-08T10:43:33.000Z</time>
      </trkpt>
      <trkpt lat="47.40454" lon="6.70611">
        <ele>465</ele>
        <time>2015-03-08T10:43:34.000Z</time>
      </trkpt>
      <trkpt lat="47.40456" lon="6.70608">
        <ele>465</ele>
        <time>2015-03-08T10:43:35.000Z</time>
      </trkpt>
      <trkpt lat="47.40458" lon="6.70606">
        <ele>465</ele>
        <time>2015-03-08T10:43:36.000Z</time>
      </trkpt>
      <trkpt lat="47.40461" lon="6.70604">
        <ele>464</ele>
        <time>2015-03-08T10:43:37.000Z</time>
      </trkpt>
      <trkpt lat="47.40466" lon="6.70603">
        <ele>464</ele>
        <time>2015-03-08T10:43:38.000Z</time>
      </trkpt>
      <trkpt lat="47.40471" lon="6.70602">
        <ele>463</ele>
        <time>2015-03-08T10:43:39.000Z</time>
      </trkpt>
      <trkpt lat="47.40476" lon="6.70601">
        <ele>463</ele>
        <time>2015-03-08T10:43:40.000Z</time>
      </trkpt>
      <trkpt lat="47.40482" lon="6.70601">
        <ele>462</ele>
        <time>2015-03-08T10:43:41.000Z</time>
      </trkpt>
      <trkpt lat="47.40489" lon="6.706">
        <ele>461</ele>
        <time>2015-03-08T10:43:42.000Z</time>
      </trkpt>
      <trkpt lat="47.40496" lon="6.70599">
        <ele>460</ele>
        <time>2015-03-08T10:43:43.000Z</time>
      </trkpt>
      <trkpt lat="47.40502" lon="6.70598">
        <ele>457</ele>
        <time>2015-03-08T10:43:44.000Z</time>
      </trkpt>
      <trkpt lat="47.40507" lon="6.70596">
        <ele>457</ele>
        <time>2015-03-08T10:43:45.000Z</time>
      </trkpt>
      <trkpt lat="47.40512" lon="6.70594">
        <ele>457</ele>
        <time>2015-03-08T10:43:46.000Z</time>
      </trkpt>
      <trkpt lat="47.40519" lon="6.70592">
        <ele>457</ele>
        <time>2015-03-08T10:43:47.000Z</time>
      </trkpt>
      <trkpt lat="47.40542" lon="6.70589">
        <ele>457</ele>
        <time>2015-03-08T10:43:48.000Z</time>
      </trkpt>
      <trkpt lat="47.40547" lon="6.70587">
        <ele>457</ele>
        <time>2015-03-08T10:43:49.000Z</time>
      </trkpt>
      <trkpt lat="47.40552" lon="6.70585">
        <ele>457</ele>
        <time>2015-03-08T10:43:50.000Z</time>
      </trkpt>
      <trkpt lat="47.40557" lon="6.70583">
        <ele>451</ele>
        <time>2015-03-08T10:43:51.000Z</time>
      </trkpt>
      <trkpt lat="47.40562" lon="6.70581">
        <ele>451</ele>
        <time>2015-03-08T10:43:52.000Z</time>
      </trkpt>
      <trkpt lat="47.40567" lon="6.70578">
        <ele>451</ele>
        <time>2015-03-08T10:43:53.000Z</time>
      </trkpt>
      <trkpt lat="47.40573" lon="6.70575">
        <ele>451</ele>
        <time>2015-03-08T10:43:54.000Z</time>
      </trkpt>
      <trkpt lat="47.40579" lon="6.70572">
        <ele>452</ele>
        <time>2015-03-08T10:43:55.000Z</time>
      </trkpt>
      <trkpt lat="47.40585" lon="6.70569">
        <ele>451</ele>
        <time>2015-03-08T10:43:56.000Z</time>
      </trkpt>
      <trkpt lat="47.40591" lon="6.70566">
        <ele>451</ele>
        <time>2015-03-08T10:43:57.000Z</time>
      </trkpt>
      <trkpt lat="47.40597" lon="6.70562">
        <ele>450</ele>
        <time>2015-03-08T10:43:58.000Z</time>
      </trkpt>
      <trkpt lat="47.40602" lon="6.7056">
        <ele>450</ele>
        <time>2015-03-08T10:43:59.000Z</time>
      </trkpt>
      <trkpt lat="47.40607" lon="6.70558">
        <ele>449</ele>
        <time>2015-03-08T10:44:00.000Z</time>
      </trkpt>
      <trkpt lat="47.40613" lon="6.70555">
        <ele>449</ele>
        <time>2015-03-08T10:44:01.000Z</time>
      </trkpt>
      <trkpt lat="47.40619" lon="6.70551">
        <ele>449</ele>
        <time>2015-03-08T10:44:02.000Z</time>
      </trkpt>
      <trkpt lat="47.40624" lon="6.70547">
        <ele>449</ele>
        <time>2015-03-08T10:44:03.000Z</time>
      </trkpt>
      <trkpt lat="47.40629" lon="6.70543">
        <ele>448</ele>
        <time>2015-03-08T10:44:04.000Z</time>
      </trkpt>
      <trkpt lat="47.40634" lon="6.70539">
        <ele>448</ele>
        <time>2015-03-08T10:44:05.000Z</time>
      </trkpt>
      <trkpt lat="47.40638" lon="6.70536">
        <ele>448</ele>
        <time>2015-03-08T10:44:06.000Z</time>
      </trkpt>
      <trkpt lat="47.40642" lon="6.70532">
        <ele>448</ele>
        <time>2015-03-08T10:44:07.000Z</time>
      </trkpt>
      <trkpt lat="47.40645" lon="6.70529">
        <ele>448</ele>
        <time>2015-03-08T10:44:08.000Z</time>
      </trkpt>
      <trkpt lat="47.40648" lon="6.70525">
        <ele>448</ele>
        <time>2015-03-08T10:44:09.000Z</time>
      </trkpt>
      <trkpt lat="47.40651" lon="6.70522">
        <ele>447</ele>
        <time>2015-03-08T10:44:10.000Z</time>
      </trkpt>
      <trkpt lat="47.40655" lon="6.70519">
        <ele>447</ele>
        <time>2015-03-08T10:44:11.000Z</time>
      </trkpt>
      <trkpt lat="47.40658" lon="6.70516">
        <ele>447</ele>
        <time>2015-03-08T10:44:12.000Z</time>
      </trkpt>
      <trkpt lat="47.40661" lon="6.70512">
        <ele>447</ele>
        <time>2015-03-08T10:44:13.000Z</time>
      </trkpt>
      <trkpt lat="47.40663" lon="6.70508">
        <ele>447</ele>
        <time>2015-03-08T10:44:14.000Z</time>
      </trkpt>
      <trkpt lat="47.40665" lon="6.70504">
        <ele>446</ele>
        <time>2015-03-08T10:44:15.000Z</time>
      </trkpt>
      <trkpt lat="47.40666" lon="6.705">
        <ele>446</ele>
        <time>2015-03-08T10:44:16.000Z</time>
      </trkpt>
      <trkpt lat="47.40667" lon="6.70496">
        <ele>445</ele>
        <time>2015-03-08T10:44:17.000Z</time>
      </trkpt>
      <trkpt lat="47.40669" lon="6.70492">
        <ele>444</ele>
        <time>2015-03-08T10:44:18.000Z</time>
      </trkpt>
      <trkpt lat="47.40671" lon="6.70489">
        <ele>444</ele>
        <time>2015-03-08T10:44:19.000Z</time>
      </trkpt>
      <trkpt lat="47.40672" lon="6.70486">
        <ele>443</ele>
        <time>2015-03-08T10:44:20.000Z</time>
      </trkpt>
      <trkpt lat="47.40674" lon="6.70481">
        <ele>443</ele>
        <time>2015-03-08T10:44:21.000Z</time>
      </trkpt>
      <trkpt lat="47.40676" lon="6.70477">
        <ele>442</ele>
        <time>2015-03-08T10:44:22.000Z</time>
      </trkpt>
      <trkpt lat="47.40677" lon="6.70472">
        <ele>442</ele>
        <time>2015-03-08T10:44:23.000Z</time>
      </trkpt>
      <trkpt lat="47.40679" lon="6.70466">
        <ele>441</ele>
        <time>2015-03-08T10:44:24.000Z</time>
      </trkpt>
      <trkpt lat="47.4068" lon="6.7046">
        <ele>441</ele>
        <time>2015-03-08T10:44:25.000Z</time>
      </trkpt>
      <trkpt lat="47.40681" lon="6.70454">
        <ele>440</ele>
        <time>2015-03-08T10:44:26.000Z</time>
      </trkpt>
      <trkpt lat="47.40682" lon="6.70448">
        <ele>440</ele>
        <time>2015-03-08T10:44:27.000Z</time>
      </trkpt>
      <trkpt lat="47.40682" lon="6.70442">
        <ele>439</ele>
        <time>2015-03-08T10:44:28.000Z</time>
      </trkpt>
      <trkpt lat="47.40683" lon="6.70436">
        <ele>439</ele>
        <time>2015-03-08T10:44:29.000Z</time>
      </trkpt>
      <trkpt lat="47.40684" lon="6.7043">
        <ele>438</ele>
        <time>2015-03-08T10:44:30.000Z</time>
      </trkpt>
      <trkpt lat="47.40684" lon="6.70424">
        <ele>438</ele>
        <time>2015-03-08T10:44:31.000Z</time>
      </trkpt>
      <trkpt lat="47.40685" lon="6.70418">
        <ele>438</ele>
        <time>2015-03-08T10:44:32.000Z</time>
      </trkpt>
      <trkpt lat="47.40687" lon="6.70414">
        <ele>431</ele>
        <time>2015-03-08T10:44:33.000Z</time>
      </trkpt>
      <trkpt lat="47.40689" lon="6.70409">
        <ele>430</ele>
        <time>2015-03-08T10:44:34.000Z</time>
      </trkpt>
      <trkpt lat="47.40692" lon="6.70406">
        <ele>430</ele>
        <time>2015-03-08T10:44:35.000Z</time>
      </trkpt>
      <trkpt lat="47.40695" lon="6.70404">
        <ele>429</ele>
        <time>2015-03-08T10:44:36.000Z</time>
      </trkpt>
      <trkpt lat="47.40699" lon="6.70403">
        <ele>429</ele>
        <time>2015-03-08T10:44:37.000Z</time>
      </trkpt>
      <trkpt lat="47.40702" lon="6.70402">
        <ele>429</ele>
        <time>2015-03-08T10:44:38.000Z</time>
      </trkpt>
      <trkpt lat="47.40705" lon="6.70402">
        <ele>429</ele>
        <time>2015-03-08T10:44:39.000Z</time>
      </trkpt>
      <trkpt lat="47.40707" lon="6.70403">
        <ele>429</ele>
        <time>2015-03-08T10:44:40.000Z</time>
      </trkpt>
      <trkpt lat="47.40711" lon="6.70403">
        <ele>429</ele>
        <time>2015-03-08T10:44:41.000Z</time>
      </trkpt>
      <trkpt lat="47.40713" lon="6.70403">
        <ele>429</ele>
        <time>2015-03-08T10:44:42.000Z</time>
      </trkpt>
      <trkpt lat="47.40716" lon="6.70404">
        <ele>429</ele>
        <time>2015-03-08T10:44:43.000Z</time>
      </trkpt>
      <trkpt lat="47.40719" lon="6.70405">
        <ele>429</ele>
        <time>2015-03-08T10:44:44.000Z</time>
      </trkpt>
      <trkpt lat="47.40722" lon="6.70407">
        <ele>429</ele>
        <time>2015-03-08T10:44:45.000Z</time>
      </trkpt>
      <trkpt lat="47.40725" lon="6.70409">
        <ele>430</ele>
        <time>2015-03-08T10:44:46.000Z</time>
      </trkpt>
      <trkpt lat="47.40728" lon="6.7041">
        <ele>430</ele>
        <time>2015-03-08T10:44:47.000Z</time>
      </trkpt>
      <trkpt lat="47.40731" lon="6.70412">
        <ele>430</ele>
        <time>2015-03-08T10:44:48.000Z</time>
      </trkpt>
      <trkpt lat="47.40735" lon="6.70413">
        <ele>431</ele>
        <time>2015-03-08T10:44:49.000Z</time>
      </trkpt>
      <trkpt lat="47.40738" lon="6.70414">
        <ele>432</ele>
        <time>2015-03-08T10:44:50.000Z</time>
      </trkpt>
      <trkpt lat="47.40742" lon="6.70415">
        <ele>432</ele>
        <time>2015-03-08T10:44:51.000Z</time>
      </trkpt>
      <trkpt lat="47.40745" lon="6.70416">
        <ele>433</ele>
        <time>2015-03-08T10:44:52.000Z</time>
      </trkpt>
      <trkpt lat="47.40748" lon="6.70417">
        <ele>434</ele>
        <time>2015-03-08T10:44:53.000Z</time>
      </trkpt>
      <trkpt lat="47.40752" lon="6.70417">
        <ele>435</ele>
        <time>2015-03-08T10:44:54.000Z</time>
      </trkpt>
      <trkpt lat="47.40754" lon="6.70418">
        <ele>436</ele>
        <time>2015-03-08T10:44:55.000Z</time>
      </trkpt>
      <trkpt lat="47.40761" lon="6.70419">
        <ele>436</ele>
        <time>2015-03-08T10:44:56.000Z</time>
      </trkpt>
      <trkpt lat="47.40781" lon="6.70417">
        <ele>437</ele>
        <time>2015-03-08T10:44:57.000Z</time>
      </trkpt>
      <trkpt lat="47.4079" lon="6.70416">
        <ele>427</ele>
        <time>2015-03-08T10:44:58.000Z</time>
      </trkpt>
      <trkpt lat="47.40796" lon="6.70415">
        <ele>427</ele>
        <time>2015-03-08T10:44:59.000Z</time>
      </trkpt>
      <trkpt lat="47.40801" lon="6.70414">
        <ele>427</ele>
        <time>2015-03-08T10:45:00.000Z</time>
      </trkpt>
      <trkpt lat="47.40805" lon="6.70414">
        <ele>427</ele>
        <time>2015-03-08T10:45:02.000Z</time>
      </trkpt>
      <trkpt lat="47.4081" lon="6.70414">
        <ele>428</ele>
        <time>2015-03-08T10:45:03.000Z</time>
      </trkpt>
      <trkpt lat="47.40815" lon="6.70414">
        <ele>428</ele>
        <time>2015-03-08T10:45:04.000Z</time>
      </trkpt>
      <trkpt lat="47.40819" lon="6.70415">
        <ele>429</ele>
        <time>2015-03-08T10:45:05.000Z</time>
      </trkpt>
      <trkpt lat="47.40826" lon="6.70416">
        <ele>430</ele>
        <time>2015-03-08T10:45:06.000Z</time>
      </trkpt>
      <trkpt lat="47.4083" lon="6.70416">
        <ele>431</ele>
        <time>2015-03-08T10:45:07.000Z</time>
      </trkpt>
      <trkpt lat="47.40834" lon="6.70419">
        <ele>432</ele>
        <time>2015-03-08T10:45:08.000Z</time>
      </trkpt>
      <trkpt lat="47.40838" lon="6.7042">
        <ele>432</ele>
        <time>2015-03-08T10:45:09.000Z</time>
      </trkpt>
      <trkpt lat="47.40843" lon="6.70421">
        <ele>432</ele>
        <time>2015-03-08T10:45:10.000Z</time>
      </trkpt>
      <trkpt lat="47.40846" lon="6.70422">
        <ele>432</ele>
        <time>2015-03-08T10:45:11.000Z</time>
      </trkpt>
      <trkpt lat="47.4085" lon="6.70423">
        <ele>432</ele>
        <time>2015-03-08T10:45:12.000Z</time>
      </trkpt>
      <trkpt lat="47.40853" lon="6.70424">
        <ele>432</ele>
        <time>2015-03-08T10:45:13.000Z</time>
      </trkpt>
      <trkpt lat="47.40857" lon="6.70425">
        <ele>432</ele>
        <time>2015-03-08T10:45:14.000Z</time>
      </trkpt>
      <trkpt lat="47.4086" lon="6.70425">
        <ele>432</ele>
        <time>2015-03-08T10:45:15.000Z</time>
      </trkpt>
      <trkpt lat="47.40864" lon="6.70424">
        <ele>432</ele>
        <time>2015-03-08T10:45:16.000Z</time>
      </trkpt>
      <trkpt lat="47.40868" lon="6.70423">
        <ele>432</ele>
        <time>2015-03-08T10:45:17.000Z</time>
      </trkpt>
      <trkpt lat="47.40874" lon="6.7042">
        <ele>431</ele>
        <time>2015-03-08T10:45:18.000Z</time>
      </trkpt>
      <trkpt lat="47.4088" lon="6.70418">
        <ele>431</ele>
        <time>2015-03-08T10:45:19.000Z</time>
      </trkpt>
      <trkpt lat="47.40886" lon="6.70415">
        <ele>423</ele>
        <time>2015-03-08T10:45:20.000Z</time>
      </trkpt>
      <trkpt lat="47.40893" lon="6.70412">
        <ele>423</ele>
        <time>2015-03-08T10:45:21.000Z</time>
      </trkpt>
      <trkpt lat="47.40899" lon="6.7041">
        <ele>423</ele>
        <time>2015-03-08T10:45:22.000Z</time>
      </trkpt>
      <trkpt lat="47.40905" lon="6.70408">
        <ele>423</ele>
        <time>2015-03-08T10:45:23.000Z</time>
      </trkpt>
      <trkpt lat="47.4091" lon="6.70408">
        <ele>423</ele>
        <time>2015-03-08T10:45:24.000Z</time>
      </trkpt>
      <trkpt lat="47.40916" lon="6.70408">
        <ele>424</ele>
        <time>2015-03-08T10:45:25.000Z</time>
      </trkpt>
      <trkpt lat="47.40921" lon="6.70407">
        <ele>422</ele>
        <time>2015-03-08T10:45:26.000Z</time>
      </trkpt>
      <trkpt lat="47.40925" lon="6.70407">
        <ele>421</ele>
        <time>2015-03-08T10:45:27.000Z</time>
      </trkpt>
      <trkpt lat="47.40927" lon="6.70406">
        <ele>421</ele>
        <time>2015-03-08T10:45:28.000Z</time>
      </trkpt>
      <trkpt lat="47.4093" lon="6.70402">
        <ele>419</ele>
        <time>2015-03-08T10:46:32.000Z</time>
      </trkpt>
      <trkpt lat="47.4093" lon="6.704">
        <ele>419</ele>
        <time>2015-03-08T10:46:33.000Z</time>
      </trkpt>
      <trkpt lat="47.40932" lon="6.70395">
        <ele>418</ele>
        <time>2015-03-08T10:46:35.000Z</time>
      </trkpt>
      <trkpt lat="47.40934" lon="6.70391">
        <ele>418</ele>
        <time>2015-03-08T10:46:36.000Z</time>
      </trkpt>
      <trkpt lat="47.40937" lon="6.70386">
        <ele>417</ele>
        <time>2015-03-08T10:46:37.000Z</time>
      </trkpt>
      <trkpt lat="47.40946" lon="6.70384">
        <ele>416</ele>
        <time>2015-03-08T10:46:38.000Z</time>
      </trkpt>
      <trkpt lat="47.40951" lon="6.70384">
        <ele>416</ele>
        <time>2015-03-08T10:46:39.000Z</time>
      </trkpt>
      <trkpt lat="47.40956" lon="6.70384">
        <ele>416</ele>
        <time>2015-03-08T10:46:40.000Z</time>
      </trkpt>
      <trkpt lat="47.4096" lon="6.70385">
        <ele>416</ele>
        <time>2015-03-08T10:46:41.000Z</time>
      </trkpt>
      <trkpt lat="47.40964" lon="6.70384">
        <ele>416</ele>
        <time>2015-03-08T10:46:42.000Z</time>
      </trkpt>
      <trkpt lat="47.40973" lon="6.70385">
        <ele>415</ele>
        <time>2015-03-08T10:46:43.000Z</time>
      </trkpt>
      <trkpt lat="47.40979" lon="6.70385">
        <ele>415</ele>
        <time>2015-03-08T10:46:44.000Z</time>
      </trkpt>
      <trkpt lat="47.40984" lon="6.70386">
        <ele>415</ele>
        <time>2015-03-08T10:46:45.000Z</time>
      </trkpt>
      <trkpt lat="47.4099" lon="6.70388">
        <ele>415</ele>
        <time>2015-03-08T10:46:46.000Z</time>
      </trkpt>
      <trkpt lat="47.40996" lon="6.7039">
        <ele>415</ele>
        <time>2015-03-08T10:46:47.000Z</time>
      </trkpt>
      <trkpt lat="47.41003" lon="6.70389">
        <ele>411</ele>
        <time>2015-03-08T10:46:48.000Z</time>
      </trkpt>
      <trkpt lat="47.41009" lon="6.70389">
        <ele>410</ele>
        <time>2015-03-08T10:46:48.999Z</time>
      </trkpt>
      <trkpt lat="47.41015" lon="6.70392">
        <ele>410</ele>
        <time>2015-03-08T10:46:50.001Z</time>
      </trkpt>
      <trkpt lat="47.4102" lon="6.70395">
        <ele>410</ele>
        <time>2015-03-08T10:46:51.000Z</time>
      </trkpt>
      <trkpt lat="47.41028" lon="6.70401">
        <ele>410</ele>
        <time>2015-03-08T10:46:52.000Z</time>
      </trkpt>
      <trkpt lat="47.41036" lon="6.70408">
        <ele>409</ele>
        <time>2015-03-08T10:46:53.000Z</time>
      </trkpt>
      <trkpt lat="47.41043" lon="6.70415">
        <ele>409</ele>
        <time>2015-03-08T10:46:54.000Z</time>
      </trkpt>
      <trkpt lat="47.41047" lon="6.70422">
        <ele>410</ele>
        <time>2015-03-08T10:46:55.000Z</time>
      </trkpt>
      <trkpt lat="47.41052" lon="6.70425">
        <ele>409</ele>
        <time>2015-03-08T10:46:56.000Z</time>
      </trkpt>
      <trkpt lat="47.41057" lon="6.70426">
        <ele>409</ele>
        <time>2015-03-08T10:46:57.000Z</time>
      </trkpt>
      <trkpt lat="47.41062" lon="6.70424">
        <ele>408</ele>
        <time>2015-03-08T10:46:58.000Z</time>
      </trkpt>
      <trkpt lat="47.41062" lon="6.70421">
        <ele>408</ele>
        <time>2015-03-08T10:46:59.000Z</time>
      </trkpt>
      <trkpt lat="47.41066" lon="6.70418">
        <ele>408</ele>
        <time>2015-03-08T10:47:00.000Z</time>
      </trkpt>
      <trkpt lat="47.41071" lon="6.70416">
        <ele>406</ele>
        <time>2015-03-08T10:47:01.000Z</time>
      </trkpt>
      <trkpt lat="47.41075" lon="6.70415">
        <ele>406</ele>
        <time>2015-03-08T10:47:02.000Z</time>
      </trkpt>
      <trkpt lat="47.41075" lon="6.70409">
        <ele>406</ele>
        <time>2015-03-08T10:47:03.000Z</time>
      </trkpt>
      <trkpt lat="47.41079" lon="6.70405">
        <ele>406</ele>
        <time>2015-03-08T10:47:04.000Z</time>
      </trkpt>
      <trkpt lat="47.41081" lon="6.70399">
        <ele>407</ele>
        <time>2015-03-08T10:47:05.000Z</time>
      </trkpt>
      <trkpt lat="47.41083" lon="6.70391">
        <ele>407</ele>
        <time>2015-03-08T10:47:06.000Z</time>
      </trkpt>
      <trkpt lat="47.41084" lon="6.70382">
        <ele>401</ele>
        <time>2015-03-08T10:47:07.000Z</time>
      </trkpt>
      <trkpt lat="47.41086" lon="6.70374">
        <ele>401</ele>
        <time>2015-03-08T10:47:08.000Z</time>
      </trkpt>
      <trkpt lat="47.41089" lon="6.70366">
        <ele>401</ele>
        <time>2015-03-08T10:47:09.000Z</time>
      </trkpt>
      <trkpt lat="47.41094" lon="6.7036">
        <ele>401</ele>
        <time>2015-03-08T10:47:10.002Z</time>
      </trkpt>
      <trkpt lat="47.41101" lon="6.70349">
        <ele>401</ele>
        <time>2015-03-08T10:47:11.000Z</time>
      </trkpt>
      <trkpt lat="47.41107" lon="6.70341">
        <ele>400</ele>
        <time>2015-03-08T10:47:12.000Z</time>
      </trkpt>
      <trkpt lat="47.41111" lon="6.70331">
        <ele>398</ele>
        <time>2015-03-08T10:47:13.000Z</time>
      </trkpt>
      <trkpt lat="47.41114" lon="6.70323">
        <ele>397</ele>
        <time>2015-03-08T10:47:14.000Z</time>
      </trkpt>
      <trkpt lat="47.41119" lon="6.70314">
        <ele>396</ele>
        <time>2015-03-08T10:47:15.000Z</time>
      </trkpt>
      <trkpt lat="47.41123" lon="6.70307">
        <ele>395</ele>
        <time>2015-03-08T10:47:16.000Z</time>
      </trkpt>
      <trkpt lat="47.41127" lon="6.70299">
        <ele>395</ele>
        <time>2015-03-08T10:47:17.000Z</time>
      </trkpt>
      <trkpt lat="47.41131" lon="6.70291">
        <ele>394</ele>
        <time>2015-03-08T10:47:18.000Z</time>
      </trkpt>
      <trkpt lat="47.41135" lon="6.70283">
        <ele>394</ele>
        <time>2015-03-08T10:47:19.000Z</time>
      </trkpt>
      <trkpt lat="47.41136" lon="6.70275">
        <ele>393</ele>
        <time>2015-03-08T10:47:20.000Z</time>
      </trkpt>
      <trkpt lat="47.41135" lon="6.70266">
        <ele>393</ele>
        <time>2015-03-08T10:47:21.000Z</time>
      </trkpt>
      <trkpt lat="47.41133" lon="6.70258">
        <ele>393</ele>
        <time>2015-03-08T10:47:22.000Z</time>
      </trkpt>
      <trkpt lat="47.41133" lon="6.70249">
        <ele>390</ele>
        <time>2015-03-08T10:47:23.000Z</time>
      </trkpt>
      <trkpt lat="47.41134" lon="6.70243">
        <ele>390</ele>
        <time>2015-03-08T10:47:24.000Z</time>
      </trkpt>
      <trkpt lat="47.41133" lon="6.70237">
        <ele>390</ele>
        <time>2015-03-08T10:47:25.000Z</time>
      </trkpt>
      <trkpt lat="47.41132" lon="6.70231">
        <ele>391</ele>
        <time>2015-03-08T10:47:27.000Z</time>
      </trkpt>
      <trkpt lat="47.41134" lon="6.70226">
        <ele>390</ele>
        <time>2015-03-08T10:47:28.000Z</time>
      </trkpt>
      <trkpt lat="47.41138" lon="6.70221">
        <ele>390</ele>
        <time>2015-03-08T10:47:29.000Z</time>
      </trkpt>
      <trkpt lat="47.4114" lon="6.70222">
        <ele>390</ele>
        <time>2015-03-08T10:47:30.000Z</time>
      </trkpt>
      <trkpt lat="47.41141" lon="6.70227">
        <ele>390</ele>
        <time>2015-03-08T10:47:31.000Z</time>
      </trkpt>
      <trkpt lat="47.41146" lon="6.70227">
        <ele>390</ele>
        <time>2015-03-08T10:47:52.000Z</time>
      </trkpt>
      <trkpt lat="47.41147" lon="6.70227">
        <ele>390</ele>
        <time>2015-03-08T10:47:53.000Z</time>
      </trkpt>
      <trkpt lat="47.41151" lon="6.70223">
        <ele>390</ele>
        <time>2015-03-08T10:47:59.000Z</time>
      </trkpt>
      <trkpt lat="47.4115" lon="6.7022">
        <ele>390</ele>
        <time>2015-03-08T10:48:00.000Z</time>
      </trkpt>
      <trkpt lat="47.4115" lon="6.70213">
        <ele>390</ele>
        <time>2015-03-08T10:48:02.000Z</time>
      </trkpt>
      <trkpt lat="47.41151" lon="6.70209">
        <ele>390</ele>
        <time>2015-03-08T10:48:03.000Z</time>
      </trkpt>
      <trkpt lat="47.41152" lon="6.70205">
        <ele>390</ele>
        <time>2015-03-08T10:48:04.000Z</time>
      </trkpt>
      <trkpt lat="47.41153" lon="6.70201">
        <ele>390</ele>
        <time>2015-03-08T10:48:05.000Z</time>
      </trkpt>
      <trkpt lat="47.41154" lon="6.70197">
        <ele>390</ele>
        <time>2015-03-08T10:48:06.000Z</time>
      </trkpt>
      <trkpt lat="47.41154" lon="6.70193">
        <ele>390</ele>
        <time>2015-03-08T10:48:07.000Z</time>
      </trkpt>
      <trkpt lat="47.41154" lon="6.70189">
        <ele>390</ele>
        <time>2015-03-08T10:48:08.000Z</time>
      </trkpt>
      <trkpt lat="47.41153" lon="6.70185">
        <ele>390</ele>
        <time>2015-03-08T10:48:09.000Z</time>
      </trkpt>
      <trkpt lat="47.41154" lon="6.70179">
        <ele>390</ele>
        <time>2015-03-08T10:48:12.000Z</time>
      </trkpt>
      <trkpt lat="47.41153" lon="6.70179">
        <ele>390</ele>
        <time>2015-03-08T10:48:13.000Z</time>
      </trkpt>
      <trkpt lat="47.41157" lon="6.70175">
        <ele>390</ele>
        <time>2015-03-08T10:48:28.000Z</time>
      </trkpt>
      <trkpt lat="47.41158" lon="6.70174">
        <ele>390</ele>
        <time>2015-03-08T10:48:29.000Z</time>
      </trkpt>
      <trkpt lat="47.41161" lon="6.70172">
        <ele>389</ele>
        <time>2015-03-08T10:48:32.000Z</time>
      </trkpt>
      <trkpt lat="47.41163" lon="6.70172">
        <ele>389</ele>
        <time>2015-03-08T10:48:33.000Z</time>
      </trkpt>
      <trkpt lat="47.41166" lon="6.70171">
        <ele>389</ele>
        <time>2015-03-08T10:48:35.000Z</time>
      </trkpt>
      <trkpt lat="47.41167" lon="6.7017">
        <ele>388</ele>
        <time>2015-03-08T10:48:36.000Z</time>
      </trkpt>
      <trkpt lat="47.41171" lon="6.70169">
        <ele>388</ele>
        <time>2015-03-08T10:48:38.000Z</time>
      </trkpt>
      <trkpt lat="47.41172" lon="6.70167">
        <ele>388</ele>
        <time>2015-03-08T10:48:39.000Z</time>
      </trkpt>
      <trkpt lat="47.41175" lon="6.70166">
        <ele>390</ele>
        <time>2015-03-08T10:48:40.000Z</time>
      </trkpt>
      <trkpt lat="47.41178" lon="6.70164">
        <ele>391</ele>
        <time>2015-03-08T10:48:41.000Z</time>
      </trkpt>
      <trkpt lat="47.41181" lon="6.70163">
        <ele>391</ele>
        <time>2015-03-08T10:48:42.000Z</time>
      </trkpt>
      <trkpt lat="47.41184" lon="6.70163">
        <ele>391</ele>
        <time>2015-03-08T10:48:43.000Z</time>
      </trkpt>
      <trkpt lat="47.41188" lon="6.70162">
        <ele>392</ele>
        <time>2015-03-08T10:48:44.000Z</time>
      </trkpt>
      <trkpt lat="47.41191" lon="6.7016">
        <ele>392</ele>
        <time>2015-03-08T10:48:45.000Z</time>
      </trkpt>
      <trkpt lat="47.41194" lon="6.70158">
        <ele>392</ele>
        <time>2015-03-08T10:48:46.000Z</time>
      </trkpt>
      <trkpt lat="47.41197" lon="6.70156">
        <ele>392</ele>
        <time>2015-03-08T10:48:47.000Z</time>
      </trkpt>
      <trkpt lat="47.412" lon="6.70155">
        <ele>392</ele>
        <time>2015-03-08T10:48:48.000Z</time>
      </trkpt>
      <trkpt lat="47.41203" lon="6.70153">
        <ele>392</ele>
        <time>2015-03-08T10:48:49.000Z</time>
      </trkpt>
      <trkpt lat="47.41206" lon="6.70153">
        <ele>392</ele>
        <time>2015-03-08T10:48:50.000Z</time>
      </trkpt>
      <trkpt lat="47.41208" lon="6.70152">
        <ele>392</ele>
        <time>2015-03-08T10:48:51.000Z</time>
      </trkpt>
      <trkpt lat="47.41212" lon="6.70152">
        <ele>391</ele>
        <time>2015-03-08T10:48:53.000Z</time>
      </trkpt>
      <trkpt lat="47.41214" lon="6.70152">
        <ele>391</ele>
        <time>2015-03-08T10:48:54.000Z</time>
      </trkpt>
      <trkpt lat="47.41217" lon="6.70152">
        <ele>391</ele>
        <time>2015-03-08T10:48:55.000Z</time>
      </trkpt>
      <trkpt lat="47.4122" lon="6.70152">
        <ele>390</ele>
        <time>2015-03-08T10:48:56.000Z</time>
      </trkpt>
      <trkpt lat="47.41224" lon="6.70151">
        <ele>390</ele>
        <time>2015-03-08T10:48:57.000Z</time>
      </trkpt>
      <trkpt lat="47.41228" lon="6.70149">
        <ele>390</ele>
        <time>2015-03-08T10:48:58.000Z</time>
      </trkpt>
      <trkpt lat="47.41232" lon="6.70146">
        <ele>390</ele>
        <time>2015-03-08T10:48:59.000Z</time>
      </trkpt>
      <trkpt lat="47.41237" lon="6.70144">
        <ele>390</ele>
        <time>2015-03-08T10:49:00.000Z</time>
      </trkpt>
      <trkpt lat="47.41241" lon="6.70143">
        <ele>389</ele>
        <time>2015-03-08T10:49:01.000Z</time>
      </trkpt>
      <trkpt lat="47.41245" lon="6.70142">
        <ele>389</ele>
        <time>2015-03-08T10:49:02.000Z</time>
      </trkpt>
      <trkpt lat="47.41248" lon="6.70142">
        <ele>389</ele>
        <time>2015-03-08T10:49:03.000Z</time>
      </trkpt>
      <trkpt lat="47.41251" lon="6.70142">
        <ele>382</ele>
        <time>2015-03-08T10:49:04.000Z</time>
      </trkpt>
      <trkpt lat="47.41255" lon="6.70142">
        <ele>382</ele>
        <time>2015-03-08T10:49:06.000Z</time>
      </trkpt>
      <trkpt lat="47.41257" lon="6.70141">
        <ele>382</ele>
        <time>2015-03-08T10:49:07.000Z</time>
      </trkpt>
      <trkpt lat="47.4126" lon="6.70141">
        <ele>382</ele>
        <time>2015-03-08T10:49:08.000Z</time>
      </trkpt>
      <trkpt lat="47.41263" lon="6.70141">
        <ele>382</ele>
        <time>2015-03-08T10:49:09.000Z</time>
      </trkpt>
      <trkpt lat="47.41266" lon="6.70141">
        <ele>382</ele>
        <time>2015-03-08T10:49:10.000Z</time>
      </trkpt>
      <trkpt lat="47.4127" lon="6.70141">
        <ele>382</ele>
        <time>2015-03-08T10:49:11.000Z</time>
      </trkpt>
      <trkpt lat="47.41273" lon="6.7014">
        <ele>382</ele>
        <time>2015-03-08T10:49:12.000Z</time>
      </trkpt>
      <trkpt lat="47.41275" lon="6.7014">
        <ele>382</ele>
        <time>2015-03-08T10:49:13.000Z</time>
      </trkpt>
      <trkpt lat="47.41279" lon="6.70139">
        <ele>381</ele>
        <time>2015-03-08T10:49:15.000Z</time>
      </trkpt>
      <trkpt lat="47.41281" lon="6.70139">
        <ele>381</ele>
        <time>2015-03-08T10:49:16.000Z</time>
      </trkpt>
      <trkpt lat="47.41285" lon="6.70139">
        <ele>381</ele>
        <time>2015-03-08T10:49:18.000Z</time>
      </trkpt>
      <trkpt lat="47.41286" lon="6.70138">
        <ele>381</ele>
        <time>2015-03-08T10:49:19.000Z</time>
      </trkpt>
      <trkpt lat="47.41289" lon="6.70134">
        <ele>381</ele>
        <time>2015-03-08T10:49:22.000Z</time>
      </trkpt>
      <trkpt lat="47.4129" lon="6.70133">
        <ele>381</ele>
        <time>2015-03-08T10:49:23.000Z</time>
      </trkpt>
      <trkpt lat="47.41292" lon="6.70132">
        <ele>381</ele>
        <time>2015-03-08T10:49:24.000Z</time>
      </trkpt>
      <trkpt lat="47.41295" lon="6.7013">
        <ele>381</ele>
        <time>2015-03-08T10:49:25.000Z</time>
      </trkpt>
      <trkpt lat="47.41297" lon="6.70127">
        <ele>381</ele>
        <time>2015-03-08T10:49:26.000Z</time>
      </trkpt>
      <trkpt lat="47.413" lon="6.70125">
        <ele>381</ele>
        <time>2015-03-08T10:49:27.000Z</time>
      </trkpt>
      <trkpt lat="47.41302" lon="6.70123">
        <ele>381</ele>
        <time>2015-03-08T10:49:28.000Z</time>
      </trkpt>
      <trkpt lat="47.41304" lon="6.7012">
        <ele>381</ele>
        <time>2015-03-08T10:49:29.000Z</time>
      </trkpt>
      <trkpt lat="47.41306" lon="6.70118">
        <ele>381</ele>
        <time>2015-03-08T10:49:30.000Z</time>
      </trkpt>
      <trkpt lat="47.41309" lon="6.70115">
        <ele>381</ele>
        <time>2015-03-08T10:49:31.000Z</time>
      </trkpt>
      <trkpt lat="47.41311" lon="6.70113">
        <ele>381</ele>
        <time>2015-03-08T10:49:32.000Z</time>
      </trkpt>
      <trkpt lat="47.41313" lon="6.7011">
        <ele>381</ele>
        <time>2015-03-08T10:49:33.000Z</time>
      </trkpt>
      <trkpt lat="47.41314" lon="6.70107">
        <ele>381</ele>
        <time>2015-03-08T10:49:34.000Z</time>
      </trkpt>
      <trkpt lat="47.41315" lon="6.70105">
        <ele>381</ele>
        <time>2015-03-08T10:49:35.000Z</time>
      </trkpt>
      <trkpt lat="47.41317" lon="6.70102">
        <ele>381</ele>
        <time>2015-03-08T10:49:36.000Z</time>
      </trkpt>
      <trkpt lat="47.41319" lon="6.701">
        <ele>380</ele>
        <time>2015-03-08T10:49:37.000Z</time>
      </trkpt>
      <trkpt lat="47.41322" lon="6.70098">
        <ele>380</ele>
        <time>2015-03-08T10:49:38.000Z</time>
      </trkpt>
      <trkpt lat="47.41325" lon="6.70095">
        <ele>380</ele>
        <time>2015-03-08T10:49:39.000Z</time>
      </trkpt>
      <trkpt lat="47.41328" lon="6.70092">
        <ele>379</ele>
        <time>2015-03-08T10:49:40.000Z</time>
      </trkpt>
      <trkpt lat="47.4133" lon="6.70088">
        <ele>379</ele>
        <time>2015-03-08T10:49:41.000Z</time>
      </trkpt>
      <trkpt lat="47.41333" lon="6.70085">
        <ele>378</ele>
        <time>2015-03-08T10:49:42.000Z</time>
      </trkpt>
      <trkpt lat="47.41335" lon="6.70082">
        <ele>378</ele>
        <time>2015-03-08T10:49:43.000Z</time>
      </trkpt>
      <trkpt lat="47.41337" lon="6.70078">
        <ele>378</ele>
        <time>2015-03-08T10:49:44.000Z</time>
      </trkpt>
      <trkpt lat="47.4134" lon="6.70075">
        <ele>378</ele>
        <time>2015-03-08T10:49:45.000Z</time>
      </trkpt>
      <trkpt lat="47.41342" lon="6.70072">
        <ele>378</ele>
        <time>2015-03-08T10:49:46.000Z</time>
      </trkpt>
      <trkpt lat="47.41345" lon="6.70069">
        <ele>378</ele>
        <time>2015-03-08T10:49:47.000Z</time>
      </trkpt>
      <trkpt lat="47.41349" lon="6.70065">
        <ele>378</ele>
        <time>2015-03-08T10:49:48.000Z</time>
      </trkpt>
      <trkpt lat="47.41352" lon="6.70061">
        <ele>378</ele>
        <time>2015-03-08T10:49:49.000Z</time>
      </trkpt>
      <trkpt lat="47.41356" lon="6.70056">
        <ele>379</ele>
        <time>2015-03-08T10:49:50.000Z</time>
      </trkpt>
      <trkpt lat="47.41359" lon="6.70052">
        <ele>379</ele>
        <time>2015-03-08T10:49:51.000Z</time>
      </trkpt>
      <trkpt lat="47.41362" lon="6.70047">
        <ele>379</ele>
        <time>2015-03-08T10:49:52.000Z</time>
      </trkpt>
      <trkpt lat="47.41364" lon="6.70043">
        <ele>379</ele>
        <time>2015-03-08T10:49:53.000Z</time>
      </trkpt>
      <trkpt lat="47.41366" lon="6.7004">
        <ele>379</ele>
        <time>2015-03-08T10:49:54.000Z</time>
      </trkpt>
      <trkpt lat="47.41368" lon="6.70036">
        <ele>379</ele>
        <time>2015-03-08T10:49:55.000Z</time>
      </trkpt>
      <trkpt lat="47.4137" lon="6.70033">
        <ele>379</ele>
        <time>2015-03-08T10:49:56.000Z</time>
      </trkpt>
      <trkpt lat="47.41374" lon="6.70031">
        <ele>379</ele>
        <time>2015-03-08T10:49:57.000Z</time>
      </trkpt>
      <trkpt lat="47.41378" lon="6.70029">
        <ele>379</ele>
        <time>2015-03-08T10:49:58.000Z</time>
      </trkpt>
      <trkpt lat="47.41382" lon="6.70027">
        <ele>379</ele>
        <time>2015-03-08T10:49:59.000Z</time>
      </trkpt>
      <trkpt lat="47.41386" lon="6.70026">
        <ele>379</ele>
        <time>2015-03-08T10:50:00.000Z</time>
      </trkpt>
      <trkpt lat="47.4139" lon="6.70024">
        <ele>379</ele>
        <time>2015-03-08T10:50:01.000Z</time>
      </trkpt>
      <trkpt lat="47.41393" lon="6.70022">
        <ele>379</ele>
        <time>2015-03-08T10:50:02.000Z</time>
      </trkpt>
      <trkpt lat="47.41398" lon="6.70022">
        <ele>379</ele>
        <time>2015-03-08T10:50:03.000Z</time>
      </trkpt>
      <trkpt lat="47.41409" lon="6.70023">
        <ele>378</ele>
        <time>2015-03-08T10:50:04.000Z</time>
      </trkpt>
      <trkpt lat="47.41415" lon="6.70024">
        <ele>378</ele>
        <time>2015-03-08T10:50:05.000Z</time>
      </trkpt>
      <trkpt lat="47.4142" lon="6.70024">
        <ele>374</ele>
        <time>2015-03-08T10:50:06.000Z</time>
      </trkpt>
      <trkpt lat="47.41426" lon="6.70025">
        <ele>373</ele>
        <time>2015-03-08T10:50:07.000Z</time>
      </trkpt>
      <trkpt lat="47.4143" lon="6.70027">
        <ele>373</ele>
        <time>2015-03-08T10:50:08.000Z</time>
      </trkpt>
      <trkpt lat="47.41435" lon="6.70028">
        <ele>372</ele>
        <time>2015-03-08T10:50:09.000Z</time>
      </trkpt>
      <trkpt lat="47.41438" lon="6.70028">
        <ele>372</ele>
        <time>2015-03-08T10:50:10.000Z</time>
      </trkpt>
      <trkpt lat="47.41441" lon="6.7003">
        <ele>372</ele>
        <time>2015-03-08T10:50:11.000Z</time>
      </trkpt>
      <trkpt lat="47.41445" lon="6.70032">
        <ele>372</ele>
        <time>2015-03-08T10:50:12.000Z</time>
      </trkpt>
      <trkpt lat="47.41449" lon="6.70033">
        <ele>371</ele>
        <time>2015-03-08T10:50:13.000Z</time>
      </trkpt>
      <trkpt lat="47.41453" lon="6.70034">
        <ele>371</ele>
        <time>2015-03-08T10:50:14.000Z</time>
      </trkpt>
      <trkpt lat="47.41458" lon="6.70036">
        <ele>371</ele>
        <time>2015-03-08T10:50:15.000Z</time>
      </trkpt>
      <trkpt lat="47.41461" lon="6.70037">
        <ele>371</ele>
        <time>2015-03-08T10:50:16.000Z</time>
      </trkpt>
      <trkpt lat="47.41465" lon="6.70037">
        <ele>370</ele>
        <time>2015-03-08T10:50:17.000Z</time>
      </trkpt>
      <trkpt lat="47.4147" lon="6.70037">
        <ele>370</ele>
        <time>2015-03-08T10:50:18.000Z</time>
      </trkpt>
      <trkpt lat="47.41474" lon="6.70037">
        <ele>370</ele>
        <time>2015-03-08T10:50:19.000Z</time>
      </trkpt>
      <trkpt lat="47.41482" lon="6.70033">
        <ele>370</ele>
        <time>2015-03-08T10:50:20.000Z</time>
      </trkpt>
      <trkpt lat="47.41488" lon="6.70031">
        <ele>370</ele>
        <time>2015-03-08T10:50:21.000Z</time>
      </trkpt>
      <trkpt lat="47.41493" lon="6.70029">
        <ele>370</ele>
        <time>2015-03-08T10:50:22.000Z</time>
      </trkpt>
      <trkpt lat="47.41499" lon="6.70027">
        <ele>369</ele>
        <time>2015-03-08T10:50:23.000Z</time>
      </trkpt>
      <trkpt lat="47.41504" lon="6.70026">
        <ele>369</ele>
        <time>2015-03-08T10:50:24.000Z</time>
      </trkpt>
      <trkpt lat="47.4151" lon="6.70024">
        <ele>369</ele>
        <time>2015-03-08T10:50:25.000Z</time>
      </trkpt>
      <trkpt lat="47.41515" lon="6.70022">
        <ele>369</ele>
        <time>2015-03-08T10:50:26.000Z</time>
      </trkpt>
      <trkpt lat="47.41521" lon="6.7002">
        <ele>369</ele>
        <time>2015-03-08T10:50:27.000Z</time>
      </trkpt>
      <trkpt lat="47.41526" lon="6.70017">
        <ele>369</ele>
        <time>2015-03-08T10:50:28.000Z</time>
      </trkpt>
      <trkpt lat="47.41531" lon="6.70016">
        <ele>369</ele>
        <time>2015-03-08T10:50:29.000Z</time>
      </trkpt>
      <trkpt lat="47.41537" lon="6.70014">
        <ele>369</ele>
        <time>2015-03-08T10:50:30.000Z</time>
      </trkpt>
      <trkpt lat="47.41542" lon="6.70012">
        <ele>369</ele>
        <time>2015-03-08T10:50:31.000Z</time>
      </trkpt>
      <trkpt lat="47.41547" lon="6.7001">
        <ele>369</ele>
        <time>2015-03-08T10:50:32.000Z</time>
      </trkpt>
      <trkpt lat="47.41551" lon="6.70008">
        <ele>369</ele>
        <time>2015-03-08T10:50:33.000Z</time>
      </trkpt>
      <trkpt lat="47.41555" lon="6.70005">
        <ele>369</ele>
        <time>2015-03-08T10:50:34.000Z</time>
      </trkpt>
      <trkpt lat="47.41559" lon="6.70005">
        <ele>369</ele>
        <time>2015-03-08T10:50:35.000Z</time>
      </trkpt>
      <trkpt lat="47.41563" lon="6.70005">
        <ele>368</ele>
        <time>2015-03-08T10:50:36.000Z</time>
      </trkpt>
      <trkpt lat="47.41568" lon="6.70003">
        <ele>368</ele>
        <time>2015-03-08T10:50:37.000Z</time>
      </trkpt>
      <trkpt lat="47.41572" lon="6.70002">
        <ele>367</ele>
        <time>2015-03-08T10:50:38.000Z</time>
      </trkpt>
      <trkpt lat="47.41578" lon="6.70001">
        <ele>366</ele>
        <time>2015-03-08T10:50:39.000Z</time>
      </trkpt>
      <trkpt lat="47.41582" lon="6.69999">
        <ele>365</ele>
        <time>2015-03-08T10:50:40.000Z</time>
      </trkpt>
      <trkpt lat="47.41587" lon="6.69997">
        <ele>365</ele>
        <time>2015-03-08T10:50:41.000Z</time>
      </trkpt>
      <trkpt lat="47.41591" lon="6.69996">
        <ele>365</ele>
        <time>2015-03-08T10:50:42.000Z</time>
      </trkpt>
      <trkpt lat="47.41595" lon="6.69994">
        <ele>365</ele>
        <time>2015-03-08T10:50:43.000Z</time>
      </trkpt>
      <trkpt lat="47.416" lon="6.69994">
        <ele>365</ele>
        <time>2015-03-08T10:50:44.000Z</time>
      </trkpt>
      <trkpt lat="47.41604" lon="6.69992">
        <ele>365</ele>
        <time>2015-03-08T10:50:45.000Z</time>
      </trkpt>
      <trkpt lat="47.41609" lon="6.69991">
        <ele>365</ele>
        <time>2015-03-08T10:50:46.000Z</time>
      </trkpt>
      <trkpt lat="47.41613" lon="6.6999">
        <ele>366</ele>
        <time>2015-03-08T10:50:47.000Z</time>
      </trkpt>
      <trkpt lat="47.41618" lon="6.69989">
        <ele>366</ele>
        <time>2015-03-08T10:50:48.000Z</time>
      </trkpt>
      <trkpt lat="47.41622" lon="6.69988">
        <ele>366</ele>
        <time>2015-03-08T10:50:49.000Z</time>
      </trkpt>
      <trkpt lat="47.41627" lon="6.69988">
        <ele>366</ele>
        <time>2015-03-08T10:50:50.000Z</time>
      </trkpt>
      <trkpt lat="47.41629" lon="6.69986">
        <ele>366</ele>
        <time>2015-03-08T10:50:51.000Z</time>
      </trkpt>
      <trkpt lat="47.41633" lon="6.69985">
        <ele>366</ele>
        <time>2015-03-08T10:50:52.000Z</time>
      </trkpt>
      <trkpt lat="47.41637" lon="6.69984">
        <ele>366</ele>
        <time>2015-03-08T10:50:53.000Z</time>
      </trkpt>
      <trkpt lat="47.4164" lon="6.69983">
        <ele>366</ele>
        <time>2015-03-08T10:50:54.000Z</time>
      </trkpt>
      <trkpt lat="47.41644" lon="6.69983">
        <ele>367</ele>
        <time>2015-03-08T10:50:55.000Z</time>
      </trkpt>
      <trkpt lat="47.41648" lon="6.69982">
        <ele>367</ele>
        <time>2015-03-08T10:50:56.000Z</time>
      </trkpt>
      <trkpt lat="47.41654" lon="6.69983">
        <ele>367</ele>
        <time>2015-03-08T10:50:57.000Z</time>
      </trkpt>
      <trkpt lat="47.41659" lon="6.69983">
        <ele>368</ele>
        <time>2015-03-08T10:50:58.000Z</time>
      </trkpt>
      <trkpt lat="47.41663" lon="6.69982">
        <ele>368</ele>
        <time>2015-03-08T10:50:59.000Z</time>
      </trkpt>
      <trkpt lat="47.41666" lon="6.69982">
        <ele>368</ele>
        <time>2015-03-08T10:51:00.000Z</time>
      </trkpt>
      <trkpt lat="47.4167" lon="6.69983">
        <ele>369</ele>
        <time>2015-03-08T10:51:01.001Z</time>
      </trkpt>
      <trkpt lat="47.41672" lon="6.69984">
        <ele>369</ele>
        <time>2015-03-08T10:51:02.000Z</time>
      </trkpt>
      <trkpt lat="47.41676" lon="6.69985">
        <ele>369</ele>
        <time>2015-03-08T10:51:03.000Z</time>
      </trkpt>
      <trkpt lat="47.4168" lon="6.69986">
        <ele>369</ele>
        <time>2015-03-08T10:51:04.000Z</time>
      </trkpt>
      <trkpt lat="47.41684" lon="6.69987">
        <ele>369</ele>
        <time>2015-03-08T10:51:05.000Z</time>
      </trkpt>
      <trkpt lat="47.41688" lon="6.69987">
        <ele>369</ele>
        <time>2015-03-08T10:51:06.000Z</time>
      </trkpt>
      <trkpt lat="47.41692" lon="6.69988">
        <ele>369</ele>
        <time>2015-03-08T10:51:07.000Z</time>
      </trkpt>
      <trkpt lat="47.41695" lon="6.69989">
        <ele>369</ele>
        <time>2015-03-08T10:51:08.000Z</time>
      </trkpt>
      <trkpt lat="47.41699" lon="6.6999">
        <ele>369</ele>
        <time>2015-03-08T10:51:09.000Z</time>
      </trkpt>
      <trkpt lat="47.41703" lon="6.6999">
        <ele>369</ele>
        <time>2015-03-08T10:51:10.000Z</time>
      </trkpt>
      <trkpt lat="47.41706" lon="6.69991">
        <ele>369</ele>
        <time>2015-03-08T10:51:11.000Z</time>
      </trkpt>
      <trkpt lat="47.41709" lon="6.69992">
        <ele>369</ele>
        <time>2015-03-08T10:51:12.000Z</time>
      </trkpt>
      <trkpt lat="47.41711" lon="6.69993">
        <ele>369</ele>
        <time>2015-03-08T10:51:13.000Z</time>
      </trkpt>
      <trkpt lat="47.41714" lon="6.69994">
        <ele>369</ele>
        <time>2015-03-08T10:51:14.000Z</time>
      </trkpt>
      <trkpt lat="47.41718" lon="6.69995">
        <ele>369</ele>
        <time>2015-03-08T10:51:16.000Z</time>
      </trkpt>
      <trkpt lat="47.41719" lon="6.69995">
        <ele>369</ele>
        <time>2015-03-08T10:51:17.000Z</time>
      </trkpt>
      <trkpt lat="47.41723" lon="6.69995">
        <ele>369</ele>
        <time>2015-03-08T10:51:20.000Z</time>
      </trkpt>
      <trkpt lat="47.41725" lon="6.69995">
        <ele>369</ele>
        <time>2015-03-08T10:51:21.000Z</time>
      </trkpt>
      <trkpt lat="47.41727" lon="6.69995">
        <ele>370</ele>
        <time>2015-03-08T10:51:22.000Z</time>
      </trkpt>
      <trkpt lat="47.4173" lon="6.69996">
        <ele>370</ele>
        <time>2015-03-08T10:51:23.000Z</time>
      </trkpt>
      <trkpt lat="47.41732" lon="6.69996">
        <ele>370</ele>
        <time>2015-03-08T10:51:24.000Z</time>
      </trkpt>
      <trkpt lat="47.41734" lon="6.69996">
        <ele>370</ele>
        <time>2015-03-08T10:51:25.000Z</time>
      </trkpt>
      <trkpt lat="47.41737" lon="6.69995">
        <ele>370</ele>
        <time>2015-03-08T10:51:26.000Z</time>
      </trkpt>
      <trkpt lat="47.4174" lon="6.69995">
        <ele>370</ele>
        <time>2015-03-08T10:51:27.000Z</time>
      </trkpt>
      <trkpt lat="47.41744" lon="6.69995">
        <ele>371</ele>
        <time>2015-03-08T10:51:28.000Z</time>
      </trkpt>
      <trkpt lat="47.41747" lon="6.69995">
        <ele>371</ele>
        <time>2015-03-08T10:51:29.000Z</time>
      </trkpt>
      <trkpt lat="47.4175" lon="6.69994">
        <ele>371</ele>
        <time>2015-03-08T10:51:30.000Z</time>
      </trkpt>
      <trkpt lat="47.41753" lon="6.69994">
        <ele>371</ele>
        <time>2015-03-08T10:51:31.000Z</time>
      </trkpt>
      <trkpt lat="47.41755" lon="6.69994">
        <ele>371</ele>
        <time>2015-03-08T10:51:32.000Z</time>
      </trkpt>
      <trkpt lat="47.4176" lon="6.69994">
        <ele>370</ele>
        <time>2015-03-08T10:51:33.000Z</time>
      </trkpt>
      <trkpt lat="47.41764" lon="6.69994">
        <ele>370</ele>
        <time>2015-03-08T10:51:34.000Z</time>
      </trkpt>
      <trkpt lat="47.41767" lon="6.69994">
        <ele>370</ele>
        <time>2015-03-08T10:51:35.000Z</time>
      </trkpt>
      <trkpt lat="47.41771" lon="6.69994">
        <ele>369</ele>
        <time>2015-03-08T10:51:36.000Z</time>
      </trkpt>
      <trkpt lat="47.41775" lon="6.69993">
        <ele>369</ele>
        <time>2015-03-08T10:51:37.000Z</time>
      </trkpt>
      <trkpt lat="47.41779" lon="6.69993">
        <ele>369</ele>
        <time>2015-03-08T10:51:38.000Z</time>
      </trkpt>
      <trkpt lat="47.41783" lon="6.69992">
        <ele>369</ele>
        <time>2015-03-08T10:51:39.000Z</time>
      </trkpt>
      <trkpt lat="47.41787" lon="6.69992">
        <ele>369</ele>
        <time>2015-03-08T10:51:40.000Z</time>
      </trkpt>
      <trkpt lat="47.41791" lon="6.69992">
        <ele>369</ele>
        <time>2015-03-08T10:51:41.000Z</time>
      </trkpt>
      <trkpt lat="47.41795" lon="6.69992">
        <ele>368</ele>
        <time>2015-03-08T10:51:42.000Z</time>
      </trkpt>
      <trkpt lat="47.41799" lon="6.69992">
        <ele>368</ele>
        <time>2015-03-08T10:51:43.000Z</time>
      </trkpt>
      <trkpt lat="47.41804" lon="6.69992">
        <ele>368</ele>
        <time>2015-03-08T10:51:44.000Z</time>
      </trkpt>
      <trkpt lat="47.41808" lon="6.69991">
        <ele>368</ele>
        <time>2015-03-08T10:51:45.000Z</time>
      </trkpt>
      <trkpt lat="47.41813" lon="6.6999">
        <ele>368</ele>
        <time>2015-03-08T10:51:46.000Z</time>
      </trkpt>
      <trkpt lat="47.41817" lon="6.6999">
        <ele>369</ele>
        <time>2015-03-08T10:51:47.000Z</time>
      </trkpt>
      <trkpt lat="47.41822" lon="6.69989">
        <ele>369</ele>
        <time>2015-03-08T10:51:48.000Z</time>
      </trkpt>
      <trkpt lat="47.4183" lon="6.69988">
        <ele>369</ele>
        <time>2015-03-08T10:51:49.000Z</time>
      </trkpt>
      <trkpt lat="47.41835" lon="6.69988">
        <ele>370</ele>
        <time>2015-03-08T10:51:50.000Z</time>
      </trkpt>
      <trkpt lat="47.41841" lon="6.69988">
        <ele>370</ele>
        <time>2015-03-08T10:51:51.000Z</time>
      </trkpt>
      <trkpt lat="47.41847" lon="6.69986">
        <ele>370</ele>
        <time>2015-03-08T10:51:51.999Z</time>
      </trkpt>
      <trkpt lat="47.41852" lon="6.69982">
        <ele>370</ele>
        <time>2015-03-08T10:51:53.000Z</time>
      </trkpt>
      <trkpt lat="47.41855" lon="6.69979">
        <ele>370</ele>
        <time>2015-03-08T10:51:54.000Z</time>
      </trkpt>
      <trkpt lat="47.41858" lon="6.69977">
        <ele>370</ele>
        <time>2015-03-08T10:51:55.000Z</time>
      </trkpt>
      <trkpt lat="47.41862" lon="6.69973">
        <ele>370</ele>
        <time>2015-03-08T10:51:56.000Z</time>
      </trkpt>
      <trkpt lat="47.41869" lon="6.69972">
        <ele>370</ele>
        <time>2015-03-08T10:51:57.000Z</time>
      </trkpt>
      <trkpt lat="47.41874" lon="6.69968">
        <ele>370</ele>
        <time>2015-03-08T10:51:58.000Z</time>
      </trkpt>
      <trkpt lat="47.4188" lon="6.69963">
        <ele>370</ele>
        <time>2015-03-08T10:51:59.000Z</time>
      </trkpt>
      <trkpt lat="47.41884" lon="6.69961">
        <ele>370</ele>
        <time>2015-03-08T10:52:00.000Z</time>
      </trkpt>
      <trkpt lat="47.41888" lon="6.69958">
        <ele>370</ele>
        <time>2015-03-08T10:52:01.000Z</time>
      </trkpt>
      <trkpt lat="47.41892" lon="6.69956">
        <ele>370</ele>
        <time>2015-03-08T10:52:02.000Z</time>
      </trkpt>
      <trkpt lat="47.41898" lon="6.69955">
        <ele>370</ele>
        <time>2015-03-08T10:52:03.000Z</time>
      </trkpt>
      <trkpt lat="47.41903" lon="6.69952">
        <ele>370</ele>
        <time>2015-03-08T10:52:04.000Z</time>
      </trkpt>
      <trkpt lat="47.41908" lon="6.69949">
        <ele>369</ele>
        <time>2015-03-08T10:52:04.999Z</time>
      </trkpt>
      <trkpt lat="47.41912" lon="6.69947">
        <ele>369</ele>
        <time>2015-03-08T10:52:06.000Z</time>
      </trkpt>
      <trkpt lat="47.41917" lon="6.69946">
        <ele>374</ele>
        <time>2015-03-08T10:52:07.000Z</time>
      </trkpt>
      <trkpt lat="47.41921" lon="6.69946">
        <ele>373</ele>
        <time>2015-03-08T10:52:08.000Z</time>
      </trkpt>
      <trkpt lat="47.41924" lon="6.69944">
        <ele>373</ele>
        <time>2015-03-08T10:52:09.000Z</time>
      </trkpt>
      <trkpt lat="47.41928" lon="6.69944">
        <ele>374</ele>
        <time>2015-03-08T10:52:10.000Z</time>
      </trkpt>
      <trkpt lat="47.41932" lon="6.69943">
        <ele>374</ele>
        <time>2015-03-08T10:52:11.001Z</time>
      </trkpt>
      <trkpt lat="47.41936" lon="6.69944">
        <ele>374</ele>
        <time>2015-03-08T10:52:12.000Z</time>
      </trkpt>
      <trkpt lat="47.4194" lon="6.69943">
        <ele>374</ele>
        <time>2015-03-08T10:52:13.000Z</time>
      </trkpt>
      <trkpt lat="47.41943" lon="6.69941">
        <ele>374</ele>
        <time>2015-03-08T10:52:14.000Z</time>
      </trkpt>
      <trkpt lat="47.41947" lon="6.6994">
        <ele>374</ele>
        <time>2015-03-08T10:52:15.000Z</time>
      </trkpt>
      <trkpt lat="47.41951" lon="6.69941">
        <ele>375</ele>
        <time>2015-03-08T10:52:16.000Z</time>
      </trkpt>
      <trkpt lat="47.41955" lon="6.69939">
        <ele>375</ele>
        <time>2015-03-08T10:52:17.000Z</time>
      </trkpt>
      <trkpt lat="47.4196" lon="6.69938">
        <ele>375</ele>
        <time>2015-03-08T10:52:18.000Z</time>
      </trkpt>
      <trkpt lat="47.41964" lon="6.69937">
        <ele>375</ele>
        <time>2015-03-08T10:52:18.999Z</time>
      </trkpt>
      <trkpt lat="47.41968" lon="6.69936">
        <ele>375</ele>
        <time>2015-03-08T10:52:20.000Z</time>
      </trkpt>
      <trkpt lat="47.41972" lon="6.69935">
        <ele>375</ele>
        <time>2015-03-08T10:52:20.999Z</time>
      </trkpt>
      <trkpt lat="47.41976" lon="6.69935">
        <ele>375</ele>
        <time>2015-03-08T10:52:22.000Z</time>
      </trkpt>
      <trkpt lat="47.4198" lon="6.69935">
        <ele>375</ele>
        <time>2015-03-08T10:52:23.000Z</time>
      </trkpt>
      <trkpt lat="47.41984" lon="6.69934">
        <ele>375</ele>
        <time>2015-03-08T10:52:24.000Z</time>
      </trkpt>
      <trkpt lat="47.41988" lon="6.69933">
        <ele>375</ele>
        <time>2015-03-08T10:52:25.000Z</time>
      </trkpt>
      <trkpt lat="47.41992" lon="6.69932">
        <ele>374</ele>
        <time>2015-03-08T10:52:26.000Z</time>
      </trkpt>
      <trkpt lat="47.41996" lon="6.69931">
        <ele>374</ele>
        <time>2015-03-08T10:52:27.000Z</time>
      </trkpt>
      <trkpt lat="47.41999" lon="6.6993">
        <ele>374</ele>
        <time>2015-03-08T10:52:28.000Z</time>
      </trkpt>
      <trkpt lat="47.42002" lon="6.69929">
        <ele>374</ele>
        <time>2015-03-08T10:52:29.000Z</time>
      </trkpt>
      <trkpt lat="47.42006" lon="6.69929">
        <ele>374</ele>
        <time>2015-03-08T10:52:30.000Z</time>
      </trkpt>
      <trkpt lat="47.4201" lon="6.69928">
        <ele>375</ele>
        <time>2015-03-08T10:52:31.000Z</time>
      </trkpt>
      <trkpt lat="47.42013" lon="6.69929">
        <ele>375</ele>
        <time>2015-03-08T10:52:32.000Z</time>
      </trkpt>
      <trkpt lat="47.42017" lon="6.69929">
        <ele>375</ele>
        <time>2015-03-08T10:52:33.000Z</time>
      </trkpt>
      <trkpt lat="47.42022" lon="6.69931">
        <ele>376</ele>
        <time>2015-03-08T10:52:34.000Z</time>
      </trkpt>
      <trkpt lat="47.42026" lon="6.69931">
        <ele>376</ele>
        <time>2015-03-08T10:52:35.000Z</time>
      </trkpt>
      <trkpt lat="47.42031" lon="6.69929">
        <ele>376</ele>
        <time>2015-03-08T10:52:36.000Z</time>
      </trkpt>
      <trkpt lat="47.42035" lon="6.69929">
        <ele>376</ele>
        <time>2015-03-08T10:52:37.000Z</time>
      </trkpt>
      <trkpt lat="47.42038" lon="6.69929">
        <ele>376</ele>
        <time>2015-03-08T10:52:38.000Z</time>
      </trkpt>
      <trkpt lat="47.42042" lon="6.69929">
        <ele>376</ele>
        <time>2015-03-08T10:52:39.001Z</time>
      </trkpt>
      <trkpt lat="47.42046" lon="6.69928">
        <ele>376</ele>
        <time>2015-03-08T10:52:40.000Z</time>
      </trkpt>
      <trkpt lat="47.4205" lon="6.69927">
        <ele>376</ele>
        <time>2015-03-08T10:52:41.000Z</time>
      </trkpt>
      <trkpt lat="47.42054" lon="6.69926">
        <ele>376</ele>
        <time>2015-03-08T10:52:42.000Z</time>
      </trkpt>
      <trkpt lat="47.42058" lon="6.69925">
        <ele>375</ele>
        <time>2015-03-08T10:52:43.000Z</time>
      </trkpt>
      <trkpt lat="47.42062" lon="6.69925">
        <ele>375</ele>
        <time>2015-03-08T10:52:44.000Z</time>
      </trkpt>
      <trkpt lat="47.42067" lon="6.69925">
        <ele>374</ele>
        <time>2015-03-08T10:52:45.000Z</time>
      </trkpt>
      <trkpt lat="47.42072" lon="6.69924">
        <ele>373</ele>
        <time>2015-03-08T10:52:46.000Z</time>
      </trkpt>
      <trkpt lat="47.42077" lon="6.69924">
        <ele>373</ele>
        <time>2015-03-08T10:52:47.000Z</time>
      </trkpt>
      <trkpt lat="47.42082" lon="6.69922">
        <ele>372</ele>
        <time>2015-03-08T10:52:48.000Z</time>
      </trkpt>
      <trkpt lat="47.42088" lon="6.6992">
        <ele>370</ele>
        <time>2015-03-08T10:52:49.000Z</time>
      </trkpt>
      <trkpt lat="47.42094" lon="6.69918">
        <ele>370</ele>
        <time>2015-03-08T10:52:50.000Z</time>
      </trkpt>
      <trkpt lat="47.42099" lon="6.69914">
        <ele>367</ele>
        <time>2015-03-08T10:52:51.000Z</time>
      </trkpt>
      <trkpt lat="47.42105" lon="6.6991">
        <ele>366</ele>
        <time>2015-03-08T10:52:52.000Z</time>
      </trkpt>
      <trkpt lat="47.42111" lon="6.69906">
        <ele>366</ele>
        <time>2015-03-08T10:52:53.000Z</time>
      </trkpt>
      <trkpt lat="47.42118" lon="6.69901">
        <ele>365</ele>
        <time>2015-03-08T10:52:54.000Z</time>
      </trkpt>
      <trkpt lat="47.42125" lon="6.69896">
        <ele>365</ele>
        <time>2015-03-08T10:52:55.000Z</time>
      </trkpt>
      <trkpt lat="47.42133" lon="6.6989">
        <ele>364</ele>
        <time>2015-03-08T10:52:56.000Z</time>
      </trkpt>
      <trkpt lat="47.4214" lon="6.69885">
        <ele>364</ele>
        <time>2015-03-08T10:52:57.000Z</time>
      </trkpt>
      <trkpt lat="47.42147" lon="6.6988">
        <ele>364</ele>
        <time>2015-03-08T10:52:58.000Z</time>
      </trkpt>
      <trkpt lat="47.42155" lon="6.69874">
        <ele>364</ele>
        <time>2015-03-08T10:52:59.000Z</time>
      </trkpt>
      <trkpt lat="47.42162" lon="6.69868">
        <ele>363</ele>
        <time>2015-03-08T10:53:00.000Z</time>
      </trkpt>
      <trkpt lat="47.42169" lon="6.69862">
        <ele>363</ele>
        <time>2015-03-08T10:53:01.000Z</time>
      </trkpt>
      <trkpt lat="47.42177" lon="6.69857">
        <ele>363</ele>
        <time>2015-03-08T10:53:02.000Z</time>
      </trkpt>
      <trkpt lat="47.42183" lon="6.69854">
        <ele>363</ele>
        <time>2015-03-08T10:53:03.000Z</time>
      </trkpt>
      <trkpt lat="47.42189" lon="6.6985">
        <ele>364</ele>
        <time>2015-03-08T10:53:04.000Z</time>
      </trkpt>
      <trkpt lat="47.42194" lon="6.69848">
        <ele>364</ele>
        <time>2015-03-08T10:53:05.000Z</time>
      </trkpt>
      <trkpt lat="47.42199" lon="6.69845">
        <ele>364</ele>
        <time>2015-03-08T10:53:06.000Z</time>
      </trkpt>
      <trkpt lat="47.42202" lon="6.69844">
        <ele>364</ele>
        <time>2015-03-08T10:53:07.000Z</time>
      </trkpt>
      <trkpt lat="47.42204" lon="6.69842">
        <ele>364</ele>
        <time>2015-03-08T10:53:08.000Z</time>
      </trkpt>
      <trkpt lat="47.42207" lon="6.69841">
        <ele>364</ele>
        <time>2015-03-08T10:53:09.000Z</time>
      </trkpt>
      <trkpt lat="47.42209" lon="6.69839">
        <ele>364</ele>
        <time>2015-03-08T10:53:10.000Z</time>
      </trkpt>
      <trkpt lat="47.42211" lon="6.69836">
        <ele>364</ele>
        <time>2015-03-08T10:53:12.000Z</time>
      </trkpt>
      <trkpt lat="47.42214" lon="6.69835">
        <ele>365</ele>
        <time>2015-03-08T10:53:13.000Z</time>
      </trkpt>
      <trkpt lat="47.42216" lon="6.69834">
        <ele>365</ele>
        <time>2015-03-08T10:53:14.000Z</time>
      </trkpt>
      <trkpt lat="47.42218" lon="6.69833">
        <ele>363</ele>
        <time>2015-03-08T10:53:15.000Z</time>
      </trkpt>
      <trkpt lat="47.42221" lon="6.69832">
        <ele>363</ele>
        <time>2015-03-08T10:53:16.000Z</time>
      </trkpt>
      <trkpt lat="47.42223" lon="6.69831">
        <ele>363</ele>
        <time>2015-03-08T10:53:17.000Z</time>
      </trkpt>
      <trkpt lat="47.42226" lon="6.69832">
        <ele>363</ele>
        <time>2015-03-08T10:53:19.000Z</time>
      </trkpt>
      <trkpt lat="47.42228" lon="6.69833">
        <ele>363</ele>
        <time>2015-03-08T10:53:20.000Z</time>
      </trkpt>
      <trkpt lat="47.42231" lon="6.69838">
        <ele>365</ele>
        <time>2015-03-08T10:53:23.000Z</time>
      </trkpt>
      <trkpt lat="47.42232" lon="6.69839">
        <ele>365</ele>
        <time>2015-03-08T10:53:24.000Z</time>
      </trkpt>
      <trkpt lat="47.42233" lon="6.69845">
        <ele>365</ele>
        <time>2015-03-08T10:53:32.000Z</time>
      </trkpt>
      <trkpt lat="47.42233" lon="6.69845">
        <ele>365</ele>
        <time>2015-03-08T10:53:33.000Z</time>
      </trkpt>
      <trkpt lat="47.42238" lon="6.69848">
        <ele>365</ele>
        <time>2015-03-08T10:55:04.000Z</time>
      </trkpt>
      <trkpt lat="47.42238" lon="6.69847">
        <ele>365</ele>
        <time>2015-03-08T10:55:05.000Z</time>
      </trkpt>
      <trkpt lat="47.42241" lon="6.69849">
        <ele>365</ele>
        <time>2015-03-08T10:55:19.000Z</time>
      </trkpt>
      <trkpt lat="47.42242" lon="6.69851">
        <ele>365</ele>
        <time>2015-03-08T10:55:20.000Z</time>
      </trkpt>
      <trkpt lat="47.42244" lon="6.69854">
        <ele>365</ele>
        <time>2015-03-08T10:55:21.000Z</time>
      </trkpt>
      <trkpt lat="47.42245" lon="6.69857">
        <ele>365</ele>
        <time>2015-03-08T10:55:22.000Z</time>
      </trkpt>
      <trkpt lat="47.42246" lon="6.69862">
        <ele>365</ele>
        <time>2015-03-08T10:55:24.000Z</time>
      </trkpt>
      <trkpt lat="47.42247" lon="6.69864">
        <ele>365</ele>
        <time>2015-03-08T10:55:24.999Z</time>
      </trkpt>
      <trkpt lat="47.42249" lon="6.69865">
        <ele>365</ele>
        <time>2015-03-08T10:55:26.000Z</time>
      </trkpt>
      <trkpt lat="47.42252" lon="6.69865">
        <ele>369</ele>
        <time>2015-03-08T10:55:27.000Z</time>
      </trkpt>
      <trkpt lat="47.42255" lon="6.69864">
        <ele>369</ele>
        <time>2015-03-08T10:55:28.000Z</time>
      </trkpt>
      <trkpt lat="47.42259" lon="6.69863">
        <ele>369</ele>
        <time>2015-03-08T10:55:29.000Z</time>
      </trkpt>
      <trkpt lat="47.42262" lon="6.69862">
        <ele>369</ele>
        <time>2015-03-08T10:55:30.000Z</time>
      </trkpt>
      <trkpt lat="47.42266" lon="6.69862">
        <ele>369</ele>
        <time>2015-03-08T10:55:31.000Z</time>
      </trkpt>
      <trkpt lat="47.4227" lon="6.69863">
        <ele>369</ele>
        <time>2015-03-08T10:55:32.000Z</time>
      </trkpt>
      <trkpt lat="47.42275" lon="6.69864">
        <ele>369</ele>
        <time>2015-03-08T10:55:33.000Z</time>
      </trkpt>
      <trkpt lat="47.42278" lon="6.69865">
        <ele>370</ele>
        <time>2015-03-08T10:55:34.000Z</time>
      </trkpt>
      <trkpt lat="47.42282" lon="6.69866">
        <ele>370</ele>
        <time>2015-03-08T10:55:35.000Z</time>
      </trkpt>
      <trkpt lat="47.42285" lon="6.69868">
        <ele>370</ele>
        <time>2015-03-08T10:55:36.000Z</time>
      </trkpt>
      <trkpt lat="47.42288" lon="6.6987">
        <ele>370</ele>
        <time>2015-03-08T10:55:37.000Z</time>
      </trkpt>
      <trkpt lat="47.42291" lon="6.69872">
        <ele>370</ele>
        <time>2015-03-08T10:55:38.000Z</time>
      </trkpt>
      <trkpt lat="47.42295" lon="6.69874">
        <ele>370</ele>
        <time>2015-03-08T10:55:39.000Z</time>
      </trkpt>
      <trkpt lat="47.42299" lon="6.69876">
        <ele>371</ele>
        <time>2015-03-08T10:55:40.000Z</time>
      </trkpt>
      <trkpt lat="47.42303" lon="6.69877">
        <ele>371</ele>
        <time>2015-03-08T10:55:41.000Z</time>
      </trkpt>
      <trkpt lat="47.42307" lon="6.69879">
        <ele>371</ele>
        <time>2015-03-08T10:55:42.000Z</time>
      </trkpt>
      <trkpt lat="47.42315" lon="6.69879">
        <ele>371</ele>
        <time>2015-03-08T10:55:43.000Z</time>
      </trkpt>
      <trkpt lat="47.42317" lon="6.69881">
        <ele>371</ele>
        <time>2015-03-08T10:55:44.000Z</time>
      </trkpt>
      <trkpt lat="47.42319" lon="6.6988">
        <ele>371</ele>
        <time>2015-03-08T10:55:45.000Z</time>
      </trkpt>
      <trkpt lat="47.42323" lon="6.69879">
        <ele>371</ele>
        <time>2015-03-08T10:55:46.000Z</time>
      </trkpt>
      <trkpt lat="47.42326" lon="6.69877">
        <ele>371</ele>
        <time>2015-03-08T10:55:47.000Z</time>
      </trkpt>
      <trkpt lat="47.42329" lon="6.69875">
        <ele>371</ele>
        <time>2015-03-08T10:55:48.000Z</time>
      </trkpt>
      <trkpt lat="47.42331" lon="6.69873">
        <ele>371</ele>
        <time>2015-03-08T10:55:49.000Z</time>
      </trkpt>
      <trkpt lat="47.42332" lon="6.6987">
        <ele>372</ele>
        <time>2015-03-08T10:55:50.000Z</time>
      </trkpt>
      <trkpt lat="47.42334" lon="6.69866">
        <ele>381</ele>
        <time>2015-03-08T10:55:51.000Z</time>
      </trkpt>
      <trkpt lat="47.42336" lon="6.69863">
        <ele>381</ele>
        <time>2015-03-08T10:55:52.000Z</time>
      </trkpt>
      <trkpt lat="47.42337" lon="6.69858">
        <ele>380</ele>
        <time>2015-03-08T10:55:53.000Z</time>
      </trkpt>
      <trkpt lat="47.42337" lon="6.69854">
        <ele>380</ele>
        <time>2015-03-08T10:55:54.000Z</time>
      </trkpt>
      <trkpt lat="47.42338" lon="6.69849">
        <ele>379</ele>
        <time>2015-03-08T10:55:55.000Z</time>
      </trkpt>
      <trkpt lat="47.42338" lon="6.69845">
        <ele>378</ele>
        <time>2015-03-08T10:55:56.000Z</time>
      </trkpt>
      <trkpt lat="47.42339" lon="6.6984">
        <ele>377</ele>
        <time>2015-03-08T10:55:57.000Z</time>
      </trkpt>
      <trkpt lat="47.42339" lon="6.69835">
        <ele>376</ele>
        <time>2015-03-08T10:55:58.000Z</time>
      </trkpt>
      <trkpt lat="47.42339" lon="6.69831">
        <ele>376</ele>
        <time>2015-03-08T10:55:59.000Z</time>
      </trkpt>
      <trkpt lat="47.42338" lon="6.69827">
        <ele>377</ele>
        <time>2015-03-08T10:56:00.000Z</time>
      </trkpt>
      <trkpt lat="47.42337" lon="6.69823">
        <ele>377</ele>
        <time>2015-03-08T10:56:00.999Z</time>
      </trkpt>
      <trkpt lat="47.42337" lon="6.6982">
        <ele>378</ele>
        <time>2015-03-08T10:56:02.000Z</time>
      </trkpt>
      <trkpt lat="47.42337" lon="6.69816">
        <ele>379</ele>
        <time>2015-03-08T10:56:03.000Z</time>
      </trkpt>
      <trkpt lat="47.42337" lon="6.69811">
        <ele>379</ele>
        <time>2015-03-08T10:56:05.000Z</time>
      </trkpt>
      <trkpt lat="47.42337" lon="6.69809">
        <ele>380</ele>
        <time>2015-03-08T10:56:06.000Z</time>
      </trkpt>
      <trkpt lat="47.42337" lon="6.69803">
        <ele>380</ele>
        <time>2015-03-08T10:56:08.000Z</time>
      </trkpt>
      <trkpt lat="47.42337" lon="6.69798">
        <ele>380</ele>
        <time>2015-03-08T10:56:09.000Z</time>
      </trkpt>
      <trkpt lat="47.42337" lon="6.69793">
        <ele>380</ele>
        <time>2015-03-08T10:56:10.000Z</time>
      </trkpt>
      <trkpt lat="47.42337" lon="6.69788">
        <ele>380</ele>
        <time>2015-03-08T10:56:11.000Z</time>
      </trkpt>
      <trkpt lat="47.42337" lon="6.69783">
        <ele>380</ele>
        <time>2015-03-08T10:56:12.000Z</time>
      </trkpt>
      <trkpt lat="47.42337" lon="6.69778">
        <ele>379</ele>
        <time>2015-03-08T10:56:13.000Z</time>
      </trkpt>
      <trkpt lat="47.42336" lon="6.69766">
        <ele>378</ele>
        <time>2015-03-08T10:56:14.000Z</time>
      </trkpt>
      <trkpt lat="47.42336" lon="6.69759">
        <ele>376</ele>
        <time>2015-03-08T10:56:15.000Z</time>
      </trkpt>
      <trkpt lat="47.42336" lon="6.69753">
        <ele>375</ele>
        <time>2015-03-08T10:56:18.000Z</time>
      </trkpt>
      <trkpt lat="47.42337" lon="6.69752">
        <ele>375</ele>
        <time>2015-03-08T10:56:19.000Z</time>
      </trkpt>
      <trkpt lat="47.42337" lon="6.69749">
        <ele>374</ele>
        <time>2015-03-08T10:56:20.000Z</time>
      </trkpt>
      <trkpt lat="47.42337" lon="6.69744">
        <ele>375</ele>
        <time>2015-03-08T10:56:21.000Z</time>
      </trkpt>
      <trkpt lat="47.42337" lon="6.69737">
        <ele>375</ele>
        <time>2015-03-08T10:56:22.000Z</time>
      </trkpt>
      <trkpt lat="47.42337" lon="6.69732">
        <ele>376</ele>
        <time>2015-03-08T10:56:23.000Z</time>
      </trkpt>
      <trkpt lat="47.42336" lon="6.69727">
        <ele>376</ele>
        <time>2015-03-08T10:56:24.000Z</time>
      </trkpt>
      <trkpt lat="47.42337" lon="6.69723">
        <ele>376</ele>
        <time>2015-03-08T10:56:25.000Z</time>
      </trkpt>
      <trkpt lat="47.42338" lon="6.69719">
        <ele>376</ele>
        <time>2015-03-08T10:56:26.000Z</time>
      </trkpt>
      <trkpt lat="47.42339" lon="6.69715">
        <ele>376</ele>
        <time>2015-03-08T10:56:27.000Z</time>
      </trkpt>
      <trkpt lat="47.4234" lon="6.69711">
        <ele>376</ele>
        <time>2015-03-08T10:56:28.000Z</time>
      </trkpt>
      <trkpt lat="47.42341" lon="6.69707">
        <ele>376</ele>
        <time>2015-03-08T10:56:29.000Z</time>
      </trkpt>
      <trkpt lat="47.42341" lon="6.69703">
        <ele>376</ele>
        <time>2015-03-08T10:56:30.000Z</time>
      </trkpt>
      <trkpt lat="47.42342" lon="6.697">
        <ele>376</ele>
        <time>2015-03-08T10:56:31.000Z</time>
      </trkpt>
      <trkpt lat="47.42343" lon="6.69696">
        <ele>375</ele>
        <time>2015-03-08T10:56:32.000Z</time>
      </trkpt>
      <trkpt lat="47.42344" lon="6.69692">
        <ele>375</ele>
        <time>2015-03-08T10:56:33.000Z</time>
      </trkpt>
      <trkpt lat="47.42345" lon="6.69689">
        <ele>375</ele>
        <time>2015-03-08T10:56:34.000Z</time>
      </trkpt>
      <trkpt lat="47.42346" lon="6.69685">
        <ele>374</ele>
        <time>2015-03-08T10:56:35.000Z</time>
      </trkpt>
      <trkpt lat="47.42348" lon="6.69682">
        <ele>374</ele>
        <time>2015-03-08T10:56:36.000Z</time>
      </trkpt>
      <trkpt lat="47.42349" lon="6.69678">
        <ele>374</ele>
        <time>2015-03-08T10:56:37.000Z</time>
      </trkpt>
      <trkpt lat="47.42351" lon="6.69675">
        <ele>374</ele>
        <time>2015-03-08T10:56:38.000Z</time>
      </trkpt>
      <trkpt lat="47.42352" lon="6.69671">
        <ele>374</ele>
        <time>2015-03-08T10:56:39.000Z</time>
      </trkpt>
      <trkpt lat="47.42352" lon="6.69668">
        <ele>374</ele>
        <time>2015-03-08T10:56:40.000Z</time>
      </trkpt>
      <trkpt lat="47.42354" lon="6.69665">
        <ele>370</ele>
        <time>2015-03-08T10:56:41.000Z</time>
      </trkpt>
      <trkpt lat="47.42355" lon="6.69662">
        <ele>371</ele>
        <time>2015-03-08T10:56:42.000Z</time>
      </trkpt>
      <trkpt lat="47.42357" lon="6.69659">
        <ele>371</ele>
        <time>2015-03-08T10:56:43.000Z</time>
      </trkpt>
      <trkpt lat="47.42359" lon="6.69657">
        <ele>371</ele>
        <time>2015-03-08T10:56:44.000Z</time>
      </trkpt>
      <trkpt lat="47.42361" lon="6.69655">
        <ele>371</ele>
        <time>2015-03-08T10:56:45.000Z</time>
      </trkpt>
      <trkpt lat="47.42363" lon="6.69653">
        <ele>372</ele>
        <time>2015-03-08T10:56:46.000Z</time>
      </trkpt>
      <trkpt lat="47.42365" lon="6.69651">
        <ele>372</ele>
        <time>2015-03-08T10:56:47.000Z</time>
      </trkpt>
      <trkpt lat="47.42368" lon="6.69649">
        <ele>372</ele>
        <time>2015-03-08T10:56:48.000Z</time>
      </trkpt>
      <trkpt lat="47.4237" lon="6.69647">
        <ele>373</ele>
        <time>2015-03-08T10:56:49.000Z</time>
      </trkpt>
      <trkpt lat="47.42372" lon="6.69645">
        <ele>373</ele>
        <time>2015-03-08T10:56:50.000Z</time>
      </trkpt>
      <trkpt lat="47.42375" lon="6.69644">
        <ele>373</ele>
        <time>2015-03-08T10:56:51.000Z</time>
      </trkpt>
      <trkpt lat="47.42377" lon="6.69642">
        <ele>373</ele>
        <time>2015-03-08T10:56:52.000Z</time>
      </trkpt>
      <trkpt lat="47.42379" lon="6.6964">
        <ele>374</ele>
        <time>2015-03-08T10:56:54.000Z</time>
      </trkpt>
      <trkpt lat="47.4238" lon="6.69639">
        <ele>374</ele>
        <time>2015-03-08T10:56:55.000Z</time>
      </trkpt>
      <trkpt lat="47.42384" lon="6.69636">
        <ele>374</ele>
        <time>2015-03-08T10:56:57.000Z</time>
      </trkpt>
      <trkpt lat="47.42387" lon="6.69634">
        <ele>374</ele>
        <time>2015-03-08T10:56:58.000Z</time>
      </trkpt>
      <trkpt lat="47.42389" lon="6.69633">
        <ele>374</ele>
        <time>2015-03-08T10:56:59.000Z</time>
      </trkpt>
      <trkpt lat="47.42392" lon="6.69631">
        <ele>375</ele>
        <time>2015-03-08T10:57:00.000Z</time>
      </trkpt>
      <trkpt lat="47.42394" lon="6.69629">
        <ele>375</ele>
        <time>2015-03-08T10:57:01.000Z</time>
      </trkpt>
      <trkpt lat="47.42396" lon="6.69628">
        <ele>375</ele>
        <time>2015-03-08T10:57:02.000Z</time>
      </trkpt>
      <trkpt lat="47.42398" lon="6.69626">
        <ele>375</ele>
        <time>2015-03-08T10:57:03.000Z</time>
      </trkpt>
      <trkpt lat="47.424" lon="6.69624">
        <ele>375</ele>
        <time>2015-03-08T10:57:04.000Z</time>
      </trkpt>
      <trkpt lat="47.42401" lon="6.69622">
        <ele>375</ele>
        <time>2015-03-08T10:57:05.000Z</time>
      </trkpt>
      <trkpt lat="47.42403" lon="6.6962">
        <ele>375</ele>
        <time>2015-03-08T10:57:06.000Z</time>
      </trkpt>
      <trkpt lat="47.42405" lon="6.69617">
        <ele>375</ele>
        <time>2015-03-08T10:57:07.000Z</time>
      </trkpt>
      <trkpt lat="47.42407" lon="6.69615">
        <ele>375</ele>
        <time>2015-03-08T10:57:08.000Z</time>
      </trkpt>
      <trkpt lat="47.42409" lon="6.6961">
        <ele>375</ele>
        <time>2015-03-08T10:57:10.000Z</time>
      </trkpt>
      <trkpt lat="47.42411" lon="6.69607">
        <ele>376</ele>
        <time>2015-03-08T10:57:11.000Z</time>
      </trkpt>
      <trkpt lat="47.42412" lon="6.69604">
        <ele>376</ele>
        <time>2015-03-08T10:57:12.000Z</time>
      </trkpt>
      <trkpt lat="47.42414" lon="6.69601">
        <ele>376</ele>
        <time>2015-03-08T10:57:13.000Z</time>
      </trkpt>
      <trkpt lat="47.42416" lon="6.69599">
        <ele>376</ele>
        <time>2015-03-08T10:57:14.000Z</time>
      </trkpt>
      <trkpt lat="47.42417" lon="6.69597">
        <ele>383</ele>
        <time>2015-03-08T10:57:15.000Z</time>
      </trkpt>
      <trkpt lat="47.42419" lon="6.69595">
        <ele>383</ele>
        <time>2015-03-08T10:57:16.000Z</time>
      </trkpt>
      <trkpt lat="47.42421" lon="6.69592">
        <ele>382</ele>
        <time>2015-03-08T10:57:17.000Z</time>
      </trkpt>
      <trkpt lat="47.42423" lon="6.6959">
        <ele>382</ele>
        <time>2015-03-08T10:57:18.000Z</time>
      </trkpt>
      <trkpt lat="47.42426" lon="6.69587">
        <ele>382</ele>
        <time>2015-03-08T10:57:19.000Z</time>
      </trkpt>
      <trkpt lat="47.42429" lon="6.69584">
        <ele>383</ele>
        <time>2015-03-08T10:57:20.000Z</time>
      </trkpt>
      <trkpt lat="47.42432" lon="6.69581">
        <ele>381</ele>
        <time>2015-03-08T10:57:21.000Z</time>
      </trkpt>
      <trkpt lat="47.42434" lon="6.69578">
        <ele>381</ele>
        <time>2015-03-08T10:57:22.000Z</time>
      </trkpt>
      <trkpt lat="47.42436" lon="6.69575">
        <ele>381</ele>
        <time>2015-03-08T10:57:23.000Z</time>
      </trkpt>
      <trkpt lat="47.42438" lon="6.69573">
        <ele>381</ele>
        <time>2015-03-08T10:57:24.000Z</time>
      </trkpt>
      <trkpt lat="47.4244" lon="6.6957">
        <ele>381</ele>
        <time>2015-03-08T10:57:25.000Z</time>
      </trkpt>
      <trkpt lat="47.42443" lon="6.69565">
        <ele>381</ele>
        <time>2015-03-08T10:57:27.000Z</time>
      </trkpt>
      <trkpt lat="47.42445" lon="6.69563">
        <ele>382</ele>
        <time>2015-03-08T10:57:28.000Z</time>
      </trkpt>
      <trkpt lat="47.42447" lon="6.69562">
        <ele>382</ele>
        <time>2015-03-08T10:57:29.000Z</time>
      </trkpt>
      <trkpt lat="47.42449" lon="6.6956">
        <ele>382</ele>
        <time>2015-03-08T10:57:29.999Z</time>
      </trkpt>
      <trkpt lat="47.42452" lon="6.6956">
        <ele>382</ele>
        <time>2015-03-08T10:57:31.000Z</time>
      </trkpt>
      <trkpt lat="47.42455" lon="6.6956">
        <ele>382</ele>
        <time>2015-03-08T10:57:32.000Z</time>
      </trkpt>
      <trkpt lat="47.42458" lon="6.69561">
        <ele>383</ele>
        <time>2015-03-08T10:57:33.000Z</time>
      </trkpt>
      <trkpt lat="47.4246" lon="6.69563">
        <ele>383</ele>
        <time>2015-03-08T10:57:34.000Z</time>
      </trkpt>
      <trkpt lat="47.42462" lon="6.69566">
        <ele>384</ele>
        <time>2015-03-08T10:57:35.000Z</time>
      </trkpt>
      <trkpt lat="47.42464" lon="6.6957">
        <ele>384</ele>
        <time>2015-03-08T10:57:36.000Z</time>
      </trkpt>
      <trkpt lat="47.42466" lon="6.69574">
        <ele>384</ele>
        <time>2015-03-08T10:57:37.000Z</time>
      </trkpt>
      <trkpt lat="47.42467" lon="6.69578">
        <ele>385</ele>
        <time>2015-03-08T10:57:38.000Z</time>
      </trkpt>
      <trkpt lat="47.42468" lon="6.69582">
        <ele>385</ele>
        <time>2015-03-08T10:57:39.000Z</time>
      </trkpt>
      <trkpt lat="47.42468" lon="6.69586">
        <ele>389</ele>
        <time>2015-03-08T10:57:40.000Z</time>
      </trkpt>
      <trkpt lat="47.42469" lon="6.69589">
        <ele>389</ele>
        <time>2015-03-08T10:57:41.000Z</time>
      </trkpt>
      <trkpt lat="47.42468" lon="6.69593">
        <ele>389</ele>
        <time>2015-03-08T10:57:42.000Z</time>
      </trkpt>
      <trkpt lat="47.42466" lon="6.69597">
        <ele>389</ele>
        <time>2015-03-08T10:57:43.000Z</time>
      </trkpt>
      <trkpt lat="47.42465" lon="6.69601">
        <ele>389</ele>
        <time>2015-03-08T10:57:44.000Z</time>
      </trkpt>
      <trkpt lat="47.42463" lon="6.69604">
        <ele>389</ele>
        <time>2015-03-08T10:57:45.000Z</time>
      </trkpt>
      <trkpt lat="47.42461" lon="6.69607">
        <ele>389</ele>
        <time>2015-03-08T10:57:46.000Z</time>
      </trkpt>
      <trkpt lat="47.42459" lon="6.6961">
        <ele>389</ele>
        <time>2015-03-08T10:57:47.000Z</time>
      </trkpt>
      <trkpt lat="47.42457" lon="6.69611">
        <ele>388</ele>
        <time>2015-03-08T10:57:48.000Z</time>
      </trkpt>
      <trkpt lat="47.42455" lon="6.69613">
        <ele>388</ele>
        <time>2015-03-08T10:57:49.000Z</time>
      </trkpt>
      <trkpt lat="47.42453" lon="6.69615">
        <ele>388</ele>
        <time>2015-03-08T10:57:50.000Z</time>
      </trkpt>
      <trkpt lat="47.42451" lon="6.69616">
        <ele>388</ele>
        <time>2015-03-08T10:57:51.000Z</time>
      </trkpt>
      <trkpt lat="47.42449" lon="6.69619">
        <ele>388</ele>
        <time>2015-03-08T10:57:52.000Z</time>
      </trkpt>
      <trkpt lat="47.42447" lon="6.69621">
        <ele>388</ele>
        <time>2015-03-08T10:57:53.000Z</time>
      </trkpt>
      <trkpt lat="47.42445" lon="6.69624">
        <ele>388</ele>
        <time>2015-03-08T10:57:54.000Z</time>
      </trkpt>
      <trkpt lat="47.42443" lon="6.69627">
        <ele>388</ele>
        <time>2015-03-08T10:57:55.000Z</time>
      </trkpt>
      <trkpt lat="47.42441" lon="6.69631">
        <ele>388</ele>
        <time>2015-03-08T10:57:56.000Z</time>
      </trkpt>
      <trkpt lat="47.42439" lon="6.69634">
        <ele>388</ele>
        <time>2015-03-08T10:57:57.000Z</time>
      </trkpt>
      <trkpt lat="47.42437" lon="6.69637">
        <ele>388</ele>
        <time>2015-03-08T10:57:58.000Z</time>
      </trkpt>
      <trkpt lat="47.42436" lon="6.69641">
        <ele>388</ele>
        <time>2015-03-08T10:57:59.000Z</time>
      </trkpt>
      <trkpt lat="47.42434" lon="6.69644">
        <ele>388</ele>
        <time>2015-03-08T10:58:00.000Z</time>
      </trkpt>
      <trkpt lat="47.42433" lon="6.69648">
        <ele>388</ele>
        <time>2015-03-08T10:58:01.000Z</time>
      </trkpt>
      <trkpt lat="47.42432" lon="6.69652">
        <ele>388</ele>
        <time>2015-03-08T10:58:02.000Z</time>
      </trkpt>
      <trkpt lat="47.4243" lon="6.69655">
        <ele>388</ele>
        <time>2015-03-08T10:58:03.000Z</time>
      </trkpt>
      <trkpt lat="47.42429" lon="6.69659">
        <ele>387</ele>
        <time>2015-03-08T10:58:04.000Z</time>
      </trkpt>
      <trkpt lat="47.42428" lon="6.69662">
        <ele>387</ele>
        <time>2015-03-08T10:58:05.000Z</time>
      </trkpt>
      <trkpt lat="47.42427" lon="6.69665">
        <ele>387</ele>
        <time>2015-03-08T10:58:06.000Z</time>
      </trkpt>
      <trkpt lat="47.42426" lon="6.69669">
        <ele>389</ele>
        <time>2015-03-08T10:58:07.000Z</time>
      </trkpt>
      <trkpt lat="47.42426" lon="6.69672">
        <ele>389</ele>
        <time>2015-03-08T10:58:08.000Z</time>
      </trkpt>
      <trkpt lat="47.42425" lon="6.69676">
        <ele>390</ele>
        <time>2015-03-08T10:58:09.000Z</time>
      </trkpt>
      <trkpt lat="47.42423" lon="6.69681">
        <ele>390</ele>
        <time>2015-03-08T10:58:10.000Z</time>
      </trkpt>
      <trkpt lat="47.42422" lon="6.69685">
        <ele>391</ele>
        <time>2015-03-08T10:58:11.000Z</time>
      </trkpt>
      <trkpt lat="47.42422" lon="6.69689">
        <ele>391</ele>
        <time>2015-03-08T10:58:12.000Z</time>
      </trkpt>
      <trkpt lat="47.42422" lon="6.69694">
        <ele>392</ele>
        <time>2015-03-08T10:58:14.000Z</time>
      </trkpt>
      <trkpt lat="47.42423" lon="6.69697">
        <ele>392</ele>
        <time>2015-03-08T10:58:15.000Z</time>
      </trkpt>
      <trkpt lat="47.42423" lon="6.69703">
        <ele>393</ele>
        <time>2015-03-08T10:58:17.000Z</time>
      </trkpt>
      <trkpt lat="47.42423" lon="6.69706">
        <ele>393</ele>
        <time>2015-03-08T10:58:18.000Z</time>
      </trkpt>
      <trkpt lat="47.42422" lon="6.6971">
        <ele>393</ele>
        <time>2015-03-08T10:58:19.000Z</time>
      </trkpt>
      <trkpt lat="47.42422" lon="6.69714">
        <ele>393</ele>
        <time>2015-03-08T10:58:20.000Z</time>
      </trkpt>
      <trkpt lat="47.42421" lon="6.69718">
        <ele>393</ele>
        <time>2015-03-08T10:58:21.000Z</time>
      </trkpt>
      <trkpt lat="47.42421" lon="6.69721">
        <ele>393</ele>
        <time>2015-03-08T10:58:22.000Z</time>
      </trkpt>
      <trkpt lat="47.4242" lon="6.69725">
        <ele>393</ele>
        <time>2015-03-08T10:58:23.000Z</time>
      </trkpt>
      <trkpt lat="47.4242" lon="6.69728">
        <ele>393</ele>
        <time>2015-03-08T10:58:24.000Z</time>
      </trkpt>
      <trkpt lat="47.4242" lon="6.69732">
        <ele>393</ele>
        <time>2015-03-08T10:58:25.000Z</time>
      </trkpt>
      <trkpt lat="47.42419" lon="6.69735">
        <ele>393</ele>
        <time>2015-03-08T10:58:26.000Z</time>
      </trkpt>
      <trkpt lat="47.42419" lon="6.69739">
        <ele>392</ele>
        <time>2015-03-08T10:58:27.000Z</time>
      </trkpt>
      <trkpt lat="47.42419" lon="6.69743">
        <ele>392</ele>
        <time>2015-03-08T10:58:28.000Z</time>
      </trkpt>
      <trkpt lat="47.42418" lon="6.69747">
        <ele>392</ele>
        <time>2015-03-08T10:58:29.000Z</time>
      </trkpt>
      <trkpt lat="47.42418" lon="6.6975">
        <ele>391</ele>
        <time>2015-03-08T10:58:30.000Z</time>
      </trkpt>
      <trkpt lat="47.42417" lon="6.69754">
        <ele>393</ele>
        <time>2015-03-08T10:58:31.000Z</time>
      </trkpt>
      <trkpt lat="47.42416" lon="6.69757">
        <ele>389</ele>
        <time>2015-03-08T10:58:32.000Z</time>
      </trkpt>
      <trkpt lat="47.42416" lon="6.69764">
        <ele>388</ele>
        <time>2015-03-08T10:58:34.000Z</time>
      </trkpt>
      <trkpt lat="47.42416" lon="6.69767">
        <ele>388</ele>
        <time>2015-03-08T10:58:35.000Z</time>
      </trkpt>
      <trkpt lat="47.42415" lon="6.69773">
        <ele>388</ele>
        <time>2015-03-08T10:58:37.000Z</time>
      </trkpt>
      <trkpt lat="47.42415" lon="6.69775">
        <ele>388</ele>
        <time>2015-03-08T10:58:38.000Z</time>
      </trkpt>
      <trkpt lat="47.42414" lon="6.6978">
        <ele>388</ele>
        <time>2015-03-08T10:58:40.000Z</time>
      </trkpt>
      <trkpt lat="47.42414" lon="6.69783">
        <ele>388</ele>
        <time>2015-03-08T10:58:41.000Z</time>
      </trkpt>
      <trkpt lat="47.42413" lon="6.69786">
        <ele>388</ele>
        <time>2015-03-08T10:58:42.000Z</time>
      </trkpt>
      <trkpt lat="47.42413" lon="6.6979">
        <ele>388</ele>
        <time>2015-03-08T10:58:43.000Z</time>
      </trkpt>
      <trkpt lat="47.42415" lon="6.69795">
        <ele>388</ele>
        <time>2015-03-08T10:58:45.000Z</time>
      </trkpt>
      <trkpt lat="47.42417" lon="6.69798">
        <ele>399</ele>
        <time>2015-03-08T10:58:46.000Z</time>
      </trkpt>
      <trkpt lat="47.42418" lon="6.69801">
        <ele>399</ele>
        <time>2015-03-08T10:58:47.000Z</time>
      </trkpt>
      <trkpt lat="47.42418" lon="6.69805">
        <ele>400</ele>
        <time>2015-03-08T10:58:48.000Z</time>
      </trkpt>
      <trkpt lat="47.42418" lon="6.6981">
        <ele>400</ele>
        <time>2015-03-08T10:58:49.000Z</time>
      </trkpt>
      <trkpt lat="47.42418" lon="6.69813">
        <ele>400</ele>
        <time>2015-03-08T10:58:50.000Z</time>
      </trkpt>
      <trkpt lat="47.42415" lon="6.69819">
        <ele>392</ele>
        <time>2015-03-08T10:58:51.000Z</time>
      </trkpt>
      <trkpt lat="47.42415" lon="6.69823">
        <ele>393</ele>
        <time>2015-03-08T10:58:52.000Z</time>
      </trkpt>
      <trkpt lat="47.42415" lon="6.69826">
        <ele>394</ele>
        <time>2015-03-08T10:58:53.000Z</time>
      </trkpt>
      <trkpt lat="47.42417" lon="6.69831">
        <ele>398</ele>
        <time>2015-03-08T10:58:55.000Z</time>
      </trkpt>
      <trkpt lat="47.42417" lon="6.69835">
        <ele>398</ele>
        <time>2015-03-08T10:58:56.000Z</time>
      </trkpt>
      <trkpt lat="47.42418" lon="6.69838">
        <ele>399</ele>
        <time>2015-03-08T10:58:57.000Z</time>
      </trkpt>
      <trkpt lat="47.42418" lon="6.69843">
        <ele>400</ele>
        <time>2015-03-08T10:58:58.000Z</time>
      </trkpt>
      <trkpt lat="47.42418" lon="6.69847">
        <ele>401</ele>
        <time>2015-03-08T10:58:59.000Z</time>
      </trkpt>
      <trkpt lat="47.42418" lon="6.69852">
        <ele>401</ele>
        <time>2015-03-08T10:59:00.000Z</time>
      </trkpt>
      <trkpt lat="47.42418" lon="6.69857">
        <ele>402</ele>
        <time>2015-03-08T10:59:01.000Z</time>
      </trkpt>
      <trkpt lat="47.42418" lon="6.69861">
        <ele>402</ele>
        <time>2015-03-08T10:59:02.000Z</time>
      </trkpt>
      <trkpt lat="47.42418" lon="6.69865">
        <ele>402</ele>
        <time>2015-03-08T10:59:03.000Z</time>
      </trkpt>
      <trkpt lat="47.4242" lon="6.69869">
        <ele>402</ele>
        <time>2015-03-08T10:59:04.000Z</time>
      </trkpt>
      <trkpt lat="47.42421" lon="6.69872">
        <ele>402</ele>
        <time>2015-03-08T10:59:05.000Z</time>
      </trkpt>
      <trkpt lat="47.42423" lon="6.69875">
        <ele>403</ele>
        <time>2015-03-08T10:59:06.000Z</time>
      </trkpt>
      <trkpt lat="47.42424" lon="6.69878">
        <ele>403</ele>
        <time>2015-03-08T10:59:07.000Z</time>
      </trkpt>
      <trkpt lat="47.42426" lon="6.69881">
        <ele>403</ele>
        <time>2015-03-08T10:59:08.000Z</time>
      </trkpt>
      <trkpt lat="47.42428" lon="6.69887">
        <ele>402</ele>
        <time>2015-03-08T10:59:10.000Z</time>
      </trkpt>
      <trkpt lat="47.42429" lon="6.69889">
        <ele>402</ele>
        <time>2015-03-08T10:59:11.000Z</time>
      </trkpt>
      <trkpt lat="47.4243" lon="6.69895">
        <ele>402</ele>
        <time>2015-03-08T10:59:13.000Z</time>
      </trkpt>
      <trkpt lat="47.42431" lon="6.69899">
        <ele>402</ele>
        <time>2015-03-08T10:59:14.000Z</time>
      </trkpt>
      <trkpt lat="47.42433" lon="6.69901">
        <ele>402</ele>
        <time>2015-03-08T10:59:15.000Z</time>
      </trkpt>
      <trkpt lat="47.42435" lon="6.69902">
        <ele>402</ele>
        <time>2015-03-08T10:59:16.000Z</time>
      </trkpt>
      <trkpt lat="47.42438" lon="6.69903">
        <ele>402</ele>
        <time>2015-03-08T10:59:17.000Z</time>
      </trkpt>
      <trkpt lat="47.4244" lon="6.69904">
        <ele>403</ele>
        <time>2015-03-08T10:59:18.000Z</time>
      </trkpt>
      <trkpt lat="47.42444" lon="6.69906">
        <ele>403</ele>
        <time>2015-03-08T10:59:20.000Z</time>
      </trkpt>
      <trkpt lat="47.42446" lon="6.69907">
        <ele>404</ele>
        <time>2015-03-08T10:59:21.000Z</time>
      </trkpt>
      <trkpt lat="47.42448" lon="6.69908">
        <ele>404</ele>
        <time>2015-03-08T10:59:22.000Z</time>
      </trkpt>
      <trkpt lat="47.4245" lon="6.69909">
        <ele>404</ele>
        <time>2015-03-08T10:59:23.000Z</time>
      </trkpt>
      <trkpt lat="47.42453" lon="6.6991">
        <ele>405</ele>
        <time>2015-03-08T10:59:24.000Z</time>
      </trkpt>
      <trkpt lat="47.42456" lon="6.69911">
        <ele>405</ele>
        <time>2015-03-08T10:59:25.000Z</time>
      </trkpt>
      <trkpt lat="47.4246" lon="6.69913">
        <ele>406</ele>
        <time>2015-03-08T10:59:27.000Z</time>
      </trkpt>
      <trkpt lat="47.42461" lon="6.69915">
        <ele>406</ele>
        <time>2015-03-08T10:59:28.000Z</time>
      </trkpt>
      <trkpt lat="47.42463" lon="6.69918">
        <ele>405</ele>
        <time>2015-03-08T10:59:30.002Z</time>
      </trkpt>
      <trkpt lat="47.42465" lon="6.6992">
        <ele>405</ele>
        <time>2015-03-08T10:59:31.000Z</time>
      </trkpt>
      <trkpt lat="47.42467" lon="6.69923">
        <ele>405</ele>
        <time>2015-03-08T10:59:33.000Z</time>
      </trkpt>
      <trkpt lat="47.42468" lon="6.69925">
        <ele>405</ele>
        <time>2015-03-08T10:59:34.000Z</time>
      </trkpt>
      <trkpt lat="47.4247" lon="6.6993">
        <ele>405</ele>
        <time>2015-03-08T10:59:36.000Z</time>
      </trkpt>
      <trkpt lat="47.42471" lon="6.69932">
        <ele>406</ele>
        <time>2015-03-08T10:59:37.000Z</time>
      </trkpt>
      <trkpt lat="47.42472" lon="6.69937">
        <ele>405</ele>
        <time>2015-03-08T10:59:39.000Z</time>
      </trkpt>
      <trkpt lat="47.42472" lon="6.6994">
        <ele>405</ele>
        <time>2015-03-08T10:59:40.000Z</time>
      </trkpt>
      <trkpt lat="47.42472" lon="6.69943">
        <ele>405</ele>
        <time>2015-03-08T10:59:41.000Z</time>
      </trkpt>
      <trkpt lat="47.42473" lon="6.69947">
        <ele>405</ele>
        <time>2015-03-08T10:59:42.000Z</time>
      </trkpt>
      <trkpt lat="47.42473" lon="6.6995">
        <ele>405</ele>
        <time>2015-03-08T10:59:43.000Z</time>
      </trkpt>
      <trkpt lat="47.42473" lon="6.69954">
        <ele>405</ele>
        <time>2015-03-08T10:59:44.000Z</time>
      </trkpt>
      <trkpt lat="47.42476" lon="6.69959">
        <ele>405</ele>
        <time>2015-03-08T10:59:46.000Z</time>
      </trkpt>
      <trkpt lat="47.42477" lon="6.69961">
        <ele>405</ele>
        <time>2015-03-08T10:59:47.000Z</time>
      </trkpt>
      <trkpt lat="47.4248" lon="6.69964">
        <ele>405</ele>
        <time>2015-03-08T10:59:49.000Z</time>
      </trkpt>
      <trkpt lat="47.42482" lon="6.69966">
        <ele>405</ele>
        <time>2015-03-08T10:59:50.000Z</time>
      </trkpt>
      <trkpt lat="47.42484" lon="6.69969">
        <ele>406</ele>
        <time>2015-03-08T10:59:52.000Z</time>
      </trkpt>
      <trkpt lat="47.42486" lon="6.69971">
        <ele>406</ele>
        <time>2015-03-08T10:59:53.000Z</time>
      </trkpt>
      <trkpt lat="47.42489" lon="6.69975">
        <ele>406</ele>
        <time>2015-03-08T10:59:55.000Z</time>
      </trkpt>
      <trkpt lat="47.42491" lon="6.69978">
        <ele>406</ele>
        <time>2015-03-08T10:59:56.000Z</time>
      </trkpt>
      <trkpt lat="47.42493" lon="6.69981">
        <ele>407</ele>
        <time>2015-03-08T10:59:57.000Z</time>
      </trkpt>
      <trkpt lat="47.42495" lon="6.69985">
        <ele>407</ele>
        <time>2015-03-08T10:59:58.000Z</time>
      </trkpt>
      <trkpt lat="47.42497" lon="6.69988">
        <ele>408</ele>
        <time>2015-03-08T10:59:59.000Z</time>
      </trkpt>
      <trkpt lat="47.42499" lon="6.69991">
        <ele>409</ele>
        <time>2015-03-08T11:00:00.000Z</time>
      </trkpt>
      <trkpt lat="47.42502" lon="6.69994">
        <ele>413</ele>
        <time>2015-03-08T11:00:01.000Z</time>
      </trkpt>
      <trkpt lat="47.42505" lon="6.69996">
        <ele>413</ele>
        <time>2015-03-08T11:00:02.000Z</time>
      </trkpt>
      <trkpt lat="47.42508" lon="6.69997">
        <ele>413</ele>
        <time>2015-03-08T11:00:03.000Z</time>
      </trkpt>
      <trkpt lat="47.4251" lon="6.69998">
        <ele>414</ele>
        <time>2015-03-08T11:00:04.001Z</time>
      </trkpt>
      <trkpt lat="47.42516" lon="6.69999">
        <ele>415</ele>
        <time>2015-03-08T11:00:05.000Z</time>
      </trkpt>
      <trkpt lat="47.42521" lon="6.7">
        <ele>416</ele>
        <time>2015-03-08T11:00:06.000Z</time>
      </trkpt>
      <trkpt lat="47.42523" lon="6.70001">
        <ele>413</ele>
        <time>2015-03-08T11:00:07.000Z</time>
      </trkpt>
      <trkpt lat="47.42525" lon="6.70003">
        <ele>413</ele>
        <time>2015-03-08T11:00:08.000Z</time>
      </trkpt>
      <trkpt lat="47.42529" lon="6.70005">
        <ele>413</ele>
        <time>2015-03-08T11:00:10.000Z</time>
      </trkpt>
      <trkpt lat="47.42531" lon="6.70007">
        <ele>413</ele>
        <time>2015-03-08T11:00:11.000Z</time>
      </trkpt>
      <trkpt lat="47.42534" lon="6.7001">
        <ele>414</ele>
        <time>2015-03-08T11:00:13.000Z</time>
      </trkpt>
      <trkpt lat="47.42537" lon="6.70012">
        <ele>414</ele>
        <time>2015-03-08T11:00:14.000Z</time>
      </trkpt>
      <trkpt lat="47.42539" lon="6.70015">
        <ele>414</ele>
        <time>2015-03-08T11:00:15.000Z</time>
      </trkpt>
      <trkpt lat="47.42542" lon="6.70018">
        <ele>414</ele>
        <time>2015-03-08T11:00:16.000Z</time>
      </trkpt>
      <trkpt lat="47.42544" lon="6.7002">
        <ele>415</ele>
        <time>2015-03-08T11:00:17.000Z</time>
      </trkpt>
      <trkpt lat="47.42547" lon="6.70022">
        <ele>415</ele>
        <time>2015-03-08T11:00:18.000Z</time>
      </trkpt>
      <trkpt lat="47.4255" lon="6.70026">
        <ele>415</ele>
        <time>2015-03-08T11:00:20.000Z</time>
      </trkpt>
      <trkpt lat="47.42551" lon="6.70028">
        <ele>415</ele>
        <time>2015-03-08T11:00:21.000Z</time>
      </trkpt>
      <trkpt lat="47.42554" lon="6.70032">
        <ele>415</ele>
        <time>2015-03-08T11:00:23.000Z</time>
      </trkpt>
      <trkpt lat="47.42556" lon="6.70034">
        <ele>415</ele>
        <time>2015-03-08T11:00:24.000Z</time>
      </trkpt>
      <trkpt lat="47.42559" lon="6.70037">
        <ele>415</ele>
        <time>2015-03-08T11:00:26.000Z</time>
      </trkpt>
      <trkpt lat="47.4256" lon="6.70039">
        <ele>415</ele>
        <time>2015-03-08T11:00:27.000Z</time>
      </trkpt>
      <trkpt lat="47.42562" lon="6.70044">
        <ele>415</ele>
        <time>2015-03-08T11:00:32.000Z</time>
      </trkpt>
      <trkpt lat="47.42562" lon="6.70046">
        <ele>414</ele>
        <time>2015-03-08T11:00:33.000Z</time>
      </trkpt>
      <trkpt lat="47.42563" lon="6.7005">
        <ele>414</ele>
        <time>2015-03-08T11:00:36.001Z</time>
      </trkpt>
      <trkpt lat="47.42566" lon="6.70052">
        <ele>414</ele>
        <time>2015-03-08T11:00:37.000Z</time>
      </trkpt>
      <trkpt lat="47.42569" lon="6.70053">
        <ele>415</ele>
        <time>2015-03-08T11:00:38.000Z</time>
      </trkpt>
      <trkpt lat="47.42572" lon="6.70055">
        <ele>415</ele>
        <time>2015-03-08T11:00:39.000Z</time>
      </trkpt>
      <trkpt lat="47.42575" lon="6.70056">
        <ele>415</ele>
        <time>2015-03-08T11:00:40.000Z</time>
      </trkpt>
      <trkpt lat="47.42578" lon="6.70057">
        <ele>415</ele>
        <time>2015-03-08T11:00:41.000Z</time>
      </trkpt>
      <trkpt lat="47.42581" lon="6.70058">
        <ele>415</ele>
        <time>2015-03-08T11:00:42.000Z</time>
      </trkpt>
      <trkpt lat="47.42584" lon="6.70059">
        <ele>424</ele>
        <time>2015-03-08T11:00:43.000Z</time>
      </trkpt>
      <trkpt lat="47.42586" lon="6.70061">
        <ele>424</ele>
        <time>2015-03-08T11:00:44.000Z</time>
      </trkpt>
      <trkpt lat="47.42588" lon="6.70064">
        <ele>423</ele>
        <time>2015-03-08T11:00:45.000Z</time>
      </trkpt>
      <trkpt lat="47.4259" lon="6.70067">
        <ele>423</ele>
        <time>2015-03-08T11:00:46.000Z</time>
      </trkpt>
      <trkpt lat="47.42592" lon="6.7007">
        <ele>422</ele>
        <time>2015-03-08T11:00:47.000Z</time>
      </trkpt>
      <trkpt lat="47.42592" lon="6.70075">
        <ele>421</ele>
        <time>2015-03-08T11:00:48.000Z</time>
      </trkpt>
      <trkpt lat="47.42592" lon="6.70081">
        <ele>420</ele>
        <time>2015-03-08T11:00:49.000Z</time>
      </trkpt>
      <trkpt lat="47.42592" lon="6.70087">
        <ele>417</ele>
        <time>2015-03-08T11:00:50.000Z</time>
      </trkpt>
      <trkpt lat="47.42592" lon="6.70093">
        <ele>417</ele>
        <time>2015-03-08T11:00:51.000Z</time>
      </trkpt>
      <trkpt lat="47.42593" lon="6.70098">
        <ele>417</ele>
        <time>2015-03-08T11:00:52.000Z</time>
      </trkpt>
      <trkpt lat="47.42594" lon="6.70102">
        <ele>417</ele>
        <time>2015-03-08T11:00:53.000Z</time>
      </trkpt>
      <trkpt lat="47.42596" lon="6.70106">
        <ele>417</ele>
        <time>2015-03-08T11:00:54.000Z</time>
      </trkpt>
      <trkpt lat="47.42599" lon="6.70109">
        <ele>417</ele>
        <time>2015-03-08T11:00:55.000Z</time>
      </trkpt>
      <trkpt lat="47.42601" lon="6.70112">
        <ele>417</ele>
        <time>2015-03-08T11:00:56.000Z</time>
      </trkpt>
      <trkpt lat="47.42603" lon="6.70115">
        <ele>417</ele>
        <time>2015-03-08T11:00:57.000Z</time>
      </trkpt>
      <trkpt lat="47.42605" lon="6.70118">
        <ele>417</ele>
        <time>2015-03-08T11:00:58.000Z</time>
      </trkpt>
      <trkpt lat="47.42608" lon="6.70119">
        <ele>417</ele>
        <time>2015-03-08T11:00:59.000Z</time>
      </trkpt>
      <trkpt lat="47.42612" lon="6.70118">
        <ele>418</ele>
        <time>2015-03-08T11:01:00.000Z</time>
      </trkpt>
      <trkpt lat="47.42615" lon="6.70117">
        <ele>418</ele>
        <time>2015-03-08T11:01:01.000Z</time>
      </trkpt>
      <trkpt lat="47.42617" lon="6.70116">
        <ele>418</ele>
        <time>2015-03-08T11:01:02.000Z</time>
      </trkpt>
      <trkpt lat="47.42619" lon="6.70115">
        <ele>419</ele>
        <time>2015-03-08T11:01:03.000Z</time>
      </trkpt>
      <trkpt lat="47.42622" lon="6.70115">
        <ele>419</ele>
        <time>2015-03-08T11:01:04.000Z</time>
      </trkpt>
      <trkpt lat="47.42624" lon="6.70116">
        <ele>419</ele>
        <time>2015-03-08T11:01:05.000Z</time>
      </trkpt>
      <trkpt lat="47.42626" lon="6.70117">
        <ele>419</ele>
        <time>2015-03-08T11:01:06.000Z</time>
      </trkpt>
      <trkpt lat="47.42629" lon="6.70119">
        <ele>420</ele>
        <time>2015-03-08T11:01:07.000Z</time>
      </trkpt>
      <trkpt lat="47.42631" lon="6.7012">
        <ele>420</ele>
        <time>2015-03-08T11:01:08.000Z</time>
      </trkpt>
      <trkpt lat="47.42635" lon="6.7012">
        <ele>420</ele>
        <time>2015-03-08T11:01:09.000Z</time>
      </trkpt>
      <trkpt lat="47.42639" lon="6.7012">
        <ele>421</ele>
        <time>2015-03-08T11:01:10.000Z</time>
      </trkpt>
      <trkpt lat="47.42643" lon="6.7012">
        <ele>421</ele>
        <time>2015-03-08T11:01:11.000Z</time>
      </trkpt>
      <trkpt lat="47.42648" lon="6.7012">
        <ele>422</ele>
        <time>2015-03-08T11:01:12.000Z</time>
      </trkpt>
      <trkpt lat="47.42652" lon="6.70119">
        <ele>422</ele>
        <time>2015-03-08T11:01:13.000Z</time>
      </trkpt>
      <trkpt lat="47.42655" lon="6.70119">
        <ele>423</ele>
        <time>2015-03-08T11:01:14.000Z</time>
      </trkpt>
      <trkpt lat="47.42661" lon="6.70119">
        <ele>423</ele>
        <time>2015-03-08T11:01:15.000Z</time>
      </trkpt>
      <trkpt lat="47.42666" lon="6.70119">
        <ele>423</ele>
        <time>2015-03-08T11:01:16.000Z</time>
      </trkpt>
      <trkpt lat="47.4267" lon="6.7012">
        <ele>433</ele>
        <time>2015-03-08T11:01:17.000Z</time>
      </trkpt>
      <trkpt lat="47.42673" lon="6.7012">
        <ele>433</ele>
        <time>2015-03-08T11:01:18.000Z</time>
      </trkpt>
      <trkpt lat="47.42677" lon="6.7012">
        <ele>434</ele>
        <time>2015-03-08T11:01:19.000Z</time>
      </trkpt>
      <trkpt lat="47.42681" lon="6.70121">
        <ele>434</ele>
        <time>2015-03-08T11:01:20.000Z</time>
      </trkpt>
      <trkpt lat="47.42685" lon="6.70122">
        <ele>434</ele>
        <time>2015-03-08T11:01:21.000Z</time>
      </trkpt>
      <trkpt lat="47.42688" lon="6.70121">
        <ele>434</ele>
        <time>2015-03-08T11:01:22.002Z</time>
      </trkpt>
      <trkpt lat="47.42689" lon="6.70125">
        <ele>434</ele>
        <time>2015-03-08T11:01:23.000Z</time>
      </trkpt>
      <trkpt lat="47.4269" lon="6.70128">
        <ele>434</ele>
        <time>2015-03-08T11:01:24.000Z</time>
      </trkpt>
      <trkpt lat="47.4269" lon="6.70132">
        <ele>433</ele>
        <time>2015-03-08T11:01:25.000Z</time>
      </trkpt>
      <trkpt lat="47.42689" lon="6.70136">
        <ele>433</ele>
        <time>2015-03-08T11:01:26.000Z</time>
      </trkpt>
      <trkpt lat="47.42688" lon="6.70141">
        <ele>432</ele>
        <time>2015-03-08T11:01:27.000Z</time>
      </trkpt>
      <trkpt lat="47.42688" lon="6.70145">
        <ele>432</ele>
        <time>2015-03-08T11:01:28.000Z</time>
      </trkpt>
      <trkpt lat="47.42689" lon="6.70148">
        <ele>431</ele>
        <time>2015-03-08T11:01:29.000Z</time>
      </trkpt>
      <trkpt lat="47.4269" lon="6.70151">
        <ele>431</ele>
        <time>2015-03-08T11:01:30.000Z</time>
      </trkpt>
      <trkpt lat="47.42693" lon="6.70156">
        <ele>431</ele>
        <time>2015-03-08T11:01:32.000Z</time>
      </trkpt>
      <trkpt lat="47.42694" lon="6.70158">
        <ele>431</ele>
        <time>2015-03-08T11:01:33.000Z</time>
      </trkpt>
      <trkpt lat="47.42696" lon="6.70164">
        <ele>431</ele>
        <time>2015-03-08T11:01:35.000Z</time>
      </trkpt>
      <trkpt lat="47.42696" lon="6.70165">
        <ele>431</ele>
        <time>2015-03-08T11:01:36.000Z</time>
      </trkpt>
      <trkpt lat="47.42695" lon="6.7017">
        <ele>424</ele>
        <time>2015-03-08T11:01:37.000Z</time>
      </trkpt>
      <trkpt lat="47.42696" lon="6.70173">
        <ele>424</ele>
        <time>2015-03-08T11:01:38.000Z</time>
      </trkpt>
      <trkpt lat="47.42699" lon="6.70177">
        <ele>425</ele>
        <time>2015-03-08T11:01:39.999Z</time>
      </trkpt>
      <trkpt lat="47.42703" lon="6.70179">
        <ele>425</ele>
        <time>2015-03-08T11:01:41.000Z</time>
      </trkpt>
      <trkpt lat="47.42706" lon="6.7018">
        <ele>426</ele>
        <time>2015-03-08T11:01:42.000Z</time>
      </trkpt>
      <trkpt lat="47.42709" lon="6.70181">
        <ele>426</ele>
        <time>2015-03-08T11:01:43.000Z</time>
      </trkpt>
      <trkpt lat="47.42711" lon="6.70182">
        <ele>426</ele>
        <time>2015-03-08T11:01:44.000Z</time>
      </trkpt>
      <trkpt lat="47.42714" lon="6.70183">
        <ele>427</ele>
        <time>2015-03-08T11:01:45.000Z</time>
      </trkpt>
      <trkpt lat="47.42716" lon="6.70184">
        <ele>427</ele>
        <time>2015-03-08T11:01:46.000Z</time>
      </trkpt>
      <trkpt lat="47.42719" lon="6.70184">
        <ele>427</ele>
        <time>2015-03-08T11:01:47.000Z</time>
      </trkpt>
      <trkpt lat="47.42721" lon="6.70184">
        <ele>428</ele>
        <time>2015-03-08T11:01:48.000Z</time>
      </trkpt>
      <trkpt lat="47.42723" lon="6.70184">
        <ele>428</ele>
        <time>2015-03-08T11:01:49.000Z</time>
      </trkpt>
      <trkpt lat="47.42726" lon="6.70183">
        <ele>429</ele>
        <time>2015-03-08T11:01:50.000Z</time>
      </trkpt>
      <trkpt lat="47.42728" lon="6.70183">
        <ele>429</ele>
        <time>2015-03-08T11:01:51.000Z</time>
      </trkpt>
      <trkpt lat="47.42732" lon="6.70185">
        <ele>430</ele>
        <time>2015-03-08T11:01:53.000Z</time>
      </trkpt>
      <trkpt lat="47.42733" lon="6.70188">
        <ele>429</ele>
        <time>2015-03-08T11:01:54.000Z</time>
      </trkpt>
      <trkpt lat="47.42734" lon="6.70194">
        <ele>429</ele>
        <time>2015-03-08T11:01:56.000Z</time>
      </trkpt>
      <trkpt lat="47.42733" lon="6.70198">
        <ele>428</ele>
        <time>2015-03-08T11:01:57.000Z</time>
      </trkpt>
      <trkpt lat="47.42733" lon="6.70202">
        <ele>427</ele>
        <time>2015-03-08T11:01:58.000Z</time>
      </trkpt>
      <trkpt lat="47.42733" lon="6.70205">
        <ele>427</ele>
        <time>2015-03-08T11:01:59.000Z</time>
      </trkpt>
      <trkpt lat="47.42732" lon="6.70211">
        <ele>426</ele>
        <time>2015-03-08T11:02:01.000Z</time>
      </trkpt>
      <trkpt lat="47.42733" lon="6.70213">
        <ele>426</ele>
        <time>2015-03-08T11:02:02.000Z</time>
      </trkpt>
      <trkpt lat="47.42735" lon="6.70219">
        <ele>426</ele>
        <time>2015-03-08T11:02:04.000Z</time>
      </trkpt>
      <trkpt lat="47.42737" lon="6.70222">
        <ele>426</ele>
        <time>2015-03-08T11:02:05.000Z</time>
      </trkpt>
      <trkpt lat="47.42739" lon="6.70225">
        <ele>426</ele>
        <time>2015-03-08T11:02:06.000Z</time>
      </trkpt>
      <trkpt lat="47.4274" lon="6.70227">
        <ele>426</ele>
        <time>2015-03-08T11:02:07.000Z</time>
      </trkpt>
      <trkpt lat="47.42743" lon="6.70232">
        <ele>426</ele>
        <time>2015-03-08T11:02:10.000Z</time>
      </trkpt>
      <trkpt lat="47.42744" lon="6.70234">
        <ele>426</ele>
        <time>2015-03-08T11:02:11.000Z</time>
      </trkpt>
      <trkpt lat="47.42746" lon="6.70235">
        <ele>426</ele>
        <time>2015-03-08T11:02:12.000Z</time>
      </trkpt>
      <trkpt lat="47.42748" lon="6.70237">
        <ele>426</ele>
        <time>2015-03-08T11:02:13.000Z</time>
      </trkpt>
      <trkpt lat="47.42751" lon="6.70238">
        <ele>432</ele>
        <time>2015-03-08T11:02:14.000Z</time>
      </trkpt>
      <trkpt lat="47.42753" lon="6.70239">
        <ele>432</ele>
        <time>2015-03-08T11:02:15.000Z</time>
      </trkpt>
      <trkpt lat="47.42757" lon="6.7024">
        <ele>432</ele>
        <time>2015-03-08T11:02:17.000Z</time>
      </trkpt>
      <trkpt lat="47.42758" lon="6.7024">
        <ele>432</ele>
        <time>2015-03-08T11:02:18.000Z</time>
      </trkpt>
      <trkpt lat="47.42762" lon="6.70243">
        <ele>432</ele>
        <time>2015-03-08T11:02:22.000Z</time>
      </trkpt>
      <trkpt lat="47.42764" lon="6.70243">
        <ele>433</ele>
        <time>2015-03-08T11:02:23.000Z</time>
      </trkpt>
      <trkpt lat="47.42767" lon="6.70243">
        <ele>433</ele>
        <time>2015-03-08T11:02:24.000Z</time>
      </trkpt>
      <trkpt lat="47.4277" lon="6.70244">
        <ele>434</ele>
        <time>2015-03-08T11:02:25.000Z</time>
      </trkpt>
      <trkpt lat="47.42773" lon="6.70245">
        <ele>435</ele>
        <time>2015-03-08T11:02:26.000Z</time>
      </trkpt>
      <trkpt lat="47.42776" lon="6.70245">
        <ele>435</ele>
        <time>2015-03-08T11:02:27.000Z</time>
      </trkpt>
      <trkpt lat="47.4278" lon="6.70244">
        <ele>436</ele>
        <time>2015-03-08T11:02:28.000Z</time>
      </trkpt>
      <trkpt lat="47.42782" lon="6.70243">
        <ele>436</ele>
        <time>2015-03-08T11:02:29.000Z</time>
      </trkpt>
      <trkpt lat="47.42787" lon="6.70239">
        <ele>437</ele>
        <time>2015-03-08T11:02:30.000Z</time>
      </trkpt>
      <trkpt lat="47.4279" lon="6.70237">
        <ele>438</ele>
        <time>2015-03-08T11:02:31.000Z</time>
      </trkpt>
      <trkpt lat="47.42792" lon="6.70238">
        <ele>438</ele>
        <time>2015-03-08T11:02:32.000Z</time>
      </trkpt>
      <trkpt lat="47.42795" lon="6.70242">
        <ele>438</ele>
        <time>2015-03-08T11:02:34.000Z</time>
      </trkpt>
      <trkpt lat="47.42797" lon="6.70245">
        <ele>438</ele>
        <time>2015-03-08T11:02:35.000Z</time>
      </trkpt>
      <trkpt lat="47.42798" lon="6.70248">
        <ele>439</ele>
        <time>2015-03-08T11:02:36.000Z</time>
      </trkpt>
      <trkpt lat="47.428" lon="6.70251">
        <ele>434</ele>
        <time>2015-03-08T11:02:37.000Z</time>
      </trkpt>
      <trkpt lat="47.42802" lon="6.70253">
        <ele>434</ele>
        <time>2015-03-08T11:02:38.000Z</time>
      </trkpt>
      <trkpt lat="47.42805" lon="6.70256">
        <ele>435</ele>
        <time>2015-03-08T11:02:39.000Z</time>
      </trkpt>
      <trkpt lat="47.42807" lon="6.70259">
        <ele>435</ele>
        <time>2015-03-08T11:02:40.000Z</time>
      </trkpt>
      <trkpt lat="47.42809" lon="6.70261">
        <ele>435</ele>
        <time>2015-03-08T11:02:41.000Z</time>
      </trkpt>
      <trkpt lat="47.42812" lon="6.70264">
        <ele>436</ele>
        <time>2015-03-08T11:02:42.000Z</time>
      </trkpt>
      <trkpt lat="47.42814" lon="6.70266">
        <ele>436</ele>
        <time>2015-03-08T11:02:43.000Z</time>
      </trkpt>
      <trkpt lat="47.42816" lon="6.70268">
        <ele>436</ele>
        <time>2015-03-08T11:02:44.000Z</time>
      </trkpt>
      <trkpt lat="47.42818" lon="6.7027">
        <ele>436</ele>
        <time>2015-03-08T11:02:45.000Z</time>
      </trkpt>
      <trkpt lat="47.4282" lon="6.70272">
        <ele>436</ele>
        <time>2015-03-08T11:02:46.000Z</time>
      </trkpt>
      <trkpt lat="47.42822" lon="6.70275">
        <ele>436</ele>
        <time>2015-03-08T11:02:47.000Z</time>
      </trkpt>
      <trkpt lat="47.42824" lon="6.70277">
        <ele>435</ele>
        <time>2015-03-08T11:02:48.000Z</time>
      </trkpt>
      <trkpt lat="47.42827" lon="6.7028">
        <ele>435</ele>
        <time>2015-03-08T11:02:49.000Z</time>
      </trkpt>
      <trkpt lat="47.42829" lon="6.70283">
        <ele>435</ele>
        <time>2015-03-08T11:02:50.000Z</time>
      </trkpt>
      <trkpt lat="47.42831" lon="6.70285">
        <ele>435</ele>
        <time>2015-03-08T11:02:51.000Z</time>
      </trkpt>
      <trkpt lat="47.42833" lon="6.70288">
        <ele>434</ele>
        <time>2015-03-08T11:02:52.000Z</time>
      </trkpt>
      <trkpt lat="47.42834" lon="6.70292">
        <ele>442</ele>
        <time>2015-03-08T11:02:53.000Z</time>
      </trkpt>
      <trkpt lat="47.42835" lon="6.70295">
        <ele>442</ele>
        <time>2015-03-08T11:02:54.000Z</time>
      </trkpt>
      <trkpt lat="47.42837" lon="6.70298">
        <ele>442</ele>
        <time>2015-03-08T11:02:55.000Z</time>
      </trkpt>
      <trkpt lat="47.42838" lon="6.70302">
        <ele>441</ele>
        <time>2015-03-08T11:02:56.000Z</time>
      </trkpt>
      <trkpt lat="47.42839" lon="6.70304">
        <ele>441</ele>
        <time>2015-03-08T11:02:57.000Z</time>
      </trkpt>
      <trkpt lat="47.42842" lon="6.70308">
        <ele>441</ele>
        <time>2015-03-08T11:02:59.000Z</time>
      </trkpt>
      <trkpt lat="47.42844" lon="6.70311">
        <ele>441</ele>
        <time>2015-03-08T11:03:00.000Z</time>
      </trkpt>
      <trkpt lat="47.42845" lon="6.70312">
        <ele>441</ele>
        <time>2015-03-08T11:03:00.999Z</time>
      </trkpt>
      <trkpt lat="47.42849" lon="6.70315">
        <ele>441</ele>
        <time>2015-03-08T11:03:02.000Z</time>
      </trkpt>
      <trkpt lat="47.42852" lon="6.70316">
        <ele>441</ele>
        <time>2015-03-08T11:03:03.000Z</time>
      </trkpt>
      <trkpt lat="47.42854" lon="6.70319">
        <ele>441</ele>
        <time>2015-03-08T11:03:04.000Z</time>
      </trkpt>
      <trkpt lat="47.42856" lon="6.7032">
        <ele>441</ele>
        <time>2015-03-08T11:03:05.000Z</time>
      </trkpt>
      <trkpt lat="47.42858" lon="6.70324">
        <ele>441</ele>
        <time>2015-03-08T11:03:06.000Z</time>
      </trkpt>
      <trkpt lat="47.4286" lon="6.70327">
        <ele>441</ele>
        <time>2015-03-08T11:03:07.000Z</time>
      </trkpt>
      <trkpt lat="47.42862" lon="6.7033">
        <ele>441</ele>
        <time>2015-03-08T11:03:08.000Z</time>
      </trkpt>
      <trkpt lat="47.42863" lon="6.70333">
        <ele>442</ele>
        <time>2015-03-08T11:03:09.000Z</time>
      </trkpt>
      <trkpt lat="47.42864" lon="6.70336">
        <ele>439</ele>
        <time>2015-03-08T11:03:10.000Z</time>
      </trkpt>
      <trkpt lat="47.42866" lon="6.70342">
        <ele>439</ele>
        <time>2015-03-08T11:03:12.000Z</time>
      </trkpt>
      <trkpt lat="47.42868" lon="6.70344">
        <ele>439</ele>
        <time>2015-03-08T11:03:13.000Z</time>
      </trkpt>
      <trkpt lat="47.4287" lon="6.70348">
        <ele>440</ele>
        <time>2015-03-08T11:03:15.000Z</time>
      </trkpt>
      <trkpt lat="47.42872" lon="6.7035">
        <ele>440</ele>
        <time>2015-03-08T11:03:16.000Z</time>
      </trkpt>
      <trkpt lat="47.42874" lon="6.70352">
        <ele>440</ele>
        <time>2015-03-08T11:03:17.000Z</time>
      </trkpt>
      <trkpt lat="47.42876" lon="6.70355">
        <ele>440</ele>
        <time>2015-03-08T11:03:18.000Z</time>
      </trkpt>
      <trkpt lat="47.42878" lon="6.70357">
        <ele>440</ele>
        <time>2015-03-08T11:03:19.000Z</time>
      </trkpt>
      <trkpt lat="47.4288" lon="6.7036">
        <ele>440</ele>
        <time>2015-03-08T11:03:20.000Z</time>
      </trkpt>
      <trkpt lat="47.42882" lon="6.70363">
        <ele>440</ele>
        <time>2015-03-08T11:03:21.000Z</time>
      </trkpt>
      <trkpt lat="47.42884" lon="6.70366">
        <ele>441</ele>
        <time>2015-03-08T11:03:22.000Z</time>
      </trkpt>
      <trkpt lat="47.42885" lon="6.70368">
        <ele>441</ele>
        <time>2015-03-08T11:03:23.000Z</time>
      </trkpt>
      <trkpt lat="47.42887" lon="6.70372">
        <ele>441</ele>
        <time>2015-03-08T11:03:24.000Z</time>
      </trkpt>
      <trkpt lat="47.42888" lon="6.70375">
        <ele>441</ele>
        <time>2015-03-08T11:03:25.000Z</time>
      </trkpt>
      <trkpt lat="47.42889" lon="6.70379">
        <ele>441</ele>
        <time>2015-03-08T11:03:26.000Z</time>
      </trkpt>
      <trkpt lat="47.4289" lon="6.70384">
        <ele>441</ele>
        <time>2015-03-08T11:03:27.000Z</time>
      </trkpt>
      <trkpt lat="47.4289" lon="6.70389">
        <ele>441</ele>
        <time>2015-03-08T11:03:28.000Z</time>
      </trkpt>
      <trkpt lat="47.4289" lon="6.70394">
        <ele>441</ele>
        <time>2015-03-08T11:03:29.000Z</time>
      </trkpt>
      <trkpt lat="47.4289" lon="6.70398">
        <ele>441</ele>
        <time>2015-03-08T11:03:30.000Z</time>
      </trkpt>
      <trkpt lat="47.42893" lon="6.70403">
        <ele>441</ele>
        <time>2015-03-08T11:03:32.000Z</time>
      </trkpt>
      <trkpt lat="47.42894" lon="6.70405">
        <ele>441</ele>
        <time>2015-03-08T11:03:33.000Z</time>
      </trkpt>
      <trkpt lat="47.42895" lon="6.70408">
        <ele>441</ele>
        <time>2015-03-08T11:03:34.000Z</time>
      </trkpt>
      <trkpt lat="47.42894" lon="6.70413">
        <ele>441</ele>
        <time>2015-03-08T11:03:35.000Z</time>
      </trkpt>
      <trkpt lat="47.42893" lon="6.70418">
        <ele>440</ele>
        <time>2015-03-08T11:03:36.000Z</time>
      </trkpt>
      <trkpt lat="47.42892" lon="6.70423">
        <ele>439</ele>
        <time>2015-03-08T11:03:37.000Z</time>
      </trkpt>
      <trkpt lat="47.4289" lon="6.70429">
        <ele>439</ele>
        <time>2015-03-08T11:03:38.000Z</time>
      </trkpt>
      <trkpt lat="47.42888" lon="6.70434">
        <ele>438</ele>
        <time>2015-03-08T11:03:39.000Z</time>
      </trkpt>
      <trkpt lat="47.42886" lon="6.70439">
        <ele>438</ele>
        <time>2015-03-08T11:03:40.000Z</time>
      </trkpt>
      <trkpt lat="47.42884" lon="6.70444">
        <ele>438</ele>
        <time>2015-03-08T11:03:41.000Z</time>
      </trkpt>
      <trkpt lat="47.42881" lon="6.70448">
        <ele>437</ele>
        <time>2015-03-08T11:03:42.000Z</time>
      </trkpt>
      <trkpt lat="47.42879" lon="6.70453">
        <ele>437</ele>
        <time>2015-03-08T11:03:43.000Z</time>
      </trkpt>
      <trkpt lat="47.42876" lon="6.70456">
        <ele>437</ele>
        <time>2015-03-08T11:03:44.000Z</time>
      </trkpt>
      <trkpt lat="47.42874" lon="6.7046">
        <ele>437</ele>
        <time>2015-03-08T11:03:45.000Z</time>
      </trkpt>
      <trkpt lat="47.42871" lon="6.70463">
        <ele>437</ele>
        <time>2015-03-08T11:03:46.000Z</time>
      </trkpt>
      <trkpt lat="47.42869" lon="6.70466">
        <ele>436</ele>
        <time>2015-03-08T11:03:47.000Z</time>
      </trkpt>
      <trkpt lat="47.42867" lon="6.7047">
        <ele>436</ele>
        <time>2015-03-08T11:03:48.000Z</time>
      </trkpt>
      <trkpt lat="47.42864" lon="6.70473">
        <ele>436</ele>
        <time>2015-03-08T11:03:49.000Z</time>
      </trkpt>
      <trkpt lat="47.42862" lon="6.70476">
        <ele>436</ele>
        <time>2015-03-08T11:03:50.000Z</time>
      </trkpt>
      <trkpt lat="47.42861" lon="6.70479">
        <ele>436</ele>
        <time>2015-03-08T11:03:51.000Z</time>
      </trkpt>
      <trkpt lat="47.42859" lon="6.70482">
        <ele>436</ele>
        <time>2015-03-08T11:03:52.000Z</time>
      </trkpt>
      <trkpt lat="47.42857" lon="6.70484">
        <ele>436</ele>
        <time>2015-03-08T11:03:53.000Z</time>
      </trkpt>
      <trkpt lat="47.42855" lon="6.70487">
        <ele>436</ele>
        <time>2015-03-08T11:03:54.000Z</time>
      </trkpt>
      <trkpt lat="47.42853" lon="6.7049">
        <ele>435</ele>
        <time>2015-03-08T11:03:55.000Z</time>
      </trkpt>
      <trkpt lat="47.42851" lon="6.70493">
        <ele>435</ele>
        <time>2015-03-08T11:03:56.000Z</time>
      </trkpt>
      <trkpt lat="47.4285" lon="6.70495">
        <ele>435</ele>
        <time>2015-03-08T11:03:57.000Z</time>
      </trkpt>
      <trkpt lat="47.42848" lon="6.70498">
        <ele>435</ele>
        <time>2015-03-08T11:03:58.000Z</time>
      </trkpt>
      <trkpt lat="47.42846" lon="6.705">
        <ele>435</ele>
        <time>2015-03-08T11:03:59.000Z</time>
      </trkpt>
      <trkpt lat="47.42844" lon="6.70503">
        <ele>435</ele>
        <time>2015-03-08T11:04:00.000Z</time>
      </trkpt>
      <trkpt lat="47.42842" lon="6.70505">
        <ele>435</ele>
        <time>2015-03-08T11:04:01.000Z</time>
      </trkpt>
      <trkpt lat="47.4284" lon="6.70508">
        <ele>435</ele>
        <time>2015-03-08T11:04:02.000Z</time>
      </trkpt>
      <trkpt lat="47.42839" lon="6.7051">
        <ele>435</ele>
        <time>2015-03-08T11:04:03.000Z</time>
      </trkpt>
      <trkpt lat="47.42837" lon="6.70513">
        <ele>435</ele>
        <time>2015-03-08T11:04:04.000Z</time>
      </trkpt>
      <trkpt lat="47.42836" lon="6.70515">
        <ele>435</ele>
        <time>2015-03-08T11:04:05.000Z</time>
      </trkpt>
      <trkpt lat="47.42834" lon="6.70518">
        <ele>436</ele>
        <time>2015-03-08T11:04:06.000Z</time>
      </trkpt>
      <trkpt lat="47.42832" lon="6.7052">
        <ele>435</ele>
        <time>2015-03-08T11:04:07.000Z</time>
      </trkpt>
      <trkpt lat="47.42831" lon="6.70522">
        <ele>436</ele>
        <time>2015-03-08T11:04:08.000Z</time>
      </trkpt>
      <trkpt lat="47.42829" lon="6.70525">
        <ele>436</ele>
        <time>2015-03-08T11:04:09.000Z</time>
      </trkpt>
      <trkpt lat="47.42828" lon="6.70528">
        <ele>436</ele>
        <time>2015-03-08T11:04:10.000Z</time>
      </trkpt>
      <trkpt lat="47.42826" lon="6.70531">
        <ele>436</ele>
        <time>2015-03-08T11:04:11.000Z</time>
      </trkpt>
      <trkpt lat="47.42825" lon="6.70536">
        <ele>436</ele>
        <time>2015-03-08T11:04:13.000Z</time>
      </trkpt>
      <trkpt lat="47.42825" lon="6.70539">
        <ele>436</ele>
        <time>2015-03-08T11:04:14.000Z</time>
      </trkpt>
      <trkpt lat="47.42827" lon="6.70543">
        <ele>437</ele>
        <time>2015-03-08T11:04:16.000Z</time>
      </trkpt>
      <trkpt lat="47.42828" lon="6.70545">
        <ele>437</ele>
        <time>2015-03-08T11:04:17.000Z</time>
      </trkpt>
      <trkpt lat="47.4283" lon="6.7055">
        <ele>437</ele>
        <time>2015-03-08T11:04:19.000Z</time>
      </trkpt>
      <trkpt lat="47.42831" lon="6.70553">
        <ele>437</ele>
        <time>2015-03-08T11:04:20.000Z</time>
      </trkpt>
      <trkpt lat="47.42832" lon="6.70555">
        <ele>437</ele>
        <time>2015-03-08T11:04:21.000Z</time>
      </trkpt>
      <trkpt lat="47.42834" lon="6.70558">
        <ele>437</ele>
        <time>2015-03-08T11:04:22.000Z</time>
      </trkpt>
      <trkpt lat="47.42835" lon="6.70561">
        <ele>437</ele>
        <time>2015-03-08T11:04:23.000Z</time>
      </trkpt>
      <trkpt lat="47.42837" lon="6.70564">
        <ele>437</ele>
        <time>2015-03-08T11:04:24.000Z</time>
      </trkpt>
      <trkpt lat="47.42838" lon="6.70567">
        <ele>437</ele>
        <time>2015-03-08T11:04:25.000Z</time>
      </trkpt>
      <trkpt lat="47.42839" lon="6.7057">
        <ele>437</ele>
        <time>2015-03-08T11:04:26.000Z</time>
      </trkpt>
      <trkpt lat="47.4284" lon="6.70573">
        <ele>438</ele>
        <time>2015-03-08T11:04:27.000Z</time>
      </trkpt>
      <trkpt lat="47.42842" lon="6.70576">
        <ele>438</ele>
        <time>2015-03-08T11:04:28.000Z</time>
      </trkpt>
      <trkpt lat="47.42843" lon="6.70579">
        <ele>438</ele>
        <time>2015-03-08T11:04:29.000Z</time>
      </trkpt>
      <trkpt lat="47.42845" lon="6.70583">
        <ele>438</ele>
        <time>2015-03-08T11:04:30.000Z</time>
      </trkpt>
      <trkpt lat="47.42847" lon="6.70586">
        <ele>439</ele>
        <time>2015-03-08T11:04:31.000Z</time>
      </trkpt>
      <trkpt lat="47.42849" lon="6.70588">
        <ele>439</ele>
        <time>2015-03-08T11:04:32.000Z</time>
      </trkpt>
      <trkpt lat="47.42851" lon="6.70591">
        <ele>439</ele>
        <time>2015-03-08T11:04:33.000Z</time>
      </trkpt>
      <trkpt lat="47.42854" lon="6.70594">
        <ele>439</ele>
        <time>2015-03-08T11:04:34.000Z</time>
      </trkpt>
      <trkpt lat="47.42857" lon="6.70597">
        <ele>439</ele>
        <time>2015-03-08T11:04:35.000Z</time>
      </trkpt>
      <trkpt lat="47.4286" lon="6.706">
        <ele>439</ele>
        <time>2015-03-08T11:04:36.000Z</time>
      </trkpt>
      <trkpt lat="47.42863" lon="6.70603">
        <ele>439</ele>
        <time>2015-03-08T11:04:37.000Z</time>
      </trkpt>
      <trkpt lat="47.42864" lon="6.70607">
        <ele>439</ele>
        <time>2015-03-08T11:04:38.000Z</time>
      </trkpt>
      <trkpt lat="47.42866" lon="6.70611">
        <ele>439</ele>
        <time>2015-03-08T11:04:39.000Z</time>
      </trkpt>
      <trkpt lat="47.42867" lon="6.70615">
        <ele>439</ele>
        <time>2015-03-08T11:04:40.000Z</time>
      </trkpt>
      <trkpt lat="47.42868" lon="6.70619">
        <ele>439</ele>
        <time>2015-03-08T11:04:41.000Z</time>
      </trkpt>
      <trkpt lat="47.42869" lon="6.70623">
        <ele>439</ele>
        <time>2015-03-08T11:04:42.000Z</time>
      </trkpt>
      <trkpt lat="47.4287" lon="6.70627">
        <ele>439</ele>
        <time>2015-03-08T11:04:43.000Z</time>
      </trkpt>
      <trkpt lat="47.42872" lon="6.70631">
        <ele>439</ele>
        <time>2015-03-08T11:04:44.000Z</time>
      </trkpt>
      <trkpt lat="47.42873" lon="6.70635">
        <ele>439</ele>
        <time>2015-03-08T11:04:45.000Z</time>
      </trkpt>
      <trkpt lat="47.42875" lon="6.70638">
        <ele>439</ele>
        <time>2015-03-08T11:04:46.000Z</time>
      </trkpt>
      <trkpt lat="47.42877" lon="6.70642">
        <ele>439</ele>
        <time>2015-03-08T11:04:47.000Z</time>
      </trkpt>
      <trkpt lat="47.42878" lon="6.70646">
        <ele>440</ele>
        <time>2015-03-08T11:04:48.000Z</time>
      </trkpt>
      <trkpt lat="47.42879" lon="6.7065">
        <ele>440</ele>
        <time>2015-03-08T11:04:49.000Z</time>
      </trkpt>
      <trkpt lat="47.4288" lon="6.70654">
        <ele>440</ele>
        <time>2015-03-08T11:04:50.000Z</time>
      </trkpt>
      <trkpt lat="47.42881" lon="6.70659">
        <ele>440</ele>
        <time>2015-03-08T11:04:51.000Z</time>
      </trkpt>
      <trkpt lat="47.42883" lon="6.70663">
        <ele>440</ele>
        <time>2015-03-08T11:04:52.000Z</time>
      </trkpt>
      <trkpt lat="47.42884" lon="6.70668">
        <ele>442</ele>
        <time>2015-03-08T11:04:53.000Z</time>
      </trkpt>
      <trkpt lat="47.42885" lon="6.70672">
        <ele>442</ele>
        <time>2015-03-08T11:04:54.000Z</time>
      </trkpt>
      <trkpt lat="47.42886" lon="6.70676">
        <ele>442</ele>
        <time>2015-03-08T11:04:55.000Z</time>
      </trkpt>
      <trkpt lat="47.42887" lon="6.70681">
        <ele>442</ele>
        <time>2015-03-08T11:04:56.000Z</time>
      </trkpt>
      <trkpt lat="47.42888" lon="6.70686">
        <ele>442</ele>
        <time>2015-03-08T11:04:57.000Z</time>
      </trkpt>
      <trkpt lat="47.42889" lon="6.7069">
        <ele>442</ele>
        <time>2015-03-08T11:04:58.000Z</time>
      </trkpt>
      <trkpt lat="47.4289" lon="6.70695">
        <ele>442</ele>
        <time>2015-03-08T11:04:59.000Z</time>
      </trkpt>
      <trkpt lat="47.42891" lon="6.707">
        <ele>442</ele>
        <time>2015-03-08T11:05:00.000Z</time>
      </trkpt>
      <trkpt lat="47.42893" lon="6.70705">
        <ele>442</ele>
        <time>2015-03-08T11:05:01.000Z</time>
      </trkpt>
      <trkpt lat="47.42895" lon="6.70709">
        <ele>443</ele>
        <time>2015-03-08T11:05:02.000Z</time>
      </trkpt>
      <trkpt lat="47.42897" lon="6.70714">
        <ele>443</ele>
        <time>2015-03-08T11:05:03.000Z</time>
      </trkpt>
      <trkpt lat="47.42899" lon="6.70718">
        <ele>443</ele>
        <time>2015-03-08T11:05:04.000Z</time>
      </trkpt>
      <trkpt lat="47.42901" lon="6.70722">
        <ele>443</ele>
        <time>2015-03-08T11:05:05.000Z</time>
      </trkpt>
      <trkpt lat="47.42903" lon="6.70726">
        <ele>443</ele>
        <time>2015-03-08T11:05:06.000Z</time>
      </trkpt>
      <trkpt lat="47.42905" lon="6.70729">
        <ele>443</ele>
        <time>2015-03-08T11:05:07.000Z</time>
      </trkpt>
      <trkpt lat="47.42908" lon="6.70733">
        <ele>443</ele>
        <time>2015-03-08T11:05:08.000Z</time>
      </trkpt>
      <trkpt lat="47.4291" lon="6.70736">
        <ele>443</ele>
        <time>2015-03-08T11:05:09.000Z</time>
      </trkpt>
      <trkpt lat="47.42913" lon="6.70739">
        <ele>444</ele>
        <time>2015-03-08T11:05:10.000Z</time>
      </trkpt>
      <trkpt lat="47.42915" lon="6.70742">
        <ele>444</ele>
        <time>2015-03-08T11:05:11.000Z</time>
      </trkpt>
      <trkpt lat="47.42918" lon="6.70745">
        <ele>444</ele>
        <time>2015-03-08T11:05:12.000Z</time>
      </trkpt>
      <trkpt lat="47.42921" lon="6.70748">
        <ele>444</ele>
        <time>2015-03-08T11:05:13.000Z</time>
      </trkpt>
      <trkpt lat="47.42923" lon="6.70751">
        <ele>444</ele>
        <time>2015-03-08T11:05:13.999Z</time>
      </trkpt>
      <trkpt lat="47.42926" lon="6.70755">
        <ele>444</ele>
        <time>2015-03-08T11:05:15.000Z</time>
      </trkpt>
      <trkpt lat="47.42928" lon="6.70758">
        <ele>444</ele>
        <time>2015-03-08T11:05:16.000Z</time>
      </trkpt>
      <trkpt lat="47.42929" lon="6.70761">
        <ele>444</ele>
        <time>2015-03-08T11:05:17.000Z</time>
      </trkpt>
      <trkpt lat="47.42931" lon="6.70764">
        <ele>445</ele>
        <time>2015-03-08T11:05:18.000Z</time>
      </trkpt>
      <trkpt lat="47.42933" lon="6.70769">
        <ele>445</ele>
        <time>2015-03-08T11:05:21.000Z</time>
      </trkpt>
      <trkpt lat="47.42933" lon="6.7077">
        <ele>445</ele>
        <time>2015-03-08T11:05:22.000Z</time>
      </trkpt>
      <trkpt lat="47.42934" lon="6.70776">
        <ele>445</ele>
        <time>2015-03-08T11:05:31.000Z</time>
      </trkpt>
      <trkpt lat="47.42935" lon="6.70777">
        <ele>445</ele>
        <time>2015-03-08T11:05:32.000Z</time>
      </trkpt>
      <trkpt lat="47.42938" lon="6.70781">
        <ele>445</ele>
        <time>2015-03-08T11:05:35.999Z</time>
      </trkpt>
      <trkpt lat="47.42938" lon="6.70782">
        <ele>445</ele>
        <time>2015-03-08T11:05:37.000Z</time>
      </trkpt>
      <trkpt lat="47.42941" lon="6.70787">
        <ele>445</ele>
        <time>2015-03-08T11:05:41.001Z</time>
      </trkpt>
      <trkpt lat="47.42941" lon="6.70788">
        <ele>445</ele>
        <time>2015-03-08T11:05:42.000Z</time>
      </trkpt>
      <trkpt lat="47.42945" lon="6.70793">
        <ele>445</ele>
        <time>2015-03-08T11:05:49.000Z</time>
      </trkpt>
      <trkpt lat="47.42944" lon="6.70794">
        <ele>445</ele>
        <time>2015-03-08T11:05:50.000Z</time>
      </trkpt>
      <trkpt lat="47.42944" lon="6.70798">
        <ele>445</ele>
        <time>2015-03-08T11:05:53.000Z</time>
      </trkpt>
      <trkpt lat="47.42945" lon="6.708">
        <ele>445</ele>
        <time>2015-03-08T11:05:54.000Z</time>
      </trkpt>
      <trkpt lat="47.42946" lon="6.70803">
        <ele>445</ele>
        <time>2015-03-08T11:05:55.000Z</time>
      </trkpt>
      <trkpt lat="47.42947" lon="6.70807">
        <ele>445</ele>
        <time>2015-03-08T11:05:56.000Z</time>
      </trkpt>
      <trkpt lat="47.42948" lon="6.7081">
        <ele>445</ele>
        <time>2015-03-08T11:05:57.000Z</time>
      </trkpt>
      <trkpt lat="47.42949" lon="6.70814">
        <ele>445</ele>
        <time>2015-03-08T11:05:58.000Z</time>
      </trkpt>
      <trkpt lat="47.4295" lon="6.70818">
        <ele>445</ele>
        <time>2015-03-08T11:05:59.000Z</time>
      </trkpt>
      <trkpt lat="47.42951" lon="6.70822">
        <ele>445</ele>
        <time>2015-03-08T11:06:00.000Z</time>
      </trkpt>
      <trkpt lat="47.42952" lon="6.70826">
        <ele>445</ele>
        <time>2015-03-08T11:06:01.000Z</time>
      </trkpt>
      <trkpt lat="47.42953" lon="6.70829">
        <ele>445</ele>
        <time>2015-03-08T11:06:02.000Z</time>
      </trkpt>
      <trkpt lat="47.42953" lon="6.70833">
        <ele>445</ele>
        <time>2015-03-08T11:06:03.000Z</time>
      </trkpt>
      <trkpt lat="47.42954" lon="6.70837">
        <ele>446</ele>
        <time>2015-03-08T11:06:04.000Z</time>
      </trkpt>
      <trkpt lat="47.42955" lon="6.70841">
        <ele>446</ele>
        <time>2015-03-08T11:06:05.000Z</time>
      </trkpt>
      <trkpt lat="47.42955" lon="6.70845">
        <ele>446</ele>
        <time>2015-03-08T11:06:06.000Z</time>
      </trkpt>
      <trkpt lat="47.42956" lon="6.70849">
        <ele>446</ele>
        <time>2015-03-08T11:06:07.000Z</time>
      </trkpt>
      <trkpt lat="47.42957" lon="6.70854">
        <ele>446</ele>
        <time>2015-03-08T11:06:08.000Z</time>
      </trkpt>
      <trkpt lat="47.42957" lon="6.70859">
        <ele>446</ele>
        <time>2015-03-08T11:06:09.000Z</time>
      </trkpt>
      <trkpt lat="47.42958" lon="6.70865">
        <ele>446</ele>
        <time>2015-03-08T11:06:10.000Z</time>
      </trkpt>
      <trkpt lat="47.42958" lon="6.7087">
        <ele>446</ele>
        <time>2015-03-08T11:06:11.000Z</time>
      </trkpt>
      <trkpt lat="47.42959" lon="6.70876">
        <ele>446</ele>
        <time>2015-03-08T11:06:12.000Z</time>
      </trkpt>
      <trkpt lat="47.4296" lon="6.70881">
        <ele>446</ele>
        <time>2015-03-08T11:06:13.000Z</time>
      </trkpt>
      <trkpt lat="47.42961" lon="6.70887">
        <ele>446</ele>
        <time>2015-03-08T11:06:14.000Z</time>
      </trkpt>
      <trkpt lat="47.42962" lon="6.70893">
        <ele>446</ele>
        <time>2015-03-08T11:06:15.000Z</time>
      </trkpt>
      <trkpt lat="47.42963" lon="6.70899">
        <ele>446</ele>
        <time>2015-03-08T11:06:16.000Z</time>
      </trkpt>
      <trkpt lat="47.42965" lon="6.70906">
        <ele>446</ele>
        <time>2015-03-08T11:06:17.000Z</time>
      </trkpt>
      <trkpt lat="47.42967" lon="6.70914">
        <ele>446</ele>
        <time>2015-03-08T11:06:18.000Z</time>
      </trkpt>
      <trkpt lat="47.42969" lon="6.7092">
        <ele>446</ele>
        <time>2015-03-08T11:06:19.000Z</time>
      </trkpt>
      <trkpt lat="47.42971" lon="6.70927">
        <ele>446</ele>
        <time>2015-03-08T11:06:20.000Z</time>
      </trkpt>
      <trkpt lat="47.42974" lon="6.70934">
        <ele>446</ele>
        <time>2015-03-08T11:06:21.000Z</time>
      </trkpt>
      <trkpt lat="47.42976" lon="6.70941">
        <ele>446</ele>
        <time>2015-03-08T11:06:22.000Z</time>
      </trkpt>
      <trkpt lat="47.42979" lon="6.70949">
        <ele>446</ele>
        <time>2015-03-08T11:06:23.000Z</time>
      </trkpt>
      <trkpt lat="47.42982" lon="6.70957">
        <ele>446</ele>
        <time>2015-03-08T11:06:24.000Z</time>
      </trkpt>
      <trkpt lat="47.42986" lon="6.70966">
        <ele>445</ele>
        <time>2015-03-08T11:06:25.000Z</time>
      </trkpt>
      <trkpt lat="47.42988" lon="6.70975">
        <ele>445</ele>
        <time>2015-03-08T11:06:26.000Z</time>
      </trkpt>
      <trkpt lat="47.42991" lon="6.70984">
        <ele>445</ele>
        <time>2015-03-08T11:06:27.000Z</time>
      </trkpt>
      <trkpt lat="47.42994" lon="6.70992">
        <ele>444</ele>
        <time>2015-03-08T11:06:28.000Z</time>
      </trkpt>
      <trkpt lat="47.42997" lon="6.71001">
        <ele>443</ele>
        <time>2015-03-08T11:06:29.000Z</time>
      </trkpt>
      <trkpt lat="47.43" lon="6.71009">
        <ele>444</ele>
        <time>2015-03-08T11:06:30.000Z</time>
      </trkpt>
      <trkpt lat="47.43003" lon="6.71017">
        <ele>443</ele>
        <time>2015-03-08T11:06:31.000Z</time>
      </trkpt>
      <trkpt lat="47.43006" lon="6.71025">
        <ele>443</ele>
        <time>2015-03-08T11:06:32.000Z</time>
      </trkpt>
      <trkpt lat="47.4301" lon="6.71034">
        <ele>443</ele>
        <time>2015-03-08T11:06:33.000Z</time>
      </trkpt>
      <trkpt lat="47.43013" lon="6.71041">
        <ele>443</ele>
        <time>2015-03-08T11:06:34.000Z</time>
      </trkpt>
      <trkpt lat="47.43016" lon="6.71049">
        <ele>442</ele>
        <time>2015-03-08T11:06:35.000Z</time>
      </trkpt>
      <trkpt lat="47.43018" lon="6.71056">
        <ele>442</ele>
        <time>2015-03-08T11:06:36.000Z</time>
      </trkpt>
      <trkpt lat="47.43021" lon="6.71064">
        <ele>442</ele>
        <time>2015-03-08T11:06:37.000Z</time>
      </trkpt>
      <trkpt lat="47.43024" lon="6.71069">
        <ele>442</ele>
        <time>2015-03-08T11:06:38.000Z</time>
      </trkpt>
      <trkpt lat="47.43027" lon="6.71077">
        <ele>442</ele>
        <time>2015-03-08T11:06:39.000Z</time>
      </trkpt>
      <trkpt lat="47.4303" lon="6.71084">
        <ele>443</ele>
        <time>2015-03-08T11:06:40.000Z</time>
      </trkpt>
      <trkpt lat="47.43033" lon="6.71089">
        <ele>443</ele>
        <time>2015-03-08T11:06:41.000Z</time>
      </trkpt>
      <trkpt lat="47.43036" lon="6.71095">
        <ele>444</ele>
        <time>2015-03-08T11:06:42.000Z</time>
      </trkpt>
      <trkpt lat="47.4304" lon="6.71101">
        <ele>444</ele>
        <time>2015-03-08T11:06:43.000Z</time>
      </trkpt>
      <trkpt lat="47.43043" lon="6.71107">
        <ele>444</ele>
        <time>2015-03-08T11:06:44.000Z</time>
      </trkpt>
      <trkpt lat="47.43046" lon="6.71112">
        <ele>444</ele>
        <time>2015-03-08T11:06:45.000Z</time>
      </trkpt>
      <trkpt lat="47.43049" lon="6.71118">
        <ele>444</ele>
        <time>2015-03-08T11:06:46.000Z</time>
      </trkpt>
      <trkpt lat="47.43052" lon="6.71121">
        <ele>444</ele>
        <time>2015-03-08T11:06:47.000Z</time>
      </trkpt>
      <trkpt lat="47.43055" lon="6.71127">
        <ele>444</ele>
        <time>2015-03-08T11:06:48.000Z</time>
      </trkpt>
      <trkpt lat="47.43057" lon="6.71131">
        <ele>444</ele>
        <time>2015-03-08T11:06:49.000Z</time>
      </trkpt>
      <trkpt lat="47.4306" lon="6.71137">
        <ele>445</ele>
        <time>2015-03-08T11:06:50.000Z</time>
      </trkpt>
      <trkpt lat="47.43065" lon="6.71141">
        <ele>445</ele>
        <time>2015-03-08T11:06:51.000Z</time>
      </trkpt>
      <trkpt lat="47.43069" lon="6.71145">
        <ele>445</ele>
        <time>2015-03-08T11:06:52.000Z</time>
      </trkpt>
      <trkpt lat="47.43073" lon="6.71148">
        <ele>445</ele>
        <time>2015-03-08T11:06:53.000Z</time>
      </trkpt>
      <trkpt lat="47.43076" lon="6.71151">
        <ele>446</ele>
        <time>2015-03-08T11:06:54.000Z</time>
      </trkpt>
      <trkpt lat="47.4308" lon="6.71156">
        <ele>446</ele>
        <time>2015-03-08T11:06:55.000Z</time>
      </trkpt>
      <trkpt lat="47.43084" lon="6.71161">
        <ele>446</ele>
        <time>2015-03-08T11:06:56.000Z</time>
      </trkpt>
      <trkpt lat="47.43086" lon="6.71165">
        <ele>447</ele>
        <time>2015-03-08T11:06:57.000Z</time>
      </trkpt>
      <trkpt lat="47.43089" lon="6.71168">
        <ele>447</ele>
        <time>2015-03-08T11:06:58.000Z</time>
      </trkpt>
      <trkpt lat="47.43092" lon="6.71174">
        <ele>447</ele>
        <time>2015-03-08T11:06:59.000Z</time>
      </trkpt>
      <trkpt lat="47.43095" lon="6.71178">
        <ele>447</ele>
        <time>2015-03-08T11:07:00.000Z</time>
      </trkpt>
      <trkpt lat="47.43098" lon="6.71182">
        <ele>448</ele>
        <time>2015-03-08T11:07:01.000Z</time>
      </trkpt>
      <trkpt lat="47.43101" lon="6.71186">
        <ele>448</ele>
        <time>2015-03-08T11:07:02.000Z</time>
      </trkpt>
      <trkpt lat="47.43103" lon="6.7119">
        <ele>448</ele>
        <time>2015-03-08T11:07:03.000Z</time>
      </trkpt>
      <trkpt lat="47.43106" lon="6.71193">
        <ele>448</ele>
        <time>2015-03-08T11:07:04.000Z</time>
      </trkpt>
      <trkpt lat="47.43109" lon="6.71196">
        <ele>448</ele>
        <time>2015-03-08T11:07:05.000Z</time>
      </trkpt>
      <trkpt lat="47.43112" lon="6.71199">
        <ele>448</ele>
        <time>2015-03-08T11:07:06.000Z</time>
      </trkpt>
      <trkpt lat="47.43115" lon="6.71201">
        <ele>448</ele>
        <time>2015-03-08T11:07:07.000Z</time>
      </trkpt>
      <trkpt lat="47.43119" lon="6.71203">
        <ele>448</ele>
        <time>2015-03-08T11:07:08.000Z</time>
      </trkpt>
      <trkpt lat="47.43121" lon="6.71206">
        <ele>448</ele>
        <time>2015-03-08T11:07:09.000Z</time>
      </trkpt>
      <trkpt lat="47.43123" lon="6.71209">
        <ele>448</ele>
        <time>2015-03-08T11:07:10.000Z</time>
      </trkpt>
      <trkpt lat="47.43126" lon="6.71212">
        <ele>448</ele>
        <time>2015-03-08T11:07:11.000Z</time>
      </trkpt>
      <trkpt lat="47.43129" lon="6.71215">
        <ele>448</ele>
        <time>2015-03-08T11:07:12.000Z</time>
      </trkpt>
      <trkpt lat="47.43132" lon="6.71218">
        <ele>448</ele>
        <time>2015-03-08T11:07:13.000Z</time>
      </trkpt>
      <trkpt lat="47.43134" lon="6.71221">
        <ele>448</ele>
        <time>2015-03-08T11:07:14.000Z</time>
      </trkpt>
      <trkpt lat="47.43136" lon="6.71225">
        <ele>448</ele>
        <time>2015-03-08T11:07:15.000Z</time>
      </trkpt>
      <trkpt lat="47.43138" lon="6.71228">
        <ele>448</ele>
        <time>2015-03-08T11:07:15.999Z</time>
      </trkpt>
      <trkpt lat="47.43139" lon="6.71232">
        <ele>448</ele>
        <time>2015-03-08T11:07:17.000Z</time>
      </trkpt>
      <trkpt lat="47.43141" lon="6.71234">
        <ele>448</ele>
        <time>2015-03-08T11:07:18.000Z</time>
      </trkpt>
      <trkpt lat="47.43143" lon="6.71237">
        <ele>448</ele>
        <time>2015-03-08T11:07:19.000Z</time>
      </trkpt>
      <trkpt lat="47.43145" lon="6.71239">
        <ele>448</ele>
        <time>2015-03-08T11:07:20.000Z</time>
      </trkpt>
      <trkpt lat="47.43147" lon="6.71242">
        <ele>449</ele>
        <time>2015-03-08T11:07:21.000Z</time>
      </trkpt>
      <trkpt lat="47.43149" lon="6.71246">
        <ele>449</ele>
        <time>2015-03-08T11:07:22.000Z</time>
      </trkpt>
      <trkpt lat="47.43151" lon="6.7125">
        <ele>449</ele>
        <time>2015-03-08T11:07:23.000Z</time>
      </trkpt>
      <trkpt lat="47.43153" lon="6.71254">
        <ele>450</ele>
        <time>2015-03-08T11:07:24.000Z</time>
      </trkpt>
      <trkpt lat="47.43155" lon="6.71258">
        <ele>450</ele>
        <time>2015-03-08T11:07:25.000Z</time>
      </trkpt>
      <trkpt lat="47.43158" lon="6.71262">
        <ele>451</ele>
        <time>2015-03-08T11:07:26.000Z</time>
      </trkpt>
      <trkpt lat="47.4316" lon="6.71265">
        <ele>451</ele>
        <time>2015-03-08T11:07:27.000Z</time>
      </trkpt>
      <trkpt lat="47.43163" lon="6.71267">
        <ele>451</ele>
        <time>2015-03-08T11:07:28.000Z</time>
      </trkpt>
      <trkpt lat="47.43167" lon="6.71268">
        <ele>451</ele>
        <time>2015-03-08T11:07:29.000Z</time>
      </trkpt>
      <trkpt lat="47.4317" lon="6.71269">
        <ele>450</ele>
        <time>2015-03-08T11:07:30.000Z</time>
      </trkpt>
      <trkpt lat="47.43173" lon="6.7127">
        <ele>450</ele>
        <time>2015-03-08T11:07:31.000Z</time>
      </trkpt>
      <trkpt lat="47.43175" lon="6.71272">
        <ele>450</ele>
        <time>2015-03-08T11:07:32.000Z</time>
      </trkpt>
      <trkpt lat="47.43178" lon="6.71276">
        <ele>450</ele>
        <time>2015-03-08T11:07:33.000Z</time>
      </trkpt>
      <trkpt lat="47.4318" lon="6.71281">
        <ele>450</ele>
        <time>2015-03-08T11:07:34.000Z</time>
      </trkpt>
      <trkpt lat="47.43182" lon="6.71286">
        <ele>450</ele>
        <time>2015-03-08T11:07:35.000Z</time>
      </trkpt>
      <trkpt lat="47.43184" lon="6.71292">
        <ele>451</ele>
        <time>2015-03-08T11:07:36.000Z</time>
      </trkpt>
      <trkpt lat="47.43186" lon="6.71298">
        <ele>451</ele>
        <time>2015-03-08T11:07:37.000Z</time>
      </trkpt>
      <trkpt lat="47.43187" lon="6.71304">
        <ele>451</ele>
        <time>2015-03-08T11:07:38.000Z</time>
      </trkpt>
      <trkpt lat="47.43189" lon="6.7131">
        <ele>451</ele>
        <time>2015-03-08T11:07:39.000Z</time>
      </trkpt>
      <trkpt lat="47.43191" lon="6.71314">
        <ele>451</ele>
        <time>2015-03-08T11:07:40.000Z</time>
      </trkpt>
      <trkpt lat="47.43192" lon="6.71319">
        <ele>451</ele>
        <time>2015-03-08T11:07:41.000Z</time>
      </trkpt>
      <trkpt lat="47.43194" lon="6.71324">
        <ele>452</ele>
        <time>2015-03-08T11:07:42.000Z</time>
      </trkpt>
      <trkpt lat="47.43197" lon="6.71329">
        <ele>452</ele>
        <time>2015-03-08T11:07:43.000Z</time>
      </trkpt>
      <trkpt lat="47.43199" lon="6.71334">
        <ele>454</ele>
        <time>2015-03-08T11:07:44.000Z</time>
      </trkpt>
      <trkpt lat="47.43201" lon="6.71339">
        <ele>454</ele>
        <time>2015-03-08T11:07:45.000Z</time>
      </trkpt>
      <trkpt lat="47.43203" lon="6.71344">
        <ele>454</ele>
        <time>2015-03-08T11:07:46.000Z</time>
      </trkpt>
      <trkpt lat="47.43205" lon="6.71349">
        <ele>454</ele>
        <time>2015-03-08T11:07:47.000Z</time>
      </trkpt>
      <trkpt lat="47.43207" lon="6.71354">
        <ele>454</ele>
        <time>2015-03-08T11:07:48.000Z</time>
      </trkpt>
      <trkpt lat="47.4321" lon="6.71361">
        <ele>454</ele>
        <time>2015-03-08T11:07:49.000Z</time>
      </trkpt>
      <trkpt lat="47.43211" lon="6.71366">
        <ele>454</ele>
        <time>2015-03-08T11:07:50.000Z</time>
      </trkpt>
      <trkpt lat="47.43213" lon="6.71372">
        <ele>454</ele>
        <time>2015-03-08T11:07:51.000Z</time>
      </trkpt>
      <trkpt lat="47.43214" lon="6.71377">
        <ele>454</ele>
        <time>2015-03-08T11:07:52.000Z</time>
      </trkpt>
      <trkpt lat="47.43215" lon="6.71382">
        <ele>454</ele>
        <time>2015-03-08T11:07:53.000Z</time>
      </trkpt>
      <trkpt lat="47.43217" lon="6.71388">
        <ele>454</ele>
        <time>2015-03-08T11:07:54.000Z</time>
      </trkpt>
      <trkpt lat="47.43219" lon="6.71393">
        <ele>454</ele>
        <time>2015-03-08T11:07:55.000Z</time>
      </trkpt>
      <trkpt lat="47.43221" lon="6.71398">
        <ele>454</ele>
        <time>2015-03-08T11:07:56.000Z</time>
      </trkpt>
      <trkpt lat="47.43224" lon="6.71404">
        <ele>454</ele>
        <time>2015-03-08T11:07:57.000Z</time>
      </trkpt>
      <trkpt lat="47.43226" lon="6.71409">
        <ele>454</ele>
        <time>2015-03-08T11:07:58.000Z</time>
      </trkpt>
      <trkpt lat="47.43227" lon="6.71415">
        <ele>454</ele>
        <time>2015-03-08T11:07:59.000Z</time>
      </trkpt>
      <trkpt lat="47.43229" lon="6.71421">
        <ele>454</ele>
        <time>2015-03-08T11:08:00.000Z</time>
      </trkpt>
      <trkpt lat="47.4323" lon="6.71426">
        <ele>454</ele>
        <time>2015-03-08T11:08:01.000Z</time>
      </trkpt>
      <trkpt lat="47.43232" lon="6.71431">
        <ele>454</ele>
        <time>2015-03-08T11:08:02.000Z</time>
      </trkpt>
      <trkpt lat="47.43234" lon="6.71436">
        <ele>455</ele>
        <time>2015-03-08T11:08:03.000Z</time>
      </trkpt>
      <trkpt lat="47.43236" lon="6.7144">
        <ele>455</ele>
        <time>2015-03-08T11:08:04.000Z</time>
      </trkpt>
      <trkpt lat="47.43238" lon="6.71445">
        <ele>455</ele>
        <time>2015-03-08T11:08:05.000Z</time>
      </trkpt>
      <trkpt lat="47.4324" lon="6.71449">
        <ele>455</ele>
        <time>2015-03-08T11:08:06.000Z</time>
      </trkpt>
      <trkpt lat="47.43245" lon="6.71452">
        <ele>455</ele>
        <time>2015-03-08T11:08:07.000Z</time>
      </trkpt>
      <trkpt lat="47.43248" lon="6.71456">
        <ele>455</ele>
        <time>2015-03-08T11:08:08.000Z</time>
      </trkpt>
      <trkpt lat="47.43251" lon="6.7146">
        <ele>453</ele>
        <time>2015-03-08T11:08:09.000Z</time>
      </trkpt>
      <trkpt lat="47.43254" lon="6.71463">
        <ele>453</ele>
        <time>2015-03-08T11:08:10.000Z</time>
      </trkpt>
      <trkpt lat="47.43257" lon="6.71467">
        <ele>453</ele>
        <time>2015-03-08T11:08:11.000Z</time>
      </trkpt>
      <trkpt lat="47.4326" lon="6.71471">
        <ele>453</ele>
        <time>2015-03-08T11:08:12.000Z</time>
      </trkpt>
      <trkpt lat="47.43263" lon="6.71475">
        <ele>453</ele>
        <time>2015-03-08T11:08:13.000Z</time>
      </trkpt>
      <trkpt lat="47.43267" lon="6.71481">
        <ele>453</ele>
        <time>2015-03-08T11:08:14.000Z</time>
      </trkpt>
      <trkpt lat="47.4327" lon="6.71486">
        <ele>453</ele>
        <time>2015-03-08T11:08:15.000Z</time>
      </trkpt>
      <trkpt lat="47.43274" lon="6.71494">
        <ele>453</ele>
        <time>2015-03-08T11:08:16.000Z</time>
      </trkpt>
      <trkpt lat="47.43278" lon="6.715">
        <ele>453</ele>
        <time>2015-03-08T11:08:17.000Z</time>
      </trkpt>
      <trkpt lat="47.43283" lon="6.71508">
        <ele>453</ele>
        <time>2015-03-08T11:08:18.000Z</time>
      </trkpt>
      <trkpt lat="47.43289" lon="6.71516">
        <ele>453</ele>
        <time>2015-03-08T11:08:19.000Z</time>
      </trkpt>
      <trkpt lat="47.43295" lon="6.71524">
        <ele>452</ele>
        <time>2015-03-08T11:08:20.000Z</time>
      </trkpt>
      <trkpt lat="47.433" lon="6.71532">
        <ele>452</ele>
        <time>2015-03-08T11:08:20.999Z</time>
      </trkpt>
      <trkpt lat="47.43306" lon="6.71538">
        <ele>452</ele>
        <time>2015-03-08T11:08:22.000Z</time>
      </trkpt>
      <trkpt lat="47.43312" lon="6.71545">
        <ele>452</ele>
        <time>2015-03-08T11:08:23.000Z</time>
      </trkpt>
      <trkpt lat="47.43318" lon="6.71553">
        <ele>451</ele>
        <time>2015-03-08T11:08:24.000Z</time>
      </trkpt>
      <trkpt lat="47.43324" lon="6.71562">
        <ele>451</ele>
        <time>2015-03-08T11:08:25.000Z</time>
      </trkpt>
      <trkpt lat="47.4333" lon="6.7157">
        <ele>450</ele>
        <time>2015-03-08T11:08:26.000Z</time>
      </trkpt>
      <trkpt lat="47.43337" lon="6.71579">
        <ele>448</ele>
        <time>2015-03-08T11:08:27.000Z</time>
      </trkpt>
      <trkpt lat="47.43342" lon="6.71586">
        <ele>448</ele>
        <time>2015-03-08T11:08:28.000Z</time>
      </trkpt>
      <trkpt lat="47.43348" lon="6.71594">
        <ele>447</ele>
        <time>2015-03-08T11:08:29.000Z</time>
      </trkpt>
      <trkpt lat="47.43353" lon="6.71602">
        <ele>447</ele>
        <time>2015-03-08T11:08:30.000Z</time>
      </trkpt>
      <trkpt lat="47.43358" lon="6.7161">
        <ele>447</ele>
        <time>2015-03-08T11:08:31.000Z</time>
      </trkpt>
      <trkpt lat="47.43364" lon="6.71619">
        <ele>447</ele>
        <time>2015-03-08T11:08:32.000Z</time>
      </trkpt>
      <trkpt lat="47.4337" lon="6.71625">
        <ele>447</ele>
        <time>2015-03-08T11:08:33.000Z</time>
      </trkpt>
      <trkpt lat="47.43374" lon="6.71635">
        <ele>447</ele>
        <time>2015-03-08T11:08:34.000Z</time>
      </trkpt>
      <trkpt lat="47.4338" lon="6.71643">
        <ele>446</ele>
        <time>2015-03-08T11:08:35.000Z</time>
      </trkpt>
      <trkpt lat="47.43386" lon="6.71652">
        <ele>446</ele>
        <time>2015-03-08T11:08:36.000Z</time>
      </trkpt>
      <trkpt lat="47.43392" lon="6.71661">
        <ele>446</ele>
        <time>2015-03-08T11:08:37.000Z</time>
      </trkpt>
      <trkpt lat="47.43397" lon="6.7167">
        <ele>446</ele>
        <time>2015-03-08T11:08:38.000Z</time>
      </trkpt>
      <trkpt lat="47.43401" lon="6.71678">
        <ele>446</ele>
        <time>2015-03-08T11:08:39.000Z</time>
      </trkpt>
      <trkpt lat="47.43407" lon="6.71685">
        <ele>446</ele>
        <time>2015-03-08T11:08:40.000Z</time>
      </trkpt>
      <trkpt lat="47.43413" lon="6.71694">
        <ele>446</ele>
        <time>2015-03-08T11:08:41.000Z</time>
      </trkpt>
      <trkpt lat="47.43419" lon="6.71703">
        <ele>443</ele>
        <time>2015-03-08T11:08:42.000Z</time>
      </trkpt>
      <trkpt lat="47.43424" lon="6.71712">
        <ele>443</ele>
        <time>2015-03-08T11:08:43.000Z</time>
      </trkpt>
      <trkpt lat="47.43429" lon="6.71722">
        <ele>443</ele>
        <time>2015-03-08T11:08:44.000Z</time>
      </trkpt>
      <trkpt lat="47.43433" lon="6.71732">
        <ele>443</ele>
        <time>2015-03-08T11:08:45.000Z</time>
      </trkpt>
      <trkpt lat="47.43437" lon="6.71741">
        <ele>443</ele>
        <time>2015-03-08T11:08:46.000Z</time>
      </trkpt>
      <trkpt lat="47.4344" lon="6.7175">
        <ele>444</ele>
        <time>2015-03-08T11:08:47.000Z</time>
      </trkpt>
      <trkpt lat="47.43443" lon="6.71759">
        <ele>444</ele>
        <time>2015-03-08T11:08:48.000Z</time>
      </trkpt>
      <trkpt lat="47.43445" lon="6.71768">
        <ele>444</ele>
        <time>2015-03-08T11:08:49.000Z</time>
      </trkpt>
      <trkpt lat="47.43448" lon="6.71778">
        <ele>444</ele>
        <time>2015-03-08T11:08:50.000Z</time>
      </trkpt>
      <trkpt lat="47.43451" lon="6.71788">
        <ele>444</ele>
        <time>2015-03-08T11:08:51.000Z</time>
      </trkpt>
      <trkpt lat="47.43454" lon="6.71799">
        <ele>444</ele>
        <time>2015-03-08T11:08:52.000Z</time>
      </trkpt>
      <trkpt lat="47.43456" lon="6.71808">
        <ele>444</ele>
        <time>2015-03-08T11:08:53.000Z</time>
      </trkpt>
      <trkpt lat="47.43459" lon="6.71817">
        <ele>444</ele>
        <time>2015-03-08T11:08:54.000Z</time>
      </trkpt>
      <trkpt lat="47.43461" lon="6.71825">
        <ele>444</ele>
        <time>2015-03-08T11:08:55.000Z</time>
      </trkpt>
      <trkpt lat="47.43463" lon="6.71834">
        <ele>446</ele>
        <time>2015-03-08T11:08:56.000Z</time>
      </trkpt>
      <trkpt lat="47.43465" lon="6.71842">
        <ele>446</ele>
        <time>2015-03-08T11:08:57.000Z</time>
      </trkpt>
      <trkpt lat="47.43466" lon="6.7185">
        <ele>446</ele>
        <time>2015-03-08T11:08:58.000Z</time>
      </trkpt>
      <trkpt lat="47.43469" lon="6.71857">
        <ele>446</ele>
        <time>2015-03-08T11:08:59.000Z</time>
      </trkpt>
      <trkpt lat="47.4347" lon="6.71864">
        <ele>446</ele>
        <time>2015-03-08T11:09:00.000Z</time>
      </trkpt>
      <trkpt lat="47.43471" lon="6.7187">
        <ele>447</ele>
        <time>2015-03-08T11:09:01.000Z</time>
      </trkpt>
      <trkpt lat="47.43473" lon="6.71877">
        <ele>447</ele>
        <time>2015-03-08T11:09:02.000Z</time>
      </trkpt>
      <trkpt lat="47.43475" lon="6.71884">
        <ele>447</ele>
        <time>2015-03-08T11:09:03.000Z</time>
      </trkpt>
      <trkpt lat="47.43477" lon="6.7189">
        <ele>447</ele>
        <time>2015-03-08T11:09:04.000Z</time>
      </trkpt>
      <trkpt lat="47.43478" lon="6.71898">
        <ele>447</ele>
        <time>2015-03-08T11:09:05.000Z</time>
      </trkpt>
      <trkpt lat="47.4348" lon="6.71906">
        <ele>447</ele>
        <time>2015-03-08T11:09:06.000Z</time>
      </trkpt>
      <trkpt lat="47.43482" lon="6.71913">
        <ele>447</ele>
        <time>2015-03-08T11:09:07.000Z</time>
      </trkpt>
      <trkpt lat="47.43483" lon="6.71919">
        <ele>449</ele>
        <time>2015-03-08T11:09:08.000Z</time>
      </trkpt>
      <trkpt lat="47.43485" lon="6.71926">
        <ele>449</ele>
        <time>2015-03-08T11:09:09.000Z</time>
      </trkpt>
      <trkpt lat="47.43487" lon="6.71932">
        <ele>449</ele>
        <time>2015-03-08T11:09:10.000Z</time>
      </trkpt>
      <trkpt lat="47.43488" lon="6.7194">
        <ele>450</ele>
        <time>2015-03-08T11:09:11.000Z</time>
      </trkpt>
      <trkpt lat="47.4349" lon="6.71946">
        <ele>450</ele>
        <time>2015-03-08T11:09:12.000Z</time>
      </trkpt>
      <trkpt lat="47.43493" lon="6.71953">
        <ele>450</ele>
        <time>2015-03-08T11:09:13.000Z</time>
      </trkpt>
      <trkpt lat="47.43494" lon="6.71959">
        <ele>450</ele>
        <time>2015-03-08T11:09:14.000Z</time>
      </trkpt>
      <trkpt lat="47.43496" lon="6.71967">
        <ele>451</ele>
        <time>2015-03-08T11:09:15.000Z</time>
      </trkpt>
      <trkpt lat="47.43498" lon="6.71974">
        <ele>451</ele>
        <time>2015-03-08T11:09:16.000Z</time>
      </trkpt>
      <trkpt lat="47.435" lon="6.71982">
        <ele>451</ele>
        <time>2015-03-08T11:09:17.000Z</time>
      </trkpt>
      <trkpt lat="47.435" lon="6.71987">
        <ele>450</ele>
        <time>2015-03-08T11:09:18.000Z</time>
      </trkpt>
      <trkpt lat="47.43501" lon="6.71993">
        <ele>450</ele>
        <time>2015-03-08T11:09:19.000Z</time>
      </trkpt>
      <trkpt lat="47.43503" lon="6.71998">
        <ele>451</ele>
        <time>2015-03-08T11:09:20.000Z</time>
      </trkpt>
      <trkpt lat="47.43504" lon="6.72004">
        <ele>451</ele>
        <time>2015-03-08T11:09:21.000Z</time>
      </trkpt>
      <trkpt lat="47.43505" lon="6.72009">
        <ele>451</ele>
        <time>2015-03-08T11:09:22.000Z</time>
      </trkpt>
      <trkpt lat="47.43507" lon="6.72014">
        <ele>451</ele>
        <time>2015-03-08T11:09:23.000Z</time>
      </trkpt>
      <trkpt lat="47.43508" lon="6.72019">
        <ele>451</ele>
        <time>2015-03-08T11:09:24.000Z</time>
      </trkpt>
      <trkpt lat="47.4351" lon="6.72024">
        <ele>451</ele>
        <time>2015-03-08T11:09:25.000Z</time>
      </trkpt>
      <trkpt lat="47.43511" lon="6.72029">
        <ele>451</ele>
        <time>2015-03-08T11:09:26.000Z</time>
      </trkpt>
      <trkpt lat="47.43513" lon="6.72036">
        <ele>451</ele>
        <time>2015-03-08T11:09:27.000Z</time>
      </trkpt>
      <trkpt lat="47.43515" lon="6.72041">
        <ele>451</ele>
        <time>2015-03-08T11:09:28.000Z</time>
      </trkpt>
      <trkpt lat="47.43517" lon="6.72046">
        <ele>452</ele>
        <time>2015-03-08T11:09:29.000Z</time>
      </trkpt>
      <trkpt lat="47.43519" lon="6.72052">
        <ele>452</ele>
        <time>2015-03-08T11:09:30.000Z</time>
      </trkpt>
      <trkpt lat="47.43522" lon="6.72056">
        <ele>452</ele>
        <time>2015-03-08T11:09:31.000Z</time>
      </trkpt>
      <trkpt lat="47.43524" lon="6.72061">
        <ele>452</ele>
        <time>2015-03-08T11:09:32.000Z</time>
      </trkpt>
      <trkpt lat="47.43526" lon="6.72067">
        <ele>452</ele>
        <time>2015-03-08T11:09:33.000Z</time>
      </trkpt>
      <trkpt lat="47.43528" lon="6.72072">
        <ele>452</ele>
        <time>2015-03-08T11:09:34.000Z</time>
      </trkpt>
      <trkpt lat="47.4353" lon="6.72078">
        <ele>452</ele>
        <time>2015-03-08T11:09:35.000Z</time>
      </trkpt>
      <trkpt lat="47.43531" lon="6.72084">
        <ele>454</ele>
        <time>2015-03-08T11:09:36.000Z</time>
      </trkpt>
      <trkpt lat="47.43533" lon="6.7209">
        <ele>454</ele>
        <time>2015-03-08T11:09:37.000Z</time>
      </trkpt>
      <trkpt lat="47.43535" lon="6.72095">
        <ele>454</ele>
        <time>2015-03-08T11:09:38.000Z</time>
      </trkpt>
      <trkpt lat="47.43537" lon="6.72099">
        <ele>454</ele>
        <time>2015-03-08T11:09:39.000Z</time>
      </trkpt>
      <trkpt lat="47.4354" lon="6.72103">
        <ele>454</ele>
        <time>2015-03-08T11:09:40.001Z</time>
      </trkpt>
      <trkpt lat="47.43542" lon="6.72107">
        <ele>454</ele>
        <time>2015-03-08T11:09:41.000Z</time>
      </trkpt>
      <trkpt lat="47.43544" lon="6.72111">
        <ele>454</ele>
        <time>2015-03-08T11:09:42.000Z</time>
      </trkpt>
      <trkpt lat="47.43546" lon="6.72115">
        <ele>454</ele>
        <time>2015-03-08T11:09:43.000Z</time>
      </trkpt>
      <trkpt lat="47.43548" lon="6.7212">
        <ele>454</ele>
        <time>2015-03-08T11:09:44.000Z</time>
      </trkpt>
      <trkpt lat="47.43551" lon="6.72126">
        <ele>454</ele>
        <time>2015-03-08T11:09:45.000Z</time>
      </trkpt>
      <trkpt lat="47.43553" lon="6.72132">
        <ele>454</ele>
        <time>2015-03-08T11:09:46.000Z</time>
      </trkpt>
      <trkpt lat="47.43555" lon="6.72137">
        <ele>454</ele>
        <time>2015-03-08T11:09:47.000Z</time>
      </trkpt>
      <trkpt lat="47.43557" lon="6.72142">
        <ele>454</ele>
        <time>2015-03-08T11:09:48.000Z</time>
      </trkpt>
      <trkpt lat="47.43558" lon="6.72147">
        <ele>454</ele>
        <time>2015-03-08T11:09:49.000Z</time>
      </trkpt>
      <trkpt lat="47.4356" lon="6.72152">
        <ele>455</ele>
        <time>2015-03-08T11:09:50.000Z</time>
      </trkpt>
      <trkpt lat="47.43562" lon="6.72157">
        <ele>455</ele>
        <time>2015-03-08T11:09:51.000Z</time>
      </trkpt>
      <trkpt lat="47.43564" lon="6.72162">
        <ele>455</ele>
        <time>2015-03-08T11:09:52.000Z</time>
      </trkpt>
      <trkpt lat="47.43565" lon="6.72167">
        <ele>457</ele>
        <time>2015-03-08T11:09:53.000Z</time>
      </trkpt>
      <trkpt lat="47.43568" lon="6.72172">
        <ele>457</ele>
        <time>2015-03-08T11:09:54.000Z</time>
      </trkpt>
      <trkpt lat="47.4357" lon="6.72177">
        <ele>457</ele>
        <time>2015-03-08T11:09:55.000Z</time>
      </trkpt>
      <trkpt lat="47.43573" lon="6.72181">
        <ele>457</ele>
        <time>2015-03-08T11:09:56.000Z</time>
      </trkpt>
      <trkpt lat="47.43575" lon="6.72186">
        <ele>457</ele>
        <time>2015-03-08T11:09:57.000Z</time>
      </trkpt>
      <trkpt lat="47.43577" lon="6.72191">
        <ele>457</ele>
        <time>2015-03-08T11:09:58.000Z</time>
      </trkpt>
      <trkpt lat="47.43579" lon="6.72196">
        <ele>458</ele>
        <time>2015-03-08T11:09:59.000Z</time>
      </trkpt>
      <trkpt lat="47.4358" lon="6.72201">
        <ele>458</ele>
        <time>2015-03-08T11:10:00.000Z</time>
      </trkpt>
      <trkpt lat="47.43582" lon="6.72206">
        <ele>458</ele>
        <time>2015-03-08T11:10:01.000Z</time>
      </trkpt>
      <trkpt lat="47.43584" lon="6.72211">
        <ele>457</ele>
        <time>2015-03-08T11:10:02.000Z</time>
      </trkpt>
      <trkpt lat="47.43586" lon="6.72216">
        <ele>458</ele>
        <time>2015-03-08T11:10:03.000Z</time>
      </trkpt>
      <trkpt lat="47.43588" lon="6.72221">
        <ele>458</ele>
        <time>2015-03-08T11:10:04.000Z</time>
      </trkpt>
      <trkpt lat="47.4359" lon="6.72225">
        <ele>458</ele>
        <time>2015-03-08T11:10:05.000Z</time>
      </trkpt>
      <trkpt lat="47.43593" lon="6.72229">
        <ele>458</ele>
        <time>2015-03-08T11:10:06.000Z</time>
      </trkpt>
      <trkpt lat="47.43595" lon="6.72233">
        <ele>458</ele>
        <time>2015-03-08T11:10:07.000Z</time>
      </trkpt>
      <trkpt lat="47.43597" lon="6.72237">
        <ele>458</ele>
        <time>2015-03-08T11:10:08.000Z</time>
      </trkpt>
      <trkpt lat="47.43599" lon="6.7224">
        <ele>459</ele>
        <time>2015-03-08T11:10:09.000Z</time>
      </trkpt>
      <trkpt lat="47.43601" lon="6.72244">
        <ele>459</ele>
        <time>2015-03-08T11:10:10.000Z</time>
      </trkpt>
      <trkpt lat="47.43603" lon="6.72248">
        <ele>459</ele>
        <time>2015-03-08T11:10:11.000Z</time>
      </trkpt>
      <trkpt lat="47.43606" lon="6.72252">
        <ele>460</ele>
        <time>2015-03-08T11:10:12.000Z</time>
      </trkpt>
      <trkpt lat="47.43608" lon="6.72256">
        <ele>460</ele>
        <time>2015-03-08T11:10:13.000Z</time>
      </trkpt>
      <trkpt lat="47.43611" lon="6.7226">
        <ele>461</ele>
        <time>2015-03-08T11:10:14.000Z</time>
      </trkpt>
      <trkpt lat="47.43613" lon="6.72264">
        <ele>461</ele>
        <time>2015-03-08T11:10:15.000Z</time>
      </trkpt>
      <trkpt lat="47.43615" lon="6.72268">
        <ele>461</ele>
        <time>2015-03-08T11:10:16.000Z</time>
      </trkpt>
      <trkpt lat="47.43618" lon="6.72271">
        <ele>461</ele>
        <time>2015-03-08T11:10:17.000Z</time>
      </trkpt>
      <trkpt lat="47.4362" lon="6.72275">
        <ele>461</ele>
        <time>2015-03-08T11:10:18.000Z</time>
      </trkpt>
      <trkpt lat="47.43622" lon="6.72279">
        <ele>461</ele>
        <time>2015-03-08T11:10:19.000Z</time>
      </trkpt>
      <trkpt lat="47.43625" lon="6.72283">
        <ele>461</ele>
        <time>2015-03-08T11:10:20.000Z</time>
      </trkpt>
      <trkpt lat="47.43628" lon="6.72287">
        <ele>461</ele>
        <time>2015-03-08T11:10:21.000Z</time>
      </trkpt>
      <trkpt lat="47.4363" lon="6.72291">
        <ele>461</ele>
        <time>2015-03-08T11:10:22.000Z</time>
      </trkpt>
      <trkpt lat="47.43633" lon="6.72295">
        <ele>461</ele>
        <time>2015-03-08T11:10:23.000Z</time>
      </trkpt>
      <trkpt lat="47.43636" lon="6.723">
        <ele>461</ele>
        <time>2015-03-08T11:10:24.000Z</time>
      </trkpt>
      <trkpt lat="47.43638" lon="6.72305">
        <ele>461</ele>
        <time>2015-03-08T11:10:25.000Z</time>
      </trkpt>
      <trkpt lat="47.43641" lon="6.72309">
        <ele>461</ele>
        <time>2015-03-08T11:10:26.000Z</time>
      </trkpt>
      <trkpt lat="47.43644" lon="6.72314">
        <ele>461</ele>
        <time>2015-03-08T11:10:27.000Z</time>
      </trkpt>
      <trkpt lat="47.43646" lon="6.72319">
        <ele>461</ele>
        <time>2015-03-08T11:10:28.000Z</time>
      </trkpt>
      <trkpt lat="47.43649" lon="6.72324">
        <ele>461</ele>
        <time>2015-03-08T11:10:29.000Z</time>
      </trkpt>
      <trkpt lat="47.43652" lon="6.72329">
        <ele>461</ele>
        <time>2015-03-08T11:10:30.000Z</time>
      </trkpt>
      <trkpt lat="47.43654" lon="6.72333">
        <ele>461</ele>
        <time>2015-03-08T11:10:31.000Z</time>
      </trkpt>
      <trkpt lat="47.43657" lon="6.72338">
        <ele>462</ele>
        <time>2015-03-08T11:10:32.000Z</time>
      </trkpt>
      <trkpt lat="47.43659" lon="6.72342">
        <ele>462</ele>
        <time>2015-03-08T11:10:33.000Z</time>
      </trkpt>
      <trkpt lat="47.43662" lon="6.72346">
        <ele>462</ele>
        <time>2015-03-08T11:10:34.000Z</time>
      </trkpt>
      <trkpt lat="47.43665" lon="6.72349">
        <ele>462</ele>
        <time>2015-03-08T11:10:35.000Z</time>
      </trkpt>
      <trkpt lat="47.43668" lon="6.7235">
        <ele>461</ele>
        <time>2015-03-08T11:10:36.000Z</time>
      </trkpt>
      <trkpt lat="47.43672" lon="6.7235">
        <ele>461</ele>
        <time>2015-03-08T11:10:37.000Z</time>
      </trkpt>
      <trkpt lat="47.43676" lon="6.72349">
        <ele>461</ele>
        <time>2015-03-08T11:10:38.000Z</time>
      </trkpt>
      <trkpt lat="47.4368" lon="6.72347">
        <ele>461</ele>
        <time>2015-03-08T11:10:39.000Z</time>
      </trkpt>
      <trkpt lat="47.43684" lon="6.72344">
        <ele>461</ele>
        <time>2015-03-08T11:10:40.000Z</time>
      </trkpt>
      <trkpt lat="47.43689" lon="6.72341">
        <ele>461</ele>
        <time>2015-03-08T11:10:41.000Z</time>
      </trkpt>
      <trkpt lat="47.43693" lon="6.72337">
        <ele>461</ele>
        <time>2015-03-08T11:10:42.000Z</time>
      </trkpt>
      <trkpt lat="47.43697" lon="6.72333">
        <ele>460</ele>
        <time>2015-03-08T11:10:43.000Z</time>
      </trkpt>
      <trkpt lat="47.43703" lon="6.72327">
        <ele>460</ele>
        <time>2015-03-08T11:10:44.000Z</time>
      </trkpt>
      <trkpt lat="47.43707" lon="6.72323">
        <ele>460</ele>
        <time>2015-03-08T11:10:45.000Z</time>
      </trkpt>
      <trkpt lat="47.43711" lon="6.7232">
        <ele>460</ele>
        <time>2015-03-08T11:10:46.000Z</time>
      </trkpt>
      <trkpt lat="47.43715" lon="6.72316">
        <ele>460</ele>
        <time>2015-03-08T11:10:47.000Z</time>
      </trkpt>
      <trkpt lat="47.43719" lon="6.72313">
        <ele>460</ele>
        <time>2015-03-08T11:10:48.000Z</time>
      </trkpt>
      <trkpt lat="47.43723" lon="6.7231">
        <ele>460</ele>
        <time>2015-03-08T11:10:49.000Z</time>
      </trkpt>
      <trkpt lat="47.43728" lon="6.72307">
        <ele>460</ele>
        <time>2015-03-08T11:10:50.000Z</time>
      </trkpt>
      <trkpt lat="47.43732" lon="6.72304">
        <ele>460</ele>
        <time>2015-03-08T11:10:51.000Z</time>
      </trkpt>
      <trkpt lat="47.43736" lon="6.72301">
        <ele>460</ele>
        <time>2015-03-08T11:10:52.000Z</time>
      </trkpt>
      <trkpt lat="47.43741" lon="6.72302">
        <ele>460</ele>
        <time>2015-03-08T11:10:53.000Z</time>
      </trkpt>
      <trkpt lat="47.43746" lon="6.72306">
        <ele>460</ele>
        <time>2015-03-08T11:10:54.000Z</time>
      </trkpt>
      <trkpt lat="47.4375" lon="6.72311">
        <ele>460</ele>
        <time>2015-03-08T11:10:55.000Z</time>
      </trkpt>
      <trkpt lat="47.43752" lon="6.72315">
        <ele>460</ele>
        <time>2015-03-08T11:10:56.000Z</time>
      </trkpt>
      <trkpt lat="47.43754" lon="6.72318">
        <ele>460</ele>
        <time>2015-03-08T11:10:57.000Z</time>
      </trkpt>
      <trkpt lat="47.43757" lon="6.72322">
        <ele>460</ele>
        <time>2015-03-08T11:10:58.000Z</time>
      </trkpt>
      <trkpt lat="47.4376" lon="6.72327">
        <ele>460</ele>
        <time>2015-03-08T11:10:59.000Z</time>
      </trkpt>
      <trkpt lat="47.43762" lon="6.72332">
        <ele>460</ele>
        <time>2015-03-08T11:11:00.000Z</time>
      </trkpt>
      <trkpt lat="47.43766" lon="6.72336">
        <ele>461</ele>
        <time>2015-03-08T11:11:01.000Z</time>
      </trkpt>
      <trkpt lat="47.43769" lon="6.72341">
        <ele>461</ele>
        <time>2015-03-08T11:11:02.000Z</time>
      </trkpt>
      <trkpt lat="47.43771" lon="6.72345">
        <ele>461</ele>
        <time>2015-03-08T11:11:03.000Z</time>
      </trkpt>
      <trkpt lat="47.43775" lon="6.72349">
        <ele>461</ele>
        <time>2015-03-08T11:11:04.000Z</time>
      </trkpt>
      <trkpt lat="47.43778" lon="6.72354">
        <ele>461</ele>
        <time>2015-03-08T11:11:05.000Z</time>
      </trkpt>
      <trkpt lat="47.43781" lon="6.72358">
        <ele>461</ele>
        <time>2015-03-08T11:11:06.000Z</time>
      </trkpt>
      <trkpt lat="47.43784" lon="6.72362">
        <ele>461</ele>
        <time>2015-03-08T11:11:07.000Z</time>
      </trkpt>
      <trkpt lat="47.43788" lon="6.72366">
        <ele>461</ele>
        <time>2015-03-08T11:11:08.000Z</time>
      </trkpt>
      <trkpt lat="47.43791" lon="6.7237">
        <ele>461</ele>
        <time>2015-03-08T11:11:09.000Z</time>
      </trkpt>
      <trkpt lat="47.43794" lon="6.72374">
        <ele>462</ele>
        <time>2015-03-08T11:11:10.000Z</time>
      </trkpt>
      <trkpt lat="47.43797" lon="6.72378">
        <ele>462</ele>
        <time>2015-03-08T11:11:11.000Z</time>
      </trkpt>
      <trkpt lat="47.43801" lon="6.72382">
        <ele>462</ele>
        <time>2015-03-08T11:11:12.000Z</time>
      </trkpt>
      <trkpt lat="47.43804" lon="6.72386">
        <ele>462</ele>
        <time>2015-03-08T11:11:13.000Z</time>
      </trkpt>
      <trkpt lat="47.43808" lon="6.72391">
        <ele>462</ele>
        <time>2015-03-08T11:11:14.000Z</time>
      </trkpt>
      <trkpt lat="47.43812" lon="6.72395">
        <ele>462</ele>
        <time>2015-03-08T11:11:15.000Z</time>
      </trkpt>
      <trkpt lat="47.43815" lon="6.72399">
        <ele>462</ele>
        <time>2015-03-08T11:11:16.000Z</time>
      </trkpt>
      <trkpt lat="47.43819" lon="6.72403">
        <ele>462</ele>
        <time>2015-03-08T11:11:17.000Z</time>
      </trkpt>
      <trkpt lat="47.43822" lon="6.72407">
        <ele>462</ele>
        <time>2015-03-08T11:11:18.000Z</time>
      </trkpt>
      <trkpt lat="47.43828" lon="6.7241">
        <ele>462</ele>
        <time>2015-03-08T11:11:19.000Z</time>
      </trkpt>
      <trkpt lat="47.43832" lon="6.72415">
        <ele>462</ele>
        <time>2015-03-08T11:11:20.000Z</time>
      </trkpt>
      <trkpt lat="47.43837" lon="6.7242">
        <ele>462</ele>
        <time>2015-03-08T11:11:21.000Z</time>
      </trkpt>
      <trkpt lat="47.43842" lon="6.72424">
        <ele>462</ele>
        <time>2015-03-08T11:11:22.000Z</time>
      </trkpt>
      <trkpt lat="47.43846" lon="6.72428">
        <ele>462</ele>
        <time>2015-03-08T11:11:23.000Z</time>
      </trkpt>
      <trkpt lat="47.4385" lon="6.72433">
        <ele>462</ele>
        <time>2015-03-08T11:11:24.000Z</time>
      </trkpt>
      <trkpt lat="47.43855" lon="6.72438">
        <ele>463</ele>
        <time>2015-03-08T11:11:25.000Z</time>
      </trkpt>
      <trkpt lat="47.43859" lon="6.72442">
        <ele>463</ele>
        <time>2015-03-08T11:11:26.000Z</time>
      </trkpt>
      <trkpt lat="47.43863" lon="6.72447">
        <ele>463</ele>
        <time>2015-03-08T11:11:27.000Z</time>
      </trkpt>
      <trkpt lat="47.43867" lon="6.72452">
        <ele>463</ele>
        <time>2015-03-08T11:11:28.000Z</time>
      </trkpt>
      <trkpt lat="47.43872" lon="6.72456">
        <ele>463</ele>
        <time>2015-03-08T11:11:29.000Z</time>
      </trkpt>
      <trkpt lat="47.43877" lon="6.7246">
        <ele>463</ele>
        <time>2015-03-08T11:11:30.000Z</time>
      </trkpt>
      <trkpt lat="47.43882" lon="6.72464">
        <ele>463</ele>
        <time>2015-03-08T11:11:31.000Z</time>
      </trkpt>
      <trkpt lat="47.43886" lon="6.72467">
        <ele>463</ele>
        <time>2015-03-08T11:11:32.000Z</time>
      </trkpt>
      <trkpt lat="47.43891" lon="6.72471">
        <ele>463</ele>
        <time>2015-03-08T11:11:33.000Z</time>
      </trkpt>
      <trkpt lat="47.43895" lon="6.72475">
        <ele>463</ele>
        <time>2015-03-08T11:11:34.000Z</time>
      </trkpt>
      <trkpt lat="47.43899" lon="6.72478">
        <ele>463</ele>
        <time>2015-03-08T11:11:35.000Z</time>
      </trkpt>
      <trkpt lat="47.43902" lon="6.72482">
        <ele>463</ele>
        <time>2015-03-08T11:11:36.000Z</time>
      </trkpt>
      <trkpt lat="47.43906" lon="6.72485">
        <ele>463</ele>
        <time>2015-03-08T11:11:37.000Z</time>
      </trkpt>
      <trkpt lat="47.4391" lon="6.72489">
        <ele>463</ele>
        <time>2015-03-08T11:11:38.000Z</time>
      </trkpt>
      <trkpt lat="47.43914" lon="6.72492">
        <ele>463</ele>
        <time>2015-03-08T11:11:39.000Z</time>
      </trkpt>
      <trkpt lat="47.43918" lon="6.72495">
        <ele>463</ele>
        <time>2015-03-08T11:11:40.000Z</time>
      </trkpt>
      <trkpt lat="47.43922" lon="6.72498">
        <ele>463</ele>
        <time>2015-03-08T11:11:41.000Z</time>
      </trkpt>
      <trkpt lat="47.43926" lon="6.725">
        <ele>463</ele>
        <time>2015-03-08T11:11:42.000Z</time>
      </trkpt>
      <trkpt lat="47.43931" lon="6.72502">
        <ele>463</ele>
        <time>2015-03-08T11:11:43.000Z</time>
      </trkpt>
      <trkpt lat="47.43935" lon="6.72503">
        <ele>463</ele>
        <time>2015-03-08T11:11:44.000Z</time>
      </trkpt>
      <trkpt lat="47.43941" lon="6.72503">
        <ele>463</ele>
        <time>2015-03-08T11:11:45.000Z</time>
      </trkpt>
      <trkpt lat="47.43946" lon="6.72503">
        <ele>463</ele>
        <time>2015-03-08T11:11:46.000Z</time>
      </trkpt>
      <trkpt lat="47.43951" lon="6.72501">
        <ele>463</ele>
        <time>2015-03-08T11:11:47.000Z</time>
      </trkpt>
      <trkpt lat="47.43955" lon="6.725">
        <ele>464</ele>
        <time>2015-03-08T11:11:48.000Z</time>
      </trkpt>
      <trkpt lat="47.4396" lon="6.72498">
        <ele>464</ele>
        <time>2015-03-08T11:11:49.000Z</time>
      </trkpt>
      <trkpt lat="47.43965" lon="6.72496">
        <ele>464</ele>
        <time>2015-03-08T11:11:50.000Z</time>
      </trkpt>
      <trkpt lat="47.4397" lon="6.72494">
        <ele>464</ele>
        <time>2015-03-08T11:11:51.000Z</time>
      </trkpt>
      <trkpt lat="47.43975" lon="6.72493">
        <ele>464</ele>
        <time>2015-03-08T11:11:52.000Z</time>
      </trkpt>
      <trkpt lat="47.43981" lon="6.72491">
        <ele>464</ele>
        <time>2015-03-08T11:11:53.000Z</time>
      </trkpt>
      <trkpt lat="47.43985" lon="6.72489">
        <ele>464</ele>
        <time>2015-03-08T11:11:54.000Z</time>
      </trkpt>
      <trkpt lat="47.4399" lon="6.72486">
        <ele>464</ele>
        <time>2015-03-08T11:11:55.000Z</time>
      </trkpt>
      <trkpt lat="47.43995" lon="6.72484">
        <ele>464</ele>
        <time>2015-03-08T11:11:56.000Z</time>
      </trkpt>
      <trkpt lat="47.44" lon="6.72482">
        <ele>466</ele>
        <time>2015-03-08T11:11:57.000Z</time>
      </trkpt>
      <trkpt lat="47.44006" lon="6.7248">
        <ele>466</ele>
        <time>2015-03-08T11:11:58.000Z</time>
      </trkpt>
      <trkpt lat="47.4401" lon="6.72479">
        <ele>466</ele>
        <time>2015-03-08T11:11:59.000Z</time>
      </trkpt>
      <trkpt lat="47.44016" lon="6.72477">
        <ele>466</ele>
        <time>2015-03-08T11:12:00.000Z</time>
      </trkpt>
      <trkpt lat="47.4402" lon="6.72475">
        <ele>466</ele>
        <time>2015-03-08T11:12:01.000Z</time>
      </trkpt>
      <trkpt lat="47.44025" lon="6.72472">
        <ele>467</ele>
        <time>2015-03-08T11:12:02.000Z</time>
      </trkpt>
      <trkpt lat="47.44031" lon="6.7247">
        <ele>467</ele>
        <time>2015-03-08T11:12:03.000Z</time>
      </trkpt>
      <trkpt lat="47.44036" lon="6.72469">
        <ele>467</ele>
        <time>2015-03-08T11:12:04.000Z</time>
      </trkpt>
      <trkpt lat="47.44041" lon="6.72467">
        <ele>467</ele>
        <time>2015-03-08T11:12:05.000Z</time>
      </trkpt>
      <trkpt lat="47.44046" lon="6.72465">
        <ele>467</ele>
        <time>2015-03-08T11:12:06.000Z</time>
      </trkpt>
      <trkpt lat="47.44051" lon="6.72463">
        <ele>467</ele>
        <time>2015-03-08T11:12:07.000Z</time>
      </trkpt>
      <trkpt lat="47.44055" lon="6.72461">
        <ele>468</ele>
        <time>2015-03-08T11:12:08.000Z</time>
      </trkpt>
      <trkpt lat="47.4406" lon="6.72459">
        <ele>468</ele>
        <time>2015-03-08T11:12:09.000Z</time>
      </trkpt>
      <trkpt lat="47.44065" lon="6.72458">
        <ele>468</ele>
        <time>2015-03-08T11:12:10.000Z</time>
      </trkpt>
      <trkpt lat="47.44069" lon="6.72457">
        <ele>468</ele>
        <time>2015-03-08T11:12:11.000Z</time>
      </trkpt>
      <trkpt lat="47.44071" lon="6.72457">
        <ele>468</ele>
        <time>2015-03-08T11:12:12.000Z</time>
      </trkpt>
      <trkpt lat="47.44075" lon="6.72457">
        <ele>468</ele>
        <time>2015-03-08T11:12:13.000Z</time>
      </trkpt>
      <trkpt lat="47.44078" lon="6.72456">
        <ele>468</ele>
        <time>2015-03-08T11:12:14.000Z</time>
      </trkpt>
      <trkpt lat="47.44081" lon="6.72455">
        <ele>468</ele>
        <time>2015-03-08T11:12:15.000Z</time>
      </trkpt>
      <trkpt lat="47.44088" lon="6.72452">
        <ele>473</ele>
        <time>2015-03-08T11:12:16.000Z</time>
      </trkpt>
      <trkpt lat="47.44093" lon="6.7245">
        <ele>473</ele>
        <time>2015-03-08T11:12:17.000Z</time>
      </trkpt>
      <trkpt lat="47.44096" lon="6.72448">
        <ele>473</ele>
        <time>2015-03-08T11:12:18.000Z</time>
      </trkpt>
      <trkpt lat="47.441" lon="6.72446">
        <ele>474</ele>
        <time>2015-03-08T11:12:19.000Z</time>
      </trkpt>
      <trkpt lat="47.44103" lon="6.72445">
        <ele>474</ele>
        <time>2015-03-08T11:12:20.000Z</time>
      </trkpt>
      <trkpt lat="47.44106" lon="6.72445">
        <ele>474</ele>
        <time>2015-03-08T11:12:21.000Z</time>
      </trkpt>
      <trkpt lat="47.44109" lon="6.72443">
        <ele>474</ele>
        <time>2015-03-08T11:12:22.000Z</time>
      </trkpt>
      <trkpt lat="47.44111" lon="6.72442">
        <ele>474</ele>
        <time>2015-03-08T11:12:23.000Z</time>
      </trkpt>
      <trkpt lat="47.44114" lon="6.72441">
        <ele>474</ele>
        <time>2015-03-08T11:12:24.000Z</time>
      </trkpt>
      <trkpt lat="47.44117" lon="6.7244">
        <ele>475</ele>
        <time>2015-03-08T11:12:25.000Z</time>
      </trkpt>
      <trkpt lat="47.44121" lon="6.7244">
        <ele>475</ele>
        <time>2015-03-08T11:12:26.000Z</time>
      </trkpt>
      <trkpt lat="47.44125" lon="6.72439">
        <ele>475</ele>
        <time>2015-03-08T11:12:27.000Z</time>
      </trkpt>
      <trkpt lat="47.44129" lon="6.72439">
        <ele>475</ele>
        <time>2015-03-08T11:12:28.000Z</time>
      </trkpt>
      <trkpt lat="47.44132" lon="6.72438">
        <ele>476</ele>
        <time>2015-03-08T11:12:29.000Z</time>
      </trkpt>
      <trkpt lat="47.44136" lon="6.72437">
        <ele>476</ele>
        <time>2015-03-08T11:12:30.000Z</time>
      </trkpt>
      <trkpt lat="47.44141" lon="6.72435">
        <ele>476</ele>
        <time>2015-03-08T11:12:31.000Z</time>
      </trkpt>
      <trkpt lat="47.44146" lon="6.72433">
        <ele>477</ele>
        <time>2015-03-08T11:12:32.000Z</time>
      </trkpt>
      <trkpt lat="47.44151" lon="6.72432">
        <ele>477</ele>
        <time>2015-03-08T11:12:33.000Z</time>
      </trkpt>
      <trkpt lat="47.44157" lon="6.7243">
        <ele>478</ele>
        <time>2015-03-08T11:12:34.000Z</time>
      </trkpt>
      <trkpt lat="47.44161" lon="6.72429">
        <ele>478</ele>
        <time>2015-03-08T11:12:35.000Z</time>
      </trkpt>
      <trkpt lat="47.44169" lon="6.72431">
        <ele>481</ele>
        <time>2015-03-08T11:12:36.000Z</time>
      </trkpt>
      <trkpt lat="47.44172" lon="6.72432">
        <ele>481</ele>
        <time>2015-03-08T11:12:37.000Z</time>
      </trkpt>
      <trkpt lat="47.44175" lon="6.72429">
        <ele>481</ele>
        <time>2015-03-08T11:12:38.000Z</time>
      </trkpt>
      <trkpt lat="47.44178" lon="6.72427">
        <ele>481</ele>
        <time>2015-03-08T11:12:39.000Z</time>
      </trkpt>
      <trkpt lat="47.44182" lon="6.72424">
        <ele>481</ele>
        <time>2015-03-08T11:12:40.000Z</time>
      </trkpt>
      <trkpt lat="47.44186" lon="6.72423">
        <ele>481</ele>
        <time>2015-03-08T11:12:41.000Z</time>
      </trkpt>
      <trkpt lat="47.44189" lon="6.72422">
        <ele>481</ele>
        <time>2015-03-08T11:12:42.000Z</time>
      </trkpt>
      <trkpt lat="47.44192" lon="6.72421">
        <ele>481</ele>
        <time>2015-03-08T11:12:43.000Z</time>
      </trkpt>
      <trkpt lat="47.44195" lon="6.72422">
        <ele>481</ele>
        <time>2015-03-08T11:12:44.000Z</time>
      </trkpt>
      <trkpt lat="47.44198" lon="6.72421">
        <ele>481</ele>
        <time>2015-03-08T11:12:45.000Z</time>
      </trkpt>
      <trkpt lat="47.44201" lon="6.7242">
        <ele>481</ele>
        <time>2015-03-08T11:12:46.000Z</time>
      </trkpt>
      <trkpt lat="47.44204" lon="6.7242">
        <ele>481</ele>
        <time>2015-03-08T11:12:47.000Z</time>
      </trkpt>
      <trkpt lat="47.44207" lon="6.72419">
        <ele>482</ele>
        <time>2015-03-08T11:12:48.000Z</time>
      </trkpt>
      <trkpt lat="47.44211" lon="6.72418">
        <ele>482</ele>
        <time>2015-03-08T11:12:49.000Z</time>
      </trkpt>
      <trkpt lat="47.44214" lon="6.72417">
        <ele>482</ele>
        <time>2015-03-08T11:12:50.000Z</time>
      </trkpt>
      <trkpt lat="47.44217" lon="6.72416">
        <ele>482</ele>
        <time>2015-03-08T11:12:51.000Z</time>
      </trkpt>
      <trkpt lat="47.44221" lon="6.72415">
        <ele>482</ele>
        <time>2015-03-08T11:12:52.000Z</time>
      </trkpt>
      <trkpt lat="47.44226" lon="6.72413">
        <ele>482</ele>
        <time>2015-03-08T11:12:53.000Z</time>
      </trkpt>
      <trkpt lat="47.44231" lon="6.72412">
        <ele>483</ele>
        <time>2015-03-08T11:12:54.000Z</time>
      </trkpt>
      <trkpt lat="47.44235" lon="6.7241">
        <ele>483</ele>
        <time>2015-03-08T11:12:55.000Z</time>
      </trkpt>
      <trkpt lat="47.44239" lon="6.72408">
        <ele>483</ele>
        <time>2015-03-08T11:12:56.000Z</time>
      </trkpt>
      <trkpt lat="47.44242" lon="6.72407">
        <ele>483</ele>
        <time>2015-03-08T11:12:57.000Z</time>
      </trkpt>
      <trkpt lat="47.44244" lon="6.72406">
        <ele>483</ele>
        <time>2015-03-08T11:12:58.000Z</time>
      </trkpt>
      <trkpt lat="47.44247" lon="6.72404">
        <ele>483</ele>
        <time>2015-03-08T11:13:00.000Z</time>
      </trkpt>
      <trkpt lat="47.44249" lon="6.72404">
        <ele>483</ele>
        <time>2015-03-08T11:13:01.000Z</time>
      </trkpt>
      <trkpt lat="47.44252" lon="6.72403">
        <ele>482</ele>
        <time>2015-03-08T11:13:03.000Z</time>
      </trkpt>
      <trkpt lat="47.44255" lon="6.72402">
        <ele>482</ele>
        <time>2015-03-08T11:13:04.000Z</time>
      </trkpt>
      <trkpt lat="47.44258" lon="6.724">
        <ele>482</ele>
        <time>2015-03-08T11:13:05.000Z</time>
      </trkpt>
      <trkpt lat="47.44262" lon="6.72398">
        <ele>482</ele>
        <time>2015-03-08T11:13:06.000Z</time>
      </trkpt>
      <trkpt lat="47.44266" lon="6.72396">
        <ele>481</ele>
        <time>2015-03-08T11:13:07.000Z</time>
      </trkpt>
      <trkpt lat="47.4428" lon="6.72393">
        <ele>481</ele>
        <time>2015-03-08T11:13:08.000Z</time>
      </trkpt>
      <trkpt lat="47.44286" lon="6.72391">
        <ele>481</ele>
        <time>2015-03-08T11:13:09.000Z</time>
      </trkpt>
      <trkpt lat="47.44293" lon="6.72389">
        <ele>481</ele>
        <time>2015-03-08T11:13:10.000Z</time>
      </trkpt>
      <trkpt lat="47.443" lon="6.72388">
        <ele>481</ele>
        <time>2015-03-08T11:13:11.000Z</time>
      </trkpt>
      <trkpt lat="47.44307" lon="6.72386">
        <ele>480</ele>
        <time>2015-03-08T11:13:12.000Z</time>
      </trkpt>
      <trkpt lat="47.44313" lon="6.72385">
        <ele>480</ele>
        <time>2015-03-08T11:13:13.000Z</time>
      </trkpt>
      <trkpt lat="47.44319" lon="6.72383">
        <ele>480</ele>
        <time>2015-03-08T11:13:14.000Z</time>
      </trkpt>
      <trkpt lat="47.44326" lon="6.72382">
        <ele>480</ele>
        <time>2015-03-08T11:13:15.000Z</time>
      </trkpt>
      <trkpt lat="47.44334" lon="6.7238">
        <ele>478</ele>
        <time>2015-03-08T11:13:16.000Z</time>
      </trkpt>
      <trkpt lat="47.44341" lon="6.72379">
        <ele>478</ele>
        <time>2015-03-08T11:13:17.000Z</time>
      </trkpt>
      <trkpt lat="47.44347" lon="6.72378">
        <ele>478</ele>
        <time>2015-03-08T11:13:18.000Z</time>
      </trkpt>
      <trkpt lat="47.44353" lon="6.72376">
        <ele>478</ele>
        <time>2015-03-08T11:13:19.000Z</time>
      </trkpt>
      <trkpt lat="47.4436" lon="6.72374">
        <ele>478</ele>
        <time>2015-03-08T11:13:20.000Z</time>
      </trkpt>
      <trkpt lat="47.44366" lon="6.72371">
        <ele>477</ele>
        <time>2015-03-08T11:13:21.000Z</time>
      </trkpt>
      <trkpt lat="47.44372" lon="6.72369">
        <ele>477</ele>
        <time>2015-03-08T11:13:22.000Z</time>
      </trkpt>
      <trkpt lat="47.44378" lon="6.72367">
        <ele>477</ele>
        <time>2015-03-08T11:13:23.000Z</time>
      </trkpt>
      <trkpt lat="47.44384" lon="6.72364">
        <ele>477</ele>
        <time>2015-03-08T11:13:24.000Z</time>
      </trkpt>
      <trkpt lat="47.4439" lon="6.72363">
        <ele>477</ele>
        <time>2015-03-08T11:13:25.000Z</time>
      </trkpt>
      <trkpt lat="47.44395" lon="6.72361">
        <ele>477</ele>
        <time>2015-03-08T11:13:26.000Z</time>
      </trkpt>
      <trkpt lat="47.44401" lon="6.7236">
        <ele>477</ele>
        <time>2015-03-08T11:13:27.000Z</time>
      </trkpt>
      <trkpt lat="47.44408" lon="6.7236">
        <ele>476</ele>
        <time>2015-03-08T11:13:28.000Z</time>
      </trkpt>
      <trkpt lat="47.44414" lon="6.72358">
        <ele>476</ele>
        <time>2015-03-08T11:13:29.000Z</time>
      </trkpt>
      <trkpt lat="47.4442" lon="6.72357">
        <ele>477</ele>
        <time>2015-03-08T11:13:30.000Z</time>
      </trkpt>
      <trkpt lat="47.44426" lon="6.72355">
        <ele>477</ele>
        <time>2015-03-08T11:13:31.000Z</time>
      </trkpt>
      <trkpt lat="47.44432" lon="6.72355">
        <ele>477</ele>
        <time>2015-03-08T11:13:32.000Z</time>
      </trkpt>
      <trkpt lat="47.44436" lon="6.72354">
        <ele>477</ele>
        <time>2015-03-08T11:13:33.000Z</time>
      </trkpt>
      <trkpt lat="47.44442" lon="6.72353">
        <ele>477</ele>
        <time>2015-03-08T11:13:34.000Z</time>
      </trkpt>
      <trkpt lat="47.44449" lon="6.72353">
        <ele>477</ele>
        <time>2015-03-08T11:13:35.000Z</time>
      </trkpt>
      <trkpt lat="47.44455" lon="6.72353">
        <ele>477</ele>
        <time>2015-03-08T11:13:36.000Z</time>
      </trkpt>
      <trkpt lat="47.44461" lon="6.72352">
        <ele>477</ele>
        <time>2015-03-08T11:13:37.000Z</time>
      </trkpt>
      <trkpt lat="47.44465" lon="6.72352">
        <ele>478</ele>
        <time>2015-03-08T11:13:38.000Z</time>
      </trkpt>
      <trkpt lat="47.4447" lon="6.72351">
        <ele>478</ele>
        <time>2015-03-08T11:13:39.000Z</time>
      </trkpt>
      <trkpt lat="47.44476" lon="6.72351">
        <ele>478</ele>
        <time>2015-03-08T11:13:40.000Z</time>
      </trkpt>
      <trkpt lat="47.44482" lon="6.72351">
        <ele>477</ele>
        <time>2015-03-08T11:13:41.000Z</time>
      </trkpt>
      <trkpt lat="47.44489" lon="6.72348">
        <ele>477</ele>
        <time>2015-03-08T11:13:42.000Z</time>
      </trkpt>
      <trkpt lat="47.44496" lon="6.72346">
        <ele>477</ele>
        <time>2015-03-08T11:13:43.000Z</time>
      </trkpt>
      <trkpt lat="47.44503" lon="6.72345">
        <ele>478</ele>
        <time>2015-03-08T11:13:44.000Z</time>
      </trkpt>
      <trkpt lat="47.44509" lon="6.72344">
        <ele>478</ele>
        <time>2015-03-08T11:13:45.000Z</time>
      </trkpt>
      <trkpt lat="47.44515" lon="6.72342">
        <ele>478</ele>
        <time>2015-03-08T11:13:46.000Z</time>
      </trkpt>
      <trkpt lat="47.44521" lon="6.72339">
        <ele>479</ele>
        <time>2015-03-08T11:13:47.000Z</time>
      </trkpt>
      <trkpt lat="47.44527" lon="6.72337">
        <ele>479</ele>
        <time>2015-03-08T11:13:48.000Z</time>
      </trkpt>
      <trkpt lat="47.44534" lon="6.72337">
        <ele>479</ele>
        <time>2015-03-08T11:13:49.000Z</time>
      </trkpt>
      <trkpt lat="47.4454" lon="6.72336">
        <ele>479</ele>
        <time>2015-03-08T11:13:50.000Z</time>
      </trkpt>
      <trkpt lat="47.44543" lon="6.72333">
        <ele>479</ele>
        <time>2015-03-08T11:13:51.000Z</time>
      </trkpt>
      <trkpt lat="47.44549" lon="6.72331">
        <ele>474</ele>
        <time>2015-03-08T11:13:52.000Z</time>
      </trkpt>
      <trkpt lat="47.44557" lon="6.7233">
        <ele>475</ele>
        <time>2015-03-08T11:13:53.000Z</time>
      </trkpt>
      <trkpt lat="47.44563" lon="6.72326">
        <ele>475</ele>
        <time>2015-03-08T11:13:54.000Z</time>
      </trkpt>
      <trkpt lat="47.4457" lon="6.72326">
        <ele>475</ele>
        <time>2015-03-08T11:13:55.000Z</time>
      </trkpt>
      <trkpt lat="47.44577" lon="6.72326">
        <ele>476</ele>
        <time>2015-03-08T11:13:56.000Z</time>
      </trkpt>
      <trkpt lat="47.44583" lon="6.72325">
        <ele>476</ele>
        <time>2015-03-08T11:13:57.000Z</time>
      </trkpt>
      <trkpt lat="47.44591" lon="6.72324">
        <ele>477</ele>
        <time>2015-03-08T11:13:58.000Z</time>
      </trkpt>
      <trkpt lat="47.44596" lon="6.72324">
        <ele>476</ele>
        <time>2015-03-08T11:13:59.000Z</time>
      </trkpt>
      <trkpt lat="47.44603" lon="6.72324">
        <ele>476</ele>
        <time>2015-03-08T11:14:00.000Z</time>
      </trkpt>
      <trkpt lat="47.44608" lon="6.72325">
        <ele>476</ele>
        <time>2015-03-08T11:14:01.000Z</time>
      </trkpt>
      <trkpt lat="47.44614" lon="6.72325">
        <ele>476</ele>
        <time>2015-03-08T11:14:02.000Z</time>
      </trkpt>
      <trkpt lat="47.44618" lon="6.72326">
        <ele>476</ele>
        <time>2015-03-08T11:14:03.000Z</time>
      </trkpt>
      <trkpt lat="47.44624" lon="6.72327">
        <ele>476</ele>
        <time>2015-03-08T11:14:04.000Z</time>
      </trkpt>
      <trkpt lat="47.44631" lon="6.72328">
        <ele>476</ele>
        <time>2015-03-08T11:14:05.000Z</time>
      </trkpt>
      <trkpt lat="47.44636" lon="6.72328">
        <ele>476</ele>
        <time>2015-03-08T11:14:06.000Z</time>
      </trkpt>
      <trkpt lat="47.44642" lon="6.72326">
        <ele>477</ele>
        <time>2015-03-08T11:14:07.000Z</time>
      </trkpt>
      <trkpt lat="47.44648" lon="6.72324">
        <ele>477</ele>
        <time>2015-03-08T11:14:08.000Z</time>
      </trkpt>
      <trkpt lat="47.44654" lon="6.72324">
        <ele>477</ele>
        <time>2015-03-08T11:14:09.000Z</time>
      </trkpt>
      <trkpt lat="47.44659" lon="6.72322">
        <ele>478</ele>
        <time>2015-03-08T11:14:10.000Z</time>
      </trkpt>
      <trkpt lat="47.44664" lon="6.72322">
        <ele>478</ele>
        <time>2015-03-08T11:14:11.000Z</time>
      </trkpt>
      <trkpt lat="47.4467" lon="6.7232">
        <ele>479</ele>
        <time>2015-03-08T11:14:12.000Z</time>
      </trkpt>
      <trkpt lat="47.44674" lon="6.72318">
        <ele>479</ele>
        <time>2015-03-08T11:14:13.001Z</time>
      </trkpt>
      <trkpt lat="47.44679" lon="6.72318">
        <ele>479</ele>
        <time>2015-03-08T11:14:14.000Z</time>
      </trkpt>
      <trkpt lat="47.44682" lon="6.72315">
        <ele>478</ele>
        <time>2015-03-08T11:14:15.000Z</time>
      </trkpt>
      <trkpt lat="47.44686" lon="6.72314">
        <ele>478</ele>
        <time>2015-03-08T11:14:16.000Z</time>
      </trkpt>
      <trkpt lat="47.44692" lon="6.72314">
        <ele>478</ele>
        <time>2015-03-08T11:14:17.000Z</time>
      </trkpt>
      <trkpt lat="47.44696" lon="6.72311">
        <ele>478</ele>
        <time>2015-03-08T11:14:18.000Z</time>
      </trkpt>
      <trkpt lat="47.447" lon="6.72308">
        <ele>478</ele>
        <time>2015-03-08T11:14:19.000Z</time>
      </trkpt>
      <trkpt lat="47.44705" lon="6.72304">
        <ele>478</ele>
        <time>2015-03-08T11:14:20.000Z</time>
      </trkpt>
      <trkpt lat="47.44708" lon="6.72302">
        <ele>478</ele>
        <time>2015-03-08T11:14:21.000Z</time>
      </trkpt>
      <trkpt lat="47.4471" lon="6.72299">
        <ele>478</ele>
        <time>2015-03-08T11:14:22.000Z</time>
      </trkpt>
      <trkpt lat="47.44713" lon="6.72297">
        <ele>478</ele>
        <time>2015-03-08T11:14:23.000Z</time>
      </trkpt>
      <trkpt lat="47.44714" lon="6.72295">
        <ele>478</ele>
        <time>2015-03-08T11:14:24.000Z</time>
      </trkpt>
      <trkpt lat="47.44715" lon="6.72289">
        <ele>477</ele>
        <time>2015-03-08T11:14:25.000Z</time>
      </trkpt>
      <trkpt lat="47.44719" lon="6.72286">
        <ele>477</ele>
        <time>2015-03-08T11:14:26.000Z</time>
      </trkpt>
      <trkpt lat="47.44722" lon="6.72279">
        <ele>477</ele>
        <time>2015-03-08T11:14:27.000Z</time>
      </trkpt>
      <trkpt lat="47.44727" lon="6.72274">
        <ele>476</ele>
        <time>2015-03-08T11:14:28.000Z</time>
      </trkpt>
      <trkpt lat="47.44732" lon="6.72271">
        <ele>476</ele>
        <time>2015-03-08T11:14:28.999Z</time>
      </trkpt>
      <trkpt lat="47.44739" lon="6.72274">
        <ele>476</ele>
        <time>2015-03-08T11:14:30.000Z</time>
      </trkpt>
      <trkpt lat="47.44743" lon="6.72275">
        <ele>476</ele>
        <time>2015-03-08T11:14:31.000Z</time>
      </trkpt>
      <trkpt lat="47.44748" lon="6.72277">
        <ele>477</ele>
        <time>2015-03-08T11:14:32.000Z</time>
      </trkpt>
      <trkpt lat="47.44753" lon="6.72274">
        <ele>476</ele>
        <time>2015-03-08T11:14:33.000Z</time>
      </trkpt>
      <trkpt lat="47.44757" lon="6.72277">
        <ele>476</ele>
        <time>2015-03-08T11:14:34.000Z</time>
      </trkpt>
      <trkpt lat="47.44763" lon="6.72275">
        <ele>476</ele>
        <time>2015-03-08T11:14:35.000Z</time>
      </trkpt>
      <trkpt lat="47.44769" lon="6.72274">
        <ele>476</ele>
        <time>2015-03-08T11:14:36.000Z</time>
      </trkpt>
      <trkpt lat="47.44777" lon="6.72271">
        <ele>475</ele>
        <time>2015-03-08T11:14:37.000Z</time>
      </trkpt>
      <trkpt lat="47.44785" lon="6.72273">
        <ele>475</ele>
        <time>2015-03-08T11:14:38.000Z</time>
      </trkpt>
      <trkpt lat="47.44792" lon="6.72272">
        <ele>475</ele>
        <time>2015-03-08T11:14:39.000Z</time>
      </trkpt>
      <trkpt lat="47.44795" lon="6.72272">
        <ele>475</ele>
        <time>2015-03-08T11:14:40.000Z</time>
      </trkpt>
      <trkpt lat="47.44802" lon="6.72269">
        <ele>474</ele>
        <time>2015-03-08T11:14:41.000Z</time>
      </trkpt>
      <trkpt lat="47.44811" lon="6.72269">
        <ele>473</ele>
        <time>2015-03-08T11:14:42.000Z</time>
      </trkpt>
      <trkpt lat="47.44819" lon="6.72269">
        <ele>472</ele>
        <time>2015-03-08T11:14:43.000Z</time>
      </trkpt>
      <trkpt lat="47.44828" lon="6.72272">
        <ele>472</ele>
        <time>2015-03-08T11:14:44.000Z</time>
      </trkpt>
      <trkpt lat="47.44837" lon="6.72273">
        <ele>467</ele>
        <time>2015-03-08T11:14:45.000Z</time>
      </trkpt>
      <trkpt lat="47.44844" lon="6.72276">
        <ele>467</ele>
        <time>2015-03-08T11:14:46.000Z</time>
      </trkpt>
      <trkpt lat="47.44852" lon="6.72281">
        <ele>467</ele>
        <time>2015-03-08T11:14:47.000Z</time>
      </trkpt>
      <trkpt lat="47.44859" lon="6.72287">
        <ele>467</ele>
        <time>2015-03-08T11:14:48.000Z</time>
      </trkpt>
      <trkpt lat="47.44867" lon="6.72292">
        <ele>467</ele>
        <time>2015-03-08T11:14:49.000Z</time>
      </trkpt>
      <trkpt lat="47.44875" lon="6.72298">
        <ele>467</ele>
        <time>2015-03-08T11:14:50.000Z</time>
      </trkpt>
      <trkpt lat="47.44883" lon="6.72303">
        <ele>467</ele>
        <time>2015-03-08T11:14:51.000Z</time>
      </trkpt>
      <trkpt lat="47.44891" lon="6.72308">
        <ele>466</ele>
        <time>2015-03-08T11:14:52.000Z</time>
      </trkpt>
      <trkpt lat="47.449" lon="6.72313">
        <ele>466</ele>
        <time>2015-03-08T11:14:53.000Z</time>
      </trkpt>
      <trkpt lat="47.44908" lon="6.7232">
        <ele>466</ele>
        <time>2015-03-08T11:14:54.000Z</time>
      </trkpt>
      <trkpt lat="47.44917" lon="6.72326">
        <ele>465</ele>
        <time>2015-03-08T11:14:55.000Z</time>
      </trkpt>
      <trkpt lat="47.44924" lon="6.72332">
        <ele>463</ele>
        <time>2015-03-08T11:14:56.000Z</time>
      </trkpt>
      <trkpt lat="47.44933" lon="6.72338">
        <ele>464</ele>
        <time>2015-03-08T11:14:57.000Z</time>
      </trkpt>
      <trkpt lat="47.44941" lon="6.72345">
        <ele>463</ele>
        <time>2015-03-08T11:14:58.000Z</time>
      </trkpt>
      <trkpt lat="47.44948" lon="6.72352">
        <ele>462</ele>
        <time>2015-03-08T11:14:59.000Z</time>
      </trkpt>
      <trkpt lat="47.44956" lon="6.72358">
        <ele>462</ele>
        <time>2015-03-08T11:15:00.000Z</time>
      </trkpt>
      <trkpt lat="47.44964" lon="6.72364">
        <ele>462</ele>
        <time>2015-03-08T11:15:01.000Z</time>
      </trkpt>
      <trkpt lat="47.44972" lon="6.72371">
        <ele>461</ele>
        <time>2015-03-08T11:15:02.000Z</time>
      </trkpt>
      <trkpt lat="47.44979" lon="6.72377">
        <ele>461</ele>
        <time>2015-03-08T11:15:03.000Z</time>
      </trkpt>
      <trkpt lat="47.44986" lon="6.72383">
        <ele>461</ele>
        <time>2015-03-08T11:15:04.000Z</time>
      </trkpt>
      <trkpt lat="47.44993" lon="6.7239">
        <ele>461</ele>
        <time>2015-03-08T11:15:05.000Z</time>
      </trkpt>
      <trkpt lat="47.45001" lon="6.72395">
        <ele>455</ele>
        <time>2015-03-08T11:15:06.000Z</time>
      </trkpt>
      <trkpt lat="47.45008" lon="6.724">
        <ele>455</ele>
        <time>2015-03-08T11:15:07.000Z</time>
      </trkpt>
      <trkpt lat="47.45015" lon="6.72406">
        <ele>455</ele>
        <time>2015-03-08T11:15:08.000Z</time>
      </trkpt>
      <trkpt lat="47.45022" lon="6.72411">
        <ele>455</ele>
        <time>2015-03-08T11:15:09.000Z</time>
      </trkpt>
      <trkpt lat="47.45029" lon="6.72417">
        <ele>457</ele>
        <time>2015-03-08T11:15:10.000Z</time>
      </trkpt>
      <trkpt lat="47.45037" lon="6.72423">
        <ele>456</ele>
        <time>2015-03-08T11:15:11.000Z</time>
      </trkpt>
      <trkpt lat="47.45045" lon="6.72427">
        <ele>455</ele>
        <time>2015-03-08T11:15:12.000Z</time>
      </trkpt>
      <trkpt lat="47.45052" lon="6.72432">
        <ele>455</ele>
        <time>2015-03-08T11:15:13.000Z</time>
      </trkpt>
      <trkpt lat="47.45059" lon="6.72438">
        <ele>455</ele>
        <time>2015-03-08T11:15:14.000Z</time>
      </trkpt>
      <trkpt lat="47.45067" lon="6.72443">
        <ele>454</ele>
        <time>2015-03-08T11:15:15.000Z</time>
      </trkpt>
      <trkpt lat="47.45074" lon="6.72448">
        <ele>454</ele>
        <time>2015-03-08T11:15:16.000Z</time>
      </trkpt>
      <trkpt lat="47.45081" lon="6.72452">
        <ele>454</ele>
        <time>2015-03-08T11:15:17.000Z</time>
      </trkpt>
      <trkpt lat="47.45088" lon="6.72458">
        <ele>450</ele>
        <time>2015-03-08T11:15:18.000Z</time>
      </trkpt>
      <trkpt lat="47.45095" lon="6.72462">
        <ele>450</ele>
        <time>2015-03-08T11:15:19.000Z</time>
      </trkpt>
      <trkpt lat="47.45102" lon="6.72467">
        <ele>450</ele>
        <time>2015-03-08T11:15:20.000Z</time>
      </trkpt>
      <trkpt lat="47.45109" lon="6.72471">
        <ele>450</ele>
        <time>2015-03-08T11:15:21.000Z</time>
      </trkpt>
      <trkpt lat="47.45115" lon="6.72476">
        <ele>450</ele>
        <time>2015-03-08T11:15:22.000Z</time>
      </trkpt>
      <trkpt lat="47.45122" lon="6.72482">
        <ele>450</ele>
        <time>2015-03-08T11:15:23.000Z</time>
      </trkpt>
      <trkpt lat="47.45129" lon="6.72486">
        <ele>450</ele>
        <time>2015-03-08T11:15:24.000Z</time>
      </trkpt>
      <trkpt lat="47.45135" lon="6.7249">
        <ele>450</ele>
        <time>2015-03-08T11:15:25.000Z</time>
      </trkpt>
      <trkpt lat="47.45141" lon="6.72494">
        <ele>450</ele>
        <time>2015-03-08T11:15:26.000Z</time>
      </trkpt>
      <trkpt lat="47.45147" lon="6.72498">
        <ele>450</ele>
        <time>2015-03-08T11:15:27.000Z</time>
      </trkpt>
      <trkpt lat="47.45153" lon="6.72502">
        <ele>450</ele>
        <time>2015-03-08T11:15:28.000Z</time>
      </trkpt>
      <trkpt lat="47.45159" lon="6.72507">
        <ele>450</ele>
        <time>2015-03-08T11:15:29.000Z</time>
      </trkpt>
      <trkpt lat="47.45164" lon="6.72511">
        <ele>450</ele>
        <time>2015-03-08T11:15:30.000Z</time>
      </trkpt>
      <trkpt lat="47.4517" lon="6.72515">
        <ele>450</ele>
        <time>2015-03-08T11:15:31.000Z</time>
      </trkpt>
      <trkpt lat="47.45175" lon="6.72519">
        <ele>450</ele>
        <time>2015-03-08T11:15:32.000Z</time>
      </trkpt>
      <trkpt lat="47.45181" lon="6.72523">
        <ele>450</ele>
        <time>2015-03-08T11:15:33.000Z</time>
      </trkpt>
      <trkpt lat="47.45186" lon="6.72526">
        <ele>450</ele>
        <time>2015-03-08T11:15:34.000Z</time>
      </trkpt>
      <trkpt lat="47.45191" lon="6.72529">
        <ele>451</ele>
        <time>2015-03-08T11:15:35.000Z</time>
      </trkpt>
      <trkpt lat="47.45196" lon="6.72532">
        <ele>451</ele>
        <time>2015-03-08T11:15:36.000Z</time>
      </trkpt>
      <trkpt lat="47.45201" lon="6.72536">
        <ele>451</ele>
        <time>2015-03-08T11:15:37.000Z</time>
      </trkpt>
      <trkpt lat="47.45206" lon="6.7254">
        <ele>451</ele>
        <time>2015-03-08T11:15:38.000Z</time>
      </trkpt>
      <trkpt lat="47.45211" lon="6.72544">
        <ele>451</ele>
        <time>2015-03-08T11:15:39.000Z</time>
      </trkpt>
      <trkpt lat="47.45215" lon="6.72547">
        <ele>451</ele>
        <time>2015-03-08T11:15:40.000Z</time>
      </trkpt>
      <trkpt lat="47.4522" lon="6.72551">
        <ele>451</ele>
        <time>2015-03-08T11:15:41.000Z</time>
      </trkpt>
      <trkpt lat="47.45225" lon="6.72553">
        <ele>451</ele>
        <time>2015-03-08T11:15:42.000Z</time>
      </trkpt>
      <trkpt lat="47.45229" lon="6.72557">
        <ele>451</ele>
        <time>2015-03-08T11:15:43.000Z</time>
      </trkpt>
      <trkpt lat="47.45232" lon="6.7256">
        <ele>452</ele>
        <time>2015-03-08T11:15:44.000Z</time>
      </trkpt>
      <trkpt lat="47.45237" lon="6.72562">
        <ele>452</ele>
        <time>2015-03-08T11:15:45.000Z</time>
      </trkpt>
      <trkpt lat="47.4524" lon="6.72565">
        <ele>452</ele>
        <time>2015-03-08T11:15:46.000Z</time>
      </trkpt>
      <trkpt lat="47.45244" lon="6.72568">
        <ele>452</ele>
        <time>2015-03-08T11:15:47.000Z</time>
      </trkpt>
      <trkpt lat="47.45247" lon="6.7257">
        <ele>452</ele>
        <time>2015-03-08T11:15:48.000Z</time>
      </trkpt>
      <trkpt lat="47.45251" lon="6.72573">
        <ele>452</ele>
        <time>2015-03-08T11:15:49.000Z</time>
      </trkpt>
      <trkpt lat="47.45254" lon="6.72575">
        <ele>452</ele>
        <time>2015-03-08T11:15:50.000Z</time>
      </trkpt>
      <trkpt lat="47.45258" lon="6.72577">
        <ele>452</ele>
        <time>2015-03-08T11:15:51.000Z</time>
      </trkpt>
      <trkpt lat="47.45261" lon="6.72579">
        <ele>452</ele>
        <time>2015-03-08T11:15:52.000Z</time>
      </trkpt>
      <trkpt lat="47.45265" lon="6.72581">
        <ele>452</ele>
        <time>2015-03-08T11:15:53.000Z</time>
      </trkpt>
      <trkpt lat="47.45269" lon="6.72584">
        <ele>453</ele>
        <time>2015-03-08T11:15:54.000Z</time>
      </trkpt>
      <trkpt lat="47.45272" lon="6.72586">
        <ele>453</ele>
        <time>2015-03-08T11:15:55.000Z</time>
      </trkpt>
      <trkpt lat="47.45276" lon="6.72589">
        <ele>453</ele>
        <time>2015-03-08T11:15:56.000Z</time>
      </trkpt>
      <trkpt lat="47.45279" lon="6.72591">
        <ele>453</ele>
        <time>2015-03-08T11:15:57.000Z</time>
      </trkpt>
      <trkpt lat="47.45283" lon="6.72593">
        <ele>453</ele>
        <time>2015-03-08T11:15:58.000Z</time>
      </trkpt>
      <trkpt lat="47.45286" lon="6.72596">
        <ele>453</ele>
        <time>2015-03-08T11:15:59.000Z</time>
      </trkpt>
      <trkpt lat="47.4529" lon="6.72598">
        <ele>453</ele>
        <time>2015-03-08T11:16:00.000Z</time>
      </trkpt>
      <trkpt lat="47.45293" lon="6.72601">
        <ele>453</ele>
        <time>2015-03-08T11:16:01.000Z</time>
      </trkpt>
      <trkpt lat="47.45297" lon="6.72604">
        <ele>453</ele>
        <time>2015-03-08T11:16:02.000Z</time>
      </trkpt>
      <trkpt lat="47.45301" lon="6.72606">
        <ele>453</ele>
        <time>2015-03-08T11:16:03.000Z</time>
      </trkpt>
      <trkpt lat="47.45304" lon="6.72609">
        <ele>453</ele>
        <time>2015-03-08T11:16:04.000Z</time>
      </trkpt>
      <trkpt lat="47.45308" lon="6.72612">
        <ele>453</ele>
        <time>2015-03-08T11:16:05.000Z</time>
      </trkpt>
      <trkpt lat="47.45312" lon="6.72615">
        <ele>453</ele>
        <time>2015-03-08T11:16:06.000Z</time>
      </trkpt>
      <trkpt lat="47.45315" lon="6.72619">
        <ele>453</ele>
        <time>2015-03-08T11:16:07.000Z</time>
      </trkpt>
      <trkpt lat="47.45319" lon="6.72622">
        <ele>453</ele>
        <time>2015-03-08T11:16:08.000Z</time>
      </trkpt>
      <trkpt lat="47.45322" lon="6.72626">
        <ele>454</ele>
        <time>2015-03-08T11:16:09.000Z</time>
      </trkpt>
      <trkpt lat="47.45326" lon="6.72629">
        <ele>454</ele>
        <time>2015-03-08T11:16:10.000Z</time>
      </trkpt>
      <trkpt lat="47.45329" lon="6.72633">
        <ele>454</ele>
        <time>2015-03-08T11:16:11.000Z</time>
      </trkpt>
      <trkpt lat="47.45332" lon="6.72636">
        <ele>454</ele>
        <time>2015-03-08T11:16:12.000Z</time>
      </trkpt>
      <trkpt lat="47.45335" lon="6.7264">
        <ele>453</ele>
        <time>2015-03-08T11:16:13.000Z</time>
      </trkpt>
      <trkpt lat="47.45338" lon="6.72644">
        <ele>454</ele>
        <time>2015-03-08T11:16:14.000Z</time>
      </trkpt>
      <trkpt lat="47.45342" lon="6.72647">
        <ele>454</ele>
        <time>2015-03-08T11:16:15.000Z</time>
      </trkpt>
      <trkpt lat="47.45345" lon="6.72651">
        <ele>454</ele>
        <time>2015-03-08T11:16:16.000Z</time>
      </trkpt>
      <trkpt lat="47.45348" lon="6.72655">
        <ele>454</ele>
        <time>2015-03-08T11:16:17.000Z</time>
      </trkpt>
      <trkpt lat="47.45351" lon="6.72659">
        <ele>454</ele>
        <time>2015-03-08T11:16:18.000Z</time>
      </trkpt>
      <trkpt lat="47.45354" lon="6.72663">
        <ele>454</ele>
        <time>2015-03-08T11:16:19.000Z</time>
      </trkpt>
      <trkpt lat="47.45358" lon="6.72667">
        <ele>456</ele>
        <time>2015-03-08T11:16:20.000Z</time>
      </trkpt>
      <trkpt lat="47.45361" lon="6.72671">
        <ele>456</ele>
        <time>2015-03-08T11:16:21.000Z</time>
      </trkpt>
      <trkpt lat="47.45364" lon="6.72675">
        <ele>456</ele>
        <time>2015-03-08T11:16:22.000Z</time>
      </trkpt>
      <trkpt lat="47.45368" lon="6.72678">
        <ele>456</ele>
        <time>2015-03-08T11:16:23.000Z</time>
      </trkpt>
      <trkpt lat="47.45371" lon="6.72682">
        <ele>456</ele>
        <time>2015-03-08T11:16:24.000Z</time>
      </trkpt>
      <trkpt lat="47.45374" lon="6.72686">
        <ele>456</ele>
        <time>2015-03-08T11:16:25.000Z</time>
      </trkpt>
      <trkpt lat="47.45377" lon="6.7269">
        <ele>456</ele>
        <time>2015-03-08T11:16:26.000Z</time>
      </trkpt>
      <trkpt lat="47.45381" lon="6.72693">
        <ele>456</ele>
        <time>2015-03-08T11:16:27.000Z</time>
      </trkpt>
      <trkpt lat="47.45384" lon="6.72697">
        <ele>456</ele>
        <time>2015-03-08T11:16:28.000Z</time>
      </trkpt>
      <trkpt lat="47.45387" lon="6.72701">
        <ele>456</ele>
        <time>2015-03-08T11:16:29.000Z</time>
      </trkpt>
      <trkpt lat="47.4539" lon="6.72704">
        <ele>456</ele>
        <time>2015-03-08T11:16:30.000Z</time>
      </trkpt>
      <trkpt lat="47.45393" lon="6.72708">
        <ele>456</ele>
        <time>2015-03-08T11:16:31.000Z</time>
      </trkpt>
      <trkpt lat="47.45396" lon="6.72711">
        <ele>457</ele>
        <time>2015-03-08T11:16:32.000Z</time>
      </trkpt>
      <trkpt lat="47.45399" lon="6.72714">
        <ele>457</ele>
        <time>2015-03-08T11:16:33.000Z</time>
      </trkpt>
      <trkpt lat="47.45403" lon="6.72716">
        <ele>457</ele>
        <time>2015-03-08T11:16:34.000Z</time>
      </trkpt>
      <trkpt lat="47.45407" lon="6.72719">
        <ele>457</ele>
        <time>2015-03-08T11:16:35.000Z</time>
      </trkpt>
      <trkpt lat="47.4541" lon="6.72722">
        <ele>457</ele>
        <time>2015-03-08T11:16:36.000Z</time>
      </trkpt>
      <trkpt lat="47.45414" lon="6.72724">
        <ele>457</ele>
        <time>2015-03-08T11:16:37.000Z</time>
      </trkpt>
      <trkpt lat="47.45418" lon="6.72725">
        <ele>456</ele>
        <time>2015-03-08T11:16:38.000Z</time>
      </trkpt>
      <trkpt lat="47.45422" lon="6.72726">
        <ele>456</ele>
        <time>2015-03-08T11:16:39.000Z</time>
      </trkpt>
      <trkpt lat="47.45426" lon="6.72726">
        <ele>456</ele>
        <time>2015-03-08T11:16:40.000Z</time>
      </trkpt>
      <trkpt lat="47.4543" lon="6.72726">
        <ele>456</ele>
        <time>2015-03-08T11:16:41.000Z</time>
      </trkpt>
      <trkpt lat="47.45434" lon="6.72725">
        <ele>456</ele>
        <time>2015-03-08T11:16:42.000Z</time>
      </trkpt>
      <trkpt lat="47.45438" lon="6.72724">
        <ele>456</ele>
        <time>2015-03-08T11:16:43.000Z</time>
      </trkpt>
      <trkpt lat="47.45442" lon="6.72723">
        <ele>456</ele>
        <time>2015-03-08T11:16:44.000Z</time>
      </trkpt>
      <trkpt lat="47.45446" lon="6.72724">
        <ele>456</ele>
        <time>2015-03-08T11:16:45.000Z</time>
      </trkpt>
      <trkpt lat="47.45449" lon="6.72726">
        <ele>456</ele>
        <time>2015-03-08T11:16:46.000Z</time>
      </trkpt>
      <trkpt lat="47.45452" lon="6.72729">
        <ele>456</ele>
        <time>2015-03-08T11:16:47.000Z</time>
      </trkpt>
      <trkpt lat="47.45453" lon="6.72733">
        <ele>456</ele>
        <time>2015-03-08T11:16:48.000Z</time>
      </trkpt>
      <trkpt lat="47.45454" lon="6.72736">
        <ele>456</ele>
        <time>2015-03-08T11:16:49.000Z</time>
      </trkpt>
      <trkpt lat="47.45452" lon="6.72742">
        <ele>456</ele>
        <time>2015-03-08T11:16:51.000Z</time>
      </trkpt>
      <trkpt lat="47.4545" lon="6.72744">
        <ele>456</ele>
        <time>2015-03-08T11:16:52.000Z</time>
      </trkpt>
      <trkpt lat="47.45449" lon="6.72747">
        <ele>456</ele>
        <time>2015-03-08T11:16:53.000Z</time>
      </trkpt>
      <trkpt lat="47.45447" lon="6.7275">
        <ele>456</ele>
        <time>2015-03-08T11:16:54.000Z</time>
      </trkpt>
      <trkpt lat="47.45444" lon="6.72753">
        <ele>461</ele>
        <time>2015-03-08T11:16:56.000Z</time>
      </trkpt>
      <trkpt lat="47.45443" lon="6.72754">
        <ele>461</ele>
        <time>2015-03-08T11:16:57.000Z</time>
      </trkpt>
      <trkpt lat="47.45444" lon="6.72748">
        <ele>456</ele>
        <time>2015-03-08T11:17:14.000Z</time>
      </trkpt>
      <trkpt lat="47.45444" lon="6.72748">
        <ele>456</ele>
        <time>2015-03-08T11:17:15.000Z</time>
      </trkpt>
      <trkpt lat="47.45444" lon="6.72753">
        <ele>461</ele>
        <time>2015-03-08T11:19:12.000Z</time>
      </trkpt>
      <trkpt lat="47.45444" lon="6.72755">
        <ele>461</ele>
        <time>2015-03-08T11:19:13.000Z</time>
      </trkpt>
      <trkpt lat="47.45443" lon="6.7276">
        <ele>461</ele>
        <time>2015-03-08T11:19:17.000Z</time>
      </trkpt>
      <trkpt lat="47.45443" lon="6.72762">
        <ele>461</ele>
        <time>2015-03-08T11:19:18.000Z</time>
      </trkpt>
      <trkpt lat="47.45442" lon="6.72768">
        <ele>462</ele>
        <time>2015-03-08T11:19:24.000Z</time>
      </trkpt>
      <trkpt lat="47.45442" lon="6.72769">
        <ele>462</ele>
        <time>2015-03-08T11:19:25.000Z</time>
      </trkpt>
      <trkpt lat="47.45444" lon="6.72771">
        <ele>462</ele>
        <time>2015-03-08T11:19:28.000Z</time>
      </trkpt>
      <trkpt lat="47.45446" lon="6.72771">
        <ele>462</ele>
        <time>2015-03-08T11:19:29.000Z</time>
      </trkpt>
      <trkpt lat="47.45448" lon="6.72772">
        <ele>462</ele>
        <time>2015-03-08T11:19:30.000Z</time>
      </trkpt>
      <trkpt lat="47.45451" lon="6.72774">
        <ele>462</ele>
        <time>2015-03-08T11:19:31.000Z</time>
      </trkpt>
      <trkpt lat="47.45453" lon="6.72776">
        <ele>462</ele>
        <time>2015-03-08T11:19:32.000Z</time>
      </trkpt>
      <trkpt lat="47.45456" lon="6.72778">
        <ele>462</ele>
        <time>2015-03-08T11:19:33.000Z</time>
      </trkpt>
      <trkpt lat="47.45458" lon="6.72782">
        <ele>462</ele>
        <time>2015-03-08T11:19:35.000Z</time>
      </trkpt>
      <trkpt lat="47.45457" lon="6.72787">
        <ele>463</ele>
        <time>2015-03-08T11:19:36.000Z</time>
      </trkpt>
      <trkpt lat="47.45459" lon="6.72792">
        <ele>463</ele>
        <time>2015-03-08T11:19:41.000Z</time>
      </trkpt>
      <trkpt lat="47.4546" lon="6.72794">
        <ele>463</ele>
        <time>2015-03-08T11:19:42.000Z</time>
      </trkpt>
      <trkpt lat="47.45463" lon="6.72798">
        <ele>463</ele>
        <time>2015-03-08T11:19:44.000Z</time>
      </trkpt>
      <trkpt lat="47.45464" lon="6.728">
        <ele>464</ele>
        <time>2015-03-08T11:19:45.000Z</time>
      </trkpt>
      <trkpt lat="47.45468" lon="6.72804">
        <ele>464</ele>
        <time>2015-03-08T11:19:47.000Z</time>
      </trkpt>
      <trkpt lat="47.45469" lon="6.72805">
        <ele>464</ele>
        <time>2015-03-08T11:19:48.000Z</time>
      </trkpt>
      <trkpt lat="47.45472" lon="6.7281">
        <ele>464</ele>
        <time>2015-03-08T11:19:51.000Z</time>
      </trkpt>
      <trkpt lat="47.45473" lon="6.72812">
        <ele>464</ele>
        <time>2015-03-08T11:19:52.000Z</time>
      </trkpt>
      <trkpt lat="47.45474" lon="6.72815">
        <ele>465</ele>
        <time>2015-03-08T11:19:54.000Z</time>
      </trkpt>
      <trkpt lat="47.45475" lon="6.72818">
        <ele>465</ele>
        <time>2015-03-08T11:19:55.000Z</time>
      </trkpt>
      <trkpt lat="47.45477" lon="6.72821">
        <ele>465</ele>
        <time>2015-03-08T11:19:57.000Z</time>
      </trkpt>
      <trkpt lat="47.4548" lon="6.72821">
        <ele>465</ele>
        <time>2015-03-08T11:19:58.000Z</time>
      </trkpt>
      <trkpt lat="47.45482" lon="6.72822">
        <ele>466</ele>
        <time>2015-03-08T11:19:59.000Z</time>
      </trkpt>
      <trkpt lat="47.45485" lon="6.72821">
        <ele>466</ele>
        <time>2015-03-08T11:20:00.000Z</time>
      </trkpt>
      <trkpt lat="47.45488" lon="6.72821">
        <ele>466</ele>
        <time>2015-03-08T11:20:01.000Z</time>
      </trkpt>
      <trkpt lat="47.45489" lon="6.72821">
        <ele>466</ele>
        <time>2015-03-08T11:20:02.000Z</time>
      </trkpt>
      <trkpt lat="47.45492" lon="6.72826">
        <ele>467</ele>
        <time>2015-03-08T11:20:08.000Z</time>
      </trkpt>
      <trkpt lat="47.45494" lon="6.72827">
        <ele>467</ele>
        <time>2015-03-08T11:20:09.000Z</time>
      </trkpt>
      <trkpt lat="47.45497" lon="6.7283">
        <ele>468</ele>
        <time>2015-03-08T11:20:11.000Z</time>
      </trkpt>
      <trkpt lat="47.45499" lon="6.72832">
        <ele>469</ele>
        <time>2015-03-08T11:20:12.000Z</time>
      </trkpt>
      <trkpt lat="47.45502" lon="6.72835">
        <ele>469</ele>
        <time>2015-03-08T11:20:14.001Z</time>
      </trkpt>
      <trkpt lat="47.45502" lon="6.72841">
        <ele>468</ele>
        <time>2015-03-08T11:20:15.000Z</time>
      </trkpt>
      <trkpt lat="47.45502" lon="6.72847">
        <ele>467</ele>
        <time>2015-03-08T11:20:17.000Z</time>
      </trkpt>
      <trkpt lat="47.45503" lon="6.72849">
        <ele>467</ele>
        <time>2015-03-08T11:20:18.000Z</time>
      </trkpt>
      <trkpt lat="47.45506" lon="6.72853">
        <ele>467</ele>
        <time>2015-03-08T11:20:20.000Z</time>
      </trkpt>
      <trkpt lat="47.45507" lon="6.72856">
        <ele>467</ele>
        <time>2015-03-08T11:20:21.000Z</time>
      </trkpt>
      <trkpt lat="47.45508" lon="6.72861">
        <ele>467</ele>
        <time>2015-03-08T11:20:23.000Z</time>
      </trkpt>
      <trkpt lat="47.45508" lon="6.72864">
        <ele>467</ele>
        <time>2015-03-08T11:20:24.000Z</time>
      </trkpt>
      <trkpt lat="47.45508" lon="6.7287">
        <ele>467</ele>
        <time>2015-03-08T11:20:28.000Z</time>
      </trkpt>
      <trkpt lat="47.45508" lon="6.72872">
        <ele>467</ele>
        <time>2015-03-08T11:20:29.000Z</time>
      </trkpt>
      <trkpt lat="47.45507" lon="6.72877">
        <ele>467</ele>
        <time>2015-03-08T11:20:32.000Z</time>
      </trkpt>
      <trkpt lat="47.45507" lon="6.7288">
        <ele>467</ele>
        <time>2015-03-08T11:20:33.000Z</time>
      </trkpt>
      <trkpt lat="47.45508" lon="6.72884">
        <ele>467</ele>
        <time>2015-03-08T11:20:35.000Z</time>
      </trkpt>
      <trkpt lat="47.45509" lon="6.72887">
        <ele>467</ele>
        <time>2015-03-08T11:20:36.000Z</time>
      </trkpt>
      <trkpt lat="47.4551" lon="6.72892">
        <ele>468</ele>
        <time>2015-03-08T11:20:38.000Z</time>
      </trkpt>
      <trkpt lat="47.45512" lon="6.72894">
        <ele>468</ele>
        <time>2015-03-08T11:20:39.000Z</time>
      </trkpt>
      <trkpt lat="47.45513" lon="6.72899">
        <ele>468</ele>
        <time>2015-03-08T11:20:43.000Z</time>
      </trkpt>
      <trkpt lat="47.45514" lon="6.72901">
        <ele>468</ele>
        <time>2015-03-08T11:20:44.000Z</time>
      </trkpt>
      <trkpt lat="47.45517" lon="6.72906">
        <ele>468</ele>
        <time>2015-03-08T11:20:48.000Z</time>
      </trkpt>
      <trkpt lat="47.45517" lon="6.72908">
        <ele>468</ele>
        <time>2015-03-08T11:20:49.000Z</time>
      </trkpt>
      <trkpt lat="47.45517" lon="6.72914">
        <ele>468</ele>
        <time>2015-03-08T11:20:51.000Z</time>
      </trkpt>
      <trkpt lat="47.45517" lon="6.72917">
        <ele>468</ele>
        <time>2015-03-08T11:20:52.000Z</time>
      </trkpt>
      <trkpt lat="47.45518" lon="6.72923">
        <ele>470</ele>
        <time>2015-03-08T11:20:55.000Z</time>
      </trkpt>
      <trkpt lat="47.45518" lon="6.72925">
        <ele>469</ele>
        <time>2015-03-08T11:20:56.000Z</time>
      </trkpt>
      <trkpt lat="47.45519" lon="6.72931">
        <ele>469</ele>
        <time>2015-03-08T11:20:59.000Z</time>
      </trkpt>
      <trkpt lat="47.45519" lon="6.72933">
        <ele>469</ele>
        <time>2015-03-08T11:21:00.000Z</time>
      </trkpt>
      <trkpt lat="47.45519" lon="6.72939">
        <ele>469</ele>
        <time>2015-03-08T11:21:02.000Z</time>
      </trkpt>
      <trkpt lat="47.45521" lon="6.7294">
        <ele>469</ele>
        <time>2015-03-08T11:21:03.000Z</time>
      </trkpt>
      <trkpt lat="47.45522" lon="6.72944">
        <ele>469</ele>
        <time>2015-03-08T11:21:05.000Z</time>
      </trkpt>
      <trkpt lat="47.45523" lon="6.72947">
        <ele>469</ele>
        <time>2015-03-08T11:21:06.000Z</time>
      </trkpt>
      <trkpt lat="47.45524" lon="6.72953">
        <ele>469</ele>
        <time>2015-03-08T11:21:08.000Z</time>
      </trkpt>
      <trkpt lat="47.45525" lon="6.72954">
        <ele>469</ele>
        <time>2015-03-08T11:21:09.000Z</time>
      </trkpt>
      <trkpt lat="47.45528" lon="6.72957">
        <ele>469</ele>
        <time>2015-03-08T11:21:12.000Z</time>
      </trkpt>
      <trkpt lat="47.45529" lon="6.72958">
        <ele>469</ele>
        <time>2015-03-08T11:21:13.000Z</time>
      </trkpt>
      <trkpt lat="47.45531" lon="6.72961">
        <ele>469</ele>
        <time>2015-03-08T11:21:15.000Z</time>
      </trkpt>
      <trkpt lat="47.45533" lon="6.72964">
        <ele>469</ele>
        <time>2015-03-08T11:21:16.000Z</time>
      </trkpt>
      <trkpt lat="47.45535" lon="6.72967">
        <ele>469</ele>
        <time>2015-03-08T11:21:17.000Z</time>
      </trkpt>
      <trkpt lat="47.45537" lon="6.7297">
        <ele>469</ele>
        <time>2015-03-08T11:21:18.000Z</time>
      </trkpt>
      <trkpt lat="47.4554" lon="6.72972">
        <ele>469</ele>
        <time>2015-03-08T11:21:19.000Z</time>
      </trkpt>
      <trkpt lat="47.45542" lon="6.72974">
        <ele>469</ele>
        <time>2015-03-08T11:21:20.001Z</time>
      </trkpt>
      <trkpt lat="47.45544" lon="6.72978">
        <ele>469</ele>
        <time>2015-03-08T11:21:21.000Z</time>
      </trkpt>
      <trkpt lat="47.45546" lon="6.72981">
        <ele>469</ele>
        <time>2015-03-08T11:21:22.000Z</time>
      </trkpt>
      <trkpt lat="47.45547" lon="6.72983">
        <ele>469</ele>
        <time>2015-03-08T11:21:23.000Z</time>
      </trkpt>
      <trkpt lat="47.45549" lon="6.72986">
        <ele>468</ele>
        <time>2015-03-08T11:21:24.000Z</time>
      </trkpt>
      <trkpt lat="47.45552" lon="6.72989">
        <ele>468</ele>
        <time>2015-03-08T11:21:26.000Z</time>
      </trkpt>
      <trkpt lat="47.45554" lon="6.72991">
        <ele>468</ele>
        <time>2015-03-08T11:21:27.000Z</time>
      </trkpt>
      <trkpt lat="47.45556" lon="6.72995">
        <ele>468</ele>
        <time>2015-03-08T11:21:29.000Z</time>
      </trkpt>
      <trkpt lat="47.45558" lon="6.72997">
        <ele>468</ele>
        <time>2015-03-08T11:21:30.000Z</time>
      </trkpt>
      <trkpt lat="47.45559" lon="6.72999">
        <ele>468</ele>
        <time>2015-03-08T11:21:31.000Z</time>
      </trkpt>
      <trkpt lat="47.4556" lon="6.73003">
        <ele>468</ele>
        <time>2015-03-08T11:21:32.000Z</time>
      </trkpt>
      <trkpt lat="47.45561" lon="6.73007">
        <ele>468</ele>
        <time>2015-03-08T11:21:33.000Z</time>
      </trkpt>
      <trkpt lat="47.45562" lon="6.73011">
        <ele>468</ele>
        <time>2015-03-08T11:21:34.000Z</time>
      </trkpt>
      <trkpt lat="47.45563" lon="6.73016">
        <ele>468</ele>
        <time>2015-03-08T11:21:35.000Z</time>
      </trkpt>
      <trkpt lat="47.45562" lon="6.73021">
        <ele>469</ele>
        <time>2015-03-08T11:21:36.000Z</time>
      </trkpt>
      <trkpt lat="47.45563" lon="6.73026">
        <ele>469</ele>
        <time>2015-03-08T11:21:37.000Z</time>
      </trkpt>
      <trkpt lat="47.45563" lon="6.7303">
        <ele>469</ele>
        <time>2015-03-08T11:21:38.000Z</time>
      </trkpt>
      <trkpt lat="47.45564" lon="6.73034">
        <ele>469</ele>
        <time>2015-03-08T11:21:39.000Z</time>
      </trkpt>
      <trkpt lat="47.45565" lon="6.73037">
        <ele>469</ele>
        <time>2015-03-08T11:21:40.000Z</time>
      </trkpt>
      <trkpt lat="47.45568" lon="6.73042">
        <ele>469</ele>
        <time>2015-03-08T11:21:42.000Z</time>
      </trkpt>
      <trkpt lat="47.45569" lon="6.73045">
        <ele>469</ele>
        <time>2015-03-08T11:21:43.000Z</time>
      </trkpt>
      <trkpt lat="47.45572" lon="6.7305">
        <ele>469</ele>
        <time>2015-03-08T11:21:45.000Z</time>
      </trkpt>
      <trkpt lat="47.45573" lon="6.73052">
        <ele>469</ele>
        <time>2015-03-08T11:21:46.000Z</time>
      </trkpt>
      <trkpt lat="47.45575" lon="6.73057">
        <ele>469</ele>
        <time>2015-03-08T11:21:49.000Z</time>
      </trkpt>
      <trkpt lat="47.45576" lon="6.73058">
        <ele>469</ele>
        <time>2015-03-08T11:21:50.000Z</time>
      </trkpt>
      <trkpt lat="47.45578" lon="6.73058">
        <ele>469</ele>
        <time>2015-03-08T11:21:51.000Z</time>
      </trkpt>
      <trkpt lat="47.4558" lon="6.73061">
        <ele>469</ele>
        <time>2015-03-08T11:21:52.000Z</time>
      </trkpt>
      <trkpt lat="47.45584" lon="6.73064">
        <ele>468</ele>
        <time>2015-03-08T11:21:55.000Z</time>
      </trkpt>
      <trkpt lat="47.45584" lon="6.73065">
        <ele>468</ele>
        <time>2015-03-08T11:21:56.000Z</time>
      </trkpt>
      <trkpt lat="47.45585" lon="6.7307">
        <ele>469</ele>
        <time>2015-03-08T11:22:00.000Z</time>
      </trkpt>
      <trkpt lat="47.45586" lon="6.73072">
        <ele>469</ele>
        <time>2015-03-08T11:22:01.000Z</time>
      </trkpt>
      <trkpt lat="47.45588" lon="6.73078">
        <ele>469</ele>
        <time>2015-03-08T11:22:04.000Z</time>
      </trkpt>
      <trkpt lat="47.45588" lon="6.7308">
        <ele>469</ele>
        <time>2015-03-08T11:22:05.000Z</time>
      </trkpt>
      <trkpt lat="47.45589" lon="6.73084">
        <ele>470</ele>
        <time>2015-03-08T11:22:07.000Z</time>
      </trkpt>
      <trkpt lat="47.45588" lon="6.73087">
        <ele>470</ele>
        <time>2015-03-08T11:22:08.000Z</time>
      </trkpt>
      <trkpt lat="47.45587" lon="6.73093">
        <ele>470</ele>
        <time>2015-03-08T11:23:42.000Z</time>
      </trkpt>
      <trkpt lat="47.45586" lon="6.73093">
        <ele>470</ele>
        <time>2015-03-08T11:23:43.000Z</time>
      </trkpt>
      <trkpt lat="47.45586" lon="6.73099">
        <ele>469</ele>
        <time>2015-03-08T11:25:36.000Z</time>
      </trkpt>
      <trkpt lat="47.45587" lon="6.73101">
        <ele>469</ele>
        <time>2015-03-08T11:25:37.000Z</time>
      </trkpt>
      <trkpt lat="47.45588" lon="6.73105">
        <ele>469</ele>
        <time>2015-03-08T11:25:39.000Z</time>
      </trkpt>
      <trkpt lat="47.45589" lon="6.73107">
        <ele>469</ele>
        <time>2015-03-08T11:25:40.000Z</time>
      </trkpt>
      <trkpt lat="47.45591" lon="6.73112">
        <ele>469</ele>
        <time>2015-03-08T11:25:42.000Z</time>
      </trkpt>
      <trkpt lat="47.45593" lon="6.73114">
        <ele>469</ele>
        <time>2015-03-08T11:25:43.000Z</time>
      </trkpt>
      <trkpt lat="47.45595" lon="6.7312">
        <ele>469</ele>
        <time>2015-03-08T11:25:45.000Z</time>
      </trkpt>
      <trkpt lat="47.45596" lon="6.73123">
        <ele>469</ele>
        <time>2015-03-08T11:25:46.000Z</time>
      </trkpt>
      <trkpt lat="47.45597" lon="6.73129">
        <ele>469</ele>
        <time>2015-03-08T11:25:48.000Z</time>
      </trkpt>
      <trkpt lat="47.45598" lon="6.73132">
        <ele>469</ele>
        <time>2015-03-08T11:25:49.000Z</time>
      </trkpt>
      <trkpt lat="47.45599" lon="6.73135">
        <ele>469</ele>
        <time>2015-03-08T11:25:50.000Z</time>
      </trkpt>
      <trkpt lat="47.45599" lon="6.73139">
        <ele>469</ele>
        <time>2015-03-08T11:25:51.000Z</time>
      </trkpt>
      <trkpt lat="47.456" lon="6.73143">
        <ele>470</ele>
        <time>2015-03-08T11:25:52.000Z</time>
      </trkpt>
      <trkpt lat="47.456" lon="6.73147">
        <ele>470</ele>
        <time>2015-03-08T11:25:53.000Z</time>
      </trkpt>
      <trkpt lat="47.45599" lon="6.73151">
        <ele>470</ele>
        <time>2015-03-08T11:25:54.000Z</time>
      </trkpt>
      <trkpt lat="47.45598" lon="6.73154">
        <ele>470</ele>
        <time>2015-03-08T11:25:55.000Z</time>
      </trkpt>
      <trkpt lat="47.45597" lon="6.73157">
        <ele>470</ele>
        <time>2015-03-08T11:25:56.000Z</time>
      </trkpt>
      <trkpt lat="47.45595" lon="6.73159">
        <ele>470</ele>
        <time>2015-03-08T11:25:57.000Z</time>
      </trkpt>
      <trkpt lat="47.45593" lon="6.73161">
        <ele>470</ele>
        <time>2015-03-08T11:25:58.000Z</time>
      </trkpt>
      <trkpt lat="47.45591" lon="6.73163">
        <ele>470</ele>
        <time>2015-03-08T11:25:59.000Z</time>
      </trkpt>
      <trkpt lat="47.45588" lon="6.73167">
        <ele>470</ele>
        <time>2015-03-08T11:26:01.000Z</time>
      </trkpt>
      <trkpt lat="47.45587" lon="6.73169">
        <ele>471</ele>
        <time>2015-03-08T11:26:02.000Z</time>
      </trkpt>
      <trkpt lat="47.45587" lon="6.73174">
        <ele>470</ele>
        <time>2015-03-08T11:26:04.000Z</time>
      </trkpt>
      <trkpt lat="47.45587" lon="6.73177">
        <ele>470</ele>
        <time>2015-03-08T11:26:05.000Z</time>
      </trkpt>
      <trkpt lat="47.45588" lon="6.73182">
        <ele>470</ele>
        <time>2015-03-08T11:26:07.000Z</time>
      </trkpt>
      <trkpt lat="47.45589" lon="6.73184">
        <ele>470</ele>
        <time>2015-03-08T11:26:08.000Z</time>
      </trkpt>
      <trkpt lat="47.45589" lon="6.73189">
        <ele>469</ele>
        <time>2015-03-08T11:26:10.000Z</time>
      </trkpt>
      <trkpt lat="47.45589" lon="6.73191">
        <ele>469</ele>
        <time>2015-03-08T11:26:11.000Z</time>
      </trkpt>
      <trkpt lat="47.4559" lon="6.73198">
        <ele>469</ele>
        <time>2015-03-08T11:26:14.000Z</time>
      </trkpt>
      <trkpt lat="47.4559" lon="6.732">
        <ele>469</ele>
        <time>2015-03-08T11:26:15.000Z</time>
      </trkpt>
      <trkpt lat="47.45591" lon="6.73206">
        <ele>469</ele>
        <time>2015-03-08T11:26:20.000Z</time>
      </trkpt>
      <trkpt lat="47.45592" lon="6.73209">
        <ele>468</ele>
        <time>2015-03-08T11:26:21.000Z</time>
      </trkpt>
      <trkpt lat="47.45592" lon="6.73213">
        <ele>468</ele>
        <time>2015-03-08T11:26:22.000Z</time>
      </trkpt>
      <trkpt lat="47.45593" lon="6.73219">
        <ele>468</ele>
        <time>2015-03-08T11:26:23.000Z</time>
      </trkpt>
      <trkpt lat="47.45594" lon="6.73224">
        <ele>468</ele>
        <time>2015-03-08T11:26:24.000Z</time>
      </trkpt>
      <trkpt lat="47.45594" lon="6.73228">
        <ele>468</ele>
        <time>2015-03-08T11:26:25.000Z</time>
      </trkpt>
      <trkpt lat="47.45594" lon="6.73234">
        <ele>468</ele>
        <time>2015-03-08T11:26:27.000Z</time>
      </trkpt>
      <trkpt lat="47.45592" lon="6.73237">
        <ele>468</ele>
        <time>2015-03-08T11:26:28.000Z</time>
      </trkpt>
      <trkpt lat="47.45592" lon="6.73239">
        <ele>468</ele>
        <time>2015-03-08T11:26:29.000Z</time>
      </trkpt>
      <trkpt lat="47.45588" lon="6.73243">
        <ele>467</ele>
        <time>2015-03-08T11:26:30.000Z</time>
      </trkpt>
      <trkpt lat="47.45585" lon="6.73248">
        <ele>467</ele>
        <time>2015-03-08T11:26:31.000Z</time>
      </trkpt>
      <trkpt lat="47.45579" lon="6.73255">
        <ele>466</ele>
        <time>2015-03-08T11:26:32.000Z</time>
      </trkpt>
      <trkpt lat="47.45577" lon="6.7326">
        <ele>465</ele>
        <time>2015-03-08T11:26:33.000Z</time>
      </trkpt>
      <trkpt lat="47.45572" lon="6.73266">
        <ele>465</ele>
        <time>2015-03-08T11:26:34.000Z</time>
      </trkpt>
      <trkpt lat="47.45568" lon="6.73272">
        <ele>464</ele>
        <time>2015-03-08T11:26:35.000Z</time>
      </trkpt>
      <trkpt lat="47.45555" lon="6.7328">
        <ele>463</ele>
        <time>2015-03-08T11:26:36.000Z</time>
      </trkpt>
      <trkpt lat="47.45546" lon="6.73286">
        <ele>463</ele>
        <time>2015-03-08T11:26:37.000Z</time>
      </trkpt>
      <trkpt lat="47.45537" lon="6.7329">
        <ele>463</ele>
        <time>2015-03-08T11:26:38.000Z</time>
      </trkpt>
      <trkpt lat="47.45529" lon="6.73294">
        <ele>463</ele>
        <time>2015-03-08T11:26:39.000Z</time>
      </trkpt>
      <trkpt lat="47.45523" lon="6.73298">
        <ele>463</ele>
        <time>2015-03-08T11:26:40.000Z</time>
      </trkpt>
      <trkpt lat="47.45517" lon="6.73303">
        <ele>463</ele>
        <time>2015-03-08T11:26:41.000Z</time>
      </trkpt>
      <trkpt lat="47.45511" lon="6.7331">
        <ele>463</ele>
        <time>2015-03-08T11:26:42.000Z</time>
      </trkpt>
      <trkpt lat="47.45506" lon="6.73318">
        <ele>463</ele>
        <time>2015-03-08T11:26:43.000Z</time>
      </trkpt>
      <trkpt lat="47.455" lon="6.73328">
        <ele>463</ele>
        <time>2015-03-08T11:26:44.000Z</time>
      </trkpt>
      <trkpt lat="47.45495" lon="6.73331">
        <ele>463</ele>
        <time>2015-03-08T11:26:45.000Z</time>
      </trkpt>
      <trkpt lat="47.45492" lon="6.73333">
        <ele>463</ele>
        <time>2015-03-08T11:26:46.000Z</time>
      </trkpt>
      <trkpt lat="47.45477" lon="6.73339">
        <ele>464</ele>
        <time>2015-03-08T11:26:47.000Z</time>
      </trkpt>
      <trkpt lat="47.45473" lon="6.73343">
        <ele>464</ele>
        <time>2015-03-08T11:26:48.000Z</time>
      </trkpt>
      <trkpt lat="47.45468" lon="6.73345">
        <ele>464</ele>
        <time>2015-03-08T11:26:49.000Z</time>
      </trkpt>
      <trkpt lat="47.45465" lon="6.73349">
        <ele>464</ele>
        <time>2015-03-08T11:26:50.000Z</time>
      </trkpt>
      <trkpt lat="47.45461" lon="6.73354">
        <ele>464</ele>
        <time>2015-03-08T11:26:51.000Z</time>
      </trkpt>
      <trkpt lat="47.45461" lon="6.7336">
        <ele>464</ele>
        <time>2015-03-08T11:26:53.000Z</time>
      </trkpt>
      <trkpt lat="47.45459" lon="6.73364">
        <ele>464</ele>
        <time>2015-03-08T11:26:54.000Z</time>
      </trkpt>
      <trkpt lat="47.45457" lon="6.73368">
        <ele>464</ele>
        <time>2015-03-08T11:26:55.000Z</time>
      </trkpt>
      <trkpt lat="47.45455" lon="6.73374">
        <ele>464</ele>
        <time>2015-03-08T11:26:56.000Z</time>
      </trkpt>
      <trkpt lat="47.4545" lon="6.7338">
        <ele>464</ele>
        <time>2015-03-08T11:26:57.000Z</time>
      </trkpt>
      <trkpt lat="47.45447" lon="6.73386">
        <ele>464</ele>
        <time>2015-03-08T11:26:58.000Z</time>
      </trkpt>
      <trkpt lat="47.45446" lon="6.73392">
        <ele>464</ele>
        <time>2015-03-08T11:26:59.000Z</time>
      </trkpt>
      <trkpt lat="47.45444" lon="6.73397">
        <ele>464</ele>
        <time>2015-03-08T11:27:00.000Z</time>
      </trkpt>
      <trkpt lat="47.45444" lon="6.73401">
        <ele>464</ele>
        <time>2015-03-08T11:27:01.000Z</time>
      </trkpt>
      <trkpt lat="47.45444" lon="6.73404">
        <ele>464</ele>
        <time>2015-03-08T11:27:02.000Z</time>
      </trkpt>
      <trkpt lat="47.45445" lon="6.73409">
        <ele>464</ele>
        <time>2015-03-08T11:27:04.000Z</time>
      </trkpt>
      <trkpt lat="47.45446" lon="6.73411">
        <ele>464</ele>
        <time>2015-03-08T11:27:05.000Z</time>
      </trkpt>
      <trkpt lat="47.45445" lon="6.73415">
        <ele>464</ele>
        <time>2015-03-08T11:27:09.000Z</time>
      </trkpt>
      <trkpt lat="47.45445" lon="6.73418">
        <ele>465</ele>
        <time>2015-03-08T11:27:10.000Z</time>
      </trkpt>
      <trkpt lat="47.45444" lon="6.73422">
        <ele>465</ele>
        <time>2015-03-08T11:27:11.000Z</time>
      </trkpt>
      <trkpt lat="47.45444" lon="6.73426">
        <ele>465</ele>
        <time>2015-03-08T11:27:12.000Z</time>
      </trkpt>
      <trkpt lat="47.45445" lon="6.73431">
        <ele>465</ele>
        <time>2015-03-08T11:27:13.000Z</time>
      </trkpt>
      <trkpt lat="47.45445" lon="6.73437">
        <ele>465</ele>
        <time>2015-03-08T11:27:14.000Z</time>
      </trkpt>
      <trkpt lat="47.45446" lon="6.73444">
        <ele>465</ele>
        <time>2015-03-08T11:27:15.000Z</time>
      </trkpt>
      <trkpt lat="47.45447" lon="6.73451">
        <ele>465</ele>
        <time>2015-03-08T11:27:16.000Z</time>
      </trkpt>
      <trkpt lat="47.45448" lon="6.73458">
        <ele>465</ele>
        <time>2015-03-08T11:27:17.000Z</time>
      </trkpt>
      <trkpt lat="47.45448" lon="6.73463">
        <ele>464</ele>
        <time>2015-03-08T11:27:18.000Z</time>
      </trkpt>
      <trkpt lat="47.45448" lon="6.73469">
        <ele>464</ele>
        <time>2015-03-08T11:27:19.000Z</time>
      </trkpt>
      <trkpt lat="47.45448" lon="6.73474">
        <ele>464</ele>
        <time>2015-03-08T11:27:20.000Z</time>
      </trkpt>
      <trkpt lat="47.45448" lon="6.7348">
        <ele>464</ele>
        <time>2015-03-08T11:27:21.000Z</time>
      </trkpt>
      <trkpt lat="47.45449" lon="6.73485">
        <ele>464</ele>
        <time>2015-03-08T11:27:22.000Z</time>
      </trkpt>
      <trkpt lat="47.4545" lon="6.73491">
        <ele>464</ele>
        <time>2015-03-08T11:27:23.000Z</time>
      </trkpt>
      <trkpt lat="47.45451" lon="6.73496">
        <ele>464</ele>
        <time>2015-03-08T11:27:24.000Z</time>
      </trkpt>
      <trkpt lat="47.45452" lon="6.73503">
        <ele>464</ele>
        <time>2015-03-08T11:27:25.000Z</time>
      </trkpt>
      <trkpt lat="47.45453" lon="6.7351">
        <ele>464</ele>
        <time>2015-03-08T11:27:26.000Z</time>
      </trkpt>
      <trkpt lat="47.45454" lon="6.73517">
        <ele>464</ele>
        <time>2015-03-08T11:27:27.000Z</time>
      </trkpt>
      <trkpt lat="47.45455" lon="6.73525">
        <ele>464</ele>
        <time>2015-03-08T11:27:28.000Z</time>
      </trkpt>
      <trkpt lat="47.45455" lon="6.73533">
        <ele>464</ele>
        <time>2015-03-08T11:27:29.000Z</time>
      </trkpt>
      <trkpt lat="47.45455" lon="6.73542">
        <ele>464</ele>
        <time>2015-03-08T11:27:30.000Z</time>
      </trkpt>
      <trkpt lat="47.45455" lon="6.7355">
        <ele>464</ele>
        <time>2015-03-08T11:27:31.000Z</time>
      </trkpt>
      <trkpt lat="47.45456" lon="6.73557">
        <ele>464</ele>
        <time>2015-03-08T11:27:32.000Z</time>
      </trkpt>
      <trkpt lat="47.45458" lon="6.73564">
        <ele>464</ele>
        <time>2015-03-08T11:27:33.000Z</time>
      </trkpt>
      <trkpt lat="47.45459" lon="6.7357">
        <ele>464</ele>
        <time>2015-03-08T11:27:34.000Z</time>
      </trkpt>
      <trkpt lat="47.4546" lon="6.73575">
        <ele>464</ele>
        <time>2015-03-08T11:27:35.000Z</time>
      </trkpt>
      <trkpt lat="47.45461" lon="6.73581">
        <ele>464</ele>
        <time>2015-03-08T11:27:36.000Z</time>
      </trkpt>
      <trkpt lat="47.45463" lon="6.73585">
        <ele>463</ele>
        <time>2015-03-08T11:27:37.000Z</time>
      </trkpt>
      <trkpt lat="47.45465" lon="6.73589">
        <ele>463</ele>
        <time>2015-03-08T11:27:38.000Z</time>
      </trkpt>
      <trkpt lat="47.45466" lon="6.73592">
        <ele>463</ele>
        <time>2015-03-08T11:27:39.000Z</time>
      </trkpt>
      <trkpt lat="47.45468" lon="6.73595">
        <ele>463</ele>
        <time>2015-03-08T11:27:40.000Z</time>
      </trkpt>
      <trkpt lat="47.4547" lon="6.73596">
        <ele>463</ele>
        <time>2015-03-08T11:27:41.000Z</time>
      </trkpt>
      <trkpt lat="47.45474" lon="6.73599">
        <ele>463</ele>
        <time>2015-03-08T11:27:43.000Z</time>
      </trkpt>
      <trkpt lat="47.45475" lon="6.73599">
        <ele>463</ele>
        <time>2015-03-08T11:27:44.000Z</time>
      </trkpt>
      <trkpt lat="47.45479" lon="6.73602">
        <ele>463</ele>
        <time>2015-03-08T11:27:46.000Z</time>
      </trkpt>
      <trkpt lat="47.4548" lon="6.73604">
        <ele>463</ele>
        <time>2015-03-08T11:27:47.000Z</time>
      </trkpt>
      <trkpt lat="47.45484" lon="6.73608">
        <ele>463</ele>
        <time>2015-03-08T11:27:49.000Z</time>
      </trkpt>
      <trkpt lat="47.45486" lon="6.73609">
        <ele>463</ele>
        <time>2015-03-08T11:27:50.000Z</time>
      </trkpt>
      <trkpt lat="47.45488" lon="6.73611">
        <ele>463</ele>
        <time>2015-03-08T11:27:51.000Z</time>
      </trkpt>
      <trkpt lat="47.45491" lon="6.73613">
        <ele>463</ele>
        <time>2015-03-08T11:27:52.000Z</time>
      </trkpt>
      <trkpt lat="47.45493" lon="6.73616">
        <ele>463</ele>
        <time>2015-03-08T11:27:53.000Z</time>
      </trkpt>
      <trkpt lat="47.45495" lon="6.73619">
        <ele>463</ele>
        <time>2015-03-08T11:27:54.000Z</time>
      </trkpt>
      <trkpt lat="47.45497" lon="6.73622">
        <ele>463</ele>
        <time>2015-03-08T11:27:55.000Z</time>
      </trkpt>
      <trkpt lat="47.45499" lon="6.73625">
        <ele>463</ele>
        <time>2015-03-08T11:27:56.000Z</time>
      </trkpt>
      <trkpt lat="47.45501" lon="6.73628">
        <ele>462</ele>
        <time>2015-03-08T11:27:57.000Z</time>
      </trkpt>
      <trkpt lat="47.45504" lon="6.7363">
        <ele>462</ele>
        <time>2015-03-08T11:27:58.000Z</time>
      </trkpt>
      <trkpt lat="47.45506" lon="6.73633">
        <ele>462</ele>
        <time>2015-03-08T11:27:59.000Z</time>
      </trkpt>
      <trkpt lat="47.45508" lon="6.73636">
        <ele>462</ele>
        <time>2015-03-08T11:28:00.000Z</time>
      </trkpt>
      <trkpt lat="47.45511" lon="6.73638">
        <ele>462</ele>
        <time>2015-03-08T11:28:01.000Z</time>
      </trkpt>
      <trkpt lat="47.45513" lon="6.7364">
        <ele>462</ele>
        <time>2015-03-08T11:28:02.000Z</time>
      </trkpt>
      <trkpt lat="47.45515" lon="6.73643">
        <ele>462</ele>
        <time>2015-03-08T11:28:03.000Z</time>
      </trkpt>
      <trkpt lat="47.45518" lon="6.73646">
        <ele>462</ele>
        <time>2015-03-08T11:28:04.000Z</time>
      </trkpt>
      <trkpt lat="47.45521" lon="6.73648">
        <ele>462</ele>
        <time>2015-03-08T11:28:05.000Z</time>
      </trkpt>
      <trkpt lat="47.45524" lon="6.7365">
        <ele>462</ele>
        <time>2015-03-08T11:28:06.000Z</time>
      </trkpt>
      <trkpt lat="47.45528" lon="6.73652">
        <ele>461</ele>
        <time>2015-03-08T11:28:07.000Z</time>
      </trkpt>
      <trkpt lat="47.45531" lon="6.73654">
        <ele>461</ele>
        <time>2015-03-08T11:28:08.000Z</time>
      </trkpt>
      <trkpt lat="47.45533" lon="6.73656">
        <ele>461</ele>
        <time>2015-03-08T11:28:09.000Z</time>
      </trkpt>
      <trkpt lat="47.45536" lon="6.73657">
        <ele>461</ele>
        <time>2015-03-08T11:28:10.000Z</time>
      </trkpt>
      <trkpt lat="47.45538" lon="6.73659">
        <ele>461</ele>
        <time>2015-03-08T11:28:11.000Z</time>
      </trkpt>
      <trkpt lat="47.4554" lon="6.7366">
        <ele>461</ele>
        <time>2015-03-08T11:28:12.000Z</time>
      </trkpt>
      <trkpt lat="47.45542" lon="6.73662">
        <ele>461</ele>
        <time>2015-03-08T11:28:13.000Z</time>
      </trkpt>
      <trkpt lat="47.45544" lon="6.73664">
        <ele>461</ele>
        <time>2015-03-08T11:28:14.000Z</time>
      </trkpt>
      <trkpt lat="47.45547" lon="6.73665">
        <ele>461</ele>
        <time>2015-03-08T11:28:15.000Z</time>
      </trkpt>
      <trkpt lat="47.45549" lon="6.73666">
        <ele>461</ele>
        <time>2015-03-08T11:28:16.000Z</time>
      </trkpt>
      <trkpt lat="47.45552" lon="6.73667">
        <ele>461</ele>
        <time>2015-03-08T11:28:17.000Z</time>
      </trkpt>
      <trkpt lat="47.45555" lon="6.73668">
        <ele>461</ele>
        <time>2015-03-08T11:28:18.000Z</time>
      </trkpt>
      <trkpt lat="47.45558" lon="6.73668">
        <ele>461</ele>
        <time>2015-03-08T11:28:19.000Z</time>
      </trkpt>
      <trkpt lat="47.4556" lon="6.73668">
        <ele>461</ele>
        <time>2015-03-08T11:28:20.000Z</time>
      </trkpt>
      <trkpt lat="47.45562" lon="6.73667">
        <ele>461</ele>
        <time>2015-03-08T11:28:21.000Z</time>
      </trkpt>
      <trkpt lat="47.45565" lon="6.73667">
        <ele>461</ele>
        <time>2015-03-08T11:28:22.000Z</time>
      </trkpt>
      <trkpt lat="47.45568" lon="6.73667">
        <ele>461</ele>
        <time>2015-03-08T11:28:23.000Z</time>
      </trkpt>
      <trkpt lat="47.45571" lon="6.73667">
        <ele>461</ele>
        <time>2015-03-08T11:28:24.000Z</time>
      </trkpt>
      <trkpt lat="47.45575" lon="6.73666">
        <ele>460</ele>
        <time>2015-03-08T11:28:25.000Z</time>
      </trkpt>
      <trkpt lat="47.45578" lon="6.73666">
        <ele>460</ele>
        <time>2015-03-08T11:28:26.000Z</time>
      </trkpt>
      <trkpt lat="47.45581" lon="6.73665">
        <ele>460</ele>
        <time>2015-03-08T11:28:27.000Z</time>
      </trkpt>
      <trkpt lat="47.45584" lon="6.73665">
        <ele>460</ele>
        <time>2015-03-08T11:28:28.000Z</time>
      </trkpt>
      <trkpt lat="47.45587" lon="6.73665">
        <ele>459</ele>
        <time>2015-03-08T11:28:29.000Z</time>
      </trkpt>
      <trkpt lat="47.45589" lon="6.73665">
        <ele>459</ele>
        <time>2015-03-08T11:28:30.000Z</time>
      </trkpt>
      <trkpt lat="47.45593" lon="6.73665">
        <ele>459</ele>
        <time>2015-03-08T11:28:31.000Z</time>
      </trkpt>
      <trkpt lat="47.45597" lon="6.73665">
        <ele>458</ele>
        <time>2015-03-08T11:28:32.000Z</time>
      </trkpt>
      <trkpt lat="47.45601" lon="6.73665">
        <ele>458</ele>
        <time>2015-03-08T11:28:33.000Z</time>
      </trkpt>
      <trkpt lat="47.45605" lon="6.73664">
        <ele>457</ele>
        <time>2015-03-08T11:28:34.000Z</time>
      </trkpt>
      <trkpt lat="47.45608" lon="6.73664">
        <ele>457</ele>
        <time>2015-03-08T11:28:35.000Z</time>
      </trkpt>
      <trkpt lat="47.45611" lon="6.73663">
        <ele>457</ele>
        <time>2015-03-08T11:28:36.000Z</time>
      </trkpt>
      <trkpt lat="47.45614" lon="6.73663">
        <ele>457</ele>
        <time>2015-03-08T11:28:37.000Z</time>
      </trkpt>
      <trkpt lat="47.45617" lon="6.73663">
        <ele>456</ele>
        <time>2015-03-08T11:28:38.000Z</time>
      </trkpt>
      <trkpt lat="47.45619" lon="6.73664">
        <ele>456</ele>
        <time>2015-03-08T11:28:39.000Z</time>
      </trkpt>
      <trkpt lat="47.45622" lon="6.73664">
        <ele>456</ele>
        <time>2015-03-08T11:28:40.000Z</time>
      </trkpt>
      <trkpt lat="47.45625" lon="6.73665">
        <ele>456</ele>
        <time>2015-03-08T11:28:41.000Z</time>
      </trkpt>
      <trkpt lat="47.45627" lon="6.73665">
        <ele>456</ele>
        <time>2015-03-08T11:28:42.000Z</time>
      </trkpt>
      <trkpt lat="47.4563" lon="6.73666">
        <ele>456</ele>
        <time>2015-03-08T11:28:43.000Z</time>
      </trkpt>
      <trkpt lat="47.45632" lon="6.73667">
        <ele>456</ele>
        <time>2015-03-08T11:28:44.000Z</time>
      </trkpt>
      <trkpt lat="47.45636" lon="6.73669">
        <ele>456</ele>
        <time>2015-03-08T11:28:46.000Z</time>
      </trkpt>
      <trkpt lat="47.45638" lon="6.73671">
        <ele>456</ele>
        <time>2015-03-08T11:28:47.000Z</time>
      </trkpt>
      <trkpt lat="47.45641" lon="6.73676">
        <ele>456</ele>
        <time>2015-03-08T11:28:49.000Z</time>
      </trkpt>
      <trkpt lat="47.45641" lon="6.73678">
        <ele>456</ele>
        <time>2015-03-08T11:28:50.000Z</time>
      </trkpt>
      <trkpt lat="47.45641" lon="6.73684">
        <ele>456</ele>
        <time>2015-03-08T11:29:55.000Z</time>
      </trkpt>
      <trkpt lat="47.45641" lon="6.73685">
        <ele>456</ele>
        <time>2015-03-08T11:29:56.000Z</time>
      </trkpt>
      <trkpt lat="47.45642" lon="6.7369">
        <ele>456</ele>
        <time>2015-03-08T11:29:58.000Z</time>
      </trkpt>
      <trkpt lat="47.45642" lon="6.73693">
        <ele>456</ele>
        <time>2015-03-08T11:29:59.000Z</time>
      </trkpt>
      <trkpt lat="47.45642" lon="6.73697">
        <ele>456</ele>
        <time>2015-03-08T11:30:00.000Z</time>
      </trkpt>
      <trkpt lat="47.45641" lon="6.737">
        <ele>456</ele>
        <time>2015-03-08T11:30:01.000Z</time>
      </trkpt>
      <trkpt lat="47.45641" lon="6.73704">
        <ele>456</ele>
        <time>2015-03-08T11:30:02.000Z</time>
      </trkpt>
      <trkpt lat="47.45641" lon="6.73707">
        <ele>456</ele>
        <time>2015-03-08T11:30:02.998Z</time>
      </trkpt>
      <trkpt lat="47.45638" lon="6.73712">
        <ele>456</ele>
        <time>2015-03-08T11:30:04.000Z</time>
      </trkpt>
      <trkpt lat="47.45636" lon="6.73716">
        <ele>456</ele>
        <time>2015-03-08T11:30:05.000Z</time>
      </trkpt>
      <trkpt lat="47.45634" lon="6.7372">
        <ele>457</ele>
        <time>2015-03-08T11:30:06.000Z</time>
      </trkpt>
      <trkpt lat="47.45632" lon="6.73725">
        <ele>457</ele>
        <time>2015-03-08T11:30:07.000Z</time>
      </trkpt>
      <trkpt lat="47.45631" lon="6.73729">
        <ele>457</ele>
        <time>2015-03-08T11:30:08.000Z</time>
      </trkpt>
      <trkpt lat="47.4563" lon="6.73734">
        <ele>457</ele>
        <time>2015-03-08T11:30:09.000Z</time>
      </trkpt>
      <trkpt lat="47.45629" lon="6.73739">
        <ele>457</ele>
        <time>2015-03-08T11:30:10.000Z</time>
      </trkpt>
      <trkpt lat="47.45629" lon="6.73745">
        <ele>457</ele>
        <time>2015-03-08T11:30:11.000Z</time>
      </trkpt>
      <trkpt lat="47.4563" lon="6.73752">
        <ele>456</ele>
        <time>2015-03-08T11:30:12.000Z</time>
      </trkpt>
      <trkpt lat="47.45631" lon="6.73758">
        <ele>456</ele>
        <time>2015-03-08T11:30:13.000Z</time>
      </trkpt>
      <trkpt lat="47.45632" lon="6.73766">
        <ele>456</ele>
        <time>2015-03-08T11:30:14.000Z</time>
      </trkpt>
      <trkpt lat="47.45627" lon="6.73783">
        <ele>456</ele>
        <time>2015-03-08T11:30:15.000Z</time>
      </trkpt>
      <trkpt lat="47.45625" lon="6.73789">
        <ele>456</ele>
        <time>2015-03-08T11:30:16.000Z</time>
      </trkpt>
      <trkpt lat="47.45626" lon="6.738">
        <ele>456</ele>
        <time>2015-03-08T11:30:17.000Z</time>
      </trkpt>
      <trkpt lat="47.45626" lon="6.73807">
        <ele>456</ele>
        <time>2015-03-08T11:30:18.000Z</time>
      </trkpt>
      <trkpt lat="47.45629" lon="6.73813">
        <ele>456</ele>
        <time>2015-03-08T11:30:19.000Z</time>
      </trkpt>
      <trkpt lat="47.4563" lon="6.73821">
        <ele>456</ele>
        <time>2015-03-08T11:30:20.000Z</time>
      </trkpt>
      <trkpt lat="47.45623" lon="6.7383">
        <ele>456</ele>
        <time>2015-03-08T11:30:21.000Z</time>
      </trkpt>
      <trkpt lat="47.45621" lon="6.73834">
        <ele>456</ele>
        <time>2015-03-08T11:30:22.000Z</time>
      </trkpt>
      <trkpt lat="47.45621" lon="6.73838">
        <ele>456</ele>
        <time>2015-03-08T11:30:23.000Z</time>
      </trkpt>
      <trkpt lat="47.45619" lon="6.73853">
        <ele>456</ele>
        <time>2015-03-08T11:30:24.000Z</time>
      </trkpt>
      <trkpt lat="47.45621" lon="6.73871">
        <ele>456</ele>
        <time>2015-03-08T11:30:25.000Z</time>
      </trkpt>
      <trkpt lat="47.45619" lon="6.73885">
        <ele>456</ele>
        <time>2015-03-08T11:30:26.000Z</time>
      </trkpt>
      <trkpt lat="47.45619" lon="6.73892">
        <ele>456</ele>
        <time>2015-03-08T11:30:27.000Z</time>
      </trkpt>
      <trkpt lat="47.45621" lon="6.73898">
        <ele>456</ele>
        <time>2015-03-08T11:30:28.000Z</time>
      </trkpt>
      <trkpt lat="47.45623" lon="6.73901">
        <ele>456</ele>
        <time>2015-03-08T11:30:29.000Z</time>
      </trkpt>
      <trkpt lat="47.45628" lon="6.73907">
        <ele>455</ele>
        <time>2015-03-08T11:30:30.000Z</time>
      </trkpt>
      <trkpt lat="47.45633" lon="6.73911">
        <ele>455</ele>
        <time>2015-03-08T11:30:31.000Z</time>
      </trkpt>
      <trkpt lat="47.45638" lon="6.73921">
        <ele>455</ele>
        <time>2015-03-08T11:30:32.000Z</time>
      </trkpt>
      <trkpt lat="47.45642" lon="6.73929">
        <ele>455</ele>
        <time>2015-03-08T11:30:33.000Z</time>
      </trkpt>
      <trkpt lat="47.45648" lon="6.73937">
        <ele>455</ele>
        <time>2015-03-08T11:30:34.000Z</time>
      </trkpt>
      <trkpt lat="47.45656" lon="6.73944">
        <ele>454</ele>
        <time>2015-03-08T11:30:35.000Z</time>
      </trkpt>
      <trkpt lat="47.4566" lon="6.73951">
        <ele>455</ele>
        <time>2015-03-08T11:30:36.000Z</time>
      </trkpt>
      <trkpt lat="47.45668" lon="6.73959">
        <ele>450</ele>
        <time>2015-03-08T11:30:37.000Z</time>
      </trkpt>
      <trkpt lat="47.45675" lon="6.73965">
        <ele>449</ele>
        <time>2015-03-08T11:30:38.000Z</time>
      </trkpt>
      <trkpt lat="47.45681" lon="6.73973">
        <ele>450</ele>
        <time>2015-03-08T11:30:39.000Z</time>
      </trkpt>
      <trkpt lat="47.45685" lon="6.7398">
        <ele>450</ele>
        <time>2015-03-08T11:30:40.000Z</time>
      </trkpt>
      <trkpt lat="47.45689" lon="6.73988">
        <ele>449</ele>
        <time>2015-03-08T11:30:41.000Z</time>
      </trkpt>
      <trkpt lat="47.45695" lon="6.73998">
        <ele>449</ele>
        <time>2015-03-08T11:30:42.000Z</time>
      </trkpt>
      <trkpt lat="47.45701" lon="6.74006">
        <ele>447</ele>
        <time>2015-03-08T11:30:43.000Z</time>
      </trkpt>
      <trkpt lat="47.45708" lon="6.74012">
        <ele>446</ele>
        <time>2015-03-08T11:30:44.000Z</time>
      </trkpt>
      <trkpt lat="47.45715" lon="6.74019">
        <ele>445</ele>
        <time>2015-03-08T11:30:45.000Z</time>
      </trkpt>
      <trkpt lat="47.45722" lon="6.74026">
        <ele>445</ele>
        <time>2015-03-08T11:30:46.000Z</time>
      </trkpt>
      <trkpt lat="47.45729" lon="6.74032">
        <ele>444</ele>
        <time>2015-03-08T11:30:47.000Z</time>
      </trkpt>
      <trkpt lat="47.45736" lon="6.74036">
        <ele>444</ele>
        <time>2015-03-08T11:30:48.000Z</time>
      </trkpt>
      <trkpt lat="47.45743" lon="6.74043">
        <ele>443</ele>
        <time>2015-03-08T11:30:49.000Z</time>
      </trkpt>
      <trkpt lat="47.45746" lon="6.74046">
        <ele>443</ele>
        <time>2015-03-08T11:30:50.000Z</time>
      </trkpt>
      <trkpt lat="47.45751" lon="6.74051">
        <ele>438</ele>
        <time>2015-03-08T11:30:51.000Z</time>
      </trkpt>
      <trkpt lat="47.45756" lon="6.74058">
        <ele>437</ele>
        <time>2015-03-08T11:30:52.000Z</time>
      </trkpt>
      <trkpt lat="47.45758" lon="6.74061">
        <ele>437</ele>
        <time>2015-03-08T11:30:53.000Z</time>
      </trkpt>
      <trkpt lat="47.4576" lon="6.74063">
        <ele>437</ele>
        <time>2015-03-08T11:30:54.000Z</time>
      </trkpt>
      <trkpt lat="47.45761" lon="6.74069">
        <ele>437</ele>
        <time>2015-03-08T11:30:55.000Z</time>
      </trkpt>
      <trkpt lat="47.45763" lon="6.74072">
        <ele>437</ele>
        <time>2015-03-08T11:30:56.000Z</time>
      </trkpt>
      <trkpt lat="47.45767" lon="6.74076">
        <ele>437</ele>
        <time>2015-03-08T11:30:57.000Z</time>
      </trkpt>
      <trkpt lat="47.4577" lon="6.7408">
        <ele>437</ele>
        <time>2015-03-08T11:30:58.000Z</time>
      </trkpt>
      <trkpt lat="47.45773" lon="6.74085">
        <ele>434</ele>
        <time>2015-03-08T11:30:59.000Z</time>
      </trkpt>
      <trkpt lat="47.45777" lon="6.74091">
        <ele>434</ele>
        <time>2015-03-08T11:31:00.000Z</time>
      </trkpt>
      <trkpt lat="47.4578" lon="6.74095">
        <ele>434</ele>
        <time>2015-03-08T11:31:01.000Z</time>
      </trkpt>
      <trkpt lat="47.45782" lon="6.74098">
        <ele>433</ele>
        <time>2015-03-08T11:31:02.000Z</time>
      </trkpt>
      <trkpt lat="47.45785" lon="6.74102">
        <ele>433</ele>
        <time>2015-03-08T11:31:03.000Z</time>
      </trkpt>
      <trkpt lat="47.45787" lon="6.74106">
        <ele>433</ele>
        <time>2015-03-08T11:31:04.000Z</time>
      </trkpt>
      <trkpt lat="47.45789" lon="6.74109">
        <ele>433</ele>
        <time>2015-03-08T11:31:05.000Z</time>
      </trkpt>
      <trkpt lat="47.45791" lon="6.74112">
        <ele>433</ele>
        <time>2015-03-08T11:31:06.000Z</time>
      </trkpt>
      <trkpt lat="47.45793" lon="6.74115">
        <ele>432</ele>
        <time>2015-03-08T11:31:07.000Z</time>
      </trkpt>
      <trkpt lat="47.45795" lon="6.74118">
        <ele>432</ele>
        <time>2015-03-08T11:31:08.000Z</time>
      </trkpt>
      <trkpt lat="47.45796" lon="6.74121">
        <ele>432</ele>
        <time>2015-03-08T11:31:09.000Z</time>
      </trkpt>
      <trkpt lat="47.45799" lon="6.74125">
        <ele>432</ele>
        <time>2015-03-08T11:31:10.000Z</time>
      </trkpt>
      <trkpt lat="47.45802" lon="6.74135">
        <ele>432</ele>
        <time>2015-03-08T11:31:11.000Z</time>
      </trkpt>
      <trkpt lat="47.45804" lon="6.7414">
        <ele>431</ele>
        <time>2015-03-08T11:31:12.000Z</time>
      </trkpt>
      <trkpt lat="47.45805" lon="6.74143">
        <ele>431</ele>
        <time>2015-03-08T11:31:13.000Z</time>
      </trkpt>
      <trkpt lat="47.45807" lon="6.74148">
        <ele>431</ele>
        <time>2015-03-08T11:31:15.000Z</time>
      </trkpt>
      <trkpt lat="47.4581" lon="6.74151">
        <ele>431</ele>
        <time>2015-03-08T11:31:16.000Z</time>
      </trkpt>
      <trkpt lat="47.45812" lon="6.74154">
        <ele>431</ele>
        <time>2015-03-08T11:31:17.000Z</time>
      </trkpt>
      <trkpt lat="47.45815" lon="6.74156">
        <ele>430</ele>
        <time>2015-03-08T11:31:18.000Z</time>
      </trkpt>
      <trkpt lat="47.45817" lon="6.74157">
        <ele>430</ele>
        <time>2015-03-08T11:31:19.000Z</time>
      </trkpt>
      <trkpt lat="47.4582" lon="6.74158">
        <ele>430</ele>
        <time>2015-03-08T11:31:20.000Z</time>
      </trkpt>
      <trkpt lat="47.45822" lon="6.7416">
        <ele>430</ele>
        <time>2015-03-08T11:31:21.000Z</time>
      </trkpt>
      <trkpt lat="47.45825" lon="6.74162">
        <ele>429</ele>
        <time>2015-03-08T11:31:22.000Z</time>
      </trkpt>
      <trkpt lat="47.45827" lon="6.74164">
        <ele>429</ele>
        <time>2015-03-08T11:31:23.000Z</time>
      </trkpt>
      <trkpt lat="47.4583" lon="6.74165">
        <ele>429</ele>
        <time>2015-03-08T11:31:24.000Z</time>
      </trkpt>
      <trkpt lat="47.45834" lon="6.74167">
        <ele>428</ele>
        <time>2015-03-08T11:31:25.000Z</time>
      </trkpt>
      <trkpt lat="47.45837" lon="6.74169">
        <ele>426</ele>
        <time>2015-03-08T11:31:26.000Z</time>
      </trkpt>
      <trkpt lat="47.4584" lon="6.7417">
        <ele>425</ele>
        <time>2015-03-08T11:31:27.000Z</time>
      </trkpt>
      <trkpt lat="47.45843" lon="6.7417">
        <ele>425</ele>
        <time>2015-03-08T11:31:28.000Z</time>
      </trkpt>
      <trkpt lat="47.45846" lon="6.7417">
        <ele>424</ele>
        <time>2015-03-08T11:31:29.000Z</time>
      </trkpt>
      <trkpt lat="47.4585" lon="6.7417">
        <ele>423</ele>
        <time>2015-03-08T11:31:30.000Z</time>
      </trkpt>
      <trkpt lat="47.45853" lon="6.7417">
        <ele>423</ele>
        <time>2015-03-08T11:31:31.000Z</time>
      </trkpt>
      <trkpt lat="47.45856" lon="6.7417">
        <ele>422</ele>
        <time>2015-03-08T11:31:32.000Z</time>
      </trkpt>
      <trkpt lat="47.45859" lon="6.74171">
        <ele>422</ele>
        <time>2015-03-08T11:31:33.000Z</time>
      </trkpt>
      <trkpt lat="47.45862" lon="6.74172">
        <ele>421</ele>
        <time>2015-03-08T11:31:34.000Z</time>
      </trkpt>
      <trkpt lat="47.45865" lon="6.74173">
        <ele>421</ele>
        <time>2015-03-08T11:31:35.000Z</time>
      </trkpt>
      <trkpt lat="47.45868" lon="6.74175">
        <ele>421</ele>
        <time>2015-03-08T11:31:36.000Z</time>
      </trkpt>
      <trkpt lat="47.45872" lon="6.74176">
        <ele>420</ele>
        <time>2015-03-08T11:31:37.000Z</time>
      </trkpt>
      <trkpt lat="47.45876" lon="6.74177">
        <ele>420</ele>
        <time>2015-03-08T11:31:38.000Z</time>
      </trkpt>
      <trkpt lat="47.4588" lon="6.74178">
        <ele>420</ele>
        <time>2015-03-08T11:31:39.000Z</time>
      </trkpt>
      <trkpt lat="47.45885" lon="6.7418">
        <ele>420</ele>
        <time>2015-03-08T11:31:40.000Z</time>
      </trkpt>
      <trkpt lat="47.4589" lon="6.74182">
        <ele>419</ele>
        <time>2015-03-08T11:31:41.000Z</time>
      </trkpt>
      <trkpt lat="47.45894" lon="6.74183">
        <ele>419</ele>
        <time>2015-03-08T11:31:42.000Z</time>
      </trkpt>
      <trkpt lat="47.45899" lon="6.74184">
        <ele>419</ele>
        <time>2015-03-08T11:31:43.000Z</time>
      </trkpt>
      <trkpt lat="47.45904" lon="6.74186">
        <ele>419</ele>
        <time>2015-03-08T11:31:44.000Z</time>
      </trkpt>
      <trkpt lat="47.45908" lon="6.74187">
        <ele>419</ele>
        <time>2015-03-08T11:31:45.000Z</time>
      </trkpt>
      <trkpt lat="47.45913" lon="6.74188">
        <ele>419</ele>
        <time>2015-03-08T11:31:46.000Z</time>
      </trkpt>
      <trkpt lat="47.45917" lon="6.74189">
        <ele>418</ele>
        <time>2015-03-08T11:31:47.000Z</time>
      </trkpt>
      <trkpt lat="47.45921" lon="6.74188">
        <ele>418</ele>
        <time>2015-03-08T11:31:48.000Z</time>
      </trkpt>
      <trkpt lat="47.45925" lon="6.74187">
        <ele>418</ele>
        <time>2015-03-08T11:31:49.000Z</time>
      </trkpt>
      <trkpt lat="47.45929" lon="6.74185">
        <ele>418</ele>
        <time>2015-03-08T11:31:50.000Z</time>
      </trkpt>
      <trkpt lat="47.45933" lon="6.74184">
        <ele>418</ele>
        <time>2015-03-08T11:31:51.000Z</time>
      </trkpt>
      <trkpt lat="47.45936" lon="6.74183">
        <ele>418</ele>
        <time>2015-03-08T11:31:52.000Z</time>
      </trkpt>
      <trkpt lat="47.4594" lon="6.74183">
        <ele>418</ele>
        <time>2015-03-08T11:31:53.000Z</time>
      </trkpt>
      <trkpt lat="47.45943" lon="6.74183">
        <ele>418</ele>
        <time>2015-03-08T11:31:54.000Z</time>
      </trkpt>
      <trkpt lat="47.45946" lon="6.74184">
        <ele>418</ele>
        <time>2015-03-08T11:31:55.000Z</time>
      </trkpt>
      <trkpt lat="47.45948" lon="6.74186">
        <ele>417</ele>
        <time>2015-03-08T11:31:56.000Z</time>
      </trkpt>
      <trkpt lat="47.45951" lon="6.74188">
        <ele>417</ele>
        <time>2015-03-08T11:31:57.000Z</time>
      </trkpt>
      <trkpt lat="47.45954" lon="6.7419">
        <ele>417</ele>
        <time>2015-03-08T11:31:58.000Z</time>
      </trkpt>
      <trkpt lat="47.45957" lon="6.74193">
        <ele>417</ele>
        <time>2015-03-08T11:31:59.000Z</time>
      </trkpt>
      <trkpt lat="47.4596" lon="6.74196">
        <ele>417</ele>
        <time>2015-03-08T11:32:00.000Z</time>
      </trkpt>
      <trkpt lat="47.45964" lon="6.74198">
        <ele>417</ele>
        <time>2015-03-08T11:32:01.000Z</time>
      </trkpt>
      <trkpt lat="47.45967" lon="6.74199">
        <ele>417</ele>
        <time>2015-03-08T11:32:02.000Z</time>
      </trkpt>
      <trkpt lat="47.4597" lon="6.742">
        <ele>416</ele>
        <time>2015-03-08T11:32:03.000Z</time>
      </trkpt>
      <trkpt lat="47.45973" lon="6.74201">
        <ele>416</ele>
        <time>2015-03-08T11:32:04.000Z</time>
      </trkpt>
      <trkpt lat="47.45976" lon="6.74201">
        <ele>416</ele>
        <time>2015-03-08T11:32:05.000Z</time>
      </trkpt>
      <trkpt lat="47.45979" lon="6.74202">
        <ele>416</ele>
        <time>2015-03-08T11:32:06.000Z</time>
      </trkpt>
      <trkpt lat="47.45982" lon="6.74203">
        <ele>416</ele>
        <time>2015-03-08T11:32:07.000Z</time>
      </trkpt>
      <trkpt lat="47.45985" lon="6.74203">
        <ele>416</ele>
        <time>2015-03-08T11:32:08.000Z</time>
      </trkpt>
      <trkpt lat="47.45988" lon="6.74204">
        <ele>416</ele>
        <time>2015-03-08T11:32:09.000Z</time>
      </trkpt>
      <trkpt lat="47.45991" lon="6.74205">
        <ele>416</ele>
        <time>2015-03-08T11:32:10.000Z</time>
      </trkpt>
      <trkpt lat="47.45995" lon="6.74205">
        <ele>416</ele>
        <time>2015-03-08T11:32:11.000Z</time>
      </trkpt>
      <trkpt lat="47.45998" lon="6.74205">
        <ele>416</ele>
        <time>2015-03-08T11:32:12.000Z</time>
      </trkpt>
      <trkpt lat="47.46001" lon="6.74206">
        <ele>417</ele>
        <time>2015-03-08T11:32:13.000Z</time>
      </trkpt>
      <trkpt lat="47.46004" lon="6.74206">
        <ele>417</ele>
        <time>2015-03-08T11:32:14.000Z</time>
      </trkpt>
      <trkpt lat="47.46007" lon="6.74207">
        <ele>417</ele>
        <time>2015-03-08T11:32:15.000Z</time>
      </trkpt>
      <trkpt lat="47.4601" lon="6.74208">
        <ele>417</ele>
        <time>2015-03-08T11:32:16.000Z</time>
      </trkpt>
      <trkpt lat="47.46013" lon="6.74209">
        <ele>417</ele>
        <time>2015-03-08T11:32:17.000Z</time>
      </trkpt>
      <trkpt lat="47.46017" lon="6.74209">
        <ele>417</ele>
        <time>2015-03-08T11:32:18.000Z</time>
      </trkpt>
      <trkpt lat="47.46021" lon="6.7421">
        <ele>417</ele>
        <time>2015-03-08T11:32:19.000Z</time>
      </trkpt>
      <trkpt lat="47.46025" lon="6.7421">
        <ele>417</ele>
        <time>2015-03-08T11:32:20.000Z</time>
      </trkpt>
      <trkpt lat="47.46029" lon="6.7421">
        <ele>417</ele>
        <time>2015-03-08T11:32:21.000Z</time>
      </trkpt>
      <trkpt lat="47.46032" lon="6.7421">
        <ele>417</ele>
        <time>2015-03-08T11:32:22.000Z</time>
      </trkpt>
      <trkpt lat="47.46036" lon="6.7421">
        <ele>417</ele>
        <time>2015-03-08T11:32:23.000Z</time>
      </trkpt>
      <trkpt lat="47.46039" lon="6.7421">
        <ele>417</ele>
        <time>2015-03-08T11:32:24.000Z</time>
      </trkpt>
      <trkpt lat="47.46042" lon="6.7421">
        <ele>417</ele>
        <time>2015-03-08T11:32:25.000Z</time>
      </trkpt>
      <trkpt lat="47.46045" lon="6.74211">
        <ele>417</ele>
        <time>2015-03-08T11:32:26.000Z</time>
      </trkpt>
      <trkpt lat="47.46048" lon="6.74211">
        <ele>417</ele>
        <time>2015-03-08T11:32:27.000Z</time>
      </trkpt>
      <trkpt lat="47.46052" lon="6.74212">
        <ele>417</ele>
        <time>2015-03-08T11:32:28.000Z</time>
      </trkpt>
      <trkpt lat="47.46055" lon="6.74212">
        <ele>417</ele>
        <time>2015-03-08T11:32:29.000Z</time>
      </trkpt>
      <trkpt lat="47.46059" lon="6.74212">
        <ele>417</ele>
        <time>2015-03-08T11:32:30.000Z</time>
      </trkpt>
      <trkpt lat="47.46062" lon="6.74211">
        <ele>418</ele>
        <time>2015-03-08T11:32:31.000Z</time>
      </trkpt>
      <trkpt lat="47.46065" lon="6.74211">
        <ele>418</ele>
        <time>2015-03-08T11:32:32.000Z</time>
      </trkpt>
      <trkpt lat="47.46067" lon="6.74212">
        <ele>418</ele>
        <time>2015-03-08T11:32:33.000Z</time>
      </trkpt>
      <trkpt lat="47.46071" lon="6.74212">
        <ele>418</ele>
        <time>2015-03-08T11:32:34.000Z</time>
      </trkpt>
      <trkpt lat="47.46074" lon="6.74213">
        <ele>417</ele>
        <time>2015-03-08T11:32:35.000Z</time>
      </trkpt>
      <trkpt lat="47.46078" lon="6.74214">
        <ele>417</ele>
        <time>2015-03-08T11:32:36.000Z</time>
      </trkpt>
      <trkpt lat="47.46081" lon="6.74215">
        <ele>417</ele>
        <time>2015-03-08T11:32:37.000Z</time>
      </trkpt>
      <trkpt lat="47.46084" lon="6.74216">
        <ele>418</ele>
        <time>2015-03-08T11:32:38.000Z</time>
      </trkpt>
      <trkpt lat="47.46086" lon="6.74218">
        <ele>418</ele>
        <time>2015-03-08T11:32:39.000Z</time>
      </trkpt>
      <trkpt lat="47.46089" lon="6.7422">
        <ele>418</ele>
        <time>2015-03-08T11:32:40.000Z</time>
      </trkpt>
      <trkpt lat="47.46091" lon="6.74223">
        <ele>417</ele>
        <time>2015-03-08T11:32:41.000Z</time>
      </trkpt>
      <trkpt lat="47.46094" lon="6.74226">
        <ele>417</ele>
        <time>2015-03-08T11:32:42.000Z</time>
      </trkpt>
      <trkpt lat="47.46098" lon="6.74228">
        <ele>417</ele>
        <time>2015-03-08T11:32:43.000Z</time>
      </trkpt>
      <trkpt lat="47.46102" lon="6.74229">
        <ele>417</ele>
        <time>2015-03-08T11:32:44.000Z</time>
      </trkpt>
      <trkpt lat="47.46106" lon="6.74229">
        <ele>417</ele>
        <time>2015-03-08T11:32:45.000Z</time>
      </trkpt>
      <trkpt lat="47.4611" lon="6.74229">
        <ele>417</ele>
        <time>2015-03-08T11:32:46.000Z</time>
      </trkpt>
      <trkpt lat="47.46113" lon="6.7423">
        <ele>417</ele>
        <time>2015-03-08T11:32:47.000Z</time>
      </trkpt>
      <trkpt lat="47.46117" lon="6.74231">
        <ele>417</ele>
        <time>2015-03-08T11:32:48.000Z</time>
      </trkpt>
      <trkpt lat="47.46119" lon="6.74231">
        <ele>417</ele>
        <time>2015-03-08T11:32:49.000Z</time>
      </trkpt>
      <trkpt lat="47.46122" lon="6.74232">
        <ele>417</ele>
        <time>2015-03-08T11:32:50.000Z</time>
      </trkpt>
      <trkpt lat="47.46125" lon="6.74231">
        <ele>417</ele>
        <time>2015-03-08T11:32:51.000Z</time>
      </trkpt>
      <trkpt lat="47.46128" lon="6.7423">
        <ele>418</ele>
        <time>2015-03-08T11:32:52.000Z</time>
      </trkpt>
      <trkpt lat="47.46132" lon="6.74229">
        <ele>418</ele>
        <time>2015-03-08T11:32:53.000Z</time>
      </trkpt>
      <trkpt lat="47.46136" lon="6.74228">
        <ele>418</ele>
        <time>2015-03-08T11:32:54.000Z</time>
      </trkpt>
      <trkpt lat="47.46139" lon="6.74228">
        <ele>418</ele>
        <time>2015-03-08T11:32:55.000Z</time>
      </trkpt>
      <trkpt lat="47.46143" lon="6.74227">
        <ele>418</ele>
        <time>2015-03-08T11:32:56.000Z</time>
      </trkpt>
      <trkpt lat="47.46146" lon="6.74226">
        <ele>418</ele>
        <time>2015-03-08T11:32:57.000Z</time>
      </trkpt>
      <trkpt lat="47.46149" lon="6.74227">
        <ele>417</ele>
        <time>2015-03-08T11:32:58.000Z</time>
      </trkpt>
      <trkpt lat="47.46154" lon="6.74227">
        <ele>417</ele>
        <time>2015-03-08T11:32:59.000Z</time>
      </trkpt>
      <trkpt lat="47.46158" lon="6.74228">
        <ele>417</ele>
        <time>2015-03-08T11:33:00.000Z</time>
      </trkpt>
      <trkpt lat="47.46161" lon="6.74228">
        <ele>417</ele>
        <time>2015-03-08T11:33:01.000Z</time>
      </trkpt>
      <trkpt lat="47.46164" lon="6.74229">
        <ele>417</ele>
        <time>2015-03-08T11:33:02.000Z</time>
      </trkpt>
      <trkpt lat="47.46167" lon="6.74229">
        <ele>416</ele>
        <time>2015-03-08T11:33:03.000Z</time>
      </trkpt>
      <trkpt lat="47.46169" lon="6.7423">
        <ele>416</ele>
        <time>2015-03-08T11:33:04.000Z</time>
      </trkpt>
      <trkpt lat="47.46172" lon="6.7423">
        <ele>416</ele>
        <time>2015-03-08T11:33:05.000Z</time>
      </trkpt>
      <trkpt lat="47.46175" lon="6.74231">
        <ele>416</ele>
        <time>2015-03-08T11:33:06.000Z</time>
      </trkpt>
      <trkpt lat="47.46177" lon="6.74232">
        <ele>416</ele>
        <time>2015-03-08T11:33:07.000Z</time>
      </trkpt>
      <trkpt lat="47.4618" lon="6.74233">
        <ele>416</ele>
        <time>2015-03-08T11:33:08.000Z</time>
      </trkpt>
      <trkpt lat="47.46183" lon="6.74234">
        <ele>416</ele>
        <time>2015-03-08T11:33:09.000Z</time>
      </trkpt>
      <trkpt lat="47.46186" lon="6.74235">
        <ele>416</ele>
        <time>2015-03-08T11:33:10.000Z</time>
      </trkpt>
      <trkpt lat="47.46189" lon="6.74236">
        <ele>416</ele>
        <time>2015-03-08T11:33:11.000Z</time>
      </trkpt>
      <trkpt lat="47.46193" lon="6.74236">
        <ele>416</ele>
        <time>2015-03-08T11:33:12.000Z</time>
      </trkpt>
      <trkpt lat="47.46196" lon="6.74237">
        <ele>416</ele>
        <time>2015-03-08T11:33:13.000Z</time>
      </trkpt>
      <trkpt lat="47.462" lon="6.74239">
        <ele>416</ele>
        <time>2015-03-08T11:33:14.000Z</time>
      </trkpt>
      <trkpt lat="47.46203" lon="6.74241">
        <ele>416</ele>
        <time>2015-03-08T11:33:15.000Z</time>
      </trkpt>
      <trkpt lat="47.46207" lon="6.74243">
        <ele>416</ele>
        <time>2015-03-08T11:33:16.000Z</time>
      </trkpt>
      <trkpt lat="47.4621" lon="6.74246">
        <ele>416</ele>
        <time>2015-03-08T11:33:17.000Z</time>
      </trkpt>
      <trkpt lat="47.46213" lon="6.74248">
        <ele>415</ele>
        <time>2015-03-08T11:33:18.000Z</time>
      </trkpt>
      <trkpt lat="47.46216" lon="6.7425">
        <ele>415</ele>
        <time>2015-03-08T11:33:19.000Z</time>
      </trkpt>
      <trkpt lat="47.46219" lon="6.74252">
        <ele>408</ele>
        <time>2015-03-08T11:33:20.000Z</time>
      </trkpt>
      <trkpt lat="47.46223" lon="6.74253">
        <ele>409</ele>
        <time>2015-03-08T11:33:21.000Z</time>
      </trkpt>
      <trkpt lat="47.46226" lon="6.74255">
        <ele>409</ele>
        <time>2015-03-08T11:33:22.000Z</time>
      </trkpt>
      <trkpt lat="47.46229" lon="6.74256">
        <ele>409</ele>
        <time>2015-03-08T11:33:23.000Z</time>
      </trkpt>
      <trkpt lat="47.46232" lon="6.74258">
        <ele>409</ele>
        <time>2015-03-08T11:33:24.000Z</time>
      </trkpt>
      <trkpt lat="47.46235" lon="6.7426">
        <ele>409</ele>
        <time>2015-03-08T11:33:25.000Z</time>
      </trkpt>
      <trkpt lat="47.46239" lon="6.74261">
        <ele>409</ele>
        <time>2015-03-08T11:33:26.000Z</time>
      </trkpt>
      <trkpt lat="47.46242" lon="6.74264">
        <ele>409</ele>
        <time>2015-03-08T11:33:27.000Z</time>
      </trkpt>
      <trkpt lat="47.46245" lon="6.74266">
        <ele>409</ele>
        <time>2015-03-08T11:33:28.000Z</time>
      </trkpt>
      <trkpt lat="47.46248" lon="6.74268">
        <ele>409</ele>
        <time>2015-03-08T11:33:29.000Z</time>
      </trkpt>
      <trkpt lat="47.46251" lon="6.7427">
        <ele>409</ele>
        <time>2015-03-08T11:33:30.000Z</time>
      </trkpt>
      <trkpt lat="47.46254" lon="6.74271">
        <ele>409</ele>
        <time>2015-03-08T11:33:31.000Z</time>
      </trkpt>
      <trkpt lat="47.46256" lon="6.74272">
        <ele>409</ele>
        <time>2015-03-08T11:33:32.000Z</time>
      </trkpt>
      <trkpt lat="47.46259" lon="6.74273">
        <ele>409</ele>
        <time>2015-03-08T11:33:33.000Z</time>
      </trkpt>
      <trkpt lat="47.46261" lon="6.74274">
        <ele>409</ele>
        <time>2015-03-08T11:33:34.000Z</time>
      </trkpt>
      <trkpt lat="47.46264" lon="6.74275">
        <ele>409</ele>
        <time>2015-03-08T11:33:35.000Z</time>
      </trkpt>
      <trkpt lat="47.46266" lon="6.74275">
        <ele>409</ele>
        <time>2015-03-08T11:33:36.000Z</time>
      </trkpt>
      <trkpt lat="47.46269" lon="6.74273">
        <ele>409</ele>
        <time>2015-03-08T11:33:38.000Z</time>
      </trkpt>
      <trkpt lat="47.46271" lon="6.74273">
        <ele>409</ele>
        <time>2015-03-08T11:33:39.000Z</time>
      </trkpt>
      <trkpt lat="47.46274" lon="6.74275">
        <ele>408</ele>
        <time>2015-03-08T11:33:41.000Z</time>
      </trkpt>
      <trkpt lat="47.46276" lon="6.74278">
        <ele>408</ele>
        <time>2015-03-08T11:33:42.000Z</time>
      </trkpt>
      <trkpt lat="47.46278" lon="6.74283">
        <ele>408</ele>
        <time>2015-03-08T11:33:43.000Z</time>
      </trkpt>
      <trkpt lat="47.46281" lon="6.74287">
        <ele>407</ele>
        <time>2015-03-08T11:33:44.000Z</time>
      </trkpt>
      <trkpt lat="47.46284" lon="6.74289">
        <ele>407</ele>
        <time>2015-03-08T11:33:45.000Z</time>
      </trkpt>
      <trkpt lat="47.46286" lon="6.74289">
        <ele>407</ele>
        <time>2015-03-08T11:33:46.000Z</time>
      </trkpt>
      <trkpt lat="47.46289" lon="6.7429">
        <ele>407</ele>
        <time>2015-03-08T11:33:47.000Z</time>
      </trkpt>
      <trkpt lat="47.46292" lon="6.74289">
        <ele>407</ele>
        <time>2015-03-08T11:33:48.000Z</time>
      </trkpt>
      <trkpt lat="47.46295" lon="6.74289">
        <ele>408</ele>
        <time>2015-03-08T11:33:49.000Z</time>
      </trkpt>
      <trkpt lat="47.46297" lon="6.74289">
        <ele>408</ele>
        <time>2015-03-08T11:33:50.000Z</time>
      </trkpt>
      <trkpt lat="47.463" lon="6.7429">
        <ele>408</ele>
        <time>2015-03-08T11:33:52.000Z</time>
      </trkpt>
      <trkpt lat="47.46302" lon="6.74292">
        <ele>407</ele>
        <time>2015-03-08T11:33:53.000Z</time>
      </trkpt>
      <trkpt lat="47.46304" lon="6.74293">
        <ele>407</ele>
        <time>2015-03-08T11:33:54.000Z</time>
      </trkpt>
      <trkpt lat="47.46307" lon="6.74294">
        <ele>407</ele>
        <time>2015-03-08T11:33:55.000Z</time>
      </trkpt>
      <trkpt lat="47.46309" lon="6.74294">
        <ele>407</ele>
        <time>2015-03-08T11:33:56.000Z</time>
      </trkpt>
      <trkpt lat="47.46312" lon="6.74294">
        <ele>408</ele>
        <time>2015-03-08T11:33:57.000Z</time>
      </trkpt>
      <trkpt lat="47.46315" lon="6.74293">
        <ele>408</ele>
        <time>2015-03-08T11:33:58.000Z</time>
      </trkpt>
      <trkpt lat="47.46319" lon="6.74294">
        <ele>408</ele>
        <time>2015-03-08T11:33:59.000Z</time>
      </trkpt>
      <trkpt lat="47.46323" lon="6.74294">
        <ele>408</ele>
        <time>2015-03-08T11:34:00.000Z</time>
      </trkpt>
      <trkpt lat="47.46327" lon="6.74295">
        <ele>408</ele>
        <time>2015-03-08T11:34:01.000Z</time>
      </trkpt>
      <trkpt lat="47.46331" lon="6.74296">
        <ele>408</ele>
        <time>2015-03-08T11:34:02.000Z</time>
      </trkpt>
      <trkpt lat="47.46334" lon="6.74297">
        <ele>408</ele>
        <time>2015-03-08T11:34:03.000Z</time>
      </trkpt>
      <trkpt lat="47.46338" lon="6.74297">
        <ele>408</ele>
        <time>2015-03-08T11:34:04.000Z</time>
      </trkpt>
      <trkpt lat="47.46341" lon="6.74298">
        <ele>408</ele>
        <time>2015-03-08T11:34:05.000Z</time>
      </trkpt>
      <trkpt lat="47.46345" lon="6.74298">
        <ele>408</ele>
        <time>2015-03-08T11:34:06.000Z</time>
      </trkpt>
      <trkpt lat="47.46349" lon="6.74299">
        <ele>408</ele>
        <time>2015-03-08T11:34:07.000Z</time>
      </trkpt>
      <trkpt lat="47.46353" lon="6.74301">
        <ele>408</ele>
        <time>2015-03-08T11:34:08.000Z</time>
      </trkpt>
      <trkpt lat="47.46357" lon="6.74302">
        <ele>408</ele>
        <time>2015-03-08T11:34:09.000Z</time>
      </trkpt>
      <trkpt lat="47.46362" lon="6.74304">
        <ele>407</ele>
        <time>2015-03-08T11:34:10.000Z</time>
      </trkpt>
      <trkpt lat="47.46366" lon="6.74306">
        <ele>407</ele>
        <time>2015-03-08T11:34:11.000Z</time>
      </trkpt>
      <trkpt lat="47.4637" lon="6.74308">
        <ele>407</ele>
        <time>2015-03-08T11:34:12.000Z</time>
      </trkpt>
      <trkpt lat="47.46375" lon="6.7431">
        <ele>407</ele>
        <time>2015-03-08T11:34:13.000Z</time>
      </trkpt>
      <trkpt lat="47.46379" lon="6.74312">
        <ele>407</ele>
        <time>2015-03-08T11:34:14.000Z</time>
      </trkpt>
      <trkpt lat="47.46384" lon="6.74314">
        <ele>407</ele>
        <time>2015-03-08T11:34:15.000Z</time>
      </trkpt>
      <trkpt lat="47.46389" lon="6.74316">
        <ele>407</ele>
        <time>2015-03-08T11:34:16.000Z</time>
      </trkpt>
      <trkpt lat="47.46393" lon="6.74318">
        <ele>407</ele>
        <time>2015-03-08T11:34:17.000Z</time>
      </trkpt>
      <trkpt lat="47.46398" lon="6.7432">
        <ele>407</ele>
        <time>2015-03-08T11:34:18.000Z</time>
      </trkpt>
      <trkpt lat="47.46403" lon="6.74323">
        <ele>406</ele>
        <time>2015-03-08T11:34:19.000Z</time>
      </trkpt>
      <trkpt lat="47.46407" lon="6.74326">
        <ele>406</ele>
        <time>2015-03-08T11:34:20.000Z</time>
      </trkpt>
      <trkpt lat="47.46412" lon="6.74328">
        <ele>406</ele>
        <time>2015-03-08T11:34:21.000Z</time>
      </trkpt>
      <trkpt lat="47.46417" lon="6.74331">
        <ele>405</ele>
        <time>2015-03-08T11:34:22.000Z</time>
      </trkpt>
      <trkpt lat="47.46421" lon="6.74334">
        <ele>404</ele>
        <time>2015-03-08T11:34:23.000Z</time>
      </trkpt>
      <trkpt lat="47.46425" lon="6.74336">
        <ele>404</ele>
        <time>2015-03-08T11:34:24.000Z</time>
      </trkpt>
      <trkpt lat="47.46429" lon="6.74338">
        <ele>403</ele>
        <time>2015-03-08T11:34:25.000Z</time>
      </trkpt>
      <trkpt lat="47.46431" lon="6.74339">
        <ele>403</ele>
        <time>2015-03-08T11:34:25.998Z</time>
      </trkpt>
      <trkpt lat="47.46435" lon="6.74344">
        <ele>402</ele>
        <time>2015-03-08T11:34:27.000Z</time>
      </trkpt>
      <trkpt lat="47.46439" lon="6.74347">
        <ele>402</ele>
        <time>2015-03-08T11:34:28.000Z</time>
      </trkpt>
      <trkpt lat="47.46442" lon="6.7435">
        <ele>402</ele>
        <time>2015-03-08T11:34:29.000Z</time>
      </trkpt>
      <trkpt lat="47.46445" lon="6.74353">
        <ele>402</ele>
        <time>2015-03-08T11:34:30.000Z</time>
      </trkpt>
      <trkpt lat="47.46447" lon="6.74355">
        <ele>402</ele>
        <time>2015-03-08T11:34:31.000Z</time>
      </trkpt>
      <trkpt lat="47.4645" lon="6.74358">
        <ele>401</ele>
        <time>2015-03-08T11:34:32.000Z</time>
      </trkpt>
      <trkpt lat="47.46454" lon="6.7436">
        <ele>401</ele>
        <time>2015-03-08T11:34:33.000Z</time>
      </trkpt>
      <trkpt lat="47.46457" lon="6.74363">
        <ele>401</ele>
        <time>2015-03-08T11:34:34.000Z</time>
      </trkpt>
      <trkpt lat="47.46461" lon="6.74367">
        <ele>401</ele>
        <time>2015-03-08T11:34:35.000Z</time>
      </trkpt>
      <trkpt lat="47.46466" lon="6.74372">
        <ele>401</ele>
        <time>2015-03-08T11:34:36.000Z</time>
      </trkpt>
      <trkpt lat="47.46471" lon="6.74377">
        <ele>401</ele>
        <time>2015-03-08T11:34:37.000Z</time>
      </trkpt>
      <trkpt lat="47.46476" lon="6.74383">
        <ele>401</ele>
        <time>2015-03-08T11:34:38.000Z</time>
      </trkpt>
      <trkpt lat="47.46481" lon="6.74388">
        <ele>401</ele>
        <time>2015-03-08T11:34:39.000Z</time>
      </trkpt>
      <trkpt lat="47.46486" lon="6.74393">
        <ele>400</ele>
        <time>2015-03-08T11:34:40.000Z</time>
      </trkpt>
      <trkpt lat="47.46491" lon="6.74398">
        <ele>400</ele>
        <time>2015-03-08T11:34:41.000Z</time>
      </trkpt>
      <trkpt lat="47.46496" lon="6.74402">
        <ele>400</ele>
        <time>2015-03-08T11:34:42.000Z</time>
      </trkpt>
      <trkpt lat="47.46501" lon="6.74406">
        <ele>402</ele>
        <time>2015-03-08T11:34:43.000Z</time>
      </trkpt>
      <trkpt lat="47.46506" lon="6.74408">
        <ele>402</ele>
        <time>2015-03-08T11:34:44.000Z</time>
      </trkpt>
      <trkpt lat="47.46511" lon="6.74411">
        <ele>402</ele>
        <time>2015-03-08T11:34:45.000Z</time>
      </trkpt>
      <trkpt lat="47.46516" lon="6.74414">
        <ele>403</ele>
        <time>2015-03-08T11:34:46.000Z</time>
      </trkpt>
      <trkpt lat="47.46522" lon="6.74417">
        <ele>398</ele>
        <time>2015-03-08T11:34:47.000Z</time>
      </trkpt>
      <trkpt lat="47.46528" lon="6.74421">
        <ele>398</ele>
        <time>2015-03-08T11:34:48.000Z</time>
      </trkpt>
      <trkpt lat="47.46533" lon="6.74425">
        <ele>398</ele>
        <time>2015-03-08T11:34:49.000Z</time>
      </trkpt>
      <trkpt lat="47.46538" lon="6.74431">
        <ele>398</ele>
        <time>2015-03-08T11:34:50.000Z</time>
      </trkpt>
      <trkpt lat="47.46543" lon="6.74437">
        <ele>398</ele>
        <time>2015-03-08T11:34:51.000Z</time>
      </trkpt>
      <trkpt lat="47.46548" lon="6.74443">
        <ele>398</ele>
        <time>2015-03-08T11:34:52.000Z</time>
      </trkpt>
      <trkpt lat="47.4656" lon="6.74464">
        <ele>397</ele>
        <time>2015-03-08T11:34:53.000Z</time>
      </trkpt>
      <trkpt lat="47.46564" lon="6.74467">
        <ele>397</ele>
        <time>2015-03-08T11:34:54.000Z</time>
      </trkpt>
      <trkpt lat="47.46568" lon="6.74471">
        <ele>397</ele>
        <time>2015-03-08T11:34:55.000Z</time>
      </trkpt>
      <trkpt lat="47.46575" lon="6.74477">
        <ele>397</ele>
        <time>2015-03-08T11:34:56.000Z</time>
      </trkpt>
      <trkpt lat="47.46578" lon="6.74481">
        <ele>396</ele>
        <time>2015-03-08T11:34:57.000Z</time>
      </trkpt>
      <trkpt lat="47.46584" lon="6.74489">
        <ele>399</ele>
        <time>2015-03-08T11:34:58.000Z</time>
      </trkpt>
      <trkpt lat="47.46588" lon="6.74499">
        <ele>398</ele>
        <time>2015-03-08T11:34:59.000Z</time>
      </trkpt>
      <trkpt lat="47.46595" lon="6.74504">
        <ele>395</ele>
        <time>2015-03-08T11:35:00.000Z</time>
      </trkpt>
      <trkpt lat="47.466" lon="6.74509">
        <ele>394</ele>
        <time>2015-03-08T11:35:01.000Z</time>
      </trkpt>
      <trkpt lat="47.46606" lon="6.74518">
        <ele>393</ele>
        <time>2015-03-08T11:35:02.000Z</time>
      </trkpt>
      <trkpt lat="47.46611" lon="6.74525">
        <ele>393</ele>
        <time>2015-03-08T11:35:03.000Z</time>
      </trkpt>
      <trkpt lat="47.46614" lon="6.74532">
        <ele>392</ele>
        <time>2015-03-08T11:35:04.000Z</time>
      </trkpt>
      <trkpt lat="47.46618" lon="6.74539">
        <ele>392</ele>
        <time>2015-03-08T11:35:05.000Z</time>
      </trkpt>
      <trkpt lat="47.46622" lon="6.74551">
        <ele>391</ele>
        <time>2015-03-08T11:35:06.000Z</time>
      </trkpt>
      <trkpt lat="47.46626" lon="6.74556">
        <ele>391</ele>
        <time>2015-03-08T11:35:07.000Z</time>
      </trkpt>
      <trkpt lat="47.46631" lon="6.74563">
        <ele>390</ele>
        <time>2015-03-08T11:35:08.000Z</time>
      </trkpt>
      <trkpt lat="47.46635" lon="6.74574">
        <ele>390</ele>
        <time>2015-03-08T11:35:09.000Z</time>
      </trkpt>
      <trkpt lat="47.46637" lon="6.74581">
        <ele>390</ele>
        <time>2015-03-08T11:35:10.000Z</time>
      </trkpt>
      <trkpt lat="47.46642" lon="6.74589">
        <ele>379</ele>
        <time>2015-03-08T11:35:11.000Z</time>
      </trkpt>
      <trkpt lat="47.46647" lon="6.74596">
        <ele>379</ele>
        <time>2015-03-08T11:35:12.000Z</time>
      </trkpt>
      <trkpt lat="47.46652" lon="6.74604">
        <ele>378</ele>
        <time>2015-03-08T11:35:13.000Z</time>
      </trkpt>
      <trkpt lat="47.46657" lon="6.74611">
        <ele>377</ele>
        <time>2015-03-08T11:35:14.000Z</time>
      </trkpt>
      <trkpt lat="47.46662" lon="6.74616">
        <ele>376</ele>
        <time>2015-03-08T11:35:15.000Z</time>
      </trkpt>
      <trkpt lat="47.46669" lon="6.74629">
        <ele>374</ele>
        <time>2015-03-08T11:35:16.000Z</time>
      </trkpt>
      <trkpt lat="47.46674" lon="6.74637">
        <ele>372</ele>
        <time>2015-03-08T11:35:17.000Z</time>
      </trkpt>
      <trkpt lat="47.46681" lon="6.74649">
        <ele>370</ele>
        <time>2015-03-08T11:35:18.000Z</time>
      </trkpt>
      <trkpt lat="47.46687" lon="6.74667">
        <ele>369</ele>
        <time>2015-03-08T11:35:19.000Z</time>
      </trkpt>
      <trkpt lat="47.46693" lon="6.74682">
        <ele>359</ele>
        <time>2015-03-08T11:35:20.000Z</time>
      </trkpt>
      <trkpt lat="47.46698" lon="6.7469">
        <ele>358</ele>
        <time>2015-03-08T11:35:21.000Z</time>
      </trkpt>
      <trkpt lat="47.46704" lon="6.74697">
        <ele>357</ele>
        <time>2015-03-08T11:35:22.000Z</time>
      </trkpt>
      <trkpt lat="47.46709" lon="6.74699">
        <ele>357</ele>
        <time>2015-03-08T11:35:23.000Z</time>
      </trkpt>
      <trkpt lat="47.46713" lon="6.74696">
        <ele>357</ele>
        <time>2015-03-08T11:35:24.000Z</time>
      </trkpt>
      <trkpt lat="47.46717" lon="6.74698">
        <ele>357</ele>
        <time>2015-03-08T11:35:25.000Z</time>
      </trkpt>
      <trkpt lat="47.4672" lon="6.74697">
        <ele>357</ele>
        <time>2015-03-08T11:35:26.000Z</time>
      </trkpt>
      <trkpt lat="47.46723" lon="6.74697">
        <ele>357</ele>
        <time>2015-03-08T11:35:27.000Z</time>
      </trkpt>
      <trkpt lat="47.46727" lon="6.74696">
        <ele>357</ele>
        <time>2015-03-08T11:35:28.000Z</time>
      </trkpt>
      <trkpt lat="47.46729" lon="6.74696">
        <ele>357</ele>
        <time>2015-03-08T11:35:29.000Z</time>
      </trkpt>
      <trkpt lat="47.46732" lon="6.74696">
        <ele>357</ele>
        <time>2015-03-08T11:35:30.000Z</time>
      </trkpt>
      <trkpt lat="47.46735" lon="6.74696">
        <ele>357</ele>
        <time>2015-03-08T11:35:31.000Z</time>
      </trkpt>
      <trkpt lat="47.46738" lon="6.74695">
        <ele>357</ele>
        <time>2015-03-08T11:35:32.000Z</time>
      </trkpt>
      <trkpt lat="47.46742" lon="6.74696">
        <ele>357</ele>
        <time>2015-03-08T11:35:33.000Z</time>
      </trkpt>
      <trkpt lat="47.46746" lon="6.74695">
        <ele>357</ele>
        <time>2015-03-08T11:35:34.000Z</time>
      </trkpt>
      <trkpt lat="47.46749" lon="6.74694">
        <ele>357</ele>
        <time>2015-03-08T11:35:35.000Z</time>
      </trkpt>
      <trkpt lat="47.46753" lon="6.74692">
        <ele>353</ele>
        <time>2015-03-08T11:35:36.000Z</time>
      </trkpt>
      <trkpt lat="47.46757" lon="6.7469">
        <ele>353</ele>
        <time>2015-03-08T11:35:37.000Z</time>
      </trkpt>
      <trkpt lat="47.4676" lon="6.74688">
        <ele>353</ele>
        <time>2015-03-08T11:35:38.000Z</time>
      </trkpt>
      <trkpt lat="47.46763" lon="6.74686">
        <ele>353</ele>
        <time>2015-03-08T11:35:39.000Z</time>
      </trkpt>
      <trkpt lat="47.46766" lon="6.74682">
        <ele>353</ele>
        <time>2015-03-08T11:35:40.000Z</time>
      </trkpt>
      <trkpt lat="47.46769" lon="6.74679">
        <ele>353</ele>
        <time>2015-03-08T11:35:41.000Z</time>
      </trkpt>
      <trkpt lat="47.46771" lon="6.74675">
        <ele>353</ele>
        <time>2015-03-08T11:35:42.000Z</time>
      </trkpt>
      <trkpt lat="47.46774" lon="6.74671">
        <ele>353</ele>
        <time>2015-03-08T11:35:43.000Z</time>
      </trkpt>
      <trkpt lat="47.46776" lon="6.74667">
        <ele>353</ele>
        <time>2015-03-08T11:35:44.000Z</time>
      </trkpt>
      <trkpt lat="47.46779" lon="6.74664">
        <ele>360</ele>
        <time>2015-03-08T11:35:45.000Z</time>
      </trkpt>
      <trkpt lat="47.46782" lon="6.74661">
        <ele>360</ele>
        <time>2015-03-08T11:35:46.000Z</time>
      </trkpt>
      <trkpt lat="47.46784" lon="6.74658">
        <ele>360</ele>
        <time>2015-03-08T11:35:47.000Z</time>
      </trkpt>
      <trkpt lat="47.46787" lon="6.74656">
        <ele>360</ele>
        <time>2015-03-08T11:35:48.000Z</time>
      </trkpt>
      <trkpt lat="47.4679" lon="6.74655">
        <ele>360</ele>
        <time>2015-03-08T11:35:49.000Z</time>
      </trkpt>
      <trkpt lat="47.46792" lon="6.74653">
        <ele>360</ele>
        <time>2015-03-08T11:35:50.000Z</time>
      </trkpt>
      <trkpt lat="47.46795" lon="6.74651">
        <ele>359</ele>
        <time>2015-03-08T11:35:51.000Z</time>
      </trkpt>
      <trkpt lat="47.46799" lon="6.7465">
        <ele>359</ele>
        <time>2015-03-08T11:35:52.000Z</time>
      </trkpt>
      <trkpt lat="47.46803" lon="6.74649">
        <ele>358</ele>
        <time>2015-03-08T11:35:53.000Z</time>
      </trkpt>
      <trkpt lat="47.46807" lon="6.74648">
        <ele>358</ele>
        <time>2015-03-08T11:35:54.000Z</time>
      </trkpt>
      <trkpt lat="47.46813" lon="6.74649">
        <ele>357</ele>
        <time>2015-03-08T11:35:55.000Z</time>
      </trkpt>
      <trkpt lat="47.46816" lon="6.74647">
        <ele>356</ele>
        <time>2015-03-08T11:35:56.000Z</time>
      </trkpt>
      <trkpt lat="47.46818" lon="6.74644">
        <ele>357</ele>
        <time>2015-03-08T11:35:57.000Z</time>
      </trkpt>
      <trkpt lat="47.46821" lon="6.74642">
        <ele>357</ele>
        <time>2015-03-08T11:35:58.000Z</time>
      </trkpt>
      <trkpt lat="47.46825" lon="6.74643">
        <ele>356</ele>
        <time>2015-03-08T11:35:59.000Z</time>
      </trkpt>
      <trkpt lat="47.46828" lon="6.74641">
        <ele>356</ele>
        <time>2015-03-08T11:36:00.000Z</time>
      </trkpt>
      <trkpt lat="47.4683" lon="6.74639">
        <ele>357</ele>
        <time>2015-03-08T11:36:01.000Z</time>
      </trkpt>
      <trkpt lat="47.46832" lon="6.74637">
        <ele>357</ele>
        <time>2015-03-08T11:36:02.000Z</time>
      </trkpt>
      <trkpt lat="47.46835" lon="6.74635">
        <ele>349</ele>
        <time>2015-03-08T11:36:03.000Z</time>
      </trkpt>
      <trkpt lat="47.46837" lon="6.74632">
        <ele>349</ele>
        <time>2015-03-08T11:36:04.000Z</time>
      </trkpt>
      <trkpt lat="47.4684" lon="6.7463">
        <ele>349</ele>
        <time>2015-03-08T11:36:05.000Z</time>
      </trkpt>
      <trkpt lat="47.46842" lon="6.74627">
        <ele>349</ele>
        <time>2015-03-08T11:36:06.000Z</time>
      </trkpt>
      <trkpt lat="47.46844" lon="6.74625">
        <ele>349</ele>
        <time>2015-03-08T11:36:07.000Z</time>
      </trkpt>
      <trkpt lat="47.46846" lon="6.74623">
        <ele>350</ele>
        <time>2015-03-08T11:36:08.000Z</time>
      </trkpt>
      <trkpt lat="47.46848" lon="6.74622">
        <ele>350</ele>
        <time>2015-03-08T11:36:09.000Z</time>
      </trkpt>
      <trkpt lat="47.4685" lon="6.7462">
        <ele>350</ele>
        <time>2015-03-08T11:36:10.000Z</time>
      </trkpt>
      <trkpt lat="47.46852" lon="6.74619">
        <ele>350</ele>
        <time>2015-03-08T11:36:11.000Z</time>
      </trkpt>
      <trkpt lat="47.46856" lon="6.74615">
        <ele>350</ele>
        <time>2015-03-08T11:36:13.000Z</time>
      </trkpt>
      <trkpt lat="47.46857" lon="6.74614">
        <ele>350</ele>
        <time>2015-03-08T11:36:14.000Z</time>
      </trkpt>
      <trkpt lat="47.4686" lon="6.74611">
        <ele>350</ele>
        <time>2015-03-08T11:36:16.000Z</time>
      </trkpt>
      <trkpt lat="47.46862" lon="6.7461">
        <ele>350</ele>
        <time>2015-03-08T11:36:17.000Z</time>
      </trkpt>
      <trkpt lat="47.46865" lon="6.74608">
        <ele>350</ele>
        <time>2015-03-08T11:36:19.000Z</time>
      </trkpt>
      <trkpt lat="47.46867" lon="6.74607">
        <ele>350</ele>
        <time>2015-03-08T11:36:20.000Z</time>
      </trkpt>
      <trkpt lat="47.4687" lon="6.74604">
        <ele>350</ele>
        <time>2015-03-08T11:36:22.000Z</time>
      </trkpt>
      <trkpt lat="47.46871" lon="6.74602">
        <ele>350</ele>
        <time>2015-03-08T11:36:23.000Z</time>
      </trkpt>
      <trkpt lat="47.46875" lon="6.74599">
        <ele>349</ele>
        <time>2015-03-08T11:36:25.000Z</time>
      </trkpt>
      <trkpt lat="47.46877" lon="6.74597">
        <ele>349</ele>
        <time>2015-03-08T11:36:26.000Z</time>
      </trkpt>
      <trkpt lat="47.46881" lon="6.74595">
        <ele>349</ele>
        <time>2015-03-08T11:36:28.000Z</time>
      </trkpt>
      <trkpt lat="47.46882" lon="6.74594">
        <ele>349</ele>
        <time>2015-03-08T11:36:29.000Z</time>
      </trkpt>
      <trkpt lat="47.46885" lon="6.74592">
        <ele>349</ele>
        <time>2015-03-08T11:36:31.000Z</time>
      </trkpt>
      <trkpt lat="47.46887" lon="6.74591">
        <ele>349</ele>
        <time>2015-03-08T11:36:32.000Z</time>
      </trkpt>
      <trkpt lat="47.4689" lon="6.74589">
        <ele>348</ele>
        <time>2015-03-08T11:36:34.000Z</time>
      </trkpt>
      <trkpt lat="47.46891" lon="6.74588">
        <ele>348</ele>
        <time>2015-03-08T11:36:35.000Z</time>
      </trkpt>
      <trkpt lat="47.46895" lon="6.74589">
        <ele>348</ele>
        <time>2015-03-08T11:37:01.000Z</time>
      </trkpt>
      <trkpt lat="47.46896" lon="6.74588">
        <ele>348</ele>
        <time>2015-03-08T11:37:02.000Z</time>
      </trkpt>
      <trkpt lat="47.46899" lon="6.74587">
        <ele>348</ele>
        <time>2015-03-08T11:37:04.000Z</time>
      </trkpt>
      <trkpt lat="47.46901" lon="6.74585">
        <ele>348</ele>
        <time>2015-03-08T11:37:05.000Z</time>
      </trkpt>
      <trkpt lat="47.46903" lon="6.74583">
        <ele>348</ele>
        <time>2015-03-08T11:37:06.000Z</time>
      </trkpt>
      <trkpt lat="47.46906" lon="6.74582">
        <ele>350</ele>
        <time>2015-03-08T11:37:07.000Z</time>
      </trkpt>
      <trkpt lat="47.4691" lon="6.74581">
        <ele>350</ele>
        <time>2015-03-08T11:37:08.000Z</time>
      </trkpt>
      <trkpt lat="47.46914" lon="6.7458">
        <ele>349</ele>
        <time>2015-03-08T11:37:09.000Z</time>
      </trkpt>
      <trkpt lat="47.46918" lon="6.74579">
        <ele>347</ele>
        <time>2015-03-08T11:37:10.000Z</time>
      </trkpt>
      <trkpt lat="47.46922" lon="6.74577">
        <ele>347</ele>
        <time>2015-03-08T11:37:11.000Z</time>
      </trkpt>
      <trkpt lat="47.46926" lon="6.74575">
        <ele>347</ele>
        <time>2015-03-08T11:37:12.000Z</time>
      </trkpt>
      <trkpt lat="47.4693" lon="6.74573">
        <ele>347</ele>
        <time>2015-03-08T11:37:13.000Z</time>
      </trkpt>
      <trkpt lat="47.46934" lon="6.74571">
        <ele>347</ele>
        <time>2015-03-08T11:37:14.000Z</time>
      </trkpt>
      <trkpt lat="47.46936" lon="6.74569">
        <ele>347</ele>
        <time>2015-03-08T11:37:15.000Z</time>
      </trkpt>
      <trkpt lat="47.46939" lon="6.74567">
        <ele>347</ele>
        <time>2015-03-08T11:37:16.000Z</time>
      </trkpt>
      <trkpt lat="47.46941" lon="6.74566">
        <ele>347</ele>
        <time>2015-03-08T11:37:17.000Z</time>
      </trkpt>
      <trkpt lat="47.46944" lon="6.74565">
        <ele>347</ele>
        <time>2015-03-08T11:37:18.000Z</time>
      </trkpt>
      <trkpt lat="47.46947" lon="6.74564">
        <ele>347</ele>
        <time>2015-03-08T11:37:19.000Z</time>
      </trkpt>
      <trkpt lat="47.4695" lon="6.74563">
        <ele>347</ele>
        <time>2015-03-08T11:37:20.000Z</time>
      </trkpt>
      <trkpt lat="47.46954" lon="6.74562">
        <ele>347</ele>
        <time>2015-03-08T11:37:21.000Z</time>
      </trkpt>
      <trkpt lat="47.46957" lon="6.74561">
        <ele>347</ele>
        <time>2015-03-08T11:37:22.000Z</time>
      </trkpt>
      <trkpt lat="47.46961" lon="6.74561">
        <ele>347</ele>
        <time>2015-03-08T11:37:23.000Z</time>
      </trkpt>
      <trkpt lat="47.46969" lon="6.74562">
        <ele>347</ele>
        <time>2015-03-08T11:37:24.000Z</time>
      </trkpt>
      <trkpt lat="47.46971" lon="6.74563">
        <ele>347</ele>
        <time>2015-03-08T11:37:25.000Z</time>
      </trkpt>
      <trkpt lat="47.46975" lon="6.74564">
        <ele>347</ele>
        <time>2015-03-08T11:37:26.000Z</time>
      </trkpt>
      <trkpt lat="47.4698" lon="6.74567">
        <ele>346</ele>
        <time>2015-03-08T11:37:27.000Z</time>
      </trkpt>
      <trkpt lat="47.46984" lon="6.74568">
        <ele>346</ele>
        <time>2015-03-08T11:37:28.000Z</time>
      </trkpt>
      <trkpt lat="47.46989" lon="6.74569">
        <ele>346</ele>
        <time>2015-03-08T11:37:29.000Z</time>
      </trkpt>
      <trkpt lat="47.46992" lon="6.7457">
        <ele>346</ele>
        <time>2015-03-08T11:37:30.000Z</time>
      </trkpt>
      <trkpt lat="47.46996" lon="6.74571">
        <ele>345</ele>
        <time>2015-03-08T11:37:31.000Z</time>
      </trkpt>
      <trkpt lat="47.47001" lon="6.74567">
        <ele>344</ele>
        <time>2015-03-08T11:37:32.000Z</time>
      </trkpt>
      <trkpt lat="47.47006" lon="6.7457">
        <ele>344</ele>
        <time>2015-03-08T11:37:33.000Z</time>
      </trkpt>
      <trkpt lat="47.47012" lon="6.74572">
        <ele>343</ele>
        <time>2015-03-08T11:37:34.000Z</time>
      </trkpt>
      <trkpt lat="47.47019" lon="6.74571">
        <ele>343</ele>
        <time>2015-03-08T11:37:35.000Z</time>
      </trkpt>
      <trkpt lat="47.47025" lon="6.74569">
        <ele>343</ele>
        <time>2015-03-08T11:37:36.000Z</time>
      </trkpt>
      <trkpt lat="47.47029" lon="6.74568">
        <ele>343</ele>
        <time>2015-03-08T11:37:37.000Z</time>
      </trkpt>
      <trkpt lat="47.47033" lon="6.74568">
        <ele>343</ele>
        <time>2015-03-08T11:37:38.000Z</time>
      </trkpt>
      <trkpt lat="47.47038" lon="6.74568">
        <ele>343</ele>
        <time>2015-03-08T11:37:39.000Z</time>
      </trkpt>
      <trkpt lat="47.47042" lon="6.74572">
        <ele>343</ele>
        <time>2015-03-08T11:37:40.000Z</time>
      </trkpt>
      <trkpt lat="47.47041" lon="6.74579">
        <ele>343</ele>
        <time>2015-03-08T11:37:41.000Z</time>
      </trkpt>
      <trkpt lat="47.47042" lon="6.74587">
        <ele>341</ele>
        <time>2015-03-08T11:37:42.000Z</time>
      </trkpt>
      <trkpt lat="47.47041" lon="6.74591">
        <ele>341</ele>
        <time>2015-03-08T11:37:43.000Z</time>
      </trkpt>
      <trkpt lat="47.47039" lon="6.74594">
        <ele>341</ele>
        <time>2015-03-08T11:37:44.000Z</time>
      </trkpt>
      <trkpt lat="47.47037" lon="6.746">
        <ele>341</ele>
        <time>2015-03-08T11:37:45.000Z</time>
      </trkpt>
      <trkpt lat="47.47034" lon="6.74604">
        <ele>341</ele>
        <time>2015-03-08T11:37:46.000Z</time>
      </trkpt>
      <trkpt lat="47.47031" lon="6.74609">
        <ele>341</ele>
        <time>2015-03-08T11:37:47.000Z</time>
      </trkpt>
      <trkpt lat="47.47029" lon="6.74614">
        <ele>341</ele>
        <time>2015-03-08T11:37:48.000Z</time>
      </trkpt>
      <trkpt lat="47.47027" lon="6.7462">
        <ele>341</ele>
        <time>2015-03-08T11:37:49.000Z</time>
      </trkpt>
      <trkpt lat="47.47025" lon="6.74625">
        <ele>341</ele>
        <time>2015-03-08T11:37:50.000Z</time>
      </trkpt>
      <trkpt lat="47.47022" lon="6.74632">
        <ele>341</ele>
        <time>2015-03-08T11:37:51.000Z</time>
      </trkpt>
      <trkpt lat="47.4702" lon="6.74637">
        <ele>340</ele>
        <time>2015-03-08T11:37:52.000Z</time>
      </trkpt>
      <trkpt lat="47.47018" lon="6.74644">
        <ele>340</ele>
        <time>2015-03-08T11:37:53.000Z</time>
      </trkpt>
      <trkpt lat="47.47017" lon="6.74649">
        <ele>340</ele>
        <time>2015-03-08T11:37:54.000Z</time>
      </trkpt>
      <trkpt lat="47.47015" lon="6.74657">
        <ele>339</ele>
        <time>2015-03-08T11:37:55.000Z</time>
      </trkpt>
      <trkpt lat="47.47012" lon="6.74666">
        <ele>339</ele>
        <time>2015-03-08T11:37:56.000Z</time>
      </trkpt>
      <trkpt lat="47.4701" lon="6.74673">
        <ele>338</ele>
        <time>2015-03-08T11:37:57.000Z</time>
      </trkpt>
      <trkpt lat="47.47008" lon="6.74681">
        <ele>338</ele>
        <time>2015-03-08T11:37:58.000Z</time>
      </trkpt>
      <trkpt lat="47.47007" lon="6.7469">
        <ele>338</ele>
        <time>2015-03-08T11:37:59.000Z</time>
      </trkpt>
      <trkpt lat="47.47004" lon="6.747">
        <ele>337</ele>
        <time>2015-03-08T11:38:00.000Z</time>
      </trkpt>
      <trkpt lat="47.47002" lon="6.74721">
        <ele>337</ele>
        <time>2015-03-08T11:38:02.000Z</time>
      </trkpt>
      <trkpt lat="47.47002" lon="6.74732">
        <ele>336</ele>
        <time>2015-03-08T11:38:03.000Z</time>
      </trkpt>
      <trkpt lat="47.47002" lon="6.7474">
        <ele>336</ele>
        <time>2015-03-08T11:38:04.000Z</time>
      </trkpt>
      <trkpt lat="47.47001" lon="6.74751">
        <ele>335</ele>
        <time>2015-03-08T11:38:05.000Z</time>
      </trkpt>
      <trkpt lat="47.46999" lon="6.7476">
        <ele>335</ele>
        <time>2015-03-08T11:38:06.000Z</time>
      </trkpt>
      <trkpt lat="47.47001" lon="6.74771">
        <ele>335</ele>
        <time>2015-03-08T11:38:07.000Z</time>
      </trkpt>
      <trkpt lat="47.46998" lon="6.7478">
        <ele>335</ele>
        <time>2015-03-08T11:38:08.000Z</time>
      </trkpt>
      <trkpt lat="47.46997" lon="6.74791">
        <ele>335</ele>
        <time>2015-03-08T11:38:09.000Z</time>
      </trkpt>
      <trkpt lat="47.46997" lon="6.74801">
        <ele>335</ele>
        <time>2015-03-08T11:38:10.000Z</time>
      </trkpt>
      <trkpt lat="47.46997" lon="6.74811">
        <ele>334</ele>
        <time>2015-03-08T11:38:11.000Z</time>
      </trkpt>
      <trkpt lat="47.46998" lon="6.74821">
        <ele>334</ele>
        <time>2015-03-08T11:38:12.000Z</time>
      </trkpt>
      <trkpt lat="47.46998" lon="6.7483">
        <ele>333</ele>
        <time>2015-03-08T11:38:13.000Z</time>
      </trkpt>
      <trkpt lat="47.46998" lon="6.74841">
        <ele>333</ele>
        <time>2015-03-08T11:38:14.000Z</time>
      </trkpt>
      <trkpt lat="47.46998" lon="6.74852">
        <ele>333</ele>
        <time>2015-03-08T11:38:15.000Z</time>
      </trkpt>
      <trkpt lat="47.46999" lon="6.74862">
        <ele>333</ele>
        <time>2015-03-08T11:38:16.000Z</time>
      </trkpt>
      <trkpt lat="47.47" lon="6.74875">
        <ele>333</ele>
        <time>2015-03-08T11:38:17.000Z</time>
      </trkpt>
      <trkpt lat="47.47" lon="6.74886">
        <ele>333</ele>
        <time>2015-03-08T11:38:18.000Z</time>
      </trkpt>
      <trkpt lat="47.47" lon="6.74897">
        <ele>332</ele>
        <time>2015-03-08T11:38:19.000Z</time>
      </trkpt>
      <trkpt lat="47.47001" lon="6.74906">
        <ele>332</ele>
        <time>2015-03-08T11:38:20.000Z</time>
      </trkpt>
      <trkpt lat="47.47" lon="6.74915">
        <ele>331</ele>
        <time>2015-03-08T11:38:21.000Z</time>
      </trkpt>
      <trkpt lat="47.46999" lon="6.74925">
        <ele>332</ele>
        <time>2015-03-08T11:38:22.000Z</time>
      </trkpt>
      <trkpt lat="47.46998" lon="6.74934">
        <ele>332</ele>
        <time>2015-03-08T11:38:23.000Z</time>
      </trkpt>
      <trkpt lat="47.46999" lon="6.74944">
        <ele>332</ele>
        <time>2015-03-08T11:38:24.000Z</time>
      </trkpt>
      <trkpt lat="47.46999" lon="6.74953">
        <ele>332</ele>
        <time>2015-03-08T11:38:25.000Z</time>
      </trkpt>
      <trkpt lat="47.46998" lon="6.74962">
        <ele>332</ele>
        <time>2015-03-08T11:38:26.000Z</time>
      </trkpt>
      <trkpt lat="47.46999" lon="6.74971">
        <ele>332</ele>
        <time>2015-03-08T11:38:27.000Z</time>
      </trkpt>
      <trkpt lat="47.46999" lon="6.74978">
        <ele>332</ele>
        <time>2015-03-08T11:38:28.000Z</time>
      </trkpt>
      <trkpt lat="47.47" lon="6.74986">
        <ele>332</ele>
        <time>2015-03-08T11:38:29.000Z</time>
      </trkpt>
      <trkpt lat="47.47" lon="6.74992">
        <ele>331</ele>
        <time>2015-03-08T11:38:30.000Z</time>
      </trkpt>
      <trkpt lat="47.47" lon="6.75">
        <ele>331</ele>
        <time>2015-03-08T11:38:31.000Z</time>
      </trkpt>
      <trkpt lat="47.46999" lon="6.75006">
        <ele>332</ele>
        <time>2015-03-08T11:38:32.000Z</time>
      </trkpt>
      <trkpt lat="47.46999" lon="6.75013">
        <ele>332</ele>
        <time>2015-03-08T11:38:33.000Z</time>
      </trkpt>
      <trkpt lat="47.46999" lon="6.75021">
        <ele>332</ele>
        <time>2015-03-08T11:38:34.000Z</time>
      </trkpt>
      <trkpt lat="47.47" lon="6.75028">
        <ele>333</ele>
        <time>2015-03-08T11:38:35.000Z</time>
      </trkpt>
      <trkpt lat="47.47" lon="6.75034">
        <ele>333</ele>
        <time>2015-03-08T11:38:36.000Z</time>
      </trkpt>
      <trkpt lat="47.47001" lon="6.75042">
        <ele>332</ele>
        <time>2015-03-08T11:38:37.000Z</time>
      </trkpt>
      <trkpt lat="47.47004" lon="6.75048">
        <ele>332</ele>
        <time>2015-03-08T11:38:38.000Z</time>
      </trkpt>
      <trkpt lat="47.47005" lon="6.75054">
        <ele>332</ele>
        <time>2015-03-08T11:38:39.000Z</time>
      </trkpt>
      <trkpt lat="47.47006" lon="6.75059">
        <ele>332</ele>
        <time>2015-03-08T11:38:40.000Z</time>
      </trkpt>
      <trkpt lat="47.47007" lon="6.75067">
        <ele>332</ele>
        <time>2015-03-08T11:38:41.000Z</time>
      </trkpt>
      <trkpt lat="47.47007" lon="6.75073">
        <ele>332</ele>
        <time>2015-03-08T11:38:42.000Z</time>
      </trkpt>
      <trkpt lat="47.47009" lon="6.7508">
        <ele>333</ele>
        <time>2015-03-08T11:38:43.000Z</time>
      </trkpt>
      <trkpt lat="47.47011" lon="6.75085">
        <ele>333</ele>
        <time>2015-03-08T11:38:44.000Z</time>
      </trkpt>
      <trkpt lat="47.47012" lon="6.75091">
        <ele>333</ele>
        <time>2015-03-08T11:38:45.000Z</time>
      </trkpt>
      <trkpt lat="47.47014" lon="6.75097">
        <ele>333</ele>
        <time>2015-03-08T11:38:46.000Z</time>
      </trkpt>
      <trkpt lat="47.47016" lon="6.75103">
        <ele>333</ele>
        <time>2015-03-08T11:38:47.000Z</time>
      </trkpt>
      <trkpt lat="47.47017" lon="6.75109">
        <ele>333</ele>
        <time>2015-03-08T11:38:48.000Z</time>
      </trkpt>
      <trkpt lat="47.47019" lon="6.75115">
        <ele>333</ele>
        <time>2015-03-08T11:38:49.000Z</time>
      </trkpt>
      <trkpt lat="47.47021" lon="6.7512">
        <ele>333</ele>
        <time>2015-03-08T11:38:50.000Z</time>
      </trkpt>
      <trkpt lat="47.47022" lon="6.75125">
        <ele>333</ele>
        <time>2015-03-08T11:38:51.000Z</time>
      </trkpt>
      <trkpt lat="47.47023" lon="6.7513">
        <ele>333</ele>
        <time>2015-03-08T11:38:52.000Z</time>
      </trkpt>
      <trkpt lat="47.47024" lon="6.75136">
        <ele>333</ele>
        <time>2015-03-08T11:38:53.000Z</time>
      </trkpt>
      <trkpt lat="47.47025" lon="6.75141">
        <ele>333</ele>
        <time>2015-03-08T11:38:54.000Z</time>
      </trkpt>
      <trkpt lat="47.47026" lon="6.75147">
        <ele>333</ele>
        <time>2015-03-08T11:38:55.000Z</time>
      </trkpt>
      <trkpt lat="47.47026" lon="6.75152">
        <ele>333</ele>
        <time>2015-03-08T11:38:56.000Z</time>
      </trkpt>
      <trkpt lat="47.47028" lon="6.75158">
        <ele>333</ele>
        <time>2015-03-08T11:38:57.000Z</time>
      </trkpt>
      <trkpt lat="47.47029" lon="6.75164">
        <ele>333</ele>
        <time>2015-03-08T11:38:58.000Z</time>
      </trkpt>
      <trkpt lat="47.47031" lon="6.75169">
        <ele>333</ele>
        <time>2015-03-08T11:38:59.000Z</time>
      </trkpt>
      <trkpt lat="47.47032" lon="6.75175">
        <ele>333</ele>
        <time>2015-03-08T11:39:00.000Z</time>
      </trkpt>
      <trkpt lat="47.47034" lon="6.75181">
        <ele>332</ele>
        <time>2015-03-08T11:39:01.000Z</time>
      </trkpt>
      <trkpt lat="47.47036" lon="6.75186">
        <ele>332</ele>
        <time>2015-03-08T11:39:02.000Z</time>
      </trkpt>
      <trkpt lat="47.47037" lon="6.75192">
        <ele>332</ele>
        <time>2015-03-08T11:39:03.000Z</time>
      </trkpt>
      <trkpt lat="47.47038" lon="6.75198">
        <ele>332</ele>
        <time>2015-03-08T11:39:04.000Z</time>
      </trkpt>
      <trkpt lat="47.4704" lon="6.75204">
        <ele>332</ele>
        <time>2015-03-08T11:39:05.000Z</time>
      </trkpt>
      <trkpt lat="47.47041" lon="6.75211">
        <ele>332</ele>
        <time>2015-03-08T11:39:06.000Z</time>
      </trkpt>
      <trkpt lat="47.47041" lon="6.75217">
        <ele>332</ele>
        <time>2015-03-08T11:39:07.000Z</time>
      </trkpt>
      <trkpt lat="47.47042" lon="6.75224">
        <ele>332</ele>
        <time>2015-03-08T11:39:08.000Z</time>
      </trkpt>
      <trkpt lat="47.47044" lon="6.75229">
        <ele>332</ele>
        <time>2015-03-08T11:39:09.000Z</time>
      </trkpt>
      <trkpt lat="47.47045" lon="6.75237">
        <ele>332</ele>
        <time>2015-03-08T11:39:10.000Z</time>
      </trkpt>
      <trkpt lat="47.47047" lon="6.75246">
        <ele>332</ele>
        <time>2015-03-08T11:39:11.000Z</time>
      </trkpt>
      <trkpt lat="47.47048" lon="6.75255">
        <ele>331</ele>
        <time>2015-03-08T11:39:12.000Z</time>
      </trkpt>
      <trkpt lat="47.4705" lon="6.75267">
        <ele>331</ele>
        <time>2015-03-08T11:39:13.000Z</time>
      </trkpt>
      <trkpt lat="47.47052" lon="6.75276">
        <ele>331</ele>
        <time>2015-03-08T11:39:14.000Z</time>
      </trkpt>
      <trkpt lat="47.47055" lon="6.75284">
        <ele>331</ele>
        <time>2015-03-08T11:39:15.000Z</time>
      </trkpt>
      <trkpt lat="47.47057" lon="6.75292">
        <ele>331</ele>
        <time>2015-03-08T11:39:16.000Z</time>
      </trkpt>
      <trkpt lat="47.47059" lon="6.75301">
        <ele>331</ele>
        <time>2015-03-08T11:39:17.000Z</time>
      </trkpt>
      <trkpt lat="47.47058" lon="6.7531">
        <ele>331</ele>
        <time>2015-03-08T11:39:18.000Z</time>
      </trkpt>
      <trkpt lat="47.47059" lon="6.75316">
        <ele>331</ele>
        <time>2015-03-08T11:39:19.000Z</time>
      </trkpt>
      <trkpt lat="47.47057" lon="6.75327">
        <ele>330</ele>
        <time>2015-03-08T11:39:20.000Z</time>
      </trkpt>
      <trkpt lat="47.47059" lon="6.75338">
        <ele>330</ele>
        <time>2015-03-08T11:39:21.000Z</time>
      </trkpt>
      <trkpt lat="47.47057" lon="6.75348">
        <ele>330</ele>
        <time>2015-03-08T11:39:22.000Z</time>
      </trkpt>
      <trkpt lat="47.47058" lon="6.75357">
        <ele>330</ele>
        <time>2015-03-08T11:39:23.000Z</time>
      </trkpt>
      <trkpt lat="47.47057" lon="6.75366">
        <ele>330</ele>
        <time>2015-03-08T11:39:24.000Z</time>
      </trkpt>
      <trkpt lat="47.47058" lon="6.75383">
        <ele>331</ele>
        <time>2015-03-08T11:39:25.000Z</time>
      </trkpt>
      <trkpt lat="47.4706" lon="6.75388">
        <ele>331</ele>
        <time>2015-03-08T11:39:27.000Z</time>
      </trkpt>
      <trkpt lat="47.47063" lon="6.75396">
        <ele>331</ele>
        <time>2015-03-08T11:39:28.000Z</time>
      </trkpt>
      <trkpt lat="47.47066" lon="6.75404">
        <ele>331</ele>
        <time>2015-03-08T11:39:29.000Z</time>
      </trkpt>
      <trkpt lat="47.4707" lon="6.75409">
        <ele>331</ele>
        <time>2015-03-08T11:39:30.000Z</time>
      </trkpt>
      <trkpt lat="47.47073" lon="6.75414">
        <ele>331</ele>
        <time>2015-03-08T11:39:31.001Z</time>
      </trkpt>
      <trkpt lat="47.47071" lon="6.75422">
        <ele>331</ele>
        <time>2015-03-08T11:39:32.000Z</time>
      </trkpt>
      <trkpt lat="47.47069" lon="6.75432">
        <ele>331</ele>
        <time>2015-03-08T11:39:33.000Z</time>
      </trkpt>
      <trkpt lat="47.47069" lon="6.75439">
        <ele>331</ele>
        <time>2015-03-08T11:39:34.000Z</time>
      </trkpt>
      <trkpt lat="47.4707" lon="6.75445">
        <ele>331</ele>
        <time>2015-03-08T11:39:35.000Z</time>
      </trkpt>
      <trkpt lat="47.4707" lon="6.75452">
        <ele>331</ele>
        <time>2015-03-08T11:39:36.000Z</time>
      </trkpt>
      <trkpt lat="47.4707" lon="6.75459">
        <ele>332</ele>
        <time>2015-03-08T11:39:37.000Z</time>
      </trkpt>
      <trkpt lat="47.47069" lon="6.75466">
        <ele>332</ele>
        <time>2015-03-08T11:39:38.000Z</time>
      </trkpt>
      <trkpt lat="47.47068" lon="6.75472">
        <ele>332</ele>
        <time>2015-03-08T11:39:39.000Z</time>
      </trkpt>
      <trkpt lat="47.47067" lon="6.7548">
        <ele>332</ele>
        <time>2015-03-08T11:39:40.000Z</time>
      </trkpt>
      <trkpt lat="47.47068" lon="6.75487">
        <ele>332</ele>
        <time>2015-03-08T11:39:41.000Z</time>
      </trkpt>
      <trkpt lat="47.47068" lon="6.75492">
        <ele>332</ele>
        <time>2015-03-08T11:39:42.000Z</time>
      </trkpt>
      <trkpt lat="47.47068" lon="6.75499">
        <ele>332</ele>
        <time>2015-03-08T11:39:43.000Z</time>
      </trkpt>
      <trkpt lat="47.47068" lon="6.75505">
        <ele>333</ele>
        <time>2015-03-08T11:39:44.000Z</time>
      </trkpt>
      <trkpt lat="47.47069" lon="6.7551">
        <ele>333</ele>
        <time>2015-03-08T11:39:45.000Z</time>
      </trkpt>
      <trkpt lat="47.47069" lon="6.75516">
        <ele>333</ele>
        <time>2015-03-08T11:39:46.000Z</time>
      </trkpt>
      <trkpt lat="47.47069" lon="6.75522">
        <ele>333</ele>
        <time>2015-03-08T11:39:47.000Z</time>
      </trkpt>
      <trkpt lat="47.47069" lon="6.75527">
        <ele>333</ele>
        <time>2015-03-08T11:39:48.000Z</time>
      </trkpt>
      <trkpt lat="47.47069" lon="6.75533">
        <ele>334</ele>
        <time>2015-03-08T11:39:49.000Z</time>
      </trkpt>
      <trkpt lat="47.4707" lon="6.75539">
        <ele>334</ele>
        <time>2015-03-08T11:39:50.000Z</time>
      </trkpt>
      <trkpt lat="47.4707" lon="6.75545">
        <ele>334</ele>
        <time>2015-03-08T11:39:51.000Z</time>
      </trkpt>
      <trkpt lat="47.4707" lon="6.75551">
        <ele>334</ele>
        <time>2015-03-08T11:39:52.000Z</time>
      </trkpt>
      <trkpt lat="47.4707" lon="6.75557">
        <ele>334</ele>
        <time>2015-03-08T11:39:53.000Z</time>
      </trkpt>
      <trkpt lat="47.4707" lon="6.75563">
        <ele>334</ele>
        <time>2015-03-08T11:39:54.000Z</time>
      </trkpt>
      <trkpt lat="47.4707" lon="6.75568">
        <ele>334</ele>
        <time>2015-03-08T11:39:55.000Z</time>
      </trkpt>
      <trkpt lat="47.4707" lon="6.75574">
        <ele>335</ele>
        <time>2015-03-08T11:39:56.000Z</time>
      </trkpt>
      <trkpt lat="47.4707" lon="6.75579">
        <ele>335</ele>
        <time>2015-03-08T11:39:57.000Z</time>
      </trkpt>
      <trkpt lat="47.4707" lon="6.75584">
        <ele>336</ele>
        <time>2015-03-08T11:39:58.000Z</time>
      </trkpt>
      <trkpt lat="47.4707" lon="6.75589">
        <ele>336</ele>
        <time>2015-03-08T11:39:59.000Z</time>
      </trkpt>
      <trkpt lat="47.4707" lon="6.75595">
        <ele>336</ele>
        <time>2015-03-08T11:40:00.000Z</time>
      </trkpt>
      <trkpt lat="47.47071" lon="6.75599">
        <ele>336</ele>
        <time>2015-03-08T11:40:01.000Z</time>
      </trkpt>
      <trkpt lat="47.47071" lon="6.75604">
        <ele>336</ele>
        <time>2015-03-08T11:40:02.000Z</time>
      </trkpt>
      <trkpt lat="47.47072" lon="6.75609">
        <ele>336</ele>
        <time>2015-03-08T11:40:03.000Z</time>
      </trkpt>
      <trkpt lat="47.47072" lon="6.75613">
        <ele>336</ele>
        <time>2015-03-08T11:40:04.000Z</time>
      </trkpt>
      <trkpt lat="47.47072" lon="6.75619">
        <ele>337</ele>
        <time>2015-03-08T11:40:05.000Z</time>
      </trkpt>
      <trkpt lat="47.47073" lon="6.75624">
        <ele>337</ele>
        <time>2015-03-08T11:40:06.000Z</time>
      </trkpt>
      <trkpt lat="47.47073" lon="6.75628">
        <ele>337</ele>
        <time>2015-03-08T11:40:07.000Z</time>
      </trkpt>
      <trkpt lat="47.47074" lon="6.75633">
        <ele>337</ele>
        <time>2015-03-08T11:40:08.000Z</time>
      </trkpt>
      <trkpt lat="47.47074" lon="6.75638">
        <ele>337</ele>
        <time>2015-03-08T11:40:09.000Z</time>
      </trkpt>
      <trkpt lat="47.47074" lon="6.75642">
        <ele>337</ele>
        <time>2015-03-08T11:40:10.000Z</time>
      </trkpt>
      <trkpt lat="47.47075" lon="6.75647">
        <ele>337</ele>
        <time>2015-03-08T11:40:11.000Z</time>
      </trkpt>
      <trkpt lat="47.47075" lon="6.75652">
        <ele>337</ele>
        <time>2015-03-08T11:40:12.000Z</time>
      </trkpt>
      <trkpt lat="47.47075" lon="6.75657">
        <ele>337</ele>
        <time>2015-03-08T11:40:13.000Z</time>
      </trkpt>
      <trkpt lat="47.47075" lon="6.75662">
        <ele>337</ele>
        <time>2015-03-08T11:40:14.000Z</time>
      </trkpt>
      <trkpt lat="47.47076" lon="6.75667">
        <ele>337</ele>
        <time>2015-03-08T11:40:15.000Z</time>
      </trkpt>
      <trkpt lat="47.47076" lon="6.75672">
        <ele>338</ele>
        <time>2015-03-08T11:40:16.000Z</time>
      </trkpt>
      <trkpt lat="47.47076" lon="6.75677">
        <ele>338</ele>
        <time>2015-03-08T11:40:17.000Z</time>
      </trkpt>
      <trkpt lat="47.47077" lon="6.75682">
        <ele>338</ele>
        <time>2015-03-08T11:40:18.000Z</time>
      </trkpt>
      <trkpt lat="47.47077" lon="6.75688">
        <ele>338</ele>
        <time>2015-03-08T11:40:19.000Z</time>
      </trkpt>
      <trkpt lat="47.47078" lon="6.75693">
        <ele>338</ele>
        <time>2015-03-08T11:40:20.000Z</time>
      </trkpt>
      <trkpt lat="47.47078" lon="6.75698">
        <ele>339</ele>
        <time>2015-03-08T11:40:21.000Z</time>
      </trkpt>
      <trkpt lat="47.47079" lon="6.75703">
        <ele>339</ele>
        <time>2015-03-08T11:40:22.000Z</time>
      </trkpt>
      <trkpt lat="47.47079" lon="6.75708">
        <ele>339</ele>
        <time>2015-03-08T11:40:23.000Z</time>
      </trkpt>
      <trkpt lat="47.47079" lon="6.75713">
        <ele>339</ele>
        <time>2015-03-08T11:40:24.000Z</time>
      </trkpt>
      <trkpt lat="47.4708" lon="6.75718">
        <ele>339</ele>
        <time>2015-03-08T11:40:25.000Z</time>
      </trkpt>
      <trkpt lat="47.4708" lon="6.75723">
        <ele>339</ele>
        <time>2015-03-08T11:40:26.000Z</time>
      </trkpt>
      <trkpt lat="47.4708" lon="6.75727">
        <ele>339</ele>
        <time>2015-03-08T11:40:27.000Z</time>
      </trkpt>
      <trkpt lat="47.47081" lon="6.75732">
        <ele>339</ele>
        <time>2015-03-08T11:40:28.000Z</time>
      </trkpt>
      <trkpt lat="47.47081" lon="6.75736">
        <ele>339</ele>
        <time>2015-03-08T11:40:29.000Z</time>
      </trkpt>
      <trkpt lat="47.47082" lon="6.7574">
        <ele>339</ele>
        <time>2015-03-08T11:40:30.000Z</time>
      </trkpt>
      <trkpt lat="47.47082" lon="6.75745">
        <ele>339</ele>
        <time>2015-03-08T11:40:31.000Z</time>
      </trkpt>
      <trkpt lat="47.47083" lon="6.75749">
        <ele>339</ele>
        <time>2015-03-08T11:40:32.000Z</time>
      </trkpt>
      <trkpt lat="47.47084" lon="6.75754">
        <ele>339</ele>
        <time>2015-03-08T11:40:33.000Z</time>
      </trkpt>
      <trkpt lat="47.47084" lon="6.75759">
        <ele>339</ele>
        <time>2015-03-08T11:40:34.000Z</time>
      </trkpt>
      <trkpt lat="47.47085" lon="6.75764">
        <ele>339</ele>
        <time>2015-03-08T11:40:35.000Z</time>
      </trkpt>
      <trkpt lat="47.47086" lon="6.75768">
        <ele>339</ele>
        <time>2015-03-08T11:40:36.000Z</time>
      </trkpt>
      <trkpt lat="47.47087" lon="6.75773">
        <ele>339</ele>
        <time>2015-03-08T11:40:37.000Z</time>
      </trkpt>
      <trkpt lat="47.47088" lon="6.75777">
        <ele>339</ele>
        <time>2015-03-08T11:40:38.000Z</time>
      </trkpt>
      <trkpt lat="47.4709" lon="6.75782">
        <ele>339</ele>
        <time>2015-03-08T11:40:39.000Z</time>
      </trkpt>
      <trkpt lat="47.47091" lon="6.75787">
        <ele>339</ele>
        <time>2015-03-08T11:40:40.000Z</time>
      </trkpt>
      <trkpt lat="47.47091" lon="6.75792">
        <ele>339</ele>
        <time>2015-03-08T11:40:41.000Z</time>
      </trkpt>
      <trkpt lat="47.47092" lon="6.75797">
        <ele>339</ele>
        <time>2015-03-08T11:40:42.000Z</time>
      </trkpt>
      <trkpt lat="47.47093" lon="6.75803">
        <ele>339</ele>
        <time>2015-03-08T11:40:43.000Z</time>
      </trkpt>
      <trkpt lat="47.47094" lon="6.75808">
        <ele>340</ele>
        <time>2015-03-08T11:40:44.000Z</time>
      </trkpt>
      <trkpt lat="47.47095" lon="6.75813">
        <ele>340</ele>
        <time>2015-03-08T11:40:45.000Z</time>
      </trkpt>
      <trkpt lat="47.47096" lon="6.75818">
        <ele>340</ele>
        <time>2015-03-08T11:40:46.000Z</time>
      </trkpt>
      <trkpt lat="47.47097" lon="6.75823">
        <ele>340</ele>
        <time>2015-03-08T11:40:47.000Z</time>
      </trkpt>
      <trkpt lat="47.47098" lon="6.75828">
        <ele>340</ele>
        <time>2015-03-08T11:40:48.000Z</time>
      </trkpt>
      <trkpt lat="47.47097" lon="6.75833">
        <ele>340</ele>
        <time>2015-03-08T11:40:49.000Z</time>
      </trkpt>
      <trkpt lat="47.47097" lon="6.75838">
        <ele>340</ele>
        <time>2015-03-08T11:40:50.000Z</time>
      </trkpt>
      <trkpt lat="47.47096" lon="6.75843">
        <ele>340</ele>
        <time>2015-03-08T11:40:51.000Z</time>
      </trkpt>
      <trkpt lat="47.47096" lon="6.75848">
        <ele>340</ele>
        <time>2015-03-08T11:40:52.000Z</time>
      </trkpt>
      <trkpt lat="47.47096" lon="6.75854">
        <ele>340</ele>
        <time>2015-03-08T11:40:53.000Z</time>
      </trkpt>
      <trkpt lat="47.47096" lon="6.7586">
        <ele>340</ele>
        <time>2015-03-08T11:40:54.000Z</time>
      </trkpt>
      <trkpt lat="47.47096" lon="6.75866">
        <ele>340</ele>
        <time>2015-03-08T11:40:55.000Z</time>
      </trkpt>
      <trkpt lat="47.47097" lon="6.75872">
        <ele>340</ele>
        <time>2015-03-08T11:40:56.000Z</time>
      </trkpt>
      <trkpt lat="47.47097" lon="6.75878">
        <ele>340</ele>
        <time>2015-03-08T11:40:57.000Z</time>
      </trkpt>
      <trkpt lat="47.47096" lon="6.75883">
        <ele>340</ele>
        <time>2015-03-08T11:40:58.000Z</time>
      </trkpt>
      <trkpt lat="47.47096" lon="6.75889">
        <ele>340</ele>
        <time>2015-03-08T11:40:59.000Z</time>
      </trkpt>
      <trkpt lat="47.47096" lon="6.75895">
        <ele>340</ele>
        <time>2015-03-08T11:41:00.000Z</time>
      </trkpt>
      <trkpt lat="47.47095" lon="6.75906">
        <ele>340</ele>
        <time>2015-03-08T11:41:02.000Z</time>
      </trkpt>
      <trkpt lat="47.47095" lon="6.75911">
        <ele>340</ele>
        <time>2015-03-08T11:41:03.000Z</time>
      </trkpt>
      <trkpt lat="47.47094" lon="6.75917">
        <ele>339</ele>
        <time>2015-03-08T11:41:04.000Z</time>
      </trkpt>
      <trkpt lat="47.47094" lon="6.75923">
        <ele>339</ele>
        <time>2015-03-08T11:41:05.000Z</time>
      </trkpt>
      <trkpt lat="47.47094" lon="6.7593">
        <ele>339</ele>
        <time>2015-03-08T11:41:06.000Z</time>
      </trkpt>
      <trkpt lat="47.47095" lon="6.75937">
        <ele>339</ele>
        <time>2015-03-08T11:41:07.000Z</time>
      </trkpt>
      <trkpt lat="47.47095" lon="6.75944">
        <ele>339</ele>
        <time>2015-03-08T11:41:08.000Z</time>
      </trkpt>
      <trkpt lat="47.47095" lon="6.7595">
        <ele>338</ele>
        <time>2015-03-08T11:41:09.000Z</time>
      </trkpt>
      <trkpt lat="47.47094" lon="6.75956">
        <ele>338</ele>
        <time>2015-03-08T11:41:10.000Z</time>
      </trkpt>
      <trkpt lat="47.47093" lon="6.75964">
        <ele>338</ele>
        <time>2015-03-08T11:41:11.000Z</time>
      </trkpt>
      <trkpt lat="47.47092" lon="6.75971">
        <ele>338</ele>
        <time>2015-03-08T11:41:12.000Z</time>
      </trkpt>
      <trkpt lat="47.47093" lon="6.75978">
        <ele>338</ele>
        <time>2015-03-08T11:41:13.000Z</time>
      </trkpt>
      <trkpt lat="47.47094" lon="6.75984">
        <ele>338</ele>
        <time>2015-03-08T11:41:14.000Z</time>
      </trkpt>
      <trkpt lat="47.47094" lon="6.75991">
        <ele>337</ele>
        <time>2015-03-08T11:41:15.000Z</time>
      </trkpt>
      <trkpt lat="47.47098" lon="6.75994">
        <ele>337</ele>
        <time>2015-03-08T11:41:16.000Z</time>
      </trkpt>
      <trkpt lat="47.47103" lon="6.75998">
        <ele>338</ele>
        <time>2015-03-08T11:41:17.000Z</time>
      </trkpt>
      <trkpt lat="47.47109" lon="6.75995">
        <ele>338</ele>
        <time>2015-03-08T11:41:18.000Z</time>
      </trkpt>
      <trkpt lat="47.47114" lon="6.75995">
        <ele>338</ele>
        <time>2015-03-08T11:41:19.000Z</time>
      </trkpt>
      <trkpt lat="47.47118" lon="6.75998">
        <ele>338</ele>
        <time>2015-03-08T11:41:20.000Z</time>
      </trkpt>
      <trkpt lat="47.47121" lon="6.75999">
        <ele>338</ele>
        <time>2015-03-08T11:41:21.000Z</time>
      </trkpt>
      <trkpt lat="47.47126" lon="6.76001">
        <ele>336</ele>
        <time>2015-03-08T11:41:22.000Z</time>
      </trkpt>
      <trkpt lat="47.47131" lon="6.76003">
        <ele>336</ele>
        <time>2015-03-08T11:41:23.000Z</time>
      </trkpt>
      <trkpt lat="47.47137" lon="6.76007">
        <ele>336</ele>
        <time>2015-03-08T11:41:24.000Z</time>
      </trkpt>
      <trkpt lat="47.47142" lon="6.7601">
        <ele>336</ele>
        <time>2015-03-08T11:41:25.000Z</time>
      </trkpt>
      <trkpt lat="47.47148" lon="6.76012">
        <ele>336</ele>
        <time>2015-03-08T11:41:26.000Z</time>
      </trkpt>
      <trkpt lat="47.47152" lon="6.76014">
        <ele>336</ele>
        <time>2015-03-08T11:41:27.000Z</time>
      </trkpt>
      <trkpt lat="47.47157" lon="6.76017">
        <ele>336</ele>
        <time>2015-03-08T11:41:28.000Z</time>
      </trkpt>
      <trkpt lat="47.47162" lon="6.76019">
        <ele>336</ele>
        <time>2015-03-08T11:41:29.000Z</time>
      </trkpt>
      <trkpt lat="47.47167" lon="6.76022">
        <ele>337</ele>
        <time>2015-03-08T11:41:30.000Z</time>
      </trkpt>
      <trkpt lat="47.47171" lon="6.76023">
        <ele>337</ele>
        <time>2015-03-08T11:41:31.000Z</time>
      </trkpt>
      <trkpt lat="47.47175" lon="6.76024">
        <ele>336</ele>
        <time>2015-03-08T11:41:32.000Z</time>
      </trkpt>
      <trkpt lat="47.47181" lon="6.76025">
        <ele>336</ele>
        <time>2015-03-08T11:41:33.000Z</time>
      </trkpt>
      <trkpt lat="47.47185" lon="6.76025">
        <ele>336</ele>
        <time>2015-03-08T11:41:34.000Z</time>
      </trkpt>
      <trkpt lat="47.47189" lon="6.76024">
        <ele>336</ele>
        <time>2015-03-08T11:41:35.000Z</time>
      </trkpt>
      <trkpt lat="47.47193" lon="6.76026">
        <ele>336</ele>
        <time>2015-03-08T11:41:36.000Z</time>
      </trkpt>
      <trkpt lat="47.47197" lon="6.76028">
        <ele>336</ele>
        <time>2015-03-08T11:41:37.000Z</time>
      </trkpt>
      <trkpt lat="47.472" lon="6.76031">
        <ele>336</ele>
        <time>2015-03-08T11:41:38.000Z</time>
      </trkpt>
      <trkpt lat="47.47205" lon="6.76032">
        <ele>336</ele>
        <time>2015-03-08T11:41:39.000Z</time>
      </trkpt>
      <trkpt lat="47.4721" lon="6.76034">
        <ele>336</ele>
        <time>2015-03-08T11:41:40.000Z</time>
      </trkpt>
      <trkpt lat="47.47215" lon="6.76037">
        <ele>336</ele>
        <time>2015-03-08T11:41:41.000Z</time>
      </trkpt>
      <trkpt lat="47.47218" lon="6.76039">
        <ele>336</ele>
        <time>2015-03-08T11:41:42.000Z</time>
      </trkpt>
      <trkpt lat="47.47222" lon="6.76042">
        <ele>336</ele>
        <time>2015-03-08T11:41:43.000Z</time>
      </trkpt>
      <trkpt lat="47.47227" lon="6.76044">
        <ele>336</ele>
        <time>2015-03-08T11:41:44.000Z</time>
      </trkpt>
      <trkpt lat="47.47233" lon="6.76046">
        <ele>336</ele>
        <time>2015-03-08T11:41:45.000Z</time>
      </trkpt>
      <trkpt lat="47.47238" lon="6.76048">
        <ele>336</ele>
        <time>2015-03-08T11:41:46.000Z</time>
      </trkpt>
      <trkpt lat="47.47243" lon="6.76051">
        <ele>336</ele>
        <time>2015-03-08T11:41:47.000Z</time>
      </trkpt>
      <trkpt lat="47.47247" lon="6.76052">
        <ele>336</ele>
        <time>2015-03-08T11:41:48.000Z</time>
      </trkpt>
      <trkpt lat="47.47252" lon="6.76055">
        <ele>336</ele>
        <time>2015-03-08T11:41:49.000Z</time>
      </trkpt>
      <trkpt lat="47.47256" lon="6.76057">
        <ele>336</ele>
        <time>2015-03-08T11:41:50.000Z</time>
      </trkpt>
      <trkpt lat="47.4726" lon="6.76059">
        <ele>336</ele>
        <time>2015-03-08T11:41:51.000Z</time>
      </trkpt>
      <trkpt lat="47.47263" lon="6.7606">
        <ele>336</ele>
        <time>2015-03-08T11:41:52.000Z</time>
      </trkpt>
      <trkpt lat="47.47267" lon="6.76063">
        <ele>336</ele>
        <time>2015-03-08T11:41:53.000Z</time>
      </trkpt>
      <trkpt lat="47.47269" lon="6.76062">
        <ele>336</ele>
        <time>2015-03-08T11:41:54.000Z</time>
      </trkpt>
      <trkpt lat="47.47274" lon="6.76064">
        <ele>336</ele>
        <time>2015-03-08T11:41:55.000Z</time>
      </trkpt>
      <trkpt lat="47.4728" lon="6.76065">
        <ele>336</ele>
        <time>2015-03-08T11:41:56.000Z</time>
      </trkpt>
      <trkpt lat="47.47284" lon="6.76068">
        <ele>336</ele>
        <time>2015-03-08T11:41:57.000Z</time>
      </trkpt>
      <trkpt lat="47.47289" lon="6.76071">
        <ele>336</ele>
        <time>2015-03-08T11:41:58.000Z</time>
      </trkpt>
      <trkpt lat="47.47294" lon="6.76074">
        <ele>337</ele>
        <time>2015-03-08T11:41:59.000Z</time>
      </trkpt>
      <trkpt lat="47.47299" lon="6.76078">
        <ele>337</ele>
        <time>2015-03-08T11:42:00.000Z</time>
      </trkpt>
      <trkpt lat="47.47304" lon="6.76083">
        <ele>337</ele>
        <time>2015-03-08T11:42:01.000Z</time>
      </trkpt>
      <trkpt lat="47.47308" lon="6.76086">
        <ele>336</ele>
        <time>2015-03-08T11:42:02.000Z</time>
      </trkpt>
      <trkpt lat="47.47313" lon="6.76092">
        <ele>336</ele>
        <time>2015-03-08T11:42:03.000Z</time>
      </trkpt>
      <trkpt lat="47.47319" lon="6.76097">
        <ele>336</ele>
        <time>2015-03-08T11:42:04.000Z</time>
      </trkpt>
      <trkpt lat="47.47323" lon="6.76101">
        <ele>336</ele>
        <time>2015-03-08T11:42:05.000Z</time>
      </trkpt>
      <trkpt lat="47.47326" lon="6.76109">
        <ele>336</ele>
        <time>2015-03-08T11:42:06.000Z</time>
      </trkpt>
      <trkpt lat="47.4733" lon="6.76116">
        <ele>336</ele>
        <time>2015-03-08T11:42:07.000Z</time>
      </trkpt>
      <trkpt lat="47.47334" lon="6.76121">
        <ele>333</ele>
        <time>2015-03-08T11:42:08.000Z</time>
      </trkpt>
      <trkpt lat="47.47337" lon="6.76126">
        <ele>332</ele>
        <time>2015-03-08T11:42:09.000Z</time>
      </trkpt>
      <trkpt lat="47.4734" lon="6.76129">
        <ele>332</ele>
        <time>2015-03-08T11:42:10.000Z</time>
      </trkpt>
      <trkpt lat="47.47343" lon="6.76135">
        <ele>332</ele>
        <time>2015-03-08T11:42:11.000Z</time>
      </trkpt>
      <trkpt lat="47.47347" lon="6.7614">
        <ele>332</ele>
        <time>2015-03-08T11:42:12.000Z</time>
      </trkpt>
      <trkpt lat="47.47349" lon="6.76144">
        <ele>332</ele>
        <time>2015-03-08T11:42:13.000Z</time>
      </trkpt>
      <trkpt lat="47.47353" lon="6.7615">
        <ele>332</ele>
        <time>2015-03-08T11:42:14.000Z</time>
      </trkpt>
      <trkpt lat="47.47356" lon="6.76154">
        <ele>332</ele>
        <time>2015-03-08T11:42:15.000Z</time>
      </trkpt>
      <trkpt lat="47.4736" lon="6.7616">
        <ele>332</ele>
        <time>2015-03-08T11:42:16.000Z</time>
      </trkpt>
      <trkpt lat="47.47363" lon="6.76167">
        <ele>331</ele>
        <time>2015-03-08T11:42:17.000Z</time>
      </trkpt>
      <trkpt lat="47.47367" lon="6.76171">
        <ele>331</ele>
        <time>2015-03-08T11:42:18.000Z</time>
      </trkpt>
      <trkpt lat="47.47371" lon="6.76175">
        <ele>330</ele>
        <time>2015-03-08T11:42:19.000Z</time>
      </trkpt>
      <trkpt lat="47.47375" lon="6.76181">
        <ele>330</ele>
        <time>2015-03-08T11:42:20.000Z</time>
      </trkpt>
      <trkpt lat="47.47379" lon="6.76186">
        <ele>330</ele>
        <time>2015-03-08T11:42:21.000Z</time>
      </trkpt>
      <trkpt lat="47.47383" lon="6.7619">
        <ele>330</ele>
        <time>2015-03-08T11:42:22.000Z</time>
      </trkpt>
      <trkpt lat="47.47382" lon="6.76198">
        <ele>330</ele>
        <time>2015-03-08T11:42:23.000Z</time>
      </trkpt>
      <trkpt lat="47.47382" lon="6.76204">
        <ele>330</ele>
        <time>2015-03-08T11:42:24.000Z</time>
      </trkpt>
      <trkpt lat="47.47383" lon="6.76208">
        <ele>329</ele>
        <time>2015-03-08T11:42:25.000Z</time>
      </trkpt>
      <trkpt lat="47.47387" lon="6.76211">
        <ele>329</ele>
        <time>2015-03-08T11:42:26.000Z</time>
      </trkpt>
      <trkpt lat="47.4739" lon="6.76214">
        <ele>329</ele>
        <time>2015-03-08T11:42:27.000Z</time>
      </trkpt>
      <trkpt lat="47.47394" lon="6.76216">
        <ele>329</ele>
        <time>2015-03-08T11:42:28.000Z</time>
      </trkpt>
      <trkpt lat="47.474" lon="6.76222">
        <ele>329</ele>
        <time>2015-03-08T11:42:29.000Z</time>
      </trkpt>
      <trkpt lat="47.47405" lon="6.76227">
        <ele>329</ele>
        <time>2015-03-08T11:42:30.000Z</time>
      </trkpt>
      <trkpt lat="47.47409" lon="6.76232">
        <ele>328</ele>
        <time>2015-03-08T11:42:31.000Z</time>
      </trkpt>
      <trkpt lat="47.47412" lon="6.76237">
        <ele>328</ele>
        <time>2015-03-08T11:42:32.000Z</time>
      </trkpt>
      <trkpt lat="47.47413" lon="6.76245">
        <ele>328</ele>
        <time>2015-03-08T11:42:33.000Z</time>
      </trkpt>
      <trkpt lat="47.47414" lon="6.76253">
        <ele>327</ele>
        <time>2015-03-08T11:42:34.000Z</time>
      </trkpt>
      <trkpt lat="47.47415" lon="6.76262">
        <ele>326</ele>
        <time>2015-03-08T11:42:35.000Z</time>
      </trkpt>
      <trkpt lat="47.47417" lon="6.76269">
        <ele>322</ele>
        <time>2015-03-08T11:42:36.000Z</time>
      </trkpt>
      <trkpt lat="47.47417" lon="6.76278">
        <ele>321</ele>
        <time>2015-03-08T11:42:37.000Z</time>
      </trkpt>
      <trkpt lat="47.47421" lon="6.76288">
        <ele>320</ele>
        <time>2015-03-08T11:42:38.000Z</time>
      </trkpt>
      <trkpt lat="47.47422" lon="6.76298">
        <ele>320</ele>
        <time>2015-03-08T11:42:39.000Z</time>
      </trkpt>
      <trkpt lat="47.47424" lon="6.76309">
        <ele>319</ele>
        <time>2015-03-08T11:42:40.000Z</time>
      </trkpt>
      <trkpt lat="47.47421" lon="6.7632">
        <ele>320</ele>
        <time>2015-03-08T11:42:41.000Z</time>
      </trkpt>
      <trkpt lat="47.47419" lon="6.76329">
        <ele>320</ele>
        <time>2015-03-08T11:42:42.000Z</time>
      </trkpt>
      <trkpt lat="47.47414" lon="6.76337">
        <ele>321</ele>
        <time>2015-03-08T11:42:43.000Z</time>
      </trkpt>
      <trkpt lat="47.4741" lon="6.76341">
        <ele>320</ele>
        <time>2015-03-08T11:42:44.000Z</time>
      </trkpt>
      <trkpt lat="47.47408" lon="6.76346">
        <ele>320</ele>
        <time>2015-03-08T11:42:45.000Z</time>
      </trkpt>
      <trkpt lat="47.47402" lon="6.76356">
        <ele>319</ele>
        <time>2015-03-08T11:42:46.000Z</time>
      </trkpt>
      <trkpt lat="47.47398" lon="6.76362">
        <ele>318</ele>
        <time>2015-03-08T11:42:47.000Z</time>
      </trkpt>
      <trkpt lat="47.47395" lon="6.7637">
        <ele>318</ele>
        <time>2015-03-08T11:42:48.000Z</time>
      </trkpt>
      <trkpt lat="47.47391" lon="6.76379">
        <ele>318</ele>
        <time>2015-03-08T11:42:49.000Z</time>
      </trkpt>
      <trkpt lat="47.47392" lon="6.76384">
        <ele>317</ele>
        <time>2015-03-08T11:42:50.000Z</time>
      </trkpt>
      <trkpt lat="47.47391" lon="6.76387">
        <ele>317</ele>
        <time>2015-03-08T11:42:51.000Z</time>
      </trkpt>
      <trkpt lat="47.47385" lon="6.76393">
        <ele>317</ele>
        <time>2015-03-08T11:42:52.000Z</time>
      </trkpt>
      <trkpt lat="47.4738" lon="6.76396">
        <ele>317</ele>
        <time>2015-03-08T11:42:53.000Z</time>
      </trkpt>
      <trkpt lat="47.47383" lon="6.76399">
        <ele>317</ele>
        <time>2015-03-08T11:42:54.000Z</time>
      </trkpt>
      <trkpt lat="47.47386" lon="6.76399">
        <ele>317</ele>
        <time>2015-03-08T11:42:55.000Z</time>
      </trkpt>
      <trkpt lat="47.4739" lon="6.76402">
        <ele>317</ele>
        <time>2015-03-08T11:42:56.000Z</time>
      </trkpt>
      <trkpt lat="47.47393" lon="6.76404">
        <ele>316</ele>
        <time>2015-03-08T11:42:57.000Z</time>
      </trkpt>
      <trkpt lat="47.47399" lon="6.76409">
        <ele>316</ele>
        <time>2015-03-08T11:42:58.000Z</time>
      </trkpt>
      <trkpt lat="47.47404" lon="6.76415">
        <ele>315</ele>
        <time>2015-03-08T11:42:59.000Z</time>
      </trkpt>
      <trkpt lat="47.47411" lon="6.76421">
        <ele>313</ele>
        <time>2015-03-08T11:43:00.000Z</time>
      </trkpt>
      <trkpt lat="47.47418" lon="6.76432">
        <ele>312</ele>
        <time>2015-03-08T11:43:02.000Z</time>
      </trkpt>
      <trkpt lat="47.47422" lon="6.76437">
        <ele>312</ele>
        <time>2015-03-08T11:43:03.000Z</time>
      </trkpt>
      <trkpt lat="47.47426" lon="6.76443">
        <ele>311</ele>
        <time>2015-03-08T11:43:04.000Z</time>
      </trkpt>
      <trkpt lat="47.4743" lon="6.76447">
        <ele>311</ele>
        <time>2015-03-08T11:43:05.000Z</time>
      </trkpt>
      <trkpt lat="47.47434" lon="6.76449">
        <ele>311</ele>
        <time>2015-03-08T11:43:06.000Z</time>
      </trkpt>
      <trkpt lat="47.47436" lon="6.7645">
        <ele>311</ele>
        <time>2015-03-08T11:43:07.000Z</time>
      </trkpt>
      <trkpt lat="47.4744" lon="6.76452">
        <ele>311</ele>
        <time>2015-03-08T11:43:09.000Z</time>
      </trkpt>
      <trkpt lat="47.47442" lon="6.76449">
        <ele>311</ele>
        <time>2015-03-08T11:43:10.000Z</time>
      </trkpt>
      <trkpt lat="47.47444" lon="6.76445">
        <ele>311</ele>
        <time>2015-03-08T11:43:11.000Z</time>
      </trkpt>
      <trkpt lat="47.47447" lon="6.76443">
        <ele>311</ele>
        <time>2015-03-08T11:43:12.000Z</time>
      </trkpt>
      <trkpt lat="47.47451" lon="6.76445">
        <ele>311</ele>
        <time>2015-03-08T11:43:13.000Z</time>
      </trkpt>
      <trkpt lat="47.47453" lon="6.76445">
        <ele>311</ele>
        <time>2015-03-08T11:43:14.000Z</time>
      </trkpt>
      <trkpt lat="47.47455" lon="6.76444">
        <ele>311</ele>
        <time>2015-03-08T11:43:15.000Z</time>
      </trkpt>
      <trkpt lat="47.47458" lon="6.76444">
        <ele>311</ele>
        <time>2015-03-08T11:43:16.000Z</time>
      </trkpt>
      <trkpt lat="47.47461" lon="6.76444">
        <ele>311</ele>
        <time>2015-03-08T11:43:17.000Z</time>
      </trkpt>
      <trkpt lat="47.47465" lon="6.76445">
        <ele>310</ele>
        <time>2015-03-08T11:43:18.000Z</time>
      </trkpt>
      <trkpt lat="47.47469" lon="6.76446">
        <ele>310</ele>
        <time>2015-03-08T11:43:19.000Z</time>
      </trkpt>
      <trkpt lat="47.4748" lon="6.76444">
        <ele>310</ele>
        <time>2015-03-08T11:43:20.000Z</time>
      </trkpt>
      <trkpt lat="47.47485" lon="6.76441">
        <ele>310</ele>
        <time>2015-03-08T11:43:21.000Z</time>
      </trkpt>
      <trkpt lat="47.47489" lon="6.76439">
        <ele>310</ele>
        <time>2015-03-08T11:43:22.001Z</time>
      </trkpt>
      <trkpt lat="47.47496" lon="6.76445">
        <ele>310</ele>
        <time>2015-03-08T11:43:23.000Z</time>
      </trkpt>
      <trkpt lat="47.47499" lon="6.76445">
        <ele>310</ele>
        <time>2015-03-08T11:43:24.000Z</time>
      </trkpt>
      <trkpt lat="47.47502" lon="6.76447">
        <ele>309</ele>
        <time>2015-03-08T11:43:25.000Z</time>
      </trkpt>
      <trkpt lat="47.47505" lon="6.76444">
        <ele>309</ele>
        <time>2015-03-08T11:43:26.000Z</time>
      </trkpt>
      <trkpt lat="47.47507" lon="6.76441">
        <ele>309</ele>
        <time>2015-03-08T11:43:27.000Z</time>
      </trkpt>
      <trkpt lat="47.47511" lon="6.76437">
        <ele>309</ele>
        <time>2015-03-08T11:43:28.000Z</time>
      </trkpt>
      <trkpt lat="47.47511" lon="6.76436">
        <ele>309</ele>
        <time>2015-03-08T11:43:29.000Z</time>
      </trkpt>
      <trkpt lat="47.47515" lon="6.76433">
        <ele>309</ele>
        <time>2015-03-08T11:43:30.000Z</time>
      </trkpt>
      <trkpt lat="47.47521" lon="6.76432">
        <ele>309</ele>
        <time>2015-03-08T11:43:31.000Z</time>
      </trkpt>
      <trkpt lat="47.47534" lon="6.76425">
        <ele>309</ele>
        <time>2015-03-08T11:43:32.000Z</time>
      </trkpt>
      <trkpt lat="47.47537" lon="6.7642">
        <ele>309</ele>
        <time>2015-03-08T11:43:33.000Z</time>
      </trkpt>
      <trkpt lat="47.47542" lon="6.76417">
        <ele>309</ele>
        <time>2015-03-08T11:43:34.000Z</time>
      </trkpt>
      <trkpt lat="47.47544" lon="6.76414">
        <ele>309</ele>
        <time>2015-03-08T11:43:35.000Z</time>
      </trkpt>
      <trkpt lat="47.47547" lon="6.76412">
        <ele>309</ele>
        <time>2015-03-08T11:43:36.000Z</time>
      </trkpt>
      <trkpt lat="47.4755" lon="6.76409">
        <ele>309</ele>
        <time>2015-03-08T11:43:37.000Z</time>
      </trkpt>
      <trkpt lat="47.47552" lon="6.76408">
        <ele>309</ele>
        <time>2015-03-08T11:43:38.002Z</time>
      </trkpt>
      <trkpt lat="47.47553" lon="6.76401">
        <ele>309</ele>
        <time>2015-03-08T11:43:39.000Z</time>
      </trkpt>
      <trkpt lat="47.47554" lon="6.76389">
        <ele>310</ele>
        <time>2015-03-08T11:43:40.000Z</time>
      </trkpt>
      <trkpt lat="47.47553" lon="6.76381">
        <ele>310</ele>
        <time>2015-03-08T11:43:41.000Z</time>
      </trkpt>
      <trkpt lat="47.47554" lon="6.76376">
        <ele>310</ele>
        <time>2015-03-08T11:43:42.000Z</time>
      </trkpt>
      <trkpt lat="47.47555" lon="6.7637">
        <ele>310</ele>
        <time>2015-03-08T11:43:43.000Z</time>
      </trkpt>
      <trkpt lat="47.47556" lon="6.76365">
        <ele>310</ele>
        <time>2015-03-08T11:43:44.000Z</time>
      </trkpt>
      <trkpt lat="47.47557" lon="6.7636">
        <ele>310</ele>
        <time>2015-03-08T11:43:45.000Z</time>
      </trkpt>
      <trkpt lat="47.47558" lon="6.76354">
        <ele>310</ele>
        <time>2015-03-08T11:43:46.001Z</time>
      </trkpt>
      <trkpt lat="47.4756" lon="6.76349">
        <ele>311</ele>
        <time>2015-03-08T11:43:47.000Z</time>
      </trkpt>
      <trkpt lat="47.47562" lon="6.76343">
        <ele>311</ele>
        <time>2015-03-08T11:43:48.000Z</time>
      </trkpt>
      <trkpt lat="47.47563" lon="6.76337">
        <ele>311</ele>
        <time>2015-03-08T11:43:49.000Z</time>
      </trkpt>
      <trkpt lat="47.47565" lon="6.76332">
        <ele>312</ele>
        <time>2015-03-08T11:43:50.000Z</time>
      </trkpt>
      <trkpt lat="47.47572" lon="6.76326">
        <ele>312</ele>
        <time>2015-03-08T11:43:51.000Z</time>
      </trkpt>
      <trkpt lat="47.47575" lon="6.7632">
        <ele>312</ele>
        <time>2015-03-08T11:43:52.000Z</time>
      </trkpt>
      <trkpt lat="47.47577" lon="6.76317">
        <ele>312</ele>
        <time>2015-03-08T11:43:53.000Z</time>
      </trkpt>
      <trkpt lat="47.4758" lon="6.76313">
        <ele>312</ele>
        <time>2015-03-08T11:43:54.000Z</time>
      </trkpt>
      <trkpt lat="47.47582" lon="6.76308">
        <ele>312</ele>
        <time>2015-03-08T11:43:55.000Z</time>
      </trkpt>
      <trkpt lat="47.47582" lon="6.76301">
        <ele>312</ele>
        <time>2015-03-08T11:43:56.000Z</time>
      </trkpt>
      <trkpt lat="47.47584" lon="6.76296">
        <ele>311</ele>
        <time>2015-03-08T11:43:57.000Z</time>
      </trkpt>
      <trkpt lat="47.47587" lon="6.76291">
        <ele>311</ele>
        <time>2015-03-08T11:43:58.000Z</time>
      </trkpt>
      <trkpt lat="47.4759" lon="6.76285">
        <ele>311</ele>
        <time>2015-03-08T11:43:59.000Z</time>
      </trkpt>
      <trkpt lat="47.47595" lon="6.76282">
        <ele>311</ele>
        <time>2015-03-08T11:44:00.000Z</time>
      </trkpt>
      <trkpt lat="47.47597" lon="6.76271">
        <ele>311</ele>
        <time>2015-03-08T11:44:02.000Z</time>
      </trkpt>
      <trkpt lat="47.47599" lon="6.76266">
        <ele>311</ele>
        <time>2015-03-08T11:44:03.000Z</time>
      </trkpt>
      <trkpt lat="47.47598" lon="6.76259">
        <ele>311</ele>
        <time>2015-03-08T11:44:04.000Z</time>
      </trkpt>
      <trkpt lat="47.47599" lon="6.76253">
        <ele>311</ele>
        <time>2015-03-08T11:44:05.000Z</time>
      </trkpt>
      <trkpt lat="47.476" lon="6.76246">
        <ele>311</ele>
        <time>2015-03-08T11:44:06.000Z</time>
      </trkpt>
      <trkpt lat="47.47606" lon="6.76237">
        <ele>311</ele>
        <time>2015-03-08T11:44:07.000Z</time>
      </trkpt>
      <trkpt lat="47.4761" lon="6.76232">
        <ele>311</ele>
        <time>2015-03-08T11:44:08.000Z</time>
      </trkpt>
      <trkpt lat="47.47615" lon="6.76224">
        <ele>311</ele>
        <time>2015-03-08T11:44:09.000Z</time>
      </trkpt>
      <trkpt lat="47.47618" lon="6.76217">
        <ele>311</ele>
        <time>2015-03-08T11:44:10.000Z</time>
      </trkpt>
      <trkpt lat="47.47622" lon="6.7621">
        <ele>310</ele>
        <time>2015-03-08T11:44:11.000Z</time>
      </trkpt>
      <trkpt lat="47.47626" lon="6.76204">
        <ele>310</ele>
        <time>2015-03-08T11:44:12.000Z</time>
      </trkpt>
      <trkpt lat="47.47631" lon="6.76196">
        <ele>310</ele>
        <time>2015-03-08T11:44:13.000Z</time>
      </trkpt>
      <trkpt lat="47.47635" lon="6.76189">
        <ele>310</ele>
        <time>2015-03-08T11:44:14.000Z</time>
      </trkpt>
      <trkpt lat="47.47637" lon="6.76186">
        <ele>311</ele>
        <time>2015-03-08T11:44:15.000Z</time>
      </trkpt>
      <trkpt lat="47.47641" lon="6.76179">
        <ele>311</ele>
        <time>2015-03-08T11:44:16.000Z</time>
      </trkpt>
      <trkpt lat="47.47644" lon="6.76174">
        <ele>311</ele>
        <time>2015-03-08T11:44:17.000Z</time>
      </trkpt>
      <trkpt lat="47.47647" lon="6.76168">
        <ele>311</ele>
        <time>2015-03-08T11:44:18.000Z</time>
      </trkpt>
      <trkpt lat="47.47649" lon="6.76162">
        <ele>311</ele>
        <time>2015-03-08T11:44:19.000Z</time>
      </trkpt>
      <trkpt lat="47.4765" lon="6.76156">
        <ele>311</ele>
        <time>2015-03-08T11:44:20.000Z</time>
      </trkpt>
      <trkpt lat="47.47652" lon="6.7615">
        <ele>311</ele>
        <time>2015-03-08T11:44:21.000Z</time>
      </trkpt>
      <trkpt lat="47.47655" lon="6.76146">
        <ele>311</ele>
        <time>2015-03-08T11:44:22.000Z</time>
      </trkpt>
      <trkpt lat="47.47657" lon="6.7614">
        <ele>311</ele>
        <time>2015-03-08T11:44:23.000Z</time>
      </trkpt>
      <trkpt lat="47.47659" lon="6.76135">
        <ele>311</ele>
        <time>2015-03-08T11:44:24.000Z</time>
      </trkpt>
      <trkpt lat="47.47663" lon="6.76127">
        <ele>311</ele>
        <time>2015-03-08T11:44:25.000Z</time>
      </trkpt>
      <trkpt lat="47.47667" lon="6.76122">
        <ele>310</ele>
        <time>2015-03-08T11:44:26.000Z</time>
      </trkpt>
      <trkpt lat="47.47669" lon="6.76115">
        <ele>310</ele>
        <time>2015-03-08T11:44:27.000Z</time>
      </trkpt>
      <trkpt lat="47.47672" lon="6.76108">
        <ele>310</ele>
        <time>2015-03-08T11:44:28.000Z</time>
      </trkpt>
      <trkpt lat="47.47674" lon="6.76101">
        <ele>310</ele>
        <time>2015-03-08T11:44:29.000Z</time>
      </trkpt>
      <trkpt lat="47.47676" lon="6.76095">
        <ele>310</ele>
        <time>2015-03-08T11:44:30.001Z</time>
      </trkpt>
      <trkpt lat="47.47677" lon="6.7609">
        <ele>310</ele>
        <time>2015-03-08T11:44:31.000Z</time>
      </trkpt>
      <trkpt lat="47.4768" lon="6.76087">
        <ele>310</ele>
        <time>2015-03-08T11:44:32.000Z</time>
      </trkpt>
      <trkpt lat="47.47682" lon="6.76088">
        <ele>310</ele>
        <time>2015-03-08T11:44:33.000Z</time>
      </trkpt>
      <trkpt lat="47.47684" lon="6.76091">
        <ele>310</ele>
        <time>2015-03-08T11:44:36.000Z</time>
      </trkpt>
      <trkpt lat="47.47688" lon="6.76093">
        <ele>310</ele>
        <time>2015-03-08T11:44:37.000Z</time>
      </trkpt>
      <trkpt lat="47.47688" lon="6.76096">
        <ele>310</ele>
        <time>2015-03-08T11:44:39.001Z</time>
      </trkpt>
      <trkpt lat="47.47688" lon="6.761">
        <ele>310</ele>
        <time>2015-03-08T11:44:40.000Z</time>
      </trkpt>
      <trkpt lat="47.47689" lon="6.76103">
        <ele>310</ele>
        <time>2015-03-08T11:44:41.000Z</time>
      </trkpt>
      <trkpt lat="47.47691" lon="6.76107">
        <ele>310</ele>
        <time>2015-03-08T11:44:42.000Z</time>
      </trkpt>
      <trkpt lat="47.47696" lon="6.76113">
        <ele>310</ele>
        <time>2015-03-08T11:44:43.000Z</time>
      </trkpt>
      <trkpt lat="47.47699" lon="6.76118">
        <ele>310</ele>
        <time>2015-03-08T11:44:44.000Z</time>
      </trkpt>
      <trkpt lat="47.47702" lon="6.76122">
        <ele>310</ele>
        <time>2015-03-08T11:44:45.000Z</time>
      </trkpt>
      <trkpt lat="47.47705" lon="6.76127">
        <ele>310</ele>
        <time>2015-03-08T11:44:46.000Z</time>
      </trkpt>
      <trkpt lat="47.47708" lon="6.76131">
        <ele>309</ele>
        <time>2015-03-08T11:44:47.000Z</time>
      </trkpt>
      <trkpt lat="47.47712" lon="6.76134">
        <ele>309</ele>
        <time>2015-03-08T11:44:48.000Z</time>
      </trkpt>
      <trkpt lat="47.47714" lon="6.76138">
        <ele>309</ele>
        <time>2015-03-08T11:44:49.000Z</time>
      </trkpt>
      <trkpt lat="47.47718" lon="6.76142">
        <ele>309</ele>
        <time>2015-03-08T11:44:50.000Z</time>
      </trkpt>
      <trkpt lat="47.47721" lon="6.76146">
        <ele>309</ele>
        <time>2015-03-08T11:44:51.000Z</time>
      </trkpt>
      <trkpt lat="47.47724" lon="6.76152">
        <ele>309</ele>
        <time>2015-03-08T11:44:52.000Z</time>
      </trkpt>
      <trkpt lat="47.47728" lon="6.76157">
        <ele>309</ele>
        <time>2015-03-08T11:44:53.000Z</time>
      </trkpt>
      <trkpt lat="47.47731" lon="6.76163">
        <ele>308</ele>
        <time>2015-03-08T11:44:54.000Z</time>
      </trkpt>
      <trkpt lat="47.47734" lon="6.76168">
        <ele>308</ele>
        <time>2015-03-08T11:44:55.000Z</time>
      </trkpt>
      <trkpt lat="47.47737" lon="6.76173">
        <ele>308</ele>
        <time>2015-03-08T11:44:56.000Z</time>
      </trkpt>
      <trkpt lat="47.4774" lon="6.76178">
        <ele>308</ele>
        <time>2015-03-08T11:44:57.000Z</time>
      </trkpt>
      <trkpt lat="47.47743" lon="6.76183">
        <ele>308</ele>
        <time>2015-03-08T11:44:58.000Z</time>
      </trkpt>
      <trkpt lat="47.47745" lon="6.76188">
        <ele>308</ele>
        <time>2015-03-08T11:44:59.000Z</time>
      </trkpt>
      <trkpt lat="47.47748" lon="6.76194">
        <ele>309</ele>
        <time>2015-03-08T11:45:00.000Z</time>
      </trkpt>
      <trkpt lat="47.47754" lon="6.76203">
        <ele>309</ele>
        <time>2015-03-08T11:45:02.000Z</time>
      </trkpt>
      <trkpt lat="47.47757" lon="6.76208">
        <ele>309</ele>
        <time>2015-03-08T11:45:03.000Z</time>
      </trkpt>
      <trkpt lat="47.47759" lon="6.76212">
        <ele>309</ele>
        <time>2015-03-08T11:45:04.000Z</time>
      </trkpt>
      <trkpt lat="47.47762" lon="6.76216">
        <ele>309</ele>
        <time>2015-03-08T11:45:05.000Z</time>
      </trkpt>
      <trkpt lat="47.47765" lon="6.7622">
        <ele>309</ele>
        <time>2015-03-08T11:45:06.000Z</time>
      </trkpt>
      <trkpt lat="47.47768" lon="6.76224">
        <ele>309</ele>
        <time>2015-03-08T11:45:07.000Z</time>
      </trkpt>
      <trkpt lat="47.47773" lon="6.7623">
        <ele>309</ele>
        <time>2015-03-08T11:45:08.000Z</time>
      </trkpt>
      <trkpt lat="47.47776" lon="6.76235">
        <ele>309</ele>
        <time>2015-03-08T11:45:09.000Z</time>
      </trkpt>
      <trkpt lat="47.4778" lon="6.76241">
        <ele>309</ele>
        <time>2015-03-08T11:45:10.000Z</time>
      </trkpt>
      <trkpt lat="47.47783" lon="6.76244">
        <ele>309</ele>
        <time>2015-03-08T11:45:11.000Z</time>
      </trkpt>
      <trkpt lat="47.47788" lon="6.76248">
        <ele>309</ele>
        <time>2015-03-08T11:45:12.000Z</time>
      </trkpt>
      <trkpt lat="47.47792" lon="6.76251">
        <ele>310</ele>
        <time>2015-03-08T11:45:13.000Z</time>
      </trkpt>
      <trkpt lat="47.47799" lon="6.76255">
        <ele>310</ele>
        <time>2015-03-08T11:45:14.000Z</time>
      </trkpt>
      <trkpt lat="47.47804" lon="6.76257">
        <ele>310</ele>
        <time>2015-03-08T11:45:15.000Z</time>
      </trkpt>
      <trkpt lat="47.47809" lon="6.76258">
        <ele>310</ele>
        <time>2015-03-08T11:45:16.000Z</time>
      </trkpt>
      <trkpt lat="47.47814" lon="6.7626">
        <ele>310</ele>
        <time>2015-03-08T11:45:17.000Z</time>
      </trkpt>
      <trkpt lat="47.47819" lon="6.76261">
        <ele>310</ele>
        <time>2015-03-08T11:45:18.000Z</time>
      </trkpt>
      <trkpt lat="47.47823" lon="6.76263">
        <ele>310</ele>
        <time>2015-03-08T11:45:19.000Z</time>
      </trkpt>
      <trkpt lat="47.47829" lon="6.76268">
        <ele>310</ele>
        <time>2015-03-08T11:45:20.000Z</time>
      </trkpt>
      <trkpt lat="47.47834" lon="6.76272">
        <ele>311</ele>
        <time>2015-03-08T11:45:21.000Z</time>
      </trkpt>
      <trkpt lat="47.47839" lon="6.76276">
        <ele>311</ele>
        <time>2015-03-08T11:45:22.000Z</time>
      </trkpt>
      <trkpt lat="47.47843" lon="6.76281">
        <ele>311</ele>
        <time>2015-03-08T11:45:23.000Z</time>
      </trkpt>
      <trkpt lat="47.47845" lon="6.76282">
        <ele>310</ele>
        <time>2015-03-08T11:45:24.000Z</time>
      </trkpt>
      <trkpt lat="47.4785" lon="6.76288">
        <ele>310</ele>
        <time>2015-03-08T11:45:25.000Z</time>
      </trkpt>
      <trkpt lat="47.47855" lon="6.76296">
        <ele>310</ele>
        <time>2015-03-08T11:45:26.000Z</time>
      </trkpt>
      <trkpt lat="47.47855" lon="6.76302">
        <ele>310</ele>
        <time>2015-03-08T11:45:27.000Z</time>
      </trkpt>
      <trkpt lat="47.4786" lon="6.76311">
        <ele>310</ele>
        <time>2015-03-08T11:45:28.000Z</time>
      </trkpt>
      <trkpt lat="47.47865" lon="6.76319">
        <ele>310</ele>
        <time>2015-03-08T11:45:29.000Z</time>
      </trkpt>
      <trkpt lat="47.47869" lon="6.76327">
        <ele>310</ele>
        <time>2015-03-08T11:45:30.000Z</time>
      </trkpt>
      <trkpt lat="47.47873" lon="6.76335">
        <ele>311</ele>
        <time>2015-03-08T11:45:31.000Z</time>
      </trkpt>
      <trkpt lat="47.47876" lon="6.76341">
        <ele>311</ele>
        <time>2015-03-08T11:45:32.000Z</time>
      </trkpt>
      <trkpt lat="47.47879" lon="6.76347">
        <ele>311</ele>
        <time>2015-03-08T11:45:33.000Z</time>
      </trkpt>
      <trkpt lat="47.47883" lon="6.76354">
        <ele>311</ele>
        <time>2015-03-08T11:45:34.000Z</time>
      </trkpt>
      <trkpt lat="47.47885" lon="6.7636">
        <ele>311</ele>
        <time>2015-03-08T11:45:35.000Z</time>
      </trkpt>
      <trkpt lat="47.47888" lon="6.76367">
        <ele>311</ele>
        <time>2015-03-08T11:45:36.000Z</time>
      </trkpt>
      <trkpt lat="47.4789" lon="6.76373">
        <ele>311</ele>
        <time>2015-03-08T11:45:37.000Z</time>
      </trkpt>
      <trkpt lat="47.47894" lon="6.7638">
        <ele>311</ele>
        <time>2015-03-08T11:45:38.000Z</time>
      </trkpt>
      <trkpt lat="47.47895" lon="6.76385">
        <ele>311</ele>
        <time>2015-03-08T11:45:39.000Z</time>
      </trkpt>
      <trkpt lat="47.479" lon="6.76394">
        <ele>311</ele>
        <time>2015-03-08T11:45:40.000Z</time>
      </trkpt>
      <trkpt lat="47.47903" lon="6.76402">
        <ele>311</ele>
        <time>2015-03-08T11:45:41.000Z</time>
      </trkpt>
      <trkpt lat="47.47904" lon="6.76408">
        <ele>311</ele>
        <time>2015-03-08T11:45:42.000Z</time>
      </trkpt>
      <trkpt lat="47.47907" lon="6.76414">
        <ele>312</ele>
        <time>2015-03-08T11:45:43.000Z</time>
      </trkpt>
      <trkpt lat="47.4791" lon="6.76421">
        <ele>312</ele>
        <time>2015-03-08T11:45:44.000Z</time>
      </trkpt>
      <trkpt lat="47.47912" lon="6.76426">
        <ele>311</ele>
        <time>2015-03-08T11:45:45.000Z</time>
      </trkpt>
      <trkpt lat="47.47914" lon="6.76435">
        <ele>311</ele>
        <time>2015-03-08T11:45:46.000Z</time>
      </trkpt>
      <trkpt lat="47.47916" lon="6.76442">
        <ele>311</ele>
        <time>2015-03-08T11:45:47.000Z</time>
      </trkpt>
      <trkpt lat="47.47918" lon="6.76449">
        <ele>311</ele>
        <time>2015-03-08T11:45:48.000Z</time>
      </trkpt>
      <trkpt lat="47.47918" lon="6.76457">
        <ele>311</ele>
        <time>2015-03-08T11:45:49.000Z</time>
      </trkpt>
      <trkpt lat="47.47921" lon="6.76464">
        <ele>311</ele>
        <time>2015-03-08T11:45:50.000Z</time>
      </trkpt>
      <trkpt lat="47.47922" lon="6.7647">
        <ele>311</ele>
        <time>2015-03-08T11:45:51.000Z</time>
      </trkpt>
      <trkpt lat="47.47923" lon="6.76477">
        <ele>311</ele>
        <time>2015-03-08T11:45:52.000Z</time>
      </trkpt>
      <trkpt lat="47.47925" lon="6.76484">
        <ele>311</ele>
        <time>2015-03-08T11:45:53.000Z</time>
      </trkpt>
      <trkpt lat="47.47928" lon="6.76493">
        <ele>310</ele>
        <time>2015-03-08T11:45:54.000Z</time>
      </trkpt>
      <trkpt lat="47.47928" lon="6.765">
        <ele>310</ele>
        <time>2015-03-08T11:45:55.000Z</time>
      </trkpt>
      <trkpt lat="47.4793" lon="6.76505">
        <ele>310</ele>
        <time>2015-03-08T11:45:56.000Z</time>
      </trkpt>
      <trkpt lat="47.47932" lon="6.76511">
        <ele>311</ele>
        <time>2015-03-08T11:45:57.000Z</time>
      </trkpt>
      <trkpt lat="47.47935" lon="6.76517">
        <ele>311</ele>
        <time>2015-03-08T11:45:58.000Z</time>
      </trkpt>
      <trkpt lat="47.47937" lon="6.76524">
        <ele>311</ele>
        <time>2015-03-08T11:45:59.000Z</time>
      </trkpt>
      <trkpt lat="47.47938" lon="6.76532">
        <ele>311</ele>
        <time>2015-03-08T11:46:00.000Z</time>
      </trkpt>
      <trkpt lat="47.4794" lon="6.76537">
        <ele>311</ele>
        <time>2015-03-08T11:46:01.000Z</time>
      </trkpt>
      <trkpt lat="47.47941" lon="6.76544">
        <ele>311</ele>
        <time>2015-03-08T11:46:02.000Z</time>
      </trkpt>
      <trkpt lat="47.47942" lon="6.76552">
        <ele>311</ele>
        <time>2015-03-08T11:46:03.000Z</time>
      </trkpt>
      <trkpt lat="47.47944" lon="6.76559">
        <ele>311</ele>
        <time>2015-03-08T11:46:04.000Z</time>
      </trkpt>
      <trkpt lat="47.47945" lon="6.76566">
        <ele>311</ele>
        <time>2015-03-08T11:46:05.000Z</time>
      </trkpt>
      <trkpt lat="47.47948" lon="6.76575">
        <ele>311</ele>
        <time>2015-03-08T11:46:06.000Z</time>
      </trkpt>
      <trkpt lat="47.47948" lon="6.76582">
        <ele>311</ele>
        <time>2015-03-08T11:46:07.000Z</time>
      </trkpt>
      <trkpt lat="47.47949" lon="6.7659">
        <ele>311</ele>
        <time>2015-03-08T11:46:08.000Z</time>
      </trkpt>
      <trkpt lat="47.47951" lon="6.76595">
        <ele>311</ele>
        <time>2015-03-08T11:46:09.000Z</time>
      </trkpt>
      <trkpt lat="47.47953" lon="6.76601">
        <ele>311</ele>
        <time>2015-03-08T11:46:10.000Z</time>
      </trkpt>
      <trkpt lat="47.47955" lon="6.76605">
        <ele>311</ele>
        <time>2015-03-08T11:46:11.000Z</time>
      </trkpt>
      <trkpt lat="47.47956" lon="6.76608">
        <ele>311</ele>
        <time>2015-03-08T11:46:12.000Z</time>
      </trkpt>
      <trkpt lat="47.47955" lon="6.76613">
        <ele>311</ele>
        <time>2015-03-08T11:46:16.000Z</time>
      </trkpt>
      <trkpt lat="47.47956" lon="6.76615">
        <ele>311</ele>
        <time>2015-03-08T11:46:17.000Z</time>
      </trkpt>
      <trkpt lat="47.47955" lon="6.76621">
        <ele>311</ele>
        <time>2015-03-08T11:46:20.000Z</time>
      </trkpt>
      <trkpt lat="47.47957" lon="6.76623">
        <ele>311</ele>
        <time>2015-03-08T11:46:21.000Z</time>
      </trkpt>
      <trkpt lat="47.47959" lon="6.76624">
        <ele>311</ele>
        <time>2015-03-08T11:46:22.000Z</time>
      </trkpt>
      <trkpt lat="47.47962" lon="6.76625">
        <ele>311</ele>
        <time>2015-03-08T11:46:23.000Z</time>
      </trkpt>
      <trkpt lat="47.47966" lon="6.76623">
        <ele>311</ele>
        <time>2015-03-08T11:46:25.000Z</time>
      </trkpt>
      <trkpt lat="47.47967" lon="6.76621">
        <ele>311</ele>
        <time>2015-03-08T11:46:26.000Z</time>
      </trkpt>
      <trkpt lat="47.47968" lon="6.76619">
        <ele>311</ele>
        <time>2015-03-08T11:46:27.000Z</time>
      </trkpt>
      <trkpt lat="47.4797" lon="6.76616">
        <ele>311</ele>
        <time>2015-03-08T11:46:28.000Z</time>
      </trkpt>
      <trkpt lat="47.47974" lon="6.76614">
        <ele>311</ele>
        <time>2015-03-08T11:46:29.000Z</time>
      </trkpt>
      <trkpt lat="47.47978" lon="6.76611">
        <ele>311</ele>
        <time>2015-03-08T11:46:30.000Z</time>
      </trkpt>
      <trkpt lat="47.47983" lon="6.76608">
        <ele>311</ele>
        <time>2015-03-08T11:46:31.000Z</time>
      </trkpt>
      <trkpt lat="47.47988" lon="6.76605">
        <ele>312</ele>
        <time>2015-03-08T11:46:32.000Z</time>
      </trkpt>
      <trkpt lat="47.47993" lon="6.76602">
        <ele>312</ele>
        <time>2015-03-08T11:46:33.000Z</time>
      </trkpt>
      <trkpt lat="47.48002" lon="6.76597">
        <ele>312</ele>
        <time>2015-03-08T11:46:34.000Z</time>
      </trkpt>
      <trkpt lat="47.48006" lon="6.76596">
        <ele>312</ele>
        <time>2015-03-08T11:46:35.000Z</time>
      </trkpt>
      <trkpt lat="47.4801" lon="6.76595">
        <ele>312</ele>
        <time>2015-03-08T11:46:36.000Z</time>
      </trkpt>
      <trkpt lat="47.48016" lon="6.76592">
        <ele>312</ele>
        <time>2015-03-08T11:46:37.000Z</time>
      </trkpt>
      <trkpt lat="47.4802" lon="6.76589">
        <ele>312</ele>
        <time>2015-03-08T11:46:38.000Z</time>
      </trkpt>
      <trkpt lat="47.48025" lon="6.76586">
        <ele>312</ele>
        <time>2015-03-08T11:46:39.000Z</time>
      </trkpt>
      <trkpt lat="47.4803" lon="6.76584">
        <ele>312</ele>
        <time>2015-03-08T11:46:40.000Z</time>
      </trkpt>
      <trkpt lat="47.48035" lon="6.7658">
        <ele>312</ele>
        <time>2015-03-08T11:46:41.000Z</time>
      </trkpt>
      <trkpt lat="47.48039" lon="6.76575">
        <ele>312</ele>
        <time>2015-03-08T11:46:42.000Z</time>
      </trkpt>
      <trkpt lat="47.48044" lon="6.76571">
        <ele>312</ele>
        <time>2015-03-08T11:46:43.000Z</time>
      </trkpt>
      <trkpt lat="47.48048" lon="6.76571">
        <ele>312</ele>
        <time>2015-03-08T11:46:44.000Z</time>
      </trkpt>
      <trkpt lat="47.48054" lon="6.76565">
        <ele>312</ele>
        <time>2015-03-08T11:46:45.000Z</time>
      </trkpt>
      <trkpt lat="47.48056" lon="6.7656">
        <ele>312</ele>
        <time>2015-03-08T11:46:46.000Z</time>
      </trkpt>
      <trkpt lat="47.48059" lon="6.76556">
        <ele>312</ele>
        <time>2015-03-08T11:46:47.000Z</time>
      </trkpt>
      <trkpt lat="47.48064" lon="6.76554">
        <ele>312</ele>
        <time>2015-03-08T11:46:48.000Z</time>
      </trkpt>
      <trkpt lat="47.48067" lon="6.76551">
        <ele>312</ele>
        <time>2015-03-08T11:46:49.000Z</time>
      </trkpt>
      <trkpt lat="47.48071" lon="6.76547">
        <ele>312</ele>
        <time>2015-03-08T11:46:50.000Z</time>
      </trkpt>
      <trkpt lat="47.48074" lon="6.76545">
        <ele>312</ele>
        <time>2015-03-08T11:46:51.000Z</time>
      </trkpt>
      <trkpt lat="47.48074" lon="6.76538">
        <ele>312</ele>
        <time>2015-03-08T11:46:52.000Z</time>
      </trkpt>
      <trkpt lat="47.48078" lon="6.76534">
        <ele>312</ele>
        <time>2015-03-08T11:46:53.000Z</time>
      </trkpt>
      <trkpt lat="47.48085" lon="6.7653">
        <ele>317</ele>
        <time>2015-03-08T11:46:54.000Z</time>
      </trkpt>
      <trkpt lat="47.48088" lon="6.76524">
        <ele>317</ele>
        <time>2015-03-08T11:46:55.000Z</time>
      </trkpt>
      <trkpt lat="47.48091" lon="6.76521">
        <ele>317</ele>
        <time>2015-03-08T11:46:56.000Z</time>
      </trkpt>
      <trkpt lat="47.48098" lon="6.7652">
        <ele>318</ele>
        <time>2015-03-08T11:46:57.000Z</time>
      </trkpt>
      <trkpt lat="47.48103" lon="6.76518">
        <ele>318</ele>
        <time>2015-03-08T11:46:58.000Z</time>
      </trkpt>
      <trkpt lat="47.48107" lon="6.76516">
        <ele>319</ele>
        <time>2015-03-08T11:46:59.000Z</time>
      </trkpt>
      <trkpt lat="47.4811" lon="6.76515">
        <ele>319</ele>
        <time>2015-03-08T11:47:00.000Z</time>
      </trkpt>
      <trkpt lat="47.48113" lon="6.76521">
        <ele>319</ele>
        <time>2015-03-08T11:47:02.000Z</time>
      </trkpt>
      <trkpt lat="47.48116" lon="6.7652">
        <ele>320</ele>
        <time>2015-03-08T11:47:03.000Z</time>
      </trkpt>
      <trkpt lat="47.4812" lon="6.76522">
        <ele>320</ele>
        <time>2015-03-08T11:47:04.000Z</time>
      </trkpt>
      <trkpt lat="47.48124" lon="6.76528">
        <ele>321</ele>
        <time>2015-03-08T11:47:05.000Z</time>
      </trkpt>
      <trkpt lat="47.48127" lon="6.76532">
        <ele>321</ele>
        <time>2015-03-08T11:47:07.000Z</time>
      </trkpt>
      <trkpt lat="47.48129" lon="6.76534">
        <ele>321</ele>
        <time>2015-03-08T11:47:08.000Z</time>
      </trkpt>
      <trkpt lat="47.48129" lon="6.76537">
        <ele>321</ele>
        <time>2015-03-08T11:47:09.000Z</time>
      </trkpt>
      <trkpt lat="47.4813" lon="6.76541">
        <ele>320</ele>
        <time>2015-03-08T11:47:10.000Z</time>
      </trkpt>
      <trkpt lat="47.48131" lon="6.76543">
        <ele>320</ele>
        <time>2015-03-08T11:47:10.999Z</time>
      </trkpt>
      <trkpt lat="47.48126" lon="6.76553">
        <ele>319</ele>
        <time>2015-03-08T11:47:12.000Z</time>
      </trkpt>
      <trkpt lat="47.48124" lon="6.7656">
        <ele>319</ele>
        <time>2015-03-08T11:47:13.000Z</time>
      </trkpt>
      <trkpt lat="47.4812" lon="6.76567">
        <ele>318</ele>
        <time>2015-03-08T11:47:14.000Z</time>
      </trkpt>
      <trkpt lat="47.48116" lon="6.76573">
        <ele>318</ele>
        <time>2015-03-08T11:47:15.000Z</time>
      </trkpt>
      <trkpt lat="47.48112" lon="6.76579">
        <ele>317</ele>
        <time>2015-03-08T11:47:16.000Z</time>
      </trkpt>
      <trkpt lat="47.48104" lon="6.76593">
        <ele>313</ele>
        <time>2015-03-08T11:47:17.000Z</time>
      </trkpt>
      <trkpt lat="47.48102" lon="6.766">
        <ele>313</ele>
        <time>2015-03-08T11:47:18.000Z</time>
      </trkpt>
      <trkpt lat="47.48101" lon="6.76607">
        <ele>313</ele>
        <time>2015-03-08T11:47:19.000Z</time>
      </trkpt>
      <trkpt lat="47.48101" lon="6.76614">
        <ele>313</ele>
        <time>2015-03-08T11:47:20.000Z</time>
      </trkpt>
      <trkpt lat="47.481" lon="6.7662">
        <ele>313</ele>
        <time>2015-03-08T11:47:21.000Z</time>
      </trkpt>
      <trkpt lat="47.48103" lon="6.76627">
        <ele>313</ele>
        <time>2015-03-08T11:47:22.000Z</time>
      </trkpt>
      <trkpt lat="47.48105" lon="6.76633">
        <ele>313</ele>
        <time>2015-03-08T11:47:23.000Z</time>
      </trkpt>
      <trkpt lat="47.4811" lon="6.76635">
        <ele>313</ele>
        <time>2015-03-08T11:47:24.000Z</time>
      </trkpt>
      <trkpt lat="47.48112" lon="6.7664">
        <ele>313</ele>
        <time>2015-03-08T11:47:25.000Z</time>
      </trkpt>
      <trkpt lat="47.48114" lon="6.76647">
        <ele>313</ele>
        <time>2015-03-08T11:47:26.000Z</time>
      </trkpt>
      <trkpt lat="47.48117" lon="6.76651">
        <ele>313</ele>
        <time>2015-03-08T11:47:27.000Z</time>
      </trkpt>
      <trkpt lat="47.48119" lon="6.76656">
        <ele>313</ele>
        <time>2015-03-08T11:47:28.000Z</time>
      </trkpt>
      <trkpt lat="47.48121" lon="6.76662">
        <ele>313</ele>
        <time>2015-03-08T11:47:29.000Z</time>
      </trkpt>
      <trkpt lat="47.48124" lon="6.76667">
        <ele>312</ele>
        <time>2015-03-08T11:47:30.000Z</time>
      </trkpt>
      <trkpt lat="47.48128" lon="6.7668">
        <ele>312</ele>
        <time>2015-03-08T11:47:31.000Z</time>
      </trkpt>
      <trkpt lat="47.48131" lon="6.76685">
        <ele>312</ele>
        <time>2015-03-08T11:47:32.000Z</time>
      </trkpt>
      <trkpt lat="47.48134" lon="6.76693">
        <ele>312</ele>
        <time>2015-03-08T11:47:33.000Z</time>
      </trkpt>
      <trkpt lat="47.48138" lon="6.767">
        <ele>312</ele>
        <time>2015-03-08T11:47:34.000Z</time>
      </trkpt>
      <trkpt lat="47.48142" lon="6.76706">
        <ele>312</ele>
        <time>2015-03-08T11:47:35.000Z</time>
      </trkpt>
      <trkpt lat="47.48146" lon="6.76712">
        <ele>312</ele>
        <time>2015-03-08T11:47:36.000Z</time>
      </trkpt>
      <trkpt lat="47.48149" lon="6.76719">
        <ele>312</ele>
        <time>2015-03-08T11:47:37.000Z</time>
      </trkpt>
      <trkpt lat="47.48152" lon="6.76726">
        <ele>312</ele>
        <time>2015-03-08T11:47:38.000Z</time>
      </trkpt>
      <trkpt lat="47.48155" lon="6.76733">
        <ele>312</ele>
        <time>2015-03-08T11:47:39.000Z</time>
      </trkpt>
      <trkpt lat="47.48158" lon="6.7674">
        <ele>313</ele>
        <time>2015-03-08T11:47:40.000Z</time>
      </trkpt>
      <trkpt lat="47.48161" lon="6.76745">
        <ele>313</ele>
        <time>2015-03-08T11:47:41.000Z</time>
      </trkpt>
      <trkpt lat="47.48165" lon="6.7675">
        <ele>313</ele>
        <time>2015-03-08T11:47:42.000Z</time>
      </trkpt>
      <trkpt lat="47.48168" lon="6.76753">
        <ele>313</ele>
        <time>2015-03-08T11:47:43.000Z</time>
      </trkpt>
      <trkpt lat="47.48172" lon="6.76757">
        <ele>313</ele>
        <time>2015-03-08T11:47:44.000Z</time>
      </trkpt>
      <trkpt lat="47.48175" lon="6.76762">
        <ele>313</ele>
        <time>2015-03-08T11:47:45.000Z</time>
      </trkpt>
      <trkpt lat="47.48179" lon="6.76765">
        <ele>312</ele>
        <time>2015-03-08T11:47:46.000Z</time>
      </trkpt>
      <trkpt lat="47.48186" lon="6.76767">
        <ele>312</ele>
        <time>2015-03-08T11:47:47.000Z</time>
      </trkpt>
      <trkpt lat="47.48191" lon="6.76769">
        <ele>312</ele>
        <time>2015-03-08T11:47:48.000Z</time>
      </trkpt>
      <trkpt lat="47.48196" lon="6.76772">
        <ele>312</ele>
        <time>2015-03-08T11:47:49.000Z</time>
      </trkpt>
      <trkpt lat="47.482" lon="6.76774">
        <ele>312</ele>
        <time>2015-03-08T11:47:50.000Z</time>
      </trkpt>
      <trkpt lat="47.48206" lon="6.76777">
        <ele>312</ele>
        <time>2015-03-08T11:47:51.000Z</time>
      </trkpt>
      <trkpt lat="47.4821" lon="6.7678">
        <ele>312</ele>
        <time>2015-03-08T11:47:52.000Z</time>
      </trkpt>
      <trkpt lat="47.48213" lon="6.76784">
        <ele>312</ele>
        <time>2015-03-08T11:47:53.000Z</time>
      </trkpt>
      <trkpt lat="47.48217" lon="6.76787">
        <ele>312</ele>
        <time>2015-03-08T11:47:54.000Z</time>
      </trkpt>
      <trkpt lat="47.48222" lon="6.76791">
        <ele>312</ele>
        <time>2015-03-08T11:47:55.000Z</time>
      </trkpt>
      <trkpt lat="47.48227" lon="6.76793">
        <ele>312</ele>
        <time>2015-03-08T11:47:56.000Z</time>
      </trkpt>
      <trkpt lat="47.4823" lon="6.76798">
        <ele>312</ele>
        <time>2015-03-08T11:47:57.000Z</time>
      </trkpt>
      <trkpt lat="47.48235" lon="6.768">
        <ele>312</ele>
        <time>2015-03-08T11:47:58.000Z</time>
      </trkpt>
      <trkpt lat="47.48239" lon="6.76803">
        <ele>312</ele>
        <time>2015-03-08T11:47:59.000Z</time>
      </trkpt>
      <trkpt lat="47.48242" lon="6.76807">
        <ele>312</ele>
        <time>2015-03-08T11:48:00.000Z</time>
      </trkpt>
      <trkpt lat="47.4825" lon="6.76817">
        <ele>312</ele>
        <time>2015-03-08T11:48:02.000Z</time>
      </trkpt>
      <trkpt lat="47.48254" lon="6.76823">
        <ele>312</ele>
        <time>2015-03-08T11:48:03.000Z</time>
      </trkpt>
      <trkpt lat="47.48258" lon="6.76828">
        <ele>312</ele>
        <time>2015-03-08T11:48:04.000Z</time>
      </trkpt>
      <trkpt lat="47.4826" lon="6.76833">
        <ele>312</ele>
        <time>2015-03-08T11:48:05.000Z</time>
      </trkpt>
      <trkpt lat="47.48263" lon="6.76839">
        <ele>311</ele>
        <time>2015-03-08T11:48:06.000Z</time>
      </trkpt>
      <trkpt lat="47.48266" lon="6.76844">
        <ele>311</ele>
        <time>2015-03-08T11:48:07.000Z</time>
      </trkpt>
      <trkpt lat="47.48268" lon="6.76849">
        <ele>311</ele>
        <time>2015-03-08T11:48:08.000Z</time>
      </trkpt>
      <trkpt lat="47.48272" lon="6.76853">
        <ele>311</ele>
        <time>2015-03-08T11:48:09.000Z</time>
      </trkpt>
      <trkpt lat="47.48277" lon="6.76854">
        <ele>310</ele>
        <time>2015-03-08T11:48:10.000Z</time>
      </trkpt>
      <trkpt lat="47.48279" lon="6.76858">
        <ele>310</ele>
        <time>2015-03-08T11:48:11.000Z</time>
      </trkpt>
      <trkpt lat="47.48283" lon="6.76864">
        <ele>310</ele>
        <time>2015-03-08T11:48:12.000Z</time>
      </trkpt>
      <trkpt lat="47.48289" lon="6.7687">
        <ele>310</ele>
        <time>2015-03-08T11:48:13.000Z</time>
      </trkpt>
      <trkpt lat="47.48293" lon="6.76875">
        <ele>310</ele>
        <time>2015-03-08T11:48:14.000Z</time>
      </trkpt>
      <trkpt lat="47.48297" lon="6.7688">
        <ele>310</ele>
        <time>2015-03-08T11:48:15.000Z</time>
      </trkpt>
      <trkpt lat="47.48302" lon="6.76885">
        <ele>310</ele>
        <time>2015-03-08T11:48:16.000Z</time>
      </trkpt>
      <trkpt lat="47.48305" lon="6.76888">
        <ele>310</ele>
        <time>2015-03-08T11:48:17.000Z</time>
      </trkpt>
      <trkpt lat="47.4831" lon="6.76892">
        <ele>310</ele>
        <time>2015-03-08T11:48:18.000Z</time>
      </trkpt>
      <trkpt lat="47.48315" lon="6.76895">
        <ele>310</ele>
        <time>2015-03-08T11:48:19.000Z</time>
      </trkpt>
      <trkpt lat="47.48319" lon="6.769">
        <ele>310</ele>
        <time>2015-03-08T11:48:20.000Z</time>
      </trkpt>
      <trkpt lat="47.48323" lon="6.76901">
        <ele>310</ele>
        <time>2015-03-08T11:48:21.000Z</time>
      </trkpt>
      <trkpt lat="47.48329" lon="6.76905">
        <ele>310</ele>
        <time>2015-03-08T11:48:22.000Z</time>
      </trkpt>
      <trkpt lat="47.48332" lon="6.76912">
        <ele>309</ele>
        <time>2015-03-08T11:48:23.000Z</time>
      </trkpt>
      <trkpt lat="47.48335" lon="6.76918">
        <ele>309</ele>
        <time>2015-03-08T11:48:24.000Z</time>
      </trkpt>
      <trkpt lat="47.4834" lon="6.7692">
        <ele>310</ele>
        <time>2015-03-08T11:48:25.000Z</time>
      </trkpt>
      <trkpt lat="47.48343" lon="6.76924">
        <ele>310</ele>
        <time>2015-03-08T11:48:26.000Z</time>
      </trkpt>
      <trkpt lat="47.48349" lon="6.76928">
        <ele>311</ele>
        <time>2015-03-08T11:48:27.000Z</time>
      </trkpt>
      <trkpt lat="47.48353" lon="6.76932">
        <ele>311</ele>
        <time>2015-03-08T11:48:28.000Z</time>
      </trkpt>
      <trkpt lat="47.48358" lon="6.76934">
        <ele>311</ele>
        <time>2015-03-08T11:48:29.000Z</time>
      </trkpt>
      <trkpt lat="47.48362" lon="6.76937">
        <ele>311</ele>
        <time>2015-03-08T11:48:30.000Z</time>
      </trkpt>
      <trkpt lat="47.48366" lon="6.7694">
        <ele>312</ele>
        <time>2015-03-08T11:48:31.000Z</time>
      </trkpt>
      <trkpt lat="47.48371" lon="6.76943">
        <ele>312</ele>
        <time>2015-03-08T11:48:32.000Z</time>
      </trkpt>
      <trkpt lat="47.48376" lon="6.76944">
        <ele>312</ele>
        <time>2015-03-08T11:48:33.000Z</time>
      </trkpt>
      <trkpt lat="47.48379" lon="6.76946">
        <ele>312</ele>
        <time>2015-03-08T11:48:34.000Z</time>
      </trkpt>
      <trkpt lat="47.48384" lon="6.76947">
        <ele>312</ele>
        <time>2015-03-08T11:48:35.000Z</time>
      </trkpt>
      <trkpt lat="47.48388" lon="6.76949">
        <ele>312</ele>
        <time>2015-03-08T11:48:36.000Z</time>
      </trkpt>
      <trkpt lat="47.48393" lon="6.76949">
        <ele>312</ele>
        <time>2015-03-08T11:48:37.000Z</time>
      </trkpt>
      <trkpt lat="47.48398" lon="6.76952">
        <ele>312</ele>
        <time>2015-03-08T11:48:38.000Z</time>
      </trkpt>
      <trkpt lat="47.48402" lon="6.76955">
        <ele>312</ele>
        <time>2015-03-08T11:48:39.000Z</time>
      </trkpt>
      <trkpt lat="47.48406" lon="6.76957">
        <ele>312</ele>
        <time>2015-03-08T11:48:40.000Z</time>
      </trkpt>
      <trkpt lat="47.48411" lon="6.76959">
        <ele>312</ele>
        <time>2015-03-08T11:48:41.000Z</time>
      </trkpt>
      <trkpt lat="47.48415" lon="6.76962">
        <ele>312</ele>
        <time>2015-03-08T11:48:42.000Z</time>
      </trkpt>
      <trkpt lat="47.4842" lon="6.76962">
        <ele>314</ele>
        <time>2015-03-08T11:48:43.000Z</time>
      </trkpt>
      <trkpt lat="47.48424" lon="6.76964">
        <ele>314</ele>
        <time>2015-03-08T11:48:44.000Z</time>
      </trkpt>
      <trkpt lat="47.48428" lon="6.76968">
        <ele>314</ele>
        <time>2015-03-08T11:48:45.000Z</time>
      </trkpt>
      <trkpt lat="47.48432" lon="6.76969">
        <ele>314</ele>
        <time>2015-03-08T11:48:46.000Z</time>
      </trkpt>
      <trkpt lat="47.48437" lon="6.76969">
        <ele>314</ele>
        <time>2015-03-08T11:48:47.000Z</time>
      </trkpt>
      <trkpt lat="47.48441" lon="6.76973">
        <ele>315</ele>
        <time>2015-03-08T11:48:48.000Z</time>
      </trkpt>
      <trkpt lat="47.48445" lon="6.76977">
        <ele>315</ele>
        <time>2015-03-08T11:48:49.000Z</time>
      </trkpt>
      <trkpt lat="47.48449" lon="6.76981">
        <ele>315</ele>
        <time>2015-03-08T11:48:50.000Z</time>
      </trkpt>
      <trkpt lat="47.48454" lon="6.76983">
        <ele>315</ele>
        <time>2015-03-08T11:48:51.000Z</time>
      </trkpt>
      <trkpt lat="47.48458" lon="6.76985">
        <ele>315</ele>
        <time>2015-03-08T11:48:52.000Z</time>
      </trkpt>
      <trkpt lat="47.48463" lon="6.76988">
        <ele>315</ele>
        <time>2015-03-08T11:48:53.000Z</time>
      </trkpt>
      <trkpt lat="47.48467" lon="6.76991">
        <ele>315</ele>
        <time>2015-03-08T11:48:54.000Z</time>
      </trkpt>
      <trkpt lat="47.48471" lon="6.76993">
        <ele>315</ele>
        <time>2015-03-08T11:48:55.000Z</time>
      </trkpt>
      <trkpt lat="47.48474" lon="6.76995">
        <ele>315</ele>
        <time>2015-03-08T11:48:56.000Z</time>
      </trkpt>
      <trkpt lat="47.48479" lon="6.76998">
        <ele>315</ele>
        <time>2015-03-08T11:48:57.000Z</time>
      </trkpt>
      <trkpt lat="47.48483" lon="6.77002">
        <ele>315</ele>
        <time>2015-03-08T11:48:58.000Z</time>
      </trkpt>
      <trkpt lat="47.48487" lon="6.77005">
        <ele>315</ele>
        <time>2015-03-08T11:48:59.000Z</time>
      </trkpt>
      <trkpt lat="47.48491" lon="6.77007">
        <ele>315</ele>
        <time>2015-03-08T11:49:00.000Z</time>
      </trkpt>
      <trkpt lat="47.48499" lon="6.77013">
        <ele>315</ele>
        <time>2015-03-08T11:49:02.000Z</time>
      </trkpt>
      <trkpt lat="47.48503" lon="6.77017">
        <ele>315</ele>
        <time>2015-03-08T11:49:03.000Z</time>
      </trkpt>
      <trkpt lat="47.48508" lon="6.77018">
        <ele>315</ele>
        <time>2015-03-08T11:49:04.000Z</time>
      </trkpt>
      <trkpt lat="47.48512" lon="6.77022">
        <ele>315</ele>
        <time>2015-03-08T11:49:05.000Z</time>
      </trkpt>
      <trkpt lat="47.48516" lon="6.77024">
        <ele>314</ele>
        <time>2015-03-08T11:49:06.000Z</time>
      </trkpt>
      <trkpt lat="47.48519" lon="6.77029">
        <ele>314</ele>
        <time>2015-03-08T11:49:07.000Z</time>
      </trkpt>
      <trkpt lat="47.48524" lon="6.77032">
        <ele>314</ele>
        <time>2015-03-08T11:49:08.000Z</time>
      </trkpt>
      <trkpt lat="47.48527" lon="6.77033">
        <ele>314</ele>
        <time>2015-03-08T11:49:09.000Z</time>
      </trkpt>
      <trkpt lat="47.48529" lon="6.77035">
        <ele>314</ele>
        <time>2015-03-08T11:49:10.000Z</time>
      </trkpt>
      <trkpt lat="47.48532" lon="6.77036">
        <ele>314</ele>
        <time>2015-03-08T11:49:11.000Z</time>
      </trkpt>
      <trkpt lat="47.48536" lon="6.77038">
        <ele>314</ele>
        <time>2015-03-08T11:49:12.000Z</time>
      </trkpt>
      <trkpt lat="47.48538" lon="6.77043">
        <ele>314</ele>
        <time>2015-03-08T11:49:13.000Z</time>
      </trkpt>
      <trkpt lat="47.48542" lon="6.77044">
        <ele>314</ele>
        <time>2015-03-08T11:49:14.000Z</time>
      </trkpt>
      <trkpt lat="47.48547" lon="6.77046">
        <ele>314</ele>
        <time>2015-03-08T11:49:15.000Z</time>
      </trkpt>
      <trkpt lat="47.48552" lon="6.77049">
        <ele>314</ele>
        <time>2015-03-08T11:49:16.000Z</time>
      </trkpt>
      <trkpt lat="47.48556" lon="6.77051">
        <ele>314</ele>
        <time>2015-03-08T11:49:17.000Z</time>
      </trkpt>
      <trkpt lat="47.48561" lon="6.77053">
        <ele>314</ele>
        <time>2015-03-08T11:49:18.000Z</time>
      </trkpt>
      <trkpt lat="47.48566" lon="6.77055">
        <ele>314</ele>
        <time>2015-03-08T11:49:19.000Z</time>
      </trkpt>
      <trkpt lat="47.48571" lon="6.77056">
        <ele>314</ele>
        <time>2015-03-08T11:49:20.000Z</time>
      </trkpt>
      <trkpt lat="47.48575" lon="6.77057">
        <ele>314</ele>
        <time>2015-03-08T11:49:21.000Z</time>
      </trkpt>
      <trkpt lat="47.4858" lon="6.77058">
        <ele>314</ele>
        <time>2015-03-08T11:49:22.000Z</time>
      </trkpt>
      <trkpt lat="47.48584" lon="6.7706">
        <ele>313</ele>
        <time>2015-03-08T11:49:23.000Z</time>
      </trkpt>
      <trkpt lat="47.48592" lon="6.77064">
        <ele>313</ele>
        <time>2015-03-08T11:49:24.000Z</time>
      </trkpt>
      <trkpt lat="47.48597" lon="6.77064">
        <ele>313</ele>
        <time>2015-03-08T11:49:25.000Z</time>
      </trkpt>
      <trkpt lat="47.48601" lon="6.77065">
        <ele>313</ele>
        <time>2015-03-08T11:49:26.000Z</time>
      </trkpt>
      <trkpt lat="47.48605" lon="6.77067">
        <ele>313</ele>
        <time>2015-03-08T11:49:27.000Z</time>
      </trkpt>
      <trkpt lat="47.48608" lon="6.77071">
        <ele>313</ele>
        <time>2015-03-08T11:49:28.000Z</time>
      </trkpt>
      <trkpt lat="47.48613" lon="6.77073">
        <ele>313</ele>
        <time>2015-03-08T11:49:29.000Z</time>
      </trkpt>
      <trkpt lat="47.48618" lon="6.77074">
        <ele>313</ele>
        <time>2015-03-08T11:49:30.000Z</time>
      </trkpt>
      <trkpt lat="47.48622" lon="6.77075">
        <ele>313</ele>
        <time>2015-03-08T11:49:31.000Z</time>
      </trkpt>
      <trkpt lat="47.48625" lon="6.7708">
        <ele>313</ele>
        <time>2015-03-08T11:49:32.000Z</time>
      </trkpt>
      <trkpt lat="47.48628" lon="6.77084">
        <ele>312</ele>
        <time>2015-03-08T11:49:33.000Z</time>
      </trkpt>
      <trkpt lat="47.48631" lon="6.77088">
        <ele>312</ele>
        <time>2015-03-08T11:49:34.000Z</time>
      </trkpt>
      <trkpt lat="47.48635" lon="6.77092">
        <ele>312</ele>
        <time>2015-03-08T11:49:35.000Z</time>
      </trkpt>
      <trkpt lat="47.48639" lon="6.77096">
        <ele>312</ele>
        <time>2015-03-08T11:49:36.000Z</time>
      </trkpt>
      <trkpt lat="47.48642" lon="6.77102">
        <ele>312</ele>
        <time>2015-03-08T11:49:37.000Z</time>
      </trkpt>
      <trkpt lat="47.48646" lon="6.77107">
        <ele>312</ele>
        <time>2015-03-08T11:49:38.000Z</time>
      </trkpt>
      <trkpt lat="47.4865" lon="6.77111">
        <ele>312</ele>
        <time>2015-03-08T11:49:39.000Z</time>
      </trkpt>
      <trkpt lat="47.48654" lon="6.77116">
        <ele>312</ele>
        <time>2015-03-08T11:49:40.000Z</time>
      </trkpt>
      <trkpt lat="47.48658" lon="6.77121">
        <ele>312</ele>
        <time>2015-03-08T11:49:41.000Z</time>
      </trkpt>
      <trkpt lat="47.48663" lon="6.77126">
        <ele>312</ele>
        <time>2015-03-08T11:49:42.000Z</time>
      </trkpt>
      <trkpt lat="47.48665" lon="6.77128">
        <ele>312</ele>
        <time>2015-03-08T11:49:43.000Z</time>
      </trkpt>
      <trkpt lat="47.4867" lon="6.77134">
        <ele>312</ele>
        <time>2015-03-08T11:49:44.000Z</time>
      </trkpt>
      <trkpt lat="47.48674" lon="6.77137">
        <ele>311</ele>
        <time>2015-03-08T11:49:45.000Z</time>
      </trkpt>
      <trkpt lat="47.48679" lon="6.77142">
        <ele>311</ele>
        <time>2015-03-08T11:49:46.000Z</time>
      </trkpt>
      <trkpt lat="47.48683" lon="6.77147">
        <ele>311</ele>
        <time>2015-03-08T11:49:47.000Z</time>
      </trkpt>
      <trkpt lat="47.48687" lon="6.77151">
        <ele>311</ele>
        <time>2015-03-08T11:49:48.000Z</time>
      </trkpt>
      <trkpt lat="47.48691" lon="6.77155">
        <ele>311</ele>
        <time>2015-03-08T11:49:49.000Z</time>
      </trkpt>
      <trkpt lat="47.48695" lon="6.7716">
        <ele>311</ele>
        <time>2015-03-08T11:49:50.000Z</time>
      </trkpt>
      <trkpt lat="47.487" lon="6.77163">
        <ele>311</ele>
        <time>2015-03-08T11:49:51.000Z</time>
      </trkpt>
      <trkpt lat="47.48703" lon="6.77167">
        <ele>311</ele>
        <time>2015-03-08T11:49:52.000Z</time>
      </trkpt>
      <trkpt lat="47.48707" lon="6.77169">
        <ele>311</ele>
        <time>2015-03-08T11:49:53.000Z</time>
      </trkpt>
      <trkpt lat="47.48712" lon="6.77172">
        <ele>311</ele>
        <time>2015-03-08T11:49:54.000Z</time>
      </trkpt>
      <trkpt lat="47.48716" lon="6.77177">
        <ele>310</ele>
        <time>2015-03-08T11:49:55.000Z</time>
      </trkpt>
      <trkpt lat="47.4872" lon="6.77183">
        <ele>310</ele>
        <time>2015-03-08T11:49:56.000Z</time>
      </trkpt>
      <trkpt lat="47.48723" lon="6.77186">
        <ele>310</ele>
        <time>2015-03-08T11:49:57.000Z</time>
      </trkpt>
      <trkpt lat="47.48727" lon="6.77189">
        <ele>310</ele>
        <time>2015-03-08T11:49:58.000Z</time>
      </trkpt>
      <trkpt lat="47.48731" lon="6.77194">
        <ele>310</ele>
        <time>2015-03-08T11:49:59.000Z</time>
      </trkpt>
      <trkpt lat="47.48736" lon="6.77196">
        <ele>310</ele>
        <time>2015-03-08T11:50:00.000Z</time>
      </trkpt>
      <trkpt lat="47.4874" lon="6.77199">
        <ele>310</ele>
        <time>2015-03-08T11:50:01.000Z</time>
      </trkpt>
      <trkpt lat="47.48744" lon="6.77202">
        <ele>310</ele>
        <time>2015-03-08T11:50:02.000Z</time>
      </trkpt>
      <trkpt lat="47.48748" lon="6.77205">
        <ele>310</ele>
        <time>2015-03-08T11:50:03.000Z</time>
      </trkpt>
      <trkpt lat="47.48752" lon="6.77208">
        <ele>310</ele>
        <time>2015-03-08T11:50:04.000Z</time>
      </trkpt>
      <trkpt lat="47.48758" lon="6.7721">
        <ele>310</ele>
        <time>2015-03-08T11:50:05.000Z</time>
      </trkpt>
      <trkpt lat="47.48762" lon="6.77214">
        <ele>310</ele>
        <time>2015-03-08T11:50:06.000Z</time>
      </trkpt>
      <trkpt lat="47.48766" lon="6.7722">
        <ele>310</ele>
        <time>2015-03-08T11:50:07.000Z</time>
      </trkpt>
      <trkpt lat="47.48771" lon="6.77223">
        <ele>310</ele>
        <time>2015-03-08T11:50:08.000Z</time>
      </trkpt>
      <trkpt lat="47.48775" lon="6.77228">
        <ele>310</ele>
        <time>2015-03-08T11:50:09.000Z</time>
      </trkpt>
      <trkpt lat="47.48778" lon="6.77232">
        <ele>310</ele>
        <time>2015-03-08T11:50:10.000Z</time>
      </trkpt>
      <trkpt lat="47.48783" lon="6.77237">
        <ele>310</ele>
        <time>2015-03-08T11:50:11.000Z</time>
      </trkpt>
      <trkpt lat="47.48788" lon="6.7724">
        <ele>310</ele>
        <time>2015-03-08T11:50:12.000Z</time>
      </trkpt>
      <trkpt lat="47.48793" lon="6.77238">
        <ele>310</ele>
        <time>2015-03-08T11:50:13.000Z</time>
      </trkpt>
      <trkpt lat="47.48797" lon="6.77239">
        <ele>310</ele>
        <time>2015-03-08T11:50:14.000Z</time>
      </trkpt>
      <trkpt lat="47.48801" lon="6.7724">
        <ele>310</ele>
        <time>2015-03-08T11:50:15.000Z</time>
      </trkpt>
      <trkpt lat="47.48803" lon="6.7724">
        <ele>311</ele>
        <time>2015-03-08T11:50:16.000Z</time>
      </trkpt>
      <trkpt lat="47.48809" lon="6.77242">
        <ele>311</ele>
        <time>2015-03-08T11:50:17.000Z</time>
      </trkpt>
      <trkpt lat="47.48815" lon="6.77244">
        <ele>311</ele>
        <time>2015-03-08T11:50:18.000Z</time>
      </trkpt>
      <trkpt lat="47.48821" lon="6.77247">
        <ele>311</ele>
        <time>2015-03-08T11:50:19.000Z</time>
      </trkpt>
      <trkpt lat="47.48827" lon="6.77253">
        <ele>311</ele>
        <time>2015-03-08T11:50:20.000Z</time>
      </trkpt>
      <trkpt lat="47.48829" lon="6.77257">
        <ele>311</ele>
        <time>2015-03-08T11:50:21.000Z</time>
      </trkpt>
      <trkpt lat="47.48831" lon="6.77259">
        <ele>311</ele>
        <time>2015-03-08T11:50:22.000Z</time>
      </trkpt>
      <trkpt lat="47.48836" lon="6.77263">
        <ele>311</ele>
        <time>2015-03-08T11:50:23.000Z</time>
      </trkpt>
      <trkpt lat="47.4884" lon="6.77266">
        <ele>310</ele>
        <time>2015-03-08T11:50:24.000Z</time>
      </trkpt>
      <trkpt lat="47.48845" lon="6.7727">
        <ele>310</ele>
        <time>2015-03-08T11:50:25.000Z</time>
      </trkpt>
      <trkpt lat="47.4885" lon="6.77274">
        <ele>310</ele>
        <time>2015-03-08T11:50:26.000Z</time>
      </trkpt>
      <trkpt lat="47.48855" lon="6.77278">
        <ele>310</ele>
        <time>2015-03-08T11:50:27.000Z</time>
      </trkpt>
      <trkpt lat="47.48861" lon="6.7728">
        <ele>310</ele>
        <time>2015-03-08T11:50:28.000Z</time>
      </trkpt>
      <trkpt lat="47.48866" lon="6.77281">
        <ele>310</ele>
        <time>2015-03-08T11:50:29.000Z</time>
      </trkpt>
      <trkpt lat="47.48871" lon="6.77284">
        <ele>310</ele>
        <time>2015-03-08T11:50:30.000Z</time>
      </trkpt>
      <trkpt lat="47.48875" lon="6.77281">
        <ele>310</ele>
        <time>2015-03-08T11:50:31.000Z</time>
      </trkpt>
      <trkpt lat="47.48881" lon="6.77282">
        <ele>310</ele>
        <time>2015-03-08T11:50:32.000Z</time>
      </trkpt>
      <trkpt lat="47.48885" lon="6.77284">
        <ele>310</ele>
        <time>2015-03-08T11:50:33.000Z</time>
      </trkpt>
      <trkpt lat="47.48891" lon="6.77286">
        <ele>310</ele>
        <time>2015-03-08T11:50:34.000Z</time>
      </trkpt>
      <trkpt lat="47.48895" lon="6.7729">
        <ele>310</ele>
        <time>2015-03-08T11:50:35.000Z</time>
      </trkpt>
      <trkpt lat="47.48901" lon="6.77293">
        <ele>310</ele>
        <time>2015-03-08T11:50:36.000Z</time>
      </trkpt>
      <trkpt lat="47.48904" lon="6.77295">
        <ele>310</ele>
        <time>2015-03-08T11:50:37.000Z</time>
      </trkpt>
      <trkpt lat="47.48909" lon="6.77297">
        <ele>310</ele>
        <time>2015-03-08T11:50:38.000Z</time>
      </trkpt>
      <trkpt lat="47.48912" lon="6.77298">
        <ele>310</ele>
        <time>2015-03-08T11:50:39.000Z</time>
      </trkpt>
      <trkpt lat="47.48917" lon="6.77302">
        <ele>311</ele>
        <time>2015-03-08T11:50:40.000Z</time>
      </trkpt>
      <trkpt lat="47.48923" lon="6.77305">
        <ele>311</ele>
        <time>2015-03-08T11:50:41.000Z</time>
      </trkpt>
      <trkpt lat="47.48927" lon="6.77308">
        <ele>311</ele>
        <time>2015-03-08T11:50:42.000Z</time>
      </trkpt>
      <trkpt lat="47.48931" lon="6.77311">
        <ele>311</ele>
        <time>2015-03-08T11:50:43.000Z</time>
      </trkpt>
      <trkpt lat="47.48937" lon="6.77312">
        <ele>311</ele>
        <time>2015-03-08T11:50:44.000Z</time>
      </trkpt>
      <trkpt lat="47.48943" lon="6.77314">
        <ele>311</ele>
        <time>2015-03-08T11:50:45.000Z</time>
      </trkpt>
      <trkpt lat="47.48948" lon="6.77317">
        <ele>311</ele>
        <time>2015-03-08T11:50:46.000Z</time>
      </trkpt>
      <trkpt lat="47.48953" lon="6.77318">
        <ele>311</ele>
        <time>2015-03-08T11:50:47.000Z</time>
      </trkpt>
      <trkpt lat="47.48958" lon="6.7732">
        <ele>311</ele>
        <time>2015-03-08T11:50:48.000Z</time>
      </trkpt>
      <trkpt lat="47.48963" lon="6.77321">
        <ele>311</ele>
        <time>2015-03-08T11:50:49.000Z</time>
      </trkpt>
      <trkpt lat="47.48967" lon="6.77323">
        <ele>311</ele>
        <time>2015-03-08T11:50:50.000Z</time>
      </trkpt>
      <trkpt lat="47.48971" lon="6.77324">
        <ele>311</ele>
        <time>2015-03-08T11:50:51.000Z</time>
      </trkpt>
      <trkpt lat="47.48975" lon="6.77324">
        <ele>311</ele>
        <time>2015-03-08T11:50:52.000Z</time>
      </trkpt>
      <trkpt lat="47.4898" lon="6.77323">
        <ele>311</ele>
        <time>2015-03-08T11:50:53.000Z</time>
      </trkpt>
      <trkpt lat="47.48986" lon="6.77323">
        <ele>311</ele>
        <time>2015-03-08T11:50:54.000Z</time>
      </trkpt>
      <trkpt lat="47.48992" lon="6.77322">
        <ele>311</ele>
        <time>2015-03-08T11:50:55.000Z</time>
      </trkpt>
      <trkpt lat="47.48997" lon="6.77323">
        <ele>311</ele>
        <time>2015-03-08T11:50:56.000Z</time>
      </trkpt>
      <trkpt lat="47.49001" lon="6.7732">
        <ele>311</ele>
        <time>2015-03-08T11:50:57.000Z</time>
      </trkpt>
      <trkpt lat="47.49006" lon="6.77321">
        <ele>311</ele>
        <time>2015-03-08T11:50:58.000Z</time>
      </trkpt>
      <trkpt lat="47.4901" lon="6.77323">
        <ele>311</ele>
        <time>2015-03-08T11:50:59.000Z</time>
      </trkpt>
      <trkpt lat="47.49016" lon="6.77324">
        <ele>311</ele>
        <time>2015-03-08T11:51:00.000Z</time>
      </trkpt>
      <trkpt lat="47.4902" lon="6.77325">
        <ele>311</ele>
        <time>2015-03-08T11:51:01.000Z</time>
      </trkpt>
      <trkpt lat="47.49024" lon="6.77326">
        <ele>311</ele>
        <time>2015-03-08T11:51:02.000Z</time>
      </trkpt>
      <trkpt lat="47.4903" lon="6.77326">
        <ele>311</ele>
        <time>2015-03-08T11:51:03.000Z</time>
      </trkpt>
      <trkpt lat="47.49035" lon="6.77326">
        <ele>311</ele>
        <time>2015-03-08T11:51:04.000Z</time>
      </trkpt>
      <trkpt lat="47.49041" lon="6.77327">
        <ele>311</ele>
        <time>2015-03-08T11:51:05.000Z</time>
      </trkpt>
      <trkpt lat="47.49044" lon="6.77328">
        <ele>311</ele>
        <time>2015-03-08T11:51:06.000Z</time>
      </trkpt>
      <trkpt lat="47.49049" lon="6.77328">
        <ele>311</ele>
        <time>2015-03-08T11:51:07.000Z</time>
      </trkpt>
      <trkpt lat="47.49053" lon="6.77329">
        <ele>311</ele>
        <time>2015-03-08T11:51:08.000Z</time>
      </trkpt>
      <trkpt lat="47.49058" lon="6.7733">
        <ele>311</ele>
        <time>2015-03-08T11:51:09.000Z</time>
      </trkpt>
      <trkpt lat="47.49064" lon="6.7733">
        <ele>311</ele>
        <time>2015-03-08T11:51:10.000Z</time>
      </trkpt>
      <trkpt lat="47.49068" lon="6.77329">
        <ele>311</ele>
        <time>2015-03-08T11:51:11.000Z</time>
      </trkpt>
      <trkpt lat="47.49072" lon="6.77328">
        <ele>311</ele>
        <time>2015-03-08T11:51:12.000Z</time>
      </trkpt>
      <trkpt lat="47.49079" lon="6.77328">
        <ele>311</ele>
        <time>2015-03-08T11:51:13.000Z</time>
      </trkpt>
      <trkpt lat="47.49084" lon="6.77333">
        <ele>311</ele>
        <time>2015-03-08T11:51:14.000Z</time>
      </trkpt>
      <trkpt lat="47.49088" lon="6.77333">
        <ele>311</ele>
        <time>2015-03-08T11:51:15.000Z</time>
      </trkpt>
      <trkpt lat="47.49092" lon="6.77333">
        <ele>311</ele>
        <time>2015-03-08T11:51:16.000Z</time>
      </trkpt>
      <trkpt lat="47.49096" lon="6.77333">
        <ele>311</ele>
        <time>2015-03-08T11:51:17.000Z</time>
      </trkpt>
      <trkpt lat="47.49102" lon="6.77335">
        <ele>310</ele>
        <time>2015-03-08T11:51:18.000Z</time>
      </trkpt>
      <trkpt lat="47.49106" lon="6.77338">
        <ele>310</ele>
        <time>2015-03-08T11:51:19.000Z</time>
      </trkpt>
      <trkpt lat="47.4911" lon="6.77338">
        <ele>310</ele>
        <time>2015-03-08T11:51:20.000Z</time>
      </trkpt>
      <trkpt lat="47.49116" lon="6.77338">
        <ele>310</ele>
        <time>2015-03-08T11:51:21.000Z</time>
      </trkpt>
      <trkpt lat="47.4912" lon="6.77337">
        <ele>310</ele>
        <time>2015-03-08T11:51:22.000Z</time>
      </trkpt>
      <trkpt lat="47.49125" lon="6.77337">
        <ele>310</ele>
        <time>2015-03-08T11:51:23.000Z</time>
      </trkpt>
      <trkpt lat="47.4913" lon="6.77335">
        <ele>310</ele>
        <time>2015-03-08T11:51:24.000Z</time>
      </trkpt>
      <trkpt lat="47.49134" lon="6.77335">
        <ele>310</ele>
        <time>2015-03-08T11:51:25.000Z</time>
      </trkpt>
      <trkpt lat="47.49139" lon="6.77336">
        <ele>310</ele>
        <time>2015-03-08T11:51:26.000Z</time>
      </trkpt>
      <trkpt lat="47.49143" lon="6.77333">
        <ele>311</ele>
        <time>2015-03-08T11:51:27.000Z</time>
      </trkpt>
      <trkpt lat="47.49147" lon="6.77333">
        <ele>311</ele>
        <time>2015-03-08T11:51:29.000Z</time>
      </trkpt>
      <trkpt lat="47.49148" lon="6.77333">
        <ele>311</ele>
        <time>2015-03-08T11:51:30.000Z</time>
      </trkpt>
      <trkpt lat="47.4915" lon="6.77334">
        <ele>310</ele>
        <time>2015-03-08T11:51:31.000Z</time>
      </trkpt>
      <trkpt lat="47.49153" lon="6.77336">
        <ele>310</ele>
        <time>2015-03-08T11:51:32.000Z</time>
      </trkpt>
      <trkpt lat="47.49156" lon="6.77335">
        <ele>310</ele>
        <time>2015-03-08T11:51:33.000Z</time>
      </trkpt>
      <trkpt lat="47.4916" lon="6.77336">
        <ele>310</ele>
        <time>2015-03-08T11:51:34.000Z</time>
      </trkpt>
      <trkpt lat="47.49163" lon="6.77336">
        <ele>310</ele>
        <time>2015-03-08T11:51:35.000Z</time>
      </trkpt>
      <trkpt lat="47.49166" lon="6.77337">
        <ele>310</ele>
        <time>2015-03-08T11:51:36.000Z</time>
      </trkpt>
      <trkpt lat="47.49168" lon="6.77337">
        <ele>310</ele>
        <time>2015-03-08T11:51:37.000Z</time>
      </trkpt>
      <trkpt lat="47.49171" lon="6.77338">
        <ele>310</ele>
        <time>2015-03-08T11:51:38.000Z</time>
      </trkpt>
      <trkpt lat="47.49175" lon="6.77338">
        <ele>310</ele>
        <time>2015-03-08T11:51:40.000Z</time>
      </trkpt>
      <trkpt lat="47.49177" lon="6.77339">
        <ele>310</ele>
        <time>2015-03-08T11:51:41.000Z</time>
      </trkpt>
      <trkpt lat="47.4918" lon="6.77334">
        <ele>310</ele>
        <time>2015-03-08T11:52:35.000Z</time>
      </trkpt>
      <trkpt lat="47.49181" lon="6.77334">
        <ele>310</ele>
        <time>2015-03-08T11:52:36.000Z</time>
      </trkpt>
      <trkpt lat="47.49185" lon="6.77334">
        <ele>310</ele>
        <time>2015-03-08T11:52:39.000Z</time>
      </trkpt>
      <trkpt lat="47.49186" lon="6.77334">
        <ele>310</ele>
        <time>2015-03-08T11:52:40.000Z</time>
      </trkpt>
      <trkpt lat="47.4919" lon="6.77334">
        <ele>309</ele>
        <time>2015-03-08T11:52:43.000Z</time>
      </trkpt>
      <trkpt lat="47.49192" lon="6.77333">
        <ele>310</ele>
        <time>2015-03-08T11:52:44.000Z</time>
      </trkpt>
      <trkpt lat="47.49195" lon="6.77333">
        <ele>310</ele>
        <time>2015-03-08T11:52:45.000Z</time>
      </trkpt>
      <trkpt lat="47.49198" lon="6.77333">
        <ele>310</ele>
        <time>2015-03-08T11:52:46.000Z</time>
      </trkpt>
      <trkpt lat="47.49202" lon="6.77333">
        <ele>310</ele>
        <time>2015-03-08T11:52:47.000Z</time>
      </trkpt>
      <trkpt lat="47.49206" lon="6.77333">
        <ele>310</ele>
        <time>2015-03-08T11:52:48.000Z</time>
      </trkpt>
      <trkpt lat="47.4921" lon="6.77334">
        <ele>309</ele>
        <time>2015-03-08T11:52:49.000Z</time>
      </trkpt>
      <trkpt lat="47.49214" lon="6.77335">
        <ele>309</ele>
        <time>2015-03-08T11:52:50.000Z</time>
      </trkpt>
      <trkpt lat="47.49219" lon="6.77335">
        <ele>309</ele>
        <time>2015-03-08T11:52:51.000Z</time>
      </trkpt>
      <trkpt lat="47.49223" lon="6.77336">
        <ele>309</ele>
        <time>2015-03-08T11:52:52.000Z</time>
      </trkpt>
      <trkpt lat="47.49228" lon="6.77337">
        <ele>309</ele>
        <time>2015-03-08T11:52:53.000Z</time>
      </trkpt>
      <trkpt lat="47.49234" lon="6.77337">
        <ele>310</ele>
        <time>2015-03-08T11:52:54.000Z</time>
      </trkpt>
      <trkpt lat="47.4924" lon="6.77337">
        <ele>310</ele>
        <time>2015-03-08T11:52:55.000Z</time>
      </trkpt>
      <trkpt lat="47.49245" lon="6.77336">
        <ele>310</ele>
        <time>2015-03-08T11:52:56.000Z</time>
      </trkpt>
      <trkpt lat="47.49249" lon="6.77335">
        <ele>310</ele>
        <time>2015-03-08T11:52:57.000Z</time>
      </trkpt>
      <trkpt lat="47.49253" lon="6.77332">
        <ele>310</ele>
        <time>2015-03-08T11:52:58.000Z</time>
      </trkpt>
      <trkpt lat="47.49257" lon="6.7733">
        <ele>310</ele>
        <time>2015-03-08T11:52:59.000Z</time>
      </trkpt>
      <trkpt lat="47.49261" lon="6.77328">
        <ele>310</ele>
        <time>2015-03-08T11:53:00.000Z</time>
      </trkpt>
      <trkpt lat="47.49272" lon="6.77325">
        <ele>310</ele>
        <time>2015-03-08T11:53:02.000Z</time>
      </trkpt>
      <trkpt lat="47.49279" lon="6.77326">
        <ele>310</ele>
        <time>2015-03-08T11:53:03.000Z</time>
      </trkpt>
      <trkpt lat="47.49286" lon="6.77325">
        <ele>310</ele>
        <time>2015-03-08T11:53:04.000Z</time>
      </trkpt>
      <trkpt lat="47.49292" lon="6.77323">
        <ele>311</ele>
        <time>2015-03-08T11:53:04.999Z</time>
      </trkpt>
      <trkpt lat="47.49301" lon="6.77326">
        <ele>310</ele>
        <time>2015-03-08T11:53:06.000Z</time>
      </trkpt>
      <trkpt lat="47.49307" lon="6.77327">
        <ele>310</ele>
        <time>2015-03-08T11:53:07.000Z</time>
      </trkpt>
      <trkpt lat="47.49313" lon="6.77329">
        <ele>310</ele>
        <time>2015-03-08T11:53:08.000Z</time>
      </trkpt>
      <trkpt lat="47.49317" lon="6.77331">
        <ele>310</ele>
        <time>2015-03-08T11:53:09.000Z</time>
      </trkpt>
      <trkpt lat="47.49323" lon="6.77332">
        <ele>310</ele>
        <time>2015-03-08T11:53:10.000Z</time>
      </trkpt>
      <trkpt lat="47.49328" lon="6.77336">
        <ele>310</ele>
        <time>2015-03-08T11:53:11.000Z</time>
      </trkpt>
      <trkpt lat="47.49332" lon="6.77338">
        <ele>310</ele>
        <time>2015-03-08T11:53:12.000Z</time>
      </trkpt>
      <trkpt lat="47.49335" lon="6.7734">
        <ele>310</ele>
        <time>2015-03-08T11:53:13.000Z</time>
      </trkpt>
      <trkpt lat="47.49339" lon="6.77344">
        <ele>310</ele>
        <time>2015-03-08T11:53:14.000Z</time>
      </trkpt>
      <trkpt lat="47.49342" lon="6.77346">
        <ele>310</ele>
        <time>2015-03-08T11:53:15.000Z</time>
      </trkpt>
      <trkpt lat="47.49346" lon="6.77346">
        <ele>310</ele>
        <time>2015-03-08T11:53:16.000Z</time>
      </trkpt>
      <trkpt lat="47.49351" lon="6.77345">
        <ele>310</ele>
        <time>2015-03-08T11:53:17.000Z</time>
      </trkpt>
      <trkpt lat="47.49356" lon="6.77346">
        <ele>310</ele>
        <time>2015-03-08T11:53:18.000Z</time>
      </trkpt>
      <trkpt lat="47.4936" lon="6.77346">
        <ele>310</ele>
        <time>2015-03-08T11:53:19.000Z</time>
      </trkpt>
      <trkpt lat="47.49364" lon="6.77346">
        <ele>310</ele>
        <time>2015-03-08T11:53:20.000Z</time>
      </trkpt>
      <trkpt lat="47.49368" lon="6.77347">
        <ele>310</ele>
        <time>2015-03-08T11:53:21.000Z</time>
      </trkpt>
      <trkpt lat="47.49373" lon="6.77348">
        <ele>310</ele>
        <time>2015-03-08T11:53:22.000Z</time>
      </trkpt>
      <trkpt lat="47.49377" lon="6.7735">
        <ele>310</ele>
        <time>2015-03-08T11:53:23.000Z</time>
      </trkpt>
      <trkpt lat="47.49382" lon="6.77349">
        <ele>310</ele>
        <time>2015-03-08T11:53:24.000Z</time>
      </trkpt>
      <trkpt lat="47.49387" lon="6.7735">
        <ele>310</ele>
        <time>2015-03-08T11:53:25.000Z</time>
      </trkpt>
      <trkpt lat="47.49392" lon="6.7735">
        <ele>310</ele>
        <time>2015-03-08T11:53:26.000Z</time>
      </trkpt>
      <trkpt lat="47.49396" lon="6.77352">
        <ele>310</ele>
        <time>2015-03-08T11:53:27.000Z</time>
      </trkpt>
      <trkpt lat="47.49402" lon="6.77352">
        <ele>310</ele>
        <time>2015-03-08T11:53:28.000Z</time>
      </trkpt>
      <trkpt lat="47.49407" lon="6.77352">
        <ele>310</ele>
        <time>2015-03-08T11:53:29.000Z</time>
      </trkpt>
      <trkpt lat="47.49411" lon="6.77352">
        <ele>311</ele>
        <time>2015-03-08T11:53:30.000Z</time>
      </trkpt>
      <trkpt lat="47.49416" lon="6.77352">
        <ele>311</ele>
        <time>2015-03-08T11:53:31.000Z</time>
      </trkpt>
      <trkpt lat="47.49421" lon="6.77352">
        <ele>311</ele>
        <time>2015-03-08T11:53:32.000Z</time>
      </trkpt>
      <trkpt lat="47.49425" lon="6.77352">
        <ele>311</ele>
        <time>2015-03-08T11:53:33.000Z</time>
      </trkpt>
      <trkpt lat="47.4943" lon="6.77354">
        <ele>311</ele>
        <time>2015-03-08T11:53:34.000Z</time>
      </trkpt>
      <trkpt lat="47.49435" lon="6.77355">
        <ele>311</ele>
        <time>2015-03-08T11:53:35.000Z</time>
      </trkpt>
      <trkpt lat="47.49439" lon="6.77355">
        <ele>311</ele>
        <time>2015-03-08T11:53:36.000Z</time>
      </trkpt>
      <trkpt lat="47.49444" lon="6.77355">
        <ele>311</ele>
        <time>2015-03-08T11:53:37.000Z</time>
      </trkpt>
      <trkpt lat="47.49448" lon="6.77355">
        <ele>311</ele>
        <time>2015-03-08T11:53:38.000Z</time>
      </trkpt>
      <trkpt lat="47.49453" lon="6.77356">
        <ele>311</ele>
        <time>2015-03-08T11:53:39.000Z</time>
      </trkpt>
      <trkpt lat="47.49457" lon="6.77357">
        <ele>311</ele>
        <time>2015-03-08T11:53:40.000Z</time>
      </trkpt>
      <trkpt lat="47.49461" lon="6.77356">
        <ele>311</ele>
        <time>2015-03-08T11:53:41.000Z</time>
      </trkpt>
      <trkpt lat="47.49465" lon="6.77356">
        <ele>311</ele>
        <time>2015-03-08T11:53:42.000Z</time>
      </trkpt>
      <trkpt lat="47.4947" lon="6.77356">
        <ele>311</ele>
        <time>2015-03-08T11:53:43.000Z</time>
      </trkpt>
      <trkpt lat="47.49474" lon="6.77356">
        <ele>311</ele>
        <time>2015-03-08T11:53:44.000Z</time>
      </trkpt>
      <trkpt lat="47.49478" lon="6.77356">
        <ele>311</ele>
        <time>2015-03-08T11:53:45.000Z</time>
      </trkpt>
      <trkpt lat="47.49483" lon="6.77355">
        <ele>311</ele>
        <time>2015-03-08T11:53:46.000Z</time>
      </trkpt>
      <trkpt lat="47.49487" lon="6.77356">
        <ele>311</ele>
        <time>2015-03-08T11:53:47.000Z</time>
      </trkpt>
      <trkpt lat="47.49492" lon="6.77356">
        <ele>312</ele>
        <time>2015-03-08T11:53:48.000Z</time>
      </trkpt>
      <trkpt lat="47.49497" lon="6.77357">
        <ele>312</ele>
        <time>2015-03-08T11:53:49.000Z</time>
      </trkpt>
      <trkpt lat="47.495" lon="6.77357">
        <ele>312</ele>
        <time>2015-03-08T11:53:50.000Z</time>
      </trkpt>
      <trkpt lat="47.49504" lon="6.77357">
        <ele>312</ele>
        <time>2015-03-08T11:53:51.000Z</time>
      </trkpt>
      <trkpt lat="47.49508" lon="6.77357">
        <ele>312</ele>
        <time>2015-03-08T11:53:52.000Z</time>
      </trkpt>
      <trkpt lat="47.49513" lon="6.77357">
        <ele>312</ele>
        <time>2015-03-08T11:53:53.000Z</time>
      </trkpt>
      <trkpt lat="47.49517" lon="6.77357">
        <ele>312</ele>
        <time>2015-03-08T11:53:54.000Z</time>
      </trkpt>
      <trkpt lat="47.49521" lon="6.77358">
        <ele>312</ele>
        <time>2015-03-08T11:53:55.000Z</time>
      </trkpt>
      <trkpt lat="47.49526" lon="6.77359">
        <ele>312</ele>
        <time>2015-03-08T11:53:56.000Z</time>
      </trkpt>
      <trkpt lat="47.49531" lon="6.77359">
        <ele>312</ele>
        <time>2015-03-08T11:53:57.000Z</time>
      </trkpt>
      <trkpt lat="47.49535" lon="6.77359">
        <ele>312</ele>
        <time>2015-03-08T11:53:58.000Z</time>
      </trkpt>
      <trkpt lat="47.49539" lon="6.7736">
        <ele>312</ele>
        <time>2015-03-08T11:53:59.000Z</time>
      </trkpt>
      <trkpt lat="47.49544" lon="6.7736">
        <ele>312</ele>
        <time>2015-03-08T11:54:00.000Z</time>
      </trkpt>
      <trkpt lat="47.49548" lon="6.77361">
        <ele>312</ele>
        <time>2015-03-08T11:54:01.000Z</time>
      </trkpt>
      <trkpt lat="47.49552" lon="6.77361">
        <ele>312</ele>
        <time>2015-03-08T11:54:02.000Z</time>
      </trkpt>
      <trkpt lat="47.49557" lon="6.77362">
        <ele>312</ele>
        <time>2015-03-08T11:54:03.000Z</time>
      </trkpt>
      <trkpt lat="47.49561" lon="6.77361">
        <ele>312</ele>
        <time>2015-03-08T11:54:04.000Z</time>
      </trkpt>
      <trkpt lat="47.49565" lon="6.77363">
        <ele>312</ele>
        <time>2015-03-08T11:54:05.000Z</time>
      </trkpt>
      <trkpt lat="47.49569" lon="6.77363">
        <ele>313</ele>
        <time>2015-03-08T11:54:06.000Z</time>
      </trkpt>
      <trkpt lat="47.49573" lon="6.77363">
        <ele>313</ele>
        <time>2015-03-08T11:54:07.000Z</time>
      </trkpt>
      <trkpt lat="47.49578" lon="6.77363">
        <ele>313</ele>
        <time>2015-03-08T11:54:08.000Z</time>
      </trkpt>
      <trkpt lat="47.49583" lon="6.77363">
        <ele>313</ele>
        <time>2015-03-08T11:54:09.000Z</time>
      </trkpt>
      <trkpt lat="47.49588" lon="6.77362">
        <ele>313</ele>
        <time>2015-03-08T11:54:10.000Z</time>
      </trkpt>
      <trkpt lat="47.49592" lon="6.77361">
        <ele>313</ele>
        <time>2015-03-08T11:54:11.000Z</time>
      </trkpt>
      <trkpt lat="47.49597" lon="6.7736">
        <ele>313</ele>
        <time>2015-03-08T11:54:12.000Z</time>
      </trkpt>
      <trkpt lat="47.49602" lon="6.77359">
        <ele>313</ele>
        <time>2015-03-08T11:54:13.000Z</time>
      </trkpt>
      <trkpt lat="47.49607" lon="6.77359">
        <ele>313</ele>
        <time>2015-03-08T11:54:14.000Z</time>
      </trkpt>
      <trkpt lat="47.49611" lon="6.77358">
        <ele>313</ele>
        <time>2015-03-08T11:54:15.000Z</time>
      </trkpt>
      <trkpt lat="47.49615" lon="6.77358">
        <ele>313</ele>
        <time>2015-03-08T11:54:16.000Z</time>
      </trkpt>
      <trkpt lat="47.4962" lon="6.77355">
        <ele>313</ele>
        <time>2015-03-08T11:54:17.000Z</time>
      </trkpt>
      <trkpt lat="47.49625" lon="6.77357">
        <ele>313</ele>
        <time>2015-03-08T11:54:18.000Z</time>
      </trkpt>
      <trkpt lat="47.4963" lon="6.77356">
        <ele>313</ele>
        <time>2015-03-08T11:54:19.000Z</time>
      </trkpt>
      <trkpt lat="47.49635" lon="6.77354">
        <ele>313</ele>
        <time>2015-03-08T11:54:20.000Z</time>
      </trkpt>
      <trkpt lat="47.49638" lon="6.77352">
        <ele>313</ele>
        <time>2015-03-08T11:54:21.000Z</time>
      </trkpt>
      <trkpt lat="47.49643" lon="6.77351">
        <ele>313</ele>
        <time>2015-03-08T11:54:22.000Z</time>
      </trkpt>
      <trkpt lat="47.49647" lon="6.77349">
        <ele>313</ele>
        <time>2015-03-08T11:54:23.000Z</time>
      </trkpt>
      <trkpt lat="47.49651" lon="6.77348">
        <ele>313</ele>
        <time>2015-03-08T11:54:24.000Z</time>
      </trkpt>
      <trkpt lat="47.49655" lon="6.77346">
        <ele>313</ele>
        <time>2015-03-08T11:54:25.000Z</time>
      </trkpt>
      <trkpt lat="47.4966" lon="6.77345">
        <ele>313</ele>
        <time>2015-03-08T11:54:26.000Z</time>
      </trkpt>
      <trkpt lat="47.49663" lon="6.77344">
        <ele>313</ele>
        <time>2015-03-08T11:54:27.000Z</time>
      </trkpt>
      <trkpt lat="47.49666" lon="6.77343">
        <ele>314</ele>
        <time>2015-03-08T11:54:28.000Z</time>
      </trkpt>
      <trkpt lat="47.4967" lon="6.77341">
        <ele>313</ele>
        <time>2015-03-08T11:54:29.000Z</time>
      </trkpt>
      <trkpt lat="47.49674" lon="6.7734">
        <ele>313</ele>
        <time>2015-03-08T11:54:30.000Z</time>
      </trkpt>
      <trkpt lat="47.49678" lon="6.77339">
        <ele>313</ele>
        <time>2015-03-08T11:54:31.000Z</time>
      </trkpt>
      <trkpt lat="47.49682" lon="6.77339">
        <ele>313</ele>
        <time>2015-03-08T11:54:32.000Z</time>
      </trkpt>
      <trkpt lat="47.49686" lon="6.77337">
        <ele>313</ele>
        <time>2015-03-08T11:54:33.000Z</time>
      </trkpt>
      <trkpt lat="47.4969" lon="6.77336">
        <ele>313</ele>
        <time>2015-03-08T11:54:34.000Z</time>
      </trkpt>
      <trkpt lat="47.49694" lon="6.77336">
        <ele>313</ele>
        <time>2015-03-08T11:54:35.000Z</time>
      </trkpt>
      <trkpt lat="47.49698" lon="6.77335">
        <ele>313</ele>
        <time>2015-03-08T11:54:36.000Z</time>
      </trkpt>
      <trkpt lat="47.49702" lon="6.77336">
        <ele>313</ele>
        <time>2015-03-08T11:54:37.000Z</time>
      </trkpt>
      <trkpt lat="47.49706" lon="6.77333">
        <ele>315</ele>
        <time>2015-03-08T11:54:38.000Z</time>
      </trkpt>
      <trkpt lat="47.49711" lon="6.77333">
        <ele>315</ele>
        <time>2015-03-08T11:54:39.000Z</time>
      </trkpt>
      <trkpt lat="47.49712" lon="6.7733">
        <ele>315</ele>
        <time>2015-03-08T11:54:40.000Z</time>
      </trkpt>
      <trkpt lat="47.49715" lon="6.77331">
        <ele>315</ele>
        <time>2015-03-08T11:54:41.000Z</time>
      </trkpt>
      <trkpt lat="47.49719" lon="6.7733">
        <ele>314</ele>
        <time>2015-03-08T11:54:42.000Z</time>
      </trkpt>
      <trkpt lat="47.49722" lon="6.7733">
        <ele>314</ele>
        <time>2015-03-08T11:54:43.000Z</time>
      </trkpt>
      <trkpt lat="47.49725" lon="6.77329">
        <ele>314</ele>
        <time>2015-03-08T11:54:44.000Z</time>
      </trkpt>
      <trkpt lat="47.49727" lon="6.77328">
        <ele>314</ele>
        <time>2015-03-08T11:54:45.000Z</time>
      </trkpt>
      <trkpt lat="47.4973" lon="6.77326">
        <ele>314</ele>
        <time>2015-03-08T11:54:46.000Z</time>
      </trkpt>
      <trkpt lat="47.49733" lon="6.77324">
        <ele>314</ele>
        <time>2015-03-08T11:54:47.000Z</time>
      </trkpt>
      <trkpt lat="47.49736" lon="6.77321">
        <ele>314</ele>
        <time>2015-03-08T11:54:48.000Z</time>
      </trkpt>
      <trkpt lat="47.49738" lon="6.77319">
        <ele>314</ele>
        <time>2015-03-08T11:54:49.000Z</time>
      </trkpt>
      <trkpt lat="47.49741" lon="6.77317">
        <ele>314</ele>
        <time>2015-03-08T11:55:35.000Z</time>
      </trkpt>
      <trkpt lat="47.49744" lon="6.77317">
        <ele>314</ele>
        <time>2015-03-08T11:55:36.000Z</time>
      </trkpt>
      <trkpt lat="47.49747" lon="6.77316">
        <ele>314</ele>
        <time>2015-03-08T11:55:37.000Z</time>
      </trkpt>
      <trkpt lat="47.4975" lon="6.77315">
        <ele>315</ele>
        <time>2015-03-08T11:55:38.000Z</time>
      </trkpt>
      <trkpt lat="47.49753" lon="6.77314">
        <ele>315</ele>
        <time>2015-03-08T11:55:39.000Z</time>
      </trkpt>
      <trkpt lat="47.49756" lon="6.77314">
        <ele>315</ele>
        <time>2015-03-08T11:55:40.000Z</time>
      </trkpt>
      <trkpt lat="47.49759" lon="6.77314">
        <ele>316</ele>
        <time>2015-03-08T11:55:41.000Z</time>
      </trkpt>
      <trkpt lat="47.49763" lon="6.77314">
        <ele>316</ele>
        <time>2015-03-08T11:55:42.000Z</time>
      </trkpt>
      <trkpt lat="47.49767" lon="6.77313">
        <ele>316</ele>
        <time>2015-03-08T11:55:43.000Z</time>
      </trkpt>
      <trkpt lat="47.49779" lon="6.77309">
        <ele>317</ele>
        <time>2015-03-08T11:55:44.000Z</time>
      </trkpt>
      <trkpt lat="47.49784" lon="6.77307">
        <ele>317</ele>
        <time>2015-03-08T11:55:45.000Z</time>
      </trkpt>
      <trkpt lat="47.49789" lon="6.77305">
        <ele>317</ele>
        <time>2015-03-08T11:55:46.000Z</time>
      </trkpt>
      <trkpt lat="47.49793" lon="6.77303">
        <ele>317</ele>
        <time>2015-03-08T11:55:47.000Z</time>
      </trkpt>
      <trkpt lat="47.49797" lon="6.77301">
        <ele>317</ele>
        <time>2015-03-08T11:55:48.000Z</time>
      </trkpt>
      <trkpt lat="47.49803" lon="6.77298">
        <ele>318</ele>
        <time>2015-03-08T11:55:49.000Z</time>
      </trkpt>
      <trkpt lat="47.49806" lon="6.77295">
        <ele>318</ele>
        <time>2015-03-08T11:55:50.000Z</time>
      </trkpt>
      <trkpt lat="47.49813" lon="6.77293">
        <ele>318</ele>
        <time>2015-03-08T11:55:51.000Z</time>
      </trkpt>
      <trkpt lat="47.49821" lon="6.77294">
        <ele>318</ele>
        <time>2015-03-08T11:55:52.000Z</time>
      </trkpt>
      <trkpt lat="47.49825" lon="6.77292">
        <ele>318</ele>
        <time>2015-03-08T11:55:53.000Z</time>
      </trkpt>
      <trkpt lat="47.4983" lon="6.7729">
        <ele>319</ele>
        <time>2015-03-08T11:55:54.000Z</time>
      </trkpt>
      <trkpt lat="47.49834" lon="6.7729">
        <ele>320</ele>
        <time>2015-03-08T11:55:55.000Z</time>
      </trkpt>
      <trkpt lat="47.49838" lon="6.77289">
        <ele>320</ele>
        <time>2015-03-08T11:55:56.000Z</time>
      </trkpt>
      <trkpt lat="47.49843" lon="6.77288">
        <ele>320</ele>
        <time>2015-03-08T11:55:57.000Z</time>
      </trkpt>
      <trkpt lat="47.49849" lon="6.77287">
        <ele>320</ele>
        <time>2015-03-08T11:55:58.000Z</time>
      </trkpt>
      <trkpt lat="47.49854" lon="6.77286">
        <ele>320</ele>
        <time>2015-03-08T11:55:59.000Z</time>
      </trkpt>
      <trkpt lat="47.49858" lon="6.77285">
        <ele>320</ele>
        <time>2015-03-08T11:56:00.000Z</time>
      </trkpt>
      <trkpt lat="47.49862" lon="6.77284">
        <ele>320</ele>
        <time>2015-03-08T11:56:01.000Z</time>
      </trkpt>
      <trkpt lat="47.49867" lon="6.77284">
        <ele>320</ele>
        <time>2015-03-08T11:56:02.000Z</time>
      </trkpt>
      <trkpt lat="47.49871" lon="6.77288">
        <ele>319</ele>
        <time>2015-03-08T11:56:03.000Z</time>
      </trkpt>
      <trkpt lat="47.49874" lon="6.77292">
        <ele>319</ele>
        <time>2015-03-08T11:56:04.000Z</time>
      </trkpt>
      <trkpt lat="47.49877" lon="6.77291">
        <ele>319</ele>
        <time>2015-03-08T11:56:05.000Z</time>
      </trkpt>
      <trkpt lat="47.49882" lon="6.77295">
        <ele>319</ele>
        <time>2015-03-08T11:56:06.000Z</time>
      </trkpt>
      <trkpt lat="47.49887" lon="6.77296">
        <ele>318</ele>
        <time>2015-03-08T11:56:07.000Z</time>
      </trkpt>
      <trkpt lat="47.49891" lon="6.77296">
        <ele>318</ele>
        <time>2015-03-08T11:56:08.000Z</time>
      </trkpt>
      <trkpt lat="47.49895" lon="6.77295">
        <ele>318</ele>
        <time>2015-03-08T11:56:09.000Z</time>
      </trkpt>
      <trkpt lat="47.49899" lon="6.77292">
        <ele>319</ele>
        <time>2015-03-08T11:56:10.000Z</time>
      </trkpt>
      <trkpt lat="47.49905" lon="6.77291">
        <ele>319</ele>
        <time>2015-03-08T11:56:11.000Z</time>
      </trkpt>
      <trkpt lat="47.4991" lon="6.77288">
        <ele>319</ele>
        <time>2015-03-08T11:56:12.001Z</time>
      </trkpt>
      <trkpt lat="47.49914" lon="6.77285">
        <ele>319</ele>
        <time>2015-03-08T11:56:13.000Z</time>
      </trkpt>
      <trkpt lat="47.49919" lon="6.77283">
        <ele>318</ele>
        <time>2015-03-08T11:56:14.000Z</time>
      </trkpt>
      <trkpt lat="47.49924" lon="6.77281">
        <ele>318</ele>
        <time>2015-03-08T11:56:15.000Z</time>
      </trkpt>
      <trkpt lat="47.49927" lon="6.77281">
        <ele>318</ele>
        <time>2015-03-08T11:56:16.000Z</time>
      </trkpt>
      <trkpt lat="47.49931" lon="6.77278">
        <ele>318</ele>
        <time>2015-03-08T11:56:17.000Z</time>
      </trkpt>
      <trkpt lat="47.49935" lon="6.77275">
        <ele>318</ele>
        <time>2015-03-08T11:56:18.000Z</time>
      </trkpt>
      <trkpt lat="47.49941" lon="6.77271">
        <ele>318</ele>
        <time>2015-03-08T11:56:19.000Z</time>
      </trkpt>
      <trkpt lat="47.49946" lon="6.77269">
        <ele>318</ele>
        <time>2015-03-08T11:56:20.000Z</time>
      </trkpt>
      <trkpt lat="47.4995" lon="6.77266">
        <ele>318</ele>
        <time>2015-03-08T11:56:21.000Z</time>
      </trkpt>
      <trkpt lat="47.49954" lon="6.77264">
        <ele>317</ele>
        <time>2015-03-08T11:56:22.000Z</time>
      </trkpt>
      <trkpt lat="47.49958" lon="6.77263">
        <ele>317</ele>
        <time>2015-03-08T11:56:23.000Z</time>
      </trkpt>
      <trkpt lat="47.49962" lon="6.77264">
        <ele>317</ele>
        <time>2015-03-08T11:56:24.000Z</time>
      </trkpt>
      <trkpt lat="47.49966" lon="6.77264">
        <ele>317</ele>
        <time>2015-03-08T11:56:25.000Z</time>
      </trkpt>
      <trkpt lat="47.4997" lon="6.77261">
        <ele>317</ele>
        <time>2015-03-08T11:56:26.000Z</time>
      </trkpt>
      <trkpt lat="47.49974" lon="6.7726">
        <ele>316</ele>
        <time>2015-03-08T11:56:27.001Z</time>
      </trkpt>
      <trkpt lat="47.4998" lon="6.77251">
        <ele>316</ele>
        <time>2015-03-08T11:56:28.000Z</time>
      </trkpt>
      <trkpt lat="47.49985" lon="6.7725">
        <ele>324</ele>
        <time>2015-03-08T11:56:29.000Z</time>
      </trkpt>
      <trkpt lat="47.4999" lon="6.77247">
        <ele>322</ele>
        <time>2015-03-08T11:56:30.000Z</time>
      </trkpt>
      <trkpt lat="47.49995" lon="6.77244">
        <ele>321</ele>
        <time>2015-03-08T11:56:31.000Z</time>
      </trkpt>
      <trkpt lat="47.5" lon="6.77241">
        <ele>322</ele>
        <time>2015-03-08T11:56:32.000Z</time>
      </trkpt>
      <trkpt lat="47.50004" lon="6.77239">
        <ele>321</ele>
        <time>2015-03-08T11:56:33.000Z</time>
      </trkpt>
      <trkpt lat="47.50008" lon="6.77236">
        <ele>323</ele>
        <time>2015-03-08T11:56:34.000Z</time>
      </trkpt>
      <trkpt lat="47.50012" lon="6.77234">
        <ele>324</ele>
        <time>2015-03-08T11:56:35.000Z</time>
      </trkpt>
      <trkpt lat="47.50016" lon="6.77233">
        <ele>325</ele>
        <time>2015-03-08T11:56:36.001Z</time>
      </trkpt>
      <trkpt lat="47.50019" lon="6.77232">
        <ele>325</ele>
        <time>2015-03-08T11:56:37.000Z</time>
      </trkpt>
      <trkpt lat="47.50023" lon="6.77231">
        <ele>326</ele>
        <time>2015-03-08T11:56:38.000Z</time>
      </trkpt>
      <trkpt lat="47.50024" lon="6.77231">
        <ele>326</ele>
        <time>2015-03-08T11:56:39.000Z</time>
      </trkpt>
      <trkpt lat="47.50028" lon="6.77226">
        <ele>327</ele>
        <time>2015-03-08T11:56:40.000Z</time>
      </trkpt>
      <trkpt lat="47.5003" lon="6.77223">
        <ele>328</ele>
        <time>2015-03-08T11:56:41.000Z</time>
      </trkpt>
      <trkpt lat="47.50032" lon="6.77219">
        <ele>328</ele>
        <time>2015-03-08T11:56:42.000Z</time>
      </trkpt>
      <trkpt lat="47.50037" lon="6.77219">
        <ele>328</ele>
        <time>2015-03-08T11:56:43.000Z</time>
      </trkpt>
      <trkpt lat="47.5004" lon="6.77218">
        <ele>328</ele>
        <time>2015-03-08T11:56:44.000Z</time>
      </trkpt>
      <trkpt lat="47.50043" lon="6.77217">
        <ele>328</ele>
        <time>2015-03-08T11:56:45.000Z</time>
      </trkpt>
      <trkpt lat="47.50048" lon="6.77216">
        <ele>328</ele>
        <time>2015-03-08T11:56:46.000Z</time>
      </trkpt>
      <trkpt lat="47.50058" lon="6.77216">
        <ele>328</ele>
        <time>2015-03-08T11:56:47.000Z</time>
      </trkpt>
      <trkpt lat="47.50063" lon="6.77215">
        <ele>328</ele>
        <time>2015-03-08T11:56:48.000Z</time>
      </trkpt>
      <trkpt lat="47.5007" lon="6.77214">
        <ele>328</ele>
        <time>2015-03-08T11:56:49.000Z</time>
      </trkpt>
      <trkpt lat="47.50074" lon="6.77211">
        <ele>328</ele>
        <time>2015-03-08T11:56:50.000Z</time>
      </trkpt>
      <trkpt lat="47.50078" lon="6.77206">
        <ele>329</ele>
        <time>2015-03-08T11:56:51.000Z</time>
      </trkpt>
      <trkpt lat="47.50083" lon="6.77206">
        <ele>329</ele>
        <time>2015-03-08T11:56:52.000Z</time>
      </trkpt>
      <trkpt lat="47.50088" lon="6.77203">
        <ele>325</ele>
        <time>2015-03-08T11:56:53.000Z</time>
      </trkpt>
      <trkpt lat="47.50092" lon="6.77201">
        <ele>326</ele>
        <time>2015-03-08T11:56:54.000Z</time>
      </trkpt>
      <trkpt lat="47.50096" lon="6.77201">
        <ele>326</ele>
        <time>2015-03-08T11:56:55.000Z</time>
      </trkpt>
      <trkpt lat="47.501" lon="6.772">
        <ele>326</ele>
        <time>2015-03-08T11:56:56.000Z</time>
      </trkpt>
      <trkpt lat="47.50104" lon="6.77198">
        <ele>326</ele>
        <time>2015-03-08T11:56:57.000Z</time>
      </trkpt>
      <trkpt lat="47.50108" lon="6.77197">
        <ele>325</ele>
        <time>2015-03-08T11:56:58.000Z</time>
      </trkpt>
      <trkpt lat="47.50112" lon="6.77198">
        <ele>325</ele>
        <time>2015-03-08T11:56:59.000Z</time>
      </trkpt>
      <trkpt lat="47.50117" lon="6.77199">
        <ele>324</ele>
        <time>2015-03-08T11:57:00.000Z</time>
      </trkpt>
      <trkpt lat="47.50127" lon="6.77202">
        <ele>323</ele>
        <time>2015-03-08T11:57:02.000Z</time>
      </trkpt>
      <trkpt lat="47.50131" lon="6.77202">
        <ele>323</ele>
        <time>2015-03-08T11:57:03.000Z</time>
      </trkpt>
      <trkpt lat="47.50137" lon="6.77205">
        <ele>323</ele>
        <time>2015-03-08T11:57:04.000Z</time>
      </trkpt>
      <trkpt lat="47.50143" lon="6.77206">
        <ele>322</ele>
        <time>2015-03-08T11:57:05.000Z</time>
      </trkpt>
      <trkpt lat="47.50145" lon="6.77211">
        <ele>321</ele>
        <time>2015-03-08T11:57:06.000Z</time>
      </trkpt>
      <trkpt lat="47.50152" lon="6.77213">
        <ele>321</ele>
        <time>2015-03-08T11:57:07.000Z</time>
      </trkpt>
      <trkpt lat="47.50156" lon="6.77218">
        <ele>320</ele>
        <time>2015-03-08T11:57:08.000Z</time>
      </trkpt>
      <trkpt lat="47.5016" lon="6.77223">
        <ele>319</ele>
        <time>2015-03-08T11:57:09.000Z</time>
      </trkpt>
      <trkpt lat="47.50164" lon="6.77226">
        <ele>319</ele>
        <time>2015-03-08T11:57:10.000Z</time>
      </trkpt>
      <trkpt lat="47.5017" lon="6.77229">
        <ele>316</ele>
        <time>2015-03-08T11:57:11.000Z</time>
      </trkpt>
      <trkpt lat="47.50174" lon="6.77233">
        <ele>315</ele>
        <time>2015-03-08T11:57:12.000Z</time>
      </trkpt>
      <trkpt lat="47.50178" lon="6.77236">
        <ele>315</ele>
        <time>2015-03-08T11:57:13.000Z</time>
      </trkpt>
      <trkpt lat="47.50183" lon="6.77239">
        <ele>315</ele>
        <time>2015-03-08T11:57:14.000Z</time>
      </trkpt>
      <trkpt lat="47.50187" lon="6.77244">
        <ele>315</ele>
        <time>2015-03-08T11:57:15.000Z</time>
      </trkpt>
      <trkpt lat="47.50191" lon="6.77248">
        <ele>315</ele>
        <time>2015-03-08T11:57:16.000Z</time>
      </trkpt>
      <trkpt lat="47.50195" lon="6.77252">
        <ele>313</ele>
        <time>2015-03-08T11:57:17.000Z</time>
      </trkpt>
      <trkpt lat="47.50199" lon="6.77257">
        <ele>313</ele>
        <time>2015-03-08T11:57:18.000Z</time>
      </trkpt>
      <trkpt lat="47.50204" lon="6.77258">
        <ele>313</ele>
        <time>2015-03-08T11:57:19.000Z</time>
      </trkpt>
      <trkpt lat="47.5021" lon="6.77261">
        <ele>313</ele>
        <time>2015-03-08T11:57:20.000Z</time>
      </trkpt>
      <trkpt lat="47.50214" lon="6.77264">
        <ele>313</ele>
        <time>2015-03-08T11:57:21.000Z</time>
      </trkpt>
      <trkpt lat="47.50219" lon="6.77269">
        <ele>313</ele>
        <time>2015-03-08T11:57:22.000Z</time>
      </trkpt>
      <trkpt lat="47.50223" lon="6.77272">
        <ele>313</ele>
        <time>2015-03-08T11:57:23.000Z</time>
      </trkpt>
      <trkpt lat="47.50228" lon="6.77277">
        <ele>313</ele>
        <time>2015-03-08T11:57:24.000Z</time>
      </trkpt>
      <trkpt lat="47.50233" lon="6.7728">
        <ele>313</ele>
        <time>2015-03-08T11:57:25.000Z</time>
      </trkpt>
      <trkpt lat="47.50236" lon="6.77281">
        <ele>313</ele>
        <time>2015-03-08T11:57:26.000Z</time>
      </trkpt>
      <trkpt lat="47.5024" lon="6.77284">
        <ele>313</ele>
        <time>2015-03-08T11:57:27.000Z</time>
      </trkpt>
      <trkpt lat="47.50244" lon="6.77286">
        <ele>313</ele>
        <time>2015-03-08T11:57:28.000Z</time>
      </trkpt>
      <trkpt lat="47.50249" lon="6.77289">
        <ele>313</ele>
        <time>2015-03-08T11:57:29.000Z</time>
      </trkpt>
      <trkpt lat="47.50253" lon="6.77293">
        <ele>313</ele>
        <time>2015-03-08T11:57:30.000Z</time>
      </trkpt>
      <trkpt lat="47.50258" lon="6.77296">
        <ele>313</ele>
        <time>2015-03-08T11:57:31.000Z</time>
      </trkpt>
      <trkpt lat="47.50262" lon="6.77299">
        <ele>313</ele>
        <time>2015-03-08T11:57:32.000Z</time>
      </trkpt>
      <trkpt lat="47.50268" lon="6.77301">
        <ele>313</ele>
        <time>2015-03-08T11:57:33.000Z</time>
      </trkpt>
      <trkpt lat="47.50273" lon="6.77305">
        <ele>313</ele>
        <time>2015-03-08T11:57:34.000Z</time>
      </trkpt>
      <trkpt lat="47.50277" lon="6.77308">
        <ele>313</ele>
        <time>2015-03-08T11:57:35.000Z</time>
      </trkpt>
      <trkpt lat="47.50281" lon="6.77311">
        <ele>313</ele>
        <time>2015-03-08T11:57:36.000Z</time>
      </trkpt>
      <trkpt lat="47.50285" lon="6.77314">
        <ele>313</ele>
        <time>2015-03-08T11:57:37.000Z</time>
      </trkpt>
      <trkpt lat="47.50289" lon="6.77317">
        <ele>313</ele>
        <time>2015-03-08T11:57:38.000Z</time>
      </trkpt>
      <trkpt lat="47.50293" lon="6.77322">
        <ele>313</ele>
        <time>2015-03-08T11:57:39.000Z</time>
      </trkpt>
      <trkpt lat="47.50298" lon="6.77326">
        <ele>312</ele>
        <time>2015-03-08T11:57:40.000Z</time>
      </trkpt>
      <trkpt lat="47.50302" lon="6.7733">
        <ele>312</ele>
        <time>2015-03-08T11:57:41.000Z</time>
      </trkpt>
      <trkpt lat="47.50306" lon="6.77334">
        <ele>312</ele>
        <time>2015-03-08T11:57:42.000Z</time>
      </trkpt>
      <trkpt lat="47.50311" lon="6.77337">
        <ele>312</ele>
        <time>2015-03-08T11:57:43.000Z</time>
      </trkpt>
      <trkpt lat="47.50315" lon="6.77341">
        <ele>312</ele>
        <time>2015-03-08T11:57:44.000Z</time>
      </trkpt>
      <trkpt lat="47.50321" lon="6.77344">
        <ele>312</ele>
        <time>2015-03-08T11:57:45.000Z</time>
      </trkpt>
      <trkpt lat="47.50325" lon="6.77347">
        <ele>312</ele>
        <time>2015-03-08T11:57:46.000Z</time>
      </trkpt>
      <trkpt lat="47.50329" lon="6.77352">
        <ele>312</ele>
        <time>2015-03-08T11:57:47.000Z</time>
      </trkpt>
      <trkpt lat="47.50334" lon="6.77357">
        <ele>312</ele>
        <time>2015-03-08T11:57:48.000Z</time>
      </trkpt>
      <trkpt lat="47.50339" lon="6.77361">
        <ele>312</ele>
        <time>2015-03-08T11:57:49.000Z</time>
      </trkpt>
      <trkpt lat="47.50343" lon="6.77365">
        <ele>312</ele>
        <time>2015-03-08T11:57:50.000Z</time>
      </trkpt>
      <trkpt lat="47.50348" lon="6.77369">
        <ele>312</ele>
        <time>2015-03-08T11:57:51.000Z</time>
      </trkpt>
      <trkpt lat="47.50352" lon="6.7737">
        <ele>312</ele>
        <time>2015-03-08T11:57:52.000Z</time>
      </trkpt>
      <trkpt lat="47.50356" lon="6.77373">
        <ele>312</ele>
        <time>2015-03-08T11:57:53.000Z</time>
      </trkpt>
      <trkpt lat="47.50361" lon="6.77375">
        <ele>312</ele>
        <time>2015-03-08T11:57:54.000Z</time>
      </trkpt>
      <trkpt lat="47.50365" lon="6.77377">
        <ele>312</ele>
        <time>2015-03-08T11:57:55.000Z</time>
      </trkpt>
      <trkpt lat="47.50369" lon="6.77379">
        <ele>312</ele>
        <time>2015-03-08T11:57:56.000Z</time>
      </trkpt>
      <trkpt lat="47.50374" lon="6.77383">
        <ele>312</ele>
        <time>2015-03-08T11:57:57.000Z</time>
      </trkpt>
      <trkpt lat="47.50379" lon="6.77386">
        <ele>312</ele>
        <time>2015-03-08T11:57:58.000Z</time>
      </trkpt>
      <trkpt lat="47.50383" lon="6.77388">
        <ele>312</ele>
        <time>2015-03-08T11:57:59.000Z</time>
      </trkpt>
      <trkpt lat="47.50387" lon="6.77394">
        <ele>312</ele>
        <time>2015-03-08T11:58:00.000Z</time>
      </trkpt>
      <trkpt lat="47.50396" lon="6.77399">
        <ele>312</ele>
        <time>2015-03-08T11:58:02.000Z</time>
      </trkpt>
      <trkpt lat="47.504" lon="6.77404">
        <ele>312</ele>
        <time>2015-03-08T11:58:03.000Z</time>
      </trkpt>
      <trkpt lat="47.50404" lon="6.77408">
        <ele>311</ele>
        <time>2015-03-08T11:58:04.000Z</time>
      </trkpt>
      <trkpt lat="47.50408" lon="6.77413">
        <ele>311</ele>
        <time>2015-03-08T11:58:05.000Z</time>
      </trkpt>
      <trkpt lat="47.50411" lon="6.77414">
        <ele>311</ele>
        <time>2015-03-08T11:58:06.000Z</time>
      </trkpt>
      <trkpt lat="47.50416" lon="6.77417">
        <ele>311</ele>
        <time>2015-03-08T11:58:07.000Z</time>
      </trkpt>
      <trkpt lat="47.5042" lon="6.7742">
        <ele>311</ele>
        <time>2015-03-08T11:58:08.000Z</time>
      </trkpt>
      <trkpt lat="47.50424" lon="6.77424">
        <ele>312</ele>
        <time>2015-03-08T11:58:09.000Z</time>
      </trkpt>
      <trkpt lat="47.50427" lon="6.77424">
        <ele>312</ele>
        <time>2015-03-08T11:58:10.000Z</time>
      </trkpt>
      <trkpt lat="47.50431" lon="6.77432">
        <ele>312</ele>
        <time>2015-03-08T11:58:11.000Z</time>
      </trkpt>
      <trkpt lat="47.50435" lon="6.77436">
        <ele>312</ele>
        <time>2015-03-08T11:58:12.000Z</time>
      </trkpt>
      <trkpt lat="47.50441" lon="6.77438">
        <ele>312</ele>
        <time>2015-03-08T11:58:13.000Z</time>
      </trkpt>
      <trkpt lat="47.50445" lon="6.77441">
        <ele>312</ele>
        <time>2015-03-08T11:58:14.000Z</time>
      </trkpt>
      <trkpt lat="47.50452" lon="6.77444">
        <ele>312</ele>
        <time>2015-03-08T11:58:15.000Z</time>
      </trkpt>
      <trkpt lat="47.50456" lon="6.77448">
        <ele>312</ele>
        <time>2015-03-08T11:58:16.000Z</time>
      </trkpt>
      <trkpt lat="47.50459" lon="6.77449">
        <ele>313</ele>
        <time>2015-03-08T11:58:17.000Z</time>
      </trkpt>
      <trkpt lat="47.50463" lon="6.77449">
        <ele>313</ele>
        <time>2015-03-08T11:58:18.000Z</time>
      </trkpt>
      <trkpt lat="47.50466" lon="6.77448">
        <ele>313</ele>
        <time>2015-03-08T11:58:19.001Z</time>
      </trkpt>
      <trkpt lat="47.5047" lon="6.77453">
        <ele>313</ele>
        <time>2015-03-08T11:58:20.000Z</time>
      </trkpt>
      <trkpt lat="47.50475" lon="6.77464">
        <ele>313</ele>
        <time>2015-03-08T11:58:21.000Z</time>
      </trkpt>
      <trkpt lat="47.50479" lon="6.77471">
        <ele>313</ele>
        <time>2015-03-08T11:58:22.000Z</time>
      </trkpt>
      <trkpt lat="47.50481" lon="6.77475">
        <ele>313</ele>
        <time>2015-03-08T11:58:23.000Z</time>
      </trkpt>
      <trkpt lat="47.50486" lon="6.77481">
        <ele>313</ele>
        <time>2015-03-08T11:58:24.000Z</time>
      </trkpt>
      <trkpt lat="47.50492" lon="6.77487">
        <ele>313</ele>
        <time>2015-03-08T11:58:25.000Z</time>
      </trkpt>
      <trkpt lat="47.50496" lon="6.7749">
        <ele>313</ele>
        <time>2015-03-08T11:58:26.000Z</time>
      </trkpt>
      <trkpt lat="47.505" lon="6.77491">
        <ele>314</ele>
        <time>2015-03-08T11:58:27.000Z</time>
      </trkpt>
      <trkpt lat="47.50505" lon="6.77494">
        <ele>314</ele>
        <time>2015-03-08T11:58:28.000Z</time>
      </trkpt>
      <trkpt lat="47.50508" lon="6.775">
        <ele>314</ele>
        <time>2015-03-08T11:58:29.000Z</time>
      </trkpt>
      <trkpt lat="47.50515" lon="6.77506">
        <ele>314</ele>
        <time>2015-03-08T11:58:30.000Z</time>
      </trkpt>
      <trkpt lat="47.5052" lon="6.77509">
        <ele>314</ele>
        <time>2015-03-08T11:58:31.000Z</time>
      </trkpt>
      <trkpt lat="47.50524" lon="6.7751">
        <ele>314</ele>
        <time>2015-03-08T11:58:32.000Z</time>
      </trkpt>
      <trkpt lat="47.50529" lon="6.7751">
        <ele>314</ele>
        <time>2015-03-08T11:58:33.000Z</time>
      </trkpt>
      <trkpt lat="47.50534" lon="6.77514">
        <ele>313</ele>
        <time>2015-03-08T11:58:34.000Z</time>
      </trkpt>
      <trkpt lat="47.50539" lon="6.77516">
        <ele>313</ele>
        <time>2015-03-08T11:58:35.000Z</time>
      </trkpt>
      <trkpt lat="47.50542" lon="6.7752">
        <ele>313</ele>
        <time>2015-03-08T11:58:36.000Z</time>
      </trkpt>
      <trkpt lat="47.50546" lon="6.77521">
        <ele>313</ele>
        <time>2015-03-08T11:58:37.000Z</time>
      </trkpt>
      <trkpt lat="47.50549" lon="6.77524">
        <ele>313</ele>
        <time>2015-03-08T11:58:38.000Z</time>
      </trkpt>
      <trkpt lat="47.50551" lon="6.77529">
        <ele>313</ele>
        <time>2015-03-08T11:58:39.000Z</time>
      </trkpt>
      <trkpt lat="47.50554" lon="6.77535">
        <ele>313</ele>
        <time>2015-03-08T11:58:40.000Z</time>
      </trkpt>
      <trkpt lat="47.50557" lon="6.77539">
        <ele>313</ele>
        <time>2015-03-08T11:58:41.000Z</time>
      </trkpt>
      <trkpt lat="47.5056" lon="6.77542">
        <ele>313</ele>
        <time>2015-03-08T11:58:42.000Z</time>
      </trkpt>
      <trkpt lat="47.50562" lon="6.77547">
        <ele>313</ele>
        <time>2015-03-08T11:58:43.000Z</time>
      </trkpt>
      <trkpt lat="47.50565" lon="6.77547">
        <ele>313</ele>
        <time>2015-03-08T11:58:44.000Z</time>
      </trkpt>
      <trkpt lat="47.50568" lon="6.77547">
        <ele>313</ele>
        <time>2015-03-08T11:58:45.000Z</time>
      </trkpt>
      <trkpt lat="47.50572" lon="6.77547">
        <ele>313</ele>
        <time>2015-03-08T11:58:46.000Z</time>
      </trkpt>
      <trkpt lat="47.50575" lon="6.77548">
        <ele>313</ele>
        <time>2015-03-08T11:58:47.000Z</time>
      </trkpt>
      <trkpt lat="47.50579" lon="6.77548">
        <ele>313</ele>
        <time>2015-03-08T11:58:48.000Z</time>
      </trkpt>
      <trkpt lat="47.50582" lon="6.77548">
        <ele>313</ele>
        <time>2015-03-08T11:58:49.000Z</time>
      </trkpt>
      <trkpt lat="47.50586" lon="6.77547">
        <ele>313</ele>
        <time>2015-03-08T11:58:50.000Z</time>
      </trkpt>
      <trkpt lat="47.50589" lon="6.77546">
        <ele>313</ele>
        <time>2015-03-08T11:58:51.000Z</time>
      </trkpt>
      <trkpt lat="47.50591" lon="6.77544">
        <ele>313</ele>
        <time>2015-03-08T11:58:52.000Z</time>
      </trkpt>
      <trkpt lat="47.50594" lon="6.77542">
        <ele>313</ele>
        <time>2015-03-08T11:58:53.000Z</time>
      </trkpt>
      <trkpt lat="47.50597" lon="6.7754">
        <ele>313</ele>
        <time>2015-03-08T11:58:54.000Z</time>
      </trkpt>
      <trkpt lat="47.50599" lon="6.7754">
        <ele>313</ele>
        <time>2015-03-08T11:58:55.000Z</time>
      </trkpt>
      <trkpt lat="47.50602" lon="6.77538">
        <ele>313</ele>
        <time>2015-03-08T11:58:55.999Z</time>
      </trkpt>
      <trkpt lat="47.50604" lon="6.77541">
        <ele>313</ele>
        <time>2015-03-08T11:58:57.000Z</time>
      </trkpt>
      <trkpt lat="47.50607" lon="6.77543">
        <ele>313</ele>
        <time>2015-03-08T11:58:58.000Z</time>
      </trkpt>
      <trkpt lat="47.50608" lon="6.77544">
        <ele>313</ele>
        <time>2015-03-08T11:58:58.999Z</time>
      </trkpt>
      <trkpt lat="47.50612" lon="6.77545">
        <ele>313</ele>
        <time>2015-03-08T11:59:00.000Z</time>
      </trkpt>
      <trkpt lat="47.50619" lon="6.77548">
        <ele>313</ele>
        <time>2015-03-08T11:59:02.000Z</time>
      </trkpt>
      <trkpt lat="47.50622" lon="6.77546">
        <ele>313</ele>
        <time>2015-03-08T11:59:05.000Z</time>
      </trkpt>
      <trkpt lat="47.50624" lon="6.77544">
        <ele>313</ele>
        <time>2015-03-08T11:59:06.000Z</time>
      </trkpt>
      <trkpt lat="47.50628" lon="6.77543">
        <ele>313</ele>
        <time>2015-03-08T11:59:07.000Z</time>
      </trkpt>
      <trkpt lat="47.50633" lon="6.77541">
        <ele>313</ele>
        <time>2015-03-08T11:59:08.000Z</time>
      </trkpt>
      <trkpt lat="47.5064" lon="6.77541">
        <ele>313</ele>
        <time>2015-03-08T11:59:09.000Z</time>
      </trkpt>
      <trkpt lat="47.50647" lon="6.7754">
        <ele>313</ele>
        <time>2015-03-08T11:59:10.000Z</time>
      </trkpt>
      <trkpt lat="47.50664" lon="6.77536">
        <ele>313</ele>
        <time>2015-03-08T11:59:11.000Z</time>
      </trkpt>
      <trkpt lat="47.50668" lon="6.77536">
        <ele>313</ele>
        <time>2015-03-08T11:59:12.000Z</time>
      </trkpt>
      <trkpt lat="47.50673" lon="6.77533">
        <ele>313</ele>
        <time>2015-03-08T11:59:13.000Z</time>
      </trkpt>
      <trkpt lat="47.50677" lon="6.77532">
        <ele>313</ele>
        <time>2015-03-08T11:59:14.000Z</time>
      </trkpt>
      <trkpt lat="47.50682" lon="6.77531">
        <ele>313</ele>
        <time>2015-03-08T11:59:15.000Z</time>
      </trkpt>
      <trkpt lat="47.50686" lon="6.77529">
        <ele>313</ele>
        <time>2015-03-08T11:59:16.000Z</time>
      </trkpt>
      <trkpt lat="47.50689" lon="6.77528">
        <ele>313</ele>
        <time>2015-03-08T11:59:17.000Z</time>
      </trkpt>
      <trkpt lat="47.50694" lon="6.77528">
        <ele>313</ele>
        <time>2015-03-08T11:59:18.000Z</time>
      </trkpt>
      <trkpt lat="47.50697" lon="6.77527">
        <ele>313</ele>
        <time>2015-03-08T11:59:19.000Z</time>
      </trkpt>
      <trkpt lat="47.507" lon="6.77528">
        <ele>313</ele>
        <time>2015-03-08T11:59:20.000Z</time>
      </trkpt>
      <trkpt lat="47.50705" lon="6.77529">
        <ele>313</ele>
        <time>2015-03-08T11:59:21.000Z</time>
      </trkpt>
      <trkpt lat="47.5071" lon="6.77529">
        <ele>313</ele>
        <time>2015-03-08T11:59:22.000Z</time>
      </trkpt>
      <trkpt lat="47.50714" lon="6.7753">
        <ele>313</ele>
        <time>2015-03-08T11:59:23.000Z</time>
      </trkpt>
      <trkpt lat="47.50721" lon="6.77532">
        <ele>313</ele>
        <time>2015-03-08T11:59:24.000Z</time>
      </trkpt>
      <trkpt lat="47.50726" lon="6.77536">
        <ele>313</ele>
        <time>2015-03-08T11:59:25.000Z</time>
      </trkpt>
      <trkpt lat="47.5073" lon="6.77538">
        <ele>313</ele>
        <time>2015-03-08T11:59:26.000Z</time>
      </trkpt>
      <trkpt lat="47.50733" lon="6.77542">
        <ele>313</ele>
        <time>2015-03-08T11:59:27.000Z</time>
      </trkpt>
      <trkpt lat="47.50737" lon="6.77545">
        <ele>313</ele>
        <time>2015-03-08T11:59:28.000Z</time>
      </trkpt>
      <trkpt lat="47.50741" lon="6.77547">
        <ele>313</ele>
        <time>2015-03-08T11:59:29.000Z</time>
      </trkpt>
      <trkpt lat="47.50744" lon="6.7755">
        <ele>313</ele>
        <time>2015-03-08T11:59:30.000Z</time>
      </trkpt>
      <trkpt lat="47.50747" lon="6.77553">
        <ele>313</ele>
        <time>2015-03-08T11:59:31.000Z</time>
      </trkpt>
      <trkpt lat="47.50752" lon="6.77557">
        <ele>314</ele>
        <time>2015-03-08T11:59:32.000Z</time>
      </trkpt>
      <trkpt lat="47.50755" lon="6.77559">
        <ele>314</ele>
        <time>2015-03-08T11:59:33.000Z</time>
      </trkpt>
      <trkpt lat="47.50758" lon="6.77562">
        <ele>314</ele>
        <time>2015-03-08T11:59:34.000Z</time>
      </trkpt>
      <trkpt lat="47.50762" lon="6.77565">
        <ele>314</ele>
        <time>2015-03-08T11:59:35.000Z</time>
      </trkpt>
      <trkpt lat="47.50766" lon="6.77568">
        <ele>314</ele>
        <time>2015-03-08T11:59:36.000Z</time>
      </trkpt>
      <trkpt lat="47.5077" lon="6.77571">
        <ele>314</ele>
        <time>2015-03-08T11:59:37.000Z</time>
      </trkpt>
      <trkpt lat="47.50773" lon="6.77574">
        <ele>314</ele>
        <time>2015-03-08T11:59:38.000Z</time>
      </trkpt>
      <trkpt lat="47.50777" lon="6.77578">
        <ele>314</ele>
        <time>2015-03-08T11:59:39.000Z</time>
      </trkpt>
      <trkpt lat="47.50782" lon="6.77581">
        <ele>315</ele>
        <time>2015-03-08T11:59:40.000Z</time>
      </trkpt>
      <trkpt lat="47.50786" lon="6.77585">
        <ele>315</ele>
        <time>2015-03-08T11:59:41.000Z</time>
      </trkpt>
      <trkpt lat="47.50791" lon="6.77588">
        <ele>315</ele>
        <time>2015-03-08T11:59:42.000Z</time>
      </trkpt>
      <trkpt lat="47.508" lon="6.77597">
        <ele>315</ele>
        <time>2015-03-08T11:59:43.000Z</time>
      </trkpt>
      <trkpt lat="47.50805" lon="6.77603">
        <ele>315</ele>
        <time>2015-03-08T11:59:44.000Z</time>
      </trkpt>
      <trkpt lat="47.50809" lon="6.77608">
        <ele>315</ele>
        <time>2015-03-08T11:59:45.000Z</time>
      </trkpt>
      <trkpt lat="47.50814" lon="6.77611">
        <ele>316</ele>
        <time>2015-03-08T11:59:46.000Z</time>
      </trkpt>
      <trkpt lat="47.5082" lon="6.77617">
        <ele>316</ele>
        <time>2015-03-08T11:59:47.000Z</time>
      </trkpt>
      <trkpt lat="47.50825" lon="6.77622">
        <ele>316</ele>
        <time>2015-03-08T11:59:48.000Z</time>
      </trkpt>
      <trkpt lat="47.5083" lon="6.77626">
        <ele>316</ele>
        <time>2015-03-08T11:59:49.000Z</time>
      </trkpt>
      <trkpt lat="47.50835" lon="6.7763">
        <ele>317</ele>
        <time>2015-03-08T11:59:50.000Z</time>
      </trkpt>
      <trkpt lat="47.5084" lon="6.77634">
        <ele>317</ele>
        <time>2015-03-08T11:59:51.000Z</time>
      </trkpt>
      <trkpt lat="47.50843" lon="6.7764">
        <ele>317</ele>
        <time>2015-03-08T11:59:52.000Z</time>
      </trkpt>
      <trkpt lat="47.50848" lon="6.77643">
        <ele>317</ele>
        <time>2015-03-08T11:59:53.000Z</time>
      </trkpt>
      <trkpt lat="47.50852" lon="6.77647">
        <ele>317</ele>
        <time>2015-03-08T11:59:54.000Z</time>
      </trkpt>
      <trkpt lat="47.50855" lon="6.77653">
        <ele>317</ele>
        <time>2015-03-08T11:59:55.000Z</time>
      </trkpt>
      <trkpt lat="47.50859" lon="6.77657">
        <ele>317</ele>
        <time>2015-03-08T11:59:56.000Z</time>
      </trkpt>
      <trkpt lat="47.50863" lon="6.77661">
        <ele>316</ele>
        <time>2015-03-08T11:59:57.000Z</time>
      </trkpt>
      <trkpt lat="47.50867" lon="6.77668">
        <ele>316</ele>
        <time>2015-03-08T11:59:58.000Z</time>
      </trkpt>
      <trkpt lat="47.5087" lon="6.77674">
        <ele>316</ele>
        <time>2015-03-08T11:59:59.000Z</time>
      </trkpt>
      <trkpt lat="47.50873" lon="6.77681">
        <ele>316</ele>
        <time>2015-03-08T12:00:00.000Z</time>
      </trkpt>
      <trkpt lat="47.50879" lon="6.77691">
        <ele>316</ele>
        <time>2015-03-08T12:00:02.000Z</time>
      </trkpt>
      <trkpt lat="47.50881" lon="6.77695">
        <ele>316</ele>
        <time>2015-03-08T12:00:03.000Z</time>
      </trkpt>
      <trkpt lat="47.50884" lon="6.77699">
        <ele>316</ele>
        <time>2015-03-08T12:00:04.000Z</time>
      </trkpt>
      <trkpt lat="47.50887" lon="6.77703">
        <ele>316</ele>
        <time>2015-03-08T12:00:05.000Z</time>
      </trkpt>
      <trkpt lat="47.5089" lon="6.77705">
        <ele>316</ele>
        <time>2015-03-08T12:00:06.000Z</time>
      </trkpt>
      <trkpt lat="47.50893" lon="6.77702">
        <ele>316</ele>
        <time>2015-03-08T12:00:07.000Z</time>
      </trkpt>
      <trkpt lat="47.50897" lon="6.77702">
        <ele>316</ele>
        <time>2015-03-08T12:00:08.000Z</time>
      </trkpt>
      <trkpt lat="47.509" lon="6.77702">
        <ele>316</ele>
        <time>2015-03-08T12:00:09.000Z</time>
      </trkpt>
      <trkpt lat="47.50904" lon="6.77701">
        <ele>316</ele>
        <time>2015-03-08T12:00:10.000Z</time>
      </trkpt>
      <trkpt lat="47.50907" lon="6.77701">
        <ele>316</ele>
        <time>2015-03-08T12:00:11.000Z</time>
      </trkpt>
      <trkpt lat="47.50911" lon="6.777">
        <ele>316</ele>
        <time>2015-03-08T12:00:12.000Z</time>
      </trkpt>
      <trkpt lat="47.50914" lon="6.77699">
        <ele>316</ele>
        <time>2015-03-08T12:00:13.000Z</time>
      </trkpt>
      <trkpt lat="47.50918" lon="6.77698">
        <ele>315</ele>
        <time>2015-03-08T12:00:14.000Z</time>
      </trkpt>
      <trkpt lat="47.50921" lon="6.77697">
        <ele>315</ele>
        <time>2015-03-08T12:00:15.000Z</time>
      </trkpt>
      <trkpt lat="47.50925" lon="6.77696">
        <ele>315</ele>
        <time>2015-03-08T12:00:16.000Z</time>
      </trkpt>
      <trkpt lat="47.50929" lon="6.77697">
        <ele>315</ele>
        <time>2015-03-08T12:00:17.000Z</time>
      </trkpt>
      <trkpt lat="47.50932" lon="6.77698">
        <ele>315</ele>
        <time>2015-03-08T12:00:18.000Z</time>
      </trkpt>
      <trkpt lat="47.50936" lon="6.77698">
        <ele>315</ele>
        <time>2015-03-08T12:00:19.000Z</time>
      </trkpt>
      <trkpt lat="47.5094" lon="6.77698">
        <ele>315</ele>
        <time>2015-03-08T12:00:20.000Z</time>
      </trkpt>
      <trkpt lat="47.50943" lon="6.77699">
        <ele>315</ele>
        <time>2015-03-08T12:00:21.000Z</time>
      </trkpt>
      <trkpt lat="47.50945" lon="6.77701">
        <ele>315</ele>
        <time>2015-03-08T12:00:22.000Z</time>
      </trkpt>
      <trkpt lat="47.50949" lon="6.77702">
        <ele>315</ele>
        <time>2015-03-08T12:00:24.000Z</time>
      </trkpt>
      <trkpt lat="47.50951" lon="6.77701">
        <ele>315</ele>
        <time>2015-03-08T12:00:25.000Z</time>
      </trkpt>
      <trkpt lat="47.50953" lon="6.77698">
        <ele>315</ele>
        <time>2015-03-08T12:00:26.000Z</time>
      </trkpt>
      <trkpt lat="47.50955" lon="6.77695">
        <ele>315</ele>
        <time>2015-03-08T12:00:27.000Z</time>
      </trkpt>
      <trkpt lat="47.50957" lon="6.77691">
        <ele>315</ele>
        <time>2015-03-08T12:00:28.000Z</time>
      </trkpt>
      <trkpt lat="47.5096" lon="6.77688">
        <ele>315</ele>
        <time>2015-03-08T12:00:29.000Z</time>
      </trkpt>
      <trkpt lat="47.50964" lon="6.77686">
        <ele>315</ele>
        <time>2015-03-08T12:00:30.000Z</time>
      </trkpt>
      <trkpt lat="47.50966" lon="6.77684">
        <ele>315</ele>
        <time>2015-03-08T12:00:31.000Z</time>
      </trkpt>
      <trkpt lat="47.50969" lon="6.77685">
        <ele>315</ele>
        <time>2015-03-08T12:00:32.000Z</time>
      </trkpt>
      <trkpt lat="47.50972" lon="6.77687">
        <ele>315</ele>
        <time>2015-03-08T12:00:33.000Z</time>
      </trkpt>
      <trkpt lat="47.50975" lon="6.7769">
        <ele>315</ele>
        <time>2015-03-08T12:00:34.000Z</time>
      </trkpt>
      <trkpt lat="47.50978" lon="6.77694">
        <ele>315</ele>
        <time>2015-03-08T12:00:35.000Z</time>
      </trkpt>
      <trkpt lat="47.50981" lon="6.77698">
        <ele>315</ele>
        <time>2015-03-08T12:00:36.000Z</time>
      </trkpt>
      <trkpt lat="47.50983" lon="6.77702">
        <ele>315</ele>
        <time>2015-03-08T12:00:37.000Z</time>
      </trkpt>
      <trkpt lat="47.50986" lon="6.77705">
        <ele>315</ele>
        <time>2015-03-08T12:00:38.000Z</time>
      </trkpt>
      <trkpt lat="47.50989" lon="6.77708">
        <ele>315</ele>
        <time>2015-03-08T12:00:39.000Z</time>
      </trkpt>
      <trkpt lat="47.50992" lon="6.7771">
        <ele>315</ele>
        <time>2015-03-08T12:00:40.000Z</time>
      </trkpt>
      <trkpt lat="47.50996" lon="6.77713">
        <ele>315</ele>
        <time>2015-03-08T12:00:41.000Z</time>
      </trkpt>
      <trkpt lat="47.50999" lon="6.77716">
        <ele>315</ele>
        <time>2015-03-08T12:00:42.000Z</time>
      </trkpt>
      <trkpt lat="47.51003" lon="6.77719">
        <ele>316</ele>
        <time>2015-03-08T12:00:43.000Z</time>
      </trkpt>
      <trkpt lat="47.51005" lon="6.77722">
        <ele>316</ele>
        <time>2015-03-08T12:00:44.000Z</time>
      </trkpt>
      <trkpt lat="47.51007" lon="6.77725">
        <ele>316</ele>
        <time>2015-03-08T12:00:45.000Z</time>
      </trkpt>
      <trkpt lat="47.51009" lon="6.77728">
        <ele>316</ele>
        <time>2015-03-08T12:00:46.000Z</time>
      </trkpt>
      <trkpt lat="47.5101" lon="6.7773">
        <ele>317</ele>
        <time>2015-03-08T12:00:47.000Z</time>
      </trkpt>
      <trkpt lat="47.51014" lon="6.77734">
        <ele>317</ele>
        <time>2015-03-08T12:00:48.000Z</time>
      </trkpt>
      <trkpt lat="47.51017" lon="6.77737">
        <ele>317</ele>
        <time>2015-03-08T12:00:49.000Z</time>
      </trkpt>
      <trkpt lat="47.51021" lon="6.7774">
        <ele>317</ele>
        <time>2015-03-08T12:00:50.000Z</time>
      </trkpt>
      <trkpt lat="47.51025" lon="6.77743">
        <ele>317</ele>
        <time>2015-03-08T12:00:51.000Z</time>
      </trkpt>
      <trkpt lat="47.51029" lon="6.77747">
        <ele>317</ele>
        <time>2015-03-08T12:00:52.000Z</time>
      </trkpt>
      <trkpt lat="47.51032" lon="6.77751">
        <ele>317</ele>
        <time>2015-03-08T12:00:53.000Z</time>
      </trkpt>
      <trkpt lat="47.51034" lon="6.77754">
        <ele>318</ele>
        <time>2015-03-08T12:00:54.000Z</time>
      </trkpt>
      <trkpt lat="47.51037" lon="6.77757">
        <ele>318</ele>
        <time>2015-03-08T12:00:55.000Z</time>
      </trkpt>
      <trkpt lat="47.5104" lon="6.7776">
        <ele>318</ele>
        <time>2015-03-08T12:00:56.000Z</time>
      </trkpt>
      <trkpt lat="47.51043" lon="6.77762">
        <ele>318</ele>
        <time>2015-03-08T12:00:57.000Z</time>
      </trkpt>
      <trkpt lat="47.51046" lon="6.77764">
        <ele>318</ele>
        <time>2015-03-08T12:00:58.000Z</time>
      </trkpt>
      <trkpt lat="47.51048" lon="6.77767">
        <ele>318</ele>
        <time>2015-03-08T12:00:59.000Z</time>
      </trkpt>
      <trkpt lat="47.51052" lon="6.7777">
        <ele>318</ele>
        <time>2015-03-08T12:01:01.000Z</time>
      </trkpt>
      <trkpt lat="47.51053" lon="6.77771">
        <ele>318</ele>
        <time>2015-03-08T12:01:02.000Z</time>
      </trkpt>
      <trkpt lat="47.51057" lon="6.77772">
        <ele>318</ele>
        <time>2015-03-08T12:01:04.000Z</time>
      </trkpt>
      <trkpt lat="47.51059" lon="6.77773">
        <ele>318</ele>
        <time>2015-03-08T12:01:05.000Z</time>
      </trkpt>
      <trkpt lat="47.51061" lon="6.77773">
        <ele>318</ele>
        <time>2015-03-08T12:01:06.000Z</time>
      </trkpt>
      <trkpt lat="47.51063" lon="6.77773">
        <ele>318</ele>
        <time>2015-03-08T12:01:07.000Z</time>
      </trkpt>
      <trkpt lat="47.51066" lon="6.77774">
        <ele>318</ele>
        <time>2015-03-08T12:01:08.000Z</time>
      </trkpt>
      <trkpt lat="47.51069" lon="6.77775">
        <ele>319</ele>
        <time>2015-03-08T12:01:09.000Z</time>
      </trkpt>
      <trkpt lat="47.51073" lon="6.77777">
        <ele>319</ele>
        <time>2015-03-08T12:01:10.000Z</time>
      </trkpt>
      <trkpt lat="47.51076" lon="6.7778">
        <ele>319</ele>
        <time>2015-03-08T12:01:11.000Z</time>
      </trkpt>
      <trkpt lat="47.51079" lon="6.77782">
        <ele>319</ele>
        <time>2015-03-08T12:01:12.000Z</time>
      </trkpt>
      <trkpt lat="47.51082" lon="6.77783">
        <ele>319</ele>
        <time>2015-03-08T12:01:13.000Z</time>
      </trkpt>
      <trkpt lat="47.51086" lon="6.77785">
        <ele>321</ele>
        <time>2015-03-08T12:01:14.000Z</time>
      </trkpt>
      <trkpt lat="47.51089" lon="6.77785">
        <ele>321</ele>
        <time>2015-03-08T12:01:15.000Z</time>
      </trkpt>
      <trkpt lat="47.51092" lon="6.77786">
        <ele>321</ele>
        <time>2015-03-08T12:01:16.000Z</time>
      </trkpt>
      <trkpt lat="47.51095" lon="6.77787">
        <ele>322</ele>
        <time>2015-03-08T12:01:17.000Z</time>
      </trkpt>
      <trkpt lat="47.51099" lon="6.77787">
        <ele>322</ele>
        <time>2015-03-08T12:01:18.000Z</time>
      </trkpt>
      <trkpt lat="47.51102" lon="6.77787">
        <ele>322</ele>
        <time>2015-03-08T12:01:19.000Z</time>
      </trkpt>
      <trkpt lat="47.51106" lon="6.77787">
        <ele>322</ele>
        <time>2015-03-08T12:01:20.000Z</time>
      </trkpt>
      <trkpt lat="47.5111" lon="6.77787">
        <ele>322</ele>
        <time>2015-03-08T12:01:21.000Z</time>
      </trkpt>
      <trkpt lat="47.51114" lon="6.77787">
        <ele>322</ele>
        <time>2015-03-08T12:01:22.000Z</time>
      </trkpt>
      <trkpt lat="47.51118" lon="6.77788">
        <ele>322</ele>
        <time>2015-03-08T12:01:23.000Z</time>
      </trkpt>
      <trkpt lat="47.51122" lon="6.77789">
        <ele>322</ele>
        <time>2015-03-08T12:01:24.000Z</time>
      </trkpt>
      <trkpt lat="47.51126" lon="6.77789">
        <ele>322</ele>
        <time>2015-03-08T12:01:25.000Z</time>
      </trkpt>
      <trkpt lat="47.5113" lon="6.77788">
        <ele>322</ele>
        <time>2015-03-08T12:01:26.000Z</time>
      </trkpt>
      <trkpt lat="47.51133" lon="6.77787">
        <ele>322</ele>
        <time>2015-03-08T12:01:27.000Z</time>
      </trkpt>
      <trkpt lat="47.51136" lon="6.77786">
        <ele>323</ele>
        <time>2015-03-08T12:01:28.000Z</time>
      </trkpt>
      <trkpt lat="47.51138" lon="6.77786">
        <ele>323</ele>
        <time>2015-03-08T12:01:29.000Z</time>
      </trkpt>
      <trkpt lat="47.51141" lon="6.77786">
        <ele>323</ele>
        <time>2015-03-08T12:01:30.000Z</time>
      </trkpt>
      <trkpt lat="47.51143" lon="6.77786">
        <ele>323</ele>
        <time>2015-03-08T12:01:31.000Z</time>
      </trkpt>
      <trkpt lat="47.51146" lon="6.77785">
        <ele>323</ele>
        <time>2015-03-08T12:01:32.000Z</time>
      </trkpt>
      <trkpt lat="47.51149" lon="6.77785">
        <ele>323</ele>
        <time>2015-03-08T12:01:33.000Z</time>
      </trkpt>
      <trkpt lat="47.51151" lon="6.77784">
        <ele>323</ele>
        <time>2015-03-08T12:01:34.000Z</time>
      </trkpt>
      <trkpt lat="47.51154" lon="6.77784">
        <ele>323</ele>
        <time>2015-03-08T12:01:35.000Z</time>
      </trkpt>
      <trkpt lat="47.51157" lon="6.77783">
        <ele>323</ele>
        <time>2015-03-08T12:01:36.000Z</time>
      </trkpt>
      <trkpt lat="47.51159" lon="6.77783">
        <ele>323</ele>
        <time>2015-03-08T12:01:37.000Z</time>
      </trkpt>
      <trkpt lat="47.51161" lon="6.77782">
        <ele>323</ele>
        <time>2015-03-08T12:01:38.000Z</time>
      </trkpt>
      <trkpt lat="47.51163" lon="6.77782">
        <ele>323</ele>
        <time>2015-03-08T12:01:39.000Z</time>
      </trkpt>
      <trkpt lat="47.51166" lon="6.77783">
        <ele>323</ele>
        <time>2015-03-08T12:01:40.000Z</time>
      </trkpt>
      <trkpt lat="47.51168" lon="6.77783">
        <ele>326</ele>
        <time>2015-03-08T12:01:41.000Z</time>
      </trkpt>
      <trkpt lat="47.51171" lon="6.77784">
        <ele>326</ele>
        <time>2015-03-08T12:01:42.000Z</time>
      </trkpt>
      <trkpt lat="47.51173" lon="6.77784">
        <ele>326</ele>
        <time>2015-03-08T12:01:43.000Z</time>
      </trkpt>
      <trkpt lat="47.51176" lon="6.77785">
        <ele>326</ele>
        <time>2015-03-08T12:01:44.000Z</time>
      </trkpt>
      <trkpt lat="47.51178" lon="6.77785">
        <ele>326</ele>
        <time>2015-03-08T12:01:45.000Z</time>
      </trkpt>
      <trkpt lat="47.5118" lon="6.77786">
        <ele>326</ele>
        <time>2015-03-08T12:01:46.000Z</time>
      </trkpt>
      <trkpt lat="47.51183" lon="6.77786">
        <ele>326</ele>
        <time>2015-03-08T12:01:47.000Z</time>
      </trkpt>
      <trkpt lat="47.51186" lon="6.77786">
        <ele>326</ele>
        <time>2015-03-08T12:01:48.000Z</time>
      </trkpt>
      <trkpt lat="47.51188" lon="6.77786">
        <ele>326</ele>
        <time>2015-03-08T12:01:49.000Z</time>
      </trkpt>
      <trkpt lat="47.51191" lon="6.77786">
        <ele>326</ele>
        <time>2015-03-08T12:01:50.000Z</time>
      </trkpt>
      <trkpt lat="47.51193" lon="6.77786">
        <ele>327</ele>
        <time>2015-03-08T12:01:51.000Z</time>
      </trkpt>
      <trkpt lat="47.51196" lon="6.77786">
        <ele>327</ele>
        <time>2015-03-08T12:01:52.000Z</time>
      </trkpt>
      <trkpt lat="47.51198" lon="6.77786">
        <ele>327</ele>
        <time>2015-03-08T12:01:53.000Z</time>
      </trkpt>
      <trkpt lat="47.512" lon="6.77786">
        <ele>327</ele>
        <time>2015-03-08T12:01:54.000Z</time>
      </trkpt>
      <trkpt lat="47.51203" lon="6.77786">
        <ele>327</ele>
        <time>2015-03-08T12:01:55.000Z</time>
      </trkpt>
      <trkpt lat="47.51205" lon="6.77785">
        <ele>327</ele>
        <time>2015-03-08T12:01:56.000Z</time>
      </trkpt>
      <trkpt lat="47.51208" lon="6.77785">
        <ele>327</ele>
        <time>2015-03-08T12:01:57.000Z</time>
      </trkpt>
      <trkpt lat="47.51212" lon="6.77784">
        <ele>327</ele>
        <time>2015-03-08T12:01:59.000Z</time>
      </trkpt>
      <trkpt lat="47.51214" lon="6.77784">
        <ele>327</ele>
        <time>2015-03-08T12:02:00.000Z</time>
      </trkpt>
      <trkpt lat="47.51218" lon="6.77785">
        <ele>327</ele>
        <time>2015-03-08T12:02:02.000Z</time>
      </trkpt>
      <trkpt lat="47.5122" lon="6.77785">
        <ele>327</ele>
        <time>2015-03-08T12:02:03.000Z</time>
      </trkpt>
      <trkpt lat="47.51225" lon="6.77785">
        <ele>327</ele>
        <time>2015-03-08T12:02:05.000Z</time>
      </trkpt>
      <trkpt lat="47.51227" lon="6.77785">
        <ele>327</ele>
        <time>2015-03-08T12:02:06.000Z</time>
      </trkpt>
      <trkpt lat="47.5123" lon="6.77784">
        <ele>328</ele>
        <time>2015-03-08T12:02:08.000Z</time>
      </trkpt>
      <trkpt lat="47.51232" lon="6.77783">
        <ele>328</ele>
        <time>2015-03-08T12:02:09.000Z</time>
      </trkpt>
      <trkpt lat="47.51235" lon="6.77783">
        <ele>328</ele>
        <time>2015-03-08T12:02:11.000Z</time>
      </trkpt>
      <trkpt lat="47.51238" lon="6.77783">
        <ele>328</ele>
        <time>2015-03-08T12:02:12.000Z</time>
      </trkpt>
      <trkpt lat="47.51242" lon="6.77784">
        <ele>328</ele>
        <time>2015-03-08T12:02:14.000Z</time>
      </trkpt>
      <trkpt lat="47.51243" lon="6.77784">
        <ele>328</ele>
        <time>2015-03-08T12:02:15.000Z</time>
      </trkpt>
      <trkpt lat="47.51247" lon="6.77785">
        <ele>328</ele>
        <time>2015-03-08T12:02:17.000Z</time>
      </trkpt>
      <trkpt lat="47.51249" lon="6.77785">
        <ele>328</ele>
        <time>2015-03-08T12:02:18.000Z</time>
      </trkpt>
      <trkpt lat="47.51253" lon="6.77784">
        <ele>334</ele>
        <time>2015-03-08T12:02:20.000Z</time>
      </trkpt>
      <trkpt lat="47.51255" lon="6.77783">
        <ele>334</ele>
        <time>2015-03-08T12:02:21.000Z</time>
      </trkpt>
      <trkpt lat="47.51259" lon="6.77783">
        <ele>334</ele>
        <time>2015-03-08T12:02:23.000Z</time>
      </trkpt>
      <trkpt lat="47.51261" lon="6.77783">
        <ele>334</ele>
        <time>2015-03-08T12:02:24.000Z</time>
      </trkpt>
      <trkpt lat="47.51265" lon="6.77782">
        <ele>334</ele>
        <time>2015-03-08T12:02:26.000Z</time>
      </trkpt>
      <trkpt lat="47.51267" lon="6.77782">
        <ele>334</ele>
        <time>2015-03-08T12:02:27.000Z</time>
      </trkpt>
      <trkpt lat="47.51271" lon="6.77782">
        <ele>334</ele>
        <time>2015-03-08T12:02:29.000Z</time>
      </trkpt>
      <trkpt lat="47.51272" lon="6.77782">
        <ele>335</ele>
        <time>2015-03-08T12:02:30.000Z</time>
      </trkpt>
      <trkpt lat="47.51275" lon="6.77782">
        <ele>335</ele>
        <time>2015-03-08T12:02:32.000Z</time>
      </trkpt>
      <trkpt lat="47.51277" lon="6.77783">
        <ele>335</ele>
        <time>2015-03-08T12:02:33.000Z</time>
      </trkpt>
      <trkpt lat="47.51281" lon="6.77783">
        <ele>335</ele>
        <time>2015-03-08T12:02:35.000Z</time>
      </trkpt>
      <trkpt lat="47.51283" lon="6.77782">
        <ele>335</ele>
        <time>2015-03-08T12:02:36.000Z</time>
      </trkpt>
      <trkpt lat="47.51287" lon="6.77783">
        <ele>336</ele>
        <time>2015-03-08T12:02:38.000Z</time>
      </trkpt>
      <trkpt lat="47.51288" lon="6.77784">
        <ele>336</ele>
        <time>2015-03-08T12:02:39.000Z</time>
      </trkpt>
      <trkpt lat="47.51292" lon="6.77785">
        <ele>336</ele>
        <time>2015-03-08T12:02:41.000Z</time>
      </trkpt>
      <trkpt lat="47.51294" lon="6.77785">
        <ele>336</ele>
        <time>2015-03-08T12:02:42.000Z</time>
      </trkpt>
      <trkpt lat="47.51298" lon="6.77783">
        <ele>337</ele>
        <time>2015-03-08T12:02:44.000Z</time>
      </trkpt>
      <trkpt lat="47.513" lon="6.77783">
        <ele>337</ele>
        <time>2015-03-08T12:02:45.000Z</time>
      </trkpt>
      <trkpt lat="47.51302" lon="6.77782">
        <ele>337</ele>
        <time>2015-03-08T12:02:46.000Z</time>
      </trkpt>
      <trkpt lat="47.51305" lon="6.77781">
        <ele>337</ele>
        <time>2015-03-08T12:02:47.000Z</time>
      </trkpt>
      <trkpt lat="47.51307" lon="6.7778">
        <ele>338</ele>
        <time>2015-03-08T12:02:48.000Z</time>
      </trkpt>
      <trkpt lat="47.51309" lon="6.77779">
        <ele>338</ele>
        <time>2015-03-08T12:02:49.000Z</time>
      </trkpt>
      <trkpt lat="47.51313" lon="6.77778">
        <ele>338</ele>
        <time>2015-03-08T12:02:51.000Z</time>
      </trkpt>
      <trkpt lat="47.51314" lon="6.77778">
        <ele>338</ele>
        <time>2015-03-08T12:02:52.000Z</time>
      </trkpt>
      <trkpt lat="47.51318" lon="6.77778">
        <ele>338</ele>
        <time>2015-03-08T12:02:54.000Z</time>
      </trkpt>
      <trkpt lat="47.5132" lon="6.77778">
        <ele>339</ele>
        <time>2015-03-08T12:02:55.000Z</time>
      </trkpt>
      <trkpt lat="47.51324" lon="6.77776">
        <ele>339</ele>
        <time>2015-03-08T12:02:57.000Z</time>
      </trkpt>
      <trkpt lat="47.51326" lon="6.77775">
        <ele>339</ele>
        <time>2015-03-08T12:02:58.000Z</time>
      </trkpt>
      <trkpt lat="47.51329" lon="6.77773">
        <ele>339</ele>
        <time>2015-03-08T12:03:00.000Z</time>
      </trkpt>
      <trkpt lat="47.51332" lon="6.77773">
        <ele>339</ele>
        <time>2015-03-08T12:03:02.000Z</time>
      </trkpt>
      <trkpt lat="47.51335" lon="6.77775">
        <ele>348</ele>
        <time>2015-03-08T12:03:05.000Z</time>
      </trkpt>
      <trkpt lat="47.51336" lon="6.77776">
        <ele>348</ele>
        <time>2015-03-08T12:03:06.000Z</time>
      </trkpt>
      <trkpt lat="47.51339" lon="6.7778">
        <ele>348</ele>
        <time>2015-03-08T12:03:10.000Z</time>
      </trkpt>
      <trkpt lat="47.5134" lon="6.7778">
        <ele>348</ele>
        <time>2015-03-08T12:03:11.000Z</time>
      </trkpt>
      <trkpt lat="47.51343" lon="6.7778">
        <ele>348</ele>
        <time>2015-03-08T12:03:13.000Z</time>
      </trkpt>
      <trkpt lat="47.51345" lon="6.77779">
        <ele>348</ele>
        <time>2015-03-08T12:03:14.000Z</time>
      </trkpt>
      <trkpt lat="47.51348" lon="6.77776">
        <ele>348</ele>
        <time>2015-03-08T12:03:16.000Z</time>
      </trkpt>
      <trkpt lat="47.51349" lon="6.77775">
        <ele>349</ele>
        <time>2015-03-08T12:03:17.000Z</time>
      </trkpt>
      <trkpt lat="47.51352" lon="6.77773">
        <ele>349</ele>
        <time>2015-03-08T12:03:19.000Z</time>
      </trkpt>
      <trkpt lat="47.51353" lon="6.77771">
        <ele>349</ele>
        <time>2015-03-08T12:03:20.000Z</time>
      </trkpt>
      <trkpt lat="47.51357" lon="6.77768">
        <ele>349</ele>
        <time>2015-03-08T12:03:23.000Z</time>
      </trkpt>
      <trkpt lat="47.51358" lon="6.77767">
        <ele>349</ele>
        <time>2015-03-08T12:03:24.000Z</time>
      </trkpt>
      <trkpt lat="47.51362" lon="6.77766">
        <ele>349</ele>
        <time>2015-03-08T12:03:26.000Z</time>
      </trkpt>
      <trkpt lat="47.51364" lon="6.77765">
        <ele>350</ele>
        <time>2015-03-08T12:03:27.000Z</time>
      </trkpt>
      <trkpt lat="47.51367" lon="6.77764">
        <ele>350</ele>
        <time>2015-03-08T12:03:29.000Z</time>
      </trkpt>
      <trkpt lat="47.51369" lon="6.77762">
        <ele>350</ele>
        <time>2015-03-08T12:03:30.000Z</time>
      </trkpt>
      <trkpt lat="47.51373" lon="6.7776">
        <ele>351</ele>
        <time>2015-03-08T12:03:32.000Z</time>
      </trkpt>
      <trkpt lat="47.51375" lon="6.77759">
        <ele>351</ele>
        <time>2015-03-08T12:03:33.000Z</time>
      </trkpt>
      <trkpt lat="47.51378" lon="6.77756">
        <ele>351</ele>
        <time>2015-03-08T12:03:35.000Z</time>
      </trkpt>
      <trkpt lat="47.51379" lon="6.77755">
        <ele>351</ele>
        <time>2015-03-08T12:03:36.000Z</time>
      </trkpt>
      <trkpt lat="47.51382" lon="6.77753">
        <ele>352</ele>
        <time>2015-03-08T12:03:38.000Z</time>
      </trkpt>
      <trkpt lat="47.51384" lon="6.77751">
        <ele>352</ele>
        <time>2015-03-08T12:03:39.000Z</time>
      </trkpt>
      <trkpt lat="47.51387" lon="6.77749">
        <ele>355</ele>
        <time>2015-03-08T12:03:41.000Z</time>
      </trkpt>
      <trkpt lat="47.51389" lon="6.77748">
        <ele>355</ele>
        <time>2015-03-08T12:03:42.000Z</time>
      </trkpt>
      <trkpt lat="47.51393" lon="6.77747">
        <ele>355</ele>
        <time>2015-03-08T12:03:44.000Z</time>
      </trkpt>
      <trkpt lat="47.51394" lon="6.77747">
        <ele>355</ele>
        <time>2015-03-08T12:03:45.000Z</time>
      </trkpt>
      <trkpt lat="47.51398" lon="6.77746">
        <ele>356</ele>
        <time>2015-03-08T12:03:47.000Z</time>
      </trkpt>
      <trkpt lat="47.51399" lon="6.77745">
        <ele>356</ele>
        <time>2015-03-08T12:03:48.000Z</time>
      </trkpt>
      <trkpt lat="47.51403" lon="6.77745">
        <ele>356</ele>
        <time>2015-03-08T12:03:50.000Z</time>
      </trkpt>
      <trkpt lat="47.51405" lon="6.77744">
        <ele>356</ele>
        <time>2015-03-08T12:03:51.000Z</time>
      </trkpt>
      <trkpt lat="47.51408" lon="6.77744">
        <ele>356</ele>
        <time>2015-03-08T12:03:53.000Z</time>
      </trkpt>
      <trkpt lat="47.5141" lon="6.77743">
        <ele>356</ele>
        <time>2015-03-08T12:03:54.000Z</time>
      </trkpt>
      <trkpt lat="47.51413" lon="6.77741">
        <ele>356</ele>
        <time>2015-03-08T12:03:56.000Z</time>
      </trkpt>
      <trkpt lat="47.51414" lon="6.7774">
        <ele>356</ele>
        <time>2015-03-08T12:03:57.000Z</time>
      </trkpt>
      <trkpt lat="47.51416" lon="6.77735">
        <ele>356</ele>
        <time>2015-03-08T12:04:00.000Z</time>
      </trkpt>
      <trkpt lat="47.51418" lon="6.77732">
        <ele>362</ele>
        <time>2015-03-08T12:04:02.000Z</time>
      </trkpt>
      <trkpt lat="47.51421" lon="6.77731">
        <ele>362</ele>
        <time>2015-03-08T12:04:04.000Z</time>
      </trkpt>
      <trkpt lat="47.51423" lon="6.77731">
        <ele>362</ele>
        <time>2015-03-08T12:04:05.000Z</time>
      </trkpt>
      <trkpt lat="47.51425" lon="6.77732">
        <ele>362</ele>
        <time>2015-03-08T12:04:06.000Z</time>
      </trkpt>
      <trkpt lat="47.51427" lon="6.77732">
        <ele>362</ele>
        <time>2015-03-08T12:04:07.000Z</time>
      </trkpt>
      <trkpt lat="47.51432" lon="6.77732">
        <ele>363</ele>
        <time>2015-03-08T12:04:09.000Z</time>
      </trkpt>
      <trkpt lat="47.51433" lon="6.77732">
        <ele>363</ele>
        <time>2015-03-08T12:04:10.000Z</time>
      </trkpt>
      <trkpt lat="47.51437" lon="6.77731">
        <ele>363</ele>
        <time>2015-03-08T12:04:12.000Z</time>
      </trkpt>
      <trkpt lat="47.51439" lon="6.7773">
        <ele>364</ele>
        <time>2015-03-08T12:04:13.000Z</time>
      </trkpt>
      <trkpt lat="47.51441" lon="6.77728">
        <ele>364</ele>
        <time>2015-03-08T12:04:15.000Z</time>
      </trkpt>
      <trkpt lat="47.51443" lon="6.77728">
        <ele>364</ele>
        <time>2015-03-08T12:04:16.000Z</time>
      </trkpt>
      <trkpt lat="47.51447" lon="6.77727">
        <ele>365</ele>
        <time>2015-03-08T12:04:19.000Z</time>
      </trkpt>
      <trkpt lat="47.51449" lon="6.77726">
        <ele>365</ele>
        <time>2015-03-08T12:04:20.000Z</time>
      </trkpt>
      <trkpt lat="47.51453" lon="6.77726">
        <ele>365</ele>
        <time>2015-03-08T12:04:23.000Z</time>
      </trkpt>
      <trkpt lat="47.51454" lon="6.77727">
        <ele>365</ele>
        <time>2015-03-08T12:04:24.000Z</time>
      </trkpt>
      <trkpt lat="47.51458" lon="6.77727">
        <ele>365</ele>
        <time>2015-03-08T12:04:27.000Z</time>
      </trkpt>
      <trkpt lat="47.51459" lon="6.77727">
        <ele>365</ele>
        <time>2015-03-08T12:04:28.000Z</time>
      </trkpt>
      <trkpt lat="47.51463" lon="6.77727">
        <ele>365</ele>
        <time>2015-03-08T12:04:31.000Z</time>
      </trkpt>
      <trkpt lat="47.51464" lon="6.77727">
        <ele>366</ele>
        <time>2015-03-08T12:04:32.000Z</time>
      </trkpt>
      <trkpt lat="47.51468" lon="6.77727">
        <ele>366</ele>
        <time>2015-03-08T12:04:35.000Z</time>
      </trkpt>
      <trkpt lat="47.51469" lon="6.77727">
        <ele>366</ele>
        <time>2015-03-08T12:04:36.000Z</time>
      </trkpt>
      <trkpt lat="47.51473" lon="6.77729">
        <ele>366</ele>
        <time>2015-03-08T12:04:39.000Z</time>
      </trkpt>
      <trkpt lat="47.51475" lon="6.7773">
        <ele>366</ele>
        <time>2015-03-08T12:04:40.000Z</time>
      </trkpt>
      <trkpt lat="47.51478" lon="6.7773">
        <ele>366</ele>
        <time>2015-03-08T12:04:42.000Z</time>
      </trkpt>
      <trkpt lat="47.5148" lon="6.7773">
        <ele>366</ele>
        <time>2015-03-08T12:04:43.000Z</time>
      </trkpt>
      <trkpt lat="47.51483" lon="6.7773">
        <ele>366</ele>
        <time>2015-03-08T12:04:45.000Z</time>
      </trkpt>
      <trkpt lat="47.51485" lon="6.77729">
        <ele>366</ele>
        <time>2015-03-08T12:04:46.000Z</time>
      </trkpt>
      <trkpt lat="47.51488" lon="6.77729">
        <ele>366</ele>
        <time>2015-03-08T12:04:49.000Z</time>
      </trkpt>
      <trkpt lat="47.51489" lon="6.77729">
        <ele>366</ele>
        <time>2015-03-08T12:04:50.000Z</time>
      </trkpt>
      <trkpt lat="47.51492" lon="6.7773">
        <ele>366</ele>
        <time>2015-03-08T12:04:52.000Z</time>
      </trkpt>
      <trkpt lat="47.51494" lon="6.7773">
        <ele>366</ele>
        <time>2015-03-08T12:04:53.000Z</time>
      </trkpt>
      <trkpt lat="47.51498" lon="6.77728">
        <ele>366</ele>
        <time>2015-03-08T12:04:55.000Z</time>
      </trkpt>
      <trkpt lat="47.515" lon="6.77727">
        <ele>366</ele>
        <time>2015-03-08T12:04:56.000Z</time>
      </trkpt>
      <trkpt lat="47.51503" lon="6.77726">
        <ele>370</ele>
        <time>2015-03-08T12:04:58.000Z</time>
      </trkpt>
      <trkpt lat="47.51505" lon="6.77726">
        <ele>370</ele>
        <time>2015-03-08T12:04:59.000Z</time>
      </trkpt>
      <trkpt lat="47.51506" lon="6.77726">
        <ele>370</ele>
        <time>2015-03-08T12:05:00.000Z</time>
      </trkpt>
      <trkpt lat="47.51509" lon="6.77725">
        <ele>371</ele>
        <time>2015-03-08T12:05:02.000Z</time>
      </trkpt>
      <trkpt lat="47.51513" lon="6.77723">
        <ele>371</ele>
        <time>2015-03-08T12:05:06.000Z</time>
      </trkpt>
      <trkpt lat="47.51514" lon="6.77722">
        <ele>371</ele>
        <time>2015-03-08T12:05:07.000Z</time>
      </trkpt>
      <trkpt lat="47.51518" lon="6.77721">
        <ele>372</ele>
        <time>2015-03-08T12:05:10.000Z</time>
      </trkpt>
      <trkpt lat="47.5152" lon="6.77721">
        <ele>372</ele>
        <time>2015-03-08T12:05:11.000Z</time>
      </trkpt>
      <trkpt lat="47.51523" lon="6.77721">
        <ele>372</ele>
        <time>2015-03-08T12:05:13.000Z</time>
      </trkpt>
      <trkpt lat="47.51525" lon="6.77719">
        <ele>372</ele>
        <time>2015-03-08T12:05:14.000Z</time>
      </trkpt>
      <trkpt lat="47.51529" lon="6.77719">
        <ele>373</ele>
        <time>2015-03-08T12:05:18.000Z</time>
      </trkpt>
      <trkpt lat="47.51531" lon="6.77719">
        <ele>373</ele>
        <time>2015-03-08T12:05:19.000Z</time>
      </trkpt>
      <trkpt lat="47.51534" lon="6.77719">
        <ele>373</ele>
        <time>2015-03-08T12:05:21.000Z</time>
      </trkpt>
      <trkpt lat="47.51536" lon="6.77719">
        <ele>373</ele>
        <time>2015-03-08T12:05:22.000Z</time>
      </trkpt>
      <trkpt lat="47.51539" lon="6.7772">
        <ele>373</ele>
        <time>2015-03-08T12:05:24.000Z</time>
      </trkpt>
      <trkpt lat="47.51541" lon="6.7772">
        <ele>373</ele>
        <time>2015-03-08T12:05:25.000Z</time>
      </trkpt>
      <trkpt lat="47.51544" lon="6.7772">
        <ele>373</ele>
        <time>2015-03-08T12:05:27.000Z</time>
      </trkpt>
      <trkpt lat="47.51545" lon="6.77721">
        <ele>374</ele>
        <time>2015-03-08T12:05:28.000Z</time>
      </trkpt>
      <trkpt lat="47.51548" lon="6.77722">
        <ele>374</ele>
        <time>2015-03-08T12:05:30.000Z</time>
      </trkpt>
      <trkpt lat="47.5155" lon="6.77722">
        <ele>374</ele>
        <time>2015-03-08T12:05:31.000Z</time>
      </trkpt>
      <trkpt lat="47.51553" lon="6.77723">
        <ele>374</ele>
        <time>2015-03-08T12:05:33.000Z</time>
      </trkpt>
      <trkpt lat="47.51554" lon="6.77723">
        <ele>374</ele>
        <time>2015-03-08T12:05:34.000Z</time>
      </trkpt>
      <trkpt lat="47.51557" lon="6.77725">
        <ele>374</ele>
        <time>2015-03-08T12:05:36.000Z</time>
      </trkpt>
      <trkpt lat="47.51558" lon="6.77727">
        <ele>374</ele>
        <time>2015-03-08T12:05:37.000Z</time>
      </trkpt>
      <trkpt lat="47.51562" lon="6.7773">
        <ele>374</ele>
        <time>2015-03-08T12:05:40.000Z</time>
      </trkpt>
      <trkpt lat="47.51563" lon="6.77731">
        <ele>374</ele>
        <time>2015-03-08T12:05:41.000Z</time>
      </trkpt>
      <trkpt lat="47.51566" lon="6.77731">
        <ele>375</ele>
        <time>2015-03-08T12:05:43.000Z</time>
      </trkpt>
      <trkpt lat="47.51568" lon="6.77731">
        <ele>375</ele>
        <time>2015-03-08T12:05:44.000Z</time>
      </trkpt>
      <trkpt lat="47.51572" lon="6.77731">
        <ele>375</ele>
        <time>2015-03-08T12:05:46.000Z</time>
      </trkpt>
      <trkpt lat="47.51573" lon="6.77731">
        <ele>375</ele>
        <time>2015-03-08T12:05:47.000Z</time>
      </trkpt>
      <trkpt lat="47.51576" lon="6.77732">
        <ele>375</ele>
        <time>2015-03-08T12:05:49.000Z</time>
      </trkpt>
      <trkpt lat="47.51578" lon="6.77733">
        <ele>375</ele>
        <time>2015-03-08T12:05:50.000Z</time>
      </trkpt>
      <trkpt lat="47.51582" lon="6.77734">
        <ele>375</ele>
        <time>2015-03-08T12:05:52.000Z</time>
      </trkpt>
      <trkpt lat="47.51583" lon="6.77735">
        <ele>375</ele>
        <time>2015-03-08T12:05:53.000Z</time>
      </trkpt>
      <trkpt lat="47.51585" lon="6.77739">
        <ele>378</ele>
        <time>2015-03-08T12:05:58.000Z</time>
      </trkpt>
      <trkpt lat="47.51587" lon="6.77739">
        <ele>378</ele>
        <time>2015-03-08T12:05:59.000Z</time>
      </trkpt>
      <trkpt lat="47.5159" lon="6.7774">
        <ele>378</ele>
        <time>2015-03-08T12:06:01.000Z</time>
      </trkpt>
      <trkpt lat="47.51591" lon="6.77741">
        <ele>378</ele>
        <time>2015-03-08T12:06:02.000Z</time>
      </trkpt>
      <trkpt lat="47.51594" lon="6.77743">
        <ele>378</ele>
        <time>2015-03-08T12:06:04.000Z</time>
      </trkpt>
      <trkpt lat="47.51595" lon="6.77745">
        <ele>378</ele>
        <time>2015-03-08T12:06:05.000Z</time>
      </trkpt>
      <trkpt lat="47.51598" lon="6.77747">
        <ele>379</ele>
        <time>2015-03-08T12:06:07.000Z</time>
      </trkpt>
      <trkpt lat="47.51599" lon="6.77748">
        <ele>379</ele>
        <time>2015-03-08T12:06:08.000Z</time>
      </trkpt>
      <trkpt lat="47.51602" lon="6.77751">
        <ele>379</ele>
        <time>2015-03-08T12:06:12.000Z</time>
      </trkpt>
      <trkpt lat="47.51604" lon="6.77752">
        <ele>380</ele>
        <time>2015-03-08T12:06:13.000Z</time>
      </trkpt>
      <trkpt lat="47.51607" lon="6.77752">
        <ele>380</ele>
        <time>2015-03-08T12:06:15.000Z</time>
      </trkpt>
      <trkpt lat="47.51609" lon="6.77753">
        <ele>380</ele>
        <time>2015-03-08T12:06:16.000Z</time>
      </trkpt>
      <trkpt lat="47.51613" lon="6.77753">
        <ele>381</ele>
        <time>2015-03-08T12:06:18.000Z</time>
      </trkpt>
      <trkpt lat="47.51615" lon="6.77753">
        <ele>381</ele>
        <time>2015-03-08T12:06:19.000Z</time>
      </trkpt>
      <trkpt lat="47.51618" lon="6.77753">
        <ele>381</ele>
        <time>2015-03-08T12:06:21.000Z</time>
      </trkpt>
      <trkpt lat="47.5162" lon="6.77753">
        <ele>381</ele>
        <time>2015-03-08T12:06:22.000Z</time>
      </trkpt>
      <trkpt lat="47.51623" lon="6.77753">
        <ele>381</ele>
        <time>2015-03-08T12:06:24.000Z</time>
      </trkpt>
      <trkpt lat="47.51625" lon="6.77754">
        <ele>381</ele>
        <time>2015-03-08T12:06:25.000Z</time>
      </trkpt>
      <trkpt lat="47.51628" lon="6.77754">
        <ele>382</ele>
        <time>2015-03-08T12:06:27.000Z</time>
      </trkpt>
      <trkpt lat="47.5163" lon="6.77755">
        <ele>382</ele>
        <time>2015-03-08T12:06:28.000Z</time>
      </trkpt>
      <trkpt lat="47.51634" lon="6.77755">
        <ele>382</ele>
        <time>2015-03-08T12:06:30.000Z</time>
      </trkpt>
      <trkpt lat="47.51635" lon="6.77755">
        <ele>382</ele>
        <time>2015-03-08T12:06:31.000Z</time>
      </trkpt>
      <trkpt lat="47.51639" lon="6.77755">
        <ele>382</ele>
        <time>2015-03-08T12:06:33.000Z</time>
      </trkpt>
      <trkpt lat="47.5164" lon="6.77755">
        <ele>382</ele>
        <time>2015-03-08T12:06:34.000Z</time>
      </trkpt>
      <trkpt lat="47.51644" lon="6.77755">
        <ele>382</ele>
        <time>2015-03-08T12:06:37.000Z</time>
      </trkpt>
      <trkpt lat="47.51645" lon="6.77756">
        <ele>382</ele>
        <time>2015-03-08T12:06:38.000Z</time>
      </trkpt>
      <trkpt lat="47.51648" lon="6.77755">
        <ele>382</ele>
        <time>2015-03-08T12:06:41.000Z</time>
      </trkpt>
      <trkpt lat="47.5165" lon="6.77756">
        <ele>382</ele>
        <time>2015-03-08T12:06:42.000Z</time>
      </trkpt>
      <trkpt lat="47.51654" lon="6.77758">
        <ele>383</ele>
        <time>2015-03-08T12:06:44.000Z</time>
      </trkpt>
      <trkpt lat="47.51656" lon="6.7776">
        <ele>383</ele>
        <time>2015-03-08T12:06:45.000Z</time>
      </trkpt>
      <trkpt lat="47.51658" lon="6.77761">
        <ele>383</ele>
        <time>2015-03-08T12:06:46.000Z</time>
      </trkpt>
      <trkpt lat="47.51661" lon="6.77762">
        <ele>383</ele>
        <time>2015-03-08T12:06:47.000Z</time>
      </trkpt>
      <trkpt lat="47.51664" lon="6.77763">
        <ele>383</ele>
        <time>2015-03-08T12:06:49.000Z</time>
      </trkpt>
      <trkpt lat="47.51666" lon="6.77765">
        <ele>383</ele>
        <time>2015-03-08T12:06:50.000Z</time>
      </trkpt>
      <trkpt lat="47.51669" lon="6.77767">
        <ele>385</ele>
        <time>2015-03-08T12:06:52.000Z</time>
      </trkpt>
      <trkpt lat="47.51671" lon="6.77767">
        <ele>385</ele>
        <time>2015-03-08T12:06:53.000Z</time>
      </trkpt>
      <trkpt lat="47.51676" lon="6.77768">
        <ele>385</ele>
        <time>2015-03-08T12:06:55.000Z</time>
      </trkpt>
      <trkpt lat="47.51678" lon="6.77768">
        <ele>385</ele>
        <time>2015-03-08T12:06:56.000Z</time>
      </trkpt>
      <trkpt lat="47.51682" lon="6.77769">
        <ele>385</ele>
        <time>2015-03-08T12:06:58.000Z</time>
      </trkpt>
      <trkpt lat="47.51684" lon="6.77769">
        <ele>385</ele>
        <time>2015-03-08T12:06:59.000Z</time>
      </trkpt>
      <trkpt lat="47.51686" lon="6.7777">
        <ele>385</ele>
        <time>2015-03-08T12:07:00.000Z</time>
      </trkpt>
      <trkpt lat="47.51689" lon="6.7777">
        <ele>385</ele>
        <time>2015-03-08T12:07:02.000Z</time>
      </trkpt>
      <trkpt lat="47.51693" lon="6.7777">
        <ele>385</ele>
        <time>2015-03-08T12:07:04.000Z</time>
      </trkpt>
      <trkpt lat="47.51695" lon="6.7777">
        <ele>385</ele>
        <time>2015-03-08T12:07:05.000Z</time>
      </trkpt>
      <trkpt lat="47.51698" lon="6.7777">
        <ele>386</ele>
        <time>2015-03-08T12:07:07.000Z</time>
      </trkpt>
      <trkpt lat="47.51699" lon="6.7777">
        <ele>386</ele>
        <time>2015-03-08T12:07:08.000Z</time>
      </trkpt>
      <trkpt lat="47.51702" lon="6.77772">
        <ele>386</ele>
        <time>2015-03-08T12:07:10.000Z</time>
      </trkpt>
      <trkpt lat="47.51704" lon="6.77772">
        <ele>386</ele>
        <time>2015-03-08T12:07:11.000Z</time>
      </trkpt>
      <trkpt lat="47.51707" lon="6.7777">
        <ele>386</ele>
        <time>2015-03-08T12:07:13.000Z</time>
      </trkpt>
      <trkpt lat="47.51708" lon="6.77768">
        <ele>386</ele>
        <time>2015-03-08T12:07:14.000Z</time>
      </trkpt>
      <trkpt lat="47.5171" lon="6.77763">
        <ele>386</ele>
        <time>2015-03-08T12:07:16.000Z</time>
      </trkpt>
      <trkpt lat="47.5171" lon="6.77759">
        <ele>386</ele>
        <time>2015-03-08T12:07:17.000Z</time>
      </trkpt>
      <trkpt lat="47.51711" lon="6.77753">
        <ele>386</ele>
        <time>2015-03-08T12:07:19.000Z</time>
      </trkpt>
      <trkpt lat="47.51711" lon="6.7775">
        <ele>386</ele>
        <time>2015-03-08T12:07:20.000Z</time>
      </trkpt>
      <trkpt lat="47.51712" lon="6.77744">
        <ele>387</ele>
        <time>2015-03-08T12:07:22.000Z</time>
      </trkpt>
      <trkpt lat="47.51713" lon="6.77742">
        <ele>387</ele>
        <time>2015-03-08T12:07:23.000Z</time>
      </trkpt>
      <trkpt lat="47.51713" lon="6.77736">
        <ele>387</ele>
        <time>2015-03-08T12:07:25.000Z</time>
      </trkpt>
      <trkpt lat="47.51712" lon="6.77734">
        <ele>387</ele>
        <time>2015-03-08T12:07:26.000Z</time>
      </trkpt>
      <trkpt lat="47.51711" lon="6.77729">
        <ele>387</ele>
        <time>2015-03-08T12:07:28.000Z</time>
      </trkpt>
      <trkpt lat="47.5171" lon="6.77726">
        <ele>387</ele>
        <time>2015-03-08T12:07:29.000Z</time>
      </trkpt>
      <trkpt lat="47.51709" lon="6.77721">
        <ele>387</ele>
        <time>2015-03-08T12:07:31.000Z</time>
      </trkpt>
      <trkpt lat="47.51709" lon="6.77719">
        <ele>387</ele>
        <time>2015-03-08T12:07:32.000Z</time>
      </trkpt>
      <trkpt lat="47.51707" lon="6.77714">
        <ele>387</ele>
        <time>2015-03-08T12:07:34.000Z</time>
      </trkpt>
      <trkpt lat="47.51707" lon="6.77711">
        <ele>387</ele>
        <time>2015-03-08T12:07:35.000Z</time>
      </trkpt>
      <trkpt lat="47.51706" lon="6.77706">
        <ele>387</ele>
        <time>2015-03-08T12:07:37.000Z</time>
      </trkpt>
      <trkpt lat="47.51706" lon="6.77703">
        <ele>388</ele>
        <time>2015-03-08T12:07:38.000Z</time>
      </trkpt>
      <trkpt lat="47.51707" lon="6.77698">
        <ele>388</ele>
        <time>2015-03-08T12:07:40.000Z</time>
      </trkpt>
      <trkpt lat="47.51708" lon="6.77696">
        <ele>388</ele>
        <time>2015-03-08T12:07:41.000Z</time>
      </trkpt>
      <trkpt lat="47.51709" lon="6.77691">
        <ele>388</ele>
        <time>2015-03-08T12:07:43.000Z</time>
      </trkpt>
      <trkpt lat="47.51709" lon="6.77689">
        <ele>388</ele>
        <time>2015-03-08T12:07:44.000Z</time>
      </trkpt>
      <trkpt lat="47.5171" lon="6.77684">
        <ele>388</ele>
        <time>2015-03-08T12:07:46.000Z</time>
      </trkpt>
      <trkpt lat="47.5171" lon="6.77681">
        <ele>388</ele>
        <time>2015-03-08T12:07:47.000Z</time>
      </trkpt>
      <trkpt lat="47.51711" lon="6.77676">
        <ele>388</ele>
        <time>2015-03-08T12:07:49.000Z</time>
      </trkpt>
      <trkpt lat="47.51711" lon="6.77673">
        <ele>388</ele>
        <time>2015-03-08T12:07:50.000Z</time>
      </trkpt>
      <trkpt lat="47.51712" lon="6.77667">
        <ele>388</ele>
        <time>2015-03-08T12:07:52.000Z</time>
      </trkpt>
      <trkpt lat="47.51712" lon="6.77664">
        <ele>390</ele>
        <time>2015-03-08T12:07:53.000Z</time>
      </trkpt>
      <trkpt lat="47.51712" lon="6.7766">
        <ele>390</ele>
        <time>2015-03-08T12:07:54.000Z</time>
      </trkpt>
      <trkpt lat="47.51713" lon="6.77657">
        <ele>390</ele>
        <time>2015-03-08T12:07:55.000Z</time>
      </trkpt>
      <trkpt lat="47.51713" lon="6.77653">
        <ele>390</ele>
        <time>2015-03-08T12:07:56.000Z</time>
      </trkpt>
      <trkpt lat="47.51713" lon="6.7765">
        <ele>390</ele>
        <time>2015-03-08T12:07:57.000Z</time>
      </trkpt>
      <trkpt lat="47.51713" lon="6.77647">
        <ele>390</ele>
        <time>2015-03-08T12:07:58.000Z</time>
      </trkpt>
      <trkpt lat="47.51713" lon="6.77643">
        <ele>390</ele>
        <time>2015-03-08T12:07:59.000Z</time>
      </trkpt>
      <trkpt lat="47.51713" lon="6.7764">
        <ele>390</ele>
        <time>2015-03-08T12:08:00.000Z</time>
      </trkpt>
      <trkpt lat="47.51713" lon="6.77633">
        <ele>390</ele>
        <time>2015-03-08T12:08:02.000Z</time>
      </trkpt>
      <trkpt lat="47.51713" lon="6.77629">
        <ele>390</ele>
        <time>2015-03-08T12:08:03.000Z</time>
      </trkpt>
      <trkpt lat="47.51713" lon="6.77626">
        <ele>390</ele>
        <time>2015-03-08T12:08:04.000Z</time>
      </trkpt>
      <trkpt lat="47.51713" lon="6.77622">
        <ele>390</ele>
        <time>2015-03-08T12:08:05.000Z</time>
      </trkpt>
      <trkpt lat="47.51713" lon="6.77619">
        <ele>390</ele>
        <time>2015-03-08T12:08:06.000Z</time>
      </trkpt>
      <trkpt lat="47.51713" lon="6.77615">
        <ele>390</ele>
        <time>2015-03-08T12:08:07.000Z</time>
      </trkpt>
      <trkpt lat="47.51713" lon="6.77612">
        <ele>390</ele>
        <time>2015-03-08T12:08:08.000Z</time>
      </trkpt>
      <trkpt lat="47.51713" lon="6.77608">
        <ele>390</ele>
        <time>2015-03-08T12:08:09.000Z</time>
      </trkpt>
      <trkpt lat="47.51713" lon="6.77604">
        <ele>390</ele>
        <time>2015-03-08T12:08:10.000Z</time>
      </trkpt>
      <trkpt lat="47.51714" lon="6.77601">
        <ele>390</ele>
        <time>2015-03-08T12:08:11.000Z</time>
      </trkpt>
      <trkpt lat="47.51714" lon="6.77597">
        <ele>390</ele>
        <time>2015-03-08T12:08:12.000Z</time>
      </trkpt>
      <trkpt lat="47.51715" lon="6.77593">
        <ele>390</ele>
        <time>2015-03-08T12:08:13.000Z</time>
      </trkpt>
      <trkpt lat="47.51716" lon="6.7759">
        <ele>390</ele>
        <time>2015-03-08T12:08:14.000Z</time>
      </trkpt>
      <trkpt lat="47.51716" lon="6.77587">
        <ele>390</ele>
        <time>2015-03-08T12:08:15.000Z</time>
      </trkpt>
      <trkpt lat="47.51716" lon="6.77583">
        <ele>390</ele>
        <time>2015-03-08T12:08:16.000Z</time>
      </trkpt>
      <trkpt lat="47.51716" lon="6.77579">
        <ele>390</ele>
        <time>2015-03-08T12:08:17.000Z</time>
      </trkpt>
      <trkpt lat="47.51717" lon="6.77576">
        <ele>390</ele>
        <time>2015-03-08T12:08:18.000Z</time>
      </trkpt>
      <trkpt lat="47.51718" lon="6.7757">
        <ele>390</ele>
        <time>2015-03-08T12:08:20.000Z</time>
      </trkpt>
      <trkpt lat="47.51718" lon="6.77567">
        <ele>390</ele>
        <time>2015-03-08T12:08:21.000Z</time>
      </trkpt>
      <trkpt lat="47.51719" lon="6.77562">
        <ele>390</ele>
        <time>2015-03-08T12:08:22.000Z</time>
      </trkpt>
      <trkpt lat="47.5172" lon="6.77558">
        <ele>390</ele>
        <time>2015-03-08T12:08:23.000Z</time>
      </trkpt>
      <trkpt lat="47.51721" lon="6.77552">
        <ele>390</ele>
        <time>2015-03-08T12:08:24.000Z</time>
      </trkpt>
      <trkpt lat="47.51721" lon="6.77546">
        <ele>390</ele>
        <time>2015-03-08T12:08:25.000Z</time>
      </trkpt>
      <trkpt lat="47.51722" lon="6.7754">
        <ele>390</ele>
        <time>2015-03-08T12:08:26.000Z</time>
      </trkpt>
      <trkpt lat="47.51723" lon="6.77534">
        <ele>390</ele>
        <time>2015-03-08T12:08:27.000Z</time>
      </trkpt>
      <trkpt lat="47.51724" lon="6.77528">
        <ele>390</ele>
        <time>2015-03-08T12:08:28.000Z</time>
      </trkpt>
      <trkpt lat="47.51725" lon="6.77521">
        <ele>390</ele>
        <time>2015-03-08T12:08:29.000Z</time>
      </trkpt>
      <trkpt lat="47.51726" lon="6.77515">
        <ele>390</ele>
        <time>2015-03-08T12:08:30.000Z</time>
      </trkpt>
      <trkpt lat="47.51727" lon="6.7751">
        <ele>390</ele>
        <time>2015-03-08T12:08:31.000Z</time>
      </trkpt>
      <trkpt lat="47.51728" lon="6.77504">
        <ele>390</ele>
        <time>2015-03-08T12:08:32.000Z</time>
      </trkpt>
      <trkpt lat="47.51729" lon="6.77498">
        <ele>389</ele>
        <time>2015-03-08T12:08:33.000Z</time>
      </trkpt>
      <trkpt lat="47.5173" lon="6.77492">
        <ele>389</ele>
        <time>2015-03-08T12:08:34.000Z</time>
      </trkpt>
      <trkpt lat="47.51731" lon="6.77486">
        <ele>389</ele>
        <time>2015-03-08T12:08:35.000Z</time>
      </trkpt>
      <trkpt lat="47.51732" lon="6.77481">
        <ele>389</ele>
        <time>2015-03-08T12:08:36.000Z</time>
      </trkpt>
      <trkpt lat="47.51734" lon="6.77476">
        <ele>389</ele>
        <time>2015-03-08T12:08:37.000Z</time>
      </trkpt>
      <trkpt lat="47.51737" lon="6.77474">
        <ele>389</ele>
        <time>2015-03-08T12:08:38.000Z</time>
      </trkpt>
      <trkpt lat="47.51741" lon="6.77473">
        <ele>389</ele>
        <time>2015-03-08T12:08:39.000Z</time>
      </trkpt>
      <trkpt lat="47.51745" lon="6.77474">
        <ele>389</ele>
        <time>2015-03-08T12:08:40.000Z</time>
      </trkpt>
      <trkpt lat="47.51749" lon="6.77475">
        <ele>389</ele>
        <time>2015-03-08T12:08:41.000Z</time>
      </trkpt>
      <trkpt lat="47.51753" lon="6.77476">
        <ele>389</ele>
        <time>2015-03-08T12:08:42.000Z</time>
      </trkpt>
      <trkpt lat="47.51756" lon="6.77478">
        <ele>389</ele>
        <time>2015-03-08T12:08:43.000Z</time>
      </trkpt>
      <trkpt lat="47.5176" lon="6.77479">
        <ele>389</ele>
        <time>2015-03-08T12:08:44.000Z</time>
      </trkpt>
      <trkpt lat="47.51763" lon="6.7748">
        <ele>389</ele>
        <time>2015-03-08T12:08:45.000Z</time>
      </trkpt>
      <trkpt lat="47.51767" lon="6.77482">
        <ele>389</ele>
        <time>2015-03-08T12:08:46.000Z</time>
      </trkpt>
      <trkpt lat="47.5177" lon="6.77483">
        <ele>388</ele>
        <time>2015-03-08T12:08:47.000Z</time>
      </trkpt>
      <trkpt lat="47.51774" lon="6.77484">
        <ele>388</ele>
        <time>2015-03-08T12:08:48.000Z</time>
      </trkpt>
      <trkpt lat="47.51778" lon="6.77486">
        <ele>388</ele>
        <time>2015-03-08T12:08:49.000Z</time>
      </trkpt>
      <trkpt lat="47.51782" lon="6.77487">
        <ele>388</ele>
        <time>2015-03-08T12:08:50.000Z</time>
      </trkpt>
      <trkpt lat="47.51786" lon="6.77489">
        <ele>388</ele>
        <time>2015-03-08T12:08:51.000Z</time>
      </trkpt>
      <trkpt lat="47.51791" lon="6.7749">
        <ele>388</ele>
        <time>2015-03-08T12:08:52.000Z</time>
      </trkpt>
      <trkpt lat="47.51798" lon="6.77499">
        <ele>388</ele>
        <time>2015-03-08T12:08:53.000Z</time>
      </trkpt>
      <trkpt lat="47.51803" lon="6.77501">
        <ele>389</ele>
        <time>2015-03-08T12:08:54.000Z</time>
      </trkpt>
      <trkpt lat="47.51807" lon="6.77499">
        <ele>388</ele>
        <time>2015-03-08T12:08:55.000Z</time>
      </trkpt>
      <trkpt lat="47.51806" lon="6.77492">
        <ele>388</ele>
        <time>2015-03-08T12:08:56.000Z</time>
      </trkpt>
      <trkpt lat="47.51807" lon="6.77488">
        <ele>388</ele>
        <time>2015-03-08T12:08:57.000Z</time>
      </trkpt>
      <trkpt lat="47.51806" lon="6.77484">
        <ele>388</ele>
        <time>2015-03-08T12:08:58.000Z</time>
      </trkpt>
      <trkpt lat="47.51802" lon="6.77482">
        <ele>388</ele>
        <time>2015-03-08T12:10:07.000Z</time>
      </trkpt>
    </trkseg>
  </trk>
</gpx>